<?xml version='1.0' encoding='UTF-8'?><gpx version="1.1" creator="JPX - https://github.com/jenetics/jpx" xmlns="http://www.topografix.com/GPX/1/1"><trk><trkseg><trkpt lat="45.5322815" lon="10.2384654"><ele>133.0</ele><time>2026-03-28T07:23:40.439Z</time></trkpt><trkpt lat="45.5323982" lon="10.2384507"><ele>133.0</ele><time>2026-03-28T07:23:47.464Z</time></trkpt><trkpt lat="45.5322729" lon="10.2385085"><ele>133.0</ele><time>2026-03-28T07:25:07.448Z</time></trkpt><trkpt lat="45.5321133" lon="10.2385911"><ele>133.0</ele><time>2026-03-28T07:25:11.422Z</time></trkpt><trkpt lat="45.5317148" lon="10.2384667"><ele>133.0</ele><time>2026-03-28T07:26:05.939Z</time></trkpt><trkpt lat="45.5318869" lon="10.2382832"><ele>133.0</ele><time>2026-03-28T07:26:13.436Z</time></trkpt><trkpt lat="45.5319463" lon="10.2380438"><ele>133.0</ele><time>2026-03-28T07:26:20.324Z</time></trkpt><trkpt lat="45.5320179" lon="10.2375281"><ele>133.0</ele><time>2026-03-28T07:26:27.03Z</time></trkpt><trkpt lat="45.532195" lon="10.237549"><ele>133.0</ele><time>2026-03-28T07:26:33.432Z</time></trkpt><trkpt lat="45.5328535" lon="10.2377417"><ele>136.0</ele><time>2026-03-28T07:26:40.231Z</time></trkpt><trkpt lat="45.5335293" lon="10.2382976"><ele>137.0</ele><time>2026-03-28T07:26:47.166Z</time></trkpt><trkpt lat="45.5337409" lon="10.2384509"><ele>138.0</ele><time>2026-03-28T07:26:57.329Z</time></trkpt><trkpt lat="45.5340856" lon="10.2389491"><ele>135.0</ele><time>2026-03-28T07:27:06.728Z</time></trkpt><trkpt lat="45.5335248" lon="10.2397839"><ele>136.0</ele><time>2026-03-28T07:27:13.444Z</time></trkpt><trkpt lat="45.5334549" lon="10.2401187"><ele>137.0</ele><time>2026-03-28T07:27:23.828Z</time></trkpt><trkpt lat="45.5334132" lon="10.2404356"><ele>137.0</ele><time>2026-03-28T07:27:25.049Z</time></trkpt><trkpt lat="45.5333938" lon="10.2405825"><ele>137.0</ele><time>2026-03-28T07:27:26.166Z</time></trkpt><trkpt lat="45.5328761" lon="10.2422732"><ele>137.0</ele><time>2026-03-28T07:27:27.345Z</time></trkpt><trkpt lat="45.5323521" lon="10.2434086"><ele>133.0</ele><time>2026-03-28T07:27:33.333Z</time></trkpt><trkpt lat="45.5320198" lon="10.2444557"><ele>133.0</ele><time>2026-03-28T07:27:40.217Z</time></trkpt><trkpt lat="45.5319919" lon="10.2445585"><ele>133.0</ele><time>2026-03-28T07:27:47.543Z</time></trkpt><trkpt lat="45.5317803" lon="10.2454794"><ele>134.0</ele><time>2026-03-28T07:28:08.95Z</time></trkpt><trkpt lat="45.5314574" lon="10.246146"><ele>136.0</ele><time>2026-03-28T07:28:15.771Z</time></trkpt><trkpt lat="45.5314064" lon="10.2473274"><ele>132.0</ele><time>2026-03-28T07:28:22.311Z</time></trkpt><trkpt lat="45.5312153" lon="10.2485376"><ele>133.0</ele><time>2026-03-28T07:28:28.587Z</time></trkpt><trkpt lat="45.530526" lon="10.2505446"><ele>132.0</ele><time>2026-03-28T07:28:40.63Z</time></trkpt><trkpt lat="45.5305989" lon="10.2514023"><ele>139.0</ele><time>2026-03-28T07:28:47.725Z</time></trkpt><trkpt lat="45.5316352" lon="10.2492222"><ele>131.0</ele><time>2026-03-28T07:28:54.345Z</time></trkpt><trkpt lat="45.5292494" lon="10.253309"><ele>143.0</ele><time>2026-03-28T07:29:01.483Z</time></trkpt><trkpt lat="45.5288232" lon="10.2557986"><ele>139.0</ele><time>2026-03-28T07:29:08.461Z</time></trkpt><trkpt lat="45.5284202" lon="10.255655"><ele>135.0</ele><time>2026-03-28T07:29:15.949Z</time></trkpt><trkpt lat="45.5280182" lon="10.2572581"><ele>139.0</ele><time>2026-03-28T07:29:23.273Z</time></trkpt><trkpt lat="45.5280006" lon="10.2587517"><ele>132.0</ele><time>2026-03-28T07:29:29.981Z</time></trkpt><trkpt lat="45.5273363" lon="10.2595008"><ele>132.0</ele><time>2026-03-28T07:29:36.607Z</time></trkpt><trkpt lat="45.5269305" lon="10.2607086"><ele>134.0</ele><time>2026-03-28T07:29:43.916Z</time></trkpt><trkpt lat="45.5265114" lon="10.2619515"><ele>135.0</ele><time>2026-03-28T07:29:50.964Z</time></trkpt><trkpt lat="45.5263968" lon="10.2632493"><ele>137.0</ele><time>2026-03-28T07:29:57.915Z</time></trkpt><trkpt lat="45.5267163" lon="10.2639757"><ele>129.0</ele><time>2026-03-28T07:30:04.321Z</time></trkpt><trkpt lat="45.5248469" lon="10.2653384"><ele>133.0</ele><time>2026-03-28T07:30:10.834Z</time></trkpt><trkpt lat="45.5246105" lon="10.266619"><ele>132.0</ele><time>2026-03-28T07:30:18.219Z</time></trkpt><trkpt lat="45.5234042" lon="10.2677438"><ele>132.0</ele><time>2026-03-28T07:30:25.54Z</time></trkpt><trkpt lat="45.5233566" lon="10.2678515"><ele>132.0</ele><time>2026-03-28T07:30:32.662Z</time></trkpt><trkpt lat="45.5232686" lon="10.2678565"><ele>132.0</ele><time>2026-03-28T07:30:47.057Z</time></trkpt><trkpt lat="45.5223176" lon="10.2683295"><ele>132.0</ele><time>2026-03-28T07:30:54.229Z</time></trkpt><trkpt lat="45.5220295" lon="10.268763"><ele>132.0</ele><time>2026-03-28T07:31:01.294Z</time></trkpt><trkpt lat="45.5233614" lon="10.2678904"><ele>133.0</ele><time>2026-03-28T07:31:08.033Z</time></trkpt><trkpt lat="45.520961" lon="10.2713007"><ele>135.0</ele><time>2026-03-28T07:31:13.462Z</time></trkpt><trkpt lat="45.5204394" lon="10.2738037"><ele>132.0</ele><time>2026-03-28T07:31:20.27Z</time></trkpt><trkpt lat="45.5202933" lon="10.2753681"><ele>132.0</ele><time>2026-03-28T07:31:34.212Z</time></trkpt><trkpt lat="45.5203011" lon="10.2764572"><ele>134.0</ele><time>2026-03-28T07:31:41.811Z</time></trkpt><trkpt lat="45.5200291" lon="10.2781394"><ele>136.0</ele><time>2026-03-28T07:31:48.792Z</time></trkpt><trkpt lat="45.5199223" lon="10.2792762"><ele>135.0</ele><time>2026-03-28T07:31:56.251Z</time></trkpt><trkpt lat="45.5196703" lon="10.2800798"><ele>133.0</ele><time>2026-03-28T07:32:03.647Z</time></trkpt><trkpt lat="45.5194607" lon="10.2815096"><ele>133.0</ele><time>2026-03-28T07:32:10.605Z</time></trkpt><trkpt lat="45.5193138" lon="10.2823355"><ele>133.0</ele><time>2026-03-28T07:32:17.816Z</time></trkpt><trkpt lat="45.519257" lon="10.2828921"><ele>133.0</ele><time>2026-03-28T07:32:31.661Z</time></trkpt><trkpt lat="45.5196306" lon="10.2823193"><ele>133.0</ele><time>2026-03-28T07:33:04.616Z</time></trkpt><trkpt lat="45.5194027" lon="10.2827926"><ele>133.0</ele><time>2026-03-28T07:33:18.306Z</time></trkpt><trkpt lat="45.5202051" lon="10.2853017"><ele>135.0</ele><time>2026-03-28T07:33:25.203Z</time></trkpt><trkpt lat="45.5182332" lon="10.2866113"><ele>137.0</ele><time>2026-03-28T07:33:32.267Z</time></trkpt><trkpt lat="45.5174326" lon="10.2879184"><ele>136.0</ele><time>2026-03-28T07:33:39.358Z</time></trkpt><trkpt lat="45.5175612" lon="10.2895602"><ele>136.0</ele><time>2026-03-28T07:33:46.646Z</time></trkpt><trkpt lat="45.517602" lon="10.2901443"><ele>136.0</ele><time>2026-03-28T07:33:52.981Z</time></trkpt><trkpt lat="45.5173696" lon="10.289665"><ele>136.0</ele><time>2026-03-28T07:33:54.793Z</time></trkpt><trkpt lat="45.5181133" lon="10.2905083"><ele>136.0</ele><time>2026-03-28T07:34:04.708Z</time></trkpt><trkpt lat="45.5186781" lon="10.2907617"><ele>135.75</ele><time>2026-03-28T07:34:08.711Z</time></trkpt><trkpt lat="45.5187646" lon="10.2907136"><ele>135.5</ele><time>2026-03-28T07:34:10.592Z</time></trkpt><trkpt lat="45.5188805" lon="10.2907543"><ele>135.25</ele><time>2026-03-28T07:34:11.586Z</time></trkpt><trkpt lat="45.5189918" lon="10.2907707"><ele>135.0</ele><time>2026-03-28T07:34:12.58Z</time></trkpt><trkpt lat="45.5191707" lon="10.2907908"><ele>135.0</ele><time>2026-03-28T07:34:13.585Z</time></trkpt><trkpt lat="45.5193842" lon="10.2908161"><ele>135.0</ele><time>2026-03-28T07:34:14.585Z</time></trkpt><trkpt lat="45.5195107" lon="10.290867"><ele>135.0</ele><time>2026-03-28T07:34:15.574Z</time></trkpt><trkpt lat="45.5196251" lon="10.2908573"><ele>135.25</ele><time>2026-03-28T07:34:16.582Z</time></trkpt><trkpt lat="45.5196963" lon="10.2907356"><ele>135.5</ele><time>2026-03-28T07:34:17.589Z</time></trkpt><trkpt lat="45.519816" lon="10.2907281"><ele>135.75</ele><time>2026-03-28T07:34:18.579Z</time></trkpt><trkpt lat="45.5199707" lon="10.2907249"><ele>136.0</ele><time>2026-03-28T07:34:19.583Z</time></trkpt><trkpt lat="45.520238" lon="10.29086"><ele>136.66666666666669</ele><time>2026-03-28T07:34:21.595Z</time></trkpt><trkpt lat="45.5204163" lon="10.2909674"><ele>137.33333333333334</ele><time>2026-03-28T07:34:22.59Z</time></trkpt><trkpt lat="45.5205845" lon="10.2910587"><ele>138.0</ele><time>2026-03-28T07:34:23.597Z</time></trkpt><trkpt lat="45.5207582" lon="10.2911248"><ele>138.0</ele><time>2026-03-28T07:34:24.587Z</time></trkpt><trkpt lat="45.5209235" lon="10.2912012"><ele>138.0</ele><time>2026-03-28T07:34:25.59Z</time></trkpt><trkpt lat="45.521038" lon="10.2911433"><ele>138.0</ele><time>2026-03-28T07:34:26.586Z</time></trkpt><trkpt lat="45.5211891" lon="10.2912239"><ele>137.33333333333334</ele><time>2026-03-28T07:34:27.592Z</time></trkpt><trkpt lat="45.521429" lon="10.2913354"><ele>136.66666666666669</ele><time>2026-03-28T07:34:28.598Z</time></trkpt><trkpt lat="45.5215517" lon="10.2913769"><ele>136.0</ele><time>2026-03-28T07:34:29.584Z</time></trkpt><trkpt lat="45.5216805" lon="10.2914436"><ele>136.0</ele><time>2026-03-28T07:34:30.556Z</time></trkpt><trkpt lat="45.52185" lon="10.2914719"><ele>136.0</ele><time>2026-03-28T07:34:31.548Z</time></trkpt><trkpt lat="45.5219647" lon="10.2915433"><ele>136.0</ele><time>2026-03-28T07:34:32.558Z</time></trkpt><trkpt lat="45.5220996" lon="10.2916113"><ele>136.0</ele><time>2026-03-28T07:34:33.553Z</time></trkpt><trkpt lat="45.5222151" lon="10.2916704"><ele>136.0</ele><time>2026-03-28T07:34:34.555Z</time></trkpt><trkpt lat="45.5223304" lon="10.2917163"><ele>136.0</ele><time>2026-03-28T07:34:35.558Z</time></trkpt><trkpt lat="45.5224518" lon="10.2917629"><ele>136.0</ele><time>2026-03-28T07:34:36.555Z</time></trkpt><trkpt lat="45.5225372" lon="10.2918172"><ele>136.0</ele><time>2026-03-28T07:34:37.563Z</time></trkpt><trkpt lat="45.5226627" lon="10.2918609"><ele>136.0</ele><time>2026-03-28T07:34:38.551Z</time></trkpt><trkpt lat="45.5227356" lon="10.2918903"><ele>136.0</ele><time>2026-03-28T07:34:39.585Z</time></trkpt><trkpt lat="45.5228322" lon="10.2918701"><ele>136.0</ele><time>2026-03-28T07:34:40.579Z</time></trkpt><trkpt lat="45.5229001" lon="10.2917972"><ele>136.0</ele><time>2026-03-28T07:34:41.572Z</time></trkpt><trkpt lat="45.5229646" lon="10.2916849"><ele>136.0</ele><time>2026-03-28T07:34:43.571Z</time></trkpt><trkpt lat="45.5230143" lon="10.2915254"><ele>136.0</ele><time>2026-03-28T07:35:01.597Z</time></trkpt><trkpt lat="45.5231123" lon="10.2915063"><ele>136.0</ele><time>2026-03-28T07:35:03.585Z</time></trkpt><trkpt lat="45.5231775" lon="10.2915734"><ele>136.0</ele><time>2026-03-28T07:35:04.585Z</time></trkpt><trkpt lat="45.5232425" lon="10.2916721"><ele>136.0</ele><time>2026-03-28T07:35:05.592Z</time></trkpt><trkpt lat="45.523318" lon="10.2917878"><ele>136.0</ele><time>2026-03-28T07:35:06.585Z</time></trkpt><trkpt lat="45.5234134" lon="10.2919186"><ele>136.0</ele><time>2026-03-28T07:35:07.588Z</time></trkpt><trkpt lat="45.5235298" lon="10.2920542"><ele>136.0</ele><time>2026-03-28T07:35:08.586Z</time></trkpt><trkpt lat="45.5236942" lon="10.292203"><ele>136.0</ele><time>2026-03-28T07:35:09.588Z</time></trkpt><trkpt lat="45.5238798" lon="10.292328"><ele>136.33333333333334</ele><time>2026-03-28T07:35:10.586Z</time></trkpt><trkpt lat="45.524068" lon="10.2924324"><ele>136.66666666666666</ele><time>2026-03-28T07:35:11.582Z</time></trkpt><trkpt lat="45.5242485" lon="10.2925369"><ele>137.0</ele><time>2026-03-28T07:35:12.583Z</time></trkpt><trkpt lat="45.5244068" lon="10.2926348"><ele>137.0</ele><time>2026-03-28T07:35:13.581Z</time></trkpt><trkpt lat="45.524572" lon="10.2927253"><ele>137.0</ele><time>2026-03-28T07:35:14.585Z</time></trkpt><trkpt lat="45.5247425" lon="10.2928249"><ele>137.0</ele><time>2026-03-28T07:35:15.59Z</time></trkpt><trkpt lat="45.5249171" lon="10.2929252"><ele>137.0</ele><time>2026-03-28T07:35:16.584Z</time></trkpt><trkpt lat="45.5250883" lon="10.2930269"><ele>137.0</ele><time>2026-03-28T07:35:17.591Z</time></trkpt><trkpt lat="45.5252642" lon="10.2931237"><ele>137.0</ele><time>2026-03-28T07:35:18.58Z</time></trkpt><trkpt lat="45.5254301" lon="10.2932031"><ele>137.33333333333331</ele><time>2026-03-28T07:35:19.585Z</time></trkpt><trkpt lat="45.5255894" lon="10.2932599"><ele>137.66666666666666</ele><time>2026-03-28T07:35:20.58Z</time></trkpt><trkpt lat="45.5257409" lon="10.2933502"><ele>138.0</ele><time>2026-03-28T07:35:21.582Z</time></trkpt><trkpt lat="45.5258905" lon="10.2934459"><ele>138.0</ele><time>2026-03-28T07:35:22.577Z</time></trkpt><trkpt lat="45.5260459" lon="10.2935222"><ele>138.0</ele><time>2026-03-28T07:35:23.579Z</time></trkpt><trkpt lat="45.5261941" lon="10.2935957"><ele>138.0</ele><time>2026-03-28T07:35:24.585Z</time></trkpt><trkpt lat="45.5263423" lon="10.2936692"><ele>138.5</ele><time>2026-03-28T07:35:25.585Z</time></trkpt><trkpt lat="45.5264887" lon="10.2937358"><ele>139.0</ele><time>2026-03-28T07:35:26.584Z</time></trkpt><trkpt lat="45.5266152" lon="10.2938052"><ele>139.5</ele><time>2026-03-28T07:35:27.586Z</time></trkpt><trkpt lat="45.5267508" lon="10.293863"><ele>140.0</ele><time>2026-03-28T07:35:28.586Z</time></trkpt><trkpt lat="45.5268973" lon="10.2939204"><ele>140.0</ele><time>2026-03-28T07:35:29.59Z</time></trkpt><trkpt lat="45.5270247" lon="10.2939883"><ele>140.0</ele><time>2026-03-28T07:35:30.587Z</time></trkpt><trkpt lat="45.5271567" lon="10.294058"><ele>140.0</ele><time>2026-03-28T07:35:31.591Z</time></trkpt><trkpt lat="45.5272788" lon="10.2941222"><ele>140.0</ele><time>2026-03-28T07:35:32.585Z</time></trkpt><trkpt lat="45.5273947" lon="10.2941898"><ele>140.0</ele><time>2026-03-28T07:35:33.587Z</time></trkpt><trkpt lat="45.5275221" lon="10.2942535"><ele>140.0</ele><time>2026-03-28T07:35:34.594Z</time></trkpt><trkpt lat="45.5276396" lon="10.2943034"><ele>140.0</ele><time>2026-03-28T07:35:35.594Z</time></trkpt><trkpt lat="45.5277755" lon="10.2943473"><ele>140.0</ele><time>2026-03-28T07:35:36.595Z</time></trkpt><trkpt lat="45.5279213" lon="10.2944063"><ele>140.33333333333331</ele><time>2026-03-28T07:35:37.593Z</time></trkpt><trkpt lat="45.528067" lon="10.2944838"><ele>140.66666666666666</ele><time>2026-03-28T07:35:38.593Z</time></trkpt><trkpt lat="45.5282267" lon="10.2945546"><ele>141.0</ele><time>2026-03-28T07:35:39.581Z</time></trkpt><trkpt lat="45.5283749" lon="10.294612"><ele>141.0</ele><time>2026-03-28T07:35:40.587Z</time></trkpt><trkpt lat="45.5285227" lon="10.2946861"><ele>141.0</ele><time>2026-03-28T07:35:41.585Z</time></trkpt><trkpt lat="45.5286664" lon="10.2947742"><ele>141.0</ele><time>2026-03-28T07:35:42.582Z</time></trkpt><trkpt lat="45.5288165" lon="10.2948295"><ele>142.0</ele><time>2026-03-28T07:35:43.59Z</time></trkpt><trkpt lat="45.5289677" lon="10.2948781"><ele>143.0</ele><time>2026-03-28T07:35:44.586Z</time></trkpt><trkpt lat="45.5291405" lon="10.2949297"><ele>144.0</ele><time>2026-03-28T07:35:45.589Z</time></trkpt><trkpt lat="45.5293067" lon="10.294987"><ele>144.0</ele><time>2026-03-28T07:35:46.585Z</time></trkpt><trkpt lat="45.5294658" lon="10.295046"><ele>144.0</ele><time>2026-03-28T07:35:47.593Z</time></trkpt><trkpt lat="45.5296252" lon="10.2951282"><ele>144.0</ele><time>2026-03-28T07:35:48.593Z</time></trkpt><trkpt lat="45.5297787" lon="10.2951924"><ele>144.0</ele><time>2026-03-28T07:35:49.589Z</time></trkpt><trkpt lat="45.5299343" lon="10.295246"><ele>144.0</ele><time>2026-03-28T07:35:50.594Z</time></trkpt><trkpt lat="45.5300836" lon="10.2952956"><ele>144.0</ele><time>2026-03-28T07:35:51.584Z</time></trkpt><trkpt lat="45.5302432" lon="10.295332"><ele>144.33333333333334</ele><time>2026-03-28T07:35:52.592Z</time></trkpt><trkpt lat="45.5304164" lon="10.2953654"><ele>144.66666666666669</ele><time>2026-03-28T07:35:53.597Z</time></trkpt><trkpt lat="45.5305652" lon="10.2954031"><ele>145.0</ele><time>2026-03-28T07:35:54.586Z</time></trkpt><trkpt lat="45.5307087" lon="10.295443"><ele>145.0</ele><time>2026-03-28T07:35:55.594Z</time></trkpt><trkpt lat="45.5308449" lon="10.2954729"><ele>145.0</ele><time>2026-03-28T07:35:56.58Z</time></trkpt><trkpt lat="45.5309459" lon="10.295493"><ele>145.0</ele><time>2026-03-28T07:35:57.59Z</time></trkpt><trkpt lat="45.5310367" lon="10.2955086"><ele>145.0</ele><time>2026-03-28T07:35:58.584Z</time></trkpt><trkpt lat="45.5311254" lon="10.2955561"><ele>145.0</ele><time>2026-03-28T07:35:59.59Z</time></trkpt><trkpt lat="45.5312249" lon="10.2955812"><ele>145.5</ele><time>2026-03-28T07:36:00.582Z</time></trkpt><trkpt lat="45.5313325" lon="10.2956249"><ele>146.0</ele><time>2026-03-28T07:36:01.593Z</time></trkpt><trkpt lat="45.531451" lon="10.2956813"><ele>146.5</ele><time>2026-03-28T07:36:02.581Z</time></trkpt><trkpt lat="45.5315665" lon="10.2957447"><ele>147.0</ele><time>2026-03-28T07:36:03.583Z</time></trkpt><trkpt lat="45.531679" lon="10.2958305"><ele>147.0</ele><time>2026-03-28T07:36:04.589Z</time></trkpt><trkpt lat="45.5317825" lon="10.2959396"><ele>147.0</ele><time>2026-03-28T07:36:05.586Z</time></trkpt><trkpt lat="45.5318779" lon="10.2960685"><ele>147.0</ele><time>2026-03-28T07:36:06.592Z</time></trkpt><trkpt lat="45.5319637" lon="10.2962181"><ele>147.0</ele><time>2026-03-28T07:36:07.579Z</time></trkpt><trkpt lat="45.5320567" lon="10.2963726"><ele>147.0</ele><time>2026-03-28T07:36:08.583Z</time></trkpt><trkpt lat="45.5321346" lon="10.2965185"><ele>147.0</ele><time>2026-03-28T07:36:09.589Z</time></trkpt><trkpt lat="45.5322207" lon="10.2966816"><ele>147.0</ele><time>2026-03-28T07:36:10.588Z</time></trkpt><trkpt lat="45.5323287" lon="10.2968086"><ele>147.0</ele><time>2026-03-28T07:36:11.595Z</time></trkpt><trkpt lat="45.5324242" lon="10.296935"><ele>147.0</ele><time>2026-03-28T07:36:12.586Z</time></trkpt><trkpt lat="45.5324771" lon="10.2970579"><ele>147.0</ele><time>2026-03-28T07:36:13.587Z</time></trkpt><trkpt lat="45.5325473" lon="10.2971752"><ele>147.0</ele><time>2026-03-28T07:36:14.59Z</time></trkpt><trkpt lat="45.5326449" lon="10.2972753"><ele>147.0</ele><time>2026-03-28T07:36:15.582Z</time></trkpt><trkpt lat="45.5327581" lon="10.2973545"><ele>146.75</ele><time>2026-03-28T07:36:16.584Z</time></trkpt><trkpt lat="45.5328766" lon="10.2974112"><ele>146.5</ele><time>2026-03-28T07:36:17.589Z</time></trkpt><trkpt lat="45.5329925" lon="10.2974569"><ele>146.25</ele><time>2026-03-28T07:36:18.586Z</time></trkpt><trkpt lat="45.5331069" lon="10.2975031"><ele>146.0</ele><time>2026-03-28T07:36:19.592Z</time></trkpt><trkpt lat="45.5332127" lon="10.2975667"><ele>147.0</ele><time>2026-03-28T07:36:20.58Z</time></trkpt><trkpt lat="45.5333188" lon="10.2976488"><ele>148.0</ele><time>2026-03-28T07:36:21.586Z</time></trkpt><trkpt lat="45.5334229" lon="10.2977444"><ele>149.0</ele><time>2026-03-28T07:36:22.591Z</time></trkpt><trkpt lat="45.5335244" lon="10.2978499"><ele>150.0</ele><time>2026-03-28T07:36:23.59Z</time></trkpt><trkpt lat="45.5336111" lon="10.2979585"><ele>150.0</ele><time>2026-03-28T07:36:24.586Z</time></trkpt><trkpt lat="45.5336882" lon="10.2980586"><ele>150.0</ele><time>2026-03-28T07:36:25.59Z</time></trkpt><trkpt lat="45.5337543" lon="10.2981443"><ele>150.0</ele><time>2026-03-28T07:36:26.582Z</time></trkpt><trkpt lat="45.5338135" lon="10.2982147"><ele>150.0</ele><time>2026-03-28T07:36:27.584Z</time></trkpt><trkpt lat="45.5338714" lon="10.2982816"><ele>150.0</ele><time>2026-03-28T07:36:28.586Z</time></trkpt><trkpt lat="45.533926" lon="10.2983485"><ele>150.0</ele><time>2026-03-28T07:36:29.59Z</time></trkpt><trkpt lat="45.533979" lon="10.298426"><ele>150.6</ele><time>2026-03-28T07:36:30.59Z</time></trkpt><trkpt lat="45.5340315" lon="10.2985181"><ele>151.2</ele><time>2026-03-28T07:36:31.586Z</time></trkpt><trkpt lat="45.534075" lon="10.2986292"><ele>151.8</ele><time>2026-03-28T07:36:32.583Z</time></trkpt><trkpt lat="45.5341169" lon="10.298748"><ele>152.4</ele><time>2026-03-28T07:36:33.58Z</time></trkpt><trkpt lat="45.5341639" lon="10.2988634"><ele>153.0</ele><time>2026-03-28T07:36:34.584Z</time></trkpt><trkpt lat="45.5342106" lon="10.2989872"><ele>153.0</ele><time>2026-03-28T07:36:35.578Z</time></trkpt><trkpt lat="45.5342571" lon="10.2991048"><ele>153.0</ele><time>2026-03-28T07:36:36.58Z</time></trkpt><trkpt lat="45.5343058" lon="10.2992046"><ele>153.0</ele><time>2026-03-28T07:36:37.582Z</time></trkpt><trkpt lat="45.5343498" lon="10.2992978"><ele>153.0</ele><time>2026-03-28T07:36:38.585Z</time></trkpt><trkpt lat="45.5343822" lon="10.2993932"><ele>153.0</ele><time>2026-03-28T07:36:39.586Z</time></trkpt><trkpt lat="45.5344094" lon="10.2994944"><ele>153.0</ele><time>2026-03-28T07:36:40.588Z</time></trkpt><trkpt lat="45.5344347" lon="10.2995929"><ele>153.0</ele><time>2026-03-28T07:36:41.584Z</time></trkpt><trkpt lat="45.5344646" lon="10.2996835"><ele>153.0</ele><time>2026-03-28T07:36:42.594Z</time></trkpt><trkpt lat="45.5344949" lon="10.2997712"><ele>153.0</ele><time>2026-03-28T07:36:43.588Z</time></trkpt><trkpt lat="45.5345234" lon="10.299855"><ele>153.0</ele><time>2026-03-28T07:36:44.593Z</time></trkpt><trkpt lat="45.5345521" lon="10.2999417"><ele>153.0</ele><time>2026-03-28T07:36:45.583Z</time></trkpt><trkpt lat="45.5345794" lon="10.3000367"><ele>153.0</ele><time>2026-03-28T07:36:46.589Z</time></trkpt><trkpt lat="45.5346074" lon="10.3001427"><ele>153.0</ele><time>2026-03-28T07:36:47.579Z</time></trkpt><trkpt lat="45.5346375" lon="10.3002623"><ele>153.20000000000002</ele><time>2026-03-28T07:36:48.594Z</time></trkpt><trkpt lat="45.5346697" lon="10.300389"><ele>153.4</ele><time>2026-03-28T07:36:49.587Z</time></trkpt><trkpt lat="45.5347044" lon="10.3005203"><ele>153.60000000000002</ele><time>2026-03-28T07:36:50.592Z</time></trkpt><trkpt lat="45.5347416" lon="10.300651"><ele>153.8</ele><time>2026-03-28T07:36:51.588Z</time></trkpt><trkpt lat="45.5347824" lon="10.3007786"><ele>154.0</ele><time>2026-03-28T07:36:52.584Z</time></trkpt><trkpt lat="45.5348178" lon="10.3009043"><ele>154.0</ele><time>2026-03-28T07:36:53.609Z</time></trkpt><trkpt lat="45.5348577" lon="10.3010359"><ele>154.0</ele><time>2026-03-28T07:36:54.586Z</time></trkpt><trkpt lat="45.5349007" lon="10.3011679"><ele>154.0</ele><time>2026-03-28T07:36:55.587Z</time></trkpt><trkpt lat="45.5349401" lon="10.301303"><ele>154.0</ele><time>2026-03-28T07:36:56.594Z</time></trkpt><trkpt lat="45.5349763" lon="10.3014464"><ele>154.0</ele><time>2026-03-28T07:36:57.589Z</time></trkpt><trkpt lat="45.5350155" lon="10.3015868"><ele>153.83333333333334</ele><time>2026-03-28T07:36:58.588Z</time></trkpt><trkpt lat="45.5350517" lon="10.3017221"><ele>153.66666666666669</ele><time>2026-03-28T07:36:59.594Z</time></trkpt><trkpt lat="45.5350869" lon="10.3018541"><ele>153.5</ele><time>2026-03-28T07:37:00.593Z</time></trkpt><trkpt lat="45.5351169" lon="10.3019729"><ele>153.33333333333334</ele><time>2026-03-28T07:37:01.59Z</time></trkpt><trkpt lat="45.5351408" lon="10.3020772"><ele>153.16666666666666</ele><time>2026-03-28T07:37:02.589Z</time></trkpt><trkpt lat="45.5351631" lon="10.3021712"><ele>153.0</ele><time>2026-03-28T07:37:03.592Z</time></trkpt><trkpt lat="45.5351874" lon="10.3022565"><ele>153.4</ele><time>2026-03-28T07:37:04.59Z</time></trkpt><trkpt lat="45.5352347" lon="10.3024208"><ele>153.8</ele><time>2026-03-28T07:37:06.593Z</time></trkpt><trkpt lat="45.5352587" lon="10.3025154"><ele>154.2</ele><time>2026-03-28T07:37:07.586Z</time></trkpt><trkpt lat="45.535279" lon="10.3026216"><ele>154.6</ele><time>2026-03-28T07:37:08.597Z</time></trkpt><trkpt lat="45.5353011" lon="10.3027115"><ele>155.0</ele><time>2026-03-28T07:37:09.593Z</time></trkpt><trkpt lat="45.5353233" lon="10.3028953"><ele>155.0</ele><time>2026-03-28T07:37:11.58Z</time></trkpt><trkpt lat="45.535312" lon="10.3030233"><ele>155.0</ele><time>2026-03-28T07:37:12.578Z</time></trkpt><trkpt lat="45.5352971" lon="10.3031862"><ele>155.0</ele><time>2026-03-28T07:37:13.583Z</time></trkpt><trkpt lat="45.5352884" lon="10.3033651"><ele>155.0</ele><time>2026-03-28T07:37:14.584Z</time></trkpt><trkpt lat="45.5353051" lon="10.3035327"><ele>155.0</ele><time>2026-03-28T07:37:15.581Z</time></trkpt><trkpt lat="45.5353324" lon="10.3036967"><ele>155.0</ele><time>2026-03-28T07:37:16.579Z</time></trkpt><trkpt lat="45.5353639" lon="10.3038513"><ele>155.0</ele><time>2026-03-28T07:37:17.587Z</time></trkpt><trkpt lat="45.5353944" lon="10.3039887"><ele>155.0</ele><time>2026-03-28T07:37:18.592Z</time></trkpt><trkpt lat="45.5354269" lon="10.3041111"><ele>155.0</ele><time>2026-03-28T07:37:19.585Z</time></trkpt><trkpt lat="45.5354583" lon="10.3042172"><ele>155.0</ele><time>2026-03-28T07:37:20.59Z</time></trkpt><trkpt lat="45.5354918" lon="10.304317"><ele>155.0</ele><time>2026-03-28T07:37:21.58Z</time></trkpt><trkpt lat="45.5355236" lon="10.3044104"><ele>155.0</ele><time>2026-03-28T07:37:22.587Z</time></trkpt><trkpt lat="45.5355438" lon="10.3045604"><ele>155.0</ele><time>2026-03-28T07:37:24.59Z</time></trkpt><trkpt lat="45.5355241" lon="10.3046828"><ele>155.0</ele><time>2026-03-28T07:37:27.597Z</time></trkpt><trkpt lat="45.535499" lon="10.3047751"><ele>155.0</ele><time>2026-03-28T07:37:29.59Z</time></trkpt><trkpt lat="45.5354451" lon="10.3049272"><ele>155.14285714285714</ele><time>2026-03-28T07:37:31.59Z</time></trkpt><trkpt lat="45.535409" lon="10.3050042"><ele>155.28571428571428</ele><time>2026-03-28T07:37:32.591Z</time></trkpt><trkpt lat="45.5353706" lon="10.3050867"><ele>155.42857142857144</ele><time>2026-03-28T07:37:33.587Z</time></trkpt><trkpt lat="45.5353389" lon="10.3051678"><ele>155.57142857142856</ele><time>2026-03-28T07:37:34.588Z</time></trkpt><trkpt lat="45.535303" lon="10.3052637"><ele>155.7142857142857</ele><time>2026-03-28T07:37:35.585Z</time></trkpt><trkpt lat="45.5352691" lon="10.3053668"><ele>155.85714285714286</ele><time>2026-03-28T07:37:36.585Z</time></trkpt><trkpt lat="45.5352308" lon="10.3054872"><ele>156.0</ele><time>2026-03-28T07:37:37.588Z</time></trkpt><trkpt lat="45.5351909" lon="10.3055982"><ele>155.33333333333334</ele><time>2026-03-28T07:37:38.591Z</time></trkpt><trkpt lat="45.5351518" lon="10.3057003"><ele>154.66666666666666</ele><time>2026-03-28T07:37:39.588Z</time></trkpt><trkpt lat="45.5351087" lon="10.3057923"><ele>154.0</ele><time>2026-03-28T07:37:40.587Z</time></trkpt><trkpt lat="45.5350696" lon="10.3058845"><ele>153.33333333333331</ele><time>2026-03-28T07:37:41.591Z</time></trkpt><trkpt lat="45.5350382" lon="10.3059628"><ele>152.66666666666666</ele><time>2026-03-28T07:37:42.595Z</time></trkpt><trkpt lat="45.5350292" lon="10.3060909"><ele>152.0</ele><time>2026-03-28T07:37:44.586Z</time></trkpt><trkpt lat="45.5351351" lon="10.3061336"><ele>152.0</ele><time>2026-03-28T07:37:46.602Z</time></trkpt><trkpt lat="45.5352141" lon="10.3061355"><ele>152.0</ele><time>2026-03-28T07:37:47.594Z</time></trkpt><trkpt lat="45.5353073" lon="10.3061438"><ele>152.0</ele><time>2026-03-28T07:37:48.591Z</time></trkpt><trkpt lat="45.535421" lon="10.3061598"><ele>152.0</ele><time>2026-03-28T07:37:49.586Z</time></trkpt><trkpt lat="45.5355314" lon="10.3061723"><ele>152.0</ele><time>2026-03-28T07:37:50.601Z</time></trkpt><trkpt lat="45.5356481" lon="10.3061751"><ele>152.79999999999998</ele><time>2026-03-28T07:37:51.592Z</time></trkpt><trkpt lat="45.5357666" lon="10.306182"><ele>153.6</ele><time>2026-03-28T07:37:52.589Z</time></trkpt><trkpt lat="45.5358751" lon="10.3061988"><ele>154.39999999999998</ele><time>2026-03-28T07:37:53.589Z</time></trkpt><trkpt lat="45.5359796" lon="10.3062192"><ele>155.2</ele><time>2026-03-28T07:37:54.593Z</time></trkpt><trkpt lat="45.5360846" lon="10.306244"><ele>156.0</ele><time>2026-03-28T07:37:55.592Z</time></trkpt><trkpt lat="45.5361887" lon="10.3062658"><ele>155.8</ele><time>2026-03-28T07:37:56.598Z</time></trkpt><trkpt lat="45.536279" lon="10.3062956"><ele>155.6</ele><time>2026-03-28T07:37:57.58Z</time></trkpt><trkpt lat="45.5363482" lon="10.3063212"><ele>155.4</ele><time>2026-03-28T07:37:58.593Z</time></trkpt><trkpt lat="45.5364587" lon="10.3063461"><ele>155.2</ele><time>2026-03-28T07:38:00.591Z</time></trkpt><trkpt lat="45.5365836" lon="10.3063876"><ele>155.0</ele><time>2026-03-28T07:38:02.586Z</time></trkpt><trkpt lat="45.5366661" lon="10.3064149"><ele>155.0</ele><time>2026-03-28T07:38:03.591Z</time></trkpt><trkpt lat="45.5367558" lon="10.3064498"><ele>155.0</ele><time>2026-03-28T07:38:04.588Z</time></trkpt><trkpt lat="45.536849" lon="10.3064846"><ele>155.0</ele><time>2026-03-28T07:38:05.585Z</time></trkpt><trkpt lat="45.5369353" lon="10.3065184"><ele>155.0</ele><time>2026-03-28T07:38:06.588Z</time></trkpt><trkpt lat="45.5370074" lon="10.3065454"><ele>155.0</ele><time>2026-03-28T07:38:07.585Z</time></trkpt><trkpt lat="45.5371189" lon="10.3065958"><ele>155.66666666666666</ele><time>2026-03-28T07:38:09.592Z</time></trkpt><trkpt lat="45.5371821" lon="10.3066269"><ele>156.33333333333331</ele><time>2026-03-28T07:38:10.593Z</time></trkpt><trkpt lat="45.5372594" lon="10.3066713"><ele>157.0</ele><time>2026-03-28T07:38:11.585Z</time></trkpt><trkpt lat="45.5373482" lon="10.3067226"><ele>157.66666666666666</ele><time>2026-03-28T07:38:12.584Z</time></trkpt><trkpt lat="45.537441" lon="10.3067803"><ele>158.33333333333334</ele><time>2026-03-28T07:38:13.587Z</time></trkpt><trkpt lat="45.53752" lon="10.3068523"><ele>159.0</ele><time>2026-03-28T07:38:14.594Z</time></trkpt><trkpt lat="45.5375841" lon="10.3069368"><ele>159.0</ele><time>2026-03-28T07:38:15.588Z</time></trkpt><trkpt lat="45.5376381" lon="10.3070292"><ele>159.0</ele><time>2026-03-28T07:38:16.59Z</time></trkpt><trkpt lat="45.5376929" lon="10.3071236"><ele>159.0</ele><time>2026-03-28T07:38:17.595Z</time></trkpt><trkpt lat="45.5377601" lon="10.3072076"><ele>159.0</ele><time>2026-03-28T07:38:18.592Z</time></trkpt><trkpt lat="45.5378334" lon="10.3072844"><ele>159.0</ele><time>2026-03-28T07:38:19.587Z</time></trkpt><trkpt lat="45.5379155" lon="10.3073519"><ele>159.0</ele><time>2026-03-28T07:38:20.593Z</time></trkpt><trkpt lat="45.5379908" lon="10.3074102"><ele>159.4</ele><time>2026-03-28T07:38:21.599Z</time></trkpt><trkpt lat="45.5380554" lon="10.3074513"><ele>159.8</ele><time>2026-03-28T07:38:22.588Z</time></trkpt><trkpt lat="45.5381505" lon="10.3075173"><ele>160.20000000000002</ele><time>2026-03-28T07:38:24.583Z</time></trkpt><trkpt lat="45.5382322" lon="10.3074704"><ele>160.60000000000002</ele><time>2026-03-28T07:38:26.588Z</time></trkpt><trkpt lat="45.5382704" lon="10.3073009"><ele>161.0</ele><time>2026-03-28T07:38:28.581Z</time></trkpt><trkpt lat="45.538283" lon="10.3071862"><ele>161.5</ele><time>2026-03-28T07:38:29.583Z</time></trkpt><trkpt lat="45.5383107" lon="10.3070665"><ele>162.0</ele><time>2026-03-28T07:38:30.572Z</time></trkpt><trkpt lat="45.5383364" lon="10.3069609"><ele>162.5</ele><time>2026-03-28T07:38:31.56Z</time></trkpt><trkpt lat="45.5383647" lon="10.3068781"><ele>163.0</ele><time>2026-03-28T07:38:32.56Z</time></trkpt><trkpt lat="45.5384021" lon="10.3067997"><ele>163.5</ele><time>2026-03-28T07:38:33.557Z</time></trkpt><trkpt lat="45.5384495" lon="10.306722"><ele>164.0</ele><time>2026-03-28T07:38:34.559Z</time></trkpt><trkpt lat="45.5385206" lon="10.3066534"><ele>164.0</ele><time>2026-03-28T07:38:35.575Z</time></trkpt><trkpt lat="45.5386083" lon="10.3065871"><ele>164.0</ele><time>2026-03-28T07:38:36.586Z</time></trkpt><trkpt lat="45.5387073" lon="10.306536"><ele>164.0</ele><time>2026-03-28T07:38:37.581Z</time></trkpt><trkpt lat="45.5388042" lon="10.3064846"><ele>164.0</ele><time>2026-03-28T07:38:38.584Z</time></trkpt><trkpt lat="45.5389102" lon="10.3064552"><ele>164.0</ele><time>2026-03-28T07:38:39.58Z</time></trkpt><trkpt lat="45.5390133" lon="10.3064248"><ele>164.66666666666666</ele><time>2026-03-28T07:38:40.586Z</time></trkpt><trkpt lat="45.5391104" lon="10.3063972"><ele>165.33333333333331</ele><time>2026-03-28T07:38:41.593Z</time></trkpt><trkpt lat="45.5391872" lon="10.3063787"><ele>166.0</ele><time>2026-03-28T07:38:42.583Z</time></trkpt><trkpt lat="45.5392539" lon="10.3063544"><ele>166.66666666666666</ele><time>2026-03-28T07:38:43.579Z</time></trkpt><trkpt lat="45.5393249" lon="10.3063067"><ele>167.33333333333334</ele><time>2026-03-28T07:38:44.578Z</time></trkpt><trkpt lat="45.5393883" lon="10.3062276"><ele>168.0</ele><time>2026-03-28T07:38:45.58Z</time></trkpt><trkpt lat="45.5394527" lon="10.3061502"><ele>168.0</ele><time>2026-03-28T07:38:46.58Z</time></trkpt><trkpt lat="45.5395135" lon="10.3060872"><ele>168.0</ele><time>2026-03-28T07:38:47.578Z</time></trkpt><trkpt lat="45.53957" lon="10.3060244"><ele>168.0</ele><time>2026-03-28T07:38:48.583Z</time></trkpt><trkpt lat="45.539628" lon="10.3059883"><ele>168.0</ele><time>2026-03-28T07:38:49.58Z</time></trkpt><trkpt lat="45.5397244" lon="10.3059818"><ele>168.0</ele><time>2026-03-28T07:38:51.579Z</time></trkpt><trkpt lat="45.5398311" lon="10.3059683"><ele>168.0</ele><time>2026-03-28T07:38:53.586Z</time></trkpt><trkpt lat="45.5399025" lon="10.3059975"><ele>168.5</ele><time>2026-03-28T07:38:54.583Z</time></trkpt><trkpt lat="45.5399824" lon="10.306045"><ele>169.0</ele><time>2026-03-28T07:38:55.584Z</time></trkpt><trkpt lat="45.5400586" lon="10.3060955"><ele>169.5</ele><time>2026-03-28T07:38:56.587Z</time></trkpt><trkpt lat="45.5401207" lon="10.3061515"><ele>170.0</ele><time>2026-03-28T07:38:57.583Z</time></trkpt><trkpt lat="45.5402115" lon="10.3062217"><ele>170.5</ele><time>2026-03-28T07:38:59.581Z</time></trkpt><trkpt lat="45.5402734" lon="10.3062733"><ele>171.0</ele><time>2026-03-28T07:39:01.592Z</time></trkpt><trkpt lat="45.5403899" lon="10.3062911"><ele>171.5</ele><time>2026-03-28T07:39:03.587Z</time></trkpt><trkpt lat="45.5404507" lon="10.3063273"><ele>172.0</ele><time>2026-03-28T07:39:04.585Z</time></trkpt><trkpt lat="45.5405463" lon="10.3064276"><ele>172.5</ele><time>2026-03-28T07:39:06.581Z</time></trkpt><trkpt lat="45.5405699" lon="10.3065286"><ele>173.0</ele><time>2026-03-28T07:39:07.584Z</time></trkpt><trkpt lat="45.5405868" lon="10.3066545"><ele>173.5</ele><time>2026-03-28T07:39:08.588Z</time></trkpt><trkpt lat="45.5405949" lon="10.3067739"><ele>174.0</ele><time>2026-03-28T07:39:09.587Z</time></trkpt><trkpt lat="45.5405837" lon="10.3068966"><ele>174.0</ele><time>2026-03-28T07:39:10.585Z</time></trkpt><trkpt lat="45.5405709" lon="10.3069918"><ele>174.0</ele><time>2026-03-28T07:39:11.584Z</time></trkpt><trkpt lat="45.5405674" lon="10.3071772"><ele>174.0</ele><time>2026-03-28T07:39:13.584Z</time></trkpt><trkpt lat="45.5405877" lon="10.3072724"><ele>174.0</ele><time>2026-03-28T07:39:14.586Z</time></trkpt><trkpt lat="45.5406231" lon="10.3073522"><ele>174.0</ele><time>2026-03-28T07:39:15.58Z</time></trkpt><trkpt lat="45.5406731" lon="10.3074132"><ele>174.0</ele><time>2026-03-28T07:39:16.588Z</time></trkpt><trkpt lat="45.5407721" lon="10.3074748"><ele>174.0</ele><time>2026-03-28T07:39:18.582Z</time></trkpt><trkpt lat="45.5408914" lon="10.3074656"><ele>174.0</ele><time>2026-03-28T07:39:20.589Z</time></trkpt><trkpt lat="45.5409681" lon="10.3074673"><ele>174.0</ele><time>2026-03-28T07:39:21.583Z</time></trkpt><trkpt lat="45.5410564" lon="10.3074636"><ele>174.0</ele><time>2026-03-28T07:39:22.585Z</time></trkpt><trkpt lat="45.5411476" lon="10.3074767"><ele>174.0</ele><time>2026-03-28T07:39:23.583Z</time></trkpt><trkpt lat="45.5412393" lon="10.3074971"><ele>174.39999999999998</ele><time>2026-03-28T07:39:24.572Z</time></trkpt><trkpt lat="45.5413325" lon="10.3075183"><ele>174.8</ele><time>2026-03-28T07:39:25.569Z</time></trkpt><trkpt lat="45.5414304" lon="10.3075459"><ele>175.2</ele><time>2026-03-28T07:39:26.581Z</time></trkpt><trkpt lat="45.541524" lon="10.3075774"><ele>175.60000000000002</ele><time>2026-03-28T07:39:27.579Z</time></trkpt><trkpt lat="45.5416281" lon="10.3076012"><ele>176.0</ele><time>2026-03-28T07:39:28.583Z</time></trkpt><trkpt lat="45.5417482" lon="10.3076158"><ele>176.0</ele><time>2026-03-28T07:39:29.581Z</time></trkpt><trkpt lat="45.5418714" lon="10.3076489"><ele>176.0</ele><time>2026-03-28T07:39:30.585Z</time></trkpt><trkpt lat="45.5419917" lon="10.3076906"><ele>176.0</ele><time>2026-03-28T07:39:31.576Z</time></trkpt><trkpt lat="45.5421168" lon="10.3077248"><ele>176.0</ele><time>2026-03-28T07:39:32.585Z</time></trkpt><trkpt lat="45.5422352" lon="10.3077554"><ele>177.0</ele><time>2026-03-28T07:39:33.579Z</time></trkpt><trkpt lat="45.5423333" lon="10.3077798"><ele>178.0</ele><time>2026-03-28T07:39:34.584Z</time></trkpt><trkpt lat="45.5424211" lon="10.3078018"><ele>179.0</ele><time>2026-03-28T07:39:35.585Z</time></trkpt><trkpt lat="45.5424895" lon="10.3078107"><ele>180.0</ele><time>2026-03-28T07:39:36.58Z</time></trkpt><trkpt lat="45.5425604" lon="10.3077322"><ele>181.0</ele><time>2026-03-28T07:39:38.587Z</time></trkpt><trkpt lat="45.542576" lon="10.3076072"><ele>182.0</ele><time>2026-03-28T07:39:39.588Z</time></trkpt><trkpt lat="45.5425717" lon="10.307456"><ele>182.0</ele><time>2026-03-28T07:39:40.581Z</time></trkpt><trkpt lat="45.5425664" lon="10.3072935"><ele>182.0</ele><time>2026-03-28T07:39:41.587Z</time></trkpt><trkpt lat="45.5425497" lon="10.3071297"><ele>182.0</ele><time>2026-03-28T07:39:42.591Z</time></trkpt><trkpt lat="45.54253" lon="10.3069685"><ele>182.0</ele><time>2026-03-28T07:39:43.589Z</time></trkpt><trkpt lat="45.5425059" lon="10.3068153"><ele>182.33333333333331</ele><time>2026-03-28T07:39:44.582Z</time></trkpt><trkpt lat="45.5424726" lon="10.3066846"><ele>182.66666666666666</ele><time>2026-03-28T07:39:45.589Z</time></trkpt><trkpt lat="45.5424386" lon="10.3065778"><ele>183.0</ele><time>2026-03-28T07:39:46.588Z</time></trkpt><trkpt lat="45.5424146" lon="10.3064759"><ele>183.33333333333334</ele><time>2026-03-28T07:39:47.593Z</time></trkpt><trkpt lat="45.5423932" lon="10.3063334"><ele>183.66666666666669</ele><time>2026-03-28T07:39:49.596Z</time></trkpt><trkpt lat="45.542408" lon="10.3062458"><ele>184.0</ele><time>2026-03-28T07:39:51.597Z</time></trkpt><trkpt lat="45.5424625" lon="10.3061997"><ele>184.16666666666669</ele><time>2026-03-28T07:39:52.592Z</time></trkpt><trkpt lat="45.5425234" lon="10.3061603"><ele>184.33333333333334</ele><time>2026-03-28T07:39:53.592Z</time></trkpt><trkpt lat="45.5425918" lon="10.3061016"><ele>184.5</ele><time>2026-03-28T07:39:54.592Z</time></trkpt><trkpt lat="45.5426767" lon="10.306034"><ele>184.66666666666666</ele><time>2026-03-28T07:39:55.583Z</time></trkpt><trkpt lat="45.5427512" lon="10.3059561"><ele>184.83333333333331</ele><time>2026-03-28T07:39:56.595Z</time></trkpt><trkpt lat="45.5428231" lon="10.3058715"><ele>185.0</ele><time>2026-03-28T07:39:57.596Z</time></trkpt><trkpt lat="45.5428776" lon="10.3058035"><ele>185.66666666666666</ele><time>2026-03-28T07:39:58.597Z</time></trkpt><trkpt lat="45.5429447" lon="10.3057678"><ele>186.33333333333331</ele><time>2026-03-28T07:39:59.598Z</time></trkpt><trkpt lat="45.5430086" lon="10.3057704"><ele>187.0</ele><time>2026-03-28T07:40:00.591Z</time></trkpt><trkpt lat="45.5431162" lon="10.3058822"><ele>187.66666666666666</ele><time>2026-03-28T07:40:02.591Z</time></trkpt><trkpt lat="45.5431659" lon="10.3059814"><ele>188.33333333333334</ele><time>2026-03-28T07:40:03.592Z</time></trkpt><trkpt lat="45.5432234" lon="10.306082"><ele>189.0</ele><time>2026-03-28T07:40:04.585Z</time></trkpt><trkpt lat="45.5433036" lon="10.3061736"><ele>189.0</ele><time>2026-03-28T07:40:05.589Z</time></trkpt><trkpt lat="45.5434045" lon="10.3062442"><ele>189.0</ele><time>2026-03-28T07:40:06.587Z</time></trkpt><trkpt lat="45.5435203" lon="10.3062962"><ele>189.0</ele><time>2026-03-28T07:40:07.589Z</time></trkpt><trkpt lat="45.5436289" lon="10.3063548"><ele>189.0</ele><time>2026-03-28T07:40:08.592Z</time></trkpt><trkpt lat="45.5437252" lon="10.3064342"><ele>191.0</ele><time>2026-03-28T07:40:09.587Z</time></trkpt><trkpt lat="45.5438104" lon="10.306527"><ele>193.0</ele><time>2026-03-28T07:40:10.595Z</time></trkpt><trkpt lat="45.543884" lon="10.3066361"><ele>195.0</ele><time>2026-03-28T07:40:11.593Z</time></trkpt><trkpt lat="45.5439588" lon="10.3067398"><ele>197.0</ele><time>2026-03-28T07:40:12.593Z</time></trkpt><trkpt lat="45.5440166" lon="10.3068343"><ele>199.0</ele><time>2026-03-28T07:40:13.595Z</time></trkpt><trkpt lat="45.5440657" lon="10.3069168"><ele>199.0</ele><time>2026-03-28T07:40:14.6Z</time></trkpt><trkpt lat="45.5441175" lon="10.3069875"><ele>199.0</ele><time>2026-03-28T07:40:15.597Z</time></trkpt><trkpt lat="45.5442301" lon="10.3070291"><ele>199.0</ele><time>2026-03-28T07:40:17.588Z</time></trkpt><trkpt lat="45.5443399" lon="10.3069364"><ele>199.0</ele><time>2026-03-28T07:40:19.59Z</time></trkpt><trkpt lat="45.5443772" lon="10.3068345"><ele>199.0</ele><time>2026-03-28T07:40:20.592Z</time></trkpt><trkpt lat="45.5444151" lon="10.306696"><ele>199.0</ele><time>2026-03-28T07:40:21.593Z</time></trkpt><trkpt lat="45.5444526" lon="10.3065669"><ele>199.0</ele><time>2026-03-28T07:40:22.593Z</time></trkpt><trkpt lat="45.5445013" lon="10.3064449"><ele>199.0</ele><time>2026-03-28T07:40:23.595Z</time></trkpt><trkpt lat="45.5445563" lon="10.306338"><ele>199.0</ele><time>2026-03-28T07:40:24.592Z</time></trkpt><trkpt lat="45.544626" lon="10.306234"><ele>199.0</ele><time>2026-03-28T07:40:25.591Z</time></trkpt><trkpt lat="45.5447119" lon="10.306167"><ele>201.0</ele><time>2026-03-28T07:40:26.592Z</time></trkpt><trkpt lat="45.5448139" lon="10.3061053"><ele>203.0</ele><time>2026-03-28T07:40:27.589Z</time></trkpt><trkpt lat="45.5449134" lon="10.306045"><ele>205.0</ele><time>2026-03-28T07:40:28.598Z</time></trkpt><trkpt lat="45.5450149" lon="10.3059981"><ele>207.0</ele><time>2026-03-28T07:40:29.596Z</time></trkpt><trkpt lat="45.5451096" lon="10.305951"><ele>209.0</ele><time>2026-03-28T07:40:30.596Z</time></trkpt><trkpt lat="45.5452078" lon="10.3059283"><ele>209.0</ele><time>2026-03-28T07:40:31.588Z</time></trkpt><trkpt lat="45.5453019" lon="10.3059015"><ele>209.0</ele><time>2026-03-28T07:40:32.599Z</time></trkpt><trkpt lat="45.5454048" lon="10.3058716"><ele>209.0</ele><time>2026-03-28T07:40:33.598Z</time></trkpt><trkpt lat="45.5455054" lon="10.305838"><ele>209.0</ele><time>2026-03-28T07:40:34.598Z</time></trkpt><trkpt lat="45.5456055" lon="10.3058037"><ele>209.0</ele><time>2026-03-28T07:40:35.592Z</time></trkpt><trkpt lat="45.5456973" lon="10.3057696"><ele>210.79999999999998</ele><time>2026-03-28T07:40:36.594Z</time></trkpt><trkpt lat="45.5457878" lon="10.3057508"><ele>212.6</ele><time>2026-03-28T07:40:37.598Z</time></trkpt><trkpt lat="45.545885" lon="10.3057521"><ele>214.4</ele><time>2026-03-28T07:40:38.594Z</time></trkpt><trkpt lat="45.5459857" lon="10.3057555"><ele>216.2</ele><time>2026-03-28T07:40:39.594Z</time></trkpt><trkpt lat="45.5460903" lon="10.30575"><ele>218.0</ele><time>2026-03-28T07:40:40.595Z</time></trkpt><trkpt lat="45.546176" lon="10.3057615"><ele>220.33333333333334</ele><time>2026-03-28T07:40:41.603Z</time></trkpt><trkpt lat="45.5462598" lon="10.3057763"><ele>222.66666666666669</ele><time>2026-03-28T07:40:42.594Z</time></trkpt><trkpt lat="45.5463441" lon="10.3057827"><ele>225.0</ele><time>2026-03-28T07:40:43.591Z</time></trkpt><trkpt lat="45.546426" lon="10.3057634"><ele>227.33333333333331</ele><time>2026-03-28T07:40:44.588Z</time></trkpt><trkpt lat="45.5465097" lon="10.3057339"><ele>229.66666666666666</ele><time>2026-03-28T07:40:45.593Z</time></trkpt><trkpt lat="45.5465914" lon="10.3056948"><ele>232.0</ele><time>2026-03-28T07:40:46.586Z</time></trkpt><trkpt lat="45.5466641" lon="10.3056518"><ele>232.0</ele><time>2026-03-28T07:40:47.584Z</time></trkpt><trkpt lat="45.5467383" lon="10.305591"><ele>232.0</ele><time>2026-03-28T07:40:48.58Z</time></trkpt><trkpt lat="45.546803" lon="10.3055256"><ele>232.0</ele><time>2026-03-28T07:40:49.588Z</time></trkpt><trkpt lat="45.5468589" lon="10.3054802"><ele>232.0</ele><time>2026-03-28T07:40:50.585Z</time></trkpt><trkpt lat="45.5469704" lon="10.3054412"><ele>232.0</ele><time>2026-03-28T07:40:52.587Z</time></trkpt><trkpt lat="45.5470998" lon="10.3054908"><ele>233.8</ele><time>2026-03-28T07:40:54.583Z</time></trkpt><trkpt lat="45.547172" lon="10.3055542"><ele>235.6</ele><time>2026-03-28T07:40:55.584Z</time></trkpt><trkpt lat="45.5472557" lon="10.3056228"><ele>237.40000000000003</ele><time>2026-03-28T07:40:56.588Z</time></trkpt><trkpt lat="45.5473488" lon="10.3056897"><ele>239.20000000000002</ele><time>2026-03-28T07:40:57.583Z</time></trkpt><trkpt lat="45.5474328" lon="10.3057618"><ele>241.0</ele><time>2026-03-28T07:40:58.59Z</time></trkpt><trkpt lat="45.5475185" lon="10.3058283"><ele>241.4</ele><time>2026-03-28T07:40:59.583Z</time></trkpt><trkpt lat="45.5475963" lon="10.3058917"><ele>241.8</ele><time>2026-03-28T07:41:00.583Z</time></trkpt><trkpt lat="45.5476789" lon="10.3059334"><ele>242.20000000000002</ele><time>2026-03-28T07:41:01.584Z</time></trkpt><trkpt lat="45.5477636" lon="10.3059647"><ele>242.60000000000002</ele><time>2026-03-28T07:41:02.586Z</time></trkpt><trkpt lat="45.547861" lon="10.3059843"><ele>243.0</ele><time>2026-03-28T07:41:03.588Z</time></trkpt><trkpt lat="45.5479561" lon="10.306002"><ele>244.2</ele><time>2026-03-28T07:41:04.587Z</time></trkpt><trkpt lat="45.5480523" lon="10.3060134"><ele>245.4</ele><time>2026-03-28T07:41:05.584Z</time></trkpt><trkpt lat="45.5481527" lon="10.3060247"><ele>246.59999999999997</ele><time>2026-03-28T07:41:06.591Z</time></trkpt><trkpt lat="45.5482501" lon="10.3060351"><ele>247.79999999999998</ele><time>2026-03-28T07:41:07.585Z</time></trkpt><trkpt lat="45.5483473" lon="10.3060547"><ele>249.0</ele><time>2026-03-28T07:41:08.589Z</time></trkpt><trkpt lat="45.5484354" lon="10.3060858"><ele>249.0</ele><time>2026-03-28T07:41:09.585Z</time></trkpt><trkpt lat="45.5485309" lon="10.3061233"><ele>248.99999999999997</ele><time>2026-03-28T07:41:10.586Z</time></trkpt><trkpt lat="45.5486385" lon="10.3061784"><ele>248.99999999999997</ele><time>2026-03-28T07:41:11.589Z</time></trkpt><trkpt lat="45.5487383" lon="10.3062482"><ele>249.0</ele><time>2026-03-28T07:41:12.584Z</time></trkpt><trkpt lat="45.5488162" lon="10.3063328"><ele>249.0</ele><time>2026-03-28T07:41:13.592Z</time></trkpt><trkpt lat="45.5488844" lon="10.3064238"><ele>251.2</ele><time>2026-03-28T07:41:14.586Z</time></trkpt><trkpt lat="45.5489425" lon="10.3065217"><ele>253.39999999999998</ele><time>2026-03-28T07:41:15.589Z</time></trkpt><trkpt lat="45.5489767" lon="10.3066385"><ele>255.6</ele><time>2026-03-28T07:41:16.587Z</time></trkpt><trkpt lat="45.5489736" lon="10.3067738"><ele>257.8</ele><time>2026-03-28T07:41:17.585Z</time></trkpt><trkpt lat="45.5489538" lon="10.3069194"><ele>260.0</ele><time>2026-03-28T07:41:18.585Z</time></trkpt><trkpt lat="45.5489271" lon="10.3070635"><ele>260.0</ele><time>2026-03-28T07:41:19.585Z</time></trkpt><trkpt lat="45.548902" lon="10.3071945"><ele>260.0</ele><time>2026-03-28T07:41:20.59Z</time></trkpt><trkpt lat="45.548866" lon="10.3073144"><ele>260.0</ele><time>2026-03-28T07:41:21.586Z</time></trkpt><trkpt lat="45.5488336" lon="10.3074323"><ele>260.0</ele><time>2026-03-28T07:41:22.594Z</time></trkpt><trkpt lat="45.548807" lon="10.3075394"><ele>260.0</ele><time>2026-03-28T07:41:23.586Z</time></trkpt><trkpt lat="45.5487815" lon="10.3076393"><ele>260.0</ele><time>2026-03-28T07:41:24.588Z</time></trkpt><trkpt lat="45.548748" lon="10.3077475"><ele>260.0</ele><time>2026-03-28T07:41:25.585Z</time></trkpt><trkpt lat="45.5487158" lon="10.30787"><ele>260.0</ele><time>2026-03-28T07:41:26.582Z</time></trkpt><trkpt lat="45.5486817" lon="10.3079996"><ele>260.0</ele><time>2026-03-28T07:41:27.584Z</time></trkpt><trkpt lat="45.5486378" lon="10.3081419"><ele>260.0</ele><time>2026-03-28T07:41:28.584Z</time></trkpt><trkpt lat="45.5485904" lon="10.3082873"><ele>260.0</ele><time>2026-03-28T07:41:29.586Z</time></trkpt><trkpt lat="45.5485463" lon="10.3084331"><ele>258.5</ele><time>2026-03-28T07:41:30.59Z</time></trkpt><trkpt lat="45.5485089" lon="10.3085697"><ele>257.0</ele><time>2026-03-28T07:41:31.588Z</time></trkpt><trkpt lat="45.5484761" lon="10.3086916"><ele>255.5</ele><time>2026-03-28T07:41:32.588Z</time></trkpt><trkpt lat="45.5484545" lon="10.3087978"><ele>254.0</ele><time>2026-03-28T07:41:33.589Z</time></trkpt><trkpt lat="45.5484398" lon="10.3089022"><ele>252.50000000000003</ele><time>2026-03-28T07:41:34.58Z</time></trkpt><trkpt lat="45.5484424" lon="10.3090022"><ele>251.0</ele><time>2026-03-28T07:41:35.583Z</time></trkpt><trkpt lat="45.5484728" lon="10.3091021"><ele>251.0</ele><time>2026-03-28T07:41:36.586Z</time></trkpt><trkpt lat="45.548532" lon="10.3092084"><ele>251.00000000000003</ele><time>2026-03-28T07:41:37.583Z</time></trkpt><trkpt lat="45.5486103" lon="10.3093158"><ele>251.00000000000003</ele><time>2026-03-28T07:41:38.584Z</time></trkpt><trkpt lat="45.5486958" lon="10.3094231"><ele>251.0</ele><time>2026-03-28T07:41:39.587Z</time></trkpt><trkpt lat="45.5487792" lon="10.3095207"><ele>251.0</ele><time>2026-03-28T07:41:40.589Z</time></trkpt><trkpt lat="45.5488638" lon="10.3096102"><ele>252.20000000000002</ele><time>2026-03-28T07:41:41.592Z</time></trkpt><trkpt lat="45.5489417" lon="10.3096941"><ele>253.40000000000003</ele><time>2026-03-28T07:41:42.597Z</time></trkpt><trkpt lat="45.5490287" lon="10.3097703"><ele>254.6</ele><time>2026-03-28T07:41:43.585Z</time></trkpt><trkpt lat="45.5491199" lon="10.3098493"><ele>255.8</ele><time>2026-03-28T07:41:44.587Z</time></trkpt><trkpt lat="45.5492154" lon="10.3099229"><ele>257.0</ele><time>2026-03-28T07:41:45.584Z</time></trkpt><trkpt lat="45.5493144" lon="10.3099919"><ele>257.0</ele><time>2026-03-28T07:41:46.587Z</time></trkpt><trkpt lat="45.5494126" lon="10.3100685"><ele>257.0</ele><time>2026-03-28T07:41:47.583Z</time></trkpt><trkpt lat="45.5495091" lon="10.3101501"><ele>257.0</ele><time>2026-03-28T07:41:48.584Z</time></trkpt><trkpt lat="45.5495992" lon="10.3102369"><ele>257.0</ele><time>2026-03-28T07:41:49.582Z</time></trkpt><trkpt lat="45.5496944" lon="10.3103249"><ele>257.0</ele><time>2026-03-28T07:41:50.586Z</time></trkpt><trkpt lat="45.5497899" lon="10.3104079"><ele>254.2</ele><time>2026-03-28T07:41:51.581Z</time></trkpt><trkpt lat="45.5498796" lon="10.3104862"><ele>251.39999999999998</ele><time>2026-03-28T07:41:52.582Z</time></trkpt><trkpt lat="45.5499659" lon="10.310557"><ele>248.60000000000002</ele><time>2026-03-28T07:41:53.58Z</time></trkpt><trkpt lat="45.5500643" lon="10.3106106"><ele>245.8</ele><time>2026-03-28T07:41:54.574Z</time></trkpt><trkpt lat="45.5501749" lon="10.3106449"><ele>243.0</ele><time>2026-03-28T07:41:55.576Z</time></trkpt><trkpt lat="45.5502943" lon="10.3106756"><ele>248.60000000000002</ele><time>2026-03-28T07:41:56.578Z</time></trkpt><trkpt lat="45.5504027" lon="10.3107114"><ele>254.20000000000002</ele><time>2026-03-28T07:41:57.574Z</time></trkpt><trkpt lat="45.5504957" lon="10.310755"><ele>259.8</ele><time>2026-03-28T07:41:58.581Z</time></trkpt><trkpt lat="45.5505862" lon="10.3108162"><ele>265.40000000000003</ele><time>2026-03-28T07:41:59.578Z</time></trkpt><trkpt lat="45.5506733" lon="10.3108938"><ele>271.0</ele><time>2026-03-28T07:42:00.583Z</time></trkpt><trkpt lat="45.550759" lon="10.3109854"><ele>271.0</ele><time>2026-03-28T07:42:01.578Z</time></trkpt><trkpt lat="45.5508464" lon="10.3110839"><ele>271.0</ele><time>2026-03-28T07:42:02.591Z</time></trkpt><trkpt lat="45.55093" lon="10.3111792"><ele>271.0</ele><time>2026-03-28T07:42:03.587Z</time></trkpt><trkpt lat="45.5510169" lon="10.3112682"><ele>271.0</ele><time>2026-03-28T07:42:04.587Z</time></trkpt><trkpt lat="45.5511084" lon="10.3113499"><ele>271.0</ele><time>2026-03-28T07:42:05.588Z</time></trkpt><trkpt lat="45.5512001" lon="10.3114237"><ele>272.2</ele><time>2026-03-28T07:42:06.584Z</time></trkpt><trkpt lat="45.5512897" lon="10.3114964"><ele>273.40000000000003</ele><time>2026-03-28T07:42:07.587Z</time></trkpt><trkpt lat="45.5513795" lon="10.3115717"><ele>274.6</ele><time>2026-03-28T07:42:08.582Z</time></trkpt><trkpt lat="45.5514721" lon="10.311633"><ele>275.8</ele><time>2026-03-28T07:42:09.584Z</time></trkpt><trkpt lat="45.5515571" lon="10.3117076"><ele>277.0</ele><time>2026-03-28T07:42:10.572Z</time></trkpt><trkpt lat="45.5516413" lon="10.3117884"><ele>277.0</ele><time>2026-03-28T07:42:11.576Z</time></trkpt><trkpt lat="45.5517287" lon="10.311871"><ele>277.0</ele><time>2026-03-28T07:42:12.586Z</time></trkpt><trkpt lat="45.5518231" lon="10.3119436"><ele>277.0</ele><time>2026-03-28T07:42:13.583Z</time></trkpt><trkpt lat="45.5519209" lon="10.312002"><ele>277.0</ele><time>2026-03-28T07:42:14.585Z</time></trkpt><trkpt lat="45.5520165" lon="10.3120408"><ele>277.0</ele><time>2026-03-28T07:42:15.586Z</time></trkpt><trkpt lat="45.5521132" lon="10.3120583"><ele>283.2</ele><time>2026-03-28T07:42:16.588Z</time></trkpt><trkpt lat="45.5522085" lon="10.3120788"><ele>289.4</ele><time>2026-03-28T07:42:17.585Z</time></trkpt><trkpt lat="45.5523057" lon="10.3120976"><ele>295.6</ele><time>2026-03-28T07:42:18.584Z</time></trkpt><trkpt lat="45.5523995" lon="10.3121173"><ele>301.8</ele><time>2026-03-28T07:42:19.581Z</time></trkpt><trkpt lat="45.5524909" lon="10.3121275"><ele>308.0</ele><time>2026-03-28T07:42:20.58Z</time></trkpt><trkpt lat="45.552578" lon="10.3121248"><ele>308.0</ele><time>2026-03-28T07:42:21.58Z</time></trkpt><trkpt lat="45.55267" lon="10.3121411"><ele>308.0</ele><time>2026-03-28T07:42:22.583Z</time></trkpt><trkpt lat="45.552764" lon="10.3121581"><ele>308.0</ele><time>2026-03-28T07:42:23.568Z</time></trkpt><trkpt lat="45.5528608" lon="10.3121868"><ele>308.0</ele><time>2026-03-28T07:42:24.572Z</time></trkpt><trkpt lat="45.5529551" lon="10.3122412"><ele>308.0</ele><time>2026-03-28T07:42:25.582Z</time></trkpt><trkpt lat="45.553048" lon="10.3122913"><ele>304.6</ele><time>2026-03-28T07:42:26.577Z</time></trkpt><trkpt lat="45.5531391" lon="10.3123478"><ele>301.20000000000005</ele><time>2026-03-28T07:42:27.565Z</time></trkpt><trkpt lat="45.5532296" lon="10.3123934"><ele>297.8</ele><time>2026-03-28T07:42:28.576Z</time></trkpt><trkpt lat="45.5533198" lon="10.312443"><ele>294.40000000000003</ele><time>2026-03-28T07:42:29.583Z</time></trkpt><trkpt lat="45.5534113" lon="10.3124965"><ele>291.0</ele><time>2026-03-28T07:42:30.58Z</time></trkpt><trkpt lat="45.5534945" lon="10.3125465"><ele>291.0</ele><time>2026-03-28T07:42:31.581Z</time></trkpt><trkpt lat="45.5535658" lon="10.3125945"><ele>291.0</ele><time>2026-03-28T07:42:32.579Z</time></trkpt><trkpt lat="45.5536235" lon="10.3126562"><ele>291.0</ele><time>2026-03-28T07:42:33.579Z</time></trkpt><trkpt lat="45.553683" lon="10.3127218"><ele>291.0</ele><time>2026-03-28T07:42:34.583Z</time></trkpt><trkpt lat="45.5537518" lon="10.3127946"><ele>291.0</ele><time>2026-03-28T07:42:35.584Z</time></trkpt><trkpt lat="45.5538335" lon="10.3128628"><ele>291.0</ele><time>2026-03-28T07:42:36.586Z</time></trkpt><trkpt lat="45.5539265" lon="10.3129187"><ele>293.0</ele><time>2026-03-28T07:42:37.584Z</time></trkpt><trkpt lat="45.5540185" lon="10.3129532"><ele>295.0</ele><time>2026-03-28T07:42:38.579Z</time></trkpt><trkpt lat="45.554106" lon="10.3129626"><ele>297.0</ele><time>2026-03-28T07:42:39.579Z</time></trkpt><trkpt lat="45.5541916" lon="10.3129521"><ele>299.0</ele><time>2026-03-28T07:42:40.584Z</time></trkpt><trkpt lat="45.5542671" lon="10.3129177"><ele>301.0</ele><time>2026-03-28T07:42:41.578Z</time></trkpt><trkpt lat="45.554342" lon="10.3128659"><ele>303.0</ele><time>2026-03-28T07:42:42.578Z</time></trkpt><trkpt lat="45.5544099" lon="10.3127933"><ele>303.0</ele><time>2026-03-28T07:42:43.582Z</time></trkpt><trkpt lat="45.5544743" lon="10.3127057"><ele>303.0</ele><time>2026-03-28T07:42:44.565Z</time></trkpt><trkpt lat="45.5545426" lon="10.3126108"><ele>303.0</ele><time>2026-03-28T07:42:45.573Z</time></trkpt><trkpt lat="45.5546139" lon="10.3125149"><ele>303.0</ele><time>2026-03-28T07:42:46.579Z</time></trkpt><trkpt lat="45.5546854" lon="10.3124292"><ele>303.0</ele><time>2026-03-28T07:42:47.578Z</time></trkpt><trkpt lat="45.5547502" lon="10.312352"><ele>303.2</ele><time>2026-03-28T07:42:48.566Z</time></trkpt><trkpt lat="45.5548124" lon="10.3122598"><ele>303.4</ele><time>2026-03-28T07:42:49.567Z</time></trkpt><trkpt lat="45.5548734" lon="10.3121475"><ele>303.59999999999997</ele><time>2026-03-28T07:42:50.579Z</time></trkpt><trkpt lat="45.5549166" lon="10.3120365"><ele>303.8</ele><time>2026-03-28T07:42:51.568Z</time></trkpt><trkpt lat="45.5549486" lon="10.3119286"><ele>304.0</ele><time>2026-03-28T07:42:52.576Z</time></trkpt><trkpt lat="45.5549949" lon="10.3118095"><ele>304.0</ele><time>2026-03-28T07:42:53.589Z</time></trkpt><trkpt lat="45.5550491" lon="10.3117084"><ele>304.0</ele><time>2026-03-28T07:42:54.582Z</time></trkpt><trkpt lat="45.5551107" lon="10.3116124"><ele>304.0</ele><time>2026-03-28T07:42:55.584Z</time></trkpt><trkpt lat="45.5551702" lon="10.3115272"><ele>304.0</ele><time>2026-03-28T07:42:56.582Z</time></trkpt><trkpt lat="45.5552248" lon="10.3114532"><ele>304.0</ele><time>2026-03-28T07:42:57.578Z</time></trkpt><trkpt lat="45.5552786" lon="10.3113902"><ele>304.0</ele><time>2026-03-28T07:42:58.582Z</time></trkpt><trkpt lat="45.5553523" lon="10.3112892"><ele>304.8333333333333</ele><time>2026-03-28T07:43:00.584Z</time></trkpt><trkpt lat="45.5554201" lon="10.3112464"><ele>305.66666666666663</ele><time>2026-03-28T07:43:02.583Z</time></trkpt><trkpt lat="45.5555256" lon="10.3113004"><ele>306.5</ele><time>2026-03-28T07:43:04.585Z</time></trkpt><trkpt lat="45.5556044" lon="10.311338"><ele>307.3333333333333</ele><time>2026-03-28T07:43:05.583Z</time></trkpt><trkpt lat="45.5556867" lon="10.311377"><ele>308.1666666666667</ele><time>2026-03-28T07:43:06.586Z</time></trkpt><trkpt lat="45.5557758" lon="10.3113998"><ele>309.0</ele><time>2026-03-28T07:43:07.584Z</time></trkpt><trkpt lat="45.5558591" lon="10.3114245"><ele>306.5</ele><time>2026-03-28T07:43:08.583Z</time></trkpt><trkpt lat="45.5559349" lon="10.311448"><ele>304.0</ele><time>2026-03-28T07:43:09.586Z</time></trkpt><trkpt lat="45.5560287" lon="10.3115456"><ele>301.5</ele><time>2026-03-28T07:43:11.586Z</time></trkpt><trkpt lat="45.5560335" lon="10.3116898"><ele>299.0</ele><time>2026-03-28T07:43:13.586Z</time></trkpt><trkpt lat="45.5560096" lon="10.3117945"><ele>296.5</ele><time>2026-03-28T07:43:16.584Z</time></trkpt><trkpt lat="45.5560313" lon="10.3118845"><ele>294.0</ele><time>2026-03-28T07:43:18.589Z</time></trkpt><trkpt lat="45.5561025" lon="10.3119781"><ele>294.0</ele><time>2026-03-28T07:43:20.591Z</time></trkpt><trkpt lat="45.5561585" lon="10.3120292"><ele>294.0</ele><time>2026-03-28T07:43:21.581Z</time></trkpt><trkpt lat="45.5562269" lon="10.312072"><ele>294.0</ele><time>2026-03-28T07:43:22.59Z</time></trkpt><trkpt lat="45.5562975" lon="10.3121088"><ele>294.0</ele><time>2026-03-28T07:43:23.585Z</time></trkpt><trkpt lat="45.5563717" lon="10.3121344"><ele>294.0</ele><time>2026-03-28T07:43:24.586Z</time></trkpt><trkpt lat="45.5564548" lon="10.3121448"><ele>294.0</ele><time>2026-03-28T07:43:25.588Z</time></trkpt><trkpt lat="45.556545" lon="10.3121372"><ele>295.0</ele><time>2026-03-28T07:43:26.592Z</time></trkpt><trkpt lat="45.556628" lon="10.312136"><ele>296.0</ele><time>2026-03-28T07:43:27.595Z</time></trkpt><trkpt lat="45.5567042" lon="10.3121307"><ele>297.0</ele><time>2026-03-28T07:43:28.595Z</time></trkpt><trkpt lat="45.5567795" lon="10.3121277"><ele>298.0</ele><time>2026-03-28T07:43:29.587Z</time></trkpt><trkpt lat="45.5568523" lon="10.3121358"><ele>299.0</ele><time>2026-03-28T07:43:30.591Z</time></trkpt><trkpt lat="45.5569196" lon="10.3121475"><ele>300.0</ele><time>2026-03-28T07:43:31.591Z</time></trkpt><trkpt lat="45.5570427" lon="10.3121693"><ele>300.4285714285714</ele><time>2026-03-28T07:43:33.582Z</time></trkpt><trkpt lat="45.5571112" lon="10.3121786"><ele>300.85714285714283</ele><time>2026-03-28T07:43:34.595Z</time></trkpt><trkpt lat="45.5571823" lon="10.3121944"><ele>301.2857142857143</ele><time>2026-03-28T07:43:35.585Z</time></trkpt><trkpt lat="45.5572558" lon="10.3121998"><ele>301.71428571428567</ele><time>2026-03-28T07:43:36.586Z</time></trkpt><trkpt lat="45.5573323" lon="10.3122041"><ele>302.1428571428571</ele><time>2026-03-28T07:43:37.588Z</time></trkpt><trkpt lat="45.5574026" lon="10.3121886"><ele>302.57142857142856</ele><time>2026-03-28T07:43:38.591Z</time></trkpt><trkpt lat="45.5574676" lon="10.3121673"><ele>303.0</ele><time>2026-03-28T07:43:39.592Z</time></trkpt><trkpt lat="45.5575432" lon="10.3121422"><ele>303.0</ele><time>2026-03-28T07:43:40.594Z</time></trkpt><trkpt lat="45.5576165" lon="10.3121188"><ele>303.0</ele><time>2026-03-28T07:43:41.592Z</time></trkpt><trkpt lat="45.5576973" lon="10.3120868"><ele>303.0</ele><time>2026-03-28T07:43:42.591Z</time></trkpt><trkpt lat="45.5577775" lon="10.312062"><ele>303.0</ele><time>2026-03-28T07:43:43.597Z</time></trkpt><trkpt lat="45.5578577" lon="10.3120598"><ele>303.0</ele><time>2026-03-28T07:43:44.588Z</time></trkpt><trkpt lat="45.5579428" lon="10.3120659"><ele>303.0</ele><time>2026-03-28T07:43:45.584Z</time></trkpt><trkpt lat="45.5580253" lon="10.3120829"><ele>302.6666666666667</ele><time>2026-03-28T07:43:46.596Z</time></trkpt><trkpt lat="45.5581111" lon="10.3121104"><ele>302.3333333333333</ele><time>2026-03-28T07:43:47.589Z</time></trkpt><trkpt lat="45.5581988" lon="10.3121443"><ele>302.0</ele><time>2026-03-28T07:43:48.587Z</time></trkpt><trkpt lat="45.5582847" lon="10.3121719"><ele>301.66666666666663</ele><time>2026-03-28T07:43:49.594Z</time></trkpt><trkpt lat="45.5583659" lon="10.3121978"><ele>301.3333333333333</ele><time>2026-03-28T07:43:50.586Z</time></trkpt><trkpt lat="45.5584413" lon="10.3122252"><ele>301.0</ele><time>2026-03-28T07:43:51.591Z</time></trkpt><trkpt lat="45.5584994" lon="10.3122601"><ele>300.8333333333333</ele><time>2026-03-28T07:43:52.592Z</time></trkpt><trkpt lat="45.5586344" lon="10.3122843"><ele>300.66666666666663</ele><time>2026-03-28T07:43:54.59Z</time></trkpt><trkpt lat="45.5587121" lon="10.3122719"><ele>300.5</ele><time>2026-03-28T07:43:55.588Z</time></trkpt><trkpt lat="45.5587865" lon="10.3122495"><ele>300.3333333333333</ele><time>2026-03-28T07:43:56.595Z</time></trkpt><trkpt lat="45.5588596" lon="10.312211"><ele>300.1666666666667</ele><time>2026-03-28T07:43:57.581Z</time></trkpt><trkpt lat="45.5589283" lon="10.3121722"><ele>300.0</ele><time>2026-03-28T07:43:58.593Z</time></trkpt><trkpt lat="45.5589892" lon="10.3121283"><ele>300.0</ele><time>2026-03-28T07:43:59.585Z</time></trkpt><trkpt lat="45.5590838" lon="10.3120535"><ele>300.0</ele><time>2026-03-28T07:44:01.581Z</time></trkpt><trkpt lat="45.5591501" lon="10.3120167"><ele>300.0</ele><time>2026-03-28T07:44:04.588Z</time></trkpt><trkpt lat="45.5591994" lon="10.3121618"><ele>300.0</ele><time>2026-03-28T07:44:07.582Z</time></trkpt><trkpt lat="45.5591926" lon="10.3123426"><ele>300.0</ele><time>2026-03-28T07:44:09.597Z</time></trkpt><trkpt lat="45.5591957" lon="10.3124958"><ele>300.0</ele><time>2026-03-28T07:44:11.592Z</time></trkpt><trkpt lat="45.5592058" lon="10.312627"><ele>300.0</ele><time>2026-03-28T07:44:13.589Z</time></trkpt><trkpt lat="45.5592549" lon="10.3127363"><ele>300.0</ele><time>2026-03-28T07:44:15.595Z</time></trkpt><trkpt lat="45.5593318" lon="10.3128378"><ele>300.0</ele><time>2026-03-28T07:44:17.586Z</time></trkpt><trkpt lat="45.5594248" lon="10.3129316"><ele>300.0</ele><time>2026-03-28T07:44:19.576Z</time></trkpt><trkpt lat="45.5594777" lon="10.3129809"><ele>301.4</ele><time>2026-03-28T07:44:20.597Z</time></trkpt><trkpt lat="45.5595926" lon="10.3130565"><ele>302.8</ele><time>2026-03-28T07:44:22.597Z</time></trkpt><trkpt lat="45.5596615" lon="10.3130792"><ele>304.2</ele><time>2026-03-28T07:44:23.599Z</time></trkpt><trkpt lat="45.5597303" lon="10.3131079"><ele>305.6</ele><time>2026-03-28T07:44:24.585Z</time></trkpt><trkpt lat="45.5598012" lon="10.3131245"><ele>307.0</ele><time>2026-03-28T07:44:25.586Z</time></trkpt><trkpt lat="45.5599163" lon="10.3131509"><ele>307.0</ele><time>2026-03-28T07:44:27.586Z</time></trkpt><trkpt lat="45.5600324" lon="10.3131381"><ele>307.0</ele><time>2026-03-28T07:44:29.588Z</time></trkpt><trkpt lat="45.5601455" lon="10.3130922"><ele>307.0</ele><time>2026-03-28T07:44:31.592Z</time></trkpt><trkpt lat="45.56023" lon="10.3130818"><ele>307.0</ele><time>2026-03-28T07:44:33.587Z</time></trkpt><trkpt lat="45.560281" lon="10.3131978"><ele>307.0</ele><time>2026-03-28T07:44:35.585Z</time></trkpt><trkpt lat="45.5602925" lon="10.313292"><ele>307.0</ele><time>2026-03-28T07:44:36.59Z</time></trkpt><trkpt lat="45.5603016" lon="10.3133986"><ele>307.0</ele><time>2026-03-28T07:44:37.593Z</time></trkpt><trkpt lat="45.5603222" lon="10.3135234"><ele>307.0</ele><time>2026-03-28T07:44:38.589Z</time></trkpt><trkpt lat="45.5603628" lon="10.3136465"><ele>307.0</ele><time>2026-03-28T07:44:39.581Z</time></trkpt><trkpt lat="45.5603993" lon="10.3137773"><ele>307.0</ele><time>2026-03-28T07:44:40.591Z</time></trkpt><trkpt lat="45.5604483" lon="10.3139075"><ele>310.4</ele><time>2026-03-28T07:44:41.603Z</time></trkpt><trkpt lat="45.5604953" lon="10.3140383"><ele>313.79999999999995</ele><time>2026-03-28T07:44:42.592Z</time></trkpt><trkpt lat="45.5605503" lon="10.314173"><ele>317.2</ele><time>2026-03-28T07:44:43.594Z</time></trkpt><trkpt lat="45.5606116" lon="10.3143018"><ele>320.59999999999997</ele><time>2026-03-28T07:44:44.592Z</time></trkpt><trkpt lat="45.560667" lon="10.3144287"><ele>324.0</ele><time>2026-03-28T07:44:45.599Z</time></trkpt><trkpt lat="45.5607231" lon="10.3145552"><ele>324.0</ele><time>2026-03-28T07:44:46.592Z</time></trkpt><trkpt lat="45.5607735" lon="10.3146834"><ele>324.0</ele><time>2026-03-28T07:44:47.589Z</time></trkpt><trkpt lat="45.5608194" lon="10.3148222"><ele>324.0</ele><time>2026-03-28T07:44:48.59Z</time></trkpt><trkpt lat="45.5608564" lon="10.3149618"><ele>324.0</ele><time>2026-03-28T07:44:49.59Z</time></trkpt><trkpt lat="45.5608885" lon="10.3150947"><ele>324.0</ele><time>2026-03-28T07:44:50.589Z</time></trkpt><trkpt lat="45.5609231" lon="10.3152039"><ele>322.1666666666667</ele><time>2026-03-28T07:44:51.589Z</time></trkpt><trkpt lat="45.5609583" lon="10.3153111"><ele>320.3333333333333</ele><time>2026-03-28T07:44:52.592Z</time></trkpt><trkpt lat="45.5610007" lon="10.3154151"><ele>318.5</ele><time>2026-03-28T07:44:53.59Z</time></trkpt><trkpt lat="45.5610506" lon="10.315519"><ele>316.66666666666663</ele><time>2026-03-28T07:44:54.598Z</time></trkpt><trkpt lat="45.5610964" lon="10.3156048"><ele>314.8333333333333</ele><time>2026-03-28T07:44:55.586Z</time></trkpt><trkpt lat="45.5611369" lon="10.3156888"><ele>313.0</ele><time>2026-03-28T07:44:56.597Z</time></trkpt><trkpt lat="45.5611768" lon="10.3157638"><ele>315.0</ele><time>2026-03-28T07:44:57.594Z</time></trkpt><trkpt lat="45.5612438" lon="10.3158194"><ele>317.0</ele><time>2026-03-28T07:44:58.584Z</time></trkpt><trkpt lat="45.5613173" lon="10.315893"><ele>319.0</ele><time>2026-03-28T07:44:59.592Z</time></trkpt><trkpt lat="45.5613932" lon="10.3159741"><ele>321.0</ele><time>2026-03-28T07:45:00.592Z</time></trkpt><trkpt lat="45.5614668" lon="10.3160526"><ele>323.0</ele><time>2026-03-28T07:45:01.593Z</time></trkpt><trkpt lat="45.5615242" lon="10.3161268"><ele>325.0</ele><time>2026-03-28T07:45:02.588Z</time></trkpt><trkpt lat="45.5615609" lon="10.3162036"><ele>325.0</ele><time>2026-03-28T07:45:03.589Z</time></trkpt><trkpt lat="45.5616007" lon="10.3163687"><ele>325.0</ele><time>2026-03-28T07:45:05.588Z</time></trkpt><trkpt lat="45.5616062" lon="10.3164747"><ele>325.0</ele><time>2026-03-28T07:45:06.594Z</time></trkpt><trkpt lat="45.5616137" lon="10.3165869"><ele>325.0</ele><time>2026-03-28T07:45:07.59Z</time></trkpt><trkpt lat="45.5616254" lon="10.3166962"><ele>325.0</ele><time>2026-03-28T07:45:08.592Z</time></trkpt><trkpt lat="45.5616343" lon="10.3168086"><ele>325.0</ele><time>2026-03-28T07:45:09.593Z</time></trkpt><trkpt lat="45.5616429" lon="10.3169257"><ele>323.5</ele><time>2026-03-28T07:45:10.593Z</time></trkpt><trkpt lat="45.5616502" lon="10.3170275"><ele>322.0</ele><time>2026-03-28T07:45:11.593Z</time></trkpt><trkpt lat="45.5616568" lon="10.3171187"><ele>320.5</ele><time>2026-03-28T07:45:12.59Z</time></trkpt><trkpt lat="45.5616643" lon="10.3172916"><ele>319.0</ele><time>2026-03-28T07:45:14.592Z</time></trkpt><trkpt lat="45.5616812" lon="10.3173811"><ele>317.5</ele><time>2026-03-28T07:45:22.594Z</time></trkpt><trkpt lat="45.5616924" lon="10.3174707"><ele>316.0</ele><time>2026-03-28T07:45:29.593Z</time></trkpt><trkpt lat="45.5617059" lon="10.3175773"><ele>316.0</ele><time>2026-03-28T07:45:50.61Z</time></trkpt><trkpt lat="45.5617199" lon="10.3176896"><ele>316.0</ele><time>2026-03-28T07:45:55.599Z</time></trkpt><trkpt lat="45.5616907" lon="10.3175084"><ele>316.0</ele><time>2026-03-28T07:46:22.605Z</time></trkpt><trkpt lat="45.5616599" lon="10.3173633"><ele>316.0</ele><time>2026-03-28T07:46:24.6Z</time></trkpt><trkpt lat="45.5616558" lon="10.3172636"><ele>316.0</ele><time>2026-03-28T07:46:25.601Z</time></trkpt><trkpt lat="45.5616393" lon="10.3171053"><ele>316.0</ele><time>2026-03-28T07:46:27.597Z</time></trkpt><trkpt lat="45.5616585" lon="10.3169561"><ele>316.0</ele><time>2026-03-28T07:46:29.597Z</time></trkpt><trkpt lat="45.5616448" lon="10.3167957"><ele>316.0</ele><time>2026-03-28T07:46:31.6Z</time></trkpt><trkpt lat="45.5616082" lon="10.3167188"><ele>316.0</ele><time>2026-03-28T07:46:32.6Z</time></trkpt><trkpt lat="45.5615595" lon="10.3166564"><ele>316.0</ele><time>2026-03-28T07:46:33.583Z</time></trkpt><trkpt lat="45.5615023" lon="10.3165812"><ele>316.0</ele><time>2026-03-28T07:46:34.592Z</time></trkpt><trkpt lat="45.5614371" lon="10.3165133"><ele>316.0</ele><time>2026-03-28T07:46:35.591Z</time></trkpt><trkpt lat="45.5613609" lon="10.3164508"><ele>316.0</ele><time>2026-03-28T07:46:36.594Z</time></trkpt><trkpt lat="45.5612997" lon="10.3163952"><ele>316.0</ele><time>2026-03-28T07:46:37.59Z</time></trkpt><trkpt lat="45.5612382" lon="10.3163404"><ele>316.0</ele><time>2026-03-28T07:46:38.588Z</time></trkpt><trkpt lat="45.5611888" lon="10.3162653"><ele>316.0</ele><time>2026-03-28T07:46:39.596Z</time></trkpt><trkpt lat="45.5611403" lon="10.3161821"><ele>316.0</ele><time>2026-03-28T07:46:40.597Z</time></trkpt><trkpt lat="45.5610983" lon="10.3160752"><ele>315.40000000000003</ele><time>2026-03-28T07:46:41.577Z</time></trkpt><trkpt lat="45.5610423" lon="10.3159724"><ele>314.8</ele><time>2026-03-28T07:46:42.583Z</time></trkpt><trkpt lat="45.5609939" lon="10.315867"><ele>314.20000000000005</ele><time>2026-03-28T07:46:43.598Z</time></trkpt><trkpt lat="45.5609495" lon="10.3157547"><ele>313.6</ele><time>2026-03-28T07:46:44.593Z</time></trkpt><trkpt lat="45.560903" lon="10.3156346"><ele>313.0</ele><time>2026-03-28T07:46:45.59Z</time></trkpt><trkpt lat="45.560865" lon="10.3155032"><ele>313.0</ele><time>2026-03-28T07:46:46.596Z</time></trkpt><trkpt lat="45.5608265" lon="10.3153698"><ele>313.0</ele><time>2026-03-28T07:46:47.596Z</time></trkpt><trkpt lat="45.5607853" lon="10.3152357"><ele>313.0</ele><time>2026-03-28T07:46:48.588Z</time></trkpt><trkpt lat="45.5607322" lon="10.3151092"><ele>313.0</ele><time>2026-03-28T07:46:49.59Z</time></trkpt><trkpt lat="45.5606736" lon="10.3149895"><ele>313.0</ele><time>2026-03-28T07:46:50.6Z</time></trkpt><trkpt lat="45.5606119" lon="10.3148784"><ele>313.0</ele><time>2026-03-28T07:46:51.594Z</time></trkpt><trkpt lat="45.5605504" lon="10.3147682"><ele>313.0</ele><time>2026-03-28T07:46:52.598Z</time></trkpt><trkpt lat="45.5604878" lon="10.3146437"><ele>313.0</ele><time>2026-03-28T07:46:53.597Z</time></trkpt><trkpt lat="45.5604262" lon="10.3145235"><ele>313.0</ele><time>2026-03-28T07:46:54.6Z</time></trkpt><trkpt lat="45.5603732" lon="10.3144103"><ele>313.0</ele><time>2026-03-28T07:46:55.599Z</time></trkpt><trkpt lat="45.5603306" lon="10.3142955"><ele>312.0</ele><time>2026-03-28T07:46:56.597Z</time></trkpt><trkpt lat="45.5602826" lon="10.314183"><ele>311.0</ele><time>2026-03-28T07:46:57.603Z</time></trkpt><trkpt lat="45.5602498" lon="10.3140682"><ele>310.0</ele><time>2026-03-28T07:46:58.602Z</time></trkpt><trkpt lat="45.5602273" lon="10.3139675"><ele>309.0</ele><time>2026-03-28T07:46:59.592Z</time></trkpt><trkpt lat="45.5602058" lon="10.3138671"><ele>308.0</ele><time>2026-03-28T07:47:00.586Z</time></trkpt><trkpt lat="45.5601875" lon="10.3137157"><ele>307.0</ele><time>2026-03-28T07:47:02.591Z</time></trkpt><trkpt lat="45.5601009" lon="10.3136105"><ele>307.0</ele><time>2026-03-28T07:47:04.6Z</time></trkpt><trkpt lat="45.560025" lon="10.3135756"><ele>307.0</ele><time>2026-03-28T07:47:05.597Z</time></trkpt><trkpt lat="45.5599448" lon="10.3135844"><ele>307.0</ele><time>2026-03-28T07:47:06.609Z</time></trkpt><trkpt lat="45.5598718" lon="10.3136014"><ele>307.0</ele><time>2026-03-28T07:47:07.598Z</time></trkpt><trkpt lat="45.5597452" lon="10.3135985"><ele>307.0</ele><time>2026-03-28T07:47:09.597Z</time></trkpt><trkpt lat="45.5596829" lon="10.313572"><ele>307.0</ele><time>2026-03-28T07:47:10.595Z</time></trkpt><trkpt lat="45.5596148" lon="10.3135522"><ele>307.0</ele><time>2026-03-28T07:47:11.586Z</time></trkpt><trkpt lat="45.5595437" lon="10.3135142"><ele>307.0</ele><time>2026-03-28T07:47:12.596Z</time></trkpt><trkpt lat="45.5594744" lon="10.3134561"><ele>307.0</ele><time>2026-03-28T07:47:13.597Z</time></trkpt><trkpt lat="45.5594182" lon="10.3133789"><ele>307.0</ele><time>2026-03-28T07:47:14.599Z</time></trkpt><trkpt lat="45.5593606" lon="10.3133032"><ele>307.0</ele><time>2026-03-28T07:47:15.589Z</time></trkpt><trkpt lat="45.5593209" lon="10.3132128"><ele>307.0</ele><time>2026-03-28T07:47:16.597Z</time></trkpt><trkpt lat="45.5592667" lon="10.313078"><ele>305.8333333333333</ele><time>2026-03-28T07:47:18.604Z</time></trkpt><trkpt lat="45.5592106" lon="10.3129314"><ele>304.66666666666663</ele><time>2026-03-28T07:47:20.607Z</time></trkpt><trkpt lat="45.5591847" lon="10.312849"><ele>303.5</ele><time>2026-03-28T07:47:21.596Z</time></trkpt><trkpt lat="45.5591664" lon="10.3127621"><ele>302.3333333333333</ele><time>2026-03-28T07:47:22.594Z</time></trkpt><trkpt lat="45.5591507" lon="10.3126708"><ele>301.1666666666667</ele><time>2026-03-28T07:47:23.597Z</time></trkpt><trkpt lat="45.5591323" lon="10.3125773"><ele>300.0</ele><time>2026-03-28T07:47:24.599Z</time></trkpt><trkpt lat="45.5591138" lon="10.3123903"><ele>300.0</ele><time>2026-03-28T07:47:26.601Z</time></trkpt><trkpt lat="45.5590953" lon="10.3121973"><ele>300.0</ele><time>2026-03-28T07:47:28.586Z</time></trkpt><trkpt lat="45.5590459" lon="10.3120684"><ele>300.0</ele><time>2026-03-28T07:47:30.599Z</time></trkpt><trkpt lat="45.5589632" lon="10.3120529"><ele>300.0</ele><time>2026-03-28T07:47:32.604Z</time></trkpt><trkpt lat="45.5588697" lon="10.3121493"><ele>300.0</ele><time>2026-03-28T07:47:34.602Z</time></trkpt><trkpt lat="45.5587614" lon="10.3122559"><ele>300.1666666666667</ele><time>2026-03-28T07:47:36.608Z</time></trkpt><trkpt lat="45.5586487" lon="10.3123007"><ele>300.3333333333333</ele><time>2026-03-28T07:47:38.611Z</time></trkpt><trkpt lat="45.5585694" lon="10.3123186"><ele>300.5</ele><time>2026-03-28T07:47:39.597Z</time></trkpt><trkpt lat="45.5584954" lon="10.3123266"><ele>300.66666666666663</ele><time>2026-03-28T07:47:40.593Z</time></trkpt><trkpt lat="45.5584235" lon="10.312321"><ele>300.8333333333333</ele><time>2026-03-28T07:47:41.679Z</time></trkpt><trkpt lat="45.5583446" lon="10.3122854"><ele>301.0</ele><time>2026-03-28T07:47:42.611Z</time></trkpt><trkpt lat="45.5582695" lon="10.3122357"><ele>301.0</ele><time>2026-03-28T07:47:43.604Z</time></trkpt><trkpt lat="45.5581969" lon="10.3121656"><ele>301.0</ele><time>2026-03-28T07:47:44.606Z</time></trkpt><trkpt lat="45.5581084" lon="10.3121143"><ele>301.0</ele><time>2026-03-28T07:47:45.603Z</time></trkpt><trkpt lat="45.5580231" lon="10.3120772"><ele>301.0</ele><time>2026-03-28T07:47:46.609Z</time></trkpt><trkpt lat="45.5579522" lon="10.3120296"><ele>301.0</ele><time>2026-03-28T07:47:47.603Z</time></trkpt><trkpt lat="45.557881" lon="10.3120017"><ele>301.0</ele><time>2026-03-28T07:47:48.609Z</time></trkpt><trkpt lat="45.557802" lon="10.3119803"><ele>301.40000000000003</ele><time>2026-03-28T07:47:49.609Z</time></trkpt><trkpt lat="45.5577117" lon="10.311984"><ele>301.8</ele><time>2026-03-28T07:47:50.608Z</time></trkpt><trkpt lat="45.5576126" lon="10.3120106"><ele>302.20000000000005</ele><time>2026-03-28T07:47:51.604Z</time></trkpt><trkpt lat="45.5575211" lon="10.3120428"><ele>302.6</ele><time>2026-03-28T07:47:52.609Z</time></trkpt><trkpt lat="45.5574221" lon="10.3120829"><ele>303.0</ele><time>2026-03-28T07:47:53.612Z</time></trkpt><trkpt lat="45.5573289" lon="10.3121116"><ele>303.0</ele><time>2026-03-28T07:47:54.61Z</time></trkpt><trkpt lat="45.5572308" lon="10.3121416"><ele>303.0</ele><time>2026-03-28T07:47:55.611Z</time></trkpt><trkpt lat="45.5571402" lon="10.3121645"><ele>303.0</ele><time>2026-03-28T07:47:56.616Z</time></trkpt><trkpt lat="45.5570503" lon="10.3121715"><ele>303.0</ele><time>2026-03-28T07:47:57.605Z</time></trkpt><trkpt lat="45.5569596" lon="10.3121656"><ele>303.0</ele><time>2026-03-28T07:47:58.612Z</time></trkpt><trkpt lat="45.5568829" lon="10.3121458"><ele>302.5</ele><time>2026-03-28T07:47:59.609Z</time></trkpt><trkpt lat="45.5568193" lon="10.3121354"><ele>302.0</ele><time>2026-03-28T07:48:00.607Z</time></trkpt><trkpt lat="45.5567015" lon="10.3121238"><ele>301.5</ele><time>2026-03-28T07:48:16.625Z</time></trkpt><trkpt lat="45.5566081" lon="10.3121168"><ele>301.0</ele><time>2026-03-28T07:48:18.625Z</time></trkpt><trkpt lat="45.5565206" lon="10.312123"><ele>300.5</ele><time>2026-03-28T07:48:20.612Z</time></trkpt><trkpt lat="45.556437" lon="10.3121114"><ele>300.0</ele><time>2026-03-28T07:48:22.612Z</time></trkpt><trkpt lat="45.5563394" lon="10.312102"><ele>300.0</ele><time>2026-03-28T07:48:24.611Z</time></trkpt><trkpt lat="45.5562427" lon="10.3120726"><ele>300.0</ele><time>2026-03-28T07:48:26.611Z</time></trkpt><trkpt lat="45.5561389" lon="10.3120134"><ele>300.0</ele><time>2026-03-28T07:48:28.612Z</time></trkpt><trkpt lat="45.5560533" lon="10.3119343"><ele>300.0</ele><time>2026-03-28T07:48:30.599Z</time></trkpt><trkpt lat="45.5559831" lon="10.3118236"><ele>300.0</ele><time>2026-03-28T07:48:32.603Z</time></trkpt><trkpt lat="45.5559281" lon="10.3117031"><ele>298.8</ele><time>2026-03-28T07:48:34.598Z</time></trkpt><trkpt lat="45.5559145" lon="10.3115891"><ele>297.6</ele><time>2026-03-28T07:48:36.61Z</time></trkpt><trkpt lat="45.5559317" lon="10.3114475"><ele>296.4</ele><time>2026-03-28T07:48:38.595Z</time></trkpt><trkpt lat="45.5559309" lon="10.3113241"><ele>295.2</ele><time>2026-03-28T07:48:40.603Z</time></trkpt><trkpt lat="45.5558623" lon="10.311223"><ele>294.0</ele><time>2026-03-28T07:48:42.599Z</time></trkpt><trkpt lat="45.5557362" lon="10.3111665"><ele>296.5</ele><time>2026-03-28T07:48:44.599Z</time></trkpt><trkpt lat="45.5556601" lon="10.3111465"><ele>299.0</ele><time>2026-03-28T07:48:45.602Z</time></trkpt><trkpt lat="45.5555855" lon="10.311115"><ele>301.5</ele><time>2026-03-28T07:48:46.593Z</time></trkpt><trkpt lat="45.5555109" lon="10.3110878"><ele>304.0</ele><time>2026-03-28T07:48:47.602Z</time></trkpt><trkpt lat="45.555447" lon="10.3110653"><ele>306.5</ele><time>2026-03-28T07:48:48.6Z</time></trkpt><trkpt lat="45.5553394" lon="10.3110387"><ele>309.0</ele><time>2026-03-28T07:48:50.603Z</time></trkpt><trkpt lat="45.5552552" lon="10.3110925"><ele>308.1666666666667</ele><time>2026-03-28T07:48:52.602Z</time></trkpt><trkpt lat="45.555181" lon="10.3112397"><ele>307.3333333333333</ele><time>2026-03-28T07:48:54.601Z</time></trkpt><trkpt lat="45.555141" lon="10.3113272"><ele>306.5</ele><time>2026-03-28T07:48:55.603Z</time></trkpt><trkpt lat="45.5551017" lon="10.3114191"><ele>305.66666666666663</ele><time>2026-03-28T07:48:56.6Z</time></trkpt><trkpt lat="45.555058" lon="10.3115005"><ele>304.8333333333333</ele><time>2026-03-28T07:48:57.605Z</time></trkpt><trkpt lat="45.5550072" lon="10.3115811"><ele>304.0</ele><time>2026-03-28T07:48:58.598Z</time></trkpt><trkpt lat="45.5549583" lon="10.3116706"><ele>304.0</ele><time>2026-03-28T07:48:59.601Z</time></trkpt><trkpt lat="45.5549074" lon="10.3117583"><ele>304.0</ele><time>2026-03-28T07:49:00.604Z</time></trkpt><trkpt lat="45.5548693" lon="10.3118555"><ele>304.0</ele><time>2026-03-28T07:49:01.596Z</time></trkpt><trkpt lat="45.5548346" lon="10.3119597"><ele>304.0</ele><time>2026-03-28T07:49:02.595Z</time></trkpt><trkpt lat="45.5547966" lon="10.312064"><ele>304.0</ele><time>2026-03-28T07:49:03.597Z</time></trkpt><trkpt lat="45.554761" lon="10.3121704"><ele>304.0</ele><time>2026-03-28T07:49:04.593Z</time></trkpt><trkpt lat="45.5547195" lon="10.3122681"><ele>303.8</ele><time>2026-03-28T07:49:05.6Z</time></trkpt><trkpt lat="45.5546338" lon="10.3123951"><ele>303.59999999999997</ele><time>2026-03-28T07:49:07.596Z</time></trkpt><trkpt lat="45.5545285" lon="10.3125095"><ele>303.4</ele><time>2026-03-28T07:49:09.593Z</time></trkpt><trkpt lat="45.5544691" lon="10.3125813"><ele>303.2</ele><time>2026-03-28T07:49:10.593Z</time></trkpt><trkpt lat="45.5544003" lon="10.3126596"><ele>303.0</ele><time>2026-03-28T07:49:11.592Z</time></trkpt><trkpt lat="45.5543302" lon="10.3127414"><ele>303.0</ele><time>2026-03-28T07:49:12.589Z</time></trkpt><trkpt lat="45.5542612" lon="10.3128141"><ele>303.0</ele><time>2026-03-28T07:49:13.59Z</time></trkpt><trkpt lat="45.5541892" lon="10.3128867"><ele>303.0</ele><time>2026-03-28T07:49:14.589Z</time></trkpt><trkpt lat="45.5541209" lon="10.3129496"><ele>303.0</ele><time>2026-03-28T07:49:15.588Z</time></trkpt><trkpt lat="45.5540486" lon="10.3129956"><ele>303.0</ele><time>2026-03-28T07:49:16.591Z</time></trkpt><trkpt lat="45.5539711" lon="10.313025"><ele>303.0</ele><time>2026-03-28T07:49:17.595Z</time></trkpt><trkpt lat="45.553898" lon="10.3130353"><ele>303.0</ele><time>2026-03-28T07:49:18.59Z</time></trkpt><trkpt lat="45.5538203" lon="10.3130253"><ele>303.0</ele><time>2026-03-28T07:49:19.595Z</time></trkpt><trkpt lat="45.5537333" lon="10.3130082"><ele>303.0</ele><time>2026-03-28T07:49:20.598Z</time></trkpt><trkpt lat="45.5536438" lon="10.3129803"><ele>303.0</ele><time>2026-03-28T07:49:21.593Z</time></trkpt><trkpt lat="45.5535601" lon="10.3129484"><ele>303.0</ele><time>2026-03-28T07:49:22.596Z</time></trkpt><trkpt lat="45.5534858" lon="10.3129118"><ele>303.0</ele><time>2026-03-28T07:49:23.597Z</time></trkpt><trkpt lat="45.5534158" lon="10.3128518"><ele>301.0</ele><time>2026-03-28T07:49:24.599Z</time></trkpt><trkpt lat="45.5533585" lon="10.3127877"><ele>299.0</ele><time>2026-03-28T07:49:25.595Z</time></trkpt><trkpt lat="45.553295" lon="10.3127231"><ele>297.0</ele><time>2026-03-28T07:49:26.601Z</time></trkpt><trkpt lat="45.5532238" lon="10.3126699"><ele>295.0</ele><time>2026-03-28T07:49:27.6Z</time></trkpt><trkpt lat="45.5531357" lon="10.3126144"><ele>293.0</ele><time>2026-03-28T07:49:28.6Z</time></trkpt><trkpt lat="45.5530561" lon="10.3125572"><ele>291.0</ele><time>2026-03-28T07:49:29.674Z</time></trkpt><trkpt lat="45.5529765" lon="10.3125021"><ele>291.0</ele><time>2026-03-28T07:49:30.595Z</time></trkpt><trkpt lat="45.5528991" lon="10.3124443"><ele>291.0</ele><time>2026-03-28T07:49:31.594Z</time></trkpt><trkpt lat="45.5528175" lon="10.3123927"><ele>291.0</ele><time>2026-03-28T07:49:32.597Z</time></trkpt><trkpt lat="45.5527453" lon="10.3123344"><ele>291.0</ele><time>2026-03-28T07:49:33.593Z</time></trkpt><trkpt lat="45.5526683" lon="10.3122815"><ele>291.0</ele><time>2026-03-28T07:49:34.592Z</time></trkpt><trkpt lat="45.5525829" lon="10.3122441"><ele>291.0</ele><time>2026-03-28T07:49:35.594Z</time></trkpt><trkpt lat="45.5524847" lon="10.3122195"><ele>288.2</ele><time>2026-03-28T07:49:36.598Z</time></trkpt><trkpt lat="45.552388" lon="10.312206"><ele>285.40000000000003</ele><time>2026-03-28T07:49:37.586Z</time></trkpt><trkpt lat="45.5522918" lon="10.3121934"><ele>282.6</ele><time>2026-03-28T07:49:38.595Z</time></trkpt><trkpt lat="45.5521998" lon="10.3121796"><ele>279.8</ele><time>2026-03-28T07:49:39.594Z</time></trkpt><trkpt lat="45.5521256" lon="10.312164"><ele>277.0</ele><time>2026-03-28T07:49:40.594Z</time></trkpt><trkpt lat="45.5520054" lon="10.3121551"><ele>277.0</ele><time>2026-03-28T07:49:42.579Z</time></trkpt><trkpt lat="45.5519244" lon="10.3121481"><ele>277.0</ele><time>2026-03-28T07:49:43.588Z</time></trkpt><trkpt lat="45.5518428" lon="10.3121378"><ele>277.0</ele><time>2026-03-28T07:49:44.573Z</time></trkpt><trkpt lat="45.5517665" lon="10.3121153"><ele>277.0</ele><time>2026-03-28T07:49:45.577Z</time></trkpt><trkpt lat="45.5516971" lon="10.3120904"><ele>277.0</ele><time>2026-03-28T07:49:46.588Z</time></trkpt><trkpt lat="45.5516196" lon="10.3120538"><ele>277.0</ele><time>2026-03-28T07:49:47.607Z</time></trkpt><trkpt lat="45.5515277" lon="10.3120074"><ele>277.0</ele><time>2026-03-28T07:49:48.603Z</time></trkpt><trkpt lat="45.5514332" lon="10.3119452"><ele>277.0</ele><time>2026-03-28T07:49:49.604Z</time></trkpt><trkpt lat="45.5513399" lon="10.3118601"><ele>277.0</ele><time>2026-03-28T07:49:50.601Z</time></trkpt><trkpt lat="45.5512491" lon="10.3117656"><ele>277.0</ele><time>2026-03-28T07:49:51.605Z</time></trkpt><trkpt lat="45.5511565" lon="10.3116715"><ele>277.0</ele><time>2026-03-28T07:49:52.598Z</time></trkpt><trkpt lat="45.551064" lon="10.3115907"><ele>275.8</ele><time>2026-03-28T07:49:53.601Z</time></trkpt><trkpt lat="45.5509792" lon="10.3115159"><ele>274.6</ele><time>2026-03-28T07:49:54.6Z</time></trkpt><trkpt lat="45.5509017" lon="10.3114578"><ele>273.40000000000003</ele><time>2026-03-28T07:49:55.594Z</time></trkpt><trkpt lat="45.5508266" lon="10.3113854"><ele>272.2</ele><time>2026-03-28T07:49:56.601Z</time></trkpt><trkpt lat="45.5507614" lon="10.3112922"><ele>271.0</ele><time>2026-03-28T07:49:57.608Z</time></trkpt><trkpt lat="45.5506863" lon="10.311204"><ele>271.0</ele><time>2026-03-28T07:49:58.596Z</time></trkpt><trkpt lat="45.5506234" lon="10.3111071"><ele>271.0</ele><time>2026-03-28T07:49:59.603Z</time></trkpt><trkpt lat="45.5505646" lon="10.3110083"><ele>271.0</ele><time>2026-03-28T07:50:00.608Z</time></trkpt><trkpt lat="45.5504972" lon="10.3109128"><ele>271.0</ele><time>2026-03-28T07:50:01.594Z</time></trkpt><trkpt lat="45.5504242" lon="10.3108299"><ele>271.0</ele><time>2026-03-28T07:50:02.605Z</time></trkpt><trkpt lat="45.5503552" lon="10.310747"><ele>272.16666666666663</ele><time>2026-03-28T07:50:03.605Z</time></trkpt><trkpt lat="45.5502872" lon="10.3106704"><ele>273.3333333333333</ele><time>2026-03-28T07:50:04.595Z</time></trkpt><trkpt lat="45.5502284" lon="10.3106055"><ele>274.5</ele><time>2026-03-28T07:50:05.589Z</time></trkpt><trkpt lat="45.5501506" lon="10.3105678"><ele>275.6666666666667</ele><time>2026-03-28T07:50:06.59Z</time></trkpt><trkpt lat="45.5500718" lon="10.3105437"><ele>276.83333333333337</ele><time>2026-03-28T07:50:07.585Z</time></trkpt><trkpt lat="45.5499854" lon="10.3105172"><ele>278.0</ele><time>2026-03-28T07:50:08.591Z</time></trkpt><trkpt lat="45.5498923" lon="10.3104963"><ele>278.0</ele><time>2026-03-28T07:50:09.597Z</time></trkpt><trkpt lat="45.5498087" lon="10.3104557"><ele>278.0</ele><time>2026-03-28T07:50:10.584Z</time></trkpt><trkpt lat="45.5497372" lon="10.3103939"><ele>278.0</ele><time>2026-03-28T07:50:11.592Z</time></trkpt><trkpt lat="45.5496792" lon="10.3103245"><ele>278.0</ele><time>2026-03-28T07:50:12.596Z</time></trkpt><trkpt lat="45.549611" lon="10.310256"><ele>278.0</ele><time>2026-03-28T07:50:13.591Z</time></trkpt><trkpt lat="45.5495606" lon="10.3101851"><ele>278.0</ele><time>2026-03-28T07:50:14.592Z</time></trkpt><trkpt lat="45.5494639" lon="10.3100758"><ele>274.5</ele><time>2026-03-28T07:50:16.588Z</time></trkpt><trkpt lat="45.5493961" lon="10.3100162"><ele>271.0</ele><time>2026-03-28T07:50:17.594Z</time></trkpt><trkpt lat="45.5493381" lon="10.309954"><ele>267.5</ele><time>2026-03-28T07:50:18.591Z</time></trkpt><trkpt lat="45.5492714" lon="10.3099019"><ele>264.0</ele><time>2026-03-28T07:50:19.603Z</time></trkpt><trkpt lat="45.5491986" lon="10.3098565"><ele>260.5</ele><time>2026-03-28T07:50:20.607Z</time></trkpt><trkpt lat="45.5491255" lon="10.3098137"><ele>257.0</ele><time>2026-03-28T07:50:21.606Z</time></trkpt><trkpt lat="45.5490533" lon="10.3097664"><ele>256.0</ele><time>2026-03-28T07:50:22.601Z</time></trkpt><trkpt lat="45.5489788" lon="10.30971"><ele>255.0</ele><time>2026-03-28T07:50:23.605Z</time></trkpt><trkpt lat="45.5489047" lon="10.3096414"><ele>254.0</ele><time>2026-03-28T07:50:24.596Z</time></trkpt><trkpt lat="45.5488333" lon="10.309573"><ele>253.0</ele><time>2026-03-28T07:50:25.602Z</time></trkpt><trkpt lat="45.5487612" lon="10.3095039"><ele>252.00000000000003</ele><time>2026-03-28T07:50:26.604Z</time></trkpt><trkpt lat="45.5486903" lon="10.3094288"><ele>251.0</ele><time>2026-03-28T07:50:27.606Z</time></trkpt><trkpt lat="45.548619" lon="10.3093571"><ele>251.00000000000003</ele><time>2026-03-28T07:50:28.609Z</time></trkpt><trkpt lat="45.5485535" lon="10.3092814"><ele>251.0</ele><time>2026-03-28T07:50:29.608Z</time></trkpt><trkpt lat="45.5484944" lon="10.3092092"><ele>251.0</ele><time>2026-03-28T07:50:30.607Z</time></trkpt><trkpt lat="45.5484443" lon="10.309139"><ele>251.0</ele><time>2026-03-28T07:50:31.605Z</time></trkpt><trkpt lat="45.5483768" lon="10.309023"><ele>251.00000000000003</ele><time>2026-03-28T07:50:33.599Z</time></trkpt><trkpt lat="45.5483682" lon="10.3089099"><ele>251.0</ele><time>2026-03-28T07:50:35.599Z</time></trkpt><trkpt lat="45.5483656" lon="10.3088094"><ele>249.8</ele><time>2026-03-28T07:50:37.602Z</time></trkpt><trkpt lat="45.5483694" lon="10.3086881"><ele>248.60000000000002</ele><time>2026-03-28T07:50:39.601Z</time></trkpt><trkpt lat="45.5483754" lon="10.3085587"><ele>247.4</ele><time>2026-03-28T07:50:41.606Z</time></trkpt><trkpt lat="45.5483973" lon="10.3084139"><ele>246.2</ele><time>2026-03-28T07:50:58.608Z</time></trkpt><trkpt lat="45.5484246" lon="10.3083175"><ele>245.0</ele><time>2026-03-28T07:50:59.616Z</time></trkpt><trkpt lat="45.5484661" lon="10.3081839"><ele>243.6</ele><time>2026-03-28T07:51:00.611Z</time></trkpt><trkpt lat="45.5485107" lon="10.3080613"><ele>242.2</ele><time>2026-03-28T07:51:01.607Z</time></trkpt><trkpt lat="45.5485487" lon="10.3079466"><ele>240.8</ele><time>2026-03-28T07:51:02.61Z</time></trkpt><trkpt lat="45.5485887" lon="10.3078411"><ele>239.4</ele><time>2026-03-28T07:51:03.599Z</time></trkpt><trkpt lat="45.5486159" lon="10.3077533"><ele>238.0</ele><time>2026-03-28T07:51:04.609Z</time></trkpt><trkpt lat="45.5486572" lon="10.3075987"><ele>238.0</ele><time>2026-03-28T07:51:06.602Z</time></trkpt><trkpt lat="45.5486977" lon="10.3074607"><ele>238.0</ele><time>2026-03-28T07:51:08.609Z</time></trkpt><trkpt lat="45.5486452" lon="10.3075854"><ele>238.0</ele><time>2026-03-28T07:51:38.604Z</time></trkpt><trkpt lat="45.5486218" lon="10.3076842"><ele>238.0</ele><time>2026-03-28T07:51:39.602Z</time></trkpt><trkpt lat="45.5485845" lon="10.3078"><ele>238.0</ele><time>2026-03-28T07:51:40.604Z</time></trkpt><trkpt lat="45.5485451" lon="10.3079246"><ele>238.0</ele><time>2026-03-28T07:51:41.603Z</time></trkpt><trkpt lat="45.5485052" lon="10.3080542"><ele>238.0</ele><time>2026-03-28T07:51:42.611Z</time></trkpt><trkpt lat="45.5484671" lon="10.3081867"><ele>238.0</ele><time>2026-03-28T07:51:43.597Z</time></trkpt><trkpt lat="45.5484258" lon="10.3083147"><ele>238.0</ele><time>2026-03-28T07:51:44.609Z</time></trkpt><trkpt lat="45.5483905" lon="10.3084523"><ele>238.0</ele><time>2026-03-28T07:51:45.605Z</time></trkpt><trkpt lat="45.5483652" lon="10.3085766"><ele>239.16666666666666</ele><time>2026-03-28T07:51:46.604Z</time></trkpt><trkpt lat="45.5483431" lon="10.3086937"><ele>240.33333333333331</ele><time>2026-03-28T07:51:47.602Z</time></trkpt><trkpt lat="45.5483298" lon="10.3087866"><ele>241.5</ele><time>2026-03-28T07:51:48.604Z</time></trkpt><trkpt lat="45.5483133" lon="10.3089422"><ele>242.66666666666669</ele><time>2026-03-28T07:51:50.606Z</time></trkpt><trkpt lat="45.5483073" lon="10.3090456"><ele>243.83333333333334</ele><time>2026-03-28T07:52:03.608Z</time></trkpt><trkpt lat="45.5483007" lon="10.3091579"><ele>245.0</ele><time>2026-03-28T07:52:30.611Z</time></trkpt><trkpt lat="45.5482962" lon="10.309271"><ele>245.50000000000003</ele><time>2026-03-28T07:52:33.606Z</time></trkpt><trkpt lat="45.5483466" lon="10.3094038"><ele>246.0</ele><time>2026-03-28T07:52:35.604Z</time></trkpt><trkpt lat="45.5483998" lon="10.3094874"><ele>246.5</ele><time>2026-03-28T07:52:36.603Z</time></trkpt><trkpt lat="45.54846" lon="10.3095725"><ele>247.0</ele><time>2026-03-28T07:52:37.603Z</time></trkpt><trkpt lat="45.5485191" lon="10.3096511"><ele>247.50000000000003</ele><time>2026-03-28T07:52:38.605Z</time></trkpt><trkpt lat="45.5485879" lon="10.3097196"><ele>248.0</ele><time>2026-03-28T07:52:39.608Z</time></trkpt><trkpt lat="45.5486568" lon="10.3097895"><ele>249.8</ele><time>2026-03-28T07:52:40.604Z</time></trkpt><trkpt lat="45.5487359" lon="10.3098665"><ele>251.60000000000002</ele><time>2026-03-28T07:52:41.609Z</time></trkpt><trkpt lat="45.5488367" lon="10.3099317"><ele>253.39999999999998</ele><time>2026-03-28T07:52:42.607Z</time></trkpt><trkpt lat="45.5489314" lon="10.309986"><ele>255.2</ele><time>2026-03-28T07:52:43.603Z</time></trkpt><trkpt lat="45.5490191" lon="10.3100422"><ele>257.0</ele><time>2026-03-28T07:52:44.602Z</time></trkpt><trkpt lat="45.5491102" lon="10.3101023"><ele>257.0</ele><time>2026-03-28T07:52:45.601Z</time></trkpt><trkpt lat="45.5491989" lon="10.3101679"><ele>257.0</ele><time>2026-03-28T07:52:46.605Z</time></trkpt><trkpt lat="45.5492863" lon="10.3102266"><ele>257.0</ele><time>2026-03-28T07:52:47.602Z</time></trkpt><trkpt lat="45.5493792" lon="10.3102831"><ele>257.0</ele><time>2026-03-28T07:52:48.595Z</time></trkpt><trkpt lat="45.5494683" lon="10.3103401"><ele>257.0</ele><time>2026-03-28T07:52:49.601Z</time></trkpt><trkpt lat="45.5495524" lon="10.3104093"><ele>254.2</ele><time>2026-03-28T07:52:50.599Z</time></trkpt><trkpt lat="45.5496328" lon="10.3104781"><ele>251.39999999999998</ele><time>2026-03-28T07:52:51.597Z</time></trkpt><trkpt lat="45.5497206" lon="10.3105408"><ele>248.60000000000002</ele><time>2026-03-28T07:52:52.596Z</time></trkpt><trkpt lat="45.5498089" lon="10.3105876"><ele>245.8</ele><time>2026-03-28T07:52:53.602Z</time></trkpt><trkpt lat="45.5499084" lon="10.3106248"><ele>243.0</ele><time>2026-03-28T07:52:54.599Z</time></trkpt><trkpt lat="45.550006" lon="10.3106615"><ele>243.0</ele><time>2026-03-28T07:52:55.595Z</time></trkpt><trkpt lat="45.5500988" lon="10.3107071"><ele>243.0</ele><time>2026-03-28T07:52:56.593Z</time></trkpt><trkpt lat="45.5501969" lon="10.3107662"><ele>243.0</ele><time>2026-03-28T07:52:57.598Z</time></trkpt><trkpt lat="45.5502908" lon="10.3108334"><ele>243.0</ele><time>2026-03-28T07:52:58.599Z</time></trkpt><trkpt lat="45.5503808" lon="10.3109178"><ele>243.0</ele><time>2026-03-28T07:52:59.599Z</time></trkpt><trkpt lat="45.5504708" lon="10.3110115"><ele>242.4</ele><time>2026-03-28T07:53:00.599Z</time></trkpt><trkpt lat="45.5505595" lon="10.3111108"><ele>241.8</ele><time>2026-03-28T07:53:01.594Z</time></trkpt><trkpt lat="45.5506516" lon="10.3112073"><ele>241.2</ele><time>2026-03-28T07:53:02.603Z</time></trkpt><trkpt lat="45.5507376" lon="10.3112918"><ele>240.6</ele><time>2026-03-28T07:53:03.598Z</time></trkpt><trkpt lat="45.550826" lon="10.311375"><ele>240.0</ele><time>2026-03-28T07:53:04.6Z</time></trkpt><trkpt lat="45.5509112" lon="10.3114584"><ele>240.0</ele><time>2026-03-28T07:53:05.61Z</time></trkpt><trkpt lat="45.550995" lon="10.3115368"><ele>240.0</ele><time>2026-03-28T07:53:06.603Z</time></trkpt><trkpt lat="45.5510716" lon="10.3116128"><ele>240.0</ele><time>2026-03-28T07:53:07.604Z</time></trkpt><trkpt lat="45.5511452" lon="10.3116704"><ele>240.0</ele><time>2026-03-28T07:53:08.606Z</time></trkpt><trkpt lat="45.551218" lon="10.3117234"><ele>240.0</ele><time>2026-03-28T07:53:09.605Z</time></trkpt><trkpt lat="45.5512922" lon="10.3117799"><ele>240.0</ele><time>2026-03-28T07:53:10.606Z</time></trkpt><trkpt lat="45.5513676" lon="10.311847"><ele>247.4</ele><time>2026-03-28T07:53:11.606Z</time></trkpt><trkpt lat="45.5514367" lon="10.3119196"><ele>254.8</ele><time>2026-03-28T07:53:12.604Z</time></trkpt><trkpt lat="45.5515148" lon="10.3119851"><ele>262.2</ele><time>2026-03-28T07:53:13.603Z</time></trkpt><trkpt lat="45.5515925" lon="10.3120451"><ele>269.6</ele><time>2026-03-28T07:53:14.605Z</time></trkpt><trkpt lat="45.5516861" lon="10.3120917"><ele>277.0</ele><time>2026-03-28T07:53:15.606Z</time></trkpt><trkpt lat="45.5517793" lon="10.3121295"><ele>277.0</ele><time>2026-03-28T07:53:16.593Z</time></trkpt><trkpt lat="45.5518789" lon="10.3121543"><ele>277.0</ele><time>2026-03-28T07:53:17.606Z</time></trkpt><trkpt lat="45.5519785" lon="10.3121755"><ele>277.0</ele><time>2026-03-28T07:53:18.602Z</time></trkpt><trkpt lat="45.552078" lon="10.3121815"><ele>277.0</ele><time>2026-03-28T07:53:19.6Z</time></trkpt><trkpt lat="45.5521722" lon="10.312196"><ele>277.0</ele><time>2026-03-28T07:53:20.599Z</time></trkpt><trkpt lat="45.5522719" lon="10.3122093"><ele>275.4</ele><time>2026-03-28T07:53:21.598Z</time></trkpt><trkpt lat="45.5523751" lon="10.3122246"><ele>273.79999999999995</ele><time>2026-03-28T07:53:22.597Z</time></trkpt><trkpt lat="45.5524713" lon="10.3122316"><ele>272.2</ele><time>2026-03-28T07:53:23.603Z</time></trkpt><trkpt lat="45.5525755" lon="10.3122452"><ele>270.59999999999997</ele><time>2026-03-28T07:53:24.597Z</time></trkpt><trkpt lat="45.5526778" lon="10.3122809"><ele>269.0</ele><time>2026-03-28T07:53:25.601Z</time></trkpt><trkpt lat="45.5527887" lon="10.3123188"><ele>273.4</ele><time>2026-03-28T07:53:26.599Z</time></trkpt><trkpt lat="45.5528945" lon="10.3123782"><ele>277.79999999999995</ele><time>2026-03-28T07:53:27.595Z</time></trkpt><trkpt lat="45.5529958" lon="10.3124376"><ele>282.20000000000005</ele><time>2026-03-28T07:53:28.602Z</time></trkpt><trkpt lat="45.5530878" lon="10.3125064"><ele>286.6</ele><time>2026-03-28T07:53:29.595Z</time></trkpt><trkpt lat="45.5531818" lon="10.3125523"><ele>291.0</ele><time>2026-03-28T07:53:30.594Z</time></trkpt><trkpt lat="45.5532809" lon="10.3126034"><ele>291.0</ele><time>2026-03-28T07:53:31.602Z</time></trkpt><trkpt lat="45.5533778" lon="10.3126487"><ele>291.0</ele><time>2026-03-28T07:53:32.595Z</time></trkpt><trkpt lat="45.5534611" lon="10.3126922"><ele>291.0</ele><time>2026-03-28T07:53:33.594Z</time></trkpt><trkpt lat="45.5535278" lon="10.3127374"><ele>291.0</ele><time>2026-03-28T07:53:34.605Z</time></trkpt><trkpt lat="45.553592" lon="10.3128037"><ele>291.0</ele><time>2026-03-28T07:53:35.597Z</time></trkpt><trkpt lat="45.5536629" lon="10.3128761"><ele>291.0</ele><time>2026-03-28T07:53:36.597Z</time></trkpt><trkpt lat="45.5537459" lon="10.3129348"><ele>293.0</ele><time>2026-03-28T07:53:37.6Z</time></trkpt><trkpt lat="45.5538352" lon="10.3129668"><ele>295.0</ele><time>2026-03-28T07:53:38.603Z</time></trkpt><trkpt lat="45.5539259" lon="10.312981"><ele>297.0</ele><time>2026-03-28T07:53:39.594Z</time></trkpt><trkpt lat="45.5540124" lon="10.3129905"><ele>299.0</ele><time>2026-03-28T07:53:40.601Z</time></trkpt><trkpt lat="45.5541008" lon="10.3129903"><ele>301.0</ele><time>2026-03-28T07:53:41.602Z</time></trkpt><trkpt lat="45.5541819" lon="10.3129638"><ele>303.0</ele><time>2026-03-28T07:53:42.598Z</time></trkpt><trkpt lat="45.5542631" lon="10.3129035"><ele>303.0</ele><time>2026-03-28T07:53:43.597Z</time></trkpt><trkpt lat="45.5543417" lon="10.3128202"><ele>303.0</ele><time>2026-03-28T07:53:44.6Z</time></trkpt><trkpt lat="45.5544163" lon="10.3127252"><ele>303.0</ele><time>2026-03-28T07:53:45.591Z</time></trkpt><trkpt lat="45.5544916" lon="10.3126231"><ele>303.0</ele><time>2026-03-28T07:53:46.602Z</time></trkpt><trkpt lat="45.5545758" lon="10.3125167"><ele>303.0</ele><time>2026-03-28T07:53:47.599Z</time></trkpt><trkpt lat="45.554649" lon="10.3124311"><ele>303.1666666666667</ele><time>2026-03-28T07:53:48.589Z</time></trkpt><trkpt lat="45.5547202" lon="10.3123483"><ele>303.3333333333333</ele><time>2026-03-28T07:53:49.594Z</time></trkpt><trkpt lat="45.5547799" lon="10.3122591"><ele>303.5</ele><time>2026-03-28T07:53:50.593Z</time></trkpt><trkpt lat="45.5548291" lon="10.3121616"><ele>303.66666666666663</ele><time>2026-03-28T07:53:51.592Z</time></trkpt><trkpt lat="45.5548859" lon="10.3120661"><ele>303.8333333333333</ele><time>2026-03-28T07:53:52.597Z</time></trkpt><trkpt lat="45.5549303" lon="10.3119619"><ele>304.0</ele><time>2026-03-28T07:53:53.602Z</time></trkpt><trkpt lat="45.5549548" lon="10.3118568"><ele>304.0</ele><time>2026-03-28T07:53:54.589Z</time></trkpt><trkpt lat="45.5549869" lon="10.3117457"><ele>304.0</ele><time>2026-03-28T07:53:55.594Z</time></trkpt><trkpt lat="45.5550209" lon="10.311641"><ele>304.0</ele><time>2026-03-28T07:53:56.595Z</time></trkpt><trkpt lat="45.5550747" lon="10.3115405"><ele>304.0</ele><time>2026-03-28T07:53:57.594Z</time></trkpt><trkpt lat="45.555137" lon="10.3114481"><ele>304.0</ele><time>2026-03-28T07:53:58.594Z</time></trkpt><trkpt lat="45.5551847" lon="10.311362"><ele>304.0</ele><time>2026-03-28T07:53:59.6Z</time></trkpt><trkpt lat="45.5552341" lon="10.3112756"><ele>304.8333333333333</ele><time>2026-03-28T07:54:00.597Z</time></trkpt><trkpt lat="45.5552785" lon="10.3111964"><ele>305.66666666666663</ele><time>2026-03-28T07:54:01.59Z</time></trkpt><trkpt lat="45.5553638" lon="10.3111303"><ele>306.5</ele><time>2026-03-28T07:54:03.596Z</time></trkpt><trkpt lat="45.5554676" lon="10.3111559"><ele>307.3333333333333</ele><time>2026-03-28T07:54:05.598Z</time></trkpt><trkpt lat="45.5555352" lon="10.3112086"><ele>308.1666666666667</ele><time>2026-03-28T07:54:06.594Z</time></trkpt><trkpt lat="45.555607" lon="10.3112595"><ele>309.0</ele><time>2026-03-28T07:54:07.601Z</time></trkpt><trkpt lat="45.5556777" lon="10.3113071"><ele>309.0</ele><time>2026-03-28T07:54:08.601Z</time></trkpt><trkpt lat="45.555749" lon="10.3113379"><ele>309.0</ele><time>2026-03-28T07:54:09.601Z</time></trkpt><trkpt lat="45.5558203" lon="10.3113517"><ele>309.0</ele><time>2026-03-28T07:54:10.6Z</time></trkpt><trkpt lat="45.5558832" lon="10.3113791"><ele>309.0</ele><time>2026-03-28T07:54:11.601Z</time></trkpt><trkpt lat="45.5559352" lon="10.3114316"><ele>309.0</ele><time>2026-03-28T07:54:12.598Z</time></trkpt><trkpt lat="45.5559796" lon="10.311591"><ele>309.0</ele><time>2026-03-28T07:54:14.594Z</time></trkpt><trkpt lat="45.5559762" lon="10.3117153"><ele>307.5</ele><time>2026-03-28T07:54:16.593Z</time></trkpt><trkpt lat="45.5560232" lon="10.31186"><ele>306.0</ele><time>2026-03-28T07:54:18.597Z</time></trkpt><trkpt lat="45.5561112" lon="10.3119943"><ele>304.5</ele><time>2026-03-28T07:54:20.604Z</time></trkpt><trkpt lat="45.5561727" lon="10.3120448"><ele>303.0</ele><time>2026-03-28T07:54:21.605Z</time></trkpt><trkpt lat="45.5562343" lon="10.3120838"><ele>301.5</ele><time>2026-03-28T07:54:22.601Z</time></trkpt><trkpt lat="45.5562945" lon="10.3121105"><ele>300.0</ele><time>2026-03-28T07:54:23.604Z</time></trkpt><trkpt lat="45.5563809" lon="10.3121254"><ele>300.0</ele><time>2026-03-28T07:54:25.611Z</time></trkpt><trkpt lat="45.5564865" lon="10.3121321"><ele>300.0</ele><time>2026-03-28T07:54:27.604Z</time></trkpt><trkpt lat="45.5565526" lon="10.3121301"><ele>300.0</ele><time>2026-03-28T07:54:28.599Z</time></trkpt><trkpt lat="45.5566234" lon="10.3121293"><ele>300.0</ele><time>2026-03-28T07:54:29.601Z</time></trkpt><trkpt lat="45.5566938" lon="10.3121287"><ele>300.0</ele><time>2026-03-28T07:54:30.596Z</time></trkpt><trkpt lat="45.5567951" lon="10.3121412"><ele>300.0</ele><time>2026-03-28T07:54:32.607Z</time></trkpt><trkpt lat="45.5568445" lon="10.3120045"><ele>300.0</ele><time>2026-03-28T07:54:43.609Z</time></trkpt><trkpt lat="45.5568612" lon="10.311854"><ele>300.0</ele><time>2026-03-28T07:54:45.603Z</time></trkpt><trkpt lat="45.5568012" lon="10.3117077"><ele>300.0</ele><time>2026-03-28T07:54:47.605Z</time></trkpt><trkpt lat="45.5567502" lon="10.311649"><ele>300.0</ele><time>2026-03-28T07:54:48.609Z</time></trkpt><trkpt lat="45.5566822" lon="10.311596"><ele>300.0</ele><time>2026-03-28T07:54:49.605Z</time></trkpt><trkpt lat="45.5566008" lon="10.3115547"><ele>300.0</ele><time>2026-03-28T07:54:50.614Z</time></trkpt><trkpt lat="45.5565261" lon="10.3115213"><ele>300.0</ele><time>2026-03-28T07:54:51.606Z</time></trkpt><trkpt lat="45.5564298" lon="10.3114393"><ele>300.0</ele><time>2026-03-28T07:54:53.685Z</time></trkpt><trkpt lat="45.5563864" lon="10.3113179"><ele>300.0</ele><time>2026-03-28T07:54:55.608Z</time></trkpt><trkpt lat="45.5563913" lon="10.3111353"><ele>300.0</ele><time>2026-03-28T07:54:57.606Z</time></trkpt><trkpt lat="45.5564098" lon="10.3110328"><ele>301.57142857142856</ele><time>2026-03-28T07:54:58.61Z</time></trkpt><trkpt lat="45.5564126" lon="10.3109315"><ele>303.1428571428571</ele><time>2026-03-28T07:54:59.606Z</time></trkpt><trkpt lat="45.5563964" lon="10.3108345"><ele>304.71428571428567</ele><time>2026-03-28T07:55:00.605Z</time></trkpt><trkpt lat="45.556369" lon="10.3107307"><ele>306.2857142857143</ele><time>2026-03-28T07:55:01.612Z</time></trkpt><trkpt lat="45.5563442" lon="10.3106283"><ele>307.8571428571429</ele><time>2026-03-28T07:55:02.604Z</time></trkpt><trkpt lat="45.5563188" lon="10.3105301"><ele>309.4285714285714</ele><time>2026-03-28T07:55:03.607Z</time></trkpt><trkpt lat="45.5562912" lon="10.3104438"><ele>311.0</ele><time>2026-03-28T07:55:04.608Z</time></trkpt><trkpt lat="45.5562667" lon="10.310355"><ele>314.4</ele><time>2026-03-28T07:55:05.597Z</time></trkpt><trkpt lat="45.5562345" lon="10.3101799"><ele>317.8</ele><time>2026-03-28T07:55:07.609Z</time></trkpt><trkpt lat="45.5562247" lon="10.3100816"><ele>321.2</ele><time>2026-03-28T07:55:08.61Z</time></trkpt><trkpt lat="45.5562249" lon="10.3099291"><ele>324.59999999999997</ele><time>2026-03-28T07:55:10.611Z</time></trkpt><trkpt lat="45.5562095" lon="10.3098003"><ele>328.0</ele><time>2026-03-28T07:55:12.618Z</time></trkpt><trkpt lat="45.5561943" lon="10.309649"><ele>330.3333333333333</ele><time>2026-03-28T07:55:14.612Z</time></trkpt><trkpt lat="45.5561772" lon="10.3095409"><ele>332.66666666666663</ele><time>2026-03-28T07:55:16.612Z</time></trkpt><trkpt lat="45.556229" lon="10.3094219"><ele>335.0</ele><time>2026-03-28T07:55:18.617Z</time></trkpt><trkpt lat="45.5562959" lon="10.3093386"><ele>337.3333333333333</ele><time>2026-03-28T07:55:20.613Z</time></trkpt><trkpt lat="45.5563228" lon="10.3092446"><ele>339.6666666666667</ele><time>2026-03-28T07:55:22.623Z</time></trkpt><trkpt lat="45.556259" lon="10.3091433"><ele>342.0</ele><time>2026-03-28T07:55:24.619Z</time></trkpt><trkpt lat="45.5561845" lon="10.3090286"><ele>342.6666666666667</ele><time>2026-03-28T07:55:26.613Z</time></trkpt><trkpt lat="45.5561441" lon="10.3089536"><ele>343.3333333333333</ele><time>2026-03-28T07:55:27.61Z</time></trkpt><trkpt lat="45.5561112" lon="10.3088621"><ele>344.0</ele><time>2026-03-28T07:55:28.615Z</time></trkpt><trkpt lat="45.556084" lon="10.3087723"><ele>344.66666666666663</ele><time>2026-03-28T07:55:29.615Z</time></trkpt><trkpt lat="45.5560262" lon="10.3086025"><ele>345.3333333333333</ele><time>2026-03-28T07:55:31.611Z</time></trkpt><trkpt lat="45.5559958" lon="10.3085201"><ele>346.0</ele><time>2026-03-28T07:55:32.615Z</time></trkpt><trkpt lat="45.555941" lon="10.3084174"><ele>348.0</ele><time>2026-03-28T07:55:34.617Z</time></trkpt><trkpt lat="45.5558836" lon="10.3083761"><ele>350.0</ele><time>2026-03-28T07:55:36.621Z</time></trkpt><trkpt lat="45.5558035" lon="10.3084287"><ele>352.0</ele><time>2026-03-28T07:55:38.619Z</time></trkpt><trkpt lat="45.5556952" lon="10.308412"><ele>354.0</ele><time>2026-03-28T07:55:40.631Z</time></trkpt><trkpt lat="45.5555808" lon="10.3083682"><ele>356.0</ele><time>2026-03-28T07:55:42.62Z</time></trkpt><trkpt lat="45.5554662" lon="10.3083576"><ele>356.0</ele><time>2026-03-28T07:55:44.624Z</time></trkpt><trkpt lat="45.5554003" lon="10.3083623"><ele>356.0</ele><time>2026-03-28T07:55:45.617Z</time></trkpt><trkpt lat="45.5553335" lon="10.3083521"><ele>356.0</ele><time>2026-03-28T07:55:46.613Z</time></trkpt><trkpt lat="45.5552624" lon="10.3083369"><ele>356.0</ele><time>2026-03-28T07:55:47.621Z</time></trkpt><trkpt lat="45.5551728" lon="10.3082465"><ele>356.0</ele><time>2026-03-28T07:55:49.613Z</time></trkpt><trkpt lat="45.5551655" lon="10.3081457"><ele>356.0</ele><time>2026-03-28T07:55:51.607Z</time></trkpt><trkpt lat="45.555235" lon="10.3080898"><ele>358.83333333333337</ele><time>2026-03-28T07:55:53.619Z</time></trkpt><trkpt lat="45.5553376" lon="10.308074"><ele>361.6666666666667</ele><time>2026-03-28T07:55:55.614Z</time></trkpt><trkpt lat="45.5554094" lon="10.3080614"><ele>364.5</ele><time>2026-03-28T07:55:56.617Z</time></trkpt><trkpt lat="45.5554857" lon="10.3080604"><ele>367.3333333333333</ele><time>2026-03-28T07:55:57.619Z</time></trkpt><trkpt lat="45.5555538" lon="10.3080564"><ele>370.16666666666663</ele><time>2026-03-28T07:55:58.608Z</time></trkpt><trkpt lat="45.5556185" lon="10.3080311"><ele>373.0</ele><time>2026-03-28T07:55:59.61Z</time></trkpt><trkpt lat="45.5556885" lon="10.308009"><ele>373.3333333333333</ele><time>2026-03-28T07:56:00.611Z</time></trkpt><trkpt lat="45.5557619" lon="10.3079854"><ele>373.66666666666663</ele><time>2026-03-28T07:56:01.607Z</time></trkpt><trkpt lat="45.5558401" lon="10.3079565"><ele>374.0</ele><time>2026-03-28T07:56:02.613Z</time></trkpt><trkpt lat="45.5559058" lon="10.3079285"><ele>374.3333333333333</ele><time>2026-03-28T07:56:03.609Z</time></trkpt><trkpt lat="45.5559663" lon="10.3078994"><ele>374.6666666666667</ele><time>2026-03-28T07:56:04.614Z</time></trkpt><trkpt lat="45.5560798" lon="10.3078406"><ele>375.0</ele><time>2026-03-28T07:56:06.601Z</time></trkpt><trkpt lat="45.5561618" lon="10.307801"><ele>375.0</ele><time>2026-03-28T07:56:08.603Z</time></trkpt><trkpt lat="45.5561138" lon="10.3077308"><ele>375.0</ele><time>2026-03-28T07:56:11.61Z</time></trkpt><trkpt lat="45.5560191" lon="10.3076988"><ele>375.0</ele><time>2026-03-28T07:56:13.602Z</time></trkpt><trkpt lat="45.5559193" lon="10.30766"><ele>375.0</ele><time>2026-03-28T07:56:15.601Z</time></trkpt><trkpt lat="45.555842" lon="10.3075705"><ele>375.0</ele><time>2026-03-28T07:56:17.597Z</time></trkpt><trkpt lat="45.5557548" lon="10.3074597"><ele>375.0</ele><time>2026-03-28T07:56:19.601Z</time></trkpt><trkpt lat="45.5557031" lon="10.3073948"><ele>375.0</ele><time>2026-03-28T07:56:20.596Z</time></trkpt><trkpt lat="45.5556478" lon="10.307326"><ele>375.0</ele><time>2026-03-28T07:56:21.604Z</time></trkpt><trkpt lat="45.5555954" lon="10.3072582"><ele>375.0</ele><time>2026-03-28T07:56:22.597Z</time></trkpt><trkpt lat="45.5555508" lon="10.3071801"><ele>375.0</ele><time>2026-03-28T07:56:23.606Z</time></trkpt><trkpt lat="45.5555089" lon="10.3071094"><ele>375.0</ele><time>2026-03-28T07:56:24.604Z</time></trkpt><trkpt lat="45.5554295" lon="10.3069757"><ele>377.8</ele><time>2026-03-28T07:56:26.597Z</time></trkpt><trkpt lat="45.5553693" lon="10.3068489"><ele>380.6</ele><time>2026-03-28T07:56:28.604Z</time></trkpt><trkpt lat="45.5553462" lon="10.3067126"><ele>383.4</ele><time>2026-03-28T07:56:30.619Z</time></trkpt><trkpt lat="45.5553399" lon="10.3065772"><ele>386.2</ele><time>2026-03-28T07:56:32.619Z</time></trkpt><trkpt lat="45.5553946" lon="10.3064671"><ele>389.0</ele><time>2026-03-28T07:56:35.613Z</time></trkpt><trkpt lat="45.5555161" lon="10.306484"><ele>390.79999999999995</ele><time>2026-03-28T07:56:38.611Z</time></trkpt><trkpt lat="45.5556195" lon="10.3064635"><ele>392.59999999999997</ele><time>2026-03-28T07:56:40.593Z</time></trkpt><trkpt lat="45.555733" lon="10.3064564"><ele>394.4</ele><time>2026-03-28T07:56:42.606Z</time></trkpt><trkpt lat="45.5558219" lon="10.3064932"><ele>396.2</ele><time>2026-03-28T07:56:44.593Z</time></trkpt><trkpt lat="45.5558861" lon="10.3065422"><ele>398.0</ele><time>2026-03-28T07:56:46.605Z</time></trkpt><trkpt lat="45.5558999" lon="10.3064074"><ele>400.49999999999994</ele><time>2026-03-28T07:56:49.609Z</time></trkpt><trkpt lat="45.5558827" lon="10.3063188"><ele>403.0</ele><time>2026-03-28T07:56:50.601Z</time></trkpt><trkpt lat="45.5558356" lon="10.3061559"><ele>405.5</ele><time>2026-03-28T07:56:52.609Z</time></trkpt><trkpt lat="45.555805" lon="10.3060773"><ele>408.0</ele><time>2026-03-28T07:56:53.599Z</time></trkpt><trkpt lat="45.5557763" lon="10.3059941"><ele>410.49999999999994</ele><time>2026-03-28T07:56:54.599Z</time></trkpt><trkpt lat="45.5557434" lon="10.3059125"><ele>413.0</ele><time>2026-03-28T07:56:55.597Z</time></trkpt><trkpt lat="45.5556946" lon="10.3057757"><ele>412.99999999999994</ele><time>2026-03-28T07:56:57.596Z</time></trkpt><trkpt lat="45.5558278" lon="10.3057566"><ele>413.0</ele><time>2026-03-28T07:57:02.592Z</time></trkpt><trkpt lat="45.5558975" lon="10.3058146"><ele>413.0</ele><time>2026-03-28T07:57:03.596Z</time></trkpt><trkpt lat="45.5559473" lon="10.3058925"><ele>413.0</ele><time>2026-03-28T07:57:04.599Z</time></trkpt><trkpt lat="45.5560061" lon="10.3059605"><ele>412.99999999999994</ele><time>2026-03-28T07:57:05.596Z</time></trkpt><trkpt lat="45.5560602" lon="10.3060237"><ele>413.0</ele><time>2026-03-28T07:57:06.597Z</time></trkpt><trkpt lat="45.5561191" lon="10.3060732"><ele>413.0</ele><time>2026-03-28T07:57:07.601Z</time></trkpt><trkpt lat="45.5561736" lon="10.3061257"><ele>413.0</ele><time>2026-03-28T07:57:08.603Z</time></trkpt><trkpt lat="45.556232" lon="10.3061762"><ele>413.0</ele><time>2026-03-28T07:57:09.595Z</time></trkpt><trkpt lat="45.5563346" lon="10.3062416"><ele>413.0</ele><time>2026-03-28T07:57:11.6Z</time></trkpt><trkpt lat="45.5564669" lon="10.3062713"><ele>413.0</ele><time>2026-03-28T07:57:13.6Z</time></trkpt><trkpt lat="45.5565453" lon="10.3062637"><ele>415.8333333333333</ele><time>2026-03-28T07:57:14.593Z</time></trkpt><trkpt lat="45.5566204" lon="10.3062498"><ele>418.66666666666663</ele><time>2026-03-28T07:57:15.596Z</time></trkpt><trkpt lat="45.5566875" lon="10.3062097"><ele>421.5</ele><time>2026-03-28T07:57:16.601Z</time></trkpt><trkpt lat="45.5567435" lon="10.3061631"><ele>424.33333333333337</ele><time>2026-03-28T07:57:17.693Z</time></trkpt><trkpt lat="45.5567838" lon="10.3059978"><ele>427.1666666666667</ele><time>2026-03-28T07:57:19.608Z</time></trkpt><trkpt lat="45.5567756" lon="10.3058984"><ele>430.0</ele><time>2026-03-28T07:57:20.603Z</time></trkpt><trkpt lat="45.5567495" lon="10.305791"><ele>430.00000000000006</ele><time>2026-03-28T07:57:21.601Z</time></trkpt><trkpt lat="45.5567064" lon="10.305693"><ele>430.0</ele><time>2026-03-28T07:57:22.597Z</time></trkpt><trkpt lat="45.5566508" lon="10.3056104"><ele>430.0</ele><time>2026-03-28T07:57:23.602Z</time></trkpt><trkpt lat="45.5565804" lon="10.305543"><ele>430.0</ele><time>2026-03-28T07:57:24.6Z</time></trkpt><trkpt lat="45.5565098" lon="10.3054929"><ele>430.00000000000006</ele><time>2026-03-28T07:57:25.598Z</time></trkpt><trkpt lat="45.5564442" lon="10.3054426"><ele>430.0</ele><time>2026-03-28T07:57:26.597Z</time></trkpt><trkpt lat="45.5563824" lon="10.3053858"><ele>432.83333333333337</ele><time>2026-03-28T07:57:27.599Z</time></trkpt><trkpt lat="45.5563268" lon="10.3053258"><ele>435.6666666666667</ele><time>2026-03-28T07:57:28.6Z</time></trkpt><trkpt lat="45.5562674" lon="10.3052064"><ele>438.5</ele><time>2026-03-28T07:57:30.603Z</time></trkpt><trkpt lat="45.5563479" lon="10.3051793"><ele>441.33333333333337</ele><time>2026-03-28T07:57:36.605Z</time></trkpt><trkpt lat="45.5564603" lon="10.3052007"><ele>444.1666666666667</ele><time>2026-03-28T07:57:38.608Z</time></trkpt><trkpt lat="45.5565347" lon="10.3052332"><ele>447.0</ele><time>2026-03-28T07:57:39.604Z</time></trkpt><trkpt lat="45.5566183" lon="10.3052746"><ele>447.0</ele><time>2026-03-28T07:57:40.607Z</time></trkpt><trkpt lat="45.556719" lon="10.3053197"><ele>447.00000000000006</ele><time>2026-03-28T07:57:41.603Z</time></trkpt><trkpt lat="45.556826" lon="10.3053511"><ele>447.00000000000006</ele><time>2026-03-28T07:57:42.61Z</time></trkpt><trkpt lat="45.5569404" lon="10.30537"><ele>447.0</ele><time>2026-03-28T07:57:43.605Z</time></trkpt><trkpt lat="45.5570583" lon="10.3053861"><ele>447.0</ele><time>2026-03-28T07:57:44.608Z</time></trkpt><trkpt lat="45.5571757" lon="10.3054015"><ele>451.75</ele><time>2026-03-28T07:57:45.603Z</time></trkpt><trkpt lat="45.5572962" lon="10.3054152"><ele>456.5</ele><time>2026-03-28T07:57:46.599Z</time></trkpt><trkpt lat="45.5574168" lon="10.3054465"><ele>461.25</ele><time>2026-03-28T07:57:47.608Z</time></trkpt><trkpt lat="45.5575344" lon="10.3054921"><ele>466.0</ele><time>2026-03-28T07:57:48.604Z</time></trkpt><trkpt lat="45.5576464" lon="10.3055466"><ele>463.6</ele><time>2026-03-28T07:57:49.603Z</time></trkpt><trkpt lat="45.557746" lon="10.3056203"><ele>461.20000000000005</ele><time>2026-03-28T07:57:50.61Z</time></trkpt><trkpt lat="45.5578414" lon="10.3057125"><ele>458.79999999999995</ele><time>2026-03-28T07:57:51.602Z</time></trkpt><trkpt lat="45.5579249" lon="10.305807"><ele>456.4</ele><time>2026-03-28T07:57:52.609Z</time></trkpt><trkpt lat="45.5580101" lon="10.3058941"><ele>454.0</ele><time>2026-03-28T07:57:53.614Z</time></trkpt><trkpt lat="45.5581036" lon="10.305962"><ele>454.0</ele><time>2026-03-28T07:57:54.604Z</time></trkpt><trkpt lat="45.5582039" lon="10.3060104"><ele>454.0</ele><time>2026-03-28T07:57:55.599Z</time></trkpt><trkpt lat="45.5583154" lon="10.3060397"><ele>454.0</ele><time>2026-03-28T07:57:56.613Z</time></trkpt><trkpt lat="45.558419" lon="10.3060871"><ele>454.0</ele><time>2026-03-28T07:57:57.607Z</time></trkpt><trkpt lat="45.5585127" lon="10.3061554"><ele>454.0</ele><time>2026-03-28T07:57:58.604Z</time></trkpt><trkpt lat="45.5586146" lon="10.3062344"><ele>452.75</ele><time>2026-03-28T07:57:59.604Z</time></trkpt><trkpt lat="45.5587289" lon="10.3063239"><ele>451.5</ele><time>2026-03-28T07:58:00.606Z</time></trkpt><trkpt lat="45.5588469" lon="10.3064143"><ele>450.25</ele><time>2026-03-28T07:58:01.607Z</time></trkpt><trkpt lat="45.5589816" lon="10.3064836"><ele>449.0</ele><time>2026-03-28T07:58:02.609Z</time></trkpt><trkpt lat="45.5591476" lon="10.306545"><ele>449.0</ele><time>2026-03-28T07:58:03.607Z</time></trkpt><trkpt lat="45.5593358" lon="10.3065931"><ele>449.0</ele><time>2026-03-28T07:58:04.6Z</time></trkpt><trkpt lat="45.5595144" lon="10.3066496"><ele>449.0</ele><time>2026-03-28T07:58:05.606Z</time></trkpt><trkpt lat="45.5596945" lon="10.3066979"><ele>454.66666666666663</ele><time>2026-03-28T07:58:06.598Z</time></trkpt><trkpt lat="45.5598598" lon="10.3067694"><ele>460.33333333333337</ele><time>2026-03-28T07:58:07.602Z</time></trkpt><trkpt lat="45.5600099" lon="10.3068305"><ele>466.0</ele><time>2026-03-28T07:58:08.599Z</time></trkpt><trkpt lat="45.5601188" lon="10.3069106"><ele>466.0</ele><time>2026-03-28T07:58:09.604Z</time></trkpt><trkpt lat="45.560197" lon="10.3069713"><ele>466.0</ele><time>2026-03-28T07:58:10.614Z</time></trkpt><trkpt lat="45.5602644" lon="10.3070601"><ele>466.0</ele><time>2026-03-28T07:58:11.598Z</time></trkpt><trkpt lat="45.5603356" lon="10.3071567"><ele>466.0</ele><time>2026-03-28T07:58:12.607Z</time></trkpt><trkpt lat="45.560408" lon="10.307188"><ele>466.0</ele><time>2026-03-28T07:58:13.601Z</time></trkpt><trkpt lat="45.5605054" lon="10.3071752"><ele>469.0</ele><time>2026-03-28T07:58:14.593Z</time></trkpt><trkpt lat="45.5606137" lon="10.3071725"><ele>472.0</ele><time>2026-03-28T07:58:15.597Z</time></trkpt><trkpt lat="45.5607284" lon="10.3071828"><ele>475.0</ele><time>2026-03-28T07:58:16.601Z</time></trkpt><trkpt lat="45.5608394" lon="10.3072013"><ele>478.0</ele><time>2026-03-28T07:58:17.594Z</time></trkpt><trkpt lat="45.5609568" lon="10.3072384"><ele>476.0</ele><time>2026-03-28T07:58:18.598Z</time></trkpt><trkpt lat="45.5610811" lon="10.3072868"><ele>474.0</ele><time>2026-03-28T07:58:19.597Z</time></trkpt><trkpt lat="45.5612024" lon="10.3073405"><ele>472.0</ele><time>2026-03-28T07:58:20.606Z</time></trkpt><trkpt lat="45.5613194" lon="10.3073918"><ele>470.0</ele><time>2026-03-28T07:58:21.595Z</time></trkpt><trkpt lat="45.5614283" lon="10.3074451"><ele>470.0</ele><time>2026-03-28T07:58:22.606Z</time></trkpt><trkpt lat="45.5615288" lon="10.3075076"><ele>470.0</ele><time>2026-03-28T07:58:23.608Z</time></trkpt><trkpt lat="45.5616233" lon="10.3075765"><ele>470.0</ele><time>2026-03-28T07:58:24.607Z</time></trkpt><trkpt lat="45.5617208" lon="10.307644"><ele>470.0</ele><time>2026-03-28T07:58:25.599Z</time></trkpt><trkpt lat="45.5618243" lon="10.3077071"><ele>470.0</ele><time>2026-03-28T07:58:26.604Z</time></trkpt><trkpt lat="45.5619364" lon="10.3077604"><ele>471.75</ele><time>2026-03-28T07:58:27.596Z</time></trkpt><trkpt lat="45.5620541" lon="10.3078097"><ele>473.5</ele><time>2026-03-28T07:58:28.608Z</time></trkpt><trkpt lat="45.5621649" lon="10.3078539"><ele>475.25</ele><time>2026-03-28T07:58:29.606Z</time></trkpt><trkpt lat="45.5622726" lon="10.3078901"><ele>477.0</ele><time>2026-03-28T07:58:30.605Z</time></trkpt><trkpt lat="45.562374" lon="10.3079186"><ele>477.0</ele><time>2026-03-28T07:58:31.603Z</time></trkpt><trkpt lat="45.5624693" lon="10.3079448"><ele>477.00000000000006</ele><time>2026-03-28T07:58:32.6Z</time></trkpt><trkpt lat="45.5625616" lon="10.3079689"><ele>477.00000000000006</ele><time>2026-03-28T07:58:33.597Z</time></trkpt><trkpt lat="45.5626503" lon="10.3079919"><ele>477.0</ele><time>2026-03-28T07:58:34.602Z</time></trkpt><trkpt lat="45.5627351" lon="10.3080117"><ele>477.0</ele><time>2026-03-28T07:58:35.6Z</time></trkpt><trkpt lat="45.562823" lon="10.3080219"><ele>476.5</ele><time>2026-03-28T07:58:36.597Z</time></trkpt><trkpt lat="45.5629087" lon="10.3080275"><ele>476.0</ele><time>2026-03-28T07:58:37.602Z</time></trkpt><trkpt lat="45.5629878" lon="10.3080317"><ele>475.5</ele><time>2026-03-28T07:58:38.589Z</time></trkpt><trkpt lat="45.563067" lon="10.3080413"><ele>475.0</ele><time>2026-03-28T07:58:39.598Z</time></trkpt><trkpt lat="45.5631414" lon="10.3080793"><ele>474.5</ele><time>2026-03-28T07:58:40.606Z</time></trkpt><trkpt lat="45.5632083" lon="10.3081295"><ele>474.0</ele><time>2026-03-28T07:58:41.595Z</time></trkpt><trkpt lat="45.5632635" lon="10.3081799"><ele>474.0</ele><time>2026-03-28T07:58:42.598Z</time></trkpt><trkpt lat="45.5633332" lon="10.308236"><ele>474.0</ele><time>2026-03-28T07:58:44.598Z</time></trkpt><trkpt lat="45.5633891" lon="10.3082824"><ele>474.0</ele><time>2026-03-28T07:58:46.588Z</time></trkpt><trkpt lat="45.5634721" lon="10.3083821"><ele>474.0</ele><time>2026-03-28T07:58:48.59Z</time></trkpt><trkpt lat="45.5635367" lon="10.3084519"><ele>474.0</ele><time>2026-03-28T07:58:49.595Z</time></trkpt><trkpt lat="45.5636062" lon="10.3085198"><ele>474.0</ele><time>2026-03-28T07:58:50.589Z</time></trkpt><trkpt lat="45.5636792" lon="10.3085895"><ele>475.1666666666667</ele><time>2026-03-28T07:58:51.597Z</time></trkpt><trkpt lat="45.5637512" lon="10.3086581"><ele>476.33333333333337</ele><time>2026-03-28T07:58:52.598Z</time></trkpt><trkpt lat="45.5638226" lon="10.3087282"><ele>477.5</ele><time>2026-03-28T07:58:53.604Z</time></trkpt><trkpt lat="45.5638898" lon="10.3088002"><ele>478.6666666666667</ele><time>2026-03-28T07:58:54.601Z</time></trkpt><trkpt lat="45.5639552" lon="10.3088673"><ele>479.83333333333337</ele><time>2026-03-28T07:58:55.597Z</time></trkpt><trkpt lat="45.5640119" lon="10.3089189"><ele>481.0</ele><time>2026-03-28T07:58:56.601Z</time></trkpt><trkpt lat="45.5641203" lon="10.3090089"><ele>477.8</ele><time>2026-03-28T07:58:58.595Z</time></trkpt><trkpt lat="45.564188" lon="10.309043"><ele>474.6</ele><time>2026-03-28T07:58:59.609Z</time></trkpt><trkpt lat="45.5642663" lon="10.309065"><ele>471.4</ele><time>2026-03-28T07:59:00.599Z</time></trkpt><trkpt lat="45.5643587" lon="10.309078"><ele>468.2</ele><time>2026-03-28T07:59:01.601Z</time></trkpt><trkpt lat="45.5644598" lon="10.3090885"><ele>465.0</ele><time>2026-03-28T07:59:02.607Z</time></trkpt><trkpt lat="45.5645682" lon="10.3091043"><ele>464.75</ele><time>2026-03-28T07:59:03.61Z</time></trkpt><trkpt lat="45.5646802" lon="10.3091244"><ele>464.5</ele><time>2026-03-28T07:59:04.61Z</time></trkpt><trkpt lat="45.5647936" lon="10.3091493"><ele>464.25</ele><time>2026-03-28T07:59:05.607Z</time></trkpt><trkpt lat="45.5649048" lon="10.3091743"><ele>464.0</ele><time>2026-03-28T07:59:06.603Z</time></trkpt><trkpt lat="45.5650151" lon="10.3091984"><ele>464.0</ele><time>2026-03-28T07:59:07.604Z</time></trkpt><trkpt lat="45.5651271" lon="10.3092146"><ele>464.0</ele><time>2026-03-28T07:59:08.608Z</time></trkpt><trkpt lat="45.5652365" lon="10.3092251"><ele>464.0</ele><time>2026-03-28T07:59:09.605Z</time></trkpt><trkpt lat="45.565348" lon="10.3092262"><ele>464.0</ele><time>2026-03-28T07:59:10.616Z</time></trkpt><trkpt lat="45.565459" lon="10.3092282"><ele>464.0</ele><time>2026-03-28T07:59:11.613Z</time></trkpt><trkpt lat="45.565568" lon="10.3092379"><ele>464.25</ele><time>2026-03-28T07:59:12.602Z</time></trkpt><trkpt lat="45.565677" lon="10.3092588"><ele>464.5</ele><time>2026-03-28T07:59:13.599Z</time></trkpt><trkpt lat="45.5657893" lon="10.3092866"><ele>464.75</ele><time>2026-03-28T07:59:14.598Z</time></trkpt><trkpt lat="45.5659034" lon="10.3093169"><ele>465.0</ele><time>2026-03-28T07:59:15.612Z</time></trkpt><trkpt lat="45.5660205" lon="10.3093455"><ele>465.0</ele><time>2026-03-28T07:59:16.598Z</time></trkpt><trkpt lat="45.5661385" lon="10.3093828"><ele>465.0</ele><time>2026-03-28T07:59:17.605Z</time></trkpt><trkpt lat="45.5662571" lon="10.3094224"><ele>465.0</ele><time>2026-03-28T07:59:18.607Z</time></trkpt><trkpt lat="45.5663794" lon="10.3094579"><ele>465.0</ele><time>2026-03-28T07:59:19.609Z</time></trkpt><trkpt lat="45.5665133" lon="10.3094864"><ele>465.25</ele><time>2026-03-28T07:59:20.609Z</time></trkpt><trkpt lat="45.5666543" lon="10.309504"><ele>465.5</ele><time>2026-03-28T07:59:21.607Z</time></trkpt><trkpt lat="45.5668009" lon="10.3095124"><ele>465.75</ele><time>2026-03-28T07:59:22.607Z</time></trkpt><trkpt lat="45.5669508" lon="10.3095172"><ele>466.0</ele><time>2026-03-28T07:59:23.598Z</time></trkpt><trkpt lat="45.5670968" lon="10.3095162"><ele>466.0</ele><time>2026-03-28T07:59:24.595Z</time></trkpt><trkpt lat="45.5672372" lon="10.3095235"><ele>466.0</ele><time>2026-03-28T07:59:25.598Z</time></trkpt><trkpt lat="45.5673668" lon="10.3095462"><ele>466.0</ele><time>2026-03-28T07:59:26.594Z</time></trkpt><trkpt lat="45.5674869" lon="10.3095875"><ele>466.0</ele><time>2026-03-28T07:59:27.594Z</time></trkpt><trkpt lat="45.5676008" lon="10.3096357"><ele>466.0</ele><time>2026-03-28T07:59:28.6Z</time></trkpt><trkpt lat="45.5677114" lon="10.3096872"><ele>466.0</ele><time>2026-03-28T07:59:29.601Z</time></trkpt><trkpt lat="45.5678192" lon="10.3097347"><ele>466.0</ele><time>2026-03-28T07:59:30.6Z</time></trkpt><trkpt lat="45.5679279" lon="10.3097791"><ele>466.0</ele><time>2026-03-28T07:59:31.6Z</time></trkpt><trkpt lat="45.5680386" lon="10.3098169"><ele>465.6</ele><time>2026-03-28T07:59:32.597Z</time></trkpt><trkpt lat="45.5681551" lon="10.3098475"><ele>465.20000000000005</ele><time>2026-03-28T07:59:33.603Z</time></trkpt><trkpt lat="45.5682687" lon="10.3098709"><ele>464.79999999999995</ele><time>2026-03-28T07:59:34.602Z</time></trkpt><trkpt lat="45.5683783" lon="10.3098911"><ele>464.4</ele><time>2026-03-28T07:59:35.604Z</time></trkpt><trkpt lat="45.5684791" lon="10.3099082"><ele>464.0</ele><time>2026-03-28T07:59:36.599Z</time></trkpt><trkpt lat="45.568574" lon="10.3099234"><ele>464.0</ele><time>2026-03-28T07:59:37.6Z</time></trkpt><trkpt lat="45.5686675" lon="10.3099343"><ele>464.0</ele><time>2026-03-28T07:59:38.6Z</time></trkpt><trkpt lat="45.5687629" lon="10.3099352"><ele>464.0</ele><time>2026-03-28T07:59:39.604Z</time></trkpt><trkpt lat="45.5688543" lon="10.3099064"><ele>464.0</ele><time>2026-03-28T07:59:40.602Z</time></trkpt><trkpt lat="45.5689444" lon="10.3098344"><ele>464.0</ele><time>2026-03-28T07:59:41.603Z</time></trkpt><trkpt lat="45.5690379" lon="10.3097409"><ele>465.0</ele><time>2026-03-28T07:59:42.598Z</time></trkpt><trkpt lat="45.5691369" lon="10.3096492"><ele>466.0</ele><time>2026-03-28T07:59:43.599Z</time></trkpt><trkpt lat="45.5692396" lon="10.3095718"><ele>467.0</ele><time>2026-03-28T07:59:44.598Z</time></trkpt><trkpt lat="45.5693424" lon="10.3095176"><ele>468.0</ele><time>2026-03-28T07:59:45.587Z</time></trkpt><trkpt lat="45.5694489" lon="10.3095119"><ele>468.0</ele><time>2026-03-28T07:59:46.594Z</time></trkpt><trkpt lat="45.5695527" lon="10.3095432"><ele>468.0</ele><time>2026-03-28T07:59:47.596Z</time></trkpt><trkpt lat="45.5696572" lon="10.3096113"><ele>468.0</ele><time>2026-03-28T07:59:48.599Z</time></trkpt><trkpt lat="45.5697571" lon="10.3096957"><ele>468.0</ele><time>2026-03-28T07:59:49.596Z</time></trkpt><trkpt lat="45.5698543" lon="10.3097994"><ele>468.0</ele><time>2026-03-28T07:59:50.598Z</time></trkpt><trkpt lat="45.5699484" lon="10.3099132"><ele>468.0</ele><time>2026-03-28T07:59:51.6Z</time></trkpt><trkpt lat="45.570038" lon="10.3100215"><ele>468.0</ele><time>2026-03-28T07:59:52.598Z</time></trkpt><trkpt lat="45.570122" lon="10.3101256"><ele>468.0</ele><time>2026-03-28T07:59:53.602Z</time></trkpt><trkpt lat="45.5701944" lon="10.3102384"><ele>468.0</ele><time>2026-03-28T07:59:54.603Z</time></trkpt><trkpt lat="45.5702489" lon="10.3103649"><ele>467.99999999999994</ele><time>2026-03-28T07:59:55.599Z</time></trkpt><trkpt lat="45.5702811" lon="10.3105098"><ele>467.99999999999994</ele><time>2026-03-28T07:59:56.605Z</time></trkpt><trkpt lat="45.5702944" lon="10.3106661"><ele>468.0</ele><time>2026-03-28T07:59:57.593Z</time></trkpt><trkpt lat="45.5702953" lon="10.3108291"><ele>468.0</ele><time>2026-03-28T07:59:58.599Z</time></trkpt><trkpt lat="45.5702876" lon="10.3109872"><ele>467.4</ele><time>2026-03-28T07:59:59.603Z</time></trkpt><trkpt lat="45.5702826" lon="10.3111362"><ele>466.79999999999995</ele><time>2026-03-28T08:00:00.595Z</time></trkpt><trkpt lat="45.5702944" lon="10.3112713"><ele>466.2</ele><time>2026-03-28T08:00:01.6Z</time></trkpt><trkpt lat="45.570336" lon="10.3113862"><ele>465.6</ele><time>2026-03-28T08:00:02.599Z</time></trkpt><trkpt lat="45.5704076" lon="10.3114819"><ele>465.0</ele><time>2026-03-28T08:00:03.595Z</time></trkpt><trkpt lat="45.5705014" lon="10.3115493"><ele>464.75</ele><time>2026-03-28T08:00:04.594Z</time></trkpt><trkpt lat="45.5706117" lon="10.3115863"><ele>464.5</ele><time>2026-03-28T08:00:05.599Z</time></trkpt><trkpt lat="45.5707344" lon="10.3116086"><ele>464.25</ele><time>2026-03-28T08:00:06.6Z</time></trkpt><trkpt lat="45.5708621" lon="10.3116239"><ele>464.0</ele><time>2026-03-28T08:00:07.602Z</time></trkpt><trkpt lat="45.5709844" lon="10.311643"><ele>464.0</ele><time>2026-03-28T08:00:08.599Z</time></trkpt><trkpt lat="45.5710984" lon="10.3116772"><ele>464.0</ele><time>2026-03-28T08:00:09.6Z</time></trkpt><trkpt lat="45.5711983" lon="10.3117351"><ele>464.0</ele><time>2026-03-28T08:00:10.599Z</time></trkpt><trkpt lat="45.571286" lon="10.3118225"><ele>464.0</ele><time>2026-03-28T08:00:11.603Z</time></trkpt><trkpt lat="45.5713603" lon="10.3119319"><ele>464.0</ele><time>2026-03-28T08:00:12.598Z</time></trkpt><trkpt lat="45.5714206" lon="10.3120626"><ele>466.0</ele><time>2026-03-28T08:00:13.595Z</time></trkpt><trkpt lat="45.5714625" lon="10.3122121"><ele>468.0</ele><time>2026-03-28T08:00:14.601Z</time></trkpt><trkpt lat="45.5714905" lon="10.3123712"><ele>470.0</ele><time>2026-03-28T08:00:15.603Z</time></trkpt><trkpt lat="45.5715142" lon="10.3125248"><ele>472.0</ele><time>2026-03-28T08:00:16.601Z</time></trkpt><trkpt lat="45.5715394" lon="10.3126702"><ele>474.0</ele><time>2026-03-28T08:00:17.6Z</time></trkpt><trkpt lat="45.5715654" lon="10.3128148"><ele>474.0</ele><time>2026-03-28T08:00:18.603Z</time></trkpt><trkpt lat="45.5715888" lon="10.3129611"><ele>474.0</ele><time>2026-03-28T08:00:19.6Z</time></trkpt><trkpt lat="45.5716079" lon="10.3131143"><ele>474.0</ele><time>2026-03-28T08:00:20.597Z</time></trkpt><trkpt lat="45.5716241" lon="10.313278"><ele>474.0</ele><time>2026-03-28T08:00:21.601Z</time></trkpt><trkpt lat="45.5716402" lon="10.3134477"><ele>474.5</ele><time>2026-03-28T08:00:22.605Z</time></trkpt><trkpt lat="45.5716552" lon="10.3136163"><ele>475.0</ele><time>2026-03-28T08:00:23.607Z</time></trkpt><trkpt lat="45.571664" lon="10.3137859"><ele>475.5</ele><time>2026-03-28T08:00:24.605Z</time></trkpt><trkpt lat="45.5716646" lon="10.3139584"><ele>476.0</ele><time>2026-03-28T08:00:25.594Z</time></trkpt><trkpt lat="45.571655" lon="10.3141349"><ele>476.0</ele><time>2026-03-28T08:00:26.597Z</time></trkpt><trkpt lat="45.571639" lon="10.3143101"><ele>476.0</ele><time>2026-03-28T08:00:27.594Z</time></trkpt><trkpt lat="45.5716201" lon="10.314483"><ele>476.0</ele><time>2026-03-28T08:00:28.591Z</time></trkpt><trkpt lat="45.5716035" lon="10.3146476"><ele>476.0</ele><time>2026-03-28T08:00:29.595Z</time></trkpt><trkpt lat="45.5715928" lon="10.3148017"><ele>476.0</ele><time>2026-03-28T08:00:30.596Z</time></trkpt><trkpt lat="45.5715901" lon="10.3149455"><ele>476.0</ele><time>2026-03-28T08:00:31.608Z</time></trkpt><trkpt lat="45.5715988" lon="10.3150788"><ele>476.0</ele><time>2026-03-28T08:00:32.594Z</time></trkpt><trkpt lat="45.5716235" lon="10.3152027"><ele>476.0</ele><time>2026-03-28T08:00:33.601Z</time></trkpt><trkpt lat="45.5716658" lon="10.3153218"><ele>476.0</ele><time>2026-03-28T08:00:34.595Z</time></trkpt><trkpt lat="45.5717208" lon="10.3154435"><ele>476.0</ele><time>2026-03-28T08:00:35.607Z</time></trkpt><trkpt lat="45.5717818" lon="10.3155662"><ele>476.0</ele><time>2026-03-28T08:00:36.607Z</time></trkpt><trkpt lat="45.5718451" lon="10.3156925"><ele>476.0</ele><time>2026-03-28T08:00:37.609Z</time></trkpt><trkpt lat="45.5719091" lon="10.3158239"><ele>476.0</ele><time>2026-03-28T08:00:38.608Z</time></trkpt><trkpt lat="45.5719657" lon="10.3159634"><ele>476.0</ele><time>2026-03-28T08:00:39.608Z</time></trkpt><trkpt lat="45.572005" lon="10.3161144"><ele>475.0</ele><time>2026-03-28T08:00:40.599Z</time></trkpt><trkpt lat="45.572023" lon="10.3162817"><ele>474.0</ele><time>2026-03-28T08:00:41.601Z</time></trkpt><trkpt lat="45.5720281" lon="10.3164648"><ele>473.0</ele><time>2026-03-28T08:00:42.602Z</time></trkpt><trkpt lat="45.5720273" lon="10.3166612"><ele>472.0</ele><time>2026-03-28T08:00:43.605Z</time></trkpt><trkpt lat="45.5720213" lon="10.3168632"><ele>472.0</ele><time>2026-03-28T08:00:44.592Z</time></trkpt><trkpt lat="45.5720133" lon="10.3170802"><ele>472.0</ele><time>2026-03-28T08:00:45.602Z</time></trkpt><trkpt lat="45.5720035" lon="10.3172996"><ele>472.0</ele><time>2026-03-28T08:00:46.595Z</time></trkpt><trkpt lat="45.5719899" lon="10.3175137"><ele>474.0</ele><time>2026-03-28T08:00:47.593Z</time></trkpt><trkpt lat="45.5719711" lon="10.317723"><ele>476.0</ele><time>2026-03-28T08:00:48.594Z</time></trkpt><trkpt lat="45.5719477" lon="10.3179277"><ele>478.0</ele><time>2026-03-28T08:00:49.603Z</time></trkpt><trkpt lat="45.5719212" lon="10.3181133"><ele>480.0</ele><time>2026-03-28T08:00:50.6Z</time></trkpt><trkpt lat="45.5718979" lon="10.3182765"><ele>480.2</ele><time>2026-03-28T08:00:51.596Z</time></trkpt><trkpt lat="45.5718888" lon="10.3184179"><ele>480.4</ele><time>2026-03-28T08:00:52.602Z</time></trkpt><trkpt lat="45.5719031" lon="10.3185369"><ele>480.6</ele><time>2026-03-28T08:00:53.599Z</time></trkpt><trkpt lat="45.5719385" lon="10.3186411"><ele>480.8</ele><time>2026-03-28T08:00:54.604Z</time></trkpt><trkpt lat="45.5719973" lon="10.3187416"><ele>481.0</ele><time>2026-03-28T08:00:55.603Z</time></trkpt><trkpt lat="45.5720697" lon="10.3188427"><ele>486.6666666666667</ele><time>2026-03-28T08:00:56.598Z</time></trkpt><trkpt lat="45.5721427" lon="10.3189424"><ele>492.33333333333337</ele><time>2026-03-28T08:00:57.592Z</time></trkpt><trkpt lat="45.5722072" lon="10.3190416"><ele>498.0</ele><time>2026-03-28T08:00:58.598Z</time></trkpt><trkpt lat="45.5722545" lon="10.3191424"><ele>503.66666666666663</ele><time>2026-03-28T08:00:59.6Z</time></trkpt><trkpt lat="45.5722623" lon="10.3192452"><ele>509.3333333333333</ele><time>2026-03-28T08:01:00.603Z</time></trkpt><trkpt lat="45.5722503" lon="10.3193542"><ele>515.0</ele><time>2026-03-28T08:01:01.604Z</time></trkpt><trkpt lat="45.5722257" lon="10.319477"><ele>515.0</ele><time>2026-03-28T08:01:02.606Z</time></trkpt><trkpt lat="45.5722032" lon="10.3196113"><ele>515.0</ele><time>2026-03-28T08:01:03.598Z</time></trkpt><trkpt lat="45.5721912" lon="10.3197645"><ele>515.0</ele><time>2026-03-28T08:01:04.595Z</time></trkpt><trkpt lat="45.5721892" lon="10.3199352"><ele>515.0</ele><time>2026-03-28T08:01:05.602Z</time></trkpt><trkpt lat="45.5721923" lon="10.320116"><ele>517.5</ele><time>2026-03-28T08:01:06.603Z</time></trkpt><trkpt lat="45.5721963" lon="10.3203154"><ele>520.0</ele><time>2026-03-28T08:01:07.596Z</time></trkpt><trkpt lat="45.5721838" lon="10.3204977"><ele>522.5</ele><time>2026-03-28T08:01:08.604Z</time></trkpt><trkpt lat="45.5721439" lon="10.3206738"><ele>525.0</ele><time>2026-03-28T08:01:09.602Z</time></trkpt><trkpt lat="45.572104" lon="10.3208408"><ele>525.4</ele><time>2026-03-28T08:01:10.608Z</time></trkpt><trkpt lat="45.5720799" lon="10.3209926"><ele>525.8</ele><time>2026-03-28T08:01:11.61Z</time></trkpt><trkpt lat="45.5720792" lon="10.3211382"><ele>526.2</ele><time>2026-03-28T08:01:12.598Z</time></trkpt><trkpt lat="45.5721026" lon="10.3212853"><ele>526.6</ele><time>2026-03-28T08:01:13.6Z</time></trkpt><trkpt lat="45.5721461" lon="10.3214173"><ele>527.0</ele><time>2026-03-28T08:01:14.605Z</time></trkpt><trkpt lat="45.572225" lon="10.3215392"><ele>527.25</ele><time>2026-03-28T08:01:15.602Z</time></trkpt><trkpt lat="45.5722995" lon="10.3216629"><ele>527.5</ele><time>2026-03-28T08:01:16.601Z</time></trkpt><trkpt lat="45.5723763" lon="10.3218032"><ele>527.75</ele><time>2026-03-28T08:01:17.6Z</time></trkpt><trkpt lat="45.5724509" lon="10.3219449"><ele>528.0</ele><time>2026-03-28T08:01:18.612Z</time></trkpt><trkpt lat="45.5725309" lon="10.3220685"><ele>528.0</ele><time>2026-03-28T08:01:19.606Z</time></trkpt><trkpt lat="45.5726109" lon="10.3221913"><ele>528.0</ele><time>2026-03-28T08:01:20.599Z</time></trkpt><trkpt lat="45.5726858" lon="10.3223203"><ele>528.0</ele><time>2026-03-28T08:01:21.602Z</time></trkpt><trkpt lat="45.572758" lon="10.3224473"><ele>528.0</ele><time>2026-03-28T08:01:22.593Z</time></trkpt><trkpt lat="45.5728373" lon="10.3225744"><ele>526.0</ele><time>2026-03-28T08:01:23.595Z</time></trkpt><trkpt lat="45.5729201" lon="10.322706"><ele>524.0</ele><time>2026-03-28T08:01:24.599Z</time></trkpt><trkpt lat="45.5730064" lon="10.3228287"><ele>522.0</ele><time>2026-03-28T08:01:25.598Z</time></trkpt><trkpt lat="45.5730967" lon="10.3229477"><ele>520.0</ele><time>2026-03-28T08:01:26.597Z</time></trkpt><trkpt lat="45.573186" lon="10.3230673"><ele>520.0</ele><time>2026-03-28T08:01:27.601Z</time></trkpt><trkpt lat="45.5732724" lon="10.3231864"><ele>520.0</ele><time>2026-03-28T08:01:28.599Z</time></trkpt><trkpt lat="45.5733505" lon="10.3233066"><ele>520.0</ele><time>2026-03-28T08:01:29.597Z</time></trkpt><trkpt lat="45.5734296" lon="10.3234198"><ele>520.0</ele><time>2026-03-28T08:01:30.605Z</time></trkpt><trkpt lat="45.5735144" lon="10.323536"><ele>520.0</ele><time>2026-03-28T08:01:31.601Z</time></trkpt><trkpt lat="45.5736185" lon="10.3236355"><ele>520.0</ele><time>2026-03-28T08:01:32.594Z</time></trkpt><trkpt lat="45.573729" lon="10.3237343"><ele>520.0</ele><time>2026-03-28T08:01:33.597Z</time></trkpt><trkpt lat="45.5738443" lon="10.3238272"><ele>520.0</ele><time>2026-03-28T08:01:34.599Z</time></trkpt><trkpt lat="45.5739498" lon="10.3239261"><ele>523.5</ele><time>2026-03-28T08:01:35.589Z</time></trkpt><trkpt lat="45.574058" lon="10.3240298"><ele>527.0</ele><time>2026-03-28T08:01:36.594Z</time></trkpt><trkpt lat="45.5741595" lon="10.3241333"><ele>530.5</ele><time>2026-03-28T08:01:37.589Z</time></trkpt><trkpt lat="45.5742544" lon="10.3242338"><ele>534.0</ele><time>2026-03-28T08:01:38.585Z</time></trkpt><trkpt lat="45.5743458" lon="10.3243234"><ele>534.0</ele><time>2026-03-28T08:01:39.591Z</time></trkpt><trkpt lat="45.5744315" lon="10.3244064"><ele>534.0</ele><time>2026-03-28T08:01:40.59Z</time></trkpt><trkpt lat="45.5745045" lon="10.3244829"><ele>534.0</ele><time>2026-03-28T08:01:41.597Z</time></trkpt><trkpt lat="45.5745597" lon="10.3245642"><ele>534.0</ele><time>2026-03-28T08:01:42.591Z</time></trkpt><trkpt lat="45.574584" lon="10.3246636"><ele>534.0</ele><time>2026-03-28T08:01:43.588Z</time></trkpt><trkpt lat="45.5745799" lon="10.3247629"><ele>534.0</ele><time>2026-03-28T08:01:44.601Z</time></trkpt><trkpt lat="45.574537" lon="10.3249306"><ele>532.4</ele><time>2026-03-28T08:01:46.592Z</time></trkpt><trkpt lat="45.5745167" lon="10.3250611"><ele>530.8</ele><time>2026-03-28T08:01:47.602Z</time></trkpt><trkpt lat="45.5745099" lon="10.3252103"><ele>529.2</ele><time>2026-03-28T08:01:48.596Z</time></trkpt><trkpt lat="45.5745127" lon="10.325375"><ele>527.6</ele><time>2026-03-28T08:01:49.607Z</time></trkpt><trkpt lat="45.5745224" lon="10.3255386"><ele>526.0</ele><time>2026-03-28T08:01:50.596Z</time></trkpt><trkpt lat="45.574528" lon="10.3257098"><ele>528.75</ele><time>2026-03-28T08:01:51.589Z</time></trkpt><trkpt lat="45.5745188" lon="10.3258689"><ele>531.5</ele><time>2026-03-28T08:01:52.595Z</time></trkpt><trkpt lat="45.5744831" lon="10.326014"><ele>534.25</ele><time>2026-03-28T08:01:53.607Z</time></trkpt><trkpt lat="45.5744255" lon="10.3261457"><ele>537.0</ele><time>2026-03-28T08:01:54.598Z</time></trkpt><trkpt lat="45.5743401" lon="10.3262824"><ele>540.75</ele><time>2026-03-28T08:01:55.596Z</time></trkpt><trkpt lat="45.5742512" lon="10.3264266"><ele>544.5</ele><time>2026-03-28T08:01:56.607Z</time></trkpt><trkpt lat="45.5741781" lon="10.3265662"><ele>548.25</ele><time>2026-03-28T08:01:57.6Z</time></trkpt><trkpt lat="45.5741088" lon="10.3267075"><ele>552.0</ele><time>2026-03-28T08:01:58.592Z</time></trkpt><trkpt lat="45.5740488" lon="10.3268513"><ele>552.0</ele><time>2026-03-28T08:01:59.595Z</time></trkpt><trkpt lat="45.5739941" lon="10.3269996"><ele>552.0</ele><time>2026-03-28T08:02:00.612Z</time></trkpt><trkpt lat="45.5739476" lon="10.3271532"><ele>552.0</ele><time>2026-03-28T08:02:01.601Z</time></trkpt><trkpt lat="45.5739151" lon="10.3273083"><ele>552.0</ele><time>2026-03-28T08:02:02.594Z</time></trkpt><trkpt lat="45.5738903" lon="10.327483"><ele>555.75</ele><time>2026-03-28T08:02:03.606Z</time></trkpt><trkpt lat="45.5738734" lon="10.3276582"><ele>559.5</ele><time>2026-03-28T08:02:04.601Z</time></trkpt><trkpt lat="45.5738757" lon="10.327825"><ele>563.25</ele><time>2026-03-28T08:02:05.593Z</time></trkpt><trkpt lat="45.5738849" lon="10.328004"><ele>567.0</ele><time>2026-03-28T08:02:06.597Z</time></trkpt><trkpt lat="45.5739068" lon="10.3281716"><ele>568.0</ele><time>2026-03-28T08:02:07.598Z</time></trkpt><trkpt lat="45.5739383" lon="10.3283245"><ele>569.0</ele><time>2026-03-28T08:02:08.59Z</time></trkpt><trkpt lat="45.573983" lon="10.3284677"><ele>570.0</ele><time>2026-03-28T08:02:09.597Z</time></trkpt><trkpt lat="45.5740521" lon="10.328607"><ele>571.0</ele><time>2026-03-28T08:02:10.606Z</time></trkpt><trkpt lat="45.5741316" lon="10.3287443"><ele>571.0</ele><time>2026-03-28T08:02:11.6Z</time></trkpt><trkpt lat="45.5742115" lon="10.3288787"><ele>571.0</ele><time>2026-03-28T08:02:12.603Z</time></trkpt><trkpt lat="45.5743001" lon="10.3290074"><ele>571.0</ele><time>2026-03-28T08:02:13.604Z</time></trkpt><trkpt lat="45.5743945" lon="10.3291199"><ele>571.0</ele><time>2026-03-28T08:02:14.597Z</time></trkpt><trkpt lat="45.5744905" lon="10.3292208"><ele>576.0</ele><time>2026-03-28T08:02:15.594Z</time></trkpt><trkpt lat="45.5745772" lon="10.3293031"><ele>581.0</ele><time>2026-03-28T08:02:16.592Z</time></trkpt><trkpt lat="45.5746526" lon="10.329371"><ele>586.0</ele><time>2026-03-28T08:02:17.597Z</time></trkpt><trkpt lat="45.5747095" lon="10.3294465"><ele>591.0</ele><time>2026-03-28T08:02:18.597Z</time></trkpt><trkpt lat="45.5747368" lon="10.3295349"><ele>596.0</ele><time>2026-03-28T08:02:19.596Z</time></trkpt><trkpt lat="45.574705" lon="10.3296797"><ele>601.0</ele><time>2026-03-28T08:02:21.598Z</time></trkpt><trkpt lat="45.5745963" lon="10.329755"><ele>596.0</ele><time>2026-03-28T08:02:23.687Z</time></trkpt><trkpt lat="45.574515" lon="10.3298221"><ele>591.0</ele><time>2026-03-28T08:02:24.596Z</time></trkpt><trkpt lat="45.5744314" lon="10.3298862"><ele>586.0</ele><time>2026-03-28T08:02:25.595Z</time></trkpt><trkpt lat="45.5743481" lon="10.3299535"><ele>581.0</ele><time>2026-03-28T08:02:26.602Z</time></trkpt><trkpt lat="45.5742687" lon="10.3300221"><ele>576.0</ele><time>2026-03-28T08:02:27.596Z</time></trkpt><trkpt lat="45.5741867" lon="10.3301037"><ele>576.0</ele><time>2026-03-28T08:02:28.592Z</time></trkpt><trkpt lat="45.5741061" lon="10.3301876"><ele>576.0</ele><time>2026-03-28T08:02:29.6Z</time></trkpt><trkpt lat="45.574028" lon="10.3302762"><ele>576.0</ele><time>2026-03-28T08:02:30.591Z</time></trkpt><trkpt lat="45.5739549" lon="10.3303659"><ele>576.0</ele><time>2026-03-28T08:02:31.606Z</time></trkpt><trkpt lat="45.5738981" lon="10.3304688"><ele>576.0</ele><time>2026-03-28T08:02:32.59Z</time></trkpt><trkpt lat="45.5738486" lon="10.3305866"><ele>579.8333333333334</ele><time>2026-03-28T08:02:33.6Z</time></trkpt><trkpt lat="45.5738074" lon="10.3307108"><ele>583.6666666666666</ele><time>2026-03-28T08:02:34.602Z</time></trkpt><trkpt lat="45.573773" lon="10.3308233"><ele>587.5</ele><time>2026-03-28T08:02:35.599Z</time></trkpt><trkpt lat="45.5737411" lon="10.3309333"><ele>591.3333333333333</ele><time>2026-03-28T08:02:36.6Z</time></trkpt><trkpt lat="45.5737261" lon="10.3310583"><ele>595.1666666666666</ele><time>2026-03-28T08:02:37.599Z</time></trkpt><trkpt lat="45.5737252" lon="10.3311897"><ele>599.0</ele><time>2026-03-28T08:02:38.6Z</time></trkpt><trkpt lat="45.5737318" lon="10.3313264"><ele>599.6</ele><time>2026-03-28T08:02:39.603Z</time></trkpt><trkpt lat="45.5737546" lon="10.3314592"><ele>600.2</ele><time>2026-03-28T08:02:40.599Z</time></trkpt><trkpt lat="45.5737901" lon="10.3315871"><ele>600.8000000000001</ele><time>2026-03-28T08:02:41.6Z</time></trkpt><trkpt lat="45.5738236" lon="10.3317114"><ele>601.4</ele><time>2026-03-28T08:02:42.598Z</time></trkpt><trkpt lat="45.5738649" lon="10.3318225"><ele>602.0</ele><time>2026-03-28T08:02:43.604Z</time></trkpt><trkpt lat="45.5739337" lon="10.3319083"><ele>602.0</ele><time>2026-03-28T08:02:44.606Z</time></trkpt><trkpt lat="45.5740188" lon="10.33198"><ele>602.0</ele><time>2026-03-28T08:02:45.597Z</time></trkpt><trkpt lat="45.5741166" lon="10.3320374"><ele>602.0</ele><time>2026-03-28T08:02:46.593Z</time></trkpt><trkpt lat="45.5742143" lon="10.3321007"><ele>602.0</ele><time>2026-03-28T08:02:47.593Z</time></trkpt><trkpt lat="45.5743022" lon="10.3321648"><ele>602.0</ele><time>2026-03-28T08:02:48.598Z</time></trkpt><trkpt lat="45.574371" lon="10.3322245"><ele>600.4</ele><time>2026-03-28T08:02:49.597Z</time></trkpt><trkpt lat="45.5744477" lon="10.3322949"><ele>598.8000000000001</ele><time>2026-03-28T08:02:50.598Z</time></trkpt><trkpt lat="45.5745212" lon="10.3323783"><ele>597.2</ele><time>2026-03-28T08:02:51.6Z</time></trkpt><trkpt lat="45.5745714" lon="10.3324837"><ele>595.6</ele><time>2026-03-28T08:02:52.602Z</time></trkpt><trkpt lat="45.5746078" lon="10.3326029"><ele>594.0</ele><time>2026-03-28T08:02:53.601Z</time></trkpt><trkpt lat="45.5746257" lon="10.3327331"><ele>595.8</ele><time>2026-03-28T08:02:54.598Z</time></trkpt><trkpt lat="45.5746273" lon="10.3328773"><ele>597.5999999999999</ele><time>2026-03-28T08:02:55.599Z</time></trkpt><trkpt lat="45.5746128" lon="10.3330133"><ele>599.4</ele><time>2026-03-28T08:02:56.6Z</time></trkpt><trkpt lat="45.574575" lon="10.3331402"><ele>601.1999999999999</ele><time>2026-03-28T08:02:57.599Z</time></trkpt><trkpt lat="45.5745214" lon="10.3332598"><ele>603.0</ele><time>2026-03-28T08:02:58.602Z</time></trkpt><trkpt lat="45.5744559" lon="10.3333827"><ele>603.0</ele><time>2026-03-28T08:02:59.593Z</time></trkpt><trkpt lat="45.5743929" lon="10.3335011"><ele>603.0</ele><time>2026-03-28T08:03:00.602Z</time></trkpt><trkpt lat="45.574323" lon="10.3336214"><ele>603.0</ele><time>2026-03-28T08:03:01.6Z</time></trkpt><trkpt lat="45.5742506" lon="10.3337205"><ele>603.0</ele><time>2026-03-28T08:03:02.598Z</time></trkpt><trkpt lat="45.5741748" lon="10.3337923"><ele>603.0</ele><time>2026-03-28T08:03:03.598Z</time></trkpt><trkpt lat="45.5740736" lon="10.333858"><ele>604.25</ele><time>2026-03-28T08:03:04.599Z</time></trkpt><trkpt lat="45.5739665" lon="10.3339361"><ele>605.5</ele><time>2026-03-28T08:03:05.6Z</time></trkpt><trkpt lat="45.573851" lon="10.334008"><ele>606.75</ele><time>2026-03-28T08:03:06.6Z</time></trkpt><trkpt lat="45.5737335" lon="10.3340792"><ele>608.0</ele><time>2026-03-28T08:03:07.602Z</time></trkpt><trkpt lat="45.5736225" lon="10.334148"><ele>608.0</ele><time>2026-03-28T08:03:08.597Z</time></trkpt><trkpt lat="45.5735092" lon="10.334215"><ele>608.0</ele><time>2026-03-28T08:03:09.599Z</time></trkpt><trkpt lat="45.5733953" lon="10.3342716"><ele>608.0</ele><time>2026-03-28T08:03:10.6Z</time></trkpt><trkpt lat="45.5732831" lon="10.3343085"><ele>608.0</ele><time>2026-03-28T08:03:11.601Z</time></trkpt><trkpt lat="45.5731692" lon="10.3343349"><ele>608.0</ele><time>2026-03-28T08:03:12.598Z</time></trkpt><trkpt lat="45.5730517" lon="10.3343542"><ele>608.0</ele><time>2026-03-28T08:03:13.605Z</time></trkpt><trkpt lat="45.5729402" lon="10.3343714"><ele>608.0</ele><time>2026-03-28T08:03:14.606Z</time></trkpt><trkpt lat="45.5728365" lon="10.334386"><ele>608.0</ele><time>2026-03-28T08:03:15.598Z</time></trkpt><trkpt lat="45.5727345" lon="10.3343939"><ele>608.0</ele><time>2026-03-28T08:03:16.602Z</time></trkpt><trkpt lat="45.5726369" lon="10.3344079"><ele>608.0</ele><time>2026-03-28T08:03:17.605Z</time></trkpt><trkpt lat="45.5725424" lon="10.3344275"><ele>608.0</ele><time>2026-03-28T08:03:18.601Z</time></trkpt><trkpt lat="45.5724495" lon="10.3344707"><ele>608.0</ele><time>2026-03-28T08:03:19.601Z</time></trkpt><trkpt lat="45.5723922" lon="10.3345526"><ele>608.0</ele><time>2026-03-28T08:03:20.596Z</time></trkpt><trkpt lat="45.5723549" lon="10.3346656"><ele>608.0</ele><time>2026-03-28T08:03:21.601Z</time></trkpt><trkpt lat="45.5723556" lon="10.3347848"><ele>608.0</ele><time>2026-03-28T08:03:22.595Z</time></trkpt><trkpt lat="45.572385" lon="10.3348901"><ele>608.1999999999999</ele><time>2026-03-28T08:03:23.597Z</time></trkpt><trkpt lat="45.5724433" lon="10.3349486"><ele>608.4</ele><time>2026-03-28T08:03:24.603Z</time></trkpt><trkpt lat="45.572514" lon="10.3349656"><ele>608.5999999999999</ele><time>2026-03-28T08:03:25.597Z</time></trkpt><trkpt lat="45.5726073" lon="10.3349455"><ele>608.8</ele><time>2026-03-28T08:03:26.595Z</time></trkpt><trkpt lat="45.5727094" lon="10.3349081"><ele>609.0</ele><time>2026-03-28T08:03:27.604Z</time></trkpt><trkpt lat="45.5728202" lon="10.3348658"><ele>609.25</ele><time>2026-03-28T08:03:28.603Z</time></trkpt><trkpt lat="45.5729298" lon="10.3348168"><ele>609.5</ele><time>2026-03-28T08:03:29.606Z</time></trkpt><trkpt lat="45.5730419" lon="10.3347692"><ele>609.75</ele><time>2026-03-28T08:03:30.604Z</time></trkpt><trkpt lat="45.5731635" lon="10.334717"><ele>610.0</ele><time>2026-03-28T08:03:31.609Z</time></trkpt><trkpt lat="45.57328" lon="10.334667"><ele>609.5</ele><time>2026-03-28T08:03:32.608Z</time></trkpt><trkpt lat="45.5734045" lon="10.3346179"><ele>609.0</ele><time>2026-03-28T08:03:33.607Z</time></trkpt><trkpt lat="45.5735236" lon="10.3345651"><ele>608.5</ele><time>2026-03-28T08:03:34.611Z</time></trkpt><trkpt lat="45.573644" lon="10.3345114"><ele>608.0</ele><time>2026-03-28T08:03:35.609Z</time></trkpt><trkpt lat="45.5737584" lon="10.3344534"><ele>610.4</ele><time>2026-03-28T08:03:36.603Z</time></trkpt><trkpt lat="45.5738682" lon="10.3343964"><ele>612.8</ele><time>2026-03-28T08:03:37.609Z</time></trkpt><trkpt lat="45.5739684" lon="10.3343451"><ele>615.2</ele><time>2026-03-28T08:03:38.608Z</time></trkpt><trkpt lat="45.5740713" lon="10.3342997"><ele>617.6</ele><time>2026-03-28T08:03:39.601Z</time></trkpt><trkpt lat="45.5741684" lon="10.334258"><ele>620.0</ele><time>2026-03-28T08:03:40.602Z</time></trkpt><trkpt lat="45.5742462" lon="10.3342122"><ele>620.0</ele><time>2026-03-28T08:03:41.601Z</time></trkpt><trkpt lat="45.5743147" lon="10.3341573"><ele>620.0</ele><time>2026-03-28T08:03:42.605Z</time></trkpt><trkpt lat="45.5743866" lon="10.3340816"><ele>620.0</ele><time>2026-03-28T08:03:43.601Z</time></trkpt><trkpt lat="45.5744626" lon="10.3339981"><ele>620.0</ele><time>2026-03-28T08:03:44.594Z</time></trkpt><trkpt lat="45.5745407" lon="10.333917"><ele>620.0</ele><time>2026-03-28T08:03:45.609Z</time></trkpt><trkpt lat="45.5746243" lon="10.3338399"><ele>620.6</ele><time>2026-03-28T08:03:46.603Z</time></trkpt><trkpt lat="45.5747111" lon="10.3337779"><ele>621.2</ele><time>2026-03-28T08:03:47.597Z</time></trkpt><trkpt lat="45.5747876" lon="10.3337181"><ele>621.8</ele><time>2026-03-28T08:03:48.598Z</time></trkpt><trkpt lat="45.5748669" lon="10.3336475"><ele>622.4</ele><time>2026-03-28T08:03:49.598Z</time></trkpt><trkpt lat="45.5749437" lon="10.3335668"><ele>623.0</ele><time>2026-03-28T08:03:50.6Z</time></trkpt><trkpt lat="45.575006" lon="10.3334913"><ele>623.0</ele><time>2026-03-28T08:03:51.602Z</time></trkpt><trkpt lat="45.5750532" lon="10.3334233"><ele>623.0</ele><time>2026-03-28T08:03:52.604Z</time></trkpt><trkpt lat="45.5751275" lon="10.3333831"><ele>623.0</ele><time>2026-03-28T08:03:54.603Z</time></trkpt><trkpt lat="45.5751787" lon="10.3334887"><ele>623.0</ele><time>2026-03-28T08:03:56.592Z</time></trkpt><trkpt lat="45.5751555" lon="10.3336196"><ele>623.0</ele><time>2026-03-28T08:03:58.6Z</time></trkpt><trkpt lat="45.5750937" lon="10.3337105"><ele>623.0</ele><time>2026-03-28T08:03:59.596Z</time></trkpt><trkpt lat="45.5750307" lon="10.3338074"><ele>625.5</ele><time>2026-03-28T08:04:00.598Z</time></trkpt><trkpt lat="45.5749661" lon="10.3339074"><ele>628.0</ele><time>2026-03-28T08:04:01.599Z</time></trkpt><trkpt lat="45.5749068" lon="10.3339995"><ele>630.5</ele><time>2026-03-28T08:04:02.594Z</time></trkpt><trkpt lat="45.5748599" lon="10.3340827"><ele>633.0</ele><time>2026-03-28T08:04:03.598Z</time></trkpt><trkpt lat="45.5748158" lon="10.3341716"><ele>635.5</ele><time>2026-03-28T08:04:04.6Z</time></trkpt><trkpt lat="45.5747899" lon="10.3342831"><ele>638.0</ele><time>2026-03-28T08:04:05.6Z</time></trkpt><trkpt lat="45.5747863" lon="10.3344066"><ele>638.0</ele><time>2026-03-28T08:04:06.601Z</time></trkpt><trkpt lat="45.5747973" lon="10.3345351"><ele>638.0</ele><time>2026-03-28T08:04:07.591Z</time></trkpt><trkpt lat="45.574824" lon="10.3346694"><ele>638.0</ele><time>2026-03-28T08:04:08.594Z</time></trkpt><trkpt lat="45.5748677" lon="10.334797"><ele>638.0</ele><time>2026-03-28T08:04:09.601Z</time></trkpt><trkpt lat="45.5749189" lon="10.3349307"><ele>638.0</ele><time>2026-03-28T08:04:10.606Z</time></trkpt><trkpt lat="45.5749778" lon="10.3350666"><ele>639.4</ele><time>2026-03-28T08:04:11.599Z</time></trkpt><trkpt lat="45.5750298" lon="10.3351931"><ele>640.8</ele><time>2026-03-28T08:04:12.61Z</time></trkpt><trkpt lat="45.5750657" lon="10.3353216"><ele>642.2</ele><time>2026-03-28T08:04:13.605Z</time></trkpt><trkpt lat="45.5750808" lon="10.3354507"><ele>643.6</ele><time>2026-03-28T08:04:14.604Z</time></trkpt><trkpt lat="45.5750824" lon="10.3355824"><ele>645.0</ele><time>2026-03-28T08:04:15.603Z</time></trkpt><trkpt lat="45.5750702" lon="10.3357093"><ele>645.8</ele><time>2026-03-28T08:04:16.602Z</time></trkpt><trkpt lat="45.575045" lon="10.3358442"><ele>646.6</ele><time>2026-03-28T08:04:17.599Z</time></trkpt><trkpt lat="45.5750192" lon="10.3359774"><ele>647.4000000000001</ele><time>2026-03-28T08:04:18.6Z</time></trkpt><trkpt lat="45.5750017" lon="10.3361186"><ele>648.2</ele><time>2026-03-28T08:04:19.596Z</time></trkpt><trkpt lat="45.5749752" lon="10.3362484"><ele>649.0</ele><time>2026-03-28T08:04:20.6Z</time></trkpt><trkpt lat="45.5749333" lon="10.3363719"><ele>650.2</ele><time>2026-03-28T08:04:21.601Z</time></trkpt><trkpt lat="45.5748827" lon="10.3364912"><ele>651.4000000000001</ele><time>2026-03-28T08:04:22.605Z</time></trkpt><trkpt lat="45.5748318" lon="10.336622"><ele>652.6</ele><time>2026-03-28T08:04:23.596Z</time></trkpt><trkpt lat="45.5747902" lon="10.3367728"><ele>653.8</ele><time>2026-03-28T08:04:24.604Z</time></trkpt><trkpt lat="45.5747619" lon="10.3369232"><ele>655.0</ele><time>2026-03-28T08:04:25.6Z</time></trkpt><trkpt lat="45.5747409" lon="10.337073"><ele>656.6</ele><time>2026-03-28T08:04:26.601Z</time></trkpt><trkpt lat="45.5747376" lon="10.3372272"><ele>658.2</ele><time>2026-03-28T08:04:27.605Z</time></trkpt><trkpt lat="45.5747433" lon="10.337383"><ele>659.8</ele><time>2026-03-28T08:04:28.608Z</time></trkpt><trkpt lat="45.5747661" lon="10.3375302"><ele>661.4</ele><time>2026-03-28T08:04:29.602Z</time></trkpt><trkpt lat="45.5748057" lon="10.3376822"><ele>663.0</ele><time>2026-03-28T08:04:30.603Z</time></trkpt><trkpt lat="45.5748535" lon="10.3378266"><ele>663.0</ele><time>2026-03-28T08:04:31.604Z</time></trkpt><trkpt lat="45.5748914" lon="10.3379707"><ele>663.0</ele><time>2026-03-28T08:04:32.6Z</time></trkpt><trkpt lat="45.5749289" lon="10.3381091"><ele>663.0</ele><time>2026-03-28T08:04:33.601Z</time></trkpt><trkpt lat="45.5749536" lon="10.3382583"><ele>663.0</ele><time>2026-03-28T08:04:34.601Z</time></trkpt><trkpt lat="45.5749751" lon="10.3383893"><ele>663.0</ele><time>2026-03-28T08:04:35.6Z</time></trkpt><trkpt lat="45.5750018" lon="10.338499"><ele>663.2</ele><time>2026-03-28T08:04:36.599Z</time></trkpt><trkpt lat="45.5750253" lon="10.3386135"><ele>663.4</ele><time>2026-03-28T08:04:37.599Z</time></trkpt><trkpt lat="45.5750513" lon="10.3387434"><ele>663.6</ele><time>2026-03-28T08:04:38.596Z</time></trkpt><trkpt lat="45.5750828" lon="10.3388909"><ele>663.8000000000001</ele><time>2026-03-28T08:04:39.6Z</time></trkpt><trkpt lat="45.5751126" lon="10.3390444"><ele>664.0</ele><time>2026-03-28T08:04:40.606Z</time></trkpt><trkpt lat="45.5751393" lon="10.3392002"><ele>662.4000000000001</ele><time>2026-03-28T08:04:41.6Z</time></trkpt><trkpt lat="45.5751682" lon="10.3393568"><ele>660.8</ele><time>2026-03-28T08:04:42.6Z</time></trkpt><trkpt lat="45.5751922" lon="10.3395136"><ele>659.2</ele><time>2026-03-28T08:04:43.599Z</time></trkpt><trkpt lat="45.5752096" lon="10.3396644"><ele>657.5999999999999</ele><time>2026-03-28T08:04:44.594Z</time></trkpt><trkpt lat="45.5752083" lon="10.3398159"><ele>656.0</ele><time>2026-03-28T08:04:45.593Z</time></trkpt><trkpt lat="45.5752071" lon="10.3399674"><ele>655.5999999999999</ele><time>2026-03-28T08:04:46.595Z</time></trkpt><trkpt lat="45.5752075" lon="10.3401202"><ele>655.2</ele><time>2026-03-28T08:04:47.596Z</time></trkpt><trkpt lat="45.5752088" lon="10.3402632"><ele>654.8</ele><time>2026-03-28T08:04:48.593Z</time></trkpt><trkpt lat="45.5752121" lon="10.3404049"><ele>654.4000000000001</ele><time>2026-03-28T08:04:49.596Z</time></trkpt><trkpt lat="45.5752257" lon="10.3405371"><ele>654.0</ele><time>2026-03-28T08:04:50.592Z</time></trkpt><trkpt lat="45.5752381" lon="10.3406699"><ele>654.0</ele><time>2026-03-28T08:04:51.594Z</time></trkpt><trkpt lat="45.5752394" lon="10.340803"><ele>654.0</ele><time>2026-03-28T08:04:52.59Z</time></trkpt><trkpt lat="45.5752473" lon="10.3409349"><ele>654.0</ele><time>2026-03-28T08:04:53.596Z</time></trkpt><trkpt lat="45.5752541" lon="10.3410556"><ele>654.0</ele><time>2026-03-28T08:04:54.592Z</time></trkpt><trkpt lat="45.5752538" lon="10.3411636"><ele>654.0</ele><time>2026-03-28T08:04:55.588Z</time></trkpt><trkpt lat="45.5752509" lon="10.3412635"><ele>654.0</ele><time>2026-03-28T08:04:56.592Z</time></trkpt><trkpt lat="45.575248" lon="10.3413603"><ele>653.6666666666666</ele><time>2026-03-28T08:04:57.598Z</time></trkpt><trkpt lat="45.5752568" lon="10.3414569"><ele>653.3333333333334</ele><time>2026-03-28T08:04:58.596Z</time></trkpt><trkpt lat="45.5752671" lon="10.3415563"><ele>653.0</ele><time>2026-03-28T08:04:59.592Z</time></trkpt><trkpt lat="45.575269" lon="10.3416678"><ele>652.6666666666667</ele><time>2026-03-28T08:05:00.597Z</time></trkpt><trkpt lat="45.5752677" lon="10.3417868"><ele>652.3333333333334</ele><time>2026-03-28T08:05:01.595Z</time></trkpt><trkpt lat="45.5752719" lon="10.3419071"><ele>652.0</ele><time>2026-03-28T08:05:02.597Z</time></trkpt><trkpt lat="45.575274" lon="10.3420284"><ele>652.0</ele><time>2026-03-28T08:05:03.6Z</time></trkpt><trkpt lat="45.5752699" lon="10.342154"><ele>652.0</ele><time>2026-03-28T08:05:04.59Z</time></trkpt><trkpt lat="45.5752704" lon="10.3422802"><ele>652.0</ele><time>2026-03-28T08:05:05.595Z</time></trkpt><trkpt lat="45.5752702" lon="10.3424062"><ele>652.0</ele><time>2026-03-28T08:05:06.597Z</time></trkpt><trkpt lat="45.575277" lon="10.3425282"><ele>652.0</ele><time>2026-03-28T08:05:07.597Z</time></trkpt><trkpt lat="45.5752785" lon="10.3426527"><ele>652.0</ele><time>2026-03-28T08:05:08.595Z</time></trkpt><trkpt lat="45.5752708" lon="10.3427801"><ele>650.2</ele><time>2026-03-28T08:05:09.594Z</time></trkpt><trkpt lat="45.5752606" lon="10.3429015"><ele>648.4000000000001</ele><time>2026-03-28T08:05:10.597Z</time></trkpt><trkpt lat="45.5752564" lon="10.3430266"><ele>646.5999999999999</ele><time>2026-03-28T08:05:11.598Z</time></trkpt><trkpt lat="45.5752584" lon="10.3431565"><ele>644.8</ele><time>2026-03-28T08:05:12.596Z</time></trkpt><trkpt lat="45.5752629" lon="10.3432914"><ele>643.0</ele><time>2026-03-28T08:05:13.598Z</time></trkpt><trkpt lat="45.5752894" lon="10.3434261"><ele>642.4</ele><time>2026-03-28T08:05:14.601Z</time></trkpt><trkpt lat="45.575331" lon="10.3435681"><ele>641.8</ele><time>2026-03-28T08:05:15.598Z</time></trkpt><trkpt lat="45.5753742" lon="10.3437105"><ele>641.2</ele><time>2026-03-28T08:05:16.598Z</time></trkpt><trkpt lat="45.5754024" lon="10.3438644"><ele>640.6</ele><time>2026-03-28T08:05:17.596Z</time></trkpt><trkpt lat="45.5754322" lon="10.3440073"><ele>640.0</ele><time>2026-03-28T08:05:18.595Z</time></trkpt><trkpt lat="45.5754656" lon="10.3441558"><ele>641.6</ele><time>2026-03-28T08:05:19.598Z</time></trkpt><trkpt lat="45.5755051" lon="10.3443022"><ele>643.2</ele><time>2026-03-28T08:05:20.6Z</time></trkpt><trkpt lat="45.5755359" lon="10.3444586"><ele>644.8</ele><time>2026-03-28T08:05:21.597Z</time></trkpt><trkpt lat="45.5755683" lon="10.3446078"><ele>646.4</ele><time>2026-03-28T08:05:22.594Z</time></trkpt><trkpt lat="45.5755967" lon="10.3447477"><ele>648.0</ele><time>2026-03-28T08:05:23.593Z</time></trkpt><trkpt lat="45.5756175" lon="10.3448767"><ele>648.0</ele><time>2026-03-28T08:05:24.586Z</time></trkpt><trkpt lat="45.5756442" lon="10.3450032"><ele>648.0</ele><time>2026-03-28T08:05:25.596Z</time></trkpt><trkpt lat="45.5756892" lon="10.3451375"><ele>648.0</ele><time>2026-03-28T08:05:26.596Z</time></trkpt><trkpt lat="45.5757525" lon="10.3452714"><ele>648.0</ele><time>2026-03-28T08:05:27.593Z</time></trkpt><trkpt lat="45.5758326" lon="10.3453785"><ele>648.0</ele><time>2026-03-28T08:05:28.597Z</time></trkpt><trkpt lat="45.575925" lon="10.3454679"><ele>649.25</ele><time>2026-03-28T08:05:29.598Z</time></trkpt><trkpt lat="45.5760225" lon="10.3455506"><ele>650.5</ele><time>2026-03-28T08:05:30.595Z</time></trkpt><trkpt lat="45.5761337" lon="10.3456077"><ele>651.75</ele><time>2026-03-28T08:05:31.599Z</time></trkpt><trkpt lat="45.5762443" lon="10.3456569"><ele>653.0</ele><time>2026-03-28T08:05:32.595Z</time></trkpt><trkpt lat="45.5763598" lon="10.3456901"><ele>653.0</ele><time>2026-03-28T08:05:33.597Z</time></trkpt><trkpt lat="45.5764648" lon="10.3457055"><ele>653.0</ele><time>2026-03-28T08:05:34.596Z</time></trkpt><trkpt lat="45.5765785" lon="10.3457092"><ele>653.0</ele><time>2026-03-28T08:05:35.594Z</time></trkpt><trkpt lat="45.5766812" lon="10.3457281"><ele>653.0</ele><time>2026-03-28T08:05:36.59Z</time></trkpt><trkpt lat="45.5767654" lon="10.3457742"><ele>653.0</ele><time>2026-03-28T08:05:37.59Z</time></trkpt><trkpt lat="45.5768236" lon="10.3458558"><ele>653.0</ele><time>2026-03-28T08:05:38.598Z</time></trkpt><trkpt lat="45.5768495" lon="10.3459674"><ele>653.0</ele><time>2026-03-28T08:05:39.593Z</time></trkpt><trkpt lat="45.5768492" lon="10.3460957"><ele>653.0</ele><time>2026-03-28T08:05:40.597Z</time></trkpt><trkpt lat="45.5768379" lon="10.3462344"><ele>653.0</ele><time>2026-03-28T08:05:41.573Z</time></trkpt><trkpt lat="45.5768204" lon="10.3463972"><ele>653.0</ele><time>2026-03-28T08:05:42.582Z</time></trkpt><trkpt lat="45.5768007" lon="10.3465716"><ele>652.4</ele><time>2026-03-28T08:05:43.592Z</time></trkpt><trkpt lat="45.5767797" lon="10.3467429"><ele>651.8</ele><time>2026-03-28T08:05:44.595Z</time></trkpt><trkpt lat="45.5767574" lon="10.3469018"><ele>651.2</ele><time>2026-03-28T08:05:45.594Z</time></trkpt><trkpt lat="45.5767322" lon="10.3470413"><ele>650.6</ele><time>2026-03-28T08:05:46.597Z</time></trkpt><trkpt lat="45.5767023" lon="10.347163"><ele>650.0</ele><time>2026-03-28T08:05:47.593Z</time></trkpt><trkpt lat="45.5766672" lon="10.3472792"><ele>650.0</ele><time>2026-03-28T08:05:48.597Z</time></trkpt><trkpt lat="45.5766409" lon="10.3473944"><ele>650.0</ele><time>2026-03-28T08:05:49.594Z</time></trkpt><trkpt lat="45.5766342" lon="10.3475099"><ele>650.0</ele><time>2026-03-28T08:05:50.588Z</time></trkpt><trkpt lat="45.5766527" lon="10.3476284"><ele>650.0</ele><time>2026-03-28T08:05:51.591Z</time></trkpt><trkpt lat="45.5766943" lon="10.3477375"><ele>650.0</ele><time>2026-03-28T08:05:52.596Z</time></trkpt><trkpt lat="45.5767594" lon="10.3478305"><ele>650.0</ele><time>2026-03-28T08:05:53.595Z</time></trkpt><trkpt lat="45.5768621" lon="10.3478964"><ele>650.0</ele><time>2026-03-28T08:05:54.596Z</time></trkpt><trkpt lat="45.5769843" lon="10.3479466"><ele>650.0</ele><time>2026-03-28T08:05:55.593Z</time></trkpt><trkpt lat="45.5771057" lon="10.3480031"><ele>650.0</ele><time>2026-03-28T08:05:56.597Z</time></trkpt><trkpt lat="45.5772114" lon="10.3480746"><ele>650.0</ele><time>2026-03-28T08:05:57.591Z</time></trkpt><trkpt lat="45.5773004" lon="10.3481635"><ele>650.6</ele><time>2026-03-28T08:05:58.598Z</time></trkpt><trkpt lat="45.5773659" lon="10.3482772"><ele>651.2</ele><time>2026-03-28T08:05:59.595Z</time></trkpt><trkpt lat="45.5774069" lon="10.3484162"><ele>651.8</ele><time>2026-03-28T08:06:00.595Z</time></trkpt><trkpt lat="45.5774316" lon="10.3485794"><ele>652.4</ele><time>2026-03-28T08:06:01.6Z</time></trkpt><trkpt lat="45.5774392" lon="10.348752"><ele>653.0</ele><time>2026-03-28T08:06:02.594Z</time></trkpt><trkpt lat="45.5774227" lon="10.348928"><ele>653.0</ele><time>2026-03-28T08:06:03.592Z</time></trkpt><trkpt lat="45.577375" lon="10.349102"><ele>653.0</ele><time>2026-03-28T08:06:04.594Z</time></trkpt><trkpt lat="45.577309" lon="10.349275"><ele>653.0</ele><time>2026-03-28T08:06:05.591Z</time></trkpt><trkpt lat="45.5772351" lon="10.3494533"><ele>653.0</ele><time>2026-03-28T08:06:06.598Z</time></trkpt><trkpt lat="45.5771641" lon="10.349621"><ele>651.25</ele><time>2026-03-28T08:06:07.597Z</time></trkpt><trkpt lat="45.5770899" lon="10.3497763"><ele>649.5</ele><time>2026-03-28T08:06:08.596Z</time></trkpt><trkpt lat="45.5770157" lon="10.3499163"><ele>647.75</ele><time>2026-03-28T08:06:09.59Z</time></trkpt><trkpt lat="45.5769477" lon="10.3500582"><ele>646.0</ele><time>2026-03-28T08:06:10.597Z</time></trkpt><trkpt lat="45.5769143" lon="10.3501933"><ele>646.0</ele><time>2026-03-28T08:06:11.595Z</time></trkpt><trkpt lat="45.5769369" lon="10.3503096"><ele>646.0</ele><time>2026-03-28T08:06:12.592Z</time></trkpt><trkpt lat="45.5770057" lon="10.3504129"><ele>646.0</ele><time>2026-03-28T08:06:13.599Z</time></trkpt><trkpt lat="45.5770722" lon="10.3505177"><ele>646.0</ele><time>2026-03-28T08:06:14.599Z</time></trkpt><trkpt lat="45.5771227" lon="10.3506237"><ele>646.0</ele><time>2026-03-28T08:06:15.594Z</time></trkpt><trkpt lat="45.5771518" lon="10.3507196"><ele>646.0</ele><time>2026-03-28T08:06:16.59Z</time></trkpt><trkpt lat="45.5771511" lon="10.3508591"><ele>646.75</ele><time>2026-03-28T08:06:18.591Z</time></trkpt><trkpt lat="45.5770395" lon="10.3509098"><ele>647.5</ele><time>2026-03-28T08:06:20.59Z</time></trkpt><trkpt lat="45.576924" lon="10.350906"><ele>648.25</ele><time>2026-03-28T08:06:21.597Z</time></trkpt><trkpt lat="45.5767997" lon="10.3508819"><ele>649.0</ele><time>2026-03-28T08:06:22.591Z</time></trkpt><trkpt lat="45.5766732" lon="10.3508448"><ele>649.0</ele><time>2026-03-28T08:06:23.589Z</time></trkpt><trkpt lat="45.5765486" lon="10.3508013"><ele>649.0</ele><time>2026-03-28T08:06:24.587Z</time></trkpt><trkpt lat="45.576429" lon="10.3507596"><ele>649.0</ele><time>2026-03-28T08:06:25.592Z</time></trkpt><trkpt lat="45.576321" lon="10.3507262"><ele>649.0</ele><time>2026-03-28T08:06:26.593Z</time></trkpt><trkpt lat="45.5762168" lon="10.3507055"><ele>648.2</ele><time>2026-03-28T08:06:27.59Z</time></trkpt><trkpt lat="45.5761169" lon="10.3507082"><ele>647.4000000000001</ele><time>2026-03-28T08:06:28.589Z</time></trkpt><trkpt lat="45.5760183" lon="10.3507333"><ele>646.6</ele><time>2026-03-28T08:06:29.595Z</time></trkpt><trkpt lat="45.5759232" lon="10.3507885"><ele>645.8</ele><time>2026-03-28T08:06:30.593Z</time></trkpt><trkpt lat="45.5758296" lon="10.3508758"><ele>645.0</ele><time>2026-03-28T08:06:31.594Z</time></trkpt><trkpt lat="45.5757458" lon="10.3509859"><ele>645.0</ele><time>2026-03-28T08:06:32.589Z</time></trkpt><trkpt lat="45.5756646" lon="10.3511053"><ele>645.0</ele><time>2026-03-28T08:06:33.591Z</time></trkpt><trkpt lat="45.5755884" lon="10.3512341"><ele>645.0</ele><time>2026-03-28T08:06:34.593Z</time></trkpt><trkpt lat="45.5755196" lon="10.3513731"><ele>645.0</ele><time>2026-03-28T08:06:35.591Z</time></trkpt><trkpt lat="45.5754633" lon="10.3515177"><ele>648.0</ele><time>2026-03-28T08:06:36.595Z</time></trkpt><trkpt lat="45.5754296" lon="10.3516626"><ele>651.0</ele><time>2026-03-28T08:06:37.595Z</time></trkpt><trkpt lat="45.5754181" lon="10.3518055"><ele>654.0</ele><time>2026-03-28T08:06:38.597Z</time></trkpt><trkpt lat="45.5754395" lon="10.3519503"><ele>657.0</ele><time>2026-03-28T08:06:39.594Z</time></trkpt><trkpt lat="45.5754853" lon="10.3521046"><ele>660.0</ele><time>2026-03-28T08:06:40.6Z</time></trkpt><trkpt lat="45.5755457" lon="10.3522734"><ele>660.0</ele><time>2026-03-28T08:06:41.603Z</time></trkpt><trkpt lat="45.5756113" lon="10.3524491"><ele>660.0</ele><time>2026-03-28T08:06:42.597Z</time></trkpt><trkpt lat="45.5756815" lon="10.3526265"><ele>660.0</ele><time>2026-03-28T08:06:43.599Z</time></trkpt><trkpt lat="45.5757542" lon="10.3527987"><ele>660.0</ele><time>2026-03-28T08:06:44.6Z</time></trkpt><trkpt lat="45.575829" lon="10.3529585"><ele>658.5</ele><time>2026-03-28T08:06:45.601Z</time></trkpt><trkpt lat="45.5759" lon="10.3531147"><ele>657.0</ele><time>2026-03-28T08:06:46.601Z</time></trkpt><trkpt lat="45.5759572" lon="10.3532741"><ele>655.5</ele><time>2026-03-28T08:06:47.6Z</time></trkpt><trkpt lat="45.5759902" lon="10.3534475"><ele>654.0</ele><time>2026-03-28T08:06:48.602Z</time></trkpt><trkpt lat="45.5760012" lon="10.3536346"><ele>654.0</ele><time>2026-03-28T08:06:49.598Z</time></trkpt><trkpt lat="45.5760024" lon="10.3538285"><ele>654.0</ele><time>2026-03-28T08:06:50.598Z</time></trkpt><trkpt lat="45.5759982" lon="10.3540221"><ele>654.0</ele><time>2026-03-28T08:06:51.599Z</time></trkpt><trkpt lat="45.5759816" lon="10.3542045"><ele>654.0</ele><time>2026-03-28T08:06:52.598Z</time></trkpt><trkpt lat="45.5759472" lon="10.3543595"><ele>654.75</ele><time>2026-03-28T08:06:53.59Z</time></trkpt><trkpt lat="45.5758657" lon="10.3544692"><ele>655.5</ele><time>2026-03-28T08:06:54.592Z</time></trkpt><trkpt lat="45.5757609" lon="10.3545718"><ele>656.25</ele><time>2026-03-28T08:06:55.59Z</time></trkpt><trkpt lat="45.5756461" lon="10.3546786"><ele>657.0</ele><time>2026-03-28T08:06:56.593Z</time></trkpt><trkpt lat="45.5755269" lon="10.3547972"><ele>656.0</ele><time>2026-03-28T08:06:57.592Z</time></trkpt><trkpt lat="45.575411" lon="10.3549326"><ele>655.0</ele><time>2026-03-28T08:06:58.592Z</time></trkpt><trkpt lat="45.5753004" lon="10.3550643"><ele>654.0</ele><time>2026-03-28T08:06:59.591Z</time></trkpt><trkpt lat="45.5751889" lon="10.3551662"><ele>653.0</ele><time>2026-03-28T08:07:00.589Z</time></trkpt><trkpt lat="45.5750722" lon="10.355209"><ele>653.0</ele><time>2026-03-28T08:07:01.596Z</time></trkpt><trkpt lat="45.5749423" lon="10.3552324"><ele>653.0</ele><time>2026-03-28T08:07:02.601Z</time></trkpt><trkpt lat="45.57482" lon="10.3552797"><ele>653.0</ele><time>2026-03-28T08:07:03.596Z</time></trkpt><trkpt lat="45.5747064" lon="10.3553625"><ele>653.0</ele><time>2026-03-28T08:07:04.595Z</time></trkpt><trkpt lat="45.5746156" lon="10.3554517"><ele>653.0</ele><time>2026-03-28T08:07:05.599Z</time></trkpt><trkpt lat="45.5745294" lon="10.3555147"><ele>653.0</ele><time>2026-03-28T08:07:06.591Z</time></trkpt><trkpt lat="45.5744466" lon="10.3555487"><ele>653.0</ele><time>2026-03-28T08:07:07.598Z</time></trkpt><trkpt lat="45.574363" lon="10.355501"><ele>653.0</ele><time>2026-03-28T08:07:08.595Z</time></trkpt><trkpt lat="45.5742745" lon="10.355462"><ele>653.0</ele><time>2026-03-28T08:07:09.598Z</time></trkpt><trkpt lat="45.5742044" lon="10.3553576"><ele>653.0</ele><time>2026-03-28T08:07:10.59Z</time></trkpt><trkpt lat="45.5741388" lon="10.355234"><ele>653.0</ele><time>2026-03-28T08:07:11.596Z</time></trkpt><trkpt lat="45.5740744" lon="10.3551215"><ele>653.0</ele><time>2026-03-28T08:07:12.6Z</time></trkpt><trkpt lat="45.5740111" lon="10.3550267"><ele>653.0</ele><time>2026-03-28T08:07:13.596Z</time></trkpt><trkpt lat="45.5739384" lon="10.3549549"><ele>653.0</ele><time>2026-03-28T08:07:14.597Z</time></trkpt><trkpt lat="45.5738581" lon="10.3549129"><ele>653.0</ele><time>2026-03-28T08:07:15.592Z</time></trkpt><trkpt lat="45.5737757" lon="10.3549091"><ele>653.0</ele><time>2026-03-28T08:07:16.594Z</time></trkpt><trkpt lat="45.5736882" lon="10.3549362"><ele>653.0</ele><time>2026-03-28T08:07:17.593Z</time></trkpt><trkpt lat="45.5735924" lon="10.3550066"><ele>653.0</ele><time>2026-03-28T08:07:18.591Z</time></trkpt><trkpt lat="45.5734982" lon="10.3550955"><ele>653.0</ele><time>2026-03-28T08:07:19.591Z</time></trkpt><trkpt lat="45.5734313" lon="10.3551962"><ele>653.5</ele><time>2026-03-28T08:07:20.591Z</time></trkpt><trkpt lat="45.5733696" lon="10.3553291"><ele>654.0</ele><time>2026-03-28T08:07:21.589Z</time></trkpt><trkpt lat="45.5732967" lon="10.3554863"><ele>654.5</ele><time>2026-03-28T08:07:22.593Z</time></trkpt><trkpt lat="45.5732208" lon="10.3556535"><ele>655.0</ele><time>2026-03-28T08:07:23.594Z</time></trkpt><trkpt lat="45.5731531" lon="10.3558273"><ele>655.0</ele><time>2026-03-28T08:07:24.594Z</time></trkpt><trkpt lat="45.5730782" lon="10.3560062"><ele>655.0</ele><time>2026-03-28T08:07:25.6Z</time></trkpt><trkpt lat="45.5729997" lon="10.3562046"><ele>655.0</ele><time>2026-03-28T08:07:26.596Z</time></trkpt><trkpt lat="45.5729271" lon="10.356411"><ele>654.75</ele><time>2026-03-28T08:07:27.596Z</time></trkpt><trkpt lat="45.5728589" lon="10.356605"><ele>654.5</ele><time>2026-03-28T08:07:28.591Z</time></trkpt><trkpt lat="45.5727983" lon="10.3567897"><ele>654.25</ele><time>2026-03-28T08:07:29.597Z</time></trkpt><trkpt lat="45.5727292" lon="10.3569552"><ele>654.0</ele><time>2026-03-28T08:07:30.593Z</time></trkpt><trkpt lat="45.5726603" lon="10.3571066"><ele>653.5</ele><time>2026-03-28T08:07:31.592Z</time></trkpt><trkpt lat="45.5725789" lon="10.3572329"><ele>653.0</ele><time>2026-03-28T08:07:32.59Z</time></trkpt><trkpt lat="45.5725032" lon="10.3573596"><ele>652.5</ele><time>2026-03-28T08:07:33.595Z</time></trkpt><trkpt lat="45.5724369" lon="10.357516"><ele>652.0</ele><time>2026-03-28T08:07:34.593Z</time></trkpt><trkpt lat="45.5723867" lon="10.3576886"><ele>652.0</ele><time>2026-03-28T08:07:35.594Z</time></trkpt><trkpt lat="45.5723461" lon="10.3578687"><ele>652.0</ele><time>2026-03-28T08:07:36.595Z</time></trkpt><trkpt lat="45.5722973" lon="10.3580453"><ele>652.0</ele><time>2026-03-28T08:07:37.598Z</time></trkpt><trkpt lat="45.5722552" lon="10.3582187"><ele>652.0</ele><time>2026-03-28T08:07:38.598Z</time></trkpt><trkpt lat="45.5722166" lon="10.3584067"><ele>653.0</ele><time>2026-03-28T08:07:39.601Z</time></trkpt><trkpt lat="45.5721729" lon="10.3586194"><ele>654.0</ele><time>2026-03-28T08:07:40.602Z</time></trkpt><trkpt lat="45.5721305" lon="10.358826"><ele>655.0</ele><time>2026-03-28T08:07:41.604Z</time></trkpt><trkpt lat="45.5720955" lon="10.359024"><ele>656.0</ele><time>2026-03-28T08:07:42.602Z</time></trkpt><trkpt lat="45.5720652" lon="10.3592042"><ele>656.5</ele><time>2026-03-28T08:07:43.599Z</time></trkpt><trkpt lat="45.5720261" lon="10.3593785"><ele>657.0</ele><time>2026-03-28T08:07:44.6Z</time></trkpt><trkpt lat="45.5719659" lon="10.359552"><ele>657.5</ele><time>2026-03-28T08:07:45.599Z</time></trkpt><trkpt lat="45.5719288" lon="10.3597431"><ele>658.0</ele><time>2026-03-28T08:07:46.604Z</time></trkpt><trkpt lat="45.571918" lon="10.3599435"><ele>658.5</ele><time>2026-03-28T08:07:47.595Z</time></trkpt><trkpt lat="45.5719495" lon="10.3601507"><ele>659.0</ele><time>2026-03-28T08:07:48.595Z</time></trkpt><trkpt lat="45.5719673" lon="10.360341"><ele>659.5</ele><time>2026-03-28T08:07:49.594Z</time></trkpt><trkpt lat="45.571957" lon="10.3605136"><ele>660.0</ele><time>2026-03-28T08:07:50.59Z</time></trkpt><trkpt lat="45.5719361" lon="10.360646"><ele>660.0</ele><time>2026-03-28T08:07:51.593Z</time></trkpt><trkpt lat="45.571884" lon="10.3607328"><ele>660.0</ele><time>2026-03-28T08:07:52.59Z</time></trkpt><trkpt lat="45.5717539" lon="10.3607734"><ele>660.0</ele><time>2026-03-28T08:07:54.593Z</time></trkpt><trkpt lat="45.5716915" lon="10.3607477"><ele>660.0</ele><time>2026-03-28T08:07:55.595Z</time></trkpt><trkpt lat="45.5716281" lon="10.3606526"><ele>660.0</ele><time>2026-03-28T08:07:56.602Z</time></trkpt><trkpt lat="45.5715792" lon="10.3605288"><ele>660.0</ele><time>2026-03-28T08:07:57.6Z</time></trkpt><trkpt lat="45.57151" lon="10.3604041"><ele>660.0</ele><time>2026-03-28T08:07:58.597Z</time></trkpt><trkpt lat="45.5714249" lon="10.3602923"><ele>660.0</ele><time>2026-03-28T08:07:59.594Z</time></trkpt><trkpt lat="45.57137" lon="10.3601685"><ele>660.0</ele><time>2026-03-28T08:08:00.599Z</time></trkpt><trkpt lat="45.5713267" lon="10.3600539"><ele>660.0</ele><time>2026-03-28T08:08:01.599Z</time></trkpt><trkpt lat="45.571266" lon="10.3599514"><ele>660.0</ele><time>2026-03-28T08:08:02.598Z</time></trkpt><trkpt lat="45.5711997" lon="10.359883"><ele>660.0</ele><time>2026-03-28T08:08:03.601Z</time></trkpt><trkpt lat="45.5711015" lon="10.3598669"><ele>660.0</ele><time>2026-03-28T08:08:04.598Z</time></trkpt><trkpt lat="45.5710081" lon="10.359877"><ele>660.0</ele><time>2026-03-28T08:08:05.593Z</time></trkpt><trkpt lat="45.5709088" lon="10.3599272"><ele>660.0</ele><time>2026-03-28T08:08:06.588Z</time></trkpt><trkpt lat="45.5708073" lon="10.3599853"><ele>661.0</ele><time>2026-03-28T08:08:07.595Z</time></trkpt><trkpt lat="45.5706965" lon="10.3600172"><ele>662.0</ele><time>2026-03-28T08:08:08.597Z</time></trkpt><trkpt lat="45.5705834" lon="10.3600293"><ele>663.0</ele><time>2026-03-28T08:08:09.595Z</time></trkpt><trkpt lat="45.5704722" lon="10.3600404"><ele>664.0</ele><time>2026-03-28T08:08:10.595Z</time></trkpt><trkpt lat="45.5703694" lon="10.360072"><ele>665.0</ele><time>2026-03-28T08:08:11.6Z</time></trkpt><trkpt lat="45.5702663" lon="10.3601457"><ele>665.6</ele><time>2026-03-28T08:08:12.595Z</time></trkpt><trkpt lat="45.5701792" lon="10.3602536"><ele>666.2</ele><time>2026-03-28T08:08:13.597Z</time></trkpt><trkpt lat="45.5701086" lon="10.3603712"><ele>666.8</ele><time>2026-03-28T08:08:14.599Z</time></trkpt><trkpt lat="45.5700635" lon="10.3604727"><ele>667.4</ele><time>2026-03-28T08:08:15.597Z</time></trkpt><trkpt lat="45.5700281" lon="10.3605578"><ele>668.0</ele><time>2026-03-28T08:08:16.594Z</time></trkpt><trkpt lat="45.5700075" lon="10.3606861"><ele>665.25</ele><time>2026-03-28T08:08:18.595Z</time></trkpt><trkpt lat="45.5699875" lon="10.3608935"><ele>662.5</ele><time>2026-03-28T08:08:47.6Z</time></trkpt><trkpt lat="45.5700643" lon="10.3610308"><ele>659.75</ele><time>2026-03-28T08:08:49.613Z</time></trkpt><trkpt lat="45.5701598" lon="10.3611529"><ele>657.0</ele><time>2026-03-28T08:08:51.604Z</time></trkpt><trkpt lat="45.5702088" lon="10.3612389"><ele>657.0</ele><time>2026-03-28T08:08:52.603Z</time></trkpt><trkpt lat="45.5702649" lon="10.3613364"><ele>657.0</ele><time>2026-03-28T08:08:53.601Z</time></trkpt><trkpt lat="45.5703105" lon="10.3614341"><ele>657.0</ele><time>2026-03-28T08:08:54.605Z</time></trkpt><trkpt lat="45.5703346" lon="10.3615252"><ele>657.0</ele><time>2026-03-28T08:08:55.604Z</time></trkpt><trkpt lat="45.5703881" lon="10.3616822"><ele>657.0</ele><time>2026-03-28T08:08:57.602Z</time></trkpt><trkpt lat="45.5704238" lon="10.3617716"><ele>657.0</ele><time>2026-03-28T08:08:58.606Z</time></trkpt><trkpt lat="45.5704827" lon="10.3619136"><ele>658.4000000000001</ele><time>2026-03-28T08:09:00.605Z</time></trkpt><trkpt lat="45.570577" lon="10.3620356"><ele>659.8000000000001</ele><time>2026-03-28T08:09:02.595Z</time></trkpt><trkpt lat="45.5706316" lon="10.3621056"><ele>661.2</ele><time>2026-03-28T08:09:03.599Z</time></trkpt><trkpt lat="45.5707118" lon="10.3622433"><ele>662.6</ele><time>2026-03-28T08:09:05.603Z</time></trkpt><trkpt lat="45.5707903" lon="10.3623426"><ele>664.0</ele><time>2026-03-28T08:09:07.597Z</time></trkpt><trkpt lat="45.5708744" lon="10.3623371"><ele>664.0</ele><time>2026-03-28T08:09:08.601Z</time></trkpt><trkpt lat="45.5709388" lon="10.3623382"><ele>664.0</ele><time>2026-03-28T08:09:09.603Z</time></trkpt><trkpt lat="45.5710018" lon="10.3623179"><ele>664.0</ele><time>2026-03-28T08:09:10.593Z</time></trkpt><trkpt lat="45.5711385" lon="10.3623145"><ele>664.0</ele><time>2026-03-28T08:09:12.602Z</time></trkpt><trkpt lat="45.5711953" lon="10.3623619"><ele>664.0</ele><time>2026-03-28T08:09:13.598Z</time></trkpt><trkpt lat="45.5712718" lon="10.3624882"><ele>664.0</ele><time>2026-03-28T08:09:15.598Z</time></trkpt><trkpt lat="45.5713139" lon="10.3625633"><ele>666.3333333333334</ele><time>2026-03-28T08:09:16.602Z</time></trkpt><trkpt lat="45.5713578" lon="10.3626473"><ele>668.6666666666667</ele><time>2026-03-28T08:09:17.606Z</time></trkpt><trkpt lat="45.5714012" lon="10.3627216"><ele>671.0</ele><time>2026-03-28T08:09:18.595Z</time></trkpt><trkpt lat="45.5714938" lon="10.3627949"><ele>673.3333333333334</ele><time>2026-03-28T08:09:20.596Z</time></trkpt><trkpt lat="45.5715778" lon="10.3627796"><ele>675.6666666666666</ele><time>2026-03-28T08:09:21.6Z</time></trkpt><trkpt lat="45.5716517" lon="10.3627433"><ele>678.0</ele><time>2026-03-28T08:09:22.601Z</time></trkpt><trkpt lat="45.5717256" lon="10.3626781"><ele>678.0</ele><time>2026-03-28T08:09:23.601Z</time></trkpt><trkpt lat="45.5717851" lon="10.3626192"><ele>678.0</ele><time>2026-03-28T08:09:24.598Z</time></trkpt><trkpt lat="45.5718817" lon="10.3625225"><ele>678.0</ele><time>2026-03-28T08:09:26.594Z</time></trkpt><trkpt lat="45.5719884" lon="10.362556"><ele>678.0</ele><time>2026-03-28T08:09:28.604Z</time></trkpt><trkpt lat="45.5720465" lon="10.3626277"><ele>678.0</ele><time>2026-03-28T08:09:29.597Z</time></trkpt><trkpt lat="45.5721009" lon="10.3627165"><ele>678.1666666666666</ele><time>2026-03-28T08:09:30.605Z</time></trkpt><trkpt lat="45.5721629" lon="10.3628028"><ele>678.3333333333334</ele><time>2026-03-28T08:09:31.602Z</time></trkpt><trkpt lat="45.5722236" lon="10.3628722"><ele>678.5</ele><time>2026-03-28T08:09:32.601Z</time></trkpt><trkpt lat="45.5722936" lon="10.3629244"><ele>678.6666666666667</ele><time>2026-03-28T08:09:33.601Z</time></trkpt><trkpt lat="45.572366" lon="10.3629476"><ele>678.8333333333334</ele><time>2026-03-28T08:09:34.598Z</time></trkpt><trkpt lat="45.5724313" lon="10.3629408"><ele>679.0</ele><time>2026-03-28T08:09:35.597Z</time></trkpt><trkpt lat="45.572496" lon="10.3629128"><ele>679.0</ele><time>2026-03-28T08:09:36.597Z</time></trkpt><trkpt lat="45.5725648" lon="10.3628598"><ele>679.0</ele><time>2026-03-28T08:09:37.602Z</time></trkpt><trkpt lat="45.5726404" lon="10.3627741"><ele>679.0</ele><time>2026-03-28T08:09:38.607Z</time></trkpt><trkpt lat="45.5727361" lon="10.3626797"><ele>679.0</ele><time>2026-03-28T08:09:39.598Z</time></trkpt><trkpt lat="45.5728231" lon="10.3625742"><ele>679.0</ele><time>2026-03-28T08:09:40.606Z</time></trkpt><trkpt lat="45.5729115" lon="10.3624709"><ele>679.2</ele><time>2026-03-28T08:09:41.602Z</time></trkpt><trkpt lat="45.572998" lon="10.3623821"><ele>679.4000000000001</ele><time>2026-03-28T08:09:42.6Z</time></trkpt><trkpt lat="45.573083" lon="10.3622921"><ele>679.6</ele><time>2026-03-28T08:09:43.608Z</time></trkpt><trkpt lat="45.5731736" lon="10.3622076"><ele>679.8</ele><time>2026-03-28T08:09:44.605Z</time></trkpt><trkpt lat="45.5732711" lon="10.3621296"><ele>680.0</ele><time>2026-03-28T08:09:45.606Z</time></trkpt><trkpt lat="45.5733598" lon="10.3620512"><ele>680.0</ele><time>2026-03-28T08:09:46.608Z</time></trkpt><trkpt lat="45.5734476" lon="10.3619759"><ele>680.0</ele><time>2026-03-28T08:09:47.608Z</time></trkpt><trkpt lat="45.5735341" lon="10.3619078"><ele>680.0</ele><time>2026-03-28T08:09:48.605Z</time></trkpt><trkpt lat="45.573604" lon="10.3618417"><ele>680.0</ele><time>2026-03-28T08:09:49.607Z</time></trkpt><trkpt lat="45.5736693" lon="10.3617868"><ele>680.0</ele><time>2026-03-28T08:09:50.606Z</time></trkpt><trkpt lat="45.5737354" lon="10.3617474"><ele>680.0</ele><time>2026-03-28T08:09:51.604Z</time></trkpt><trkpt lat="45.5737958" lon="10.3617066"><ele>682.6</ele><time>2026-03-28T08:09:52.604Z</time></trkpt><trkpt lat="45.573903" lon="10.3616406"><ele>685.2</ele><time>2026-03-28T08:09:54.599Z</time></trkpt><trkpt lat="45.5739671" lon="10.3616349"><ele>687.8</ele><time>2026-03-28T08:09:55.602Z</time></trkpt><trkpt lat="45.5740825" lon="10.3616544"><ele>690.4</ele><time>2026-03-28T08:09:57.601Z</time></trkpt><trkpt lat="45.5741531" lon="10.3616707"><ele>693.0</ele><time>2026-03-28T08:09:58.594Z</time></trkpt><trkpt lat="45.5742853" lon="10.3616807"><ele>693.0</ele><time>2026-03-28T08:10:00.591Z</time></trkpt><trkpt lat="45.5743561" lon="10.3616786"><ele>693.0</ele><time>2026-03-28T08:10:01.597Z</time></trkpt><trkpt lat="45.5744207" lon="10.3616785"><ele>693.0</ele><time>2026-03-28T08:10:02.593Z</time></trkpt><trkpt lat="45.5744996" lon="10.3617041"><ele>693.0</ele><time>2026-03-28T08:10:03.596Z</time></trkpt><trkpt lat="45.5745691" lon="10.3617264"><ele>693.0</ele><time>2026-03-28T08:10:04.6Z</time></trkpt><trkpt lat="45.5746353" lon="10.3617387"><ele>693.0</ele><time>2026-03-28T08:10:05.598Z</time></trkpt><trkpt lat="45.5746993" lon="10.3617252"><ele>693.0</ele><time>2026-03-28T08:10:06.592Z</time></trkpt><trkpt lat="45.5747636" lon="10.3617246"><ele>693.6666666666666</ele><time>2026-03-28T08:10:07.602Z</time></trkpt><trkpt lat="45.5748423" lon="10.3617067"><ele>694.3333333333334</ele><time>2026-03-28T08:10:08.604Z</time></trkpt><trkpt lat="45.5749193" lon="10.3616833"><ele>695.0</ele><time>2026-03-28T08:10:09.603Z</time></trkpt><trkpt lat="45.5750145" lon="10.3616571"><ele>695.6666666666667</ele><time>2026-03-28T08:10:10.598Z</time></trkpt><trkpt lat="45.5751039" lon="10.361636"><ele>696.3333333333334</ele><time>2026-03-28T08:10:11.604Z</time></trkpt><trkpt lat="45.57519" lon="10.3616285"><ele>697.0</ele><time>2026-03-28T08:10:12.604Z</time></trkpt><trkpt lat="45.5752784" lon="10.3616098"><ele>697.3333333333334</ele><time>2026-03-28T08:10:13.599Z</time></trkpt><trkpt lat="45.5753578" lon="10.3616094"><ele>697.6666666666667</ele><time>2026-03-28T08:10:14.599Z</time></trkpt><trkpt lat="45.5754462" lon="10.361629"><ele>698.0</ele><time>2026-03-28T08:10:15.601Z</time></trkpt><trkpt lat="45.5755367" lon="10.3616483"><ele>698.3333333333334</ele><time>2026-03-28T08:10:16.607Z</time></trkpt><trkpt lat="45.5756207" lon="10.3616657"><ele>698.6666666666666</ele><time>2026-03-28T08:10:17.6Z</time></trkpt><trkpt lat="45.5756964" lon="10.3616949"><ele>699.0</ele><time>2026-03-28T08:10:18.601Z</time></trkpt><trkpt lat="45.5758113" lon="10.3617757"><ele>699.0</ele><time>2026-03-28T08:10:20.596Z</time></trkpt><trkpt lat="45.5758724" lon="10.3618458"><ele>699.0</ele><time>2026-03-28T08:10:21.597Z</time></trkpt><trkpt lat="45.5759236" lon="10.3619341"><ele>699.0</ele><time>2026-03-28T08:10:22.6Z</time></trkpt><trkpt lat="45.5759798" lon="10.362039"><ele>699.0</ele><time>2026-03-28T08:10:23.597Z</time></trkpt><trkpt lat="45.5760316" lon="10.3621525"><ele>699.0</ele><time>2026-03-28T08:10:24.603Z</time></trkpt><trkpt lat="45.5760901" lon="10.3622713"><ele>699.0</ele><time>2026-03-28T08:10:25.607Z</time></trkpt><trkpt lat="45.576143" lon="10.3623915"><ele>696.8000000000001</ele><time>2026-03-28T08:10:26.603Z</time></trkpt><trkpt lat="45.576198" lon="10.3625164"><ele>694.6</ele><time>2026-03-28T08:10:27.602Z</time></trkpt><trkpt lat="45.5762494" lon="10.3626425"><ele>692.4</ele><time>2026-03-28T08:10:28.602Z</time></trkpt><trkpt lat="45.5763026" lon="10.3627576"><ele>690.2</ele><time>2026-03-28T08:10:29.605Z</time></trkpt><trkpt lat="45.5763643" lon="10.362853"><ele>688.0</ele><time>2026-03-28T08:10:30.605Z</time></trkpt><trkpt lat="45.5764286" lon="10.3629428"><ele>688.0</ele><time>2026-03-28T08:10:31.604Z</time></trkpt><trkpt lat="45.5764874" lon="10.3630255"><ele>688.0</ele><time>2026-03-28T08:10:32.601Z</time></trkpt><trkpt lat="45.5765496" lon="10.3631047"><ele>688.0</ele><time>2026-03-28T08:10:33.603Z</time></trkpt><trkpt lat="45.5766026" lon="10.3631865"><ele>688.0</ele><time>2026-03-28T08:10:34.603Z</time></trkpt><trkpt lat="45.5766513" lon="10.3632826"><ele>688.0</ele><time>2026-03-28T08:10:35.603Z</time></trkpt><trkpt lat="45.576687" lon="10.3633769"><ele>688.0</ele><time>2026-03-28T08:10:36.605Z</time></trkpt><trkpt lat="45.5767182" lon="10.3634779"><ele>688.6666666666667</ele><time>2026-03-28T08:10:37.605Z</time></trkpt><trkpt lat="45.5767381" lon="10.3635814"><ele>689.3333333333334</ele><time>2026-03-28T08:10:38.603Z</time></trkpt><trkpt lat="45.5767557" lon="10.3636823"><ele>690.0</ele><time>2026-03-28T08:10:39.608Z</time></trkpt><trkpt lat="45.5767725" lon="10.3637758"><ele>690.6666666666666</ele><time>2026-03-28T08:10:40.598Z</time></trkpt><trkpt lat="45.5767697" lon="10.3639187"><ele>691.3333333333333</ele><time>2026-03-28T08:10:42.6Z</time></trkpt><trkpt lat="45.5767509" lon="10.3640285"><ele>692.0</ele><time>2026-03-28T08:10:44.598Z</time></trkpt><trkpt lat="45.5768145" lon="10.3640447"><ele>692.0</ele><time>2026-03-28T08:10:46.608Z</time></trkpt><trkpt lat="45.5768924" lon="10.3640282"><ele>692.0</ele><time>2026-03-28T08:10:47.602Z</time></trkpt><trkpt lat="45.5769886" lon="10.3640227"><ele>692.0</ele><time>2026-03-28T08:10:48.604Z</time></trkpt><trkpt lat="45.577077" lon="10.3640191"><ele>692.0</ele><time>2026-03-28T08:10:49.604Z</time></trkpt><trkpt lat="45.5771479" lon="10.3640299"><ele>692.0</ele><time>2026-03-28T08:10:50.6Z</time></trkpt><trkpt lat="45.5772164" lon="10.3640473"><ele>692.0</ele><time>2026-03-28T08:10:51.602Z</time></trkpt><trkpt lat="45.5772909" lon="10.3640875"><ele>691.4000000000001</ele><time>2026-03-28T08:10:52.596Z</time></trkpt><trkpt lat="45.5773649" lon="10.3641509"><ele>690.8000000000001</ele><time>2026-03-28T08:10:53.596Z</time></trkpt><trkpt lat="45.5774409" lon="10.3642338"><ele>690.2</ele><time>2026-03-28T08:10:54.601Z</time></trkpt><trkpt lat="45.5775207" lon="10.3643257"><ele>689.6</ele><time>2026-03-28T08:10:55.602Z</time></trkpt><trkpt lat="45.5776079" lon="10.3644123"><ele>689.0</ele><time>2026-03-28T08:10:56.599Z</time></trkpt><trkpt lat="45.5776842" lon="10.364485"><ele>689.0</ele><time>2026-03-28T08:10:57.601Z</time></trkpt><trkpt lat="45.577765" lon="10.3645458"><ele>689.0</ele><time>2026-03-28T08:10:58.604Z</time></trkpt><trkpt lat="45.5778416" lon="10.3645896"><ele>689.0</ele><time>2026-03-28T08:10:59.599Z</time></trkpt><trkpt lat="45.5779279" lon="10.3646161"><ele>689.0</ele><time>2026-03-28T08:11:00.601Z</time></trkpt><trkpt lat="45.5780236" lon="10.3646418"><ele>689.0</ele><time>2026-03-28T08:11:01.606Z</time></trkpt><trkpt lat="45.5781132" lon="10.3646789"><ele>688.6666666666666</ele><time>2026-03-28T08:11:02.6Z</time></trkpt><trkpt lat="45.5781982" lon="10.3647107"><ele>688.3333333333333</ele><time>2026-03-28T08:11:03.607Z</time></trkpt><trkpt lat="45.5782699" lon="10.3647468"><ele>688.0</ele><time>2026-03-28T08:11:04.599Z</time></trkpt><trkpt lat="45.5783699" lon="10.3647961"><ele>687.6666666666666</ele><time>2026-03-28T08:11:06.61Z</time></trkpt><trkpt lat="45.5784321" lon="10.3648168"><ele>687.3333333333334</ele><time>2026-03-28T08:11:08.606Z</time></trkpt><trkpt lat="45.5784908" lon="10.3647696"><ele>687.0</ele><time>2026-03-28T08:11:10.604Z</time></trkpt><trkpt lat="45.5786136" lon="10.3646571"><ele>688.4000000000001</ele><time>2026-03-28T08:11:12.6Z</time></trkpt><trkpt lat="45.5786957" lon="10.3646052"><ele>689.8000000000001</ele><time>2026-03-28T08:11:13.604Z</time></trkpt><trkpt lat="45.5787885" lon="10.3645799"><ele>691.2</ele><time>2026-03-28T08:11:14.605Z</time></trkpt><trkpt lat="45.5788863" lon="10.364538"><ele>692.6</ele><time>2026-03-28T08:11:15.601Z</time></trkpt><trkpt lat="45.5789853" lon="10.36449"><ele>694.0</ele><time>2026-03-28T08:11:16.602Z</time></trkpt><trkpt lat="45.5790895" lon="10.36445"><ele>694.0</ele><time>2026-03-28T08:11:17.605Z</time></trkpt><trkpt lat="45.5791971" lon="10.3644057"><ele>694.0</ele><time>2026-03-28T08:11:18.6Z</time></trkpt><trkpt lat="45.5792918" lon="10.364362"><ele>694.0</ele><time>2026-03-28T08:11:19.606Z</time></trkpt><trkpt lat="45.5793769" lon="10.3643119"><ele>694.0</ele><time>2026-03-28T08:11:20.609Z</time></trkpt><trkpt lat="45.579454" lon="10.364258"><ele>694.0</ele><time>2026-03-28T08:11:21.606Z</time></trkpt><trkpt lat="45.579529" lon="10.3641895"><ele>694.8000000000001</ele><time>2026-03-28T08:11:22.6Z</time></trkpt><trkpt lat="45.5795926" lon="10.3641114"><ele>695.6</ele><time>2026-03-28T08:11:23.603Z</time></trkpt><trkpt lat="45.5796584" lon="10.3640335"><ele>696.4</ele><time>2026-03-28T08:11:24.6Z</time></trkpt><trkpt lat="45.5797284" lon="10.3639791"><ele>697.2</ele><time>2026-03-28T08:11:25.586Z</time></trkpt><trkpt lat="45.5798224" lon="10.3639499"><ele>698.0</ele><time>2026-03-28T08:11:26.598Z</time></trkpt><trkpt lat="45.5799267" lon="10.3639556"><ele>698.0</ele><time>2026-03-28T08:11:27.597Z</time></trkpt><trkpt lat="45.5800264" lon="10.3639617"><ele>698.0</ele><time>2026-03-28T08:11:28.604Z</time></trkpt><trkpt lat="45.5801204" lon="10.3639596"><ele>698.0</ele><time>2026-03-28T08:11:29.601Z</time></trkpt><trkpt lat="45.5802213" lon="10.3639535"><ele>698.0</ele><time>2026-03-28T08:11:30.605Z</time></trkpt><trkpt lat="45.5803138" lon="10.3639517"><ele>698.0</ele><time>2026-03-28T08:11:31.604Z</time></trkpt><trkpt lat="45.5803981" lon="10.3639403"><ele>699.1666666666666</ele><time>2026-03-28T08:11:32.596Z</time></trkpt><trkpt lat="45.5804917" lon="10.3639119"><ele>700.3333333333333</ele><time>2026-03-28T08:11:33.604Z</time></trkpt><trkpt lat="45.5805783" lon="10.3638781"><ele>701.5</ele><time>2026-03-28T08:11:34.597Z</time></trkpt><trkpt lat="45.5806475" lon="10.3638471"><ele>702.6666666666666</ele><time>2026-03-28T08:11:35.595Z</time></trkpt><trkpt lat="45.5807195" lon="10.363815"><ele>703.8333333333334</ele><time>2026-03-28T08:11:36.6Z</time></trkpt><trkpt lat="45.5807954" lon="10.363768"><ele>705.0</ele><time>2026-03-28T08:11:37.602Z</time></trkpt><trkpt lat="45.580863" lon="10.3637251"><ele>706.0</ele><time>2026-03-28T08:11:38.6Z</time></trkpt><trkpt lat="45.5809243" lon="10.3636983"><ele>707.0</ele><time>2026-03-28T08:11:39.601Z</time></trkpt><trkpt lat="45.5810152" lon="10.3636618"><ele>708.0</ele><time>2026-03-28T08:11:41.602Z</time></trkpt><trkpt lat="45.5810931" lon="10.3636512"><ele>709.0</ele><time>2026-03-28T08:12:47.611Z</time></trkpt><trkpt lat="45.5811762" lon="10.3636378"><ele>710.0</ele><time>2026-03-28T08:13:30.608Z</time></trkpt><trkpt lat="45.5812838" lon="10.3635745"><ele>711.0</ele><time>2026-03-28T08:13:34.611Z</time></trkpt><trkpt lat="45.581325" lon="10.3633865"><ele>711.0</ele><time>2026-03-28T08:13:36.6Z</time></trkpt><trkpt lat="45.5813469" lon="10.3632363"><ele>711.0</ele><time>2026-03-28T08:13:37.599Z</time></trkpt><trkpt lat="45.5813752" lon="10.363092"><ele>711.0</ele><time>2026-03-28T08:13:38.597Z</time></trkpt><trkpt lat="45.5814069" lon="10.3629386"><ele>711.0</ele><time>2026-03-28T08:13:39.592Z</time></trkpt><trkpt lat="45.5814292" lon="10.3627814"><ele>711.0</ele><time>2026-03-28T08:13:40.591Z</time></trkpt><trkpt lat="45.5814401" lon="10.3626234"><ele>712.5999999999999</ele><time>2026-03-28T08:13:41.594Z</time></trkpt><trkpt lat="45.5814441" lon="10.3624749"><ele>714.2</ele><time>2026-03-28T08:13:42.592Z</time></trkpt><trkpt lat="45.5814421" lon="10.3623331"><ele>715.8</ele><time>2026-03-28T08:13:43.587Z</time></trkpt><trkpt lat="45.5814361" lon="10.3622174"><ele>717.4000000000001</ele><time>2026-03-28T08:13:44.59Z</time></trkpt><trkpt lat="45.5814596" lon="10.3621085"><ele>719.0</ele><time>2026-03-28T08:13:46.587Z</time></trkpt><trkpt lat="45.5815596" lon="10.3621748"><ele>719.0</ele><time>2026-03-28T08:13:49.59Z</time></trkpt><trkpt lat="45.5816177" lon="10.3622686"><ele>719.0</ele><time>2026-03-28T08:13:50.596Z</time></trkpt><trkpt lat="45.5816701" lon="10.3623589"><ele>719.0</ele><time>2026-03-28T08:13:51.592Z</time></trkpt><trkpt lat="45.5817297" lon="10.3624492"><ele>719.0</ele><time>2026-03-28T08:13:52.595Z</time></trkpt><trkpt lat="45.5817938" lon="10.3625231"><ele>719.0</ele><time>2026-03-28T08:13:53.595Z</time></trkpt><trkpt lat="45.5818754" lon="10.3625712"><ele>719.0</ele><time>2026-03-28T08:13:54.592Z</time></trkpt><trkpt lat="45.5819805" lon="10.36262"><ele>722.25</ele><time>2026-03-28T08:13:55.594Z</time></trkpt><trkpt lat="45.582092" lon="10.3626579"><ele>725.5</ele><time>2026-03-28T08:13:56.59Z</time></trkpt><trkpt lat="45.5822085" lon="10.3627111"><ele>728.75</ele><time>2026-03-28T08:13:57.589Z</time></trkpt><trkpt lat="45.5823213" lon="10.3627573"><ele>732.0</ele><time>2026-03-28T08:13:58.595Z</time></trkpt><trkpt lat="45.5824213" lon="10.3628084"><ele>732.0</ele><time>2026-03-28T08:13:59.59Z</time></trkpt><trkpt lat="45.5825044" lon="10.3628669"><ele>732.0</ele><time>2026-03-28T08:14:00.588Z</time></trkpt><trkpt lat="45.5825699" lon="10.3629177"><ele>732.0</ele><time>2026-03-28T08:14:01.595Z</time></trkpt><trkpt lat="45.5826259" lon="10.3629836"><ele>732.0</ele><time>2026-03-28T08:14:02.598Z</time></trkpt><trkpt lat="45.5826758" lon="10.3630807"><ele>732.0</ele><time>2026-03-28T08:14:03.598Z</time></trkpt><trkpt lat="45.5827025" lon="10.3631989"><ele>732.0</ele><time>2026-03-28T08:14:04.599Z</time></trkpt><trkpt lat="45.5827014" lon="10.3633122"><ele>732.0</ele><time>2026-03-28T08:14:05.604Z</time></trkpt><trkpt lat="45.5826993" lon="10.3634394"><ele>732.0</ele><time>2026-03-28T08:14:06.603Z</time></trkpt><trkpt lat="45.5826854" lon="10.363571"><ele>732.0</ele><time>2026-03-28T08:14:07.604Z</time></trkpt><trkpt lat="45.5826695" lon="10.3636899"><ele>732.0</ele><time>2026-03-28T08:14:08.602Z</time></trkpt><trkpt lat="45.5826637" lon="10.3638204"><ele>732.0</ele><time>2026-03-28T08:14:09.608Z</time></trkpt><trkpt lat="45.5826793" lon="10.36397"><ele>732.0</ele><time>2026-03-28T08:14:10.605Z</time></trkpt><trkpt lat="45.582706" lon="10.3641326"><ele>732.0</ele><time>2026-03-28T08:14:11.606Z</time></trkpt><trkpt lat="45.5827369" lon="10.3642928"><ele>732.0</ele><time>2026-03-28T08:14:12.607Z</time></trkpt><trkpt lat="45.5827701" lon="10.3644323"><ele>732.0</ele><time>2026-03-28T08:14:13.595Z</time></trkpt><trkpt lat="45.5828074" lon="10.364563"><ele>732.0</ele><time>2026-03-28T08:14:14.596Z</time></trkpt><trkpt lat="45.5828464" lon="10.3646679"><ele>735.4000000000001</ele><time>2026-03-28T08:14:15.594Z</time></trkpt><trkpt lat="45.5828981" lon="10.3647438"><ele>738.8000000000001</ele><time>2026-03-28T08:14:16.594Z</time></trkpt><trkpt lat="45.5829615" lon="10.3648437"><ele>742.2</ele><time>2026-03-28T08:14:18.59Z</time></trkpt><trkpt lat="45.5830245" lon="10.3648724"><ele>745.6</ele><time>2026-03-28T08:14:20.597Z</time></trkpt><trkpt lat="45.5831469" lon="10.3647673"><ele>749.0</ele><time>2026-03-28T08:14:22.595Z</time></trkpt><trkpt lat="45.5832139" lon="10.3646935"><ele>749.0</ele><time>2026-03-28T08:14:23.6Z</time></trkpt><trkpt lat="45.5832734" lon="10.3646403"><ele>749.0</ele><time>2026-03-28T08:14:24.596Z</time></trkpt><trkpt lat="45.5833772" lon="10.3645896"><ele>749.0</ele><time>2026-03-28T08:14:26.601Z</time></trkpt><trkpt lat="45.5834464" lon="10.3646124"><ele>749.0</ele><time>2026-03-28T08:14:28.604Z</time></trkpt><trkpt lat="45.5835381" lon="10.364593"><ele>749.0</ele><time>2026-03-28T08:14:30.603Z</time></trkpt><trkpt lat="45.5836062" lon="10.3645516"><ele>749.0</ele><time>2026-03-28T08:14:31.607Z</time></trkpt><trkpt lat="45.5836916" lon="10.3644909"><ele>751.5</ele><time>2026-03-28T08:14:32.601Z</time></trkpt><trkpt lat="45.5837878" lon="10.3643938"><ele>754.0</ele><time>2026-03-28T08:14:33.591Z</time></trkpt><trkpt lat="45.5838729" lon="10.3642623"><ele>756.5</ele><time>2026-03-28T08:14:34.597Z</time></trkpt><trkpt lat="45.5839787" lon="10.3641205"><ele>759.0</ele><time>2026-03-28T08:14:35.598Z</time></trkpt><trkpt lat="45.5840656" lon="10.3639756"><ele>758.5</ele><time>2026-03-28T08:14:36.593Z</time></trkpt><trkpt lat="45.5841587" lon="10.36383"><ele>758.0</ele><time>2026-03-28T08:14:37.59Z</time></trkpt><trkpt lat="45.5842431" lon="10.3636821"><ele>757.5</ele><time>2026-03-28T08:14:38.594Z</time></trkpt><trkpt lat="45.5843188" lon="10.3635492"><ele>757.0</ele><time>2026-03-28T08:14:39.595Z</time></trkpt><trkpt lat="45.5843904" lon="10.3634429"><ele>757.0</ele><time>2026-03-28T08:14:40.595Z</time></trkpt><trkpt lat="45.5844545" lon="10.3633387"><ele>757.0</ele><time>2026-03-28T08:14:41.597Z</time></trkpt><trkpt lat="45.5845111" lon="10.3632299"><ele>757.0</ele><time>2026-03-28T08:14:42.594Z</time></trkpt><trkpt lat="45.5845665" lon="10.3631231"><ele>757.0</ele><time>2026-03-28T08:14:43.6Z</time></trkpt><trkpt lat="45.5846299" lon="10.3630081"><ele>757.0</ele><time>2026-03-28T08:14:44.599Z</time></trkpt><trkpt lat="45.584701" lon="10.3628862"><ele>759.5</ele><time>2026-03-28T08:14:45.593Z</time></trkpt><trkpt lat="45.5847817" lon="10.3627641"><ele>762.0</ele><time>2026-03-28T08:14:46.596Z</time></trkpt><trkpt lat="45.5848613" lon="10.3626437"><ele>764.5</ele><time>2026-03-28T08:14:47.599Z</time></trkpt><trkpt lat="45.5849518" lon="10.3625211"><ele>767.0</ele><time>2026-03-28T08:14:48.592Z</time></trkpt><trkpt lat="45.5850496" lon="10.3624156"><ele>767.0</ele><time>2026-03-28T08:14:49.599Z</time></trkpt><trkpt lat="45.5851413" lon="10.3623318"><ele>767.0</ele><time>2026-03-28T08:14:50.598Z</time></trkpt><trkpt lat="45.5852336" lon="10.3622253"><ele>767.0</ele><time>2026-03-28T08:14:51.597Z</time></trkpt><trkpt lat="45.5853276" lon="10.3621018"><ele>767.0</ele><time>2026-03-28T08:14:52.6Z</time></trkpt><trkpt lat="45.5854114" lon="10.3619767"><ele>768.6</ele><time>2026-03-28T08:14:53.597Z</time></trkpt><trkpt lat="45.5855029" lon="10.3618736"><ele>770.2</ele><time>2026-03-28T08:14:54.599Z</time></trkpt><trkpt lat="45.585587" lon="10.361791"><ele>771.8</ele><time>2026-03-28T08:14:55.591Z</time></trkpt><trkpt lat="45.5856724" lon="10.3617422"><ele>773.4</ele><time>2026-03-28T08:14:56.603Z</time></trkpt><trkpt lat="45.5857958" lon="10.3617012"><ele>775.0</ele><time>2026-03-28T08:14:57.6Z</time></trkpt><trkpt lat="45.5859452" lon="10.3616575"><ele>775.0</ele><time>2026-03-28T08:14:58.592Z</time></trkpt><trkpt lat="45.5860877" lon="10.3616025"><ele>775.0</ele><time>2026-03-28T08:14:59.683Z</time></trkpt><trkpt lat="45.5862154" lon="10.3615442"><ele>775.0</ele><time>2026-03-28T08:15:00.604Z</time></trkpt><trkpt lat="45.586318" lon="10.3614847"><ele>775.0</ele><time>2026-03-28T08:15:01.603Z</time></trkpt><trkpt lat="45.5864077" lon="10.3614406"><ele>776.2</ele><time>2026-03-28T08:15:02.608Z</time></trkpt><trkpt lat="45.586499" lon="10.3614037"><ele>777.4</ele><time>2026-03-28T08:15:03.601Z</time></trkpt><trkpt lat="45.5865974" lon="10.3613765"><ele>778.5999999999999</ele><time>2026-03-28T08:15:04.595Z</time></trkpt><trkpt lat="45.5867037" lon="10.361357"><ele>779.8</ele><time>2026-03-28T08:15:05.599Z</time></trkpt><trkpt lat="45.5868122" lon="10.3613638"><ele>781.0</ele><time>2026-03-28T08:15:06.597Z</time></trkpt><trkpt lat="45.5869148" lon="10.3613937"><ele>781.0</ele><time>2026-03-28T08:15:07.603Z</time></trkpt><trkpt lat="45.587004" lon="10.3614329"><ele>781.0</ele><time>2026-03-28T08:15:08.602Z</time></trkpt><trkpt lat="45.5870933" lon="10.3614746"><ele>781.0</ele><time>2026-03-28T08:15:09.601Z</time></trkpt><trkpt lat="45.5871854" lon="10.3614967"><ele>781.0</ele><time>2026-03-28T08:15:10.597Z</time></trkpt><trkpt lat="45.5872733" lon="10.3615069"><ele>781.0</ele><time>2026-03-28T08:15:11.599Z</time></trkpt><trkpt lat="45.587366" lon="10.3614817"><ele>783.75</ele><time>2026-03-28T08:15:12.598Z</time></trkpt><trkpt lat="45.5874517" lon="10.361411"><ele>786.5</ele><time>2026-03-28T08:15:13.599Z</time></trkpt><trkpt lat="45.5875657" lon="10.3613345"><ele>789.25</ele><time>2026-03-28T08:15:14.6Z</time></trkpt><trkpt lat="45.5876718" lon="10.3612621"><ele>792.0</ele><time>2026-03-28T08:15:15.596Z</time></trkpt><trkpt lat="45.5877672" lon="10.3611746"><ele>794.5</ele><time>2026-03-28T08:15:16.595Z</time></trkpt><trkpt lat="45.5878526" lon="10.3610651"><ele>797.0</ele><time>2026-03-28T08:15:17.596Z</time></trkpt><trkpt lat="45.5879318" lon="10.3609318"><ele>799.5</ele><time>2026-03-28T08:15:18.598Z</time></trkpt><trkpt lat="45.5880098" lon="10.3607972"><ele>802.0</ele><time>2026-03-28T08:15:19.601Z</time></trkpt><trkpt lat="45.5880916" lon="10.3606728"><ele>801.9999999999999</ele><time>2026-03-28T08:15:20.602Z</time></trkpt><trkpt lat="45.588172" lon="10.3605669"><ele>802.0</ele><time>2026-03-28T08:15:21.602Z</time></trkpt><trkpt lat="45.5882447" lon="10.3604915"><ele>802.0</ele><time>2026-03-28T08:15:22.603Z</time></trkpt><trkpt lat="45.5883014" lon="10.3604344"><ele>802.0</ele><time>2026-03-28T08:15:23.606Z</time></trkpt><trkpt lat="45.5883984" lon="10.3603865"><ele>801.9999999999999</ele><time>2026-03-28T08:15:25.601Z</time></trkpt><trkpt lat="45.5884706" lon="10.3603661"><ele>802.0</ele><time>2026-03-28T08:15:27.609Z</time></trkpt><trkpt lat="45.5885366" lon="10.3603106"><ele>802.3333333333333</ele><time>2026-03-28T08:15:29.605Z</time></trkpt><trkpt lat="45.5885824" lon="10.3602453"><ele>802.6666666666666</ele><time>2026-03-28T08:15:30.607Z</time></trkpt><trkpt lat="45.5886358" lon="10.3601552"><ele>803.0</ele><time>2026-03-28T08:15:31.606Z</time></trkpt><trkpt lat="45.5886946" lon="10.3600624"><ele>803.3333333333333</ele><time>2026-03-28T08:15:32.604Z</time></trkpt><trkpt lat="45.5887614" lon="10.3599476"><ele>803.6666666666666</ele><time>2026-03-28T08:15:33.604Z</time></trkpt><trkpt lat="45.5888385" lon="10.3598361"><ele>804.0</ele><time>2026-03-28T08:15:34.608Z</time></trkpt><trkpt lat="45.5865974" lon="10.3613765"><ele>802.4000000000001</ele><time>2026-03-28T08:15:04.595Z</time></trkpt><trkpt lat="45.5867037" lon="10.361357"><ele>800.8</ele><time>2026-03-28T08:15:05.599Z</time></trkpt><trkpt lat="45.5868122" lon="10.3613638"><ele>799.2</ele><time>2026-03-28T08:15:06.597Z</time></trkpt><trkpt lat="45.5869148" lon="10.3613937"><ele>797.5999999999999</ele><time>2026-03-28T08:15:07.603Z</time></trkpt><trkpt lat="45.587004" lon="10.3614329"><ele>796.0</ele><time>2026-03-28T08:15:08.602Z</time></trkpt><trkpt lat="45.5870933" lon="10.3614746"><ele>796.0</ele><time>2026-03-28T08:15:09.601Z</time></trkpt><trkpt lat="45.5871854" lon="10.3614967"><ele>796.0</ele><time>2026-03-28T08:15:10.597Z</time></trkpt><trkpt lat="45.5872733" lon="10.3615069"><ele>796.0</ele><time>2026-03-28T08:15:11.599Z</time></trkpt><trkpt lat="45.587366" lon="10.3614817"><ele>796.0</ele><time>2026-03-28T08:15:12.598Z</time></trkpt><trkpt lat="45.5874517" lon="10.361411"><ele>796.0</ele><time>2026-03-28T08:15:13.599Z</time></trkpt><trkpt lat="45.5875657" lon="10.3613345"><ele>795.0</ele><time>2026-03-28T08:15:14.6Z</time></trkpt><trkpt lat="45.5876718" lon="10.3612621"><ele>794.0</ele><time>2026-03-28T08:15:15.596Z</time></trkpt><trkpt lat="45.5877672" lon="10.3611746"><ele>793.0</ele><time>2026-03-28T08:15:16.595Z</time></trkpt><trkpt lat="45.5878526" lon="10.3610651"><ele>792.0</ele><time>2026-03-28T08:15:17.596Z</time></trkpt><trkpt lat="45.5879318" lon="10.3609318"><ele>794.0</ele><time>2026-03-28T08:15:18.598Z</time></trkpt><trkpt lat="45.5880098" lon="10.3607972"><ele>796.0</ele><time>2026-03-28T08:15:19.601Z</time></trkpt><trkpt lat="45.5880916" lon="10.3606728"><ele>798.0</ele><time>2026-03-28T08:15:20.602Z</time></trkpt><trkpt lat="45.588172" lon="10.3605669"><ele>800.0</ele><time>2026-03-28T08:15:21.602Z</time></trkpt><trkpt lat="45.5882447" lon="10.3604915"><ele>802.0</ele><time>2026-03-28T08:15:22.603Z</time></trkpt><trkpt lat="45.5883014" lon="10.3604344"><ele>802.3333333333333</ele><time>2026-03-28T08:15:23.606Z</time></trkpt><trkpt lat="45.5883984" lon="10.3603865"><ele>802.6666666666666</ele><time>2026-03-28T08:15:25.601Z</time></trkpt><trkpt lat="45.5884706" lon="10.3603661"><ele>803.0</ele><time>2026-03-28T08:15:27.609Z</time></trkpt><trkpt lat="45.5885366" lon="10.3603106"><ele>803.3333333333333</ele><time>2026-03-28T08:15:29.605Z</time></trkpt><trkpt lat="45.5885824" lon="10.3602453"><ele>803.6666666666666</ele><time>2026-03-28T08:15:30.607Z</time></trkpt><trkpt lat="45.5886358" lon="10.3601552"><ele>804.0</ele><time>2026-03-28T08:15:31.606Z</time></trkpt><trkpt lat="45.5886946" lon="10.3600624"><ele>804.0</ele><time>2026-03-28T08:15:32.604Z</time></trkpt><trkpt lat="45.5887614" lon="10.3599476"><ele>804.0</ele><time>2026-03-28T08:15:33.604Z</time></trkpt><trkpt lat="45.5888385" lon="10.3598361"><ele>804.0</ele><time>2026-03-28T08:15:34.608Z</time></trkpt><trkpt lat="45.5889135" lon="10.3597301"><ele>804.0</ele><time>2026-03-28T08:15:35.607Z</time></trkpt><trkpt lat="45.5889901" lon="10.3596406"><ele>804.0</ele><time>2026-03-28T08:15:36.609Z</time></trkpt><trkpt lat="45.5890526" lon="10.3595726"><ele>804.0</ele><time>2026-03-28T08:15:37.6Z</time></trkpt><trkpt lat="45.589094" lon="10.3594953"><ele>804.0</ele><time>2026-03-28T08:15:38.611Z</time></trkpt><trkpt lat="45.5891388" lon="10.359404"><ele>804.0</ele><time>2026-03-28T08:15:39.607Z</time></trkpt><trkpt lat="45.5891893" lon="10.3593245"><ele>804.0</ele><time>2026-03-28T08:15:40.607Z</time></trkpt><trkpt lat="45.5892366" lon="10.3592339"><ele>804.0</ele><time>2026-03-28T08:15:41.609Z</time></trkpt><trkpt lat="45.589283" lon="10.3591271"><ele>804.0</ele><time>2026-03-28T08:15:42.607Z</time></trkpt><trkpt lat="45.5893361" lon="10.3590097"><ele>804.0</ele><time>2026-03-28T08:15:43.605Z</time></trkpt><trkpt lat="45.589381" lon="10.3588879"><ele>804.0</ele><time>2026-03-28T08:15:44.604Z</time></trkpt><trkpt lat="45.589421" lon="10.3587599"><ele>804.0</ele><time>2026-03-28T08:15:45.604Z</time></trkpt><trkpt lat="45.5894677" lon="10.3586469"><ele>804.0</ele><time>2026-03-28T08:15:46.601Z</time></trkpt><trkpt lat="45.5895348" lon="10.3585701"><ele>804.0</ele><time>2026-03-28T08:15:47.605Z</time></trkpt><trkpt lat="45.5896164" lon="10.3584983"><ele>804.0</ele><time>2026-03-28T08:15:48.602Z</time></trkpt><trkpt lat="45.5897081" lon="10.3584428"><ele>804.0</ele><time>2026-03-28T08:15:49.602Z</time></trkpt><trkpt lat="45.5898015" lon="10.3584123"><ele>804.0</ele><time>2026-03-28T08:15:50.611Z</time></trkpt><trkpt lat="45.5898952" lon="10.3583853"><ele>804.0</ele><time>2026-03-28T08:15:51.605Z</time></trkpt><trkpt lat="45.5899947" lon="10.3583407"><ele>804.0</ele><time>2026-03-28T08:15:52.611Z</time></trkpt><trkpt lat="45.590102" lon="10.3582733"><ele>804.0</ele><time>2026-03-28T08:15:53.609Z</time></trkpt><trkpt lat="45.5901915" lon="10.3582081"><ele>804.0</ele><time>2026-03-28T08:15:54.613Z</time></trkpt><trkpt lat="45.5902747" lon="10.3581588"><ele>804.0</ele><time>2026-03-28T08:15:55.61Z</time></trkpt><trkpt lat="45.5903482" lon="10.3581164"><ele>804.0</ele><time>2026-03-28T08:15:56.603Z</time></trkpt><trkpt lat="45.5904134" lon="10.3580764"><ele>804.0</ele><time>2026-03-28T08:15:57.612Z</time></trkpt><trkpt lat="45.5904875" lon="10.358036"><ele>804.0</ele><time>2026-03-28T08:15:58.608Z</time></trkpt><trkpt lat="45.5905663" lon="10.3579907"><ele>805.0</ele><time>2026-03-28T08:15:59.608Z</time></trkpt><trkpt lat="45.5906447" lon="10.3579519"><ele>806.0</ele><time>2026-03-28T08:16:00.613Z</time></trkpt><trkpt lat="45.5907097" lon="10.3579156"><ele>807.0</ele><time>2026-03-28T08:16:01.614Z</time></trkpt><trkpt lat="45.5907918" lon="10.3578347"><ele>808.0</ele><time>2026-03-28T08:16:03.608Z</time></trkpt><trkpt lat="45.590836" lon="10.3577622"><ele>809.0</ele><time>2026-03-28T08:16:05.618Z</time></trkpt><trkpt lat="45.5908932" lon="10.3576896"><ele>810.0</ele><time>2026-03-28T08:16:11.615Z</time></trkpt><trkpt lat="45.5909495" lon="10.3576278"><ele>810.0</ele><time>2026-03-28T08:16:14.604Z</time></trkpt><trkpt lat="45.5910126" lon="10.3575998"><ele>810.0</ele><time>2026-03-28T08:16:16.608Z</time></trkpt><trkpt lat="45.5910989" lon="10.3575538"><ele>810.0</ele><time>2026-03-28T08:16:18.608Z</time></trkpt><trkpt lat="45.5911727" lon="10.3575076"><ele>810.0</ele><time>2026-03-28T08:16:20.601Z</time></trkpt><trkpt lat="45.5912421" lon="10.357468"><ele>810.0</ele><time>2026-03-28T08:16:22.602Z</time></trkpt><trkpt lat="45.5913421" lon="10.3574378"><ele>810.0</ele><time>2026-03-28T08:16:24.594Z</time></trkpt><trkpt lat="45.5914451" lon="10.3574203"><ele>811.2</ele><time>2026-03-28T08:16:26.597Z</time></trkpt><trkpt lat="45.5915393" lon="10.3574107"><ele>812.4</ele><time>2026-03-28T08:16:28.612Z</time></trkpt><trkpt lat="45.5916241" lon="10.357377"><ele>813.5999999999999</ele><time>2026-03-28T08:16:30.605Z</time></trkpt><trkpt lat="45.5916919" lon="10.3573571"><ele>814.8</ele><time>2026-03-28T08:16:39.61Z</time></trkpt><trkpt lat="45.5915918" lon="10.3573682"><ele>816.0</ele><time>2026-03-28T08:17:01.62Z</time></trkpt><trkpt lat="45.5915089" lon="10.3574487"><ele>816.0</ele><time>2026-03-28T08:17:03.604Z</time></trkpt><trkpt lat="45.5914503" lon="10.3575182"><ele>816.0</ele><time>2026-03-28T08:17:04.621Z</time></trkpt><trkpt lat="45.59138" lon="10.3575739"><ele>816.0</ele><time>2026-03-28T08:17:05.618Z</time></trkpt><trkpt lat="45.5912798" lon="10.357641"><ele>816.0</ele><time>2026-03-28T08:17:07.614Z</time></trkpt><trkpt lat="45.5911938" lon="10.3576805"><ele>816.0</ele><time>2026-03-28T08:17:08.617Z</time></trkpt><trkpt lat="45.5911215" lon="10.3577156"><ele>816.0</ele><time>2026-03-28T08:17:09.617Z</time></trkpt><trkpt lat="45.5910145" lon="10.3577821"><ele>815.0</ele><time>2026-03-28T08:17:11.615Z</time></trkpt><trkpt lat="45.5909498" lon="10.3578247"><ele>814.0</ele><time>2026-03-28T08:17:50.63Z</time></trkpt><trkpt lat="45.5908757" lon="10.3578694"><ele>813.0</ele><time>2026-03-28T08:17:54.619Z</time></trkpt><trkpt lat="45.5907998" lon="10.3579039"><ele>812.0</ele><time>2026-03-28T08:17:56.626Z</time></trkpt><trkpt lat="45.5907066" lon="10.3579581"><ele>811.0</ele><time>2026-03-28T08:17:57.631Z</time></trkpt><trkpt lat="45.5906159" lon="10.3580097"><ele>810.0</ele><time>2026-03-28T08:17:58.626Z</time></trkpt><trkpt lat="45.5905254" lon="10.3580642"><ele>810.0</ele><time>2026-03-28T08:17:59.623Z</time></trkpt><trkpt lat="45.5904534" lon="10.3581181"><ele>810.0</ele><time>2026-03-28T08:18:00.624Z</time></trkpt><trkpt lat="45.5903836" lon="10.3581673"><ele>810.0</ele><time>2026-03-28T08:18:01.632Z</time></trkpt><trkpt lat="45.5903056" lon="10.3582236"><ele>810.0</ele><time>2026-03-28T08:18:02.619Z</time></trkpt><trkpt lat="45.5902231" lon="10.358286"><ele>810.0</ele><time>2026-03-28T08:18:03.62Z</time></trkpt><trkpt lat="45.5901409" lon="10.3583453"><ele>810.0</ele><time>2026-03-28T08:18:04.626Z</time></trkpt><trkpt lat="45.5900587" lon="10.3583884"><ele>808.8</ele><time>2026-03-28T08:18:05.622Z</time></trkpt><trkpt lat="45.5899604" lon="10.3584147"><ele>807.6</ele><time>2026-03-28T08:18:06.623Z</time></trkpt><trkpt lat="45.5898628" lon="10.3584613"><ele>806.4000000000001</ele><time>2026-03-28T08:18:07.623Z</time></trkpt><trkpt lat="45.589769" lon="10.3585128"><ele>805.2</ele><time>2026-03-28T08:18:08.615Z</time></trkpt><trkpt lat="45.5896801" lon="10.3585836"><ele>804.0</ele><time>2026-03-28T08:18:09.622Z</time></trkpt><trkpt lat="45.5895923" lon="10.3586783"><ele>804.0</ele><time>2026-03-28T08:18:10.62Z</time></trkpt><trkpt lat="45.5895217" lon="10.3587916"><ele>804.0</ele><time>2026-03-28T08:18:11.617Z</time></trkpt><trkpt lat="45.5894535" lon="10.3589038"><ele>804.0</ele><time>2026-03-28T08:18:12.617Z</time></trkpt><trkpt lat="45.589409" lon="10.3590436"><ele>804.0</ele><time>2026-03-28T08:18:13.617Z</time></trkpt><trkpt lat="45.5893563" lon="10.3591766"><ele>804.0</ele><time>2026-03-28T08:18:14.615Z</time></trkpt><trkpt lat="45.5893128" lon="10.3593076"><ele>804.0</ele><time>2026-03-28T08:18:15.616Z</time></trkpt><trkpt lat="45.5892602" lon="10.3594249"><ele>804.0</ele><time>2026-03-28T08:18:16.617Z</time></trkpt><trkpt lat="45.5891999" lon="10.3595315"><ele>804.0</ele><time>2026-03-28T08:18:17.614Z</time></trkpt><trkpt lat="45.5891361" lon="10.3596329"><ele>804.0</ele><time>2026-03-28T08:18:18.618Z</time></trkpt><trkpt lat="45.589066" lon="10.3597343"><ele>804.0</ele><time>2026-03-28T08:18:19.619Z</time></trkpt><trkpt lat="45.5889863" lon="10.3598374"><ele>804.0</ele><time>2026-03-28T08:18:20.615Z</time></trkpt><trkpt lat="45.5888883" lon="10.3599465"><ele>804.0</ele><time>2026-03-28T08:18:21.626Z</time></trkpt><trkpt lat="45.5887977" lon="10.3600514"><ele>804.0</ele><time>2026-03-28T08:18:22.622Z</time></trkpt><trkpt lat="45.58872" lon="10.3601631"><ele>804.0</ele><time>2026-03-28T08:18:23.619Z</time></trkpt><trkpt lat="45.588638" lon="10.3602577"><ele>804.0</ele><time>2026-03-28T08:18:24.615Z</time></trkpt><trkpt lat="45.5885617" lon="10.360327"><ele>804.0</ele><time>2026-03-28T08:18:25.618Z</time></trkpt><trkpt lat="45.5884839" lon="10.3603662"><ele>804.0</ele><time>2026-03-28T08:18:26.614Z</time></trkpt><trkpt lat="45.5884178" lon="10.3603844"><ele>804.0</ele><time>2026-03-28T08:18:27.61Z</time></trkpt><trkpt lat="45.5883164" lon="10.3603935"><ele>804.0</ele><time>2026-03-28T08:18:29.614Z</time></trkpt><trkpt lat="45.5881541" lon="10.3604982"><ele>803.6</ele><time>2026-03-28T08:18:55.626Z</time></trkpt><trkpt lat="45.5880921" lon="10.3605816"><ele>803.2</ele><time>2026-03-28T08:18:56.62Z</time></trkpt><trkpt lat="45.5880403" lon="10.3606572"><ele>802.8000000000001</ele><time>2026-03-28T08:18:57.623Z</time></trkpt><trkpt lat="45.5879731" lon="10.3607597"><ele>802.4000000000001</ele><time>2026-03-28T08:18:58.625Z</time></trkpt><trkpt lat="45.5879148" lon="10.3608695"><ele>802.0</ele><time>2026-03-28T08:18:59.627Z</time></trkpt><trkpt lat="45.5878505" lon="10.3609876"><ele>800.8</ele><time>2026-03-28T08:19:00.627Z</time></trkpt><trkpt lat="45.5877885" lon="10.3611014"><ele>799.6</ele><time>2026-03-28T08:19:01.62Z</time></trkpt><trkpt lat="45.5877162" lon="10.3612029"><ele>798.4</ele><time>2026-03-28T08:19:02.619Z</time></trkpt><trkpt lat="45.5876412" lon="10.3612901"><ele>797.1999999999999</ele><time>2026-03-28T08:19:03.621Z</time></trkpt><trkpt lat="45.5875541" lon="10.3613585"><ele>796.0</ele><time>2026-03-28T08:19:04.616Z</time></trkpt><trkpt lat="45.5874614" lon="10.3614119"><ele>796.0</ele><time>2026-03-28T08:19:05.62Z</time></trkpt><trkpt lat="45.5873637" lon="10.3614684"><ele>796.0</ele><time>2026-03-28T08:19:06.617Z</time></trkpt><trkpt lat="45.5872635" lon="10.3615232"><ele>796.0</ele><time>2026-03-28T08:19:07.614Z</time></trkpt><trkpt lat="45.5871685" lon="10.3615517"><ele>796.0</ele><time>2026-03-28T08:19:08.614Z</time></trkpt><trkpt lat="45.5870767" lon="10.36157"><ele>796.0</ele><time>2026-03-28T08:19:09.614Z</time></trkpt><trkpt lat="45.5869841" lon="10.3615467"><ele>793.0</ele><time>2026-03-28T08:19:10.618Z</time></trkpt><trkpt lat="45.5868855" lon="10.3615087"><ele>790.0</ele><time>2026-03-28T08:19:11.617Z</time></trkpt><trkpt lat="45.5867923" lon="10.3614625"><ele>787.0</ele><time>2026-03-28T08:19:12.611Z</time></trkpt><trkpt lat="45.5866942" lon="10.361431"><ele>784.0</ele><time>2026-03-28T08:19:13.61Z</time></trkpt><trkpt lat="45.5865902" lon="10.3614291"><ele>781.0</ele><time>2026-03-28T08:19:14.61Z</time></trkpt><trkpt lat="45.5864845" lon="10.3614513"><ele>781.0</ele><time>2026-03-28T08:19:15.616Z</time></trkpt><trkpt lat="45.5863832" lon="10.3614845"><ele>781.0</ele><time>2026-03-28T08:19:16.61Z</time></trkpt><trkpt lat="45.5862815" lon="10.3615378"><ele>781.0</ele><time>2026-03-28T08:19:17.616Z</time></trkpt><trkpt lat="45.5861794" lon="10.3616101"><ele>781.0</ele><time>2026-03-28T08:19:18.613Z</time></trkpt><trkpt lat="45.5860715" lon="10.3616812"><ele>781.0</ele><time>2026-03-28T08:19:19.602Z</time></trkpt><trkpt lat="45.5859639" lon="10.3617465"><ele>779.5</ele><time>2026-03-28T08:19:20.616Z</time></trkpt><trkpt lat="45.5858529" lon="10.3618038"><ele>778.0</ele><time>2026-03-28T08:19:21.61Z</time></trkpt><trkpt lat="45.5857344" lon="10.3618591"><ele>776.5</ele><time>2026-03-28T08:19:22.605Z</time></trkpt><trkpt lat="45.5856297" lon="10.3618935"><ele>775.0</ele><time>2026-03-28T08:19:23.598Z</time></trkpt><trkpt lat="45.5855179" lon="10.3619223"><ele>775.0</ele><time>2026-03-28T08:19:24.599Z</time></trkpt><trkpt lat="45.5854231" lon="10.3619663"><ele>775.0</ele><time>2026-03-28T08:19:25.599Z</time></trkpt><trkpt lat="45.5853332" lon="10.3620371"><ele>775.0</ele><time>2026-03-28T08:19:26.599Z</time></trkpt><trkpt lat="45.5852526" lon="10.3621406"><ele>775.0</ele><time>2026-03-28T08:19:27.604Z</time></trkpt><trkpt lat="45.5851877" lon="10.3622485"><ele>775.0</ele><time>2026-03-28T08:19:28.606Z</time></trkpt><trkpt lat="45.5851269" lon="10.3623485"><ele>773.4</ele><time>2026-03-28T08:19:29.599Z</time></trkpt><trkpt lat="45.5850643" lon="10.3624355"><ele>771.8</ele><time>2026-03-28T08:19:30.603Z</time></trkpt><trkpt lat="45.5850002" lon="10.3625023"><ele>770.2</ele><time>2026-03-28T08:19:31.604Z</time></trkpt><trkpt lat="45.5849071" lon="10.3625668"><ele>768.6</ele><time>2026-03-28T08:19:32.598Z</time></trkpt><trkpt lat="45.5848054" lon="10.3626631"><ele>767.0</ele><time>2026-03-28T08:19:33.608Z</time></trkpt><trkpt lat="45.5847312" lon="10.3628245"><ele>767.0</ele><time>2026-03-28T08:19:34.606Z</time></trkpt><trkpt lat="45.584646" lon="10.3629938"><ele>767.0</ele><time>2026-03-28T08:19:35.608Z</time></trkpt><trkpt lat="45.5845365" lon="10.3631868"><ele>767.0</ele><time>2026-03-28T08:19:36.606Z</time></trkpt><trkpt lat="45.5844458" lon="10.36338"><ele>764.3333333333333</ele><time>2026-03-28T08:19:37.608Z</time></trkpt><trkpt lat="45.5843664" lon="10.3635636"><ele>761.6666666666666</ele><time>2026-03-28T08:19:38.607Z</time></trkpt><trkpt lat="45.5842642" lon="10.363764"><ele>759.0</ele><time>2026-03-28T08:19:39.609Z</time></trkpt><trkpt lat="45.5841552" lon="10.363936"><ele>759.0</ele><time>2026-03-28T08:19:40.608Z</time></trkpt><trkpt lat="45.5840475" lon="10.3640866"><ele>759.0</ele><time>2026-03-28T08:19:41.613Z</time></trkpt><trkpt lat="45.5839375" lon="10.3642565"><ele>759.0</ele><time>2026-03-28T08:19:42.607Z</time></trkpt><trkpt lat="45.583836" lon="10.3644186"><ele>759.0</ele><time>2026-03-28T08:19:43.607Z</time></trkpt><trkpt lat="45.5837306" lon="10.364536"><ele>759.0</ele><time>2026-03-28T08:19:44.608Z</time></trkpt><trkpt lat="45.5836092" lon="10.3646171"><ele>759.0</ele><time>2026-03-28T08:19:45.606Z</time></trkpt><trkpt lat="45.5835121" lon="10.3646752"><ele>759.0</ele><time>2026-03-28T08:19:46.603Z</time></trkpt><trkpt lat="45.5834451" lon="10.3646778"><ele>759.0</ele><time>2026-03-28T08:19:47.608Z</time></trkpt><trkpt lat="45.5833254" lon="10.3646999"><ele>757.4000000000001</ele><time>2026-03-28T08:19:48.606Z</time></trkpt><trkpt lat="45.5832125" lon="10.3647325"><ele>755.8</ele><time>2026-03-28T08:19:49.606Z</time></trkpt><trkpt lat="45.5831203" lon="10.3647774"><ele>754.2</ele><time>2026-03-28T08:19:50.603Z</time></trkpt><trkpt lat="45.5830229" lon="10.3648359"><ele>752.5999999999999</ele><time>2026-03-28T08:19:51.606Z</time></trkpt><trkpt lat="45.5829444" lon="10.3648952"><ele>751.0</ele><time>2026-03-28T08:19:52.6Z</time></trkpt><trkpt lat="45.582847" lon="10.3649303"><ele>747.8</ele><time>2026-03-28T08:19:53.598Z</time></trkpt><trkpt lat="45.5827597" lon="10.3649376"><ele>744.5999999999999</ele><time>2026-03-28T08:19:54.603Z</time></trkpt><trkpt lat="45.5826765" lon="10.3648903"><ele>741.4</ele><time>2026-03-28T08:19:55.611Z</time></trkpt><trkpt lat="45.5825976" lon="10.3647994"><ele>738.2</ele><time>2026-03-28T08:19:56.599Z</time></trkpt><trkpt lat="45.5825314" lon="10.3646647"><ele>735.0</ele><time>2026-03-28T08:19:57.606Z</time></trkpt><trkpt lat="45.5824906" lon="10.3644929"><ele>734.25</ele><time>2026-03-28T08:19:58.603Z</time></trkpt><trkpt lat="45.5824537" lon="10.3643165"><ele>733.5</ele><time>2026-03-28T08:19:59.6Z</time></trkpt><trkpt lat="45.5824417" lon="10.3641257"><ele>732.75</ele><time>2026-03-28T08:20:00.611Z</time></trkpt><trkpt lat="45.5824206" lon="10.3639499"><ele>732.0</ele><time>2026-03-28T08:20:01.606Z</time></trkpt><trkpt lat="45.5824254" lon="10.3637763"><ele>730.25</ele><time>2026-03-28T08:20:02.608Z</time></trkpt><trkpt lat="45.582443" lon="10.3635967"><ele>728.5</ele><time>2026-03-28T08:20:03.605Z</time></trkpt><trkpt lat="45.5824667" lon="10.3634254"><ele>726.75</ele><time>2026-03-28T08:20:04.609Z</time></trkpt><trkpt lat="45.5824876" lon="10.3632607"><ele>725.0</ele><time>2026-03-28T08:20:05.609Z</time></trkpt><trkpt lat="45.5824982" lon="10.3631104"><ele>726.4</ele><time>2026-03-28T08:20:06.597Z</time></trkpt><trkpt lat="45.5825155" lon="10.3629625"><ele>727.8</ele><time>2026-03-28T08:20:07.612Z</time></trkpt><trkpt lat="45.5825097" lon="10.3628438"><ele>729.2</ele><time>2026-03-28T08:20:08.602Z</time></trkpt><trkpt lat="45.5824868" lon="10.362759"><ele>730.6</ele><time>2026-03-28T08:20:09.601Z</time></trkpt><trkpt lat="45.5823969" lon="10.3626436"><ele>732.0</ele><time>2026-03-28T08:20:11.604Z</time></trkpt><trkpt lat="45.5823304" lon="10.3625865"><ele>732.0</ele><time>2026-03-28T08:20:12.602Z</time></trkpt><trkpt lat="45.5822264" lon="10.3625418"><ele>732.0</ele><time>2026-03-28T08:20:13.604Z</time></trkpt><trkpt lat="45.5821214" lon="10.3624853"><ele>732.0</ele><time>2026-03-28T08:20:14.609Z</time></trkpt><trkpt lat="45.5820117" lon="10.3624444"><ele>732.0</ele><time>2026-03-28T08:20:15.611Z</time></trkpt><trkpt lat="45.5819002" lon="10.3624074"><ele>732.0</ele><time>2026-03-28T08:20:16.607Z</time></trkpt><trkpt lat="45.5818113" lon="10.3623444"><ele>731.6</ele><time>2026-03-28T08:20:17.61Z</time></trkpt><trkpt lat="45.581731" lon="10.3622585"><ele>731.2</ele><time>2026-03-28T08:20:18.599Z</time></trkpt><trkpt lat="45.5816451" lon="10.3621731"><ele>730.8</ele><time>2026-03-28T08:20:19.6Z</time></trkpt><trkpt lat="45.5815856" lon="10.3620859"><ele>730.4</ele><time>2026-03-28T08:20:20.606Z</time></trkpt><trkpt lat="45.58149" lon="10.3620022"><ele>730.0</ele><time>2026-03-28T08:20:21.602Z</time></trkpt><trkpt lat="45.5814239" lon="10.3619284"><ele>730.0</ele><time>2026-03-28T08:20:22.604Z</time></trkpt><trkpt lat="45.5813557" lon="10.3619187"><ele>730.0</ele><time>2026-03-28T08:20:23.595Z</time></trkpt><trkpt lat="45.5812759" lon="10.3619484"><ele>730.0</ele><time>2026-03-28T08:20:24.597Z</time></trkpt><trkpt lat="45.5812046" lon="10.3619687"><ele>730.0</ele><time>2026-03-28T08:20:25.596Z</time></trkpt><trkpt lat="45.5811675" lon="10.3620709"><ele>730.0</ele><time>2026-03-28T08:20:26.597Z</time></trkpt><trkpt lat="45.5811237" lon="10.3621471"><ele>730.0</ele><time>2026-03-28T08:20:27.596Z</time></trkpt><trkpt lat="45.5810611" lon="10.3622753"><ele>729.6</ele><time>2026-03-28T08:20:28.597Z</time></trkpt><trkpt lat="45.5810016" lon="10.362408"><ele>729.2</ele><time>2026-03-28T08:20:29.597Z</time></trkpt><trkpt lat="45.5809415" lon="10.3625505"><ele>728.8</ele><time>2026-03-28T08:20:30.605Z</time></trkpt><trkpt lat="45.5809143" lon="10.3626762"><ele>728.4</ele><time>2026-03-28T08:20:31.6Z</time></trkpt><trkpt lat="45.5808875" lon="10.3628021"><ele>728.0</ele><time>2026-03-28T08:20:32.602Z</time></trkpt><trkpt lat="45.5808576" lon="10.3629145"><ele>728.0</ele><time>2026-03-28T08:20:33.595Z</time></trkpt><trkpt lat="45.5808104" lon="10.3630178"><ele>728.0</ele><time>2026-03-28T08:20:34.599Z</time></trkpt><trkpt lat="45.5807648" lon="10.3631033"><ele>728.0</ele><time>2026-03-28T08:20:35.594Z</time></trkpt><trkpt lat="45.5807" lon="10.3631805"><ele>728.0</ele><time>2026-03-28T08:20:36.595Z</time></trkpt><trkpt lat="45.5806032" lon="10.3632246"><ele>728.0</ele><time>2026-03-28T08:20:37.602Z</time></trkpt><trkpt lat="45.5804878" lon="10.3632693"><ele>724.5999999999999</ele><time>2026-03-28T08:20:38.606Z</time></trkpt><trkpt lat="45.580376" lon="10.3633233"><ele>721.1999999999999</ele><time>2026-03-28T08:20:39.601Z</time></trkpt><trkpt lat="45.5802716" lon="10.3633735"><ele>717.8</ele><time>2026-03-28T08:20:40.611Z</time></trkpt><trkpt lat="45.5801761" lon="10.3634187"><ele>714.4</ele><time>2026-03-28T08:20:41.597Z</time></trkpt><trkpt lat="45.5800726" lon="10.3634512"><ele>711.0</ele><time>2026-03-28T08:20:42.605Z</time></trkpt><trkpt lat="45.5799739" lon="10.3634577"><ele>710.5</ele><time>2026-03-28T08:20:43.599Z</time></trkpt><trkpt lat="45.5798696" lon="10.3634732"><ele>710.0</ele><time>2026-03-28T08:20:44.599Z</time></trkpt><trkpt lat="45.5797709" lon="10.3634779"><ele>709.5</ele><time>2026-03-28T08:20:45.604Z</time></trkpt><trkpt lat="45.5796859" lon="10.3634821"><ele>709.0</ele><time>2026-03-28T08:20:46.605Z</time></trkpt><trkpt lat="45.5796127" lon="10.363491"><ele>708.5</ele><time>2026-03-28T08:20:47.612Z</time></trkpt><trkpt lat="45.5795447" lon="10.3635158"><ele>708.0</ele><time>2026-03-28T08:20:48.606Z</time></trkpt><trkpt lat="45.5794669" lon="10.3635455"><ele>707.0</ele><time>2026-03-28T08:20:49.616Z</time></trkpt><trkpt lat="45.5793753" lon="10.3636121"><ele>706.0</ele><time>2026-03-28T08:20:50.615Z</time></trkpt><trkpt lat="45.5792767" lon="10.3637119"><ele>705.0</ele><time>2026-03-28T08:20:51.61Z</time></trkpt><trkpt lat="45.5791878" lon="10.3638145"><ele>704.0</ele><time>2026-03-28T08:20:52.606Z</time></trkpt><trkpt lat="45.5790945" lon="10.3638952"><ele>703.0</ele><time>2026-03-28T08:20:53.604Z</time></trkpt><trkpt lat="45.5789947" lon="10.3639552"><ele>700.75</ele><time>2026-03-28T08:20:54.598Z</time></trkpt><trkpt lat="45.5788894" lon="10.3640108"><ele>698.5</ele><time>2026-03-28T08:20:55.609Z</time></trkpt><trkpt lat="45.5787703" lon="10.3640637"><ele>696.25</ele><time>2026-03-28T08:20:56.603Z</time></trkpt><trkpt lat="45.5786524" lon="10.3641071"><ele>694.0</ele><time>2026-03-28T08:20:57.6Z</time></trkpt><trkpt lat="45.5785418" lon="10.3641542"><ele>693.8000000000001</ele><time>2026-03-28T08:20:58.608Z</time></trkpt><trkpt lat="45.5784468" lon="10.3642064"><ele>693.6</ele><time>2026-03-28T08:20:59.615Z</time></trkpt><trkpt lat="45.5783673" lon="10.3642597"><ele>693.4</ele><time>2026-03-28T08:21:00.611Z</time></trkpt><trkpt lat="45.5783092" lon="10.3643047"><ele>693.2</ele><time>2026-03-28T08:21:01.607Z</time></trkpt><trkpt lat="45.5782096" lon="10.3643735"><ele>693.0</ele><time>2026-03-28T08:21:03.598Z</time></trkpt><trkpt lat="45.5780918" lon="10.364475"><ele>693.0</ele><time>2026-03-28T08:21:38.617Z</time></trkpt><trkpt lat="45.5780517" lon="10.3645625"><ele>693.0</ele><time>2026-03-28T08:21:39.609Z</time></trkpt><trkpt lat="45.5780059" lon="10.3646748"><ele>693.0</ele><time>2026-03-28T08:21:40.61Z</time></trkpt><trkpt lat="45.5779461" lon="10.3648058"><ele>693.0</ele><time>2026-03-28T08:21:41.608Z</time></trkpt><trkpt lat="45.577885" lon="10.3649343"><ele>693.0</ele><time>2026-03-28T08:21:42.61Z</time></trkpt><trkpt lat="45.5778147" lon="10.3650823"><ele>690.75</ele><time>2026-03-28T08:21:43.604Z</time></trkpt><trkpt lat="45.5777493" lon="10.365227"><ele>688.5</ele><time>2026-03-28T08:21:44.6Z</time></trkpt><trkpt lat="45.577697" lon="10.3653761"><ele>686.25</ele><time>2026-03-28T08:21:45.603Z</time></trkpt><trkpt lat="45.5776597" lon="10.3655221"><ele>684.0</ele><time>2026-03-28T08:21:46.605Z</time></trkpt><trkpt lat="45.5776213" lon="10.3656679"><ele>682.75</ele><time>2026-03-28T08:21:47.603Z</time></trkpt><trkpt lat="45.5775767" lon="10.3658113"><ele>681.5</ele><time>2026-03-28T08:21:48.602Z</time></trkpt><trkpt lat="45.5775245" lon="10.3659511"><ele>680.25</ele><time>2026-03-28T08:21:49.596Z</time></trkpt><trkpt lat="45.5774551" lon="10.3660992"><ele>679.0</ele><time>2026-03-28T08:21:50.604Z</time></trkpt><trkpt lat="45.5773686" lon="10.366245"><ele>679.0</ele><time>2026-03-28T08:21:51.607Z</time></trkpt><trkpt lat="45.577279" lon="10.3663814"><ele>679.0</ele><time>2026-03-28T08:21:52.61Z</time></trkpt><trkpt lat="45.5771936" lon="10.3665078"><ele>679.0</ele><time>2026-03-28T08:21:53.603Z</time></trkpt><trkpt lat="45.5771065" lon="10.366632"><ele>679.0</ele><time>2026-03-28T08:21:54.6Z</time></trkpt><trkpt lat="45.5770133" lon="10.3667342"><ele>679.0</ele><time>2026-03-28T08:21:55.601Z</time></trkpt><trkpt lat="45.5769229" lon="10.3668425"><ele>679.0</ele><time>2026-03-28T08:21:56.604Z</time></trkpt><trkpt lat="45.5768367" lon="10.3669416"><ele>679.0</ele><time>2026-03-28T08:21:57.612Z</time></trkpt><trkpt lat="45.5767634" lon="10.3670498"><ele>679.0</ele><time>2026-03-28T08:21:58.607Z</time></trkpt><trkpt lat="45.5766817" lon="10.3671484"><ele>679.0</ele><time>2026-03-28T08:21:59.601Z</time></trkpt><trkpt lat="45.5766055" lon="10.3672526"><ele>677.5</ele><time>2026-03-28T08:22:00.604Z</time></trkpt><trkpt lat="45.5765451" lon="10.3673577"><ele>676.0</ele><time>2026-03-28T08:22:01.61Z</time></trkpt><trkpt lat="45.5765038" lon="10.3674557"><ele>674.5</ele><time>2026-03-28T08:22:02.605Z</time></trkpt><trkpt lat="45.5764673" lon="10.3675696"><ele>673.0</ele><time>2026-03-28T08:22:03.602Z</time></trkpt><trkpt lat="45.5764289" lon="10.367681"><ele>671.5</ele><time>2026-03-28T08:22:04.607Z</time></trkpt><trkpt lat="45.5764099" lon="10.3677954"><ele>670.0</ele><time>2026-03-28T08:22:05.611Z</time></trkpt><trkpt lat="45.576414" lon="10.3678929"><ele>670.0</ele><time>2026-03-28T08:22:06.609Z</time></trkpt><trkpt lat="45.5764272" lon="10.3680227"><ele>670.0</ele><time>2026-03-28T08:22:07.607Z</time></trkpt><trkpt lat="45.5764453" lon="10.3681557"><ele>670.0</ele><time>2026-03-28T08:22:08.606Z</time></trkpt><trkpt lat="45.5764789" lon="10.3682822"><ele>670.0</ele><time>2026-03-28T08:22:09.6Z</time></trkpt><trkpt lat="45.5765358" lon="10.3683991"><ele>670.0</ele><time>2026-03-28T08:22:10.607Z</time></trkpt><trkpt lat="45.5766158" lon="10.3685106"><ele>669.25</ele><time>2026-03-28T08:22:11.608Z</time></trkpt><trkpt lat="45.5767139" lon="10.3686132"><ele>668.5</ele><time>2026-03-28T08:22:12.599Z</time></trkpt><trkpt lat="45.5768204" lon="10.3687103"><ele>667.75</ele><time>2026-03-28T08:22:13.603Z</time></trkpt><trkpt lat="45.5769205" lon="10.36881"><ele>667.0</ele><time>2026-03-28T08:22:14.602Z</time></trkpt><trkpt lat="45.5770066" lon="10.3689166"><ele>667.5</ele><time>2026-03-28T08:22:15.603Z</time></trkpt><trkpt lat="45.5770899" lon="10.369045"><ele>668.0</ele><time>2026-03-28T08:22:16.605Z</time></trkpt><trkpt lat="45.5771718" lon="10.3691776"><ele>668.5</ele><time>2026-03-28T08:22:17.603Z</time></trkpt><trkpt lat="45.5772671" lon="10.3693019"><ele>669.0</ele><time>2026-03-28T08:22:18.608Z</time></trkpt><trkpt lat="45.5773741" lon="10.3694304"><ele>669.0</ele><time>2026-03-28T08:22:19.607Z</time></trkpt><trkpt lat="45.5774889" lon="10.3695649"><ele>669.0</ele><time>2026-03-28T08:22:20.605Z</time></trkpt><trkpt lat="45.5776129" lon="10.3697129"><ele>669.0</ele><time>2026-03-28T08:22:21.611Z</time></trkpt><trkpt lat="45.5777216" lon="10.3698443"><ele>669.25</ele><time>2026-03-28T08:22:22.603Z</time></trkpt><trkpt lat="45.5778107" lon="10.3699649"><ele>669.5</ele><time>2026-03-28T08:22:23.603Z</time></trkpt><trkpt lat="45.5778593" lon="10.3700939"><ele>669.75</ele><time>2026-03-28T08:22:24.606Z</time></trkpt><trkpt lat="45.5778745" lon="10.3702568"><ele>670.0</ele><time>2026-03-28T08:22:25.6Z</time></trkpt><trkpt lat="45.5778539" lon="10.3704169"><ele>671.75</ele><time>2026-03-28T08:22:26.598Z</time></trkpt><trkpt lat="45.5777892" lon="10.370541"><ele>673.5</ele><time>2026-03-28T08:22:27.608Z</time></trkpt><trkpt lat="45.5777326" lon="10.3706736"><ele>675.25</ele><time>2026-03-28T08:22:28.607Z</time></trkpt><trkpt lat="45.5776769" lon="10.3708292"><ele>677.0</ele><time>2026-03-28T08:22:29.603Z</time></trkpt><trkpt lat="45.5776361" lon="10.3709881"><ele>677.0</ele><time>2026-03-28T08:22:30.601Z</time></trkpt><trkpt lat="45.5775924" lon="10.371129"><ele>677.0</ele><time>2026-03-28T08:22:31.604Z</time></trkpt><trkpt lat="45.5775737" lon="10.3712732"><ele>677.0</ele><time>2026-03-28T08:22:32.61Z</time></trkpt><trkpt lat="45.5775536" lon="10.3713914"><ele>677.0</ele><time>2026-03-28T08:22:33.607Z</time></trkpt><trkpt lat="45.5775521" lon="10.3714977"><ele>677.0</ele><time>2026-03-28T08:22:34.604Z</time></trkpt><trkpt lat="45.5775599" lon="10.3716016"><ele>677.0</ele><time>2026-03-28T08:22:35.603Z</time></trkpt><trkpt lat="45.5775862" lon="10.3717063"><ele>678.0</ele><time>2026-03-28T08:22:36.609Z</time></trkpt><trkpt lat="45.577645" lon="10.3718176"><ele>679.0</ele><time>2026-03-28T08:22:37.606Z</time></trkpt><trkpt lat="45.577709" lon="10.371941"><ele>680.0</ele><time>2026-03-28T08:22:38.603Z</time></trkpt><trkpt lat="45.577774" lon="10.3720675"><ele>681.0</ele><time>2026-03-28T08:22:39.606Z</time></trkpt><trkpt lat="45.5778409" lon="10.3721965"><ele>682.0</ele><time>2026-03-28T08:22:40.609Z</time></trkpt><trkpt lat="45.5778974" lon="10.3723207"><ele>684.6</ele><time>2026-03-28T08:22:41.606Z</time></trkpt><trkpt lat="45.5779441" lon="10.372452"><ele>687.2</ele><time>2026-03-28T08:22:42.606Z</time></trkpt><trkpt lat="45.5779739" lon="10.3725938"><ele>689.8</ele><time>2026-03-28T08:22:43.608Z</time></trkpt><trkpt lat="45.5779691" lon="10.3727525"><ele>692.4</ele><time>2026-03-28T08:22:44.608Z</time></trkpt><trkpt lat="45.5779329" lon="10.3729192"><ele>695.0</ele><time>2026-03-28T08:22:45.608Z</time></trkpt><trkpt lat="45.5779035" lon="10.3730921"><ele>695.0</ele><time>2026-03-28T08:22:46.614Z</time></trkpt><trkpt lat="45.5778852" lon="10.3732532"><ele>695.0</ele><time>2026-03-28T08:22:47.605Z</time></trkpt><trkpt lat="45.5778839" lon="10.3733923"><ele>695.0</ele><time>2026-03-28T08:22:48.606Z</time></trkpt><trkpt lat="45.5779013" lon="10.3735242"><ele>695.0</ele><time>2026-03-28T08:22:49.606Z</time></trkpt><trkpt lat="45.5779317" lon="10.3736476"><ele>695.0</ele><time>2026-03-28T08:22:50.603Z</time></trkpt><trkpt lat="45.5779811" lon="10.3737649"><ele>693.2</ele><time>2026-03-28T08:22:51.611Z</time></trkpt><trkpt lat="45.578037" lon="10.3738842"><ele>691.4</ele><time>2026-03-28T08:22:52.601Z</time></trkpt><trkpt lat="45.5780973" lon="10.374009"><ele>689.5999999999999</ele><time>2026-03-28T08:22:53.606Z</time></trkpt><trkpt lat="45.5781616" lon="10.374139"><ele>687.8</ele><time>2026-03-28T08:22:54.609Z</time></trkpt><trkpt lat="45.5782357" lon="10.374278"><ele>686.0</ele><time>2026-03-28T08:22:55.609Z</time></trkpt><trkpt lat="45.5783109" lon="10.3744226"><ele>686.0</ele><time>2026-03-28T08:22:56.61Z</time></trkpt><trkpt lat="45.5783878" lon="10.3745786"><ele>686.0</ele><time>2026-03-28T08:22:57.61Z</time></trkpt><trkpt lat="45.5784729" lon="10.3747484"><ele>686.0</ele><time>2026-03-28T08:22:58.601Z</time></trkpt><trkpt lat="45.578562" lon="10.3749285"><ele>686.0</ele><time>2026-03-28T08:22:59.608Z</time></trkpt><trkpt lat="45.5786462" lon="10.3751058"><ele>688.25</ele><time>2026-03-28T08:23:00.608Z</time></trkpt><trkpt lat="45.5787216" lon="10.3752775"><ele>690.5</ele><time>2026-03-28T08:23:01.612Z</time></trkpt><trkpt lat="45.5787862" lon="10.3754394"><ele>692.75</ele><time>2026-03-28T08:23:02.611Z</time></trkpt><trkpt lat="45.5788498" lon="10.3755962"><ele>695.0</ele><time>2026-03-28T08:23:03.605Z</time></trkpt><trkpt lat="45.5789123" lon="10.3757513"><ele>695.0</ele><time>2026-03-28T08:23:04.607Z</time></trkpt><trkpt lat="45.5789537" lon="10.3759022"><ele>695.0</ele><time>2026-03-28T08:23:05.61Z</time></trkpt><trkpt lat="45.5789783" lon="10.3760654"><ele>695.0</ele><time>2026-03-28T08:23:06.609Z</time></trkpt><trkpt lat="45.5789974" lon="10.3762432"><ele>695.0</ele><time>2026-03-28T08:23:07.607Z</time></trkpt><trkpt lat="45.579007" lon="10.3764331"><ele>694.75</ele><time>2026-03-28T08:23:08.605Z</time></trkpt><trkpt lat="45.5790096" lon="10.3766325"><ele>694.5</ele><time>2026-03-28T08:23:09.607Z</time></trkpt><trkpt lat="45.5790134" lon="10.3768427"><ele>694.25</ele><time>2026-03-28T08:23:10.61Z</time></trkpt><trkpt lat="45.5790165" lon="10.3770654"><ele>694.0</ele><time>2026-03-28T08:23:11.611Z</time></trkpt><trkpt lat="45.5790272" lon="10.3772891"><ele>698.0</ele><time>2026-03-28T08:23:12.613Z</time></trkpt><trkpt lat="45.5790485" lon="10.3775297"><ele>702.0</ele><time>2026-03-28T08:23:13.608Z</time></trkpt><trkpt lat="45.5790825" lon="10.3777716"><ele>706.0</ele><time>2026-03-28T08:23:14.617Z</time></trkpt><trkpt lat="45.5791119" lon="10.3779998"><ele>707.0</ele><time>2026-03-28T08:23:15.61Z</time></trkpt><trkpt lat="45.5791393" lon="10.3782096"><ele>708.0</ele><time>2026-03-28T08:23:16.604Z</time></trkpt><trkpt lat="45.5791664" lon="10.3784046"><ele>709.0</ele><time>2026-03-28T08:23:17.61Z</time></trkpt><trkpt lat="45.579193" lon="10.3785824"><ele>710.0</ele><time>2026-03-28T08:23:18.604Z</time></trkpt><trkpt lat="45.5792149" lon="10.3787366"><ele>710.6</ele><time>2026-03-28T08:23:19.605Z</time></trkpt><trkpt lat="45.5792389" lon="10.3788881"><ele>711.2</ele><time>2026-03-28T08:23:20.603Z</time></trkpt><trkpt lat="45.5792663" lon="10.3790326"><ele>711.8</ele><time>2026-03-28T08:23:21.614Z</time></trkpt><trkpt lat="45.5792956" lon="10.3791715"><ele>712.4</ele><time>2026-03-28T08:23:22.601Z</time></trkpt><trkpt lat="45.5793054" lon="10.379321"><ele>713.0</ele><time>2026-03-28T08:23:23.603Z</time></trkpt><trkpt lat="45.5793137" lon="10.3794639"><ele>713.0</ele><time>2026-03-28T08:23:24.61Z</time></trkpt><trkpt lat="45.5793071" lon="10.379617"><ele>713.0</ele><time>2026-03-28T08:23:25.599Z</time></trkpt><trkpt lat="45.5792873" lon="10.3797747"><ele>713.0</ele><time>2026-03-28T08:23:26.604Z</time></trkpt><trkpt lat="45.5792754" lon="10.3799576"><ele>713.0</ele><time>2026-03-28T08:23:27.608Z</time></trkpt><trkpt lat="45.579265" lon="10.3801598"><ele>713.5</ele><time>2026-03-28T08:23:28.607Z</time></trkpt><trkpt lat="45.579239" lon="10.3803799"><ele>714.0</ele><time>2026-03-28T08:23:29.609Z</time></trkpt><trkpt lat="45.5792249" lon="10.3805678"><ele>714.5</ele><time>2026-03-28T08:23:30.609Z</time></trkpt><trkpt lat="45.5791919" lon="10.3807364"><ele>715.0</ele><time>2026-03-28T08:23:31.608Z</time></trkpt><trkpt lat="45.5791425" lon="10.3808939"><ele>716.5</ele><time>2026-03-28T08:23:32.61Z</time></trkpt><trkpt lat="45.579104" lon="10.381071"><ele>718.0</ele><time>2026-03-28T08:23:33.615Z</time></trkpt><trkpt lat="45.5790951" lon="10.3812654"><ele>719.5</ele><time>2026-03-28T08:23:34.608Z</time></trkpt><trkpt lat="45.5790597" lon="10.3814329"><ele>721.0</ele><time>2026-03-28T08:23:35.608Z</time></trkpt><trkpt lat="45.5790433" lon="10.3816038"><ele>722.25</ele><time>2026-03-28T08:23:36.611Z</time></trkpt><trkpt lat="45.5790283" lon="10.3817614"><ele>723.5</ele><time>2026-03-28T08:23:37.614Z</time></trkpt><trkpt lat="45.5790351" lon="10.3819236"><ele>724.75</ele><time>2026-03-28T08:23:38.61Z</time></trkpt><trkpt lat="45.5790437" lon="10.3821031"><ele>726.0</ele><time>2026-03-28T08:23:39.61Z</time></trkpt><trkpt lat="45.5790553" lon="10.382289"><ele>726.0</ele><time>2026-03-28T08:23:40.614Z</time></trkpt><trkpt lat="45.5790782" lon="10.382476"><ele>726.0</ele><time>2026-03-28T08:23:41.611Z</time></trkpt><trkpt lat="45.5790861" lon="10.3826496"><ele>726.0</ele><time>2026-03-28T08:23:42.605Z</time></trkpt><trkpt lat="45.5790888" lon="10.3827972"><ele>726.0</ele><time>2026-03-28T08:23:43.604Z</time></trkpt><trkpt lat="45.5790975" lon="10.3829227"><ele>726.0</ele><time>2026-03-28T08:23:44.607Z</time></trkpt><trkpt lat="45.5791182" lon="10.3830232"><ele>726.0</ele><time>2026-03-28T08:23:45.608Z</time></trkpt><trkpt lat="45.5791809" lon="10.3831088"><ele>726.0</ele><time>2026-03-28T08:23:46.604Z</time></trkpt><trkpt lat="45.5792649" lon="10.3831957"><ele>726.0</ele><time>2026-03-28T08:23:47.602Z</time></trkpt><trkpt lat="45.579351" lon="10.383286"><ele>726.0</ele><time>2026-03-28T08:23:48.608Z</time></trkpt><trkpt lat="45.5794603" lon="10.3833817"><ele>726.0</ele><time>2026-03-28T08:23:49.609Z</time></trkpt><trkpt lat="45.5795599" lon="10.3835015"><ele>727.75</ele><time>2026-03-28T08:23:50.606Z</time></trkpt><trkpt lat="45.579652" lon="10.3836412"><ele>729.5</ele><time>2026-03-28T08:23:51.601Z</time></trkpt><trkpt lat="45.5797365" lon="10.3838283"><ele>731.25</ele><time>2026-03-28T08:23:52.606Z</time></trkpt><trkpt lat="45.5798067" lon="10.3839984"><ele>733.0</ele><time>2026-03-28T08:23:53.608Z</time></trkpt><trkpt lat="45.5798634" lon="10.3841348"><ele>733.0</ele><time>2026-03-28T08:23:54.608Z</time></trkpt><trkpt lat="45.5799043" lon="10.3842933"><ele>733.0</ele><time>2026-03-28T08:23:55.62Z</time></trkpt><trkpt lat="45.579932" lon="10.3844564"><ele>733.0</ele><time>2026-03-28T08:23:56.613Z</time></trkpt><trkpt lat="45.5799664" lon="10.38459"><ele>733.0</ele><time>2026-03-28T08:23:57.612Z</time></trkpt><trkpt lat="45.5800091" lon="10.3847213"><ele>733.0</ele><time>2026-03-28T08:23:58.606Z</time></trkpt><trkpt lat="45.5801006" lon="10.3848429"><ele>732.75</ele><time>2026-03-28T08:23:59.605Z</time></trkpt><trkpt lat="45.580193" lon="10.3849618"><ele>732.5</ele><time>2026-03-28T08:24:00.601Z</time></trkpt><trkpt lat="45.58029" lon="10.3851079"><ele>732.25</ele><time>2026-03-28T08:24:01.613Z</time></trkpt><trkpt lat="45.5803991" lon="10.3852902"><ele>732.0</ele><time>2026-03-28T08:24:02.611Z</time></trkpt><trkpt lat="45.5804661" lon="10.3854845"><ele>721.0</ele><time>2026-03-28T08:24:03.613Z</time></trkpt><trkpt lat="45.579104" lon="10.381071"><ele>721.0</ele><time>2026-03-28T08:23:33.615Z</time></trkpt><trkpt lat="45.5790951" lon="10.3812654"><ele>721.0</ele><time>2026-03-28T08:23:34.608Z</time></trkpt><trkpt lat="45.5790597" lon="10.3814329"><ele>721.0</ele><time>2026-03-28T08:23:35.608Z</time></trkpt><trkpt lat="45.5790433" lon="10.3816038"><ele>721.0</ele><time>2026-03-28T08:23:36.611Z</time></trkpt><trkpt lat="45.5790283" lon="10.3817614"><ele>722.25</ele><time>2026-03-28T08:23:37.614Z</time></trkpt><trkpt lat="45.5790351" lon="10.3819236"><ele>723.5</ele><time>2026-03-28T08:23:38.61Z</time></trkpt><trkpt lat="45.5790437" lon="10.3821031"><ele>724.75</ele><time>2026-03-28T08:23:39.61Z</time></trkpt><trkpt lat="45.5790553" lon="10.382289"><ele>726.0</ele><time>2026-03-28T08:23:40.614Z</time></trkpt><trkpt lat="45.5790782" lon="10.382476"><ele>726.0</ele><time>2026-03-28T08:23:41.611Z</time></trkpt><trkpt lat="45.5790861" lon="10.3826496"><ele>726.0</ele><time>2026-03-28T08:23:42.605Z</time></trkpt><trkpt lat="45.5790888" lon="10.3827972"><ele>726.0</ele><time>2026-03-28T08:23:43.604Z</time></trkpt><trkpt lat="45.5790975" lon="10.3829227"><ele>726.0</ele><time>2026-03-28T08:23:44.607Z</time></trkpt><trkpt lat="45.5791182" lon="10.3830232"><ele>726.0</ele><time>2026-03-28T08:23:45.608Z</time></trkpt><trkpt lat="45.5791809" lon="10.3831088"><ele>726.0</ele><time>2026-03-28T08:23:46.604Z</time></trkpt><trkpt lat="45.5792649" lon="10.3831957"><ele>726.0</ele><time>2026-03-28T08:23:47.602Z</time></trkpt><trkpt lat="45.579351" lon="10.383286"><ele>726.0</ele><time>2026-03-28T08:23:48.608Z</time></trkpt><trkpt lat="45.5794603" lon="10.3833817"><ele>726.0</ele><time>2026-03-28T08:23:49.609Z</time></trkpt><trkpt lat="45.5795599" lon="10.3835015"><ele>727.75</ele><time>2026-03-28T08:23:50.606Z</time></trkpt><trkpt lat="45.579652" lon="10.3836412"><ele>729.5</ele><time>2026-03-28T08:23:51.601Z</time></trkpt><trkpt lat="45.5797365" lon="10.3838283"><ele>731.25</ele><time>2026-03-28T08:23:52.606Z</time></trkpt><trkpt lat="45.5798067" lon="10.3839984"><ele>733.0</ele><time>2026-03-28T08:23:53.608Z</time></trkpt><trkpt lat="45.5798634" lon="10.3841348"><ele>733.0</ele><time>2026-03-28T08:23:54.608Z</time></trkpt><trkpt lat="45.5799043" lon="10.3842933"><ele>733.0</ele><time>2026-03-28T08:23:55.62Z</time></trkpt><trkpt lat="45.579932" lon="10.3844564"><ele>733.0</ele><time>2026-03-28T08:23:56.613Z</time></trkpt><trkpt lat="45.5799664" lon="10.38459"><ele>733.0</ele><time>2026-03-28T08:23:57.612Z</time></trkpt><trkpt lat="45.5800091" lon="10.3847213"><ele>733.0</ele><time>2026-03-28T08:23:58.606Z</time></trkpt><trkpt lat="45.5801006" lon="10.3848429"><ele>732.75</ele><time>2026-03-28T08:23:59.605Z</time></trkpt><trkpt lat="45.580193" lon="10.3849618"><ele>732.5</ele><time>2026-03-28T08:24:00.601Z</time></trkpt><trkpt lat="45.58029" lon="10.3851079"><ele>732.25</ele><time>2026-03-28T08:24:01.613Z</time></trkpt><trkpt lat="45.5803991" lon="10.3852902"><ele>732.0</ele><time>2026-03-28T08:24:02.611Z</time></trkpt><trkpt lat="45.5804661" lon="10.3854845"><ele>736.0</ele><time>2026-03-28T08:24:03.613Z</time></trkpt><trkpt lat="45.5805152" lon="10.385719"><ele>740.0</ele><time>2026-03-28T08:24:04.607Z</time></trkpt><trkpt lat="45.5805596" lon="10.3859333"><ele>744.0</ele><time>2026-03-28T08:24:05.615Z</time></trkpt><trkpt lat="45.5805991" lon="10.3861548"><ele>741.75</ele><time>2026-03-28T08:24:06.615Z</time></trkpt><trkpt lat="45.5806423" lon="10.3863604"><ele>739.5</ele><time>2026-03-28T08:24:07.606Z</time></trkpt><trkpt lat="45.580703" lon="10.3865614"><ele>737.25</ele><time>2026-03-28T08:24:08.612Z</time></trkpt><trkpt lat="45.5807676" lon="10.3867443"><ele>735.0</ele><time>2026-03-28T08:24:09.616Z</time></trkpt><trkpt lat="45.5808208" lon="10.3869322"><ele>735.0</ele><time>2026-03-28T08:24:10.605Z</time></trkpt><trkpt lat="45.5808892" lon="10.3871474"><ele>735.0</ele><time>2026-03-28T08:24:11.606Z</time></trkpt><trkpt lat="45.5809618" lon="10.3873585"><ele>735.0</ele><time>2026-03-28T08:24:12.609Z</time></trkpt><trkpt lat="45.5810248" lon="10.3875579"><ele>736.0</ele><time>2026-03-28T08:24:13.607Z</time></trkpt><trkpt lat="45.5810824" lon="10.3877564"><ele>737.0</ele><time>2026-03-28T08:24:14.613Z</time></trkpt><trkpt lat="45.5811534" lon="10.3879334"><ele>738.0</ele><time>2026-03-28T08:24:15.617Z</time></trkpt><trkpt lat="45.5812219" lon="10.3881337"><ele>739.0</ele><time>2026-03-28T08:24:16.615Z</time></trkpt><trkpt lat="45.5813102" lon="10.3883221"><ele>739.0</ele><time>2026-03-28T08:24:17.615Z</time></trkpt><trkpt lat="45.5814108" lon="10.3884913"><ele>739.0</ele><time>2026-03-28T08:24:18.619Z</time></trkpt><trkpt lat="45.5814996" lon="10.3886501"><ele>739.0</ele><time>2026-03-28T08:24:19.613Z</time></trkpt><trkpt lat="45.5816118" lon="10.388784"><ele>739.0</ele><time>2026-03-28T08:24:20.613Z</time></trkpt><trkpt lat="45.5817186" lon="10.3889254"><ele>737.5</ele><time>2026-03-28T08:24:21.613Z</time></trkpt><trkpt lat="45.5818349" lon="10.3890735"><ele>736.0</ele><time>2026-03-28T08:24:22.613Z</time></trkpt><trkpt lat="45.5819149" lon="10.389233"><ele>734.5</ele><time>2026-03-28T08:24:23.603Z</time></trkpt><trkpt lat="45.5819691" lon="10.3894325"><ele>733.0</ele><time>2026-03-28T08:24:24.616Z</time></trkpt><trkpt lat="45.5820342" lon="10.389635"><ele>735.5</ele><time>2026-03-28T08:24:25.606Z</time></trkpt><trkpt lat="45.5820822" lon="10.3897965"><ele>738.0</ele><time>2026-03-28T08:24:26.619Z</time></trkpt><trkpt lat="45.5821175" lon="10.3899683"><ele>740.5</ele><time>2026-03-28T08:24:27.612Z</time></trkpt><trkpt lat="45.5821507" lon="10.3901173"><ele>743.0</ele><time>2026-03-28T08:24:28.611Z</time></trkpt><trkpt lat="45.5821584" lon="10.3902851"><ele>743.0</ele><time>2026-03-28T08:24:29.613Z</time></trkpt><trkpt lat="45.5821866" lon="10.3904284"><ele>743.0</ele><time>2026-03-28T08:24:30.613Z</time></trkpt><trkpt lat="45.5822151" lon="10.3905672"><ele>743.0</ele><time>2026-03-28T08:24:31.611Z</time></trkpt><trkpt lat="45.5822393" lon="10.3907173"><ele>743.0</ele><time>2026-03-28T08:24:32.613Z</time></trkpt><trkpt lat="45.5823061" lon="10.3908919"><ele>741.5</ele><time>2026-03-28T08:24:33.618Z</time></trkpt><trkpt lat="45.5823858" lon="10.3910587"><ele>740.0</ele><time>2026-03-28T08:24:34.615Z</time></trkpt><trkpt lat="45.5824788" lon="10.3912325"><ele>738.5</ele><time>2026-03-28T08:24:35.614Z</time></trkpt><trkpt lat="45.5825415" lon="10.3914326"><ele>737.0</ele><time>2026-03-28T08:24:36.617Z</time></trkpt><trkpt lat="45.5826" lon="10.3916367"><ele>735.5</ele><time>2026-03-28T08:24:37.612Z</time></trkpt><trkpt lat="45.5826528" lon="10.391822"><ele>734.0</ele><time>2026-03-28T08:24:38.617Z</time></trkpt><trkpt lat="45.5827065" lon="10.3920076"><ele>732.5</ele><time>2026-03-28T08:24:39.613Z</time></trkpt><trkpt lat="45.5827608" lon="10.392171"><ele>731.0</ele><time>2026-03-28T08:24:40.616Z</time></trkpt><trkpt lat="45.5828319" lon="10.3923403"><ele>731.75</ele><time>2026-03-28T08:24:41.617Z</time></trkpt><trkpt lat="45.5829024" lon="10.3925217"><ele>732.5</ele><time>2026-03-28T08:24:42.62Z</time></trkpt><trkpt lat="45.5829535" lon="10.3927104"><ele>733.25</ele><time>2026-03-28T08:24:43.615Z</time></trkpt><trkpt lat="45.5829986" lon="10.3928971"><ele>734.0</ele><time>2026-03-28T08:24:44.614Z</time></trkpt><trkpt lat="45.5830343" lon="10.3930732"><ele>734.0</ele><time>2026-03-28T08:24:45.617Z</time></trkpt><trkpt lat="45.583096" lon="10.3932501"><ele>734.0</ele><time>2026-03-28T08:24:46.613Z</time></trkpt><trkpt lat="45.5831287" lon="10.3934343"><ele>734.0</ele><time>2026-03-28T08:24:47.613Z</time></trkpt><trkpt lat="45.5831542" lon="10.3936153"><ele>734.0</ele><time>2026-03-28T08:24:48.608Z</time></trkpt><trkpt lat="45.5831918" lon="10.3937934"><ele>732.75</ele><time>2026-03-28T08:24:49.615Z</time></trkpt><trkpt lat="45.5832487" lon="10.3939355"><ele>731.5</ele><time>2026-03-28T08:24:50.61Z</time></trkpt><trkpt lat="45.5833316" lon="10.3940603"><ele>730.25</ele><time>2026-03-28T08:24:51.616Z</time></trkpt><trkpt lat="45.5834265" lon="10.394187"><ele>729.0</ele><time>2026-03-28T08:24:52.611Z</time></trkpt><trkpt lat="45.5835349" lon="10.3943076"><ele>729.0</ele><time>2026-03-28T08:24:53.606Z</time></trkpt><trkpt lat="45.5836402" lon="10.3944117"><ele>729.0</ele><time>2026-03-28T08:24:54.604Z</time></trkpt><trkpt lat="45.583734" lon="10.3944869"><ele>729.0</ele><time>2026-03-28T08:24:55.606Z</time></trkpt><trkpt lat="45.5838272" lon="10.3945449"><ele>729.0</ele><time>2026-03-28T08:24:56.602Z</time></trkpt><trkpt lat="45.5839056" lon="10.3945812"><ele>729.0</ele><time>2026-03-28T08:24:57.607Z</time></trkpt><trkpt lat="45.5839681" lon="10.3945958"><ele>728.8333333333334</ele><time>2026-03-28T08:24:58.603Z</time></trkpt><trkpt lat="45.5840165" lon="10.3946611"><ele>728.6666666666666</ele><time>2026-03-28T08:25:00.62Z</time></trkpt><trkpt lat="45.5840847" lon="10.3948083"><ele>728.5</ele><time>2026-03-28T08:25:02.617Z</time></trkpt><trkpt lat="45.5841062" lon="10.3948948"><ele>728.3333333333333</ele><time>2026-03-28T08:25:03.615Z</time></trkpt><trkpt lat="45.5840926" lon="10.3950424"><ele>728.1666666666666</ele><time>2026-03-28T08:25:05.615Z</time></trkpt><trkpt lat="45.584043" lon="10.395146"><ele>728.0</ele><time>2026-03-28T08:25:07.609Z</time></trkpt><trkpt lat="45.5839773" lon="10.3951789"><ele>726.5999999999999</ele><time>2026-03-28T08:25:08.613Z</time></trkpt><trkpt lat="45.5838927" lon="10.3951951"><ele>725.1999999999999</ele><time>2026-03-28T08:25:09.601Z</time></trkpt><trkpt lat="45.5837967" lon="10.3951975"><ele>723.8</ele><time>2026-03-28T08:25:10.611Z</time></trkpt><trkpt lat="45.5836983" lon="10.3951722"><ele>722.4</ele><time>2026-03-28T08:25:11.687Z</time></trkpt><trkpt lat="45.5835864" lon="10.3951353"><ele>721.0</ele><time>2026-03-28T08:25:12.605Z</time></trkpt><trkpt lat="45.5834611" lon="10.3950863"><ele>721.0</ele><time>2026-03-28T08:25:13.599Z</time></trkpt><trkpt lat="45.58333" lon="10.395035"><ele>721.0</ele><time>2026-03-28T08:25:14.613Z</time></trkpt><trkpt lat="45.5832128" lon="10.3949986"><ele>721.0</ele><time>2026-03-28T08:25:15.603Z</time></trkpt><trkpt lat="45.5830926" lon="10.3949563"><ele>721.0</ele><time>2026-03-28T08:25:16.601Z</time></trkpt><trkpt lat="45.5829852" lon="10.3949017"><ele>721.0</ele><time>2026-03-28T08:25:17.615Z</time></trkpt><trkpt lat="45.582888" lon="10.3948307"><ele>721.0</ele><time>2026-03-28T08:25:18.609Z</time></trkpt><trkpt lat="45.5827961" lon="10.394747"><ele>721.0</ele><time>2026-03-28T08:25:19.611Z</time></trkpt><trkpt lat="45.582713" lon="10.3946591"><ele>721.0</ele><time>2026-03-28T08:25:20.607Z</time></trkpt><trkpt lat="45.582624" lon="10.394559"><ele>721.0</ele><time>2026-03-28T08:25:21.616Z</time></trkpt><trkpt lat="45.5825324" lon="10.3944704"><ele>720.3333333333334</ele><time>2026-03-28T08:25:22.615Z</time></trkpt><trkpt lat="45.5824525" lon="10.3943919"><ele>719.6666666666667</ele><time>2026-03-28T08:25:23.613Z</time></trkpt><trkpt lat="45.5823803" lon="10.3943954"><ele>719.0</ele><time>2026-03-28T08:25:24.608Z</time></trkpt><trkpt lat="45.5823263" lon="10.3944493"><ele>718.3333333333334</ele><time>2026-03-28T08:25:25.616Z</time></trkpt><trkpt lat="45.5823245" lon="10.3945439"><ele>717.6666666666666</ele><time>2026-03-28T08:25:26.612Z</time></trkpt><trkpt lat="45.5823423" lon="10.394674"><ele>717.0</ele><time>2026-03-28T08:25:27.608Z</time></trkpt><trkpt lat="45.5823713" lon="10.3948225"><ele>715.8333333333334</ele><time>2026-03-28T08:25:28.611Z</time></trkpt><trkpt lat="45.5823902" lon="10.394961"><ele>714.6666666666666</ele><time>2026-03-28T08:25:29.611Z</time></trkpt><trkpt lat="45.582406" lon="10.395092"><ele>713.5</ele><time>2026-03-28T08:25:30.605Z</time></trkpt><trkpt lat="45.582422" lon="10.3952083"><ele>712.3333333333333</ele><time>2026-03-28T08:25:31.603Z</time></trkpt><trkpt lat="45.5823925" lon="10.3953288"><ele>711.1666666666666</ele><time>2026-03-28T08:25:32.602Z</time></trkpt><trkpt lat="45.5823476" lon="10.3954298"><ele>710.0</ele><time>2026-03-28T08:25:33.605Z</time></trkpt><trkpt lat="45.5823298" lon="10.3955361"><ele>708.3333333333333</ele><time>2026-03-28T08:25:34.605Z</time></trkpt><trkpt lat="45.5823047" lon="10.395654"><ele>706.6666666666666</ele><time>2026-03-28T08:25:35.607Z</time></trkpt><trkpt lat="45.582288" lon="10.3957453"><ele>705.0</ele><time>2026-03-28T08:25:36.602Z</time></trkpt><trkpt lat="45.5822768" lon="10.3958351"><ele>703.3333333333334</ele><time>2026-03-28T08:25:37.608Z</time></trkpt><trkpt lat="45.5822233" lon="10.3959341"><ele>701.6666666666667</ele><time>2026-03-28T08:25:39.606Z</time></trkpt><trkpt lat="45.5821132" lon="10.3958756"><ele>700.0</ele><time>2026-03-28T08:25:41.605Z</time></trkpt><trkpt lat="45.5820551" lon="10.3957895"><ele>698.75</ele><time>2026-03-28T08:25:42.608Z</time></trkpt><trkpt lat="45.5819669" lon="10.3956502"><ele>697.5</ele><time>2026-03-28T08:25:43.605Z</time></trkpt><trkpt lat="45.5819105" lon="10.3954909"><ele>696.25</ele><time>2026-03-28T08:25:44.601Z</time></trkpt><trkpt lat="45.5818677" lon="10.3953305"><ele>695.0</ele><time>2026-03-28T08:25:45.609Z</time></trkpt><trkpt lat="45.5818305" lon="10.3951712"><ele>695.0</ele><time>2026-03-28T08:25:46.606Z</time></trkpt><trkpt lat="45.581773" lon="10.3950424"><ele>695.0</ele><time>2026-03-28T08:25:47.606Z</time></trkpt><trkpt lat="45.5817192" lon="10.3949194"><ele>695.0</ele><time>2026-03-28T08:25:48.602Z</time></trkpt><trkpt lat="45.5816586" lon="10.3948047"><ele>695.0</ele><time>2026-03-28T08:25:49.602Z</time></trkpt><trkpt lat="45.5815812" lon="10.3947108"><ele>695.0</ele><time>2026-03-28T08:25:50.598Z</time></trkpt><trkpt lat="45.5815138" lon="10.3946328"><ele>696.0</ele><time>2026-03-28T08:25:51.598Z</time></trkpt><trkpt lat="45.5814406" lon="10.3945739"><ele>697.0</ele><time>2026-03-28T08:25:52.598Z</time></trkpt><trkpt lat="45.5813374" lon="10.394562"><ele>698.0</ele><time>2026-03-28T08:25:53.602Z</time></trkpt><trkpt lat="45.58124" lon="10.394619"><ele>699.0</ele><time>2026-03-28T08:25:54.603Z</time></trkpt><trkpt lat="45.5811507" lon="10.3947249"><ele>700.0</ele><time>2026-03-28T08:25:55.601Z</time></trkpt><trkpt lat="45.5810659" lon="10.3948679"><ele>696.6</ele><time>2026-03-28T08:25:56.597Z</time></trkpt><trkpt lat="45.5809987" lon="10.3950079"><ele>693.2</ele><time>2026-03-28T08:25:57.601Z</time></trkpt><trkpt lat="45.5809592" lon="10.3951338"><ele>689.8</ele><time>2026-03-28T08:25:58.593Z</time></trkpt><trkpt lat="45.5809484" lon="10.3952383"><ele>686.4</ele><time>2026-03-28T08:25:59.603Z</time></trkpt><trkpt lat="45.5809713" lon="10.3953272"><ele>683.0</ele><time>2026-03-28T08:26:00.602Z</time></trkpt><trkpt lat="45.5808951" lon="10.3954228"><ele>683.0</ele><time>2026-03-28T08:26:02.598Z</time></trkpt><trkpt lat="45.5808171" lon="10.3954903"><ele>683.0</ele><time>2026-03-28T08:26:03.601Z</time></trkpt><trkpt lat="45.5807443" lon="10.3955775"><ele>683.0</ele><time>2026-03-28T08:26:04.6Z</time></trkpt><trkpt lat="45.5806505" lon="10.3957232"><ele>683.0</ele><time>2026-03-28T08:26:05.61Z</time></trkpt><trkpt lat="45.5805877" lon="10.3958493"><ele>683.0</ele><time>2026-03-28T08:26:06.605Z</time></trkpt><trkpt lat="45.5805195" lon="10.3959777"><ele>682.4</ele><time>2026-03-28T08:26:07.602Z</time></trkpt><trkpt lat="45.5804698" lon="10.3960954"><ele>681.8</ele><time>2026-03-28T08:26:08.605Z</time></trkpt><trkpt lat="45.5803967" lon="10.3961706"><ele>681.2</ele><time>2026-03-28T08:26:09.601Z</time></trkpt><trkpt lat="45.5803034" lon="10.3962358"><ele>680.6</ele><time>2026-03-28T08:26:10.598Z</time></trkpt><trkpt lat="45.580214" lon="10.3963102"><ele>680.0</ele><time>2026-03-28T08:26:11.595Z</time></trkpt><trkpt lat="45.5800828" lon="10.3963757"><ele>677.6</ele><time>2026-03-28T08:26:12.606Z</time></trkpt><trkpt lat="45.5799568" lon="10.3964121"><ele>675.2</ele><time>2026-03-28T08:26:13.611Z</time></trkpt><trkpt lat="45.5798425" lon="10.396398"><ele>672.8</ele><time>2026-03-28T08:26:14.601Z</time></trkpt><trkpt lat="45.5797438" lon="10.3963911"><ele>670.4</ele><time>2026-03-28T08:26:15.606Z</time></trkpt><trkpt lat="45.5796549" lon="10.3963963"><ele>668.0</ele><time>2026-03-28T08:26:16.61Z</time></trkpt><trkpt lat="45.5795578" lon="10.3964384"><ele>666.8</ele><time>2026-03-28T08:26:17.607Z</time></trkpt><trkpt lat="45.5794685" lon="10.3965024"><ele>665.5999999999999</ele><time>2026-03-28T08:26:18.599Z</time></trkpt><trkpt lat="45.5793727" lon="10.3965707"><ele>664.4000000000001</ele><time>2026-03-28T08:26:19.605Z</time></trkpt><trkpt lat="45.5792729" lon="10.3966195"><ele>663.2</ele><time>2026-03-28T08:26:20.603Z</time></trkpt><trkpt lat="45.5791597" lon="10.3966463"><ele>662.0</ele><time>2026-03-28T08:26:21.609Z</time></trkpt><trkpt lat="45.5790344" lon="10.3966794"><ele>662.0</ele><time>2026-03-28T08:26:22.599Z</time></trkpt><trkpt lat="45.5789132" lon="10.3967308"><ele>662.0</ele><time>2026-03-28T08:26:23.692Z</time></trkpt><trkpt lat="45.5788018" lon="10.3967935"><ele>662.0</ele><time>2026-03-28T08:26:24.607Z</time></trkpt><trkpt lat="45.5787051" lon="10.3968698"><ele>662.0</ele><time>2026-03-28T08:26:25.608Z</time></trkpt><trkpt lat="45.5786156" lon="10.396957"><ele>660.8</ele><time>2026-03-28T08:26:26.608Z</time></trkpt><trkpt lat="45.578532" lon="10.3970655"><ele>659.6</ele><time>2026-03-28T08:26:27.607Z</time></trkpt><trkpt lat="45.5784634" lon="10.3971866"><ele>658.4</ele><time>2026-03-28T08:26:28.609Z</time></trkpt><trkpt lat="45.5784106" lon="10.3973131"><ele>657.1999999999999</ele><time>2026-03-28T08:26:29.606Z</time></trkpt><trkpt lat="45.5783759" lon="10.3974433"><ele>656.0</ele><time>2026-03-28T08:26:30.613Z</time></trkpt><trkpt lat="45.5783461" lon="10.3975663"><ele>656.0</ele><time>2026-03-28T08:26:31.612Z</time></trkpt><trkpt lat="45.5783157" lon="10.397676"><ele>656.0</ele><time>2026-03-28T08:26:32.613Z</time></trkpt><trkpt lat="45.5782972" lon="10.3977802"><ele>656.0</ele><time>2026-03-28T08:26:33.61Z</time></trkpt><trkpt lat="45.5783" lon="10.3978891"><ele>656.0</ele><time>2026-03-28T08:26:34.609Z</time></trkpt><trkpt lat="45.5783101" lon="10.3980083"><ele>656.0</ele><time>2026-03-28T08:26:35.61Z</time></trkpt><trkpt lat="45.5783436" lon="10.3981413"><ele>656.0</ele><time>2026-03-28T08:26:36.614Z</time></trkpt><trkpt lat="45.5783921" lon="10.3982801"><ele>655.4</ele><time>2026-03-28T08:26:37.61Z</time></trkpt><trkpt lat="45.5784453" lon="10.3984184"><ele>654.8</ele><time>2026-03-28T08:26:38.609Z</time></trkpt><trkpt lat="45.5784963" lon="10.3985494"><ele>654.1999999999999</ele><time>2026-03-28T08:26:39.61Z</time></trkpt><trkpt lat="45.5785516" lon="10.3986767"><ele>653.5999999999999</ele><time>2026-03-28T08:26:40.614Z</time></trkpt><trkpt lat="45.5786086" lon="10.3988022"><ele>653.0</ele><time>2026-03-28T08:26:41.612Z</time></trkpt><trkpt lat="45.5786587" lon="10.398935"><ele>653.0</ele><time>2026-03-28T08:26:42.618Z</time></trkpt><trkpt lat="45.5787057" lon="10.3990718"><ele>653.0</ele><time>2026-03-28T08:26:43.615Z</time></trkpt><trkpt lat="45.5787346" lon="10.3992279"><ele>653.0</ele><time>2026-03-28T08:26:44.617Z</time></trkpt><trkpt lat="45.5787555" lon="10.3993809"><ele>653.0</ele><time>2026-03-28T08:26:45.619Z</time></trkpt><trkpt lat="45.5787513" lon="10.3995515"><ele>653.0</ele><time>2026-03-28T08:26:46.611Z</time></trkpt><trkpt lat="45.5787364" lon="10.3997235"><ele>652.8</ele><time>2026-03-28T08:26:47.612Z</time></trkpt><trkpt lat="45.578721" lon="10.3998901"><ele>652.5999999999999</ele><time>2026-03-28T08:26:48.615Z</time></trkpt><trkpt lat="45.5787026" lon="10.4000573"><ele>652.4000000000001</ele><time>2026-03-28T08:26:49.603Z</time></trkpt><trkpt lat="45.5786812" lon="10.4002083"><ele>652.2</ele><time>2026-03-28T08:26:50.612Z</time></trkpt><trkpt lat="45.5786612" lon="10.4003373"><ele>652.0</ele><time>2026-03-28T08:26:51.61Z</time></trkpt><trkpt lat="45.5786416" lon="10.4004479"><ele>651.0</ele><time>2026-03-28T08:26:52.613Z</time></trkpt><trkpt lat="45.5786349" lon="10.4005631"><ele>650.0</ele><time>2026-03-28T08:26:53.616Z</time></trkpt><trkpt lat="45.5786391" lon="10.4006814"><ele>649.0</ele><time>2026-03-28T08:26:54.615Z</time></trkpt><trkpt lat="45.5786433" lon="10.4008109"><ele>648.0</ele><time>2026-03-28T08:26:55.615Z</time></trkpt><trkpt lat="45.5786403" lon="10.4009234"><ele>647.0</ele><time>2026-03-28T08:26:56.618Z</time></trkpt><trkpt lat="45.578638" lon="10.4010256"><ele>646.0</ele><time>2026-03-28T08:26:57.615Z</time></trkpt><trkpt lat="45.5786544" lon="10.4011148"><ele>646.3333333333334</ele><time>2026-03-28T08:26:58.619Z</time></trkpt><trkpt lat="45.5787203" lon="10.4011934"><ele>646.6666666666667</ele><time>2026-03-28T08:27:00.613Z</time></trkpt><trkpt lat="45.5787832" lon="10.4012159"><ele>647.0</ele><time>2026-03-28T08:27:01.611Z</time></trkpt><trkpt lat="45.5788483" lon="10.4012385"><ele>647.3333333333334</ele><time>2026-03-28T08:27:02.615Z</time></trkpt><trkpt lat="45.5789245" lon="10.4012468"><ele>647.6666666666666</ele><time>2026-03-28T08:27:03.611Z</time></trkpt><trkpt lat="45.5789908" lon="10.4012873"><ele>648.0</ele><time>2026-03-28T08:27:04.606Z</time></trkpt><trkpt lat="45.5790761" lon="10.4013504"><ele>647.3333333333334</ele><time>2026-03-28T08:27:05.607Z</time></trkpt><trkpt lat="45.5791404" lon="10.4014538"><ele>646.6666666666666</ele><time>2026-03-28T08:27:06.612Z</time></trkpt><trkpt lat="45.5792033" lon="10.4015579"><ele>646.0</ele><time>2026-03-28T08:27:07.611Z</time></trkpt><trkpt lat="45.5792481" lon="10.4016693"><ele>645.3333333333333</ele><time>2026-03-28T08:27:08.616Z</time></trkpt><trkpt lat="45.5792701" lon="10.4017888"><ele>644.6666666666666</ele><time>2026-03-28T08:27:09.612Z</time></trkpt><trkpt lat="45.5792728" lon="10.4018961"><ele>644.0</ele><time>2026-03-28T08:27:10.614Z</time></trkpt><trkpt lat="45.5792892" lon="10.401995"><ele>644.0</ele><time>2026-03-28T08:27:11.606Z</time></trkpt><trkpt lat="45.5793245" lon="10.402078"><ele>644.0</ele><time>2026-03-28T08:27:12.614Z</time></trkpt><trkpt lat="45.5793779" lon="10.4021525"><ele>644.0</ele><time>2026-03-28T08:27:13.603Z</time></trkpt><trkpt lat="45.5794417" lon="10.4021957"><ele>644.0</ele><time>2026-03-28T08:27:14.606Z</time></trkpt><trkpt lat="45.5795638" lon="10.4021616"><ele>644.0</ele><time>2026-03-28T08:27:16.607Z</time></trkpt><trkpt lat="45.5796347" lon="10.4021186"><ele>644.0</ele><time>2026-03-28T08:27:17.605Z</time></trkpt><trkpt lat="45.5797014" lon="10.4020626"><ele>643.4000000000001</ele><time>2026-03-28T08:27:18.595Z</time></trkpt><trkpt lat="45.5797795" lon="10.4019905"><ele>642.8</ele><time>2026-03-28T08:27:19.597Z</time></trkpt><trkpt lat="45.5798591" lon="10.4019091"><ele>642.2</ele><time>2026-03-28T08:27:20.6Z</time></trkpt><trkpt lat="45.579934" lon="10.4018478"><ele>641.5999999999999</ele><time>2026-03-28T08:27:21.604Z</time></trkpt><trkpt lat="45.5800315" lon="10.4018236"><ele>641.0</ele><time>2026-03-28T08:27:22.605Z</time></trkpt><trkpt lat="45.5801122" lon="10.4018215"><ele>641.0</ele><time>2026-03-28T08:27:23.603Z</time></trkpt><trkpt lat="45.58018" lon="10.4018735"><ele>641.0</ele><time>2026-03-28T08:27:24.602Z</time></trkpt><trkpt lat="45.5802555" lon="10.4019426"><ele>641.0</ele><time>2026-03-28T08:27:25.598Z</time></trkpt><trkpt lat="45.5803196" lon="10.402025"><ele>641.0</ele><time>2026-03-28T08:27:26.603Z</time></trkpt><trkpt lat="45.5803831" lon="10.4021241"><ele>641.0</ele><time>2026-03-28T08:27:27.601Z</time></trkpt><trkpt lat="45.5804536" lon="10.4022336"><ele>639.5999999999999</ele><time>2026-03-28T08:27:28.6Z</time></trkpt><trkpt lat="45.580534" lon="10.4023474"><ele>638.1999999999999</ele><time>2026-03-28T08:27:29.603Z</time></trkpt><trkpt lat="45.5806033" lon="10.4024699"><ele>636.8</ele><time>2026-03-28T08:27:30.606Z</time></trkpt><trkpt lat="45.5806639" lon="10.4025719"><ele>635.4</ele><time>2026-03-28T08:27:31.609Z</time></trkpt><trkpt lat="45.5807305" lon="10.402651"><ele>634.0</ele><time>2026-03-28T08:27:32.606Z</time></trkpt><trkpt lat="45.5807935" lon="10.4027091"><ele>634.0</ele><time>2026-03-28T08:27:33.607Z</time></trkpt><trkpt lat="45.5808573" lon="10.4027429"><ele>634.0</ele><time>2026-03-28T08:27:34.602Z</time></trkpt><trkpt lat="45.5809173" lon="10.402779"><ele>634.0</ele><time>2026-03-28T08:27:35.605Z</time></trkpt><trkpt lat="45.5810414" lon="10.4027337"><ele>634.0</ele><time>2026-03-28T08:27:37.611Z</time></trkpt><trkpt lat="45.5811164" lon="10.4026606"><ele>634.0</ele><time>2026-03-28T08:27:38.606Z</time></trkpt><trkpt lat="45.5811858" lon="10.4025896"><ele>634.0</ele><time>2026-03-28T08:27:39.61Z</time></trkpt><trkpt lat="45.5812326" lon="10.4025243"><ele>636.0</ele><time>2026-03-28T08:27:40.604Z</time></trkpt><trkpt lat="45.5813119" lon="10.4024805"><ele>638.0</ele><time>2026-03-28T08:27:42.61Z</time></trkpt><trkpt lat="45.5814144" lon="10.4025364"><ele>640.0</ele><time>2026-03-28T08:27:44.603Z</time></trkpt><trkpt lat="45.5814191" lon="10.4026548"><ele>642.0</ele><time>2026-03-28T08:27:47.608Z</time></trkpt><trkpt lat="45.5814334" lon="10.4028179"><ele>644.0</ele><time>2026-03-28T08:27:49.619Z</time></trkpt><trkpt lat="45.5814504" lon="10.4029336"><ele>642.8333333333333</ele><time>2026-03-28T08:27:50.613Z</time></trkpt><trkpt lat="45.5814726" lon="10.4030548"><ele>641.6666666666666</ele><time>2026-03-28T08:27:51.618Z</time></trkpt><trkpt lat="45.5814945" lon="10.4031809"><ele>640.5</ele><time>2026-03-28T08:27:52.614Z</time></trkpt><trkpt lat="45.5815184" lon="10.4033016"><ele>639.3333333333334</ele><time>2026-03-28T08:27:53.607Z</time></trkpt><trkpt lat="45.5815592" lon="10.4034121"><ele>638.1666666666667</ele><time>2026-03-28T08:27:54.604Z</time></trkpt><trkpt lat="45.5816013" lon="10.403508"><ele>637.0</ele><time>2026-03-28T08:27:55.608Z</time></trkpt><trkpt lat="45.5816268" lon="10.4035961"><ele>637.0</ele><time>2026-03-28T08:27:56.613Z</time></trkpt><trkpt lat="45.5816476" lon="10.4037184"><ele>637.0</ele><time>2026-03-28T08:28:05.61Z</time></trkpt><trkpt lat="45.5814689" lon="10.4036678"><ele>637.0</ele><time>2026-03-28T08:28:35.605Z</time></trkpt><trkpt lat="45.5814171" lon="10.4036153"><ele>637.0</ele><time>2026-03-28T08:28:36.609Z</time></trkpt><trkpt lat="45.5813599" lon="10.4035663"><ele>637.0</ele><time>2026-03-28T08:28:37.611Z</time></trkpt><trkpt lat="45.5813005" lon="10.4035276"><ele>637.0</ele><time>2026-03-28T08:28:38.6Z</time></trkpt><trkpt lat="45.5812157" lon="10.4035055"><ele>637.0</ele><time>2026-03-28T08:28:39.615Z</time></trkpt><trkpt lat="45.5811274" lon="10.4035164"><ele>637.0</ele><time>2026-03-28T08:28:40.609Z</time></trkpt><trkpt lat="45.5810174" lon="10.4035384"><ele>637.0</ele><time>2026-03-28T08:28:41.611Z</time></trkpt><trkpt lat="45.580903" lon="10.4035885"><ele>637.0</ele><time>2026-03-28T08:28:42.604Z</time></trkpt><trkpt lat="45.5807802" lon="10.4036439"><ele>633.75</ele><time>2026-03-28T08:28:43.6Z</time></trkpt><trkpt lat="45.5806901" lon="10.4037046"><ele>630.5</ele><time>2026-03-28T08:28:44.611Z</time></trkpt><trkpt lat="45.5806344" lon="10.4037723"><ele>627.25</ele><time>2026-03-28T08:28:45.61Z</time></trkpt><trkpt lat="45.5806123" lon="10.4040021"><ele>624.0</ele><time>2026-03-28T08:28:59.617Z</time></trkpt><trkpt lat="45.5806412" lon="10.4041905"><ele>622.0</ele><time>2026-03-28T08:29:01.627Z</time></trkpt><trkpt lat="45.580678" lon="10.404301"><ele>620.0</ele><time>2026-03-28T08:29:02.618Z</time></trkpt><trkpt lat="45.5807302" lon="10.4044149"><ele>618.0</ele><time>2026-03-28T08:29:03.61Z</time></trkpt><trkpt lat="45.5807803" lon="10.4045313"><ele>616.0</ele><time>2026-03-28T08:29:04.615Z</time></trkpt><trkpt lat="45.5808293" lon="10.4046501"><ele>614.0</ele><time>2026-03-28T08:29:05.611Z</time></trkpt><trkpt lat="45.5808802" lon="10.4047748"><ele>613.6</ele><time>2026-03-28T08:29:06.615Z</time></trkpt><trkpt lat="45.5809341" lon="10.4048951"><ele>613.2</ele><time>2026-03-28T08:29:07.614Z</time></trkpt><trkpt lat="45.5810004" lon="10.4050007"><ele>612.8000000000001</ele><time>2026-03-28T08:29:08.612Z</time></trkpt><trkpt lat="45.5810915" lon="10.4050933"><ele>612.4</ele><time>2026-03-28T08:29:09.611Z</time></trkpt><trkpt lat="45.5811944" lon="10.4051857"><ele>612.0</ele><time>2026-03-28T08:29:10.62Z</time></trkpt><trkpt lat="45.5813014" lon="10.405289"><ele>612.0</ele><time>2026-03-28T08:29:11.609Z</time></trkpt><trkpt lat="45.581419" lon="10.4053931"><ele>612.0</ele><time>2026-03-28T08:29:12.609Z</time></trkpt><trkpt lat="45.5815332" lon="10.4054998"><ele>612.0</ele><time>2026-03-28T08:29:13.604Z</time></trkpt><trkpt lat="45.5816317" lon="10.4056087"><ele>612.0</ele><time>2026-03-28T08:29:14.61Z</time></trkpt><trkpt lat="45.5817242" lon="10.4057043"><ele>637.0</ele><time>2026-03-28T08:29:15.607Z</time></trkpt><trkpt lat="45.5814171" lon="10.4036153"><ele>637.0</ele><time>2026-03-28T08:28:36.609Z</time></trkpt><trkpt lat="45.5813599" lon="10.4035663"><ele>637.0</ele><time>2026-03-28T08:28:37.611Z</time></trkpt><trkpt lat="45.5813005" lon="10.4035276"><ele>637.0</ele><time>2026-03-28T08:28:38.6Z</time></trkpt><trkpt lat="45.5812157" lon="10.4035055"><ele>637.0</ele><time>2026-03-28T08:28:39.615Z</time></trkpt><trkpt lat="45.5811274" lon="10.4035164"><ele>637.0</ele><time>2026-03-28T08:28:40.609Z</time></trkpt><trkpt lat="45.5810174" lon="10.4035384"><ele>637.0</ele><time>2026-03-28T08:28:41.611Z</time></trkpt><trkpt lat="45.580903" lon="10.4035885"><ele>633.75</ele><time>2026-03-28T08:28:42.604Z</time></trkpt><trkpt lat="45.5807802" lon="10.4036439"><ele>630.5</ele><time>2026-03-28T08:28:43.6Z</time></trkpt><trkpt lat="45.5806901" lon="10.4037046"><ele>627.25</ele><time>2026-03-28T08:28:44.611Z</time></trkpt><trkpt lat="45.5806344" lon="10.4037723"><ele>624.0</ele><time>2026-03-28T08:28:45.61Z</time></trkpt><trkpt lat="45.5806123" lon="10.4040021"><ele>622.0</ele><time>2026-03-28T08:28:59.617Z</time></trkpt><trkpt lat="45.5806412" lon="10.4041905"><ele>620.0</ele><time>2026-03-28T08:29:01.627Z</time></trkpt><trkpt lat="45.580678" lon="10.404301"><ele>618.0</ele><time>2026-03-28T08:29:02.618Z</time></trkpt><trkpt lat="45.5807302" lon="10.4044149"><ele>616.0</ele><time>2026-03-28T08:29:03.61Z</time></trkpt><trkpt lat="45.5807803" lon="10.4045313"><ele>614.0</ele><time>2026-03-28T08:29:04.615Z</time></trkpt><trkpt lat="45.5808293" lon="10.4046501"><ele>613.6</ele><time>2026-03-28T08:29:05.611Z</time></trkpt><trkpt lat="45.5808802" lon="10.4047748"><ele>613.2</ele><time>2026-03-28T08:29:06.615Z</time></trkpt><trkpt lat="45.5809341" lon="10.4048951"><ele>612.8000000000001</ele><time>2026-03-28T08:29:07.614Z</time></trkpt><trkpt lat="45.5810004" lon="10.4050007"><ele>612.4</ele><time>2026-03-28T08:29:08.612Z</time></trkpt><trkpt lat="45.5810915" lon="10.4050933"><ele>612.0</ele><time>2026-03-28T08:29:09.611Z</time></trkpt><trkpt lat="45.5811944" lon="10.4051857"><ele>612.0</ele><time>2026-03-28T08:29:10.62Z</time></trkpt><trkpt lat="45.5813014" lon="10.405289"><ele>612.0</ele><time>2026-03-28T08:29:11.609Z</time></trkpt><trkpt lat="45.581419" lon="10.4053931"><ele>612.0</ele><time>2026-03-28T08:29:12.609Z</time></trkpt><trkpt lat="45.5815332" lon="10.4054998"><ele>612.0</ele><time>2026-03-28T08:29:13.604Z</time></trkpt><trkpt lat="45.5816317" lon="10.4056087"><ele>610.3333333333334</ele><time>2026-03-28T08:29:14.61Z</time></trkpt><trkpt lat="45.5817242" lon="10.4057043"><ele>608.6666666666666</ele><time>2026-03-28T08:29:15.607Z</time></trkpt><trkpt lat="45.5818071" lon="10.4057814"><ele>607.0</ele><time>2026-03-28T08:29:16.606Z</time></trkpt><trkpt lat="45.5818686" lon="10.4058637"><ele>605.3333333333333</ele><time>2026-03-28T08:29:17.609Z</time></trkpt><trkpt lat="45.5819113" lon="10.4059506"><ele>603.6666666666666</ele><time>2026-03-28T08:29:18.604Z</time></trkpt><trkpt lat="45.5819412" lon="10.4060447"><ele>602.0</ele><time>2026-03-28T08:29:19.609Z</time></trkpt><trkpt lat="45.5819446" lon="10.4061436"><ele>602.0</ele><time>2026-03-28T08:29:20.613Z</time></trkpt><trkpt lat="45.5819512" lon="10.4062608"><ele>602.0</ele><time>2026-03-28T08:29:21.607Z</time></trkpt><trkpt lat="45.5819183" lon="10.4063927"><ele>602.0</ele><time>2026-03-28T08:29:22.606Z</time></trkpt><trkpt lat="45.581873" lon="10.4065371"><ele>602.0</ele><time>2026-03-28T08:29:23.607Z</time></trkpt><trkpt lat="45.581837" lon="10.4066919"><ele>602.0</ele><time>2026-03-28T08:29:24.606Z</time></trkpt><trkpt lat="45.5817888" lon="10.4068591"><ele>602.25</ele><time>2026-03-28T08:29:25.608Z</time></trkpt><trkpt lat="45.5817235" lon="10.4070174"><ele>602.5</ele><time>2026-03-28T08:29:26.609Z</time></trkpt><trkpt lat="45.5816576" lon="10.4071566"><ele>602.75</ele><time>2026-03-28T08:29:27.605Z</time></trkpt><trkpt lat="45.5815864" lon="10.4072796"><ele>603.0</ele><time>2026-03-28T08:29:28.61Z</time></trkpt><trkpt lat="45.5815047" lon="10.4073904"><ele>603.6</ele><time>2026-03-28T08:29:29.607Z</time></trkpt><trkpt lat="45.5814422" lon="10.4074871"><ele>604.1999999999999</ele><time>2026-03-28T08:29:30.607Z</time></trkpt><trkpt lat="45.5813667" lon="10.4075774"><ele>604.8</ele><time>2026-03-28T08:29:31.607Z</time></trkpt><trkpt lat="45.5813116" lon="10.4076686"><ele>605.4</ele><time>2026-03-28T08:29:32.604Z</time></trkpt><trkpt lat="45.5812722" lon="10.4077789"><ele>606.0</ele><time>2026-03-28T08:29:33.604Z</time></trkpt><trkpt lat="45.581239" lon="10.4078997"><ele>606.0</ele><time>2026-03-28T08:29:34.602Z</time></trkpt><trkpt lat="45.5812226" lon="10.4080206"><ele>606.0</ele><time>2026-03-28T08:29:35.608Z</time></trkpt><trkpt lat="45.5812133" lon="10.4081379"><ele>606.0</ele><time>2026-03-28T08:29:36.6Z</time></trkpt><trkpt lat="45.5812192" lon="10.4082624"><ele>606.0</ele><time>2026-03-28T08:29:37.605Z</time></trkpt><trkpt lat="45.581224" lon="10.4083866"><ele>606.0</ele><time>2026-03-28T08:29:38.607Z</time></trkpt><trkpt lat="45.5812253" lon="10.4084949"><ele>606.0</ele><time>2026-03-28T08:29:39.605Z</time></trkpt><trkpt lat="45.5812308" lon="10.4086024"><ele>606.0</ele><time>2026-03-28T08:29:40.601Z</time></trkpt><trkpt lat="45.5812288" lon="10.4087003"><ele>606.0</ele><time>2026-03-28T08:29:41.606Z</time></trkpt><trkpt lat="45.5812111" lon="10.4088022"><ele>606.0</ele><time>2026-03-28T08:29:42.605Z</time></trkpt><trkpt lat="45.5811786" lon="10.4089056"><ele>606.0</ele><time>2026-03-28T08:29:43.599Z</time></trkpt><trkpt lat="45.5811408" lon="10.4090149"><ele>606.0</ele><time>2026-03-28T08:29:44.609Z</time></trkpt><trkpt lat="45.5811112" lon="10.4091271"><ele>606.0</ele><time>2026-03-28T08:29:45.602Z</time></trkpt><trkpt lat="45.5811001" lon="10.4092434"><ele>604.2</ele><time>2026-03-28T08:29:46.601Z</time></trkpt><trkpt lat="45.5811057" lon="10.4093816"><ele>602.4000000000001</ele><time>2026-03-28T08:29:47.604Z</time></trkpt><trkpt lat="45.5811247" lon="10.4095265"><ele>600.6</ele><time>2026-03-28T08:29:48.602Z</time></trkpt><trkpt lat="45.5811505" lon="10.4096817"><ele>598.8000000000001</ele><time>2026-03-28T08:29:49.608Z</time></trkpt><trkpt lat="45.5811772" lon="10.4098261"><ele>597.0</ele><time>2026-03-28T08:29:50.613Z</time></trkpt><trkpt lat="45.5812007" lon="10.4099648"><ele>597.0</ele><time>2026-03-28T08:29:51.605Z</time></trkpt><trkpt lat="45.5812173" lon="10.4100817"><ele>597.0</ele><time>2026-03-28T08:29:52.603Z</time></trkpt><trkpt lat="45.5812307" lon="10.4102019"><ele>597.0</ele><time>2026-03-28T08:29:53.601Z</time></trkpt><trkpt lat="45.5812463" lon="10.410305"><ele>597.0</ele><time>2026-03-28T08:29:54.598Z</time></trkpt><trkpt lat="45.5812612" lon="10.4103929"><ele>597.0</ele><time>2026-03-28T08:29:55.597Z</time></trkpt><trkpt lat="45.5812915" lon="10.4105482"><ele>597.0</ele><time>2026-03-28T08:29:57.602Z</time></trkpt><trkpt lat="45.5813159" lon="10.4106366"><ele>594.5</ele><time>2026-03-28T08:29:58.602Z</time></trkpt><trkpt lat="45.5813462" lon="10.4107351"><ele>592.0</ele><time>2026-03-28T08:29:59.607Z</time></trkpt><trkpt lat="45.5813765" lon="10.4108346"><ele>589.5</ele><time>2026-03-28T08:30:00.6Z</time></trkpt><trkpt lat="45.5814241" lon="10.4109718"><ele>587.0</ele><time>2026-03-28T08:30:02.602Z</time></trkpt><trkpt lat="45.5814759" lon="10.4110613"><ele>584.5</ele><time>2026-03-28T08:30:05.612Z</time></trkpt><trkpt lat="45.5815156" lon="10.4111377"><ele>582.0</ele><time>2026-03-28T08:30:15.616Z</time></trkpt><trkpt lat="45.5815579" lon="10.4112163"><ele>582.0</ele><time>2026-03-28T08:30:45.613Z</time></trkpt><trkpt lat="45.581639" lon="10.4113004"><ele>582.0</ele><time>2026-03-28T08:30:48.613Z</time></trkpt><trkpt lat="45.5817362" lon="10.4113447"><ele>582.0</ele><time>2026-03-28T08:30:50.608Z</time></trkpt><trkpt lat="45.5818087" lon="10.4113626"><ele>582.0</ele><time>2026-03-28T08:30:51.611Z</time></trkpt><trkpt lat="45.5818899" lon="10.4113856"><ele>582.0</ele><time>2026-03-28T08:30:52.608Z</time></trkpt><trkpt lat="45.5819713" lon="10.4113953"><ele>582.0</ele><time>2026-03-28T08:30:53.605Z</time></trkpt><trkpt lat="45.5820594" lon="10.4113853"><ele>582.6666666666666</ele><time>2026-03-28T08:30:54.611Z</time></trkpt><trkpt lat="45.5821465" lon="10.4113571"><ele>583.3333333333334</ele><time>2026-03-28T08:30:55.604Z</time></trkpt><trkpt lat="45.5822328" lon="10.4113174"><ele>584.0</ele><time>2026-03-28T08:30:56.605Z</time></trkpt><trkpt lat="45.5823152" lon="10.411279"><ele>584.6666666666667</ele><time>2026-03-28T08:30:57.604Z</time></trkpt><trkpt lat="45.5823987" lon="10.4112763"><ele>585.3333333333334</ele><time>2026-03-28T08:30:58.606Z</time></trkpt><trkpt lat="45.58249" lon="10.411309"><ele>586.0</ele><time>2026-03-28T08:30:59.602Z</time></trkpt><trkpt lat="45.5825781" lon="10.4113632"><ele>583.4</ele><time>2026-03-28T08:31:00.605Z</time></trkpt><trkpt lat="45.5826334" lon="10.4115068"><ele>580.8</ele><time>2026-03-28T08:31:02.602Z</time></trkpt><trkpt lat="45.5826374" lon="10.4116891"><ele>578.1999999999999</ele><time>2026-03-28T08:31:04.605Z</time></trkpt><trkpt lat="45.5826496" lon="10.4118021"><ele>575.6</ele><time>2026-03-28T08:31:05.603Z</time></trkpt><trkpt lat="45.5826626" lon="10.4119183"><ele>573.0</ele><time>2026-03-28T08:31:06.607Z</time></trkpt><trkpt lat="45.5826775" lon="10.4120106"><ele>570.6666666666666</ele><time>2026-03-28T08:31:07.601Z</time></trkpt><trkpt lat="45.5826824" lon="10.4121696"><ele>568.3333333333334</ele><time>2026-03-28T08:31:09.602Z</time></trkpt><trkpt lat="45.5826854" lon="10.4122664"><ele>566.0</ele><time>2026-03-28T08:31:10.585Z</time></trkpt><trkpt lat="45.5826776" lon="10.4123688"><ele>563.6666666666667</ele><time>2026-03-28T08:31:11.6Z</time></trkpt><trkpt lat="45.5826716" lon="10.4124787"><ele>561.3333333333334</ele><time>2026-03-28T08:31:12.602Z</time></trkpt><trkpt lat="45.5826699" lon="10.4125792"><ele>559.0</ele><time>2026-03-28T08:31:13.604Z</time></trkpt><trkpt lat="45.5826708" lon="10.4126952"><ele>559.0</ele><time>2026-03-28T08:31:14.605Z</time></trkpt><trkpt lat="45.5826651" lon="10.4128168"><ele>559.0</ele><time>2026-03-28T08:31:15.609Z</time></trkpt><trkpt lat="45.5826686" lon="10.4129436"><ele>559.0</ele><time>2026-03-28T08:31:16.612Z</time></trkpt><trkpt lat="45.5826821" lon="10.4130736"><ele>559.0</ele><time>2026-03-28T08:31:17.609Z</time></trkpt><trkpt lat="45.5826979" lon="10.4131991"><ele>559.0</ele><time>2026-03-28T08:31:18.609Z</time></trkpt><trkpt lat="45.5827045" lon="10.4132943"><ele>559.0</ele><time>2026-03-28T08:31:19.608Z</time></trkpt><trkpt lat="45.5827149" lon="10.4133976"><ele>556.8333333333334</ele><time>2026-03-28T08:31:20.606Z</time></trkpt><trkpt lat="45.5827447" lon="10.4135002"><ele>554.6666666666667</ele><time>2026-03-28T08:31:21.604Z</time></trkpt><trkpt lat="45.5827616" lon="10.4136066"><ele>552.5</ele><time>2026-03-28T08:31:22.61Z</time></trkpt><trkpt lat="45.5827806" lon="10.4137133"><ele>550.3333333333334</ele><time>2026-03-28T08:31:23.607Z</time></trkpt><trkpt lat="45.5828199" lon="10.4138107"><ele>548.1666666666666</ele><time>2026-03-28T08:31:24.603Z</time></trkpt><trkpt lat="45.5828801" lon="10.4139043"><ele>546.0</ele><time>2026-03-28T08:31:25.606Z</time></trkpt><trkpt lat="45.5829437" lon="10.4139932"><ele>545.6666666666666</ele><time>2026-03-28T08:31:26.602Z</time></trkpt><trkpt lat="45.5830101" lon="10.4140758"><ele>545.3333333333334</ele><time>2026-03-28T08:31:27.607Z</time></trkpt><trkpt lat="45.5830832" lon="10.4141546"><ele>545.0</ele><time>2026-03-28T08:31:28.607Z</time></trkpt><trkpt lat="45.5831541" lon="10.4142214"><ele>544.6666666666667</ele><time>2026-03-28T08:31:29.605Z</time></trkpt><trkpt lat="45.5832312" lon="10.4142799"><ele>544.3333333333334</ele><time>2026-03-28T08:31:30.599Z</time></trkpt><trkpt lat="45.5833071" lon="10.4143529"><ele>544.0</ele><time>2026-03-28T08:31:31.605Z</time></trkpt><trkpt lat="45.5833873" lon="10.4144294"><ele>544.0</ele><time>2026-03-28T08:31:32.607Z</time></trkpt><trkpt lat="45.5834557" lon="10.4145243"><ele>544.0</ele><time>2026-03-28T08:31:33.606Z</time></trkpt><trkpt lat="45.5835084" lon="10.4146218"><ele>544.0</ele><time>2026-03-28T08:31:34.612Z</time></trkpt><trkpt lat="45.5835635" lon="10.4147298"><ele>544.0</ele><time>2026-03-28T08:31:35.607Z</time></trkpt><trkpt lat="45.5836151" lon="10.4148599"><ele>544.0</ele><time>2026-03-28T08:31:36.61Z</time></trkpt><trkpt lat="45.5836697" lon="10.4150074"><ele>540.8</ele><time>2026-03-28T08:31:37.608Z</time></trkpt><trkpt lat="45.583731" lon="10.4151473"><ele>537.5999999999999</ele><time>2026-03-28T08:31:38.604Z</time></trkpt><trkpt lat="45.583777" lon="10.4152878"><ele>534.4</ele><time>2026-03-28T08:31:39.609Z</time></trkpt><trkpt lat="45.5838168" lon="10.4154149"><ele>531.1999999999999</ele><time>2026-03-28T08:31:40.604Z</time></trkpt><trkpt lat="45.5838762" lon="10.4155028"><ele>528.0</ele><time>2026-03-28T08:31:41.604Z</time></trkpt><trkpt lat="45.583949" lon="10.4155706"><ele>525.4</ele><time>2026-03-28T08:31:42.603Z</time></trkpt><trkpt lat="45.5840398" lon="10.4156275"><ele>522.8</ele><time>2026-03-28T08:31:43.608Z</time></trkpt><trkpt lat="45.5841215" lon="10.4156766"><ele>520.2</ele><time>2026-03-28T08:31:44.602Z</time></trkpt><trkpt lat="45.5841977" lon="10.415733"><ele>517.6</ele><time>2026-03-28T08:31:45.608Z</time></trkpt><trkpt lat="45.5842812" lon="10.4158271"><ele>515.0</ele><time>2026-03-28T08:31:46.602Z</time></trkpt><trkpt lat="45.5843597" lon="10.4159188"><ele>515.0</ele><time>2026-03-28T08:31:47.607Z</time></trkpt><trkpt lat="45.5844335" lon="10.4160326"><ele>515.0</ele><time>2026-03-28T08:31:48.609Z</time></trkpt><trkpt lat="45.5845025" lon="10.4161802"><ele>515.0</ele><time>2026-03-28T08:31:49.606Z</time></trkpt><trkpt lat="45.5845706" lon="10.4163266"><ele>515.0</ele><time>2026-03-28T08:31:50.605Z</time></trkpt><trkpt lat="45.584637" lon="10.4164627"><ele>513.4</ele><time>2026-03-28T08:31:51.609Z</time></trkpt><trkpt lat="45.5846969" lon="10.4165984"><ele>511.8</ele><time>2026-03-28T08:31:52.615Z</time></trkpt><trkpt lat="45.5847549" lon="10.4167249"><ele>510.20000000000005</ele><time>2026-03-28T08:31:53.608Z</time></trkpt><trkpt lat="45.5848093" lon="10.4168476"><ele>508.6</ele><time>2026-03-28T08:31:54.61Z</time></trkpt><trkpt lat="45.5848583" lon="10.4169684"><ele>507.0</ele><time>2026-03-28T08:31:55.614Z</time></trkpt><trkpt lat="45.5849149" lon="10.41709"><ele>506.6</ele><time>2026-03-28T08:31:56.606Z</time></trkpt><trkpt lat="45.5849752" lon="10.4172197"><ele>506.20000000000005</ele><time>2026-03-28T08:31:57.609Z</time></trkpt><trkpt lat="45.585038" lon="10.4173567"><ele>505.8</ele><time>2026-03-28T08:31:58.608Z</time></trkpt><trkpt lat="45.5851005" lon="10.4174895"><ele>505.4</ele><time>2026-03-28T08:31:59.616Z</time></trkpt><trkpt lat="45.5851595" lon="10.4176164"><ele>505.0</ele><time>2026-03-28T08:32:00.617Z</time></trkpt><trkpt lat="45.5852171" lon="10.4177395"><ele>505.0</ele><time>2026-03-28T08:32:01.616Z</time></trkpt><trkpt lat="45.5852731" lon="10.4178598"><ele>505.0</ele><time>2026-03-28T08:32:02.611Z</time></trkpt><trkpt lat="45.5853344" lon="10.4179808"><ele>505.0</ele><time>2026-03-28T08:32:03.608Z</time></trkpt><trkpt lat="45.5854131" lon="10.418102"><ele>505.0</ele><time>2026-03-28T08:32:04.612Z</time></trkpt><trkpt lat="45.5854948" lon="10.4182087"><ele>505.0</ele><time>2026-03-28T08:32:05.614Z</time></trkpt><trkpt lat="45.5855761" lon="10.4183044"><ele>505.0</ele><time>2026-03-28T08:32:06.617Z</time></trkpt><trkpt lat="45.5856686" lon="10.4183894"><ele>505.0</ele><time>2026-03-28T08:32:07.608Z</time></trkpt><trkpt lat="45.5857549" lon="10.4184525"><ele>505.0</ele><time>2026-03-28T08:32:08.608Z</time></trkpt><trkpt lat="45.5858434" lon="10.418506"><ele>505.0</ele><time>2026-03-28T08:32:09.609Z</time></trkpt><trkpt lat="45.5859381" lon="10.4185539"><ele>505.0</ele><time>2026-03-28T08:32:10.608Z</time></trkpt><trkpt lat="45.5860441" lon="10.4185984"><ele>505.0</ele><time>2026-03-28T08:32:11.604Z</time></trkpt><trkpt lat="45.586164" lon="10.4186431"><ele>505.0</ele><time>2026-03-28T08:32:12.608Z</time></trkpt><trkpt lat="45.586294" lon="10.418705"><ele>505.0</ele><time>2026-03-28T08:32:13.612Z</time></trkpt><trkpt lat="45.5863926" lon="10.4187208"><ele>505.0</ele><time>2026-03-28T08:32:14.606Z</time></trkpt><trkpt lat="45.586479" lon="10.4187515"><ele>505.0</ele><time>2026-03-28T08:32:15.601Z</time></trkpt><trkpt lat="45.586571" lon="10.4188084"><ele>502.2</ele><time>2026-03-28T08:32:16.607Z</time></trkpt><trkpt lat="45.5866333" lon="10.4189078"><ele>499.4</ele><time>2026-03-28T08:32:17.603Z</time></trkpt><trkpt lat="45.5866837" lon="10.4190436"><ele>496.6</ele><time>2026-03-28T08:32:18.604Z</time></trkpt><trkpt lat="45.5867246" lon="10.4191846"><ele>493.8</ele><time>2026-03-28T08:32:19.6Z</time></trkpt><trkpt lat="45.5867619" lon="10.4192952"><ele>491.0</ele><time>2026-03-28T08:32:20.606Z</time></trkpt><trkpt lat="45.586729" lon="10.4194427"><ele>491.0</ele><time>2026-03-28T08:32:21.606Z</time></trkpt><trkpt lat="45.5866842" lon="10.4196027"><ele>491.0</ele><time>2026-03-28T08:32:22.608Z</time></trkpt><trkpt lat="45.5866408" lon="10.4197521"><ele>491.0</ele><time>2026-03-28T08:32:23.604Z</time></trkpt><trkpt lat="45.5866084" lon="10.4199096"><ele>491.0</ele><time>2026-03-28T08:32:24.607Z</time></trkpt><trkpt lat="45.5865919" lon="10.4200737"><ele>489.8333333333333</ele><time>2026-03-28T08:32:25.604Z</time></trkpt><trkpt lat="45.5865864" lon="10.4202364"><ele>488.66666666666663</ele><time>2026-03-28T08:32:26.599Z</time></trkpt><trkpt lat="45.5865791" lon="10.4203708"><ele>487.5</ele><time>2026-03-28T08:32:27.601Z</time></trkpt><trkpt lat="45.5865695" lon="10.4204877"><ele>486.33333333333337</ele><time>2026-03-28T08:32:28.603Z</time></trkpt><trkpt lat="45.5865453" lon="10.4205933"><ele>485.1666666666667</ele><time>2026-03-28T08:32:29.604Z</time></trkpt><trkpt lat="45.5865052" lon="10.4206845"><ele>484.0</ele><time>2026-03-28T08:32:30.585Z</time></trkpt><trkpt lat="45.5864618" lon="10.4207601"><ele>482.6</ele><time>2026-03-28T08:32:31.594Z</time></trkpt><trkpt lat="45.5863996" lon="10.4208326"><ele>481.2</ele><time>2026-03-28T08:32:32.601Z</time></trkpt><trkpt lat="45.5863173" lon="10.4209006"><ele>479.80000000000007</ele><time>2026-03-28T08:32:33.578Z</time></trkpt><trkpt lat="45.5862171" lon="10.4209518"><ele>478.40000000000003</ele><time>2026-03-28T08:32:34.592Z</time></trkpt><trkpt lat="45.5861118" lon="10.4210117"><ele>477.0</ele><time>2026-03-28T08:32:35.599Z</time></trkpt><trkpt lat="45.5860014" lon="10.4210764"><ele>474.8</ele><time>2026-03-28T08:32:36.596Z</time></trkpt><trkpt lat="45.5859066" lon="10.4211419"><ele>472.6</ele><time>2026-03-28T08:32:37.599Z</time></trkpt><trkpt lat="45.5858123" lon="10.4211982"><ele>470.40000000000003</ele><time>2026-03-28T08:32:38.604Z</time></trkpt><trkpt lat="45.5857033" lon="10.4212362"><ele>468.20000000000005</ele><time>2026-03-28T08:32:39.595Z</time></trkpt><trkpt lat="45.5855842" lon="10.4212844"><ele>466.0</ele><time>2026-03-28T08:32:40.601Z</time></trkpt><trkpt lat="45.5854735" lon="10.4213508"><ele>464.0</ele><time>2026-03-28T08:32:41.693Z</time></trkpt><trkpt lat="45.5853837" lon="10.4214136"><ele>462.0</ele><time>2026-03-28T08:32:42.602Z</time></trkpt><trkpt lat="45.5852835" lon="10.421481"><ele>460.0</ele><time>2026-03-28T08:32:43.611Z</time></trkpt><trkpt lat="45.5851857" lon="10.421558"><ele>458.0</ele><time>2026-03-28T08:32:44.604Z</time></trkpt><trkpt lat="45.5850976" lon="10.4216413"><ele>456.0</ele><time>2026-03-28T08:32:45.603Z</time></trkpt><trkpt lat="45.5849986" lon="10.4217244"><ele>455.5</ele><time>2026-03-28T08:32:46.605Z</time></trkpt><trkpt lat="45.5848985" lon="10.4218214"><ele>455.0</ele><time>2026-03-28T08:32:47.61Z</time></trkpt><trkpt lat="45.5848081" lon="10.4219286"><ele>454.5</ele><time>2026-03-28T08:32:48.603Z</time></trkpt><trkpt lat="45.5847333" lon="10.4220369"><ele>454.0</ele><time>2026-03-28T08:32:49.605Z</time></trkpt><trkpt lat="45.5846486" lon="10.4221256"><ele>453.4</ele><time>2026-03-28T08:32:50.603Z</time></trkpt><trkpt lat="45.5845555" lon="10.4221687"><ele>452.79999999999995</ele><time>2026-03-28T08:32:51.606Z</time></trkpt><trkpt lat="45.5844606" lon="10.4221878"><ele>452.20000000000005</ele><time>2026-03-28T08:32:52.603Z</time></trkpt><trkpt lat="45.5843612" lon="10.4221859"><ele>451.6</ele><time>2026-03-28T08:32:53.602Z</time></trkpt><trkpt lat="45.584281" lon="10.422169"><ele>451.0</ele><time>2026-03-28T08:32:54.606Z</time></trkpt><trkpt lat="45.5841914" lon="10.4221277"><ele>450.4</ele><time>2026-03-28T08:32:55.601Z</time></trkpt><trkpt lat="45.5841079" lon="10.4220772"><ele>449.8</ele><time>2026-03-28T08:32:56.608Z</time></trkpt><trkpt lat="45.5840122" lon="10.422017"><ele>449.19999999999993</ele><time>2026-03-28T08:32:57.604Z</time></trkpt><trkpt lat="45.583905" lon="10.4219659"><ele>448.59999999999997</ele><time>2026-03-28T08:32:58.608Z</time></trkpt><trkpt lat="45.5837987" lon="10.42196"><ele>448.0</ele><time>2026-03-28T08:32:59.615Z</time></trkpt><trkpt lat="45.5836947" lon="10.4220047"><ele>447.5</ele><time>2026-03-28T08:33:00.607Z</time></trkpt><trkpt lat="45.583603" lon="10.422084"><ele>447.0</ele><time>2026-03-28T08:33:01.608Z</time></trkpt><trkpt lat="45.5834852" lon="10.4221488"><ele>446.5</ele><time>2026-03-28T08:33:02.608Z</time></trkpt><trkpt lat="45.5833455" lon="10.4222023"><ele>446.0</ele><time>2026-03-28T08:33:03.607Z</time></trkpt><trkpt lat="45.5832378" lon="10.4222673"><ele>446.0</ele><time>2026-03-28T08:33:04.605Z</time></trkpt><trkpt lat="45.5831458" lon="10.4223304"><ele>446.0</ele><time>2026-03-28T08:33:05.607Z</time></trkpt><trkpt lat="45.5830465" lon="10.4224398"><ele>446.0</ele><time>2026-03-28T08:33:06.602Z</time></trkpt><trkpt lat="45.5829636" lon="10.4225456"><ele>446.0</ele><time>2026-03-28T08:33:07.601Z</time></trkpt><trkpt lat="45.582867" lon="10.4226717"><ele>446.8</ele><time>2026-03-28T08:33:08.606Z</time></trkpt><trkpt lat="45.5827715" lon="10.4227686"><ele>447.6</ele><time>2026-03-28T08:33:09.59Z</time></trkpt><trkpt lat="45.5826749" lon="10.4228616"><ele>448.4</ele><time>2026-03-28T08:33:10.608Z</time></trkpt><trkpt lat="45.5825736" lon="10.4228963"><ele>449.2</ele><time>2026-03-28T08:33:11.608Z</time></trkpt><trkpt lat="45.5824797" lon="10.4229092"><ele>450.0</ele><time>2026-03-28T08:33:12.6Z</time></trkpt><trkpt lat="45.5823713" lon="10.4229171"><ele>450.0</ele><time>2026-03-28T08:33:13.601Z</time></trkpt><trkpt lat="45.5822735" lon="10.4229068"><ele>450.0</ele><time>2026-03-28T08:33:14.6Z</time></trkpt><trkpt lat="45.5821816" lon="10.4228935"><ele>450.0</ele><time>2026-03-28T08:33:15.604Z</time></trkpt><trkpt lat="45.5820944" lon="10.4228836"><ele>450.0</ele><time>2026-03-28T08:33:16.601Z</time></trkpt><trkpt lat="45.5820208" lon="10.4228838"><ele>450.0</ele><time>2026-03-28T08:33:17.608Z</time></trkpt><trkpt lat="45.5819571" lon="10.422889"><ele>450.0</ele><time>2026-03-28T08:33:18.601Z</time></trkpt><trkpt lat="45.5819043" lon="10.4229885"><ele>444.5</ele><time>2026-03-28T08:33:20.6Z</time></trkpt><trkpt lat="45.58198" lon="10.4231389"><ele>439.0</ele><time>2026-03-28T08:33:22.601Z</time></trkpt><trkpt lat="45.5820762" lon="10.4232156"><ele>433.5</ele><time>2026-03-28T08:33:23.606Z</time></trkpt><trkpt lat="45.5821927" lon="10.4232937"><ele>428.0</ele><time>2026-03-28T08:33:24.605Z</time></trkpt><trkpt lat="45.5823023" lon="10.4233831"><ele>428.0</ele><time>2026-03-28T08:33:25.615Z</time></trkpt><trkpt lat="45.5823922" lon="10.4234807"><ele>428.0</ele><time>2026-03-28T08:33:26.598Z</time></trkpt><trkpt lat="45.5824819" lon="10.4235981"><ele>428.0</ele><time>2026-03-28T08:33:27.606Z</time></trkpt><trkpt lat="45.5825742" lon="10.423731"><ele>428.0</ele><time>2026-03-28T08:33:28.607Z</time></trkpt><trkpt lat="45.5826725" lon="10.4238749"><ele>424.66666666666663</ele><time>2026-03-28T08:33:29.604Z</time></trkpt><trkpt lat="45.5828054" lon="10.4240852"><ele>421.33333333333337</ele><time>2026-03-28T08:33:30.602Z</time></trkpt><trkpt lat="45.5829241" lon="10.4242436"><ele>418.0</ele><time>2026-03-28T08:33:31.607Z</time></trkpt><trkpt lat="45.5830362" lon="10.4243981"><ele>418.0</ele><time>2026-03-28T08:33:32.6Z</time></trkpt><trkpt lat="45.5831333" lon="10.4245525"><ele>418.0</ele><time>2026-03-28T08:33:33.605Z</time></trkpt><trkpt lat="45.5832209" lon="10.4247369"><ele>418.0</ele><time>2026-03-28T08:33:34.601Z</time></trkpt><trkpt lat="45.5833066" lon="10.4249027"><ele>418.0</ele><time>2026-03-28T08:33:35.606Z</time></trkpt><trkpt lat="45.5834" lon="10.4250589"><ele>413.0</ele><time>2026-03-28T08:33:36.603Z</time></trkpt><trkpt lat="45.583494" lon="10.4252068"><ele>408.0</ele><time>2026-03-28T08:33:37.602Z</time></trkpt><trkpt lat="45.5835908" lon="10.4253648"><ele>403.0</ele><time>2026-03-28T08:33:38.604Z</time></trkpt><trkpt lat="45.5836929" lon="10.4255063"><ele>398.0</ele><time>2026-03-28T08:33:39.599Z</time></trkpt><trkpt lat="45.5837845" lon="10.4256671"><ele>394.75</ele><time>2026-03-28T08:33:40.604Z</time></trkpt><trkpt lat="45.5838949" lon="10.425788"><ele>391.5</ele><time>2026-03-28T08:33:41.603Z</time></trkpt><trkpt lat="45.583998" lon="10.425895"><ele>388.25</ele><time>2026-03-28T08:33:42.596Z</time></trkpt><trkpt lat="45.5840959" lon="10.4259694"><ele>385.0</ele><time>2026-03-28T08:33:43.605Z</time></trkpt><trkpt lat="45.584191" lon="10.4260376"><ele>385.0</ele><time>2026-03-28T08:33:44.604Z</time></trkpt><trkpt lat="45.5842947" lon="10.4261254"><ele>385.0</ele><time>2026-03-28T08:33:45.602Z</time></trkpt><trkpt lat="45.5844009" lon="10.4262307"><ele>385.0</ele><time>2026-03-28T08:33:46.605Z</time></trkpt><trkpt lat="45.5844803" lon="10.4262959"><ele>385.0</ele><time>2026-03-28T08:33:47.608Z</time></trkpt><trkpt lat="45.5845537" lon="10.4263525"><ele>385.0</ele><time>2026-03-28T08:33:48.607Z</time></trkpt><trkpt lat="45.5846421" lon="10.4264001"><ele>381.33333333333337</ele><time>2026-03-28T08:33:49.607Z</time></trkpt><trkpt lat="45.5847308" lon="10.4264095"><ele>377.6666666666667</ele><time>2026-03-28T08:33:50.602Z</time></trkpt><trkpt lat="45.5848184" lon="10.4263861"><ele>374.0</ele><time>2026-03-28T08:33:51.603Z</time></trkpt><trkpt lat="45.5848986" lon="10.426365"><ele>370.33333333333337</ele><time>2026-03-28T08:33:52.606Z</time></trkpt><trkpt lat="45.5849804" lon="10.4263754"><ele>366.6666666666667</ele><time>2026-03-28T08:33:53.602Z</time></trkpt><trkpt lat="45.5850494" lon="10.4264247"><ele>363.0</ele><time>2026-03-28T08:33:54.6Z</time></trkpt><trkpt lat="45.585092" lon="10.4265271"><ele>363.0</ele><time>2026-03-28T08:33:55.603Z</time></trkpt><trkpt lat="45.5851217" lon="10.426645"><ele>363.0</ele><time>2026-03-28T08:33:56.607Z</time></trkpt><trkpt lat="45.5851515" lon="10.4267964"><ele>363.0</ele><time>2026-03-28T08:33:57.606Z</time></trkpt><trkpt lat="45.5851844" lon="10.4269401"><ele>363.0</ele><time>2026-03-28T08:33:58.604Z</time></trkpt><trkpt lat="45.5852045" lon="10.42708"><ele>363.0</ele><time>2026-03-28T08:33:59.605Z</time></trkpt><trkpt lat="45.585204" lon="10.4272143"><ele>360.59999999999997</ele><time>2026-03-28T08:34:00.601Z</time></trkpt><trkpt lat="45.5851818" lon="10.4273483"><ele>358.2</ele><time>2026-03-28T08:34:01.608Z</time></trkpt><trkpt lat="45.5851374" lon="10.4274699"><ele>355.8</ele><time>2026-03-28T08:34:02.601Z</time></trkpt><trkpt lat="45.5850908" lon="10.4275875"><ele>353.4</ele><time>2026-03-28T08:34:03.6Z</time></trkpt><trkpt lat="45.5850274" lon="10.4276999"><ele>351.0</ele><time>2026-03-28T08:34:04.603Z</time></trkpt><trkpt lat="45.5848871" lon="10.4278097"><ele>351.0</ele><time>2026-03-28T08:34:05.605Z</time></trkpt><trkpt lat="45.5847712" lon="10.427918"><ele>351.0</ele><time>2026-03-28T08:34:06.602Z</time></trkpt><trkpt lat="45.5846639" lon="10.4280211"><ele>351.0</ele><time>2026-03-28T08:34:07.604Z</time></trkpt><trkpt lat="45.5845745" lon="10.4281189"><ele>351.0</ele><time>2026-03-28T08:34:08.583Z</time></trkpt><trkpt lat="45.5844526" lon="10.4281667"><ele>347.6</ele><time>2026-03-28T08:34:09.6Z</time></trkpt><trkpt lat="45.5843453" lon="10.4282043"><ele>344.20000000000005</ele><time>2026-03-28T08:34:10.596Z</time></trkpt><trkpt lat="45.5842412" lon="10.4282502"><ele>340.79999999999995</ele><time>2026-03-28T08:34:11.606Z</time></trkpt><trkpt lat="45.5841265" lon="10.4282679"><ele>337.4</ele><time>2026-03-28T08:34:12.596Z</time></trkpt><trkpt lat="45.5840248" lon="10.4282463"><ele>334.0</ele><time>2026-03-28T08:34:13.6Z</time></trkpt><trkpt lat="45.5839319" lon="10.4282016"><ele>334.0</ele><time>2026-03-28T08:34:14.603Z</time></trkpt><trkpt lat="45.5838495" lon="10.4281622"><ele>334.0</ele><time>2026-03-28T08:34:15.6Z</time></trkpt><trkpt lat="45.5837596" lon="10.4281218"><ele>334.0</ele><time>2026-03-28T08:34:16.6Z</time></trkpt><trkpt lat="45.5836837" lon="10.428141"><ele>334.0</ele><time>2026-03-28T08:34:17.598Z</time></trkpt><trkpt lat="45.583647" lon="10.4282232"><ele>334.0</ele><time>2026-03-28T08:34:18.598Z</time></trkpt><trkpt lat="45.5836303" lon="10.4283236"><ele>334.0</ele><time>2026-03-28T08:34:19.597Z</time></trkpt><trkpt lat="45.5836278" lon="10.4284457"><ele>332.5</ele><time>2026-03-28T08:34:20.601Z</time></trkpt><trkpt lat="45.5836494" lon="10.42859"><ele>331.0</ele><time>2026-03-28T08:34:21.603Z</time></trkpt><trkpt lat="45.5836778" lon="10.4287433"><ele>329.5</ele><time>2026-03-28T08:34:22.605Z</time></trkpt><trkpt lat="45.5837025" lon="10.4289064"><ele>328.0</ele><time>2026-03-28T08:34:23.605Z</time></trkpt><trkpt lat="45.5837189" lon="10.4290814"><ele>326.0</ele><time>2026-03-28T08:34:24.611Z</time></trkpt><trkpt lat="45.5837323" lon="10.4292641"><ele>324.0</ele><time>2026-03-28T08:34:25.608Z</time></trkpt><trkpt lat="45.5837354" lon="10.4294424"><ele>322.0</ele><time>2026-03-28T08:34:26.607Z</time></trkpt><trkpt lat="45.5837305" lon="10.4296113"><ele>320.0</ele><time>2026-03-28T08:34:27.604Z</time></trkpt><trkpt lat="45.5837235" lon="10.4297777"><ele>317.4</ele><time>2026-03-28T08:34:28.614Z</time></trkpt><trkpt lat="45.583723" lon="10.4299362"><ele>314.8</ele><time>2026-03-28T08:34:29.597Z</time></trkpt><trkpt lat="45.583728" lon="10.4300872"><ele>312.2</ele><time>2026-03-28T08:34:30.605Z</time></trkpt><trkpt lat="45.5837417" lon="10.4302234"><ele>309.6</ele><time>2026-03-28T08:34:31.604Z</time></trkpt><trkpt lat="45.5837722" lon="10.4303475"><ele>307.0</ele><time>2026-03-28T08:34:32.597Z</time></trkpt><trkpt lat="45.5838102" lon="10.4304649"><ele>305.4285714285714</ele><time>2026-03-28T08:34:33.597Z</time></trkpt><trkpt lat="45.5838444" lon="10.4305786"><ele>303.85714285714283</ele><time>2026-03-28T08:34:34.602Z</time></trkpt><trkpt lat="45.5838659" lon="10.4306872"><ele>302.2857142857143</ele><time>2026-03-28T08:34:35.579Z</time></trkpt><trkpt lat="45.5838667" lon="10.4307899"><ele>300.71428571428567</ele><time>2026-03-28T08:34:36.591Z</time></trkpt><trkpt lat="45.583852" lon="10.4308802"><ele>299.1428571428571</ele><time>2026-03-28T08:34:37.601Z</time></trkpt><trkpt lat="45.5838152" lon="10.4309585"><ele>297.57142857142856</ele><time>2026-03-28T08:34:38.597Z</time></trkpt><trkpt lat="45.583762" lon="10.4310248"><ele>296.0</ele><time>2026-03-28T08:34:39.598Z</time></trkpt><trkpt lat="45.5836922" lon="10.4310695"><ele>292.83333333333337</ele><time>2026-03-28T08:34:40.603Z</time></trkpt><trkpt lat="45.5836083" lon="10.4310741"><ele>289.6666666666667</ele><time>2026-03-28T08:34:41.6Z</time></trkpt><trkpt lat="45.5835168" lon="10.4310509"><ele>286.5</ele><time>2026-03-28T08:34:42.6Z</time></trkpt><trkpt lat="45.5834253" lon="10.4310272"><ele>283.3333333333333</ele><time>2026-03-28T08:34:43.608Z</time></trkpt><trkpt lat="45.5833427" lon="10.4310275"><ele>280.16666666666663</ele><time>2026-03-28T08:34:44.61Z</time></trkpt><trkpt lat="45.58327" lon="10.4310667"><ele>277.0</ele><time>2026-03-28T08:34:45.608Z</time></trkpt><trkpt lat="45.5832074" lon="10.4311502"><ele>277.0</ele><time>2026-03-28T08:34:46.598Z</time></trkpt><trkpt lat="45.5831542" lon="10.4312654"><ele>277.0</ele><time>2026-03-28T08:34:47.605Z</time></trkpt><trkpt lat="45.5831041" lon="10.4313893"><ele>277.0</ele><time>2026-03-28T08:34:48.606Z</time></trkpt><trkpt lat="45.5830438" lon="10.431491"><ele>277.0</ele><time>2026-03-28T08:34:49.61Z</time></trkpt><trkpt lat="45.5829815" lon="10.4315702"><ele>277.0</ele><time>2026-03-28T08:34:50.598Z</time></trkpt><trkpt lat="45.5829128" lon="10.4316289"><ele>272.2</ele><time>2026-03-28T08:34:51.604Z</time></trkpt><trkpt lat="45.5828244" lon="10.4316602"><ele>267.4</ele><time>2026-03-28T08:34:52.605Z</time></trkpt><trkpt lat="45.5827196" lon="10.4316809"><ele>262.6</ele><time>2026-03-28T08:34:53.596Z</time></trkpt><trkpt lat="45.5825991" lon="10.4316988"><ele>257.8</ele><time>2026-03-28T08:34:54.602Z</time></trkpt><trkpt lat="45.5824724" lon="10.4317172"><ele>253.0</ele><time>2026-03-28T08:34:55.605Z</time></trkpt><trkpt lat="45.5823422" lon="10.4317359"><ele>253.0</ele><time>2026-03-28T08:34:56.594Z</time></trkpt><trkpt lat="45.582212" lon="10.431756"><ele>253.0</ele><time>2026-03-28T08:34:57.601Z</time></trkpt><trkpt lat="45.5820907" lon="10.4317771"><ele>253.0</ele><time>2026-03-28T08:34:58.604Z</time></trkpt><trkpt lat="45.5819796" lon="10.4317971"><ele>253.0</ele><time>2026-03-28T08:34:59.602Z</time></trkpt><trkpt lat="45.5818767" lon="10.4318142"><ele>249.2</ele><time>2026-03-28T08:35:00.593Z</time></trkpt><trkpt lat="45.5817782" lon="10.4318296"><ele>245.4</ele><time>2026-03-28T08:35:01.608Z</time></trkpt><trkpt lat="45.5816853" lon="10.4318331"><ele>241.59999999999997</ele><time>2026-03-28T08:35:02.606Z</time></trkpt><trkpt lat="45.5816081" lon="10.4318137"><ele>237.79999999999998</ele><time>2026-03-28T08:35:03.61Z</time></trkpt><trkpt lat="45.5815874" lon="10.4316698"><ele>234.0</ele><time>2026-03-28T08:35:05.605Z</time></trkpt><trkpt lat="45.5816128" lon="10.4315639"><ele>234.0</ele><time>2026-03-28T08:35:06.604Z</time></trkpt><trkpt lat="45.5816442" lon="10.4314569"><ele>234.0</ele><time>2026-03-28T08:35:07.61Z</time></trkpt><trkpt lat="45.5816754" lon="10.4313569"><ele>234.0</ele><time>2026-03-28T08:35:08.609Z</time></trkpt><trkpt lat="45.5817066" lon="10.4312633"><ele>234.0</ele><time>2026-03-28T08:35:09.605Z</time></trkpt><trkpt lat="45.5817313" lon="10.431177"><ele>234.0</ele><time>2026-03-28T08:35:10.61Z</time></trkpt><trkpt lat="45.5817558" lon="10.4310269"><ele>234.0</ele><time>2026-03-28T08:35:12.601Z</time></trkpt><trkpt lat="45.5816935" lon="10.4309116"><ele>233.0</ele><time>2026-03-28T08:35:14.61Z</time></trkpt><trkpt lat="45.5816124" lon="10.4309032"><ele>231.99999999999997</ele><time>2026-03-28T08:35:15.607Z</time></trkpt><trkpt lat="45.5815097" lon="10.4309154"><ele>230.99999999999997</ele><time>2026-03-28T08:35:16.607Z</time></trkpt><trkpt lat="45.5814038" lon="10.4309393"><ele>230.0</ele><time>2026-03-28T08:35:17.608Z</time></trkpt><trkpt lat="45.5812768" lon="10.4309765"><ele>229.0</ele><time>2026-03-28T08:35:18.606Z</time></trkpt><trkpt lat="45.581144" lon="10.431015"><ele>229.0</ele><time>2026-03-28T08:35:19.604Z</time></trkpt><trkpt lat="45.5810027" lon="10.431053"><ele>229.0</ele><time>2026-03-28T08:35:20.608Z</time></trkpt><trkpt lat="45.5808537" lon="10.4310996"><ele>229.0</ele><time>2026-03-28T08:35:21.618Z</time></trkpt><trkpt lat="45.5807093" lon="10.431156"><ele>229.0</ele><time>2026-03-28T08:35:22.603Z</time></trkpt><trkpt lat="45.5805723" lon="10.4312335"><ele>225.33333333333331</ele><time>2026-03-28T08:35:23.692Z</time></trkpt><trkpt lat="45.5804532" lon="10.4313167"><ele>221.66666666666669</ele><time>2026-03-28T08:35:24.613Z</time></trkpt><trkpt lat="45.580318" lon="10.4314172"><ele>218.0</ele><time>2026-03-28T08:35:25.617Z</time></trkpt><trkpt lat="45.5801538" lon="10.43153"><ele>215.75</ele><time>2026-03-28T08:35:26.609Z</time></trkpt><trkpt lat="45.5800439" lon="10.4316438"><ele>213.5</ele><time>2026-03-28T08:35:27.612Z</time></trkpt><trkpt lat="45.5799363" lon="10.4317532"><ele>211.25</ele><time>2026-03-28T08:35:28.612Z</time></trkpt><trkpt lat="45.5798318" lon="10.4318599"><ele>209.0</ele><time>2026-03-28T08:35:29.609Z</time></trkpt><trkpt lat="45.5797535" lon="10.431958"><ele>209.00000000000003</ele><time>2026-03-28T08:35:30.604Z</time></trkpt><trkpt lat="45.5796872" lon="10.4320472"><ele>209.0</ele><time>2026-03-28T08:35:31.609Z</time></trkpt><trkpt lat="45.5796207" lon="10.4321234"><ele>209.0</ele><time>2026-03-28T08:35:32.6Z</time></trkpt><trkpt lat="45.5795464" lon="10.4321863"><ele>209.0</ele><time>2026-03-28T08:35:33.595Z</time></trkpt><trkpt lat="45.5794669" lon="10.4322132"><ele>209.00000000000003</ele><time>2026-03-28T08:35:34.604Z</time></trkpt><trkpt lat="45.5793994" lon="10.432237"><ele>209.0</ele><time>2026-03-28T08:35:35.602Z</time></trkpt><trkpt lat="45.5793242" lon="10.4322771"><ele>208.66666666666669</ele><time>2026-03-28T08:35:36.593Z</time></trkpt><trkpt lat="45.5792627" lon="10.4323215"><ele>208.33333333333334</ele><time>2026-03-28T08:35:37.605Z</time></trkpt><trkpt lat="45.5791923" lon="10.4323791"><ele>208.0</ele><time>2026-03-28T08:35:38.601Z</time></trkpt><trkpt lat="45.5791214" lon="10.4324388"><ele>207.66666666666669</ele><time>2026-03-28T08:35:39.605Z</time></trkpt><trkpt lat="45.5790438" lon="10.4324982"><ele>207.33333333333334</ele><time>2026-03-28T08:35:40.597Z</time></trkpt><trkpt lat="45.5789823" lon="10.4325522"><ele>207.0</ele><time>2026-03-28T08:35:41.607Z</time></trkpt><trkpt lat="45.578914" lon="10.4325902"><ele>207.0</ele><time>2026-03-28T08:35:42.597Z</time></trkpt><trkpt lat="45.578843" lon="10.4326271"><ele>207.0</ele><time>2026-03-28T08:35:43.601Z</time></trkpt><trkpt lat="45.5787787" lon="10.4326817"><ele>207.0</ele><time>2026-03-28T08:35:44.608Z</time></trkpt><trkpt lat="45.5787194" lon="10.4327512"><ele>207.0</ele><time>2026-03-28T08:35:45.601Z</time></trkpt><trkpt lat="45.5786537" lon="10.4328265"><ele>207.0</ele><time>2026-03-28T08:35:46.604Z</time></trkpt><trkpt lat="45.5785851" lon="10.4329021"><ele>207.0</ele><time>2026-03-28T08:35:47.6Z</time></trkpt><trkpt lat="45.5785179" lon="10.4329663"><ele>206.5</ele><time>2026-03-28T08:35:48.605Z</time></trkpt><trkpt lat="45.5783334" lon="10.433153"><ele>206.0</ele><time>2026-03-28T08:35:57.61Z</time></trkpt><trkpt lat="45.578298" lon="10.4332809"><ele>205.5</ele><time>2026-03-28T08:35:59.608Z</time></trkpt><trkpt lat="45.5783356" lon="10.4334308"><ele>205.0</ele><time>2026-03-28T08:36:00.614Z</time></trkpt><trkpt lat="45.5783423" lon="10.433538"><ele>205.0</ele><time>2026-03-28T08:36:01.611Z</time></trkpt><trkpt lat="45.5784025" lon="10.4336883"><ele>205.0</ele><time>2026-03-28T08:36:02.609Z</time></trkpt><trkpt lat="45.5784628" lon="10.4338305"><ele>205.0</ele><time>2026-03-28T08:36:03.609Z</time></trkpt><trkpt lat="45.5785542" lon="10.4339696"><ele>205.0</ele><time>2026-03-28T08:36:04.607Z</time></trkpt><trkpt lat="45.5786353" lon="10.4340879"><ele>205.25</ele><time>2026-03-28T08:36:05.609Z</time></trkpt><trkpt lat="45.57874" lon="10.4342102"><ele>205.5</ele><time>2026-03-28T08:36:06.608Z</time></trkpt><trkpt lat="45.5788222" lon="10.4343275"><ele>205.75</ele><time>2026-03-28T08:36:07.6Z</time></trkpt><trkpt lat="45.5789305" lon="10.4344518"><ele>206.0</ele><time>2026-03-28T08:36:08.607Z</time></trkpt><trkpt lat="45.5790268" lon="10.4345726"><ele>205.0</ele><time>2026-03-28T08:36:09.606Z</time></trkpt><trkpt lat="45.5791095" lon="10.4346953"><ele>204.0</ele><time>2026-03-28T08:36:10.605Z</time></trkpt><trkpt lat="45.5791817" lon="10.4348314"><ele>203.0</ele><time>2026-03-28T08:36:11.606Z</time></trkpt><trkpt lat="45.5792461" lon="10.434972"><ele>202.0</ele><time>2026-03-28T08:36:12.607Z</time></trkpt><trkpt lat="45.5793092" lon="10.4351288"><ele>202.0</ele><time>2026-03-28T08:36:13.609Z</time></trkpt><trkpt lat="45.5793492" lon="10.4352763"><ele>202.0</ele><time>2026-03-28T08:36:14.611Z</time></trkpt><trkpt lat="45.5793797" lon="10.435416"><ele>202.0</ele><time>2026-03-28T08:36:15.609Z</time></trkpt><trkpt lat="45.5793999" lon="10.4355143"><ele>202.0</ele><time>2026-03-28T08:36:16.608Z</time></trkpt><trkpt lat="45.5794359" lon="10.4356101"><ele>202.0</ele><time>2026-03-28T08:36:17.606Z</time></trkpt><trkpt lat="45.5794907" lon="10.4357497"><ele>202.16666666666666</ele><time>2026-03-28T08:36:19.606Z</time></trkpt><trkpt lat="45.5795272" lon="10.4358535"><ele>202.33333333333331</ele><time>2026-03-28T08:36:21.607Z</time></trkpt><trkpt lat="45.5795475" lon="10.435954"><ele>202.5</ele><time>2026-03-28T08:36:33.591Z</time></trkpt><trkpt lat="45.5795775" lon="10.4360774"><ele>202.66666666666669</ele><time>2026-03-28T08:36:36.61Z</time></trkpt><trkpt lat="45.5796359" lon="10.436163"><ele>202.83333333333334</ele><time>2026-03-28T08:37:00.596Z</time></trkpt><trkpt lat="45.579659" lon="10.4362474"><ele>203.0</ele><time>2026-03-28T08:37:21.612Z</time></trkpt><trkpt lat="45.5797042" lon="10.4363576"><ele>202.50000000000003</ele><time>2026-03-28T08:37:25.605Z</time></trkpt><trkpt lat="45.5796905" lon="10.4364734"><ele>202.0</ele><time>2026-03-28T08:37:28.604Z</time></trkpt><trkpt lat="45.5796075" lon="10.4364837"><ele>201.5</ele><time>2026-03-28T08:37:30.603Z</time></trkpt><trkpt lat="45.5795299" lon="10.4364735"><ele>201.0</ele><time>2026-03-28T08:37:31.604Z</time></trkpt><trkpt lat="45.5794418" lon="10.4364643"><ele>200.50000000000003</ele><time>2026-03-28T08:37:32.601Z</time></trkpt><trkpt lat="45.5793259" lon="10.4364589"><ele>200.0</ele><time>2026-03-28T08:37:33.602Z</time></trkpt><trkpt lat="45.579212" lon="10.4364544"><ele>199.8</ele><time>2026-03-28T08:37:34.608Z</time></trkpt><trkpt lat="45.579116" lon="10.4364497"><ele>199.6</ele><time>2026-03-28T08:37:35.596Z</time></trkpt><trkpt lat="45.5790241" lon="10.4364451"><ele>199.39999999999998</ele><time>2026-03-28T08:37:36.6Z</time></trkpt><trkpt lat="45.5789355" lon="10.4364386"><ele>199.2</ele><time>2026-03-28T08:37:37.599Z</time></trkpt><trkpt lat="45.5788372" lon="10.4364309"><ele>199.0</ele><time>2026-03-28T08:37:38.597Z</time></trkpt><trkpt lat="45.578732" lon="10.4364238"><ele>199.2</ele><time>2026-03-28T08:37:39.601Z</time></trkpt><trkpt lat="45.5786162" lon="10.4364159"><ele>199.39999999999998</ele><time>2026-03-28T08:37:40.6Z</time></trkpt><trkpt lat="45.5785026" lon="10.4364129"><ele>199.6</ele><time>2026-03-28T08:37:41.596Z</time></trkpt><trkpt lat="45.5783962" lon="10.4364037"><ele>199.8</ele><time>2026-03-28T08:37:42.599Z</time></trkpt><trkpt lat="45.5782949" lon="10.4363941"><ele>200.0</ele><time>2026-03-28T08:37:43.599Z</time></trkpt><trkpt lat="45.5781967" lon="10.4363887"><ele>200.00000000000003</ele><time>2026-03-28T08:37:44.6Z</time></trkpt><trkpt lat="45.5780981" lon="10.4363886"><ele>200.0</ele><time>2026-03-28T08:37:45.6Z</time></trkpt><trkpt lat="45.5780101" lon="10.4363808"><ele>200.0</ele><time>2026-03-28T08:37:46.602Z</time></trkpt><trkpt lat="45.5779232" lon="10.4363693"><ele>200.0</ele><time>2026-03-28T08:37:47.6Z</time></trkpt><trkpt lat="45.5778484" lon="10.4363607"><ele>200.00000000000003</ele><time>2026-03-28T08:37:48.603Z</time></trkpt><trkpt lat="45.5777707" lon="10.4363583"><ele>200.0</ele><time>2026-03-28T08:37:49.596Z</time></trkpt><trkpt lat="45.5776915" lon="10.4363472"><ele>200.0</ele><time>2026-03-28T08:37:50.604Z</time></trkpt><trkpt lat="45.5776048" lon="10.4363352"><ele>200.0</ele><time>2026-03-28T08:37:51.601Z</time></trkpt><trkpt lat="45.5774994" lon="10.436319"><ele>200.0</ele><time>2026-03-28T08:37:52.605Z</time></trkpt><trkpt lat="45.5773931" lon="10.4363049"><ele>200.0</ele><time>2026-03-28T08:37:53.599Z</time></trkpt><trkpt lat="45.5772721" lon="10.4362872"><ele>200.0</ele><time>2026-03-28T08:37:54.607Z</time></trkpt><trkpt lat="45.5771746" lon="10.436278"><ele>200.0</ele><time>2026-03-28T08:37:55.6Z</time></trkpt><trkpt lat="45.5770794" lon="10.4362639"><ele>200.0</ele><time>2026-03-28T08:37:56.596Z</time></trkpt><trkpt lat="45.5769863" lon="10.4362403"><ele>200.0</ele><time>2026-03-28T08:37:57.607Z</time></trkpt><trkpt lat="45.5769066" lon="10.4362297"><ele>200.0</ele><time>2026-03-28T08:37:58.601Z</time></trkpt><trkpt lat="45.5768105" lon="10.4362102"><ele>200.0</ele><time>2026-03-28T08:37:59.609Z</time></trkpt><trkpt lat="45.576724" lon="10.4362029"><ele>200.0</ele><time>2026-03-28T08:38:00.601Z</time></trkpt><trkpt lat="45.5766055" lon="10.436178"><ele>200.0</ele><time>2026-03-28T08:38:01.617Z</time></trkpt><trkpt lat="45.5764923" lon="10.4361697"><ele>200.0</ele><time>2026-03-28T08:38:02.601Z</time></trkpt><trkpt lat="45.5763701" lon="10.4361532"><ele>200.0</ele><time>2026-03-28T08:38:03.601Z</time></trkpt><trkpt lat="45.5762386" lon="10.4361359"><ele>199.75</ele><time>2026-03-28T08:38:04.606Z</time></trkpt><trkpt lat="45.5761041" lon="10.436123"><ele>199.5</ele><time>2026-03-28T08:38:05.603Z</time></trkpt><trkpt lat="45.575961" lon="10.4361172"><ele>199.25</ele><time>2026-03-28T08:38:06.6Z</time></trkpt><trkpt lat="45.5758078" lon="10.4361544"><ele>199.0</ele><time>2026-03-28T08:38:07.606Z</time></trkpt><trkpt lat="45.5756669" lon="10.4361385"><ele>199.0</ele><time>2026-03-28T08:38:08.597Z</time></trkpt><trkpt lat="45.5755376" lon="10.4361286"><ele>199.0</ele><time>2026-03-28T08:38:09.581Z</time></trkpt><trkpt lat="45.5754423" lon="10.4361494"><ele>199.0</ele><time>2026-03-28T08:38:10.598Z</time></trkpt><trkpt lat="45.5753495" lon="10.436134"><ele>199.0</ele><time>2026-03-28T08:38:11.6Z</time></trkpt><trkpt lat="45.5752381" lon="10.4361805"><ele>199.0</ele><time>2026-03-28T08:38:13.6Z</time></trkpt><trkpt lat="45.5751297" lon="10.4361922"><ele>199.0</ele><time>2026-03-28T08:38:15.603Z</time></trkpt><trkpt lat="45.5750458" lon="10.4361946"><ele>199.0</ele><time>2026-03-28T08:38:17.608Z</time></trkpt><trkpt lat="45.574983" lon="10.4362079"><ele>199.0</ele><time>2026-03-28T08:38:19.604Z</time></trkpt><trkpt lat="45.5748581" lon="10.4361783"><ele>199.0</ele><time>2026-03-28T08:38:21.607Z</time></trkpt><trkpt lat="45.5747667" lon="10.4361853"><ele>199.0</ele><time>2026-03-28T08:38:23.612Z</time></trkpt><trkpt lat="45.5747488" lon="10.4364271"><ele>198.79999999999998</ele><time>2026-03-28T08:38:32.603Z</time></trkpt><trkpt lat="45.574829" lon="10.436594"><ele>198.6</ele><time>2026-03-28T08:38:34.601Z</time></trkpt><trkpt lat="45.5748623" lon="10.4367005"><ele>198.4</ele><time>2026-03-28T08:38:35.6Z</time></trkpt><trkpt lat="45.5748969" lon="10.436823"><ele>198.2</ele><time>2026-03-28T08:38:36.6Z</time></trkpt><trkpt lat="45.5749309" lon="10.436953"><ele>198.0</ele><time>2026-03-28T08:38:37.598Z</time></trkpt><trkpt lat="45.5749719" lon="10.4370868"><ele>198.0</ele><time>2026-03-28T08:38:38.606Z</time></trkpt><trkpt lat="45.5750119" lon="10.4372244"><ele>198.0</ele><time>2026-03-28T08:38:39.599Z</time></trkpt><trkpt lat="45.5750512" lon="10.4373773"><ele>198.0</ele><time>2026-03-28T08:38:40.604Z</time></trkpt><trkpt lat="45.5750919" lon="10.437535"><ele>198.0</ele><time>2026-03-28T08:38:41.6Z</time></trkpt><trkpt lat="45.5751359" lon="10.437695"><ele>198.0</ele><time>2026-03-28T08:38:42.598Z</time></trkpt><trkpt lat="45.5751902" lon="10.4378548"><ele>198.0</ele><time>2026-03-28T08:38:43.606Z</time></trkpt><trkpt lat="45.5752284" lon="10.4380121"><ele>198.0</ele><time>2026-03-28T08:38:44.6Z</time></trkpt><trkpt lat="45.5752673" lon="10.4381647"><ele>198.0</ele><time>2026-03-28T08:38:45.597Z</time></trkpt><trkpt lat="45.5753064" lon="10.4383181"><ele>197.8</ele><time>2026-03-28T08:38:46.6Z</time></trkpt><trkpt lat="45.5753407" lon="10.4384639"><ele>197.60000000000002</ele><time>2026-03-28T08:38:47.597Z</time></trkpt><trkpt lat="45.5753751" lon="10.4386019"><ele>197.39999999999998</ele><time>2026-03-28T08:38:48.581Z</time></trkpt><trkpt lat="45.57541" lon="10.4387382"><ele>197.2</ele><time>2026-03-28T08:38:49.587Z</time></trkpt><trkpt lat="45.5754484" lon="10.4388701"><ele>197.0</ele><time>2026-03-28T08:38:50.597Z</time></trkpt><trkpt lat="45.5754848" lon="10.4389933"><ele>196.8</ele><time>2026-03-28T08:38:51.597Z</time></trkpt><trkpt lat="45.5755237" lon="10.4391131"><ele>196.6</ele><time>2026-03-28T08:38:52.596Z</time></trkpt><trkpt lat="45.5755754" lon="10.4392342"><ele>196.4</ele><time>2026-03-28T08:38:53.601Z</time></trkpt><trkpt lat="45.575631" lon="10.4393606"><ele>196.20000000000002</ele><time>2026-03-28T08:38:54.605Z</time></trkpt><trkpt lat="45.5756811" lon="10.4395008"><ele>196.0</ele><time>2026-03-28T08:38:55.595Z</time></trkpt><trkpt lat="45.5757573" lon="10.4396582"><ele>195.25</ele><time>2026-03-28T08:38:56.608Z</time></trkpt><trkpt lat="45.5758092" lon="10.4398143"><ele>194.5</ele><time>2026-03-28T08:38:57.6Z</time></trkpt><trkpt lat="45.5758556" lon="10.4399643"><ele>193.75</ele><time>2026-03-28T08:38:58.603Z</time></trkpt><trkpt lat="45.5759005" lon="10.4401163"><ele>193.0</ele><time>2026-03-28T08:38:59.598Z</time></trkpt><trkpt lat="45.5759451" lon="10.4402617"><ele>193.0</ele><time>2026-03-28T08:39:00.6Z</time></trkpt><trkpt lat="45.5759901" lon="10.4404108"><ele>193.0</ele><time>2026-03-28T08:39:01.607Z</time></trkpt><trkpt lat="45.5760331" lon="10.4405499"><ele>193.0</ele><time>2026-03-28T08:39:02.6Z</time></trkpt><trkpt lat="45.5760731" lon="10.4406924"><ele>193.0</ele><time>2026-03-28T08:39:03.6Z</time></trkpt><trkpt lat="45.5761148" lon="10.4408276"><ele>193.0</ele><time>2026-03-28T08:39:04.597Z</time></trkpt><trkpt lat="45.576148" lon="10.4409384"><ele>193.0</ele><time>2026-03-28T08:39:05.607Z</time></trkpt><trkpt lat="45.5761899" lon="10.4410394"><ele>193.0</ele><time>2026-03-28T08:39:07.602Z</time></trkpt><trkpt lat="45.5762248" lon="10.4411657"><ele>193.0</ele><time>2026-03-28T08:39:10.607Z</time></trkpt><trkpt lat="45.5762035" lon="10.4412981"><ele>193.0</ele><time>2026-03-28T08:39:12.601Z</time></trkpt><trkpt lat="45.5761549" lon="10.441449"><ele>193.0</ele><time>2026-03-28T08:39:14.614Z</time></trkpt><trkpt lat="45.5761182" lon="10.44153"><ele>193.0</ele><time>2026-03-28T08:39:15.601Z</time></trkpt><trkpt lat="45.5760622" lon="10.4416114"><ele>193.0</ele><time>2026-03-28T08:39:16.603Z</time></trkpt><trkpt lat="45.5759964" lon="10.4416903"><ele>193.0</ele><time>2026-03-28T08:39:17.598Z</time></trkpt><trkpt lat="45.5759184" lon="10.4417654"><ele>193.0</ele><time>2026-03-28T08:39:18.602Z</time></trkpt><trkpt lat="45.5758067" lon="10.4418446"><ele>193.0</ele><time>2026-03-28T08:39:19.603Z</time></trkpt><trkpt lat="45.5757106" lon="10.441923"><ele>192.99999999999997</ele><time>2026-03-28T08:39:20.6Z</time></trkpt><trkpt lat="45.5756389" lon="10.4419861"><ele>193.0</ele><time>2026-03-28T08:39:21.603Z</time></trkpt><trkpt lat="45.5755759" lon="10.4420417"><ele>193.0</ele><time>2026-03-28T08:39:22.601Z</time></trkpt><trkpt lat="45.5755051" lon="10.4420894"><ele>193.0</ele><time>2026-03-28T08:39:23.601Z</time></trkpt><trkpt lat="45.5754235" lon="10.4421312"><ele>192.99999999999997</ele><time>2026-03-28T08:39:24.609Z</time></trkpt><trkpt lat="45.5753323" lon="10.4421589"><ele>193.0</ele><time>2026-03-28T08:39:25.602Z</time></trkpt><trkpt lat="45.5752231" lon="10.4421503"><ele>192.5</ele><time>2026-03-28T08:39:26.606Z</time></trkpt><trkpt lat="45.5751003" lon="10.4421068"><ele>192.0</ele><time>2026-03-28T08:39:27.599Z</time></trkpt><trkpt lat="45.5749817" lon="10.4420248"><ele>191.5</ele><time>2026-03-28T08:39:28.608Z</time></trkpt><trkpt lat="45.5748584" lon="10.441919"><ele>191.0</ele><time>2026-03-28T08:39:29.609Z</time></trkpt><trkpt lat="45.5747387" lon="10.4418346"><ele>191.0</ele><time>2026-03-28T08:39:30.605Z</time></trkpt><trkpt lat="45.5746215" lon="10.4417717"><ele>191.0</ele><time>2026-03-28T08:39:31.609Z</time></trkpt><trkpt lat="45.5745036" lon="10.4418092"><ele>191.0</ele><time>2026-03-28T08:39:32.605Z</time></trkpt><trkpt lat="45.5743951" lon="10.4418462"><ele>191.0</ele><time>2026-03-28T08:39:33.601Z</time></trkpt><trkpt lat="45.5742845" lon="10.4419603"><ele>190.75</ele><time>2026-03-28T08:39:34.604Z</time></trkpt><trkpt lat="45.5741897" lon="10.4420837"><ele>190.5</ele><time>2026-03-28T08:39:35.604Z</time></trkpt><trkpt lat="45.5741151" lon="10.4422059"><ele>190.25</ele><time>2026-03-28T08:39:36.609Z</time></trkpt><trkpt lat="45.5740353" lon="10.4423224"><ele>190.0</ele><time>2026-03-28T08:39:37.598Z</time></trkpt><trkpt lat="45.5739353" lon="10.4424012"><ele>190.5</ele><time>2026-03-28T08:39:38.604Z</time></trkpt><trkpt lat="45.573832" lon="10.4424369"><ele>191.0</ele><time>2026-03-28T08:39:39.609Z</time></trkpt><trkpt lat="45.5737272" lon="10.442411"><ele>191.5</ele><time>2026-03-28T08:39:40.596Z</time></trkpt><trkpt lat="45.5736188" lon="10.4423403"><ele>192.0</ele><time>2026-03-28T08:39:41.593Z</time></trkpt><trkpt lat="45.5735039" lon="10.442235"><ele>192.0</ele><time>2026-03-28T08:39:42.598Z</time></trkpt><trkpt lat="45.5733578" lon="10.4421121"><ele>192.0</ele><time>2026-03-28T08:39:43.599Z</time></trkpt><trkpt lat="45.5731905" lon="10.441996"><ele>192.0</ele><time>2026-03-28T08:39:44.597Z</time></trkpt><trkpt lat="45.5730053" lon="10.4418862"><ele>192.0</ele><time>2026-03-28T08:39:45.604Z</time></trkpt><trkpt lat="45.5728192" lon="10.4417564"><ele>192.0</ele><time>2026-03-28T08:39:46.598Z</time></trkpt><trkpt lat="45.5726398" lon="10.4416687"><ele>192.0</ele><time>2026-03-28T08:39:47.604Z</time></trkpt><trkpt lat="45.5724481" lon="10.4415984"><ele>192.0</ele><time>2026-03-28T08:39:48.603Z</time></trkpt><trkpt lat="45.572259" lon="10.4415226"><ele>192.0</ele><time>2026-03-28T08:39:49.601Z</time></trkpt><trkpt lat="45.5720704" lon="10.4414362"><ele>192.0</ele><time>2026-03-28T08:39:50.607Z</time></trkpt><trkpt lat="45.5718817" lon="10.4413602"><ele>193.33333333333331</ele><time>2026-03-28T08:39:51.613Z</time></trkpt><trkpt lat="45.5716952" lon="10.4412955"><ele>194.66666666666666</ele><time>2026-03-28T08:39:52.615Z</time></trkpt><trkpt lat="45.5714977" lon="10.4412496"><ele>196.0</ele><time>2026-03-28T08:39:53.615Z</time></trkpt><trkpt lat="45.5712862" lon="10.4412066"><ele>196.33333333333331</ele><time>2026-03-28T08:39:54.614Z</time></trkpt><trkpt lat="45.5710852" lon="10.4411722"><ele>196.66666666666669</ele><time>2026-03-28T08:39:55.613Z</time></trkpt><trkpt lat="45.570893" lon="10.4411558"><ele>197.0</ele><time>2026-03-28T08:39:56.615Z</time></trkpt><trkpt lat="45.5707034" lon="10.4411654"><ele>197.0</ele><time>2026-03-28T08:39:57.611Z</time></trkpt><trkpt lat="45.5705137" lon="10.4411726"><ele>197.0</ele><time>2026-03-28T08:39:58.61Z</time></trkpt><trkpt lat="45.5703193" lon="10.4412117"><ele>197.0</ele><time>2026-03-28T08:39:59.606Z</time></trkpt><trkpt lat="45.5701357" lon="10.4412658"><ele>196.0</ele><time>2026-03-28T08:40:00.609Z</time></trkpt><trkpt lat="45.5699653" lon="10.4413169"><ele>195.0</ele><time>2026-03-28T08:40:01.614Z</time></trkpt><trkpt lat="45.5698095" lon="10.4413531"><ele>194.0</ele><time>2026-03-28T08:40:02.601Z</time></trkpt><trkpt lat="45.5696504" lon="10.4414253"><ele>194.0</ele><time>2026-03-28T08:40:03.613Z</time></trkpt><trkpt lat="45.5694847" lon="10.4414802"><ele>194.0</ele><time>2026-03-28T08:40:04.604Z</time></trkpt><trkpt lat="45.5693218" lon="10.4415351"><ele>194.0</ele><time>2026-03-28T08:40:05.604Z</time></trkpt><trkpt lat="45.5691617" lon="10.4415701"><ele>194.0</ele><time>2026-03-28T08:40:06.61Z</time></trkpt><trkpt lat="45.5689937" lon="10.4415911"><ele>194.0</ele><time>2026-03-28T08:40:07.612Z</time></trkpt><trkpt lat="45.5688288" lon="10.4416457"><ele>194.0</ele><time>2026-03-28T08:40:08.606Z</time></trkpt><trkpt lat="45.5686591" lon="10.4417091"><ele>193.33333333333334</ele><time>2026-03-28T08:40:09.615Z</time></trkpt><trkpt lat="45.5684844" lon="10.4417671"><ele>192.66666666666669</ele><time>2026-03-28T08:40:10.613Z</time></trkpt><trkpt lat="45.5683135" lon="10.4418302"><ele>192.0</ele><time>2026-03-28T08:40:11.611Z</time></trkpt><trkpt lat="45.5681264" lon="10.4418827"><ele>192.0</ele><time>2026-03-28T08:40:12.619Z</time></trkpt><trkpt lat="45.5679352" lon="10.4419366"><ele>192.0</ele><time>2026-03-28T08:40:13.613Z</time></trkpt><trkpt lat="45.5677408" lon="10.4419765"><ele>192.0</ele><time>2026-03-28T08:40:14.616Z</time></trkpt><trkpt lat="45.5675484" lon="10.4419821"><ele>192.0</ele><time>2026-03-28T08:40:15.614Z</time></trkpt><trkpt lat="45.5673475" lon="10.441966"><ele>192.0</ele><time>2026-03-28T08:40:16.62Z</time></trkpt><trkpt lat="45.5671435" lon="10.4419548"><ele>192.0</ele><time>2026-03-28T08:40:17.616Z</time></trkpt><trkpt lat="45.5669459" lon="10.4419546"><ele>192.0</ele><time>2026-03-28T08:40:18.614Z</time></trkpt><trkpt lat="45.5667595" lon="10.4419448"><ele>192.0</ele><time>2026-03-28T08:40:19.617Z</time></trkpt><trkpt lat="45.5665674" lon="10.4419353"><ele>192.0</ele><time>2026-03-28T08:40:20.616Z</time></trkpt><trkpt lat="45.566394" lon="10.441932"><ele>192.0</ele><time>2026-03-28T08:40:21.617Z</time></trkpt><trkpt lat="45.5662298" lon="10.4419285"><ele>192.0</ele><time>2026-03-28T08:40:22.615Z</time></trkpt><trkpt lat="45.5660698" lon="10.4419356"><ele>192.0</ele><time>2026-03-28T08:40:23.613Z</time></trkpt><trkpt lat="45.5659021" lon="10.4419367"><ele>192.0</ele><time>2026-03-28T08:40:24.615Z</time></trkpt><trkpt lat="45.5657212" lon="10.4419262"><ele>192.0</ele><time>2026-03-28T08:40:25.62Z</time></trkpt><trkpt lat="45.5655567" lon="10.4419364"><ele>192.0</ele><time>2026-03-28T08:40:26.619Z</time></trkpt><trkpt lat="45.5653945" lon="10.4419243"><ele>191.66666666666666</ele><time>2026-03-28T08:40:27.614Z</time></trkpt><trkpt lat="45.5652099" lon="10.4419133"><ele>191.33333333333331</ele><time>2026-03-28T08:40:28.627Z</time></trkpt><trkpt lat="45.5650363" lon="10.4418882"><ele>191.0</ele><time>2026-03-28T08:40:29.618Z</time></trkpt><trkpt lat="45.5648572" lon="10.4418589"><ele>191.0</ele><time>2026-03-28T08:40:30.615Z</time></trkpt><trkpt lat="45.5646851" lon="10.4418287"><ele>191.0</ele><time>2026-03-28T08:40:31.623Z</time></trkpt><trkpt lat="45.5645118" lon="10.4417681"><ele>191.0</ele><time>2026-03-28T08:40:32.613Z</time></trkpt><trkpt lat="45.5643447" lon="10.4417072"><ele>191.0</ele><time>2026-03-28T08:40:33.607Z</time></trkpt><trkpt lat="45.5641868" lon="10.4416512"><ele>191.0</ele><time>2026-03-28T08:40:34.606Z</time></trkpt><trkpt lat="45.5640283" lon="10.4415701"><ele>191.0</ele><time>2026-03-28T08:40:35.609Z</time></trkpt><trkpt lat="45.5638661" lon="10.441463"><ele>191.0</ele><time>2026-03-28T08:40:36.608Z</time></trkpt><trkpt lat="45.5637114" lon="10.4413409"><ele>191.0</ele><time>2026-03-28T08:40:37.603Z</time></trkpt><trkpt lat="45.5635621" lon="10.4412272"><ele>191.0</ele><time>2026-03-28T08:40:38.616Z</time></trkpt><trkpt lat="45.5634029" lon="10.441091"><ele>190.66666666666666</ele><time>2026-03-28T08:40:39.621Z</time></trkpt><trkpt lat="45.563255" lon="10.4409255"><ele>190.33333333333334</ele><time>2026-03-28T08:40:40.613Z</time></trkpt><trkpt lat="45.5631084" lon="10.4407685"><ele>190.0</ele><time>2026-03-28T08:40:41.615Z</time></trkpt><trkpt lat="45.5629728" lon="10.4405871"><ele>190.0</ele><time>2026-03-28T08:40:42.61Z</time></trkpt><trkpt lat="45.5628428" lon="10.4404299"><ele>190.0</ele><time>2026-03-28T08:40:43.609Z</time></trkpt><trkpt lat="45.5627072" lon="10.4402674"><ele>190.0</ele><time>2026-03-28T08:40:44.609Z</time></trkpt><trkpt lat="45.5625664" lon="10.4400956"><ele>190.0</ele><time>2026-03-28T08:40:45.613Z</time></trkpt><trkpt lat="45.5624228" lon="10.4399323"><ele>190.0</ele><time>2026-03-28T08:40:46.606Z</time></trkpt><trkpt lat="45.5622724" lon="10.439766"><ele>190.0</ele><time>2026-03-28T08:40:47.608Z</time></trkpt><trkpt lat="45.5621282" lon="10.4396127"><ele>190.33333333333334</ele><time>2026-03-28T08:40:48.614Z</time></trkpt><trkpt lat="45.5619662" lon="10.4394394"><ele>190.66666666666666</ele><time>2026-03-28T08:40:49.609Z</time></trkpt><trkpt lat="45.5617934" lon="10.4392656"><ele>191.0</ele><time>2026-03-28T08:40:50.607Z</time></trkpt><trkpt lat="45.5616274" lon="10.4391147"><ele>191.0</ele><time>2026-03-28T08:40:51.608Z</time></trkpt><trkpt lat="45.5614575" lon="10.4389438"><ele>191.0</ele><time>2026-03-28T08:40:52.608Z</time></trkpt><trkpt lat="45.5613139" lon="10.4387897"><ele>191.0</ele><time>2026-03-28T08:40:53.61Z</time></trkpt><trkpt lat="45.5611703" lon="10.4386376"><ele>191.0</ele><time>2026-03-28T08:40:54.606Z</time></trkpt><trkpt lat="45.5610353" lon="10.4385007"><ele>191.0</ele><time>2026-03-28T08:40:55.613Z</time></trkpt><trkpt lat="45.56089" lon="10.4383545"><ele>191.0</ele><time>2026-03-28T08:40:56.613Z</time></trkpt><trkpt lat="45.5607533" lon="10.4381847"><ele>191.0</ele><time>2026-03-28T08:40:57.612Z</time></trkpt><trkpt lat="45.5606325" lon="10.4380363"><ele>191.0</ele><time>2026-03-28T08:40:58.611Z</time></trkpt><trkpt lat="45.5604938" lon="10.4378766"><ele>191.0</ele><time>2026-03-28T08:40:59.613Z</time></trkpt><trkpt lat="45.5603571" lon="10.4377259"><ele>190.66666666666666</ele><time>2026-03-28T08:41:00.613Z</time></trkpt><trkpt lat="45.5602164" lon="10.4375712"><ele>190.33333333333334</ele><time>2026-03-28T08:41:01.616Z</time></trkpt><trkpt lat="45.5600732" lon="10.4374218"><ele>190.0</ele><time>2026-03-28T08:41:02.607Z</time></trkpt><trkpt lat="45.5599289" lon="10.4372747"><ele>190.0</ele><time>2026-03-28T08:41:03.611Z</time></trkpt><trkpt lat="45.5597749" lon="10.437139"><ele>190.0</ele><time>2026-03-28T08:41:04.611Z</time></trkpt><trkpt lat="45.5596099" lon="10.4369993"><ele>190.0</ele><time>2026-03-28T08:41:05.604Z</time></trkpt><trkpt lat="45.5594261" lon="10.4368522"><ele>190.0</ele><time>2026-03-28T08:41:06.612Z</time></trkpt><trkpt lat="45.5592709" lon="10.4367009"><ele>190.0</ele><time>2026-03-28T08:41:07.603Z</time></trkpt><trkpt lat="45.5590889" lon="10.4365563"><ele>190.0</ele><time>2026-03-28T08:41:08.613Z</time></trkpt><trkpt lat="45.5589004" lon="10.4364126"><ele>190.0</ele><time>2026-03-28T08:41:09.614Z</time></trkpt><trkpt lat="45.5586997" lon="10.4362802"><ele>190.0</ele><time>2026-03-28T08:41:10.61Z</time></trkpt><trkpt lat="45.5585304" lon="10.436144"><ele>190.0</ele><time>2026-03-28T08:41:11.608Z</time></trkpt><trkpt lat="45.5583665" lon="10.436006"><ele>190.0</ele><time>2026-03-28T08:41:12.613Z</time></trkpt><trkpt lat="45.5581735" lon="10.435878"><ele>190.0</ele><time>2026-03-28T08:41:13.607Z</time></trkpt><trkpt lat="45.5579753" lon="10.4357491"><ele>190.0</ele><time>2026-03-28T08:41:14.614Z</time></trkpt><trkpt lat="45.5577778" lon="10.4356271"><ele>190.0</ele><time>2026-03-28T08:41:15.614Z</time></trkpt><trkpt lat="45.5575798" lon="10.4355037"><ele>190.0</ele><time>2026-03-28T08:41:16.606Z</time></trkpt><trkpt lat="45.5573922" lon="10.4353832"><ele>190.0</ele><time>2026-03-28T08:41:17.613Z</time></trkpt><trkpt lat="45.5572008" lon="10.435264"><ele>189.33333333333334</ele><time>2026-03-28T08:41:18.612Z</time></trkpt><trkpt lat="45.5569987" lon="10.435157"><ele>188.66666666666666</ele><time>2026-03-28T08:41:19.609Z</time></trkpt><trkpt lat="45.5567983" lon="10.4350511"><ele>188.0</ele><time>2026-03-28T08:41:20.615Z</time></trkpt><trkpt lat="45.556587" lon="10.4349103"><ele>188.0</ele><time>2026-03-28T08:41:21.619Z</time></trkpt><trkpt lat="45.5563897" lon="10.434798"><ele>188.0</ele><time>2026-03-28T08:41:22.613Z</time></trkpt><trkpt lat="45.5561911" lon="10.4346539"><ele>188.0</ele><time>2026-03-28T08:41:23.613Z</time></trkpt><trkpt lat="45.5559946" lon="10.4345315"><ele>189.66666666666666</ele><time>2026-03-28T08:41:24.616Z</time></trkpt><trkpt lat="45.5557851" lon="10.4344043"><ele>191.33333333333331</ele><time>2026-03-28T08:41:25.609Z</time></trkpt><trkpt lat="45.5556013" lon="10.4342962"><ele>193.0</ele><time>2026-03-28T08:41:26.615Z</time></trkpt><trkpt lat="45.555425" lon="10.4342019"><ele>191.33333333333331</ele><time>2026-03-28T08:41:27.615Z</time></trkpt><trkpt lat="45.5552394" lon="10.4340972"><ele>189.66666666666666</ele><time>2026-03-28T08:41:28.621Z</time></trkpt><trkpt lat="45.5550791" lon="10.4339884"><ele>188.0</ele><time>2026-03-28T08:41:29.613Z</time></trkpt><trkpt lat="45.5549011" lon="10.4338687"><ele>188.0</ele><time>2026-03-28T08:41:30.614Z</time></trkpt><trkpt lat="45.5547019" lon="10.433773"><ele>188.0</ele><time>2026-03-28T08:41:31.625Z</time></trkpt><trkpt lat="45.5545121" lon="10.4336483"><ele>188.0</ele><time>2026-03-28T08:41:32.616Z</time></trkpt><trkpt lat="45.5543498" lon="10.4335125"><ele>188.33333333333331</ele><time>2026-03-28T08:41:33.616Z</time></trkpt><trkpt lat="45.5541829" lon="10.4333929"><ele>188.66666666666666</ele><time>2026-03-28T08:41:34.617Z</time></trkpt><trkpt lat="45.5540037" lon="10.4332778"><ele>189.0</ele><time>2026-03-28T08:41:35.608Z</time></trkpt><trkpt lat="45.5538322" lon="10.4331826"><ele>189.33333333333334</ele><time>2026-03-28T08:41:36.618Z</time></trkpt><trkpt lat="45.5536566" lon="10.4330823"><ele>189.66666666666669</ele><time>2026-03-28T08:41:37.615Z</time></trkpt><trkpt lat="45.5534805" lon="10.4330039"><ele>190.0</ele><time>2026-03-28T08:41:38.614Z</time></trkpt><trkpt lat="45.5532963" lon="10.4329336"><ele>190.0</ele><time>2026-03-28T08:41:39.614Z</time></trkpt><trkpt lat="45.553111" lon="10.4328318"><ele>190.0</ele><time>2026-03-28T08:41:40.616Z</time></trkpt><trkpt lat="45.5529442" lon="10.432738"><ele>190.0</ele><time>2026-03-28T08:41:41.621Z</time></trkpt><trkpt lat="45.5527768" lon="10.4326584"><ele>190.0</ele><time>2026-03-28T08:41:42.618Z</time></trkpt><trkpt lat="45.5526014" lon="10.4325521"><ele>190.0</ele><time>2026-03-28T08:41:43.62Z</time></trkpt><trkpt lat="45.552464" lon="10.4324646"><ele>190.0</ele><time>2026-03-28T08:41:44.625Z</time></trkpt><trkpt lat="45.5523171" lon="10.4324094"><ele>190.0</ele><time>2026-03-28T08:41:45.615Z</time></trkpt><trkpt lat="45.5522024" lon="10.4323246"><ele>190.0</ele><time>2026-03-28T08:41:46.611Z</time></trkpt><trkpt lat="45.5520764" lon="10.4322399"><ele>190.0</ele><time>2026-03-28T08:41:47.62Z</time></trkpt><trkpt lat="45.5519564" lon="10.4321386"><ele>190.0</ele><time>2026-03-28T08:41:48.617Z</time></trkpt><trkpt lat="45.551869" lon="10.4320181"><ele>190.75</ele><time>2026-03-28T08:41:49.609Z</time></trkpt><trkpt lat="45.5517856" lon="10.4318603"><ele>191.5</ele><time>2026-03-28T08:41:50.609Z</time></trkpt><trkpt lat="45.5517183" lon="10.4317253"><ele>192.25</ele><time>2026-03-28T08:41:51.619Z</time></trkpt><trkpt lat="45.5516479" lon="10.4316367"><ele>193.0</ele><time>2026-03-28T08:41:52.613Z</time></trkpt><trkpt lat="45.5515503" lon="10.4315504"><ele>193.0</ele><time>2026-03-28T08:41:53.602Z</time></trkpt><trkpt lat="45.551485" lon="10.4315209"><ele>193.0</ele><time>2026-03-28T08:41:54.607Z</time></trkpt><trkpt lat="45.5513967" lon="10.4314893"><ele>193.0</ele><time>2026-03-28T08:41:56.612Z</time></trkpt><trkpt lat="45.5512245" lon="10.4315731"><ele>193.0</ele><time>2026-03-28T08:42:07.624Z</time></trkpt><trkpt lat="45.5511377" lon="10.4316985"><ele>192.75</ele><time>2026-03-28T08:42:09.623Z</time></trkpt><trkpt lat="45.5510815" lon="10.431835"><ele>192.5</ele><time>2026-03-28T08:42:10.617Z</time></trkpt><trkpt lat="45.551033" lon="10.4320139"><ele>192.25</ele><time>2026-03-28T08:42:11.619Z</time></trkpt><trkpt lat="45.5509873" lon="10.4322107"><ele>192.0</ele><time>2026-03-28T08:42:12.616Z</time></trkpt><trkpt lat="45.5509366" lon="10.4324399"><ele>192.0</ele><time>2026-03-28T08:42:13.617Z</time></trkpt><trkpt lat="45.5508739" lon="10.4326893"><ele>192.0</ele><time>2026-03-28T08:42:14.625Z</time></trkpt><trkpt lat="45.5508204" lon="10.4329324"><ele>192.0</ele><time>2026-03-28T08:42:15.618Z</time></trkpt><trkpt lat="45.5507714" lon="10.4331695"><ele>191.25</ele><time>2026-03-28T08:42:16.628Z</time></trkpt><trkpt lat="45.5507184" lon="10.433358"><ele>190.5</ele><time>2026-03-28T08:42:17.62Z</time></trkpt><trkpt lat="45.5506319" lon="10.4335372"><ele>189.75</ele><time>2026-03-28T08:42:18.616Z</time></trkpt><trkpt lat="45.5505384" lon="10.4336948"><ele>189.0</ele><time>2026-03-28T08:42:19.614Z</time></trkpt><trkpt lat="45.5504077" lon="10.4338212"><ele>188.0</ele><time>2026-03-28T08:42:20.615Z</time></trkpt><trkpt lat="45.5502441" lon="10.4339463"><ele>187.0</ele><time>2026-03-28T08:42:21.624Z</time></trkpt><trkpt lat="45.5501052" lon="10.4340341"><ele>186.0</ele><time>2026-03-28T08:42:22.61Z</time></trkpt><trkpt lat="45.5499496" lon="10.4340978"><ele>186.0</ele><time>2026-03-28T08:42:23.616Z</time></trkpt><trkpt lat="45.5497745" lon="10.4341467"><ele>186.0</ele><time>2026-03-28T08:42:24.612Z</time></trkpt><trkpt lat="45.5496091" lon="10.4341808"><ele>186.0</ele><time>2026-03-28T08:42:25.617Z</time></trkpt><trkpt lat="45.5494083" lon="10.4342259"><ele>186.66666666666666</ele><time>2026-03-28T08:42:26.614Z</time></trkpt><trkpt lat="45.54923" lon="10.4342468"><ele>187.33333333333331</ele><time>2026-03-28T08:42:27.622Z</time></trkpt><trkpt lat="45.5490413" lon="10.4342822"><ele>188.0</ele><time>2026-03-28T08:42:28.616Z</time></trkpt><trkpt lat="45.548842" lon="10.4343095"><ele>187.33333333333331</ele><time>2026-03-28T08:42:29.619Z</time></trkpt><trkpt lat="45.5486349" lon="10.4343403"><ele>186.66666666666666</ele><time>2026-03-28T08:42:30.609Z</time></trkpt><trkpt lat="45.5484257" lon="10.4343819"><ele>186.0</ele><time>2026-03-28T08:42:31.619Z</time></trkpt><trkpt lat="45.5482166" lon="10.4344317"><ele>186.0</ele><time>2026-03-28T08:42:32.615Z</time></trkpt><trkpt lat="45.5480306" lon="10.4344701"><ele>186.0</ele><time>2026-03-28T08:42:33.623Z</time></trkpt><trkpt lat="45.5478462" lon="10.4345157"><ele>186.0</ele><time>2026-03-28T08:42:34.624Z</time></trkpt><trkpt lat="45.5476623" lon="10.4345533"><ele>186.33333333333334</ele><time>2026-03-28T08:42:35.62Z</time></trkpt><trkpt lat="45.5474706" lon="10.434557"><ele>186.66666666666669</ele><time>2026-03-28T08:42:36.617Z</time></trkpt><trkpt lat="45.5472952" lon="10.434567"><ele>187.0</ele><time>2026-03-28T08:42:37.621Z</time></trkpt><trkpt lat="45.5471324" lon="10.4345712"><ele>186.75</ele><time>2026-03-28T08:42:38.618Z</time></trkpt><trkpt lat="45.5469724" lon="10.4345788"><ele>186.5</ele><time>2026-03-28T08:42:39.62Z</time></trkpt><trkpt lat="45.5468253" lon="10.4345842"><ele>186.25</ele><time>2026-03-28T08:42:40.617Z</time></trkpt><trkpt lat="45.54669" lon="10.4345926"><ele>186.0</ele><time>2026-03-28T08:42:41.617Z</time></trkpt><trkpt lat="45.5465575" lon="10.4345943"><ele>186.0</ele><time>2026-03-28T08:42:42.616Z</time></trkpt><trkpt lat="45.5464127" lon="10.4345735"><ele>186.0</ele><time>2026-03-28T08:42:43.612Z</time></trkpt><trkpt lat="45.5463322" lon="10.4345472"><ele>186.0</ele><time>2026-03-28T08:42:44.624Z</time></trkpt><trkpt lat="45.5462504" lon="10.4345055"><ele>186.0</ele><time>2026-03-28T08:42:45.616Z</time></trkpt><trkpt lat="45.5461733" lon="10.4344484"><ele>186.0</ele><time>2026-03-28T08:42:46.618Z</time></trkpt><trkpt lat="45.546063" lon="10.4344291"><ele>186.0</ele><time>2026-03-28T08:42:48.613Z</time></trkpt><trkpt lat="45.5459933" lon="10.434467"><ele>186.0</ele><time>2026-03-28T08:42:49.615Z</time></trkpt><trkpt lat="45.5459003" lon="10.4345883"><ele>186.0</ele><time>2026-03-28T08:42:50.616Z</time></trkpt><trkpt lat="45.5458485" lon="10.4347174"><ele>186.0</ele><time>2026-03-28T08:42:51.611Z</time></trkpt><trkpt lat="45.5458073" lon="10.4348562"><ele>186.0</ele><time>2026-03-28T08:42:52.613Z</time></trkpt><trkpt lat="45.5457702" lon="10.4349945"><ele>185.5</ele><time>2026-03-28T08:42:53.616Z</time></trkpt><trkpt lat="45.5457172" lon="10.4351311"><ele>185.0</ele><time>2026-03-28T08:42:54.614Z</time></trkpt><trkpt lat="45.5456487" lon="10.4352533"><ele>184.5</ele><time>2026-03-28T08:42:55.613Z</time></trkpt><trkpt lat="45.5455161" lon="10.4353446"><ele>184.0</ele><time>2026-03-28T08:42:56.61Z</time></trkpt><trkpt lat="45.545377" lon="10.435411"><ele>183.5</ele><time>2026-03-28T08:42:57.614Z</time></trkpt><trkpt lat="45.5452421" lon="10.4354652"><ele>183.0</ele><time>2026-03-28T08:42:58.616Z</time></trkpt><trkpt lat="45.5451231" lon="10.4355287"><ele>182.5</ele><time>2026-03-28T08:42:59.607Z</time></trkpt><trkpt lat="45.5450032" lon="10.4355928"><ele>182.0</ele><time>2026-03-28T08:43:00.605Z</time></trkpt><trkpt lat="45.5448974" lon="10.4356633"><ele>181.0</ele><time>2026-03-28T08:43:01.613Z</time></trkpt><trkpt lat="45.544807" lon="10.4357276"><ele>180.0</ele><time>2026-03-28T08:43:02.609Z</time></trkpt><trkpt lat="45.5447404" lon="10.4357988"><ele>179.0</ele><time>2026-03-28T08:43:03.608Z</time></trkpt><trkpt lat="45.5446911" lon="10.4358833"><ele>178.0</ele><time>2026-03-28T08:43:04.606Z</time></trkpt><trkpt lat="45.544642" lon="10.4359688"><ele>177.0</ele><time>2026-03-28T08:43:05.614Z</time></trkpt><trkpt lat="45.5446062" lon="10.4360572"><ele>176.0</ele><time>2026-03-28T08:43:06.617Z</time></trkpt><trkpt lat="45.5445802" lon="10.4361626"><ele>176.0</ele><time>2026-03-28T08:43:07.611Z</time></trkpt><trkpt lat="45.5445727" lon="10.4362689"><ele>176.0</ele><time>2026-03-28T08:43:08.61Z</time></trkpt><trkpt lat="45.5445621" lon="10.4363746"><ele>176.0</ele><time>2026-03-28T08:43:09.608Z</time></trkpt><trkpt lat="45.5445696" lon="10.4364808"><ele>176.0</ele><time>2026-03-28T08:43:10.613Z</time></trkpt><trkpt lat="45.5445909" lon="10.4365955"><ele>176.0</ele><time>2026-03-28T08:43:11.611Z</time></trkpt><trkpt lat="45.5446179" lon="10.4367195"><ele>176.0</ele><time>2026-03-28T08:43:12.616Z</time></trkpt><trkpt lat="45.5446516" lon="10.4368663"><ele>176.0</ele><time>2026-03-28T08:43:13.615Z</time></trkpt><trkpt lat="45.5446779" lon="10.4370134"><ele>176.0</ele><time>2026-03-28T08:43:14.614Z</time></trkpt><trkpt lat="45.5446887" lon="10.4371388"><ele>176.0</ele><time>2026-03-28T08:43:15.617Z</time></trkpt><trkpt lat="45.5446951" lon="10.4372511"><ele>176.0</ele><time>2026-03-28T08:43:16.613Z</time></trkpt><trkpt lat="45.5446983" lon="10.4373409"><ele>176.0</ele><time>2026-03-28T08:43:17.616Z</time></trkpt><trkpt lat="45.544711" lon="10.4374611"><ele>176.0</ele><time>2026-03-28T08:43:19.612Z</time></trkpt><trkpt lat="45.5447222" lon="10.4375667"><ele>176.0</ele><time>2026-03-28T08:43:21.614Z</time></trkpt><trkpt lat="45.5447426" lon="10.4376821"><ele>176.0</ele><time>2026-03-28T08:43:23.616Z</time></trkpt><trkpt lat="45.5447657" lon="10.4377782"><ele>176.0</ele><time>2026-03-28T08:43:25.617Z</time></trkpt><trkpt lat="45.5447876" lon="10.4379445"><ele>176.0</ele><time>2026-03-28T08:43:27.622Z</time></trkpt><trkpt lat="45.5447489" lon="10.4380383"><ele>176.0</ele><time>2026-03-28T08:43:29.617Z</time></trkpt><trkpt lat="45.5446283" lon="10.4380704"><ele>176.25</ele><time>2026-03-28T08:43:31.618Z</time></trkpt><trkpt lat="45.5445241" lon="10.4380754"><ele>176.5</ele><time>2026-03-28T08:43:32.609Z</time></trkpt><trkpt lat="45.5443918" lon="10.4380769"><ele>176.75</ele><time>2026-03-28T08:43:33.616Z</time></trkpt><trkpt lat="45.5442541" lon="10.4380732"><ele>177.0</ele><time>2026-03-28T08:43:34.611Z</time></trkpt><trkpt lat="45.5441068" lon="10.4380686"><ele>177.0</ele><time>2026-03-28T08:43:35.62Z</time></trkpt><trkpt lat="45.5439557" lon="10.438055"><ele>177.0</ele><time>2026-03-28T08:43:36.619Z</time></trkpt><trkpt lat="45.5438283" lon="10.4380558"><ele>177.0</ele><time>2026-03-28T08:43:37.621Z</time></trkpt><trkpt lat="45.5437202" lon="10.4380863"><ele>177.0</ele><time>2026-03-28T08:43:38.612Z</time></trkpt><trkpt lat="45.5436155" lon="10.4381473"><ele>177.5</ele><time>2026-03-28T08:43:39.614Z</time></trkpt><trkpt lat="45.5435179" lon="10.4382588"><ele>178.0</ele><time>2026-03-28T08:43:40.613Z</time></trkpt><trkpt lat="45.5434339" lon="10.4384122"><ele>178.5</ele><time>2026-03-28T08:43:41.611Z</time></trkpt><trkpt lat="45.5433604" lon="10.438585"><ele>179.0</ele><time>2026-03-28T08:43:42.613Z</time></trkpt><trkpt lat="45.5432798" lon="10.4387719"><ele>178.66666666666666</ele><time>2026-03-28T08:43:43.615Z</time></trkpt><trkpt lat="45.543188" lon="10.4389704"><ele>178.33333333333334</ele><time>2026-03-28T08:43:44.618Z</time></trkpt><trkpt lat="45.5431065" lon="10.4391494"><ele>178.0</ele><time>2026-03-28T08:43:45.62Z</time></trkpt><trkpt lat="45.5430411" lon="10.4393371"><ele>178.0</ele><time>2026-03-28T08:43:46.622Z</time></trkpt><trkpt lat="45.5429746" lon="10.4394966"><ele>178.0</ele><time>2026-03-28T08:43:47.623Z</time></trkpt><trkpt lat="45.5429251" lon="10.4396572"><ele>178.0</ele><time>2026-03-28T08:43:48.619Z</time></trkpt><trkpt lat="45.542876" lon="10.4398049"><ele>178.0</ele><time>2026-03-28T08:43:49.618Z</time></trkpt><trkpt lat="45.5428242" lon="10.439943"><ele>178.2</ele><time>2026-03-28T08:43:50.615Z</time></trkpt><trkpt lat="45.5427665" lon="10.4400625"><ele>178.4</ele><time>2026-03-28T08:43:51.621Z</time></trkpt><trkpt lat="45.5427024" lon="10.4401804"><ele>178.6</ele><time>2026-03-28T08:43:52.624Z</time></trkpt><trkpt lat="45.5426478" lon="10.4403054"><ele>178.79999999999998</ele><time>2026-03-28T08:43:53.616Z</time></trkpt><trkpt lat="45.5425801" lon="10.4404721"><ele>179.0</ele><time>2026-03-28T08:43:54.62Z</time></trkpt><trkpt lat="45.5425151" lon="10.4406447"><ele>179.5</ele><time>2026-03-28T08:43:55.622Z</time></trkpt><trkpt lat="45.5424482" lon="10.4408295"><ele>180.0</ele><time>2026-03-28T08:43:56.616Z</time></trkpt><trkpt lat="45.5423676" lon="10.4409938"><ele>180.5</ele><time>2026-03-28T08:43:57.616Z</time></trkpt><trkpt lat="45.5423018" lon="10.4411623"><ele>181.0</ele><time>2026-03-28T08:43:58.614Z</time></trkpt><trkpt lat="45.5422565" lon="10.4413215"><ele>181.75</ele><time>2026-03-28T08:43:59.613Z</time></trkpt><trkpt lat="45.5422119" lon="10.4415081"><ele>182.5</ele><time>2026-03-28T08:44:00.62Z</time></trkpt><trkpt lat="45.5421959" lon="10.4416962"><ele>183.25</ele><time>2026-03-28T08:44:01.622Z</time></trkpt><trkpt lat="45.5421938" lon="10.4418885"><ele>184.0</ele><time>2026-03-28T08:44:02.614Z</time></trkpt><trkpt lat="45.5422244" lon="10.4421184"><ele>186.5</ele><time>2026-03-28T08:44:03.613Z</time></trkpt><trkpt lat="45.5422748" lon="10.4423164"><ele>189.0</ele><time>2026-03-28T08:44:04.617Z</time></trkpt><trkpt lat="45.5423717" lon="10.4424782"><ele>191.5</ele><time>2026-03-28T08:44:05.615Z</time></trkpt><trkpt lat="45.5424761" lon="10.4426076"><ele>194.0</ele><time>2026-03-28T08:44:06.605Z</time></trkpt><trkpt lat="45.5425871" lon="10.4427451"><ele>194.0</ele><time>2026-03-28T08:44:07.609Z</time></trkpt><trkpt lat="45.5426976" lon="10.4428296"><ele>194.0</ele><time>2026-03-28T08:44:08.605Z</time></trkpt><trkpt lat="45.5428248" lon="10.4429297"><ele>194.0</ele><time>2026-03-28T08:44:09.608Z</time></trkpt><trkpt lat="45.5429656" lon="10.442992"><ele>194.0</ele><time>2026-03-28T08:44:10.603Z</time></trkpt><trkpt lat="45.5430305" lon="10.4430439"><ele>195.50000000000003</ele><time>2026-03-28T08:44:11.602Z</time></trkpt><trkpt lat="45.5430805" lon="10.4431014"><ele>197.0</ele><time>2026-03-28T08:44:12.6Z</time></trkpt><trkpt lat="45.5431192" lon="10.4432306"><ele>198.5</ele><time>2026-03-28T08:44:14.599Z</time></trkpt><trkpt lat="45.5432039" lon="10.4432825"><ele>200.0</ele><time>2026-03-28T08:44:15.604Z</time></trkpt><trkpt lat="45.5432938" lon="10.4433024"><ele>201.50000000000003</ele><time>2026-03-28T08:44:16.597Z</time></trkpt><trkpt lat="45.5433869" lon="10.4433289"><ele>203.0</ele><time>2026-03-28T08:44:17.608Z</time></trkpt><trkpt lat="45.5434707" lon="10.4433752"><ele>203.00000000000003</ele><time>2026-03-28T08:44:18.597Z</time></trkpt><trkpt lat="45.5435427" lon="10.4434193"><ele>203.0</ele><time>2026-03-28T08:44:19.6Z</time></trkpt><trkpt lat="45.5436054" lon="10.4434679"><ele>203.0</ele><time>2026-03-28T08:44:20.605Z</time></trkpt><trkpt lat="45.5436935" lon="10.4435322"><ele>203.0</ele><time>2026-03-28T08:44:22.602Z</time></trkpt><trkpt lat="45.5437544" lon="10.4435853"><ele>203.00000000000003</ele><time>2026-03-28T08:44:24.606Z</time></trkpt><trkpt lat="45.5438185" lon="10.4436588"><ele>203.0</ele><time>2026-03-28T08:44:26.602Z</time></trkpt><trkpt lat="45.5438206" lon="10.4438012"><ele>203.00000000000003</ele><time>2026-03-28T08:44:28.607Z</time></trkpt><trkpt lat="45.5437837" lon="10.4439385"><ele>203.0</ele><time>2026-03-28T08:44:30.61Z</time></trkpt><trkpt lat="45.5437031" lon="10.4439662"><ele>203.0</ele><time>2026-03-28T08:44:33.612Z</time></trkpt><trkpt lat="45.5436504" lon="10.4439065"><ele>203.0</ele><time>2026-03-28T08:44:35.603Z</time></trkpt><trkpt lat="45.5435949" lon="10.4438486"><ele>203.00000000000003</ele><time>2026-03-28T08:44:36.606Z</time></trkpt><trkpt lat="45.543522" lon="10.443767"><ele>203.0</ele><time>2026-03-28T08:44:37.608Z</time></trkpt><trkpt lat="45.5434196" lon="10.4436816"><ele>203.0</ele><time>2026-03-28T08:44:38.606Z</time></trkpt><trkpt lat="45.5432796" lon="10.4435871"><ele>203.0</ele><time>2026-03-28T08:44:39.609Z</time></trkpt><trkpt lat="45.5431296" lon="10.44349"><ele>203.0</ele><time>2026-03-28T08:44:40.602Z</time></trkpt><trkpt lat="45.5429543" lon="10.4433901"><ele>206.66666666666669</ele><time>2026-03-28T08:44:41.694Z</time></trkpt><trkpt lat="45.5427635" lon="10.4433148"><ele>210.33333333333331</ele><time>2026-03-28T08:44:42.608Z</time></trkpt><trkpt lat="45.5426084" lon="10.4432366"><ele>214.0</ele><time>2026-03-28T08:44:43.611Z</time></trkpt><trkpt lat="45.5424649" lon="10.4431512"><ele>214.0</ele><time>2026-03-28T08:44:44.609Z</time></trkpt><trkpt lat="45.5423232" lon="10.4430668"><ele>214.0</ele><time>2026-03-28T08:44:45.615Z</time></trkpt><trkpt lat="45.5421939" lon="10.4429905"><ele>214.0</ele><time>2026-03-28T08:44:46.614Z</time></trkpt><trkpt lat="45.5420612" lon="10.4429337"><ele>214.0</ele><time>2026-03-28T08:44:47.61Z</time></trkpt><trkpt lat="45.5419554" lon="10.4429143"><ele>214.5</ele><time>2026-03-28T08:44:48.609Z</time></trkpt><trkpt lat="45.541756" lon="10.4429122"><ele>215.0</ele><time>2026-03-28T08:44:49.624Z</time></trkpt><trkpt lat="45.5416192" lon="10.4429594"><ele>215.5</ele><time>2026-03-28T08:44:50.623Z</time></trkpt><trkpt lat="45.541578" lon="10.443086"><ele>216.0</ele><time>2026-03-28T08:44:51.613Z</time></trkpt><trkpt lat="45.5414986" lon="10.443208"><ele>216.0</ele><time>2026-03-28T08:44:52.615Z</time></trkpt><trkpt lat="45.5414419" lon="10.4433231"><ele>216.00000000000003</ele><time>2026-03-28T08:44:53.612Z</time></trkpt><trkpt lat="45.5414663" lon="10.443445"><ele>216.00000000000003</ele><time>2026-03-28T08:44:54.617Z</time></trkpt><trkpt lat="45.5415021" lon="10.4435612"><ele>216.0</ele><time>2026-03-28T08:44:55.622Z</time></trkpt><trkpt lat="45.5415334" lon="10.4436952"><ele>216.0</ele><time>2026-03-28T08:44:56.622Z</time></trkpt><trkpt lat="45.541529" lon="10.4438521"><ele>217.75</ele><time>2026-03-28T08:44:57.622Z</time></trkpt><trkpt lat="45.5415139" lon="10.4440277"><ele>219.5</ele><time>2026-03-28T08:44:58.632Z</time></trkpt><trkpt lat="45.5414757" lon="10.4442105"><ele>221.25</ele><time>2026-03-28T08:44:59.626Z</time></trkpt><trkpt lat="45.5414381" lon="10.4443982"><ele>223.0</ele><time>2026-03-28T08:45:00.627Z</time></trkpt><trkpt lat="45.5413695" lon="10.4445637"><ele>223.25</ele><time>2026-03-28T08:45:01.624Z</time></trkpt><trkpt lat="45.5412911" lon="10.4447395"><ele>223.5</ele><time>2026-03-28T08:45:02.622Z</time></trkpt><trkpt lat="45.5412246" lon="10.4449071"><ele>223.75</ele><time>2026-03-28T08:45:03.624Z</time></trkpt><trkpt lat="45.5412102" lon="10.4450535"><ele>224.0</ele><time>2026-03-28T08:45:04.62Z</time></trkpt><trkpt lat="45.541156" lon="10.4452043"><ele>224.0</ele><time>2026-03-28T08:45:05.62Z</time></trkpt><trkpt lat="45.5411128" lon="10.4453246"><ele>223.99999999999997</ele><time>2026-03-28T08:45:06.624Z</time></trkpt><trkpt lat="45.5411007" lon="10.4454201"><ele>223.99999999999997</ele><time>2026-03-28T08:45:07.622Z</time></trkpt><trkpt lat="45.5410388" lon="10.445568"><ele>224.0</ele><time>2026-03-28T08:45:09.623Z</time></trkpt><trkpt lat="45.5409963" lon="10.4456431"><ele>224.0</ele><time>2026-03-28T08:45:10.622Z</time></trkpt><trkpt lat="45.5408966" lon="10.4457049"><ele>224.0</ele><time>2026-03-28T08:45:12.621Z</time></trkpt><trkpt lat="45.5408174" lon="10.4457043"><ele>223.99999999999997</ele><time>2026-03-28T08:45:13.609Z</time></trkpt><trkpt lat="45.5407274" lon="10.4456786"><ele>223.99999999999997</ele><time>2026-03-28T08:45:14.612Z</time></trkpt><trkpt lat="45.5406521" lon="10.4456475"><ele>224.0</ele><time>2026-03-28T08:45:15.612Z</time></trkpt><trkpt lat="45.5405574" lon="10.4456008"><ele>224.0</ele><time>2026-03-28T08:45:16.611Z</time></trkpt><trkpt lat="45.54046" lon="10.4455633"><ele>223.33333333333334</ele><time>2026-03-28T08:45:17.616Z</time></trkpt><trkpt lat="45.5402939" lon="10.4455041"><ele>222.66666666666669</ele><time>2026-03-28T08:45:18.609Z</time></trkpt><trkpt lat="45.5401244" lon="10.4454445"><ele>222.0</ele><time>2026-03-28T08:45:19.614Z</time></trkpt><trkpt lat="45.5399672" lon="10.4454018"><ele>221.75</ele><time>2026-03-28T08:45:20.612Z</time></trkpt><trkpt lat="45.5398242" lon="10.4453652"><ele>221.5</ele><time>2026-03-28T08:45:21.61Z</time></trkpt><trkpt lat="45.5396867" lon="10.4453165"><ele>221.25</ele><time>2026-03-28T08:45:22.612Z</time></trkpt><trkpt lat="45.5395555" lon="10.4452676"><ele>221.0</ele><time>2026-03-28T08:45:23.61Z</time></trkpt><trkpt lat="45.5394339" lon="10.4452265"><ele>220.60000000000002</ele><time>2026-03-28T08:45:24.607Z</time></trkpt><trkpt lat="45.5393224" lon="10.4451838"><ele>220.20000000000002</ele><time>2026-03-28T08:45:25.617Z</time></trkpt><trkpt lat="45.5392159" lon="10.4451441"><ele>219.79999999999998</ele><time>2026-03-28T08:45:26.613Z</time></trkpt><trkpt lat="45.539114" lon="10.4451104"><ele>219.39999999999998</ele><time>2026-03-28T08:45:27.61Z</time></trkpt><trkpt lat="45.5390315" lon="10.4450779"><ele>219.0</ele><time>2026-03-28T08:45:28.599Z</time></trkpt><trkpt lat="45.53897" lon="10.4450488"><ele>219.0</ele><time>2026-03-28T08:45:29.609Z</time></trkpt><trkpt lat="45.5389046" lon="10.4450221"><ele>219.0</ele><time>2026-03-28T08:45:30.609Z</time></trkpt><trkpt lat="45.5388268" lon="10.444907"><ele>219.0</ele><time>2026-03-28T08:45:32.612Z</time></trkpt><trkpt lat="45.538769" lon="10.4448518"><ele>219.0</ele><time>2026-03-28T08:45:33.603Z</time></trkpt><trkpt lat="45.5386998" lon="10.4448139"><ele>219.0</ele><time>2026-03-28T08:45:34.614Z</time></trkpt><trkpt lat="45.5386277" lon="10.444792"><ele>219.0</ele><time>2026-03-28T08:45:35.61Z</time></trkpt><trkpt lat="45.5385425" lon="10.444784"><ele>219.5</ele><time>2026-03-28T08:45:36.605Z</time></trkpt><trkpt lat="45.5384439" lon="10.4447621"><ele>220.0</ele><time>2026-03-28T08:45:37.609Z</time></trkpt><trkpt lat="45.5383233" lon="10.4447307"><ele>220.5</ele><time>2026-03-28T08:45:38.602Z</time></trkpt><trkpt lat="45.5382007" lon="10.4447119"><ele>221.0</ele><time>2026-03-28T08:45:39.611Z</time></trkpt><trkpt lat="45.5380849" lon="10.4446821"><ele>221.0</ele><time>2026-03-28T08:45:40.613Z</time></trkpt><trkpt lat="45.5379755" lon="10.4446554"><ele>221.00000000000003</ele><time>2026-03-28T08:45:41.605Z</time></trkpt><trkpt lat="45.5378712" lon="10.4446386"><ele>221.00000000000003</ele><time>2026-03-28T08:45:42.613Z</time></trkpt><trkpt lat="45.5377823" lon="10.4446395"><ele>221.0</ele><time>2026-03-28T08:45:43.609Z</time></trkpt><trkpt lat="45.5376868" lon="10.4446215"><ele>221.0</ele><time>2026-03-28T08:45:44.61Z</time></trkpt><trkpt lat="45.5375743" lon="10.4445933"><ele>220.25</ele><time>2026-03-28T08:45:45.602Z</time></trkpt><trkpt lat="45.53745" lon="10.4445652"><ele>219.5</ele><time>2026-03-28T08:45:46.61Z</time></trkpt><trkpt lat="45.5373338" lon="10.4445299"><ele>218.75</ele><time>2026-03-28T08:45:47.609Z</time></trkpt><trkpt lat="45.5372285" lon="10.4444883"><ele>218.0</ele><time>2026-03-28T08:45:48.608Z</time></trkpt><trkpt lat="45.5371164" lon="10.4444469"><ele>217.5</ele><time>2026-03-28T08:45:49.608Z</time></trkpt><trkpt lat="45.5369964" lon="10.4444077"><ele>217.0</ele><time>2026-03-28T08:45:50.607Z</time></trkpt><trkpt lat="45.5368551" lon="10.4443679"><ele>216.5</ele><time>2026-03-28T08:45:51.61Z</time></trkpt><trkpt lat="45.5367058" lon="10.4443447"><ele>216.0</ele><time>2026-03-28T08:45:52.615Z</time></trkpt><trkpt lat="45.5364996" lon="10.4443491"><ele>216.0</ele><time>2026-03-28T08:45:53.607Z</time></trkpt><trkpt lat="45.5362718" lon="10.4443405"><ele>216.0</ele><time>2026-03-28T08:45:54.611Z</time></trkpt><trkpt lat="45.5360483" lon="10.4443557"><ele>214.66666666666669</ele><time>2026-03-28T08:45:55.615Z</time></trkpt><trkpt lat="45.5358717" lon="10.4443852"><ele>213.33333333333334</ele><time>2026-03-28T08:45:56.615Z</time></trkpt><trkpt lat="45.5357057" lon="10.4444015"><ele>212.0</ele><time>2026-03-28T08:45:57.618Z</time></trkpt><trkpt lat="45.5355424" lon="10.4444078"><ele>211.66666666666669</ele><time>2026-03-28T08:45:58.616Z</time></trkpt><trkpt lat="45.5353855" lon="10.4444338"><ele>211.33333333333331</ele><time>2026-03-28T08:45:59.617Z</time></trkpt><trkpt lat="45.5352138" lon="10.4444258"><ele>211.0</ele><time>2026-03-28T08:46:00.62Z</time></trkpt><trkpt lat="45.5350262" lon="10.4443656"><ele>211.0</ele><time>2026-03-28T08:46:01.612Z</time></trkpt><trkpt lat="45.5348742" lon="10.4442933"><ele>211.0</ele><time>2026-03-28T08:46:02.616Z</time></trkpt><trkpt lat="45.5347159" lon="10.4442081"><ele>211.0</ele><time>2026-03-28T08:46:03.623Z</time></trkpt><trkpt lat="45.5345706" lon="10.44413"><ele>211.0</ele><time>2026-03-28T08:46:04.612Z</time></trkpt><trkpt lat="45.534407" lon="10.4440586"><ele>211.0</ele><time>2026-03-28T08:46:05.611Z</time></trkpt><trkpt lat="45.5342612" lon="10.4440063"><ele>211.0</ele><time>2026-03-28T08:46:06.608Z</time></trkpt><trkpt lat="45.5341035" lon="10.4439864"><ele>211.0</ele><time>2026-03-28T08:46:07.613Z</time></trkpt><trkpt lat="45.5339604" lon="10.4439473"><ele>211.0</ele><time>2026-03-28T08:46:08.618Z</time></trkpt><trkpt lat="45.533835" lon="10.4439355"><ele>211.0</ele><time>2026-03-28T08:46:09.619Z</time></trkpt><trkpt lat="45.5336914" lon="10.4439217"><ele>211.0</ele><time>2026-03-28T08:46:10.612Z</time></trkpt><trkpt lat="45.5335513" lon="10.4438994"><ele>210.66666666666666</ele><time>2026-03-28T08:46:11.709Z</time></trkpt><trkpt lat="45.5334049" lon="10.4438965"><ele>210.33333333333331</ele><time>2026-03-28T08:46:12.616Z</time></trkpt><trkpt lat="45.5332502" lon="10.4438862"><ele>210.0</ele><time>2026-03-28T08:46:13.62Z</time></trkpt><trkpt lat="45.5330779" lon="10.443868"><ele>210.0</ele><time>2026-03-28T08:46:14.617Z</time></trkpt><trkpt lat="45.5329079" lon="10.4438398"><ele>210.0</ele><time>2026-03-28T08:46:15.621Z</time></trkpt><trkpt lat="45.5327325" lon="10.4438175"><ele>210.0</ele><time>2026-03-28T08:46:16.618Z</time></trkpt><trkpt lat="45.5325659" lon="10.4438035"><ele>209.66666666666669</ele><time>2026-03-28T08:46:17.618Z</time></trkpt><trkpt lat="45.5324087" lon="10.4437798"><ele>209.33333333333334</ele><time>2026-03-28T08:46:18.623Z</time></trkpt><trkpt lat="45.5322485" lon="10.4437451"><ele>209.0</ele><time>2026-03-28T08:46:19.62Z</time></trkpt><trkpt lat="45.5321002" lon="10.4437127"><ele>209.0</ele><time>2026-03-28T08:46:20.619Z</time></trkpt><trkpt lat="45.5319648" lon="10.4436942"><ele>209.0</ele><time>2026-03-28T08:46:21.618Z</time></trkpt><trkpt lat="45.5318163" lon="10.4436667"><ele>209.0</ele><time>2026-03-28T08:46:22.623Z</time></trkpt><trkpt lat="45.5316787" lon="10.4436216"><ele>209.0</ele><time>2026-03-28T08:46:23.62Z</time></trkpt><trkpt lat="45.5315522" lon="10.4436006"><ele>209.0</ele><time>2026-03-28T08:46:24.616Z</time></trkpt><trkpt lat="45.5314205" lon="10.4435776"><ele>209.0</ele><time>2026-03-28T08:46:25.62Z</time></trkpt><trkpt lat="45.5312833" lon="10.4435529"><ele>209.0</ele><time>2026-03-28T08:46:26.617Z</time></trkpt><trkpt lat="45.5311549" lon="10.4435288"><ele>209.0</ele><time>2026-03-28T08:46:27.622Z</time></trkpt><trkpt lat="45.5310391" lon="10.4434936"><ele>209.0</ele><time>2026-03-28T08:46:28.613Z</time></trkpt><trkpt lat="45.5309385" lon="10.4434617"><ele>209.0</ele><time>2026-03-28T08:46:29.702Z</time></trkpt><trkpt lat="45.5308446" lon="10.4434275"><ele>209.0</ele><time>2026-03-28T08:46:30.626Z</time></trkpt><trkpt lat="45.5307642" lon="10.4433915"><ele>209.0</ele><time>2026-03-28T08:46:31.629Z</time></trkpt><trkpt lat="45.530699" lon="10.4433509"><ele>209.0</ele><time>2026-03-28T08:46:32.618Z</time></trkpt><trkpt lat="45.5306133" lon="10.4432576"><ele>209.0</ele><time>2026-03-28T08:46:34.611Z</time></trkpt><trkpt lat="45.5305692" lon="10.4431517"><ele>209.0</ele><time>2026-03-28T08:46:36.623Z</time></trkpt><trkpt lat="45.5304917" lon="10.4430442"><ele>209.0</ele><time>2026-03-28T08:46:38.614Z</time></trkpt><trkpt lat="45.5303533" lon="10.4430073"><ele>209.0</ele><time>2026-03-28T08:46:40.611Z</time></trkpt><trkpt lat="45.5302844" lon="10.4430347"><ele>209.0</ele><time>2026-03-28T08:46:41.617Z</time></trkpt><trkpt lat="45.530233" lon="10.4432745"><ele>209.6</ele><time>2026-03-28T08:46:43.61Z</time></trkpt><trkpt lat="45.5302465" lon="10.4434027"><ele>210.2</ele><time>2026-03-28T08:46:44.61Z</time></trkpt><trkpt lat="45.530275" lon="10.4435457"><ele>210.79999999999998</ele><time>2026-03-28T08:46:45.611Z</time></trkpt><trkpt lat="45.5303022" lon="10.4437098"><ele>211.39999999999998</ele><time>2026-03-28T08:46:46.616Z</time></trkpt><trkpt lat="45.5303149" lon="10.4438823"><ele>212.0</ele><time>2026-03-28T08:46:47.614Z</time></trkpt><trkpt lat="45.5303156" lon="10.4440625"><ele>212.5</ele><time>2026-03-28T08:46:48.612Z</time></trkpt><trkpt lat="45.5303022" lon="10.4442481"><ele>213.0</ele><time>2026-03-28T08:46:49.619Z</time></trkpt><trkpt lat="45.5302692" lon="10.4444285"><ele>213.5</ele><time>2026-03-28T08:46:50.618Z</time></trkpt><trkpt lat="45.5302368" lon="10.4446068"><ele>214.0</ele><time>2026-03-28T08:46:51.621Z</time></trkpt><trkpt lat="45.5302066" lon="10.4447781"><ele>214.0</ele><time>2026-03-28T08:46:52.621Z</time></trkpt><trkpt lat="45.5301725" lon="10.4449442"><ele>214.0</ele><time>2026-03-28T08:46:53.623Z</time></trkpt><trkpt lat="45.5301329" lon="10.4451291"><ele>214.0</ele><time>2026-03-28T08:46:54.621Z</time></trkpt><trkpt lat="45.5300963" lon="10.4453281"><ele>214.0</ele><time>2026-03-28T08:46:55.624Z</time></trkpt><trkpt lat="45.5300384" lon="10.4455406"><ele>213.75</ele><time>2026-03-28T08:46:56.62Z</time></trkpt><trkpt lat="45.5299744" lon="10.4457268"><ele>213.5</ele><time>2026-03-28T08:46:57.617Z</time></trkpt><trkpt lat="45.5299239" lon="10.4459119"><ele>213.25</ele><time>2026-03-28T08:46:58.622Z</time></trkpt><trkpt lat="45.5299093" lon="10.4460948"><ele>213.0</ele><time>2026-03-28T08:46:59.618Z</time></trkpt><trkpt lat="45.529876" lon="10.4462861"><ele>212.75</ele><time>2026-03-28T08:47:00.616Z</time></trkpt><trkpt lat="45.5298259" lon="10.4464759"><ele>212.5</ele><time>2026-03-28T08:47:01.621Z</time></trkpt><trkpt lat="45.529785" lon="10.446645"><ele>212.25</ele><time>2026-03-28T08:47:02.616Z</time></trkpt><trkpt lat="45.5297104" lon="10.4467705"><ele>212.0</ele><time>2026-03-28T08:47:03.621Z</time></trkpt><trkpt lat="45.5295989" lon="10.4469381"><ele>212.5</ele><time>2026-03-28T08:47:04.608Z</time></trkpt><trkpt lat="45.5294961" lon="10.4470872"><ele>213.0</ele><time>2026-03-28T08:47:05.612Z</time></trkpt><trkpt lat="45.5293873" lon="10.447217"><ele>213.5</ele><time>2026-03-28T08:47:06.615Z</time></trkpt><trkpt lat="45.5292794" lon="10.4473332"><ele>214.0</ele><time>2026-03-28T08:47:07.612Z</time></trkpt><trkpt lat="45.529201" lon="10.4474825"><ele>214.0</ele><time>2026-03-28T08:47:08.609Z</time></trkpt><trkpt lat="45.5291355" lon="10.4476339"><ele>214.0</ele><time>2026-03-28T08:47:09.613Z</time></trkpt><trkpt lat="45.5290405" lon="10.4477783"><ele>214.0</ele><time>2026-03-28T08:47:10.614Z</time></trkpt><trkpt lat="45.5289359" lon="10.4478863"><ele>214.0</ele><time>2026-03-28T08:47:11.614Z</time></trkpt><trkpt lat="45.5288399" lon="10.447979"><ele>212.5</ele><time>2026-03-28T08:47:12.611Z</time></trkpt><trkpt lat="45.5287559" lon="10.4480994"><ele>211.0</ele><time>2026-03-28T08:47:13.613Z</time></trkpt><trkpt lat="45.528667" lon="10.4482066"><ele>209.5</ele><time>2026-03-28T08:47:14.611Z</time></trkpt><trkpt lat="45.5285868" lon="10.4483344"><ele>208.0</ele><time>2026-03-28T08:47:15.61Z</time></trkpt><trkpt lat="45.5285223" lon="10.4484687"><ele>208.0</ele><time>2026-03-28T08:47:16.612Z</time></trkpt><trkpt lat="45.5284743" lon="10.4486184"><ele>208.0</ele><time>2026-03-28T08:47:17.62Z</time></trkpt><trkpt lat="45.5284351" lon="10.4487757"><ele>208.0</ele><time>2026-03-28T08:47:18.615Z</time></trkpt><trkpt lat="45.5284103" lon="10.4489454"><ele>208.0</ele><time>2026-03-28T08:47:19.617Z</time></trkpt><trkpt lat="45.5284193" lon="10.4491311"><ele>208.0</ele><time>2026-03-28T08:47:20.625Z</time></trkpt><trkpt lat="45.5284393" lon="10.4493342"><ele>208.0</ele><time>2026-03-28T08:47:21.617Z</time></trkpt><trkpt lat="45.5284705" lon="10.4494995"><ele>208.0</ele><time>2026-03-28T08:47:22.616Z</time></trkpt><trkpt lat="45.528483" lon="10.4496867"><ele>208.0</ele><time>2026-03-28T08:47:23.62Z</time></trkpt><trkpt lat="45.528482" lon="10.4498732"><ele>208.0</ele><time>2026-03-28T08:47:24.618Z</time></trkpt><trkpt lat="45.5284929" lon="10.4500624"><ele>208.0</ele><time>2026-03-28T08:47:25.624Z</time></trkpt><trkpt lat="45.5285053" lon="10.4502508"><ele>208.0</ele><time>2026-03-28T08:47:26.617Z</time></trkpt><trkpt lat="45.5284693" lon="10.4504461"><ele>208.0</ele><time>2026-03-28T08:47:27.621Z</time></trkpt><trkpt lat="45.528415" lon="10.4506121"><ele>208.0</ele><time>2026-03-28T08:47:28.625Z</time></trkpt><trkpt lat="45.5283674" lon="10.4507677"><ele>208.0</ele><time>2026-03-28T08:47:29.619Z</time></trkpt><trkpt lat="45.5283025" lon="10.4509211"><ele>208.0</ele><time>2026-03-28T08:47:30.614Z</time></trkpt><trkpt lat="45.5282173" lon="10.4510742"><ele>208.0</ele><time>2026-03-28T08:47:31.626Z</time></trkpt><trkpt lat="45.5281192" lon="10.4512241"><ele>208.0</ele><time>2026-03-28T08:47:32.623Z</time></trkpt><trkpt lat="45.5279632" lon="10.4513437"><ele>208.0</ele><time>2026-03-28T08:47:33.625Z</time></trkpt><trkpt lat="45.5278252" lon="10.4514383"><ele>208.0</ele><time>2026-03-28T08:47:34.616Z</time></trkpt><trkpt lat="45.5276999" lon="10.4515415"><ele>208.0</ele><time>2026-03-28T08:47:35.609Z</time></trkpt><trkpt lat="45.5275967" lon="10.4516489"><ele>208.0</ele><time>2026-03-28T08:47:36.616Z</time></trkpt><trkpt lat="45.52749" lon="10.4517724"><ele>208.0</ele><time>2026-03-28T08:47:37.611Z</time></trkpt><trkpt lat="45.5274148" lon="10.4519244"><ele>208.0</ele><time>2026-03-28T08:47:38.619Z</time></trkpt><trkpt lat="45.5273419" lon="10.4520977"><ele>207.5</ele><time>2026-03-28T08:47:39.614Z</time></trkpt><trkpt lat="45.5272698" lon="10.4522603"><ele>207.0</ele><time>2026-03-28T08:47:40.617Z</time></trkpt><trkpt lat="45.5272103" lon="10.4524254"><ele>206.5</ele><time>2026-03-28T08:47:41.617Z</time></trkpt><trkpt lat="45.5271528" lon="10.4525705"><ele>206.0</ele><time>2026-03-28T08:47:42.612Z</time></trkpt><trkpt lat="45.5270997" lon="10.4527119"><ele>206.0</ele><time>2026-03-28T08:47:43.622Z</time></trkpt><trkpt lat="45.5270378" lon="10.4528431"><ele>206.0</ele><time>2026-03-28T08:47:44.615Z</time></trkpt><trkpt lat="45.5269842" lon="10.4529605"><ele>206.0</ele><time>2026-03-28T08:47:45.615Z</time></trkpt><trkpt lat="45.5269352" lon="10.4530711"><ele>206.0</ele><time>2026-03-28T08:47:46.618Z</time></trkpt><trkpt lat="45.5268873" lon="10.4531775"><ele>206.0</ele><time>2026-03-28T08:47:47.614Z</time></trkpt><trkpt lat="45.5268316" lon="10.4532826"><ele>206.0</ele><time>2026-03-28T08:47:48.617Z</time></trkpt><trkpt lat="45.526768" lon="10.4533847"><ele>206.0</ele><time>2026-03-28T08:47:49.609Z</time></trkpt><trkpt lat="45.5267062" lon="10.4534859"><ele>206.0</ele><time>2026-03-28T08:47:50.611Z</time></trkpt><trkpt lat="45.5266316" lon="10.4535871"><ele>206.0</ele><time>2026-03-28T08:47:51.622Z</time></trkpt><trkpt lat="45.5265658" lon="10.4536989"><ele>206.0</ele><time>2026-03-28T08:47:52.62Z</time></trkpt><trkpt lat="45.526499" lon="10.4538135"><ele>205.8</ele><time>2026-03-28T08:47:53.62Z</time></trkpt><trkpt lat="45.5264288" lon="10.453921"><ele>205.60000000000002</ele><time>2026-03-28T08:47:54.618Z</time></trkpt><trkpt lat="45.5263577" lon="10.4540386"><ele>205.4</ele><time>2026-03-28T08:47:55.616Z</time></trkpt><trkpt lat="45.526298" lon="10.454179"><ele>205.2</ele><time>2026-03-28T08:47:56.613Z</time></trkpt><trkpt lat="45.5262467" lon="10.4543373"><ele>205.0</ele><time>2026-03-28T08:47:57.615Z</time></trkpt><trkpt lat="45.526193" lon="10.4545126"><ele>205.0</ele><time>2026-03-28T08:47:58.609Z</time></trkpt><trkpt lat="45.5261229" lon="10.4547037"><ele>205.0</ele><time>2026-03-28T08:47:59.614Z</time></trkpt><trkpt lat="45.5260638" lon="10.4548753"><ele>205.0</ele><time>2026-03-28T08:48:00.619Z</time></trkpt><trkpt lat="45.5259904" lon="10.4550693"><ele>205.0</ele><time>2026-03-28T08:48:01.622Z</time></trkpt><trkpt lat="45.5259324" lon="10.4552594"><ele>205.0</ele><time>2026-03-28T08:48:02.615Z</time></trkpt><trkpt lat="45.525845" lon="10.4554219"><ele>205.0</ele><time>2026-03-28T08:48:03.617Z</time></trkpt><trkpt lat="45.5257691" lon="10.4556167"><ele>205.0</ele><time>2026-03-28T08:48:04.616Z</time></trkpt><trkpt lat="45.5256978" lon="10.4557798"><ele>205.0</ele><time>2026-03-28T08:48:05.626Z</time></trkpt><trkpt lat="45.5256482" lon="10.4559314"><ele>205.0</ele><time>2026-03-28T08:48:06.614Z</time></trkpt><trkpt lat="45.5256034" lon="10.456089"><ele>205.0</ele><time>2026-03-28T08:48:07.615Z</time></trkpt><trkpt lat="45.5255514" lon="10.4562279"><ele>205.0</ele><time>2026-03-28T08:48:08.613Z</time></trkpt><trkpt lat="45.5255049" lon="10.4563726"><ele>205.0</ele><time>2026-03-28T08:48:09.618Z</time></trkpt><trkpt lat="45.5254606" lon="10.4565378"><ele>204.5</ele><time>2026-03-28T08:48:10.615Z</time></trkpt><trkpt lat="45.5253878" lon="10.4566813"><ele>204.0</ele><time>2026-03-28T08:48:11.616Z</time></trkpt><trkpt lat="45.5253224" lon="10.4568177"><ele>203.5</ele><time>2026-03-28T08:48:12.613Z</time></trkpt><trkpt lat="45.5252512" lon="10.4569561"><ele>203.0</ele><time>2026-03-28T08:48:13.614Z</time></trkpt><trkpt lat="45.5251784" lon="10.4570983"><ele>203.0</ele><time>2026-03-28T08:48:14.613Z</time></trkpt><trkpt lat="45.5251024" lon="10.4572451"><ele>203.0</ele><time>2026-03-28T08:48:15.613Z</time></trkpt><trkpt lat="45.5250325" lon="10.4573981"><ele>203.0</ele><time>2026-03-28T08:48:16.614Z</time></trkpt><trkpt lat="45.52496" lon="10.4575496"><ele>203.0</ele><time>2026-03-28T08:48:17.607Z</time></trkpt><trkpt lat="45.5248879" lon="10.4576982"><ele>203.0</ele><time>2026-03-28T08:48:18.613Z</time></trkpt><trkpt lat="45.5248143" lon="10.4578483"><ele>203.0</ele><time>2026-03-28T08:48:19.614Z</time></trkpt><trkpt lat="45.5247322" lon="10.4579998"><ele>203.0</ele><time>2026-03-28T08:48:20.614Z</time></trkpt><trkpt lat="45.5246557" lon="10.4581542"><ele>203.0</ele><time>2026-03-28T08:48:21.606Z</time></trkpt><trkpt lat="45.5245917" lon="10.4583105"><ele>202.5</ele><time>2026-03-28T08:48:22.613Z</time></trkpt><trkpt lat="45.5245351" lon="10.4584559"><ele>202.0</ele><time>2026-03-28T08:48:23.614Z</time></trkpt><trkpt lat="45.5244745" lon="10.4585955"><ele>201.5</ele><time>2026-03-28T08:48:24.612Z</time></trkpt><trkpt lat="45.5244079" lon="10.4587457"><ele>201.0</ele><time>2026-03-28T08:48:25.611Z</time></trkpt><trkpt lat="45.524342" lon="10.4589033"><ele>200.75</ele><time>2026-03-28T08:48:26.608Z</time></trkpt><trkpt lat="45.5242754" lon="10.4590672"><ele>200.5</ele><time>2026-03-28T08:48:27.615Z</time></trkpt><trkpt lat="45.5242054" lon="10.4592287"><ele>200.25</ele><time>2026-03-28T08:48:28.611Z</time></trkpt><trkpt lat="45.5241381" lon="10.4593773"><ele>200.0</ele><time>2026-03-28T08:48:29.621Z</time></trkpt><trkpt lat="45.5240612" lon="10.4595183"><ele>200.0</ele><time>2026-03-28T08:48:30.619Z</time></trkpt><trkpt lat="45.5239778" lon="10.4596454"><ele>200.0</ele><time>2026-03-28T08:48:31.625Z</time></trkpt><trkpt lat="45.5238865" lon="10.4597528"><ele>200.0</ele><time>2026-03-28T08:48:32.601Z</time></trkpt><trkpt lat="45.5237758" lon="10.4598449"><ele>200.0</ele><time>2026-03-28T08:48:33.616Z</time></trkpt><trkpt lat="45.5236601" lon="10.4599079"><ele>200.0</ele><time>2026-03-28T08:48:34.616Z</time></trkpt><trkpt lat="45.5235479" lon="10.4599351"><ele>200.0</ele><time>2026-03-28T08:48:35.784Z</time></trkpt><trkpt lat="45.5233535" lon="10.4599596"><ele>200.0</ele><time>2026-03-28T08:48:37.617Z</time></trkpt><trkpt lat="45.5232779" lon="10.4599695"><ele>200.0</ele><time>2026-03-28T08:48:38.619Z</time></trkpt><trkpt lat="45.5232084" lon="10.4599753"><ele>200.0</ele><time>2026-03-28T08:48:39.622Z</time></trkpt><trkpt lat="45.5230817" lon="10.4599839"><ele>200.0</ele><time>2026-03-28T08:48:41.623Z</time></trkpt><trkpt lat="45.5229953" lon="10.4599904"><ele>200.0</ele><time>2026-03-28T08:48:42.618Z</time></trkpt><trkpt lat="45.5228955" lon="10.4599948"><ele>200.0</ele><time>2026-03-28T08:48:43.618Z</time></trkpt><trkpt lat="45.5227843" lon="10.4600001"><ele>200.0</ele><time>2026-03-28T08:48:44.612Z</time></trkpt><trkpt lat="45.522673" lon="10.459997"><ele>200.25</ele><time>2026-03-28T08:48:45.612Z</time></trkpt><trkpt lat="45.5225507" lon="10.4599975"><ele>200.5</ele><time>2026-03-28T08:48:46.61Z</time></trkpt><trkpt lat="45.522422" lon="10.4600041"><ele>200.75</ele><time>2026-03-28T08:48:47.611Z</time></trkpt><trkpt lat="45.5222878" lon="10.4600153"><ele>201.0</ele><time>2026-03-28T08:48:48.609Z</time></trkpt><trkpt lat="45.5221501" lon="10.4600331"><ele>201.0</ele><time>2026-03-28T08:48:49.612Z</time></trkpt><trkpt lat="45.5220003" lon="10.4600419"><ele>201.0</ele><time>2026-03-28T08:48:50.605Z</time></trkpt><trkpt lat="45.5218556" lon="10.4600962"><ele>201.0</ele><time>2026-03-28T08:48:51.61Z</time></trkpt><trkpt lat="45.5217105" lon="10.4601689"><ele>201.0</ele><time>2026-03-28T08:48:52.607Z</time></trkpt><trkpt lat="45.5215542" lon="10.4602538"><ele>201.0</ele><time>2026-03-28T08:48:53.609Z</time></trkpt><trkpt lat="45.5213904" lon="10.4603238"><ele>201.0</ele><time>2026-03-28T08:48:54.607Z</time></trkpt><trkpt lat="45.5212147" lon="10.4603792"><ele>201.33333333333331</ele><time>2026-03-28T08:48:55.612Z</time></trkpt><trkpt lat="45.521061" lon="10.4604488"><ele>201.66666666666666</ele><time>2026-03-28T08:48:56.612Z</time></trkpt><trkpt lat="45.5209121" lon="10.4604989"><ele>202.0</ele><time>2026-03-28T08:48:57.609Z</time></trkpt><trkpt lat="45.5207714" lon="10.4605625"><ele>202.0</ele><time>2026-03-28T08:48:58.616Z</time></trkpt><trkpt lat="45.5206189" lon="10.4606194"><ele>202.0</ele><time>2026-03-28T08:48:59.617Z</time></trkpt><trkpt lat="45.5204841" lon="10.4606806"><ele>202.0</ele><time>2026-03-28T08:49:00.62Z</time></trkpt><trkpt lat="45.5203776" lon="10.4607548"><ele>202.0</ele><time>2026-03-28T08:49:01.62Z</time></trkpt><trkpt lat="45.520291" lon="10.4608496"><ele>201.6</ele><time>2026-03-28T08:49:02.614Z</time></trkpt><trkpt lat="45.5202032" lon="10.4609493"><ele>201.2</ele><time>2026-03-28T08:49:03.616Z</time></trkpt><trkpt lat="45.5201189" lon="10.46105"><ele>200.8</ele><time>2026-03-28T08:49:04.623Z</time></trkpt><trkpt lat="45.5200359" lon="10.4611235"><ele>200.4</ele><time>2026-03-28T08:49:05.617Z</time></trkpt><trkpt lat="45.5199465" lon="10.4611828"><ele>200.0</ele><time>2026-03-28T08:49:06.619Z</time></trkpt><trkpt lat="45.5198508" lon="10.4612364"><ele>200.0</ele><time>2026-03-28T08:49:07.626Z</time></trkpt><trkpt lat="45.5197519" lon="10.4612853"><ele>200.0</ele><time>2026-03-28T08:49:08.626Z</time></trkpt><trkpt lat="45.5196546" lon="10.4613426"><ele>200.0</ele><time>2026-03-28T08:49:09.612Z</time></trkpt><trkpt lat="45.5195456" lon="10.4613938"><ele>200.0</ele><time>2026-03-28T08:49:10.615Z</time></trkpt><trkpt lat="45.5194317" lon="10.4614219"><ele>200.0</ele><time>2026-03-28T08:49:11.622Z</time></trkpt><trkpt lat="45.5193091" lon="10.4614506"><ele>199.5</ele><time>2026-03-28T08:49:12.62Z</time></trkpt><trkpt lat="45.5191826" lon="10.4614727"><ele>199.0</ele><time>2026-03-28T08:49:13.618Z</time></trkpt><trkpt lat="45.5190622" lon="10.4614945"><ele>198.5</ele><time>2026-03-28T08:49:14.62Z</time></trkpt><trkpt lat="45.5189371" lon="10.4615175"><ele>198.0</ele><time>2026-03-28T08:49:15.619Z</time></trkpt><trkpt lat="45.5188049" lon="10.4615484"><ele>198.0</ele><time>2026-03-28T08:49:16.621Z</time></trkpt><trkpt lat="45.518664" lon="10.4615796"><ele>198.0</ele><time>2026-03-28T08:49:17.622Z</time></trkpt><trkpt lat="45.5184961" lon="10.4616142"><ele>198.0</ele><time>2026-03-28T08:49:18.624Z</time></trkpt><trkpt lat="45.5183366" lon="10.4616421"><ele>198.0</ele><time>2026-03-28T08:49:19.63Z</time></trkpt><trkpt lat="45.5181703" lon="10.4616821"><ele>198.0</ele><time>2026-03-28T08:49:20.629Z</time></trkpt><trkpt lat="45.5180052" lon="10.4617109"><ele>198.0</ele><time>2026-03-28T08:49:21.626Z</time></trkpt><trkpt lat="45.5178565" lon="10.4617397"><ele>197.66666666666669</ele><time>2026-03-28T08:49:22.624Z</time></trkpt><trkpt lat="45.5176909" lon="10.4617732"><ele>197.33333333333334</ele><time>2026-03-28T08:49:23.626Z</time></trkpt><trkpt lat="45.5175272" lon="10.4618092"><ele>197.0</ele><time>2026-03-28T08:49:24.626Z</time></trkpt><trkpt lat="45.5173755" lon="10.4618432"><ele>197.0</ele><time>2026-03-28T08:49:25.621Z</time></trkpt><trkpt lat="45.5172308" lon="10.4618813"><ele>197.0</ele><time>2026-03-28T08:49:26.626Z</time></trkpt><trkpt lat="45.5170904" lon="10.461909"><ele>197.0</ele><time>2026-03-28T08:49:27.623Z</time></trkpt><trkpt lat="45.5169326" lon="10.4619376"><ele>197.0</ele><time>2026-03-28T08:49:28.624Z</time></trkpt><trkpt lat="45.516778" lon="10.4619551"><ele>196.33333333333334</ele><time>2026-03-28T08:49:29.624Z</time></trkpt><trkpt lat="45.5166145" lon="10.4619791"><ele>195.66666666666669</ele><time>2026-03-28T08:49:30.624Z</time></trkpt><trkpt lat="45.5164523" lon="10.4619984"><ele>195.0</ele><time>2026-03-28T08:49:31.624Z</time></trkpt><trkpt lat="45.5162867" lon="10.4620411"><ele>194.66666666666669</ele><time>2026-03-28T08:49:32.628Z</time></trkpt><trkpt lat="45.5161292" lon="10.4620676"><ele>194.33333333333334</ele><time>2026-03-28T08:49:33.618Z</time></trkpt><trkpt lat="45.5159546" lon="10.4621214"><ele>194.0</ele><time>2026-03-28T08:49:34.62Z</time></trkpt><trkpt lat="45.5157771" lon="10.4621667"><ele>193.66666666666669</ele><time>2026-03-28T08:49:35.624Z</time></trkpt><trkpt lat="45.5155941" lon="10.4622063"><ele>193.33333333333331</ele><time>2026-03-28T08:49:36.628Z</time></trkpt><trkpt lat="45.5154091" lon="10.4622247"><ele>193.0</ele><time>2026-03-28T08:49:37.627Z</time></trkpt><trkpt lat="45.515212" lon="10.462245"><ele>193.0</ele><time>2026-03-28T08:49:38.619Z</time></trkpt><trkpt lat="45.5150076" lon="10.4622372"><ele>193.0</ele><time>2026-03-28T08:49:39.631Z</time></trkpt><trkpt lat="45.5148055" lon="10.4621953"><ele>193.0</ele><time>2026-03-28T08:49:40.619Z</time></trkpt><trkpt lat="45.5146031" lon="10.4621629"><ele>193.33333333333331</ele><time>2026-03-28T08:49:41.629Z</time></trkpt><trkpt lat="45.5144081" lon="10.4621214"><ele>193.66666666666669</ele><time>2026-03-28T08:49:42.625Z</time></trkpt><trkpt lat="45.5142017" lon="10.4621254"><ele>194.0</ele><time>2026-03-28T08:49:43.617Z</time></trkpt><trkpt lat="45.5140074" lon="10.4621304"><ele>194.0</ele><time>2026-03-28T08:49:44.622Z</time></trkpt><trkpt lat="45.5138201" lon="10.4621556"><ele>194.0</ele><time>2026-03-28T08:49:45.623Z</time></trkpt><trkpt lat="45.5136249" lon="10.462167"><ele>194.0</ele><time>2026-03-28T08:49:46.623Z</time></trkpt><trkpt lat="45.5134407" lon="10.462172"><ele>193.66666666666669</ele><time>2026-03-28T08:49:47.62Z</time></trkpt><trkpt lat="45.5132626" lon="10.4621748"><ele>193.33333333333331</ele><time>2026-03-28T08:49:48.623Z</time></trkpt><trkpt lat="45.5130744" lon="10.4621873"><ele>193.0</ele><time>2026-03-28T08:49:49.626Z</time></trkpt><trkpt lat="45.5128657" lon="10.4621917"><ele>192.33333333333331</ele><time>2026-03-28T08:49:50.623Z</time></trkpt><trkpt lat="45.5126662" lon="10.4622052"><ele>191.66666666666666</ele><time>2026-03-28T08:49:51.63Z</time></trkpt><trkpt lat="45.5124735" lon="10.4622096"><ele>191.0</ele><time>2026-03-28T08:49:52.629Z</time></trkpt><trkpt lat="45.5122763" lon="10.4622482"><ele>191.0</ele><time>2026-03-28T08:49:53.623Z</time></trkpt><trkpt lat="45.5120857" lon="10.4622878"><ele>191.0</ele><time>2026-03-28T08:49:54.632Z</time></trkpt><trkpt lat="45.5118861" lon="10.4623323"><ele>191.0</ele><time>2026-03-28T08:49:55.628Z</time></trkpt><trkpt lat="45.5116819" lon="10.4624041"><ele>190.33333333333331</ele><time>2026-03-28T08:49:56.626Z</time></trkpt><trkpt lat="45.511462" lon="10.462501"><ele>189.66666666666666</ele><time>2026-03-28T08:49:57.631Z</time></trkpt><trkpt lat="45.5112591" lon="10.4625842"><ele>189.0</ele><time>2026-03-28T08:49:58.618Z</time></trkpt><trkpt lat="45.5110408" lon="10.4626556"><ele>188.66666666666666</ele><time>2026-03-28T08:49:59.622Z</time></trkpt><trkpt lat="45.510826" lon="10.4627541"><ele>188.33333333333331</ele><time>2026-03-28T08:50:00.629Z</time></trkpt><trkpt lat="45.5106216" lon="10.4628417"><ele>188.0</ele><time>2026-03-28T08:50:01.634Z</time></trkpt><trkpt lat="45.510428" lon="10.4629306"><ele>188.0</ele><time>2026-03-28T08:50:02.632Z</time></trkpt><trkpt lat="45.5102324" lon="10.4629999"><ele>188.0</ele><time>2026-03-28T08:50:03.622Z</time></trkpt><trkpt lat="45.5100437" lon="10.4630609"><ele>188.0</ele><time>2026-03-28T08:50:04.632Z</time></trkpt><trkpt lat="45.5098607" lon="10.463123"><ele>188.0</ele><time>2026-03-28T08:50:05.624Z</time></trkpt><trkpt lat="45.5096813" lon="10.4631884"><ele>188.0</ele><time>2026-03-28T08:50:06.625Z</time></trkpt><trkpt lat="45.5095028" lon="10.4632301"><ele>188.0</ele><time>2026-03-28T08:50:07.627Z</time></trkpt><trkpt lat="45.5093354" lon="10.4632654"><ele>187.33333333333331</ele><time>2026-03-28T08:50:08.63Z</time></trkpt><trkpt lat="45.5091662" lon="10.4633073"><ele>186.66666666666666</ele><time>2026-03-28T08:50:09.623Z</time></trkpt><trkpt lat="45.5090063" lon="10.4633601"><ele>186.0</ele><time>2026-03-28T08:50:10.629Z</time></trkpt><trkpt lat="45.5088576" lon="10.4634"><ele>186.66666666666666</ele><time>2026-03-28T08:50:11.627Z</time></trkpt><trkpt lat="45.5086974" lon="10.4634343"><ele>187.33333333333331</ele><time>2026-03-28T08:50:12.626Z</time></trkpt><trkpt lat="45.5085323" lon="10.4634866"><ele>188.0</ele><time>2026-03-28T08:50:13.623Z</time></trkpt><trkpt lat="45.5083918" lon="10.4635514"><ele>188.0</ele><time>2026-03-28T08:50:14.628Z</time></trkpt><trkpt lat="45.5082388" lon="10.4636093"><ele>188.0</ele><time>2026-03-28T08:50:15.623Z</time></trkpt><trkpt lat="45.5080748" lon="10.463627"><ele>188.0</ele><time>2026-03-28T08:50:16.623Z</time></trkpt><trkpt lat="45.5079098" lon="10.4636606"><ele>186.5</ele><time>2026-03-28T08:50:17.615Z</time></trkpt><trkpt lat="45.5077582" lon="10.463672"><ele>185.0</ele><time>2026-03-28T08:50:18.616Z</time></trkpt><trkpt lat="45.5076195" lon="10.4636692"><ele>183.5</ele><time>2026-03-28T08:50:19.624Z</time></trkpt><trkpt lat="45.5075182" lon="10.4636383"><ele>182.0</ele><time>2026-03-28T08:50:20.617Z</time></trkpt><trkpt lat="45.5074395" lon="10.4636443"><ele>182.0</ele><time>2026-03-28T08:50:21.613Z</time></trkpt><trkpt lat="45.50737" lon="10.4636438"><ele>182.0</ele><time>2026-03-28T08:50:22.62Z</time></trkpt><trkpt lat="45.5073069" lon="10.4636671"><ele>182.0</ele><time>2026-03-28T08:50:23.616Z</time></trkpt><trkpt lat="45.5072326" lon="10.4636703"><ele>182.0</ele><time>2026-03-28T08:50:24.607Z</time></trkpt><trkpt lat="45.5071404" lon="10.4636899"><ele>182.0</ele><time>2026-03-28T08:50:26.622Z</time></trkpt><trkpt lat="45.5070352" lon="10.4637015"><ele>182.0</ele><time>2026-03-28T08:50:28.616Z</time></trkpt><trkpt lat="45.5069416" lon="10.4636971"><ele>182.0</ele><time>2026-03-28T08:50:30.619Z</time></trkpt><trkpt lat="45.5068397" lon="10.4636673"><ele>182.0</ele><time>2026-03-28T08:50:33.627Z</time></trkpt><trkpt lat="45.5067531" lon="10.4635921"><ele>182.0</ele><time>2026-03-28T08:50:35.618Z</time></trkpt><trkpt lat="45.5066467" lon="10.4635429"><ele>182.0</ele><time>2026-03-28T08:50:37.611Z</time></trkpt><trkpt lat="45.5065416" lon="10.4635403"><ele>182.0</ele><time>2026-03-28T08:50:39.613Z</time></trkpt><trkpt lat="45.5064832" lon="10.4637086"><ele>182.0</ele><time>2026-03-28T08:50:41.619Z</time></trkpt><trkpt lat="45.5064988" lon="10.4638464"><ele>182.0</ele><time>2026-03-28T08:50:42.618Z</time></trkpt><trkpt lat="45.50656" lon="10.4639988"><ele>182.0</ele><time>2026-03-28T08:50:43.614Z</time></trkpt><trkpt lat="45.5066151" lon="10.464153"><ele>182.0</ele><time>2026-03-28T08:50:44.613Z</time></trkpt><trkpt lat="45.5066519" lon="10.4643177"><ele>182.0</ele><time>2026-03-28T08:50:45.611Z</time></trkpt><trkpt lat="45.5066632" lon="10.4645053"><ele>182.0</ele><time>2026-03-28T08:50:46.622Z</time></trkpt><trkpt lat="45.5066566" lon="10.4647077"><ele>182.0</ele><time>2026-03-28T08:50:47.621Z</time></trkpt><trkpt lat="45.506654" lon="10.4649017"><ele>182.0</ele><time>2026-03-28T08:50:48.618Z</time></trkpt><trkpt lat="45.5066411" lon="10.4650816"><ele>182.25</ele><time>2026-03-28T08:50:49.622Z</time></trkpt><trkpt lat="45.5066253" lon="10.4652551"><ele>182.5</ele><time>2026-03-28T08:50:50.62Z</time></trkpt><trkpt lat="45.5066113" lon="10.4654431"><ele>182.75</ele><time>2026-03-28T08:50:51.625Z</time></trkpt><trkpt lat="45.5066012" lon="10.4656461"><ele>183.0</ele><time>2026-03-28T08:50:52.617Z</time></trkpt><trkpt lat="45.5065972" lon="10.4658672"><ele>183.0</ele><time>2026-03-28T08:50:53.623Z</time></trkpt><trkpt lat="45.5066205" lon="10.4661422"><ele>183.0</ele><time>2026-03-28T08:50:54.619Z</time></trkpt><trkpt lat="45.5066416" lon="10.4664151"><ele>183.0</ele><time>2026-03-28T08:50:55.623Z</time></trkpt><trkpt lat="45.5066734" lon="10.4666794"><ele>183.0</ele><time>2026-03-28T08:50:56.613Z</time></trkpt><trkpt lat="45.5067209" lon="10.4669363"><ele>183.0</ele><time>2026-03-28T08:50:57.624Z</time></trkpt><trkpt lat="45.5067613" lon="10.4671957"><ele>183.0</ele><time>2026-03-28T08:50:58.623Z</time></trkpt><trkpt lat="45.5068066" lon="10.467453"><ele>183.0</ele><time>2026-03-28T08:50:59.625Z</time></trkpt><trkpt lat="45.5068558" lon="10.4677029"><ele>183.0</ele><time>2026-03-28T08:51:00.618Z</time></trkpt><trkpt lat="45.5069008" lon="10.4679705"><ele>183.0</ele><time>2026-03-28T08:51:01.624Z</time></trkpt><trkpt lat="45.5069386" lon="10.468217"><ele>184.0</ele><time>2026-03-28T08:51:02.621Z</time></trkpt><trkpt lat="45.5069887" lon="10.4684652"><ele>185.0</ele><time>2026-03-28T08:51:03.617Z</time></trkpt><trkpt lat="45.5070297" lon="10.4687243"><ele>186.0</ele><time>2026-03-28T08:51:04.617Z</time></trkpt><trkpt lat="45.5070946" lon="10.4689548"><ele>187.33333333333334</ele><time>2026-03-28T08:51:05.616Z</time></trkpt><trkpt lat="45.5071351" lon="10.4691697"><ele>188.66666666666669</ele><time>2026-03-28T08:51:06.615Z</time></trkpt><trkpt lat="45.5071559" lon="10.469391"><ele>190.0</ele><time>2026-03-28T08:51:07.62Z</time></trkpt><trkpt lat="45.5071524" lon="10.4696122"><ele>189.66666666666669</ele><time>2026-03-28T08:51:08.611Z</time></trkpt><trkpt lat="45.5071239" lon="10.4698521"><ele>189.33333333333334</ele><time>2026-03-28T08:51:09.615Z</time></trkpt><trkpt lat="45.5070897" lon="10.4701115"><ele>189.0</ele><time>2026-03-28T08:51:10.612Z</time></trkpt><trkpt lat="45.5070419" lon="10.4703976"><ele>189.66666666666666</ele><time>2026-03-28T08:51:11.609Z</time></trkpt><trkpt lat="45.5069927" lon="10.4706759"><ele>190.33333333333331</ele><time>2026-03-28T08:51:12.612Z</time></trkpt><trkpt lat="45.50692" lon="10.4709527"><ele>191.0</ele><time>2026-03-28T08:51:13.618Z</time></trkpt><trkpt lat="45.5068663" lon="10.4711827"><ele>191.66666666666666</ele><time>2026-03-28T08:51:14.617Z</time></trkpt><trkpt lat="45.5067886" lon="10.4713929"><ele>192.33333333333331</ele><time>2026-03-28T08:51:15.619Z</time></trkpt><trkpt lat="45.5067113" lon="10.4716027"><ele>193.0</ele><time>2026-03-28T08:51:16.621Z</time></trkpt><trkpt lat="45.5066405" lon="10.4718463"><ele>194.33333333333331</ele><time>2026-03-28T08:51:17.614Z</time></trkpt><trkpt lat="45.506599" lon="10.4721273"><ele>195.66666666666669</ele><time>2026-03-28T08:51:18.613Z</time></trkpt><trkpt lat="45.5065743" lon="10.4723998"><ele>197.0</ele><time>2026-03-28T08:51:19.619Z</time></trkpt><trkpt lat="45.5065765" lon="10.4726952"><ele>196.33333333333334</ele><time>2026-03-28T08:51:20.615Z</time></trkpt><trkpt lat="45.5065635" lon="10.4729729"><ele>195.66666666666669</ele><time>2026-03-28T08:51:21.618Z</time></trkpt><trkpt lat="45.506551" lon="10.4732554"><ele>195.0</ele><time>2026-03-28T08:51:22.619Z</time></trkpt><trkpt lat="45.5065429" lon="10.4735142"><ele>195.0</ele><time>2026-03-28T08:51:23.617Z</time></trkpt><trkpt lat="45.5065202" lon="10.4737686"><ele>195.0</ele><time>2026-03-28T08:51:24.617Z</time></trkpt><trkpt lat="45.5064816" lon="10.474003"><ele>195.0</ele><time>2026-03-28T08:51:25.616Z</time></trkpt><trkpt lat="45.5064391" lon="10.4742447"><ele>194.66666666666669</ele><time>2026-03-28T08:51:26.614Z</time></trkpt><trkpt lat="45.5064021" lon="10.4744936"><ele>194.33333333333334</ele><time>2026-03-28T08:51:27.616Z</time></trkpt><trkpt lat="45.5063589" lon="10.4747318"><ele>194.0</ele><time>2026-03-28T08:51:28.614Z</time></trkpt><trkpt lat="45.506325" lon="10.4749613"><ele>194.0</ele><time>2026-03-28T08:51:29.62Z</time></trkpt><trkpt lat="45.5062868" lon="10.4751926"><ele>194.0</ele><time>2026-03-28T08:51:30.615Z</time></trkpt><trkpt lat="45.5062419" lon="10.4754251"><ele>194.0</ele><time>2026-03-28T08:51:31.631Z</time></trkpt><trkpt lat="45.5062012" lon="10.4756659"><ele>196.0</ele><time>2026-03-28T08:51:32.627Z</time></trkpt><trkpt lat="45.5061557" lon="10.475899"><ele>198.0</ele><time>2026-03-28T08:51:33.622Z</time></trkpt><trkpt lat="45.5061273" lon="10.4761419"><ele>200.0</ele><time>2026-03-28T08:51:34.621Z</time></trkpt><trkpt lat="45.5061151" lon="10.4763956"><ele>201.66666666666669</ele><time>2026-03-28T08:51:35.618Z</time></trkpt><trkpt lat="45.5061239" lon="10.476644"><ele>203.33333333333331</ele><time>2026-03-28T08:51:36.619Z</time></trkpt><trkpt lat="45.5061498" lon="10.4768951"><ele>205.0</ele><time>2026-03-28T08:51:37.614Z</time></trkpt><trkpt lat="45.5061769" lon="10.4771298"><ele>206.66666666666666</ele><time>2026-03-28T08:51:38.617Z</time></trkpt><trkpt lat="45.5061643" lon="10.4773664"><ele>208.33333333333331</ele><time>2026-03-28T08:51:39.614Z</time></trkpt><trkpt lat="45.5061481" lon="10.4775882"><ele>210.0</ele><time>2026-03-28T08:51:40.611Z</time></trkpt><trkpt lat="45.5061205" lon="10.4777847"><ele>209.5</ele><time>2026-03-28T08:51:41.61Z</time></trkpt><trkpt lat="45.5061032" lon="10.4779719"><ele>209.0</ele><time>2026-03-28T08:51:42.607Z</time></trkpt><trkpt lat="45.5060144" lon="10.4781308"><ele>208.5</ele><time>2026-03-28T08:51:43.608Z</time></trkpt><trkpt lat="45.505925" lon="10.478282"><ele>208.0</ele><time>2026-03-28T08:51:44.61Z</time></trkpt><trkpt lat="45.5058059" lon="10.4783997"><ele>208.0</ele><time>2026-03-28T08:51:45.609Z</time></trkpt><trkpt lat="45.5056798" lon="10.4785088"><ele>208.0</ele><time>2026-03-28T08:51:46.619Z</time></trkpt><trkpt lat="45.5055554" lon="10.4786123"><ele>208.0</ele><time>2026-03-28T08:51:47.606Z</time></trkpt><trkpt lat="45.5054235" lon="10.4787139"><ele>208.0</ele><time>2026-03-28T08:51:48.609Z</time></trkpt><trkpt lat="45.5052651" lon="10.4788118"><ele>209.66666666666666</ele><time>2026-03-28T08:51:49.613Z</time></trkpt><trkpt lat="45.505073" lon="10.478882"><ele>211.33333333333331</ele><time>2026-03-28T08:51:50.611Z</time></trkpt><trkpt lat="45.5048915" lon="10.47897"><ele>213.0</ele><time>2026-03-28T08:51:51.616Z</time></trkpt><trkpt lat="45.5047357" lon="10.4790819"><ele>213.0</ele><time>2026-03-28T08:51:52.61Z</time></trkpt><trkpt lat="45.5045995" lon="10.4792164"><ele>213.0</ele><time>2026-03-28T08:51:53.613Z</time></trkpt><trkpt lat="45.5044738" lon="10.4793861"><ele>213.0</ele><time>2026-03-28T08:51:54.61Z</time></trkpt><trkpt lat="45.5043571" lon="10.4795478"><ele>213.75</ele><time>2026-03-28T08:51:55.599Z</time></trkpt><trkpt lat="45.5042861" lon="10.4797321"><ele>214.5</ele><time>2026-03-28T08:51:56.609Z</time></trkpt><trkpt lat="45.5042267" lon="10.4799443"><ele>215.25</ele><time>2026-03-28T08:51:57.606Z</time></trkpt><trkpt lat="45.5041664" lon="10.4801186"><ele>216.0</ele><time>2026-03-28T08:51:58.613Z</time></trkpt><trkpt lat="45.5041262" lon="10.4803153"><ele>218.0</ele><time>2026-03-28T08:51:59.608Z</time></trkpt><trkpt lat="45.5040981" lon="10.480533"><ele>220.0</ele><time>2026-03-28T08:52:00.616Z</time></trkpt><trkpt lat="45.5040817" lon="10.4807567"><ele>222.0</ele><time>2026-03-28T08:52:01.62Z</time></trkpt><trkpt lat="45.5040533" lon="10.4809937"><ele>222.0</ele><time>2026-03-28T08:52:02.608Z</time></trkpt><trkpt lat="45.5040476" lon="10.4812351"><ele>222.0</ele><time>2026-03-28T08:52:03.608Z</time></trkpt><trkpt lat="45.5040361" lon="10.4814579"><ele>222.0</ele><time>2026-03-28T08:52:04.608Z</time></trkpt><trkpt lat="45.504001" lon="10.4816731"><ele>222.5</ele><time>2026-03-28T08:52:05.601Z</time></trkpt><trkpt lat="45.5039467" lon="10.4818625"><ele>223.0</ele><time>2026-03-28T08:52:06.612Z</time></trkpt><trkpt lat="45.5039333" lon="10.4820488"><ele>223.5</ele><time>2026-03-28T08:52:07.612Z</time></trkpt><trkpt lat="45.5039216" lon="10.4822458"><ele>224.0</ele><time>2026-03-28T08:52:08.603Z</time></trkpt><trkpt lat="45.5039107" lon="10.482456"><ele>224.0</ele><time>2026-03-28T08:52:09.61Z</time></trkpt><trkpt lat="45.5039449" lon="10.4826619"><ele>224.0</ele><time>2026-03-28T08:52:10.611Z</time></trkpt><trkpt lat="45.5040059" lon="10.4828662"><ele>224.0</ele><time>2026-03-28T08:52:11.606Z</time></trkpt><trkpt lat="45.5040714" lon="10.4830493"><ele>224.0</ele><time>2026-03-28T08:52:12.617Z</time></trkpt><trkpt lat="45.5041542" lon="10.4832368"><ele>222.33333333333334</ele><time>2026-03-28T08:52:13.611Z</time></trkpt><trkpt lat="45.5042374" lon="10.4834286"><ele>220.66666666666669</ele><time>2026-03-28T08:52:14.609Z</time></trkpt><trkpt lat="45.5043315" lon="10.4836655"><ele>219.0</ele><time>2026-03-28T08:52:15.612Z</time></trkpt><trkpt lat="45.5044489" lon="10.4839072"><ele>220.0</ele><time>2026-03-28T08:52:16.613Z</time></trkpt><trkpt lat="45.50457" lon="10.4841632"><ele>221.0</ele><time>2026-03-28T08:52:17.608Z</time></trkpt><trkpt lat="45.5046949" lon="10.4844603"><ele>218.33333333333334</ele><time>2026-03-28T08:52:18.609Z</time></trkpt><trkpt lat="45.5048224" lon="10.4847213"><ele>215.66666666666669</ele><time>2026-03-28T08:52:19.612Z</time></trkpt><trkpt lat="45.5049323" lon="10.4849858"><ele>213.0</ele><time>2026-03-28T08:52:20.612Z</time></trkpt><trkpt lat="45.5050202" lon="10.4852639"><ele>210.33333333333331</ele><time>2026-03-28T08:52:21.606Z</time></trkpt><trkpt lat="45.5051093" lon="10.4855134"><ele>207.66666666666666</ele><time>2026-03-28T08:52:22.613Z</time></trkpt><trkpt lat="45.5052162" lon="10.4857406"><ele>205.0</ele><time>2026-03-28T08:52:23.609Z</time></trkpt><trkpt lat="45.5053018" lon="10.4859716"><ele>205.0</ele><time>2026-03-28T08:52:24.612Z</time></trkpt><trkpt lat="45.5054084" lon="10.4861559"><ele>205.0</ele><time>2026-03-28T08:52:25.613Z</time></trkpt><trkpt lat="45.5055101" lon="10.4863567"><ele>205.0</ele><time>2026-03-28T08:52:26.613Z</time></trkpt><trkpt lat="45.5056113" lon="10.4865705"><ele>206.0</ele><time>2026-03-28T08:52:27.609Z</time></trkpt><trkpt lat="45.5057108" lon="10.4867656"><ele>207.0</ele><time>2026-03-28T08:52:28.615Z</time></trkpt><trkpt lat="45.5058008" lon="10.4869433"><ele>208.0</ele><time>2026-03-28T08:52:29.61Z</time></trkpt><trkpt lat="45.5059018" lon="10.4871225"><ele>205.0</ele><time>2026-03-28T08:52:30.609Z</time></trkpt><trkpt lat="45.5059965" lon="10.4873217"><ele>202.0</ele><time>2026-03-28T08:52:31.619Z</time></trkpt><trkpt lat="45.5060777" lon="10.4875307"><ele>199.0</ele><time>2026-03-28T08:52:32.608Z</time></trkpt><trkpt lat="45.5061483" lon="10.4877786"><ele>198.33333333333331</ele><time>2026-03-28T08:52:33.612Z</time></trkpt><trkpt lat="45.5062206" lon="10.4880162"><ele>197.66666666666669</ele><time>2026-03-28T08:52:34.613Z</time></trkpt><trkpt lat="45.5062936" lon="10.4882394"><ele>197.0</ele><time>2026-03-28T08:52:35.61Z</time></trkpt><trkpt lat="45.5063629" lon="10.4884661"><ele>198.5</ele><time>2026-03-28T08:52:36.613Z</time></trkpt><trkpt lat="45.5064126" lon="10.4886851"><ele>200.0</ele><time>2026-03-28T08:52:37.612Z</time></trkpt><trkpt lat="45.506424" lon="10.4888894"><ele>201.5</ele><time>2026-03-28T08:52:38.61Z</time></trkpt><trkpt lat="45.5064066" lon="10.4890673"><ele>203.0</ele><time>2026-03-28T08:52:39.611Z</time></trkpt><trkpt lat="45.5063282" lon="10.4892291"><ele>202.33333333333334</ele><time>2026-03-28T08:52:40.618Z</time></trkpt><trkpt lat="45.5062193" lon="10.4893411"><ele>201.66666666666669</ele><time>2026-03-28T08:52:41.616Z</time></trkpt><trkpt lat="45.5060813" lon="10.4894216"><ele>201.0</ele><time>2026-03-28T08:52:42.614Z</time></trkpt><trkpt lat="45.5059082" lon="10.4894905"><ele>201.0</ele><time>2026-03-28T08:52:43.617Z</time></trkpt><trkpt lat="45.5057379" lon="10.4895206"><ele>201.0</ele><time>2026-03-28T08:52:44.613Z</time></trkpt><trkpt lat="45.5055687" lon="10.4895304"><ele>201.0</ele><time>2026-03-28T08:52:45.615Z</time></trkpt><trkpt lat="45.5053956" lon="10.4895712"><ele>200.66666666666669</ele><time>2026-03-28T08:52:46.617Z</time></trkpt><trkpt lat="45.5052355" lon="10.4896413"><ele>200.33333333333334</ele><time>2026-03-28T08:52:47.618Z</time></trkpt><trkpt lat="45.5050833" lon="10.48975"><ele>200.0</ele><time>2026-03-28T08:52:48.616Z</time></trkpt><trkpt lat="45.5049312" lon="10.4898556"><ele>200.0</ele><time>2026-03-28T08:52:49.619Z</time></trkpt><trkpt lat="45.5047598" lon="10.4899852"><ele>200.0</ele><time>2026-03-28T08:52:50.612Z</time></trkpt><trkpt lat="45.5046015" lon="10.4901061"><ele>200.0</ele><time>2026-03-28T08:52:51.625Z</time></trkpt><trkpt lat="45.5044522" lon="10.4902258"><ele>199.66666666666669</ele><time>2026-03-28T08:52:52.624Z</time></trkpt><trkpt lat="45.5043102" lon="10.4903373"><ele>199.33333333333331</ele><time>2026-03-28T08:52:53.619Z</time></trkpt><trkpt lat="45.5041888" lon="10.4904688"><ele>199.0</ele><time>2026-03-28T08:52:54.615Z</time></trkpt><trkpt lat="45.5040671" lon="10.4906264"><ele>199.5</ele><time>2026-03-28T08:52:55.622Z</time></trkpt><trkpt lat="45.503983" lon="10.4907753"><ele>200.0</ele><time>2026-03-28T08:52:56.616Z</time></trkpt><trkpt lat="45.503934" lon="10.4909644"><ele>200.5</ele><time>2026-03-28T08:52:57.612Z</time></trkpt><trkpt lat="45.5039116" lon="10.4911642"><ele>201.0</ele><time>2026-03-28T08:52:58.617Z</time></trkpt><trkpt lat="45.5039024" lon="10.4913748"><ele>201.66666666666669</ele><time>2026-03-28T08:52:59.612Z</time></trkpt><trkpt lat="45.503955" lon="10.4916146"><ele>202.33333333333334</ele><time>2026-03-28T08:53:00.616Z</time></trkpt><trkpt lat="45.5040147" lon="10.4918405"><ele>203.0</ele><time>2026-03-28T08:53:01.627Z</time></trkpt><trkpt lat="45.5040662" lon="10.4920934"><ele>203.33333333333334</ele><time>2026-03-28T08:53:02.616Z</time></trkpt><trkpt lat="45.5041156" lon="10.4923285"><ele>203.66666666666669</ele><time>2026-03-28T08:53:03.612Z</time></trkpt><trkpt lat="45.5041512" lon="10.4925624"><ele>204.0</ele><time>2026-03-28T08:53:04.62Z</time></trkpt><trkpt lat="45.5041844" lon="10.4927492"><ele>203.6</ele><time>2026-03-28T08:53:05.616Z</time></trkpt><trkpt lat="45.504196" lon="10.4929282"><ele>203.2</ele><time>2026-03-28T08:53:06.607Z</time></trkpt><trkpt lat="45.5042242" lon="10.4931006"><ele>202.79999999999998</ele><time>2026-03-28T08:53:07.612Z</time></trkpt><trkpt lat="45.5042587" lon="10.4932466"><ele>202.39999999999998</ele><time>2026-03-28T08:53:08.61Z</time></trkpt><trkpt lat="45.5042829" lon="10.4933313"><ele>202.0</ele><time>2026-03-28T08:53:09.613Z</time></trkpt><trkpt lat="45.5042545" lon="10.4934912"><ele>201.99999999999997</ele><time>2026-03-28T08:53:11.613Z</time></trkpt><trkpt lat="45.5042127" lon="10.4935616"><ele>202.0</ele><time>2026-03-28T08:53:12.607Z</time></trkpt><trkpt lat="45.5041551" lon="10.493626"><ele>202.0</ele><time>2026-03-28T08:53:13.606Z</time></trkpt><trkpt lat="45.5040725" lon="10.4936837"><ele>202.0</ele><time>2026-03-28T08:53:14.617Z</time></trkpt><trkpt lat="45.5039643" lon="10.4936931"><ele>201.99999999999997</ele><time>2026-03-28T08:53:15.605Z</time></trkpt><trkpt lat="45.5038566" lon="10.493665"><ele>202.0</ele><time>2026-03-28T08:53:16.602Z</time></trkpt><trkpt lat="45.5037412" lon="10.4936258"><ele>200.75</ele><time>2026-03-28T08:53:17.605Z</time></trkpt><trkpt lat="45.5036018" lon="10.4935554"><ele>199.5</ele><time>2026-03-28T08:53:18.604Z</time></trkpt><trkpt lat="45.5034742" lon="10.4934839"><ele>198.25</ele><time>2026-03-28T08:53:19.607Z</time></trkpt><trkpt lat="45.5033357" lon="10.4934071"><ele>197.0</ele><time>2026-03-28T08:53:20.611Z</time></trkpt><trkpt lat="45.503198" lon="10.4933171"><ele>197.0</ele><time>2026-03-28T08:53:21.613Z</time></trkpt><trkpt lat="45.5030572" lon="10.4932496"><ele>197.0</ele><time>2026-03-28T08:53:22.61Z</time></trkpt><trkpt lat="45.5029095" lon="10.4931865"><ele>197.0</ele><time>2026-03-28T08:53:23.612Z</time></trkpt><trkpt lat="45.5027313" lon="10.4931171"><ele>197.33333333333334</ele><time>2026-03-28T08:53:24.605Z</time></trkpt><trkpt lat="45.5025619" lon="10.4931115"><ele>197.66666666666669</ele><time>2026-03-28T08:53:25.612Z</time></trkpt><trkpt lat="45.5024196" lon="10.4931119"><ele>198.0</ele><time>2026-03-28T08:53:26.618Z</time></trkpt><trkpt lat="45.50228" lon="10.4931198"><ele>198.0</ele><time>2026-03-28T08:53:27.607Z</time></trkpt><trkpt lat="45.5021349" lon="10.4930967"><ele>198.0</ele><time>2026-03-28T08:53:28.611Z</time></trkpt><trkpt lat="45.5019834" lon="10.4930782"><ele>198.0</ele><time>2026-03-28T08:53:29.62Z</time></trkpt><trkpt lat="45.5018364" lon="10.4930912"><ele>198.0</ele><time>2026-03-28T08:53:30.612Z</time></trkpt><trkpt lat="45.501703" lon="10.4931384"><ele>197.0</ele><time>2026-03-28T08:53:31.624Z</time></trkpt><trkpt lat="45.5015683" lon="10.4931963"><ele>196.0</ele><time>2026-03-28T08:53:32.62Z</time></trkpt><trkpt lat="45.5014338" lon="10.4932627"><ele>195.0</ele><time>2026-03-28T08:53:33.621Z</time></trkpt><trkpt lat="45.5013138" lon="10.4933179"><ele>194.0</ele><time>2026-03-28T08:53:34.617Z</time></trkpt><trkpt lat="45.5011993" lon="10.4933701"><ele>193.25</ele><time>2026-03-28T08:53:35.616Z</time></trkpt><trkpt lat="45.5011023" lon="10.4934016"><ele>192.5</ele><time>2026-03-28T08:53:36.618Z</time></trkpt><trkpt lat="45.5009989" lon="10.4934512"><ele>191.75</ele><time>2026-03-28T08:53:37.614Z</time></trkpt><trkpt lat="45.5008865" lon="10.4935232"><ele>191.0</ele><time>2026-03-28T08:53:38.612Z</time></trkpt><trkpt lat="45.5007812" lon="10.4936141"><ele>191.0</ele><time>2026-03-28T08:53:39.612Z</time></trkpt><trkpt lat="45.5006723" lon="10.4937264"><ele>191.0</ele><time>2026-03-28T08:53:40.604Z</time></trkpt><trkpt lat="45.5005575" lon="10.4938665"><ele>191.0</ele><time>2026-03-28T08:53:41.7Z</time></trkpt><trkpt lat="45.5004369" lon="10.4940482"><ele>189.0</ele><time>2026-03-28T08:53:42.608Z</time></trkpt><trkpt lat="45.5003275" lon="10.4942575"><ele>187.0</ele><time>2026-03-28T08:53:43.615Z</time></trkpt><trkpt lat="45.5002301" lon="10.4944798"><ele>185.0</ele><time>2026-03-28T08:53:44.618Z</time></trkpt><trkpt lat="45.5001237" lon="10.494726"><ele>183.66666666666666</ele><time>2026-03-28T08:53:45.614Z</time></trkpt><trkpt lat="45.5000019" lon="10.4949629"><ele>182.33333333333334</ele><time>2026-03-28T08:53:46.61Z</time></trkpt><trkpt lat="45.4998731" lon="10.4951958"><ele>181.0</ele><time>2026-03-28T08:53:47.611Z</time></trkpt><trkpt lat="45.4997654" lon="10.4953961"><ele>178.66666666666669</ele><time>2026-03-28T08:53:48.611Z</time></trkpt><trkpt lat="45.4996631" lon="10.495588"><ele>176.33333333333334</ele><time>2026-03-28T08:53:49.617Z</time></trkpt><trkpt lat="45.4995418" lon="10.495747"><ele>174.0</ele><time>2026-03-28T08:53:50.612Z</time></trkpt><trkpt lat="45.4994315" lon="10.4958681"><ele>173.5</ele><time>2026-03-28T08:53:51.613Z</time></trkpt><trkpt lat="45.4993209" lon="10.4959474"><ele>173.0</ele><time>2026-03-28T08:53:52.618Z</time></trkpt><trkpt lat="45.4992082" lon="10.4960126"><ele>172.5</ele><time>2026-03-28T08:53:53.616Z</time></trkpt><trkpt lat="45.4990616" lon="10.4959954"><ele>172.0</ele><time>2026-03-28T08:53:54.614Z</time></trkpt><trkpt lat="45.4989152" lon="10.4959596"><ele>170.33333333333334</ele><time>2026-03-28T08:53:55.612Z</time></trkpt><trkpt lat="45.4987419" lon="10.4959419"><ele>168.66666666666666</ele><time>2026-03-28T08:53:56.613Z</time></trkpt><trkpt lat="45.4985789" lon="10.495864"><ele>167.0</ele><time>2026-03-28T08:53:57.606Z</time></trkpt><trkpt lat="45.4984111" lon="10.4957746"><ele>167.0</ele><time>2026-03-28T08:53:58.608Z</time></trkpt><trkpt lat="45.4982499" lon="10.4957136"><ele>167.0</ele><time>2026-03-28T08:53:59.682Z</time></trkpt><trkpt lat="45.4980998" lon="10.4956584"><ele>167.0</ele><time>2026-03-28T08:54:00.605Z</time></trkpt><trkpt lat="45.4979796" lon="10.4956847"><ele>167.0</ele><time>2026-03-28T08:54:01.608Z</time></trkpt><trkpt lat="45.4978711" lon="10.4957116"><ele>166.0</ele><time>2026-03-28T08:54:02.607Z</time></trkpt><trkpt lat="45.4977285" lon="10.4957491"><ele>165.0</ele><time>2026-03-28T08:54:03.607Z</time></trkpt><trkpt lat="45.4976" lon="10.4958495"><ele>164.0</ele><time>2026-03-28T08:54:04.602Z</time></trkpt><trkpt lat="45.4975188" lon="10.4960113"><ele>163.0</ele><time>2026-03-28T08:54:05.602Z</time></trkpt><trkpt lat="45.4974408" lon="10.4961862"><ele>159.33333333333334</ele><time>2026-03-28T08:54:06.601Z</time></trkpt><trkpt lat="45.4974252" lon="10.4964005"><ele>155.66666666666666</ele><time>2026-03-28T08:54:07.603Z</time></trkpt><trkpt lat="45.4975026" lon="10.4966046"><ele>152.0</ele><time>2026-03-28T08:54:08.612Z</time></trkpt><trkpt lat="45.4975699" lon="10.4967864"><ele>152.0</ele><time>2026-03-28T08:54:09.605Z</time></trkpt><trkpt lat="45.4976594" lon="10.4969893"><ele>152.0</ele><time>2026-03-28T08:54:10.608Z</time></trkpt><trkpt lat="45.4977672" lon="10.4971944"><ele>152.0</ele><time>2026-03-28T08:54:11.609Z</time></trkpt><trkpt lat="45.4979285" lon="10.4973747"><ele>150.33333333333331</ele><time>2026-03-28T08:54:12.609Z</time></trkpt><trkpt lat="45.4980912" lon="10.497549"><ele>148.66666666666666</ele><time>2026-03-28T08:54:13.61Z</time></trkpt><trkpt lat="45.498273" lon="10.4977347"><ele>147.0</ele><time>2026-03-28T08:54:14.612Z</time></trkpt><trkpt lat="45.498437" lon="10.4979103"><ele>144.33333333333334</ele><time>2026-03-28T08:54:15.611Z</time></trkpt><trkpt lat="45.4985888" lon="10.4980757"><ele>141.66666666666669</ele><time>2026-03-28T08:54:16.61Z</time></trkpt><trkpt lat="45.4987208" lon="10.4981995"><ele>139.0</ele><time>2026-03-28T08:54:17.611Z</time></trkpt><trkpt lat="45.4988519" lon="10.4983804"><ele>139.0</ele><time>2026-03-28T08:54:18.607Z</time></trkpt><trkpt lat="45.4989674" lon="10.4985637"><ele>139.0</ele><time>2026-03-28T08:54:19.606Z</time></trkpt><trkpt lat="45.4990916" lon="10.4987293"><ele>139.0</ele><time>2026-03-28T08:54:20.609Z</time></trkpt><trkpt lat="45.4992225" lon="10.4989"><ele>136.0</ele><time>2026-03-28T08:54:21.615Z</time></trkpt><trkpt lat="45.4993591" lon="10.4990413"><ele>133.0</ele><time>2026-03-28T08:54:22.607Z</time></trkpt><trkpt lat="45.4995118" lon="10.4991336"><ele>130.0</ele><time>2026-03-28T08:54:23.614Z</time></trkpt><trkpt lat="45.4996196" lon="10.4992214"><ele>130.0</ele><time>2026-03-28T08:54:24.618Z</time></trkpt><trkpt lat="45.4997255" lon="10.4993044"><ele>130.0</ele><time>2026-03-28T08:54:25.608Z</time></trkpt><trkpt lat="45.4998163" lon="10.4993581"><ele>130.0</ele><time>2026-03-28T08:54:26.609Z</time></trkpt><trkpt lat="45.4998824" lon="10.4994098"><ele>130.0</ele><time>2026-03-28T08:54:27.612Z</time></trkpt><trkpt lat="45.4999323" lon="10.4994768"><ele>130.0</ele><time>2026-03-28T08:54:28.611Z</time></trkpt><trkpt lat="45.4999538" lon="10.4995904"><ele>130.0</ele><time>2026-03-28T08:54:29.605Z</time></trkpt><trkpt lat="45.4999131" lon="10.4996825"><ele>128.0</ele><time>2026-03-28T08:54:30.613Z</time></trkpt><trkpt lat="45.4999006" lon="10.4997908"><ele>126.0</ele><time>2026-03-28T08:54:31.611Z</time></trkpt><trkpt lat="45.4998714" lon="10.4998902"><ele>124.0</ele><time>2026-03-28T08:54:32.613Z</time></trkpt><trkpt lat="45.4998161" lon="10.4999606"><ele>122.0</ele><time>2026-03-28T08:54:33.605Z</time></trkpt><trkpt lat="45.4997292" lon="10.499972"><ele>120.00000000000001</ele><time>2026-03-28T08:54:34.614Z</time></trkpt><trkpt lat="45.4996381" lon="10.4999578"><ele>118.0</ele><time>2026-03-28T08:54:35.604Z</time></trkpt><trkpt lat="45.4995407" lon="10.4999029"><ele>117.33333333333334</ele><time>2026-03-28T08:54:36.606Z</time></trkpt><trkpt lat="45.4994191" lon="10.4998146"><ele>116.66666666666666</ele><time>2026-03-28T08:54:37.605Z</time></trkpt><trkpt lat="45.4992637" lon="10.4997215"><ele>116.0</ele><time>2026-03-28T08:54:38.607Z</time></trkpt><trkpt lat="45.4991033" lon="10.4996353"><ele>119.0</ele><time>2026-03-28T08:54:39.609Z</time></trkpt><trkpt lat="45.4989278" lon="10.4995636"><ele>122.0</ele><time>2026-03-28T08:54:40.612Z</time></trkpt><trkpt lat="45.4987096" lon="10.4994679"><ele>125.0</ele><time>2026-03-28T08:54:41.61Z</time></trkpt><trkpt lat="45.4984906" lon="10.4993589"><ele>125.0</ele><time>2026-03-28T08:54:42.616Z</time></trkpt><trkpt lat="45.4983049" lon="10.4992594"><ele>125.0</ele><time>2026-03-28T08:54:43.61Z</time></trkpt><trkpt lat="45.4981398" lon="10.4991908"><ele>125.0</ele><time>2026-03-28T08:54:44.617Z</time></trkpt><trkpt lat="45.4979614" lon="10.4990901"><ele>125.66666666666666</ele><time>2026-03-28T08:54:45.612Z</time></trkpt><trkpt lat="45.497792" lon="10.4989709"><ele>126.33333333333334</ele><time>2026-03-28T08:54:46.612Z</time></trkpt><trkpt lat="45.4976405" lon="10.4988216"><ele>127.0</ele><time>2026-03-28T08:54:47.612Z</time></trkpt><trkpt lat="45.4974976" lon="10.4986632"><ele>127.0</ele><time>2026-03-28T08:54:48.614Z</time></trkpt><trkpt lat="45.4973676" lon="10.4984775"><ele>127.0</ele><time>2026-03-28T08:54:49.606Z</time></trkpt><trkpt lat="45.4972578" lon="10.4982681"><ele>127.0</ele><time>2026-03-28T08:54:50.62Z</time></trkpt><trkpt lat="45.4971485" lon="10.49804"><ele>126.66666666666667</ele><time>2026-03-28T08:54:51.619Z</time></trkpt><trkpt lat="45.4970163" lon="10.4977998"><ele>126.33333333333334</ele><time>2026-03-28T08:54:52.613Z</time></trkpt><trkpt lat="45.4969427" lon="10.4975736"><ele>126.0</ele><time>2026-03-28T08:54:53.699Z</time></trkpt><trkpt lat="45.4968685" lon="10.4973556"><ele>126.0</ele><time>2026-03-28T08:54:54.619Z</time></trkpt><trkpt lat="45.4968028" lon="10.4971524"><ele>126.0</ele><time>2026-03-28T08:54:55.624Z</time></trkpt><trkpt lat="45.4967156" lon="10.4969865"><ele>126.0</ele><time>2026-03-28T08:54:56.613Z</time></trkpt><trkpt lat="45.4966002" lon="10.4968661"><ele>126.0</ele><time>2026-03-28T08:54:57.622Z</time></trkpt><trkpt lat="45.4964814" lon="10.4967453"><ele>127.33333333333334</ele><time>2026-03-28T08:54:58.617Z</time></trkpt><trkpt lat="45.4963433" lon="10.4966536"><ele>128.66666666666669</ele><time>2026-03-28T08:54:59.612Z</time></trkpt><trkpt lat="45.4962091" lon="10.496566"><ele>130.0</ele><time>2026-03-28T08:55:00.606Z</time></trkpt><trkpt lat="45.4960563" lon="10.4964875"><ele>130.0</ele><time>2026-03-28T08:55:01.616Z</time></trkpt><trkpt lat="45.4958936" lon="10.4963895"><ele>130.0</ele><time>2026-03-28T08:55:02.616Z</time></trkpt><trkpt lat="45.4957226" lon="10.4962838"><ele>130.0</ele><time>2026-03-28T08:55:03.608Z</time></trkpt><trkpt lat="45.4955404" lon="10.496187"><ele>134.66666666666669</ele><time>2026-03-28T08:55:04.611Z</time></trkpt><trkpt lat="45.4953503" lon="10.4960606"><ele>139.33333333333334</ele><time>2026-03-28T08:55:05.617Z</time></trkpt><trkpt lat="45.4951601" lon="10.4959528"><ele>144.0</ele><time>2026-03-28T08:55:06.617Z</time></trkpt><trkpt lat="45.4949715" lon="10.4958689"><ele>144.0</ele><time>2026-03-28T08:55:07.613Z</time></trkpt><trkpt lat="45.4947961" lon="10.4957603"><ele>144.0</ele><time>2026-03-28T08:55:08.616Z</time></trkpt><trkpt lat="45.4946262" lon="10.4956929"><ele>144.0</ele><time>2026-03-28T08:55:09.609Z</time></trkpt><trkpt lat="45.4944931" lon="10.4956125"><ele>142.5</ele><time>2026-03-28T08:55:10.61Z</time></trkpt><trkpt lat="45.4943624" lon="10.4955471"><ele>141.0</ele><time>2026-03-28T08:55:11.708Z</time></trkpt><trkpt lat="45.4942284" lon="10.4954793"><ele>139.5</ele><time>2026-03-28T08:55:12.618Z</time></trkpt><trkpt lat="45.4941153" lon="10.4953896"><ele>138.0</ele><time>2026-03-28T08:55:13.618Z</time></trkpt><trkpt lat="45.4940211" lon="10.4953081"><ele>139.5</ele><time>2026-03-28T08:55:14.62Z</time></trkpt><trkpt lat="45.4939155" lon="10.4952064"><ele>141.0</ele><time>2026-03-28T08:55:15.619Z</time></trkpt><trkpt lat="45.493816" lon="10.4951"><ele>142.5</ele><time>2026-03-28T08:55:16.621Z</time></trkpt><trkpt lat="45.4937035" lon="10.4949966"><ele>144.0</ele><time>2026-03-28T08:55:17.62Z</time></trkpt><trkpt lat="45.4935877" lon="10.4949088"><ele>144.0</ele><time>2026-03-28T08:55:18.616Z</time></trkpt><trkpt lat="45.4934543" lon="10.4948434"><ele>144.0</ele><time>2026-03-28T08:55:19.616Z</time></trkpt><trkpt lat="45.4933078" lon="10.4947843"><ele>144.0</ele><time>2026-03-28T08:55:20.615Z</time></trkpt><trkpt lat="45.4931601" lon="10.4947392"><ele>144.0</ele><time>2026-03-28T08:55:21.616Z</time></trkpt><trkpt lat="45.4930175" lon="10.4947521"><ele>145.0</ele><time>2026-03-28T08:55:22.612Z</time></trkpt><trkpt lat="45.4928616" lon="10.4947602"><ele>146.0</ele><time>2026-03-28T08:55:23.615Z</time></trkpt><trkpt lat="45.4927068" lon="10.4947973"><ele>147.0</ele><time>2026-03-28T08:55:24.609Z</time></trkpt><trkpt lat="45.492549" lon="10.4948736"><ele>147.0</ele><time>2026-03-28T08:55:25.61Z</time></trkpt><trkpt lat="45.4923929" lon="10.4949649"><ele>147.0</ele><time>2026-03-28T08:55:26.613Z</time></trkpt><trkpt lat="45.4922128" lon="10.4951258"><ele>147.0</ele><time>2026-03-28T08:55:27.603Z</time></trkpt><trkpt lat="45.4920464" lon="10.4952868"><ele>146.66666666666666</ele><time>2026-03-28T08:55:28.61Z</time></trkpt><trkpt lat="45.4918961" lon="10.4954266"><ele>146.33333333333331</ele><time>2026-03-28T08:55:29.621Z</time></trkpt><trkpt lat="45.4917021" lon="10.4955134"><ele>146.0</ele><time>2026-03-28T08:55:30.611Z</time></trkpt><trkpt lat="45.4915291" lon="10.4955963"><ele>146.0</ele><time>2026-03-28T08:55:31.63Z</time></trkpt><trkpt lat="45.4913916" lon="10.4956859"><ele>146.0</ele><time>2026-03-28T08:55:32.616Z</time></trkpt><trkpt lat="45.4912409" lon="10.4957858"><ele>146.0</ele><time>2026-03-28T08:55:33.62Z</time></trkpt><trkpt lat="45.491109" lon="10.4958524"><ele>147.25</ele><time>2026-03-28T08:55:34.611Z</time></trkpt><trkpt lat="45.4909816" lon="10.4959259"><ele>148.5</ele><time>2026-03-28T08:55:35.623Z</time></trkpt><trkpt lat="45.4908598" lon="10.4959908"><ele>149.75</ele><time>2026-03-28T08:55:36.616Z</time></trkpt><trkpt lat="45.4907287" lon="10.4960418"><ele>151.0</ele><time>2026-03-28T08:55:37.613Z</time></trkpt><trkpt lat="45.4906149" lon="10.4960727"><ele>151.0</ele><time>2026-03-28T08:55:38.611Z</time></trkpt><trkpt lat="45.4905008" lon="10.4961175"><ele>151.0</ele><time>2026-03-28T08:55:39.617Z</time></trkpt><trkpt lat="45.4903855" lon="10.4961627"><ele>151.0</ele><time>2026-03-28T08:55:40.62Z</time></trkpt><trkpt lat="45.4902705" lon="10.496225"><ele>151.0</ele><time>2026-03-28T08:55:41.619Z</time></trkpt><trkpt lat="45.490157" lon="10.4963248"><ele>150.6</ele><time>2026-03-28T08:55:42.62Z</time></trkpt><trkpt lat="45.4900482" lon="10.4963921"><ele>150.2</ele><time>2026-03-28T08:55:43.614Z</time></trkpt><trkpt lat="45.4899494" lon="10.4964695"><ele>149.8</ele><time>2026-03-28T08:55:44.62Z</time></trkpt><trkpt lat="45.4898574" lon="10.4965449"><ele>149.4</ele><time>2026-03-28T08:55:45.622Z</time></trkpt><trkpt lat="45.4897734" lon="10.4966088"><ele>149.0</ele><time>2026-03-28T08:55:46.621Z</time></trkpt><trkpt lat="45.4896857" lon="10.4966755"><ele>149.2</ele><time>2026-03-28T08:55:47.616Z</time></trkpt><trkpt lat="45.4895834" lon="10.4967378"><ele>149.4</ele><time>2026-03-28T08:55:48.612Z</time></trkpt><trkpt lat="45.4894802" lon="10.4967857"><ele>149.6</ele><time>2026-03-28T08:55:49.624Z</time></trkpt><trkpt lat="45.489384" lon="10.496823"><ele>149.8</ele><time>2026-03-28T08:55:50.619Z</time></trkpt><trkpt lat="45.489288" lon="10.4968446"><ele>150.0</ele><time>2026-03-28T08:55:51.618Z</time></trkpt><trkpt lat="45.4891902" lon="10.4968514"><ele>150.0</ele><time>2026-03-28T08:55:52.62Z</time></trkpt><trkpt lat="45.4890914" lon="10.496843"><ele>150.0</ele><time>2026-03-28T08:55:53.626Z</time></trkpt><trkpt lat="45.4889967" lon="10.4968349"><ele>150.0</ele><time>2026-03-28T08:55:54.621Z</time></trkpt><trkpt lat="45.4889096" lon="10.4968306"><ele>150.0</ele><time>2026-03-28T08:55:55.622Z</time></trkpt><trkpt lat="45.4888278" lon="10.4968248"><ele>150.0</ele><time>2026-03-28T08:55:56.625Z</time></trkpt><trkpt lat="45.4887365" lon="10.4968146"><ele>150.66666666666666</ele><time>2026-03-28T08:55:57.622Z</time></trkpt><trkpt lat="45.4886419" lon="10.4968008"><ele>151.33333333333334</ele><time>2026-03-28T08:55:58.624Z</time></trkpt><trkpt lat="45.488552" lon="10.4967908"><ele>152.0</ele><time>2026-03-28T08:55:59.616Z</time></trkpt><trkpt lat="45.4884705" lon="10.4967782"><ele>152.66666666666669</ele><time>2026-03-28T08:56:00.616Z</time></trkpt><trkpt lat="45.4883897" lon="10.4967747"><ele>153.33333333333334</ele><time>2026-03-28T08:56:01.616Z</time></trkpt><trkpt lat="45.4883106" lon="10.4967696"><ele>154.0</ele><time>2026-03-28T08:56:02.613Z</time></trkpt><trkpt lat="45.488224" lon="10.4967642"><ele>154.0</ele><time>2026-03-28T08:56:03.622Z</time></trkpt><trkpt lat="45.4881259" lon="10.4967567"><ele>154.0</ele><time>2026-03-28T08:56:04.619Z</time></trkpt><trkpt lat="45.488013" lon="10.496748"><ele>154.0</ele><time>2026-03-28T08:56:05.616Z</time></trkpt><trkpt lat="45.4878982" lon="10.4967344"><ele>154.0</ele><time>2026-03-28T08:56:06.618Z</time></trkpt><trkpt lat="45.4877962" lon="10.4967242"><ele>154.0</ele><time>2026-03-28T08:56:07.618Z</time></trkpt><trkpt lat="45.4876894" lon="10.4967104"><ele>154.5</ele><time>2026-03-28T08:56:08.615Z</time></trkpt><trkpt lat="45.487577" lon="10.4966954"><ele>155.0</ele><time>2026-03-28T08:56:09.613Z</time></trkpt><trkpt lat="45.48746" lon="10.4966864"><ele>155.5</ele><time>2026-03-28T08:56:10.615Z</time></trkpt><trkpt lat="45.4873338" lon="10.4966765"><ele>156.0</ele><time>2026-03-28T08:56:11.606Z</time></trkpt><trkpt lat="45.487205" lon="10.4966655"><ele>156.5</ele><time>2026-03-28T08:56:12.62Z</time></trkpt><trkpt lat="45.4870818" lon="10.4966626"><ele>157.0</ele><time>2026-03-28T08:56:13.618Z</time></trkpt><trkpt lat="45.486956" lon="10.4966513"><ele>157.5</ele><time>2026-03-28T08:56:14.615Z</time></trkpt><trkpt lat="45.4868267" lon="10.4966347"><ele>158.0</ele><time>2026-03-28T08:56:15.612Z</time></trkpt><trkpt lat="45.4866963" lon="10.4966199"><ele>158.0</ele><time>2026-03-28T08:56:16.61Z</time></trkpt><trkpt lat="45.4865671" lon="10.4966009"><ele>158.0</ele><time>2026-03-28T08:56:17.618Z</time></trkpt><trkpt lat="45.4864375" lon="10.4965878"><ele>158.0</ele><time>2026-03-28T08:56:18.612Z</time></trkpt><trkpt lat="45.4863041" lon="10.4965773"><ele>158.0</ele><time>2026-03-28T08:56:19.618Z</time></trkpt><trkpt lat="45.4861846" lon="10.4965799"><ele>157.25</ele><time>2026-03-28T08:56:20.615Z</time></trkpt><trkpt lat="45.4860654" lon="10.4965841"><ele>156.5</ele><time>2026-03-28T08:56:21.618Z</time></trkpt><trkpt lat="45.4859492" lon="10.4965881"><ele>155.75</ele><time>2026-03-28T08:56:22.624Z</time></trkpt><trkpt lat="45.4858242" lon="10.4965915"><ele>155.0</ele><time>2026-03-28T08:56:23.613Z</time></trkpt><trkpt lat="45.485697" lon="10.4965962"><ele>155.0</ele><time>2026-03-28T08:56:24.623Z</time></trkpt><trkpt lat="45.4855709" lon="10.4966052"><ele>155.0</ele><time>2026-03-28T08:56:25.614Z</time></trkpt><trkpt lat="45.4854452" lon="10.496609"><ele>155.0</ele><time>2026-03-28T08:56:26.612Z</time></trkpt><trkpt lat="45.4853214" lon="10.4966078"><ele>155.0</ele><time>2026-03-28T08:56:27.614Z</time></trkpt><trkpt lat="45.4852046" lon="10.4966158"><ele>155.0</ele><time>2026-03-28T08:56:28.621Z</time></trkpt><trkpt lat="45.4850786" lon="10.4966167"><ele>155.0</ele><time>2026-03-28T08:56:29.613Z</time></trkpt><trkpt lat="45.4849525" lon="10.4966154"><ele>155.0</ele><time>2026-03-28T08:56:30.625Z</time></trkpt><trkpt lat="45.4848223" lon="10.4966144"><ele>155.0</ele><time>2026-03-28T08:56:31.622Z</time></trkpt><trkpt lat="45.4846848" lon="10.4966109"><ele>154.33333333333331</ele><time>2026-03-28T08:56:32.611Z</time></trkpt><trkpt lat="45.4845373" lon="10.4966346"><ele>153.66666666666666</ele><time>2026-03-28T08:56:33.609Z</time></trkpt><trkpt lat="45.4843792" lon="10.4966704"><ele>153.0</ele><time>2026-03-28T08:56:34.613Z</time></trkpt><trkpt lat="45.4842137" lon="10.4966568"><ele>153.0</ele><time>2026-03-28T08:56:35.62Z</time></trkpt><trkpt lat="45.4840504" lon="10.496628"><ele>153.0</ele><time>2026-03-28T08:56:36.617Z</time></trkpt><trkpt lat="45.4838958" lon="10.4966071"><ele>153.0</ele><time>2026-03-28T08:56:37.616Z</time></trkpt><trkpt lat="45.4837517" lon="10.4965983"><ele>153.0</ele><time>2026-03-28T08:56:38.619Z</time></trkpt><trkpt lat="45.4836073" lon="10.4965698"><ele>153.0</ele><time>2026-03-28T08:56:39.625Z</time></trkpt><trkpt lat="45.4834571" lon="10.4965198"><ele>153.0</ele><time>2026-03-28T08:56:40.611Z</time></trkpt><trkpt lat="45.4832995" lon="10.4964951"><ele>153.0</ele><time>2026-03-28T08:56:41.62Z</time></trkpt><trkpt lat="45.4831603" lon="10.4964973"><ele>153.0</ele><time>2026-03-28T08:56:42.62Z</time></trkpt><trkpt lat="45.4830258" lon="10.4964619"><ele>153.0</ele><time>2026-03-28T08:56:43.618Z</time></trkpt><trkpt lat="45.4828807" lon="10.4964384"><ele>153.0</ele><time>2026-03-28T08:56:44.608Z</time></trkpt><trkpt lat="45.4827376" lon="10.4964011"><ele>152.5</ele><time>2026-03-28T08:56:45.623Z</time></trkpt><trkpt lat="45.482606" lon="10.4963539"><ele>152.0</ele><time>2026-03-28T08:56:46.617Z</time></trkpt><trkpt lat="45.4824746" lon="10.4962898"><ele>151.5</ele><time>2026-03-28T08:56:47.619Z</time></trkpt><trkpt lat="45.4823399" lon="10.4962332"><ele>151.0</ele><time>2026-03-28T08:56:48.615Z</time></trkpt><trkpt lat="45.4822067" lon="10.4961821"><ele>152.25</ele><time>2026-03-28T08:56:49.617Z</time></trkpt><trkpt lat="45.482076" lon="10.4961226"><ele>153.5</ele><time>2026-03-28T08:56:50.616Z</time></trkpt><trkpt lat="45.4819464" lon="10.4960756"><ele>154.75</ele><time>2026-03-28T08:56:51.619Z</time></trkpt><trkpt lat="45.4818155" lon="10.4960144"><ele>156.0</ele><time>2026-03-28T08:56:52.625Z</time></trkpt><trkpt lat="45.4816952" lon="10.4959686"><ele>156.0</ele><time>2026-03-28T08:56:53.612Z</time></trkpt><trkpt lat="45.4815723" lon="10.4959229"><ele>156.0</ele><time>2026-03-28T08:56:54.617Z</time></trkpt><trkpt lat="45.4814333" lon="10.4958667"><ele>156.0</ele><time>2026-03-28T08:56:55.62Z</time></trkpt><trkpt lat="45.4813011" lon="10.4958081"><ele>156.0</ele><time>2026-03-28T08:56:56.617Z</time></trkpt><trkpt lat="45.4811506" lon="10.4957478"><ele>155.0</ele><time>2026-03-28T08:56:57.623Z</time></trkpt><trkpt lat="45.4810091" lon="10.4956938"><ele>154.0</ele><time>2026-03-28T08:56:58.62Z</time></trkpt><trkpt lat="45.4808748" lon="10.4956596"><ele>153.0</ele><time>2026-03-28T08:56:59.627Z</time></trkpt><trkpt lat="45.4807447" lon="10.495604"><ele>152.0</ele><time>2026-03-28T08:57:00.627Z</time></trkpt><trkpt lat="45.4806026" lon="10.4955548"><ele>152.0</ele><time>2026-03-28T08:57:01.627Z</time></trkpt><trkpt lat="45.4804603" lon="10.4954893"><ele>152.0</ele><time>2026-03-28T08:57:02.628Z</time></trkpt><trkpt lat="45.4803163" lon="10.4954408"><ele>152.0</ele><time>2026-03-28T08:57:03.613Z</time></trkpt><trkpt lat="45.4801742" lon="10.4953752"><ele>152.0</ele><time>2026-03-28T08:57:04.625Z</time></trkpt><trkpt lat="45.4800269" lon="10.4953098"><ele>152.33333333333331</ele><time>2026-03-28T08:57:05.621Z</time></trkpt><trkpt lat="45.4798667" lon="10.4952424"><ele>152.66666666666666</ele><time>2026-03-28T08:57:06.622Z</time></trkpt><trkpt lat="45.4796955" lon="10.4951786"><ele>153.0</ele><time>2026-03-28T08:57:07.625Z</time></trkpt><trkpt lat="45.4795087" lon="10.495113"><ele>153.0</ele><time>2026-03-28T08:57:08.625Z</time></trkpt><trkpt lat="45.4793248" lon="10.4950564"><ele>153.0</ele><time>2026-03-28T08:57:09.622Z</time></trkpt><trkpt lat="45.47915" lon="10.4949794"><ele>153.0</ele><time>2026-03-28T08:57:10.624Z</time></trkpt><trkpt lat="45.4789811" lon="10.4948939"><ele>153.0</ele><time>2026-03-28T08:57:11.62Z</time></trkpt><trkpt lat="45.4788129" lon="10.4948368"><ele>153.0</ele><time>2026-03-28T08:57:12.614Z</time></trkpt><trkpt lat="45.4786653" lon="10.4947588"><ele>153.0</ele><time>2026-03-28T08:57:13.623Z</time></trkpt><trkpt lat="45.4785183" lon="10.4947029"><ele>154.33333333333334</ele><time>2026-03-28T08:57:14.616Z</time></trkpt><trkpt lat="45.4783609" lon="10.4946386"><ele>155.66666666666669</ele><time>2026-03-28T08:57:15.625Z</time></trkpt><trkpt lat="45.4782019" lon="10.4945629"><ele>157.0</ele><time>2026-03-28T08:57:16.632Z</time></trkpt><trkpt lat="45.4780496" lon="10.4945208"><ele>155.33333333333334</ele><time>2026-03-28T08:57:17.625Z</time></trkpt><trkpt lat="45.4779028" lon="10.4944529"><ele>153.66666666666666</ele><time>2026-03-28T08:57:18.633Z</time></trkpt><trkpt lat="45.4777374" lon="10.4943778"><ele>152.0</ele><time>2026-03-28T08:57:19.625Z</time></trkpt><trkpt lat="45.4775827" lon="10.4943532"><ele>152.0</ele><time>2026-03-28T08:57:20.627Z</time></trkpt><trkpt lat="45.477442" lon="10.4942839"><ele>152.0</ele><time>2026-03-28T08:57:21.624Z</time></trkpt><trkpt lat="45.4773069" lon="10.4942196"><ele>152.0</ele><time>2026-03-28T08:57:22.627Z</time></trkpt><trkpt lat="45.4771689" lon="10.4941697"><ele>152.0</ele><time>2026-03-28T08:57:23.625Z</time></trkpt><trkpt lat="45.4770209" lon="10.4941183"><ele>152.0</ele><time>2026-03-28T08:57:24.624Z</time></trkpt><trkpt lat="45.4768585" lon="10.4940752"><ele>152.0</ele><time>2026-03-28T08:57:25.618Z</time></trkpt><trkpt lat="45.4766922" lon="10.4939899"><ele>152.0</ele><time>2026-03-28T08:57:26.615Z</time></trkpt><trkpt lat="45.4765239" lon="10.4938837"><ele>152.0</ele><time>2026-03-28T08:57:27.613Z</time></trkpt><trkpt lat="45.476358" lon="10.4937983"><ele>152.0</ele><time>2026-03-28T08:57:28.625Z</time></trkpt><trkpt lat="45.4761932" lon="10.4937008"><ele>152.0</ele><time>2026-03-28T08:57:29.615Z</time></trkpt><trkpt lat="45.4760418" lon="10.4935886"><ele>151.33333333333331</ele><time>2026-03-28T08:57:30.631Z</time></trkpt><trkpt lat="45.4758987" lon="10.4934818"><ele>150.66666666666666</ele><time>2026-03-28T08:57:31.634Z</time></trkpt><trkpt lat="45.4757628" lon="10.4933762"><ele>150.0</ele><time>2026-03-28T08:57:32.628Z</time></trkpt><trkpt lat="45.4756219" lon="10.493279"><ele>150.0</ele><time>2026-03-28T08:57:33.618Z</time></trkpt><trkpt lat="45.4754735" lon="10.4932006"><ele>150.0</ele><time>2026-03-28T08:57:34.626Z</time></trkpt><trkpt lat="45.4753083" lon="10.493082"><ele>150.0</ele><time>2026-03-28T08:57:35.619Z</time></trkpt><trkpt lat="45.4751563" lon="10.4929724"><ele>151.0</ele><time>2026-03-28T08:57:36.612Z</time></trkpt><trkpt lat="45.4750054" lon="10.4928837"><ele>152.0</ele><time>2026-03-28T08:57:37.623Z</time></trkpt><trkpt lat="45.4748636" lon="10.4927601"><ele>153.0</ele><time>2026-03-28T08:57:38.624Z</time></trkpt><trkpt lat="45.4747252" lon="10.4926605"><ele>153.0</ele><time>2026-03-28T08:57:39.625Z</time></trkpt><trkpt lat="45.4745921" lon="10.4925628"><ele>153.0</ele><time>2026-03-28T08:57:40.621Z</time></trkpt><trkpt lat="45.4744488" lon="10.4924605"><ele>153.0</ele><time>2026-03-28T08:57:41.626Z</time></trkpt><trkpt lat="45.4743078" lon="10.4923803"><ele>153.0</ele><time>2026-03-28T08:57:42.622Z</time></trkpt><trkpt lat="45.4741634" lon="10.4922939"><ele>153.0</ele><time>2026-03-28T08:57:43.628Z</time></trkpt><trkpt lat="45.4740207" lon="10.4922354"><ele>153.0</ele><time>2026-03-28T08:57:44.62Z</time></trkpt><trkpt lat="45.4738742" lon="10.4921357"><ele>153.33333333333334</ele><time>2026-03-28T08:57:45.622Z</time></trkpt><trkpt lat="45.4737148" lon="10.4920776"><ele>153.66666666666669</ele><time>2026-03-28T08:57:46.612Z</time></trkpt><trkpt lat="45.4735643" lon="10.4920273"><ele>154.0</ele><time>2026-03-28T08:57:47.616Z</time></trkpt><trkpt lat="45.4734261" lon="10.4919711"><ele>154.0</ele><time>2026-03-28T08:57:48.609Z</time></trkpt><trkpt lat="45.4732786" lon="10.4919179"><ele>154.0</ele><time>2026-03-28T08:57:49.623Z</time></trkpt><trkpt lat="45.4731422" lon="10.4918758"><ele>154.0</ele><time>2026-03-28T08:57:50.606Z</time></trkpt><trkpt lat="45.4730327" lon="10.4918437"><ele>154.0</ele><time>2026-03-28T08:57:51.62Z</time></trkpt><trkpt lat="45.4729082" lon="10.4917821"><ele>153.5</ele><time>2026-03-28T08:57:52.61Z</time></trkpt><trkpt lat="45.4727796" lon="10.4917424"><ele>153.0</ele><time>2026-03-28T08:57:53.703Z</time></trkpt><trkpt lat="45.4726686" lon="10.4916788"><ele>152.5</ele><time>2026-03-28T08:57:54.613Z</time></trkpt><trkpt lat="45.4725464" lon="10.4916449"><ele>152.0</ele><time>2026-03-28T08:57:55.61Z</time></trkpt><trkpt lat="45.4724105" lon="10.491608"><ele>152.0</ele><time>2026-03-28T08:57:56.621Z</time></trkpt><trkpt lat="45.4722816" lon="10.4915526"><ele>152.0</ele><time>2026-03-28T08:57:57.618Z</time></trkpt><trkpt lat="45.4721521" lon="10.4914725"><ele>152.0</ele><time>2026-03-28T08:57:58.625Z</time></trkpt><trkpt lat="45.4720282" lon="10.4914273"><ele>152.0</ele><time>2026-03-28T08:57:59.617Z</time></trkpt><trkpt lat="45.4719034" lon="10.4913856"><ele>152.0</ele><time>2026-03-28T08:58:00.62Z</time></trkpt><trkpt lat="45.4717815" lon="10.4913155"><ele>152.0</ele><time>2026-03-28T08:58:01.624Z</time></trkpt><trkpt lat="45.4716622" lon="10.4912557"><ele>152.0</ele><time>2026-03-28T08:58:02.626Z</time></trkpt><trkpt lat="45.4715741" lon="10.4912017"><ele>152.0</ele><time>2026-03-28T08:58:03.624Z</time></trkpt><trkpt lat="45.4714815" lon="10.4911447"><ele>152.4</ele><time>2026-03-28T08:58:04.624Z</time></trkpt><trkpt lat="45.4714009" lon="10.4911097"><ele>152.79999999999998</ele><time>2026-03-28T08:58:05.626Z</time></trkpt><trkpt lat="45.4713375" lon="10.4910776"><ele>153.2</ele><time>2026-03-28T08:58:06.627Z</time></trkpt><trkpt lat="45.4712458" lon="10.4909994"><ele>153.6</ele><time>2026-03-28T08:58:08.63Z</time></trkpt><trkpt lat="45.4711629" lon="10.4909236"><ele>154.0</ele><time>2026-03-28T08:58:10.628Z</time></trkpt><trkpt lat="45.4710758" lon="10.4908776"><ele>154.5</ele><time>2026-03-28T08:58:12.628Z</time></trkpt><trkpt lat="45.4709537" lon="10.4908203"><ele>155.0</ele><time>2026-03-28T08:58:14.621Z</time></trkpt><trkpt lat="45.4708597" lon="10.4907757"><ele>155.5</ele><time>2026-03-28T08:58:15.622Z</time></trkpt><trkpt lat="45.4707451" lon="10.4907208"><ele>156.0</ele><time>2026-03-28T08:58:16.623Z</time></trkpt><trkpt lat="45.4706109" lon="10.4906595"><ele>156.0</ele><time>2026-03-28T08:58:17.625Z</time></trkpt><trkpt lat="45.4704603" lon="10.4905925"><ele>156.0</ele><time>2026-03-28T08:58:18.623Z</time></trkpt><trkpt lat="45.4702805" lon="10.4905246"><ele>156.0</ele><time>2026-03-28T08:58:19.629Z</time></trkpt><trkpt lat="45.4701" lon="10.4904228"><ele>157.0</ele><time>2026-03-28T08:58:20.623Z</time></trkpt><trkpt lat="45.4699118" lon="10.4903484"><ele>158.0</ele><time>2026-03-28T08:58:21.621Z</time></trkpt><trkpt lat="45.4697174" lon="10.4902655"><ele>159.0</ele><time>2026-03-28T08:58:22.628Z</time></trkpt><trkpt lat="45.4695284" lon="10.4901872"><ele>159.66666666666666</ele><time>2026-03-28T08:58:23.62Z</time></trkpt><trkpt lat="45.4693416" lon="10.4901039"><ele>160.33333333333331</ele><time>2026-03-28T08:58:24.62Z</time></trkpt><trkpt lat="45.4691789" lon="10.4900393"><ele>161.0</ele><time>2026-03-28T08:58:25.622Z</time></trkpt><trkpt lat="45.4690123" lon="10.4899629"><ele>161.0</ele><time>2026-03-28T08:58:26.619Z</time></trkpt><trkpt lat="45.468845" lon="10.4898778"><ele>161.0</ele><time>2026-03-28T08:58:27.619Z</time></trkpt><trkpt lat="45.4686659" lon="10.4898422"><ele>161.0</ele><time>2026-03-28T08:58:28.625Z</time></trkpt><trkpt lat="45.4685005" lon="10.4897644"><ele>162.33333333333331</ele><time>2026-03-28T08:58:29.621Z</time></trkpt><trkpt lat="45.4683365" lon="10.4896621"><ele>163.66666666666666</ele><time>2026-03-28T08:58:30.62Z</time></trkpt><trkpt lat="45.4681686" lon="10.4895821"><ele>165.0</ele><time>2026-03-28T08:58:31.626Z</time></trkpt><trkpt lat="45.4680029" lon="10.4895142"><ele>166.0</ele><time>2026-03-28T08:58:32.616Z</time></trkpt><trkpt lat="45.4678499" lon="10.4894633"><ele>167.0</ele><time>2026-03-28T08:58:33.612Z</time></trkpt><trkpt lat="45.4676886" lon="10.4894119"><ele>168.0</ele><time>2026-03-28T08:58:34.614Z</time></trkpt><trkpt lat="45.4675051" lon="10.4893633"><ele>168.0</ele><time>2026-03-28T08:58:35.611Z</time></trkpt><trkpt lat="45.4673018" lon="10.489278"><ele>168.0</ele><time>2026-03-28T08:58:36.609Z</time></trkpt><trkpt lat="45.4671166" lon="10.489226"><ele>168.0</ele><time>2026-03-28T08:58:37.615Z</time></trkpt><trkpt lat="45.4669219" lon="10.489165"><ele>167.33333333333334</ele><time>2026-03-28T08:58:38.605Z</time></trkpt><trkpt lat="45.4667078" lon="10.4891194"><ele>166.66666666666669</ele><time>2026-03-28T08:58:39.608Z</time></trkpt><trkpt lat="45.4664959" lon="10.4890768"><ele>166.0</ele><time>2026-03-28T08:58:40.616Z</time></trkpt><trkpt lat="45.4662981" lon="10.4890184"><ele>163.66666666666669</ele><time>2026-03-28T08:58:41.608Z</time></trkpt><trkpt lat="45.4660994" lon="10.4889826"><ele>161.33333333333334</ele><time>2026-03-28T08:58:42.609Z</time></trkpt><trkpt lat="45.4659092" lon="10.4889323"><ele>159.0</ele><time>2026-03-28T08:58:43.609Z</time></trkpt><trkpt lat="45.4657467" lon="10.4889105"><ele>159.0</ele><time>2026-03-28T08:58:44.607Z</time></trkpt><trkpt lat="45.4655848" lon="10.4888762"><ele>159.0</ele><time>2026-03-28T08:58:45.609Z</time></trkpt><trkpt lat="45.4654369" lon="10.4888455"><ele>159.0</ele><time>2026-03-28T08:58:46.616Z</time></trkpt><trkpt lat="45.465275" lon="10.4888257"><ele>161.0</ele><time>2026-03-28T08:58:47.619Z</time></trkpt><trkpt lat="45.4651301" lon="10.4888144"><ele>163.0</ele><time>2026-03-28T08:58:48.613Z</time></trkpt><trkpt lat="45.4649587" lon="10.4888061"><ele>165.0</ele><time>2026-03-28T08:58:49.622Z</time></trkpt><trkpt lat="45.4647883" lon="10.4888231"><ele>166.0</ele><time>2026-03-28T08:58:50.606Z</time></trkpt><trkpt lat="45.464607" lon="10.4888741"><ele>167.0</ele><time>2026-03-28T08:58:51.623Z</time></trkpt><trkpt lat="45.4644487" lon="10.4889724"><ele>168.0</ele><time>2026-03-28T08:58:52.619Z</time></trkpt><trkpt lat="45.4642913" lon="10.4890768"><ele>168.0</ele><time>2026-03-28T08:58:53.625Z</time></trkpt><trkpt lat="45.4641177" lon="10.4891464"><ele>168.0</ele><time>2026-03-28T08:58:54.618Z</time></trkpt><trkpt lat="45.4639665" lon="10.489245"><ele>168.0</ele><time>2026-03-28T08:58:55.621Z</time></trkpt><trkpt lat="45.4638184" lon="10.489343"><ele>168.0</ele><time>2026-03-28T08:58:56.618Z</time></trkpt><trkpt lat="45.463684" lon="10.4894221"><ele>168.0</ele><time>2026-03-28T08:58:57.618Z</time></trkpt><trkpt lat="45.463561" lon="10.4895089"><ele>168.0</ele><time>2026-03-28T08:58:58.616Z</time></trkpt><trkpt lat="45.4634407" lon="10.48959"><ele>168.0</ele><time>2026-03-28T08:58:59.618Z</time></trkpt><trkpt lat="45.4633173" lon="10.4896715"><ele>168.0</ele><time>2026-03-28T08:59:00.628Z</time></trkpt><trkpt lat="45.463196" lon="10.4897443"><ele>168.0</ele><time>2026-03-28T08:59:01.626Z</time></trkpt><trkpt lat="45.4630845" lon="10.4898207"><ele>168.0</ele><time>2026-03-28T08:59:02.62Z</time></trkpt><trkpt lat="45.4629683" lon="10.4899067"><ele>168.0</ele><time>2026-03-28T08:59:03.625Z</time></trkpt><trkpt lat="45.4628552" lon="10.48999"><ele>168.25</ele><time>2026-03-28T08:59:04.624Z</time></trkpt><trkpt lat="45.4627469" lon="10.4900647"><ele>168.5</ele><time>2026-03-28T08:59:05.623Z</time></trkpt><trkpt lat="45.4626421" lon="10.4901292"><ele>168.75</ele><time>2026-03-28T08:59:06.621Z</time></trkpt><trkpt lat="45.4625357" lon="10.4901844"><ele>169.0</ele><time>2026-03-28T08:59:07.608Z</time></trkpt><trkpt lat="45.4624256" lon="10.490217"><ele>169.0</ele><time>2026-03-28T08:59:08.614Z</time></trkpt><trkpt lat="45.4623126" lon="10.4902196"><ele>169.0</ele><time>2026-03-28T08:59:09.613Z</time></trkpt><trkpt lat="45.4621939" lon="10.4901817"><ele>169.0</ele><time>2026-03-28T08:59:10.608Z</time></trkpt><trkpt lat="45.4620847" lon="10.4901242"><ele>169.0</ele><time>2026-03-28T08:59:11.612Z</time></trkpt><trkpt lat="45.4619905" lon="10.4900416"><ele>168.79999999999998</ele><time>2026-03-28T08:59:12.613Z</time></trkpt><trkpt lat="45.4618736" lon="10.4898871"><ele>168.6</ele><time>2026-03-28T08:59:14.617Z</time></trkpt><trkpt lat="45.4618221" lon="10.4898195"><ele>168.4</ele><time>2026-03-28T08:59:15.617Z</time></trkpt><trkpt lat="45.4617687" lon="10.4897437"><ele>168.2</ele><time>2026-03-28T08:59:16.612Z</time></trkpt><trkpt lat="45.4617124" lon="10.4896546"><ele>168.0</ele><time>2026-03-28T08:59:17.615Z</time></trkpt><trkpt lat="45.4616667" lon="10.4895345"><ele>168.0</ele><time>2026-03-28T08:59:18.617Z</time></trkpt><trkpt lat="45.4616208" lon="10.4894068"><ele>168.0</ele><time>2026-03-28T08:59:19.623Z</time></trkpt><trkpt lat="45.4615748" lon="10.4892824"><ele>168.0</ele><time>2026-03-28T08:59:20.616Z</time></trkpt><trkpt lat="45.4615202" lon="10.4891802"><ele>168.0</ele><time>2026-03-28T08:59:21.621Z</time></trkpt><trkpt lat="45.4614504" lon="10.4891376"><ele>168.0</ele><time>2026-03-28T08:59:22.62Z</time></trkpt><trkpt lat="45.4613681" lon="10.4891492"><ele>168.0</ele><time>2026-03-28T08:59:23.613Z</time></trkpt><trkpt lat="45.4613001" lon="10.4892097"><ele>167.16666666666666</ele><time>2026-03-28T08:59:24.615Z</time></trkpt><trkpt lat="45.4612465" lon="10.4893156"><ele>166.33333333333334</ele><time>2026-03-28T08:59:25.62Z</time></trkpt><trkpt lat="45.4612204" lon="10.4894462"><ele>165.5</ele><time>2026-03-28T08:59:26.615Z</time></trkpt><trkpt lat="45.4612259" lon="10.4895839"><ele>164.66666666666669</ele><time>2026-03-28T08:59:27.619Z</time></trkpt><trkpt lat="45.4612376" lon="10.4897114"><ele>163.83333333333334</ele><time>2026-03-28T08:59:28.617Z</time></trkpt><trkpt lat="45.4612385" lon="10.4898185"><ele>163.0</ele><time>2026-03-28T08:59:29.614Z</time></trkpt><trkpt lat="45.4612269" lon="10.4899281"><ele>163.16666666666669</ele><time>2026-03-28T08:59:30.616Z</time></trkpt><trkpt lat="45.4611959" lon="10.4900312"><ele>163.33333333333334</ele><time>2026-03-28T08:59:31.618Z</time></trkpt><trkpt lat="45.4611447" lon="10.4901258"><ele>163.5</ele><time>2026-03-28T08:59:32.614Z</time></trkpt><trkpt lat="45.4610926" lon="10.490216"><ele>163.66666666666666</ele><time>2026-03-28T08:59:33.614Z</time></trkpt><trkpt lat="45.4610423" lon="10.4903084"><ele>163.83333333333331</ele><time>2026-03-28T08:59:34.611Z</time></trkpt><trkpt lat="45.4609968" lon="10.4903835"><ele>164.0</ele><time>2026-03-28T08:59:35.614Z</time></trkpt><trkpt lat="45.4609134" lon="10.4904686"><ele>164.0</ele><time>2026-03-28T08:59:37.618Z</time></trkpt><trkpt lat="45.4607955" lon="10.4905042"><ele>164.0</ele><time>2026-03-28T08:59:39.616Z</time></trkpt><trkpt lat="45.4607121" lon="10.4904851"><ele>164.0</ele><time>2026-03-28T08:59:40.62Z</time></trkpt><trkpt lat="45.4606232" lon="10.4904396"><ele>164.0</ele><time>2026-03-28T08:59:41.611Z</time></trkpt><trkpt lat="45.4605445" lon="10.4903633"><ele>164.0</ele><time>2026-03-28T08:59:42.626Z</time></trkpt><trkpt lat="45.460477" lon="10.4902638"><ele>164.16666666666666</ele><time>2026-03-28T08:59:43.617Z</time></trkpt><trkpt lat="45.4604286" lon="10.4901488"><ele>164.33333333333331</ele><time>2026-03-28T08:59:44.616Z</time></trkpt><trkpt lat="45.4603825" lon="10.4900559"><ele>164.5</ele><time>2026-03-28T08:59:45.616Z</time></trkpt><trkpt lat="45.4603342" lon="10.4899641"><ele>164.66666666666666</ele><time>2026-03-28T08:59:46.613Z</time></trkpt><trkpt lat="45.4602879" lon="10.4898825"><ele>164.83333333333334</ele><time>2026-03-28T08:59:47.615Z</time></trkpt><trkpt lat="45.4602438" lon="10.4898129"><ele>165.0</ele><time>2026-03-28T08:59:48.617Z</time></trkpt><trkpt lat="45.4602054" lon="10.4897223"><ele>165.0</ele><time>2026-03-28T08:59:49.611Z</time></trkpt><trkpt lat="45.4601739" lon="10.489635"><ele>165.0</ele><time>2026-03-28T08:59:56.616Z</time></trkpt><trkpt lat="45.4601199" lon="10.4895832"><ele>165.0</ele><time>2026-03-28T08:59:58.617Z</time></trkpt><trkpt lat="45.4600168" lon="10.4894177"><ele>165.0</ele><time>2026-03-28T09:00:00.61Z</time></trkpt><trkpt lat="45.459932" lon="10.4893223"><ele>165.0</ele><time>2026-03-28T09:00:01.611Z</time></trkpt><trkpt lat="45.4598411" lon="10.4892327"><ele>165.0</ele><time>2026-03-28T09:00:02.616Z</time></trkpt><trkpt lat="45.4597599" lon="10.4891672"><ele>165.0</ele><time>2026-03-28T09:00:03.607Z</time></trkpt><trkpt lat="45.4596747" lon="10.4891286"><ele>165.0</ele><time>2026-03-28T09:00:04.606Z</time></trkpt><trkpt lat="45.4595851" lon="10.4890827"><ele>165.0</ele><time>2026-03-28T09:00:05.596Z</time></trkpt><trkpt lat="45.4594825" lon="10.4890341"><ele>165.0</ele><time>2026-03-28T09:00:06.604Z</time></trkpt><trkpt lat="45.4593745" lon="10.4889898"><ele>165.0</ele><time>2026-03-28T09:00:07.608Z</time></trkpt><trkpt lat="45.4592651" lon="10.4889604"><ele>165.0</ele><time>2026-03-28T09:00:08.608Z</time></trkpt><trkpt lat="45.4591598" lon="10.4889392"><ele>165.0</ele><time>2026-03-28T09:00:09.608Z</time></trkpt><trkpt lat="45.4590551" lon="10.4889173"><ele>165.0</ele><time>2026-03-28T09:00:10.61Z</time></trkpt><trkpt lat="45.4589447" lon="10.4889037"><ele>165.0</ele><time>2026-03-28T09:00:11.61Z</time></trkpt><trkpt lat="45.4588347" lon="10.4889078"><ele>164.6</ele><time>2026-03-28T09:00:12.611Z</time></trkpt><trkpt lat="45.4587311" lon="10.4889258"><ele>164.2</ele><time>2026-03-28T09:00:13.619Z</time></trkpt><trkpt lat="45.4586295" lon="10.4889458"><ele>163.8</ele><time>2026-03-28T09:00:14.616Z</time></trkpt><trkpt lat="45.4585409" lon="10.4889751"><ele>163.4</ele><time>2026-03-28T09:00:15.616Z</time></trkpt><trkpt lat="45.4584584" lon="10.4890053"><ele>163.0</ele><time>2026-03-28T09:00:16.62Z</time></trkpt><trkpt lat="45.4583802" lon="10.4890538"><ele>163.0</ele><time>2026-03-28T09:00:17.62Z</time></trkpt><trkpt lat="45.4583" lon="10.489098"><ele>163.0</ele><time>2026-03-28T09:00:18.611Z</time></trkpt><trkpt lat="45.4582241" lon="10.4891333"><ele>163.0</ele><time>2026-03-28T09:00:19.613Z</time></trkpt><trkpt lat="45.4581262" lon="10.489173"><ele>163.0</ele><time>2026-03-28T09:00:21.615Z</time></trkpt><trkpt lat="45.4580441" lon="10.4891682"><ele>163.0</ele><time>2026-03-28T09:00:24.616Z</time></trkpt><trkpt lat="45.4579356" lon="10.4892199"><ele>162.60000000000002</ele><time>2026-03-28T09:00:26.604Z</time></trkpt><trkpt lat="45.457882" lon="10.4892724"><ele>162.20000000000002</ele><time>2026-03-28T09:00:27.617Z</time></trkpt><trkpt lat="45.4578203" lon="10.4893363"><ele>161.8</ele><time>2026-03-28T09:00:28.608Z</time></trkpt><trkpt lat="45.4577444" lon="10.4894074"><ele>161.4</ele><time>2026-03-28T09:00:29.609Z</time></trkpt><trkpt lat="45.4576494" lon="10.4894787"><ele>161.0</ele><time>2026-03-28T09:00:30.612Z</time></trkpt><trkpt lat="45.4575423" lon="10.4895521"><ele>161.0</ele><time>2026-03-28T09:00:31.616Z</time></trkpt><trkpt lat="45.457444" lon="10.4896071"><ele>161.0</ele><time>2026-03-28T09:00:32.611Z</time></trkpt><trkpt lat="45.4573684" lon="10.4896495"><ele>161.0</ele><time>2026-03-28T09:00:33.611Z</time></trkpt><trkpt lat="45.4572718" lon="10.4896957"><ele>161.0</ele><time>2026-03-28T09:00:35.615Z</time></trkpt><trkpt lat="45.4571803" lon="10.4897741"><ele>161.0</ele><time>2026-03-28T09:00:37.61Z</time></trkpt><trkpt lat="45.4570928" lon="10.4899189"><ele>161.0</ele><time>2026-03-28T09:00:39.604Z</time></trkpt><trkpt lat="45.4570275" lon="10.4900104"><ele>161.0</ele><time>2026-03-28T09:00:40.603Z</time></trkpt><trkpt lat="45.4569653" lon="10.4900982"><ele>161.0</ele><time>2026-03-28T09:00:41.612Z</time></trkpt><trkpt lat="45.4569046" lon="10.4901754"><ele>161.0</ele><time>2026-03-28T09:00:42.609Z</time></trkpt><trkpt lat="45.4568536" lon="10.4902445"><ele>161.0</ele><time>2026-03-28T09:00:43.613Z</time></trkpt><trkpt lat="45.4568107" lon="10.4903122"><ele>161.0</ele><time>2026-03-28T09:00:44.604Z</time></trkpt><trkpt lat="45.4567383" lon="10.4904075"><ele>161.0</ele><time>2026-03-28T09:00:47.627Z</time></trkpt><trkpt lat="45.4566814" lon="10.4904799"><ele>161.0</ele><time>2026-03-28T09:00:50.617Z</time></trkpt><trkpt lat="45.4566274" lon="10.4905533"><ele>161.0</ele><time>2026-03-28T09:00:52.62Z</time></trkpt><trkpt lat="45.4565726" lon="10.490643"><ele>161.0</ele><time>2026-03-28T09:00:54.616Z</time></trkpt><trkpt lat="45.45652" lon="10.4907025"><ele>161.0</ele><time>2026-03-28T09:00:56.616Z</time></trkpt><trkpt lat="45.4564207" lon="10.4908327"><ele>161.0</ele><time>2026-03-28T09:00:58.613Z</time></trkpt><trkpt lat="45.4563594" lon="10.4909134"><ele>161.0</ele><time>2026-03-28T09:00:59.614Z</time></trkpt><trkpt lat="45.4563106" lon="10.4909773"><ele>161.0</ele><time>2026-03-28T09:01:00.613Z</time></trkpt><trkpt lat="45.4562621" lon="10.4910352"><ele>161.0</ele><time>2026-03-28T09:01:01.617Z</time></trkpt><trkpt lat="45.4562132" lon="10.4911055"><ele>161.0</ele><time>2026-03-28T09:01:02.615Z</time></trkpt><trkpt lat="45.4561575" lon="10.4911933"><ele>161.0</ele><time>2026-03-28T09:01:03.62Z</time></trkpt><trkpt lat="45.4561034" lon="10.4912857"><ele>161.0</ele><time>2026-03-28T09:01:04.61Z</time></trkpt><trkpt lat="45.4560433" lon="10.4913773"><ele>161.20000000000002</ele><time>2026-03-28T09:01:05.613Z</time></trkpt><trkpt lat="45.4559781" lon="10.4914698"><ele>161.4</ele><time>2026-03-28T09:01:06.621Z</time></trkpt><trkpt lat="45.4559042" lon="10.4915758"><ele>161.6</ele><time>2026-03-28T09:01:07.618Z</time></trkpt><trkpt lat="45.4558313" lon="10.4916849"><ele>161.8</ele><time>2026-03-28T09:01:08.611Z</time></trkpt><trkpt lat="45.4557545" lon="10.4917886"><ele>162.0</ele><time>2026-03-28T09:01:09.616Z</time></trkpt><trkpt lat="45.4556788" lon="10.4918838"><ele>162.0</ele><time>2026-03-28T09:01:10.618Z</time></trkpt><trkpt lat="45.4556116" lon="10.4919698"><ele>162.0</ele><time>2026-03-28T09:01:11.617Z</time></trkpt><trkpt lat="45.455545" lon="10.4920553"><ele>162.0</ele><time>2026-03-28T09:01:12.614Z</time></trkpt><trkpt lat="45.4554746" lon="10.4921487"><ele>162.0</ele><time>2026-03-28T09:01:13.616Z</time></trkpt><trkpt lat="45.4554013" lon="10.4922468"><ele>162.0</ele><time>2026-03-28T09:01:14.613Z</time></trkpt><trkpt lat="45.4553257" lon="10.4923442"><ele>162.6</ele><time>2026-03-28T09:01:15.611Z</time></trkpt><trkpt lat="45.4552503" lon="10.4924416"><ele>163.2</ele><time>2026-03-28T09:01:16.615Z</time></trkpt><trkpt lat="45.4551715" lon="10.4925446"><ele>163.8</ele><time>2026-03-28T09:01:17.613Z</time></trkpt><trkpt lat="45.4551027" lon="10.4926533"><ele>164.4</ele><time>2026-03-28T09:01:18.615Z</time></trkpt><trkpt lat="45.4550271" lon="10.4927601"><ele>165.0</ele><time>2026-03-28T09:01:19.618Z</time></trkpt><trkpt lat="45.4549545" lon="10.4928583"><ele>165.0</ele><time>2026-03-28T09:01:20.616Z</time></trkpt><trkpt lat="45.4548907" lon="10.4929553"><ele>165.0</ele><time>2026-03-28T09:01:21.617Z</time></trkpt><trkpt lat="45.4548315" lon="10.4930546"><ele>165.0</ele><time>2026-03-28T09:01:22.624Z</time></trkpt><trkpt lat="45.4547733" lon="10.4931447"><ele>165.0</ele><time>2026-03-28T09:01:23.622Z</time></trkpt><trkpt lat="45.4547129" lon="10.4932327"><ele>165.0</ele><time>2026-03-28T09:01:24.619Z</time></trkpt><trkpt lat="45.4546468" lon="10.4933253"><ele>165.6</ele><time>2026-03-28T09:01:25.621Z</time></trkpt><trkpt lat="45.4545708" lon="10.4934165"><ele>166.2</ele><time>2026-03-28T09:01:26.621Z</time></trkpt><trkpt lat="45.4544927" lon="10.4935087"><ele>166.8</ele><time>2026-03-28T09:01:27.615Z</time></trkpt><trkpt lat="45.4544134" lon="10.493603"><ele>167.4</ele><time>2026-03-28T09:01:28.62Z</time></trkpt><trkpt lat="45.4543363" lon="10.4936932"><ele>168.0</ele><time>2026-03-28T09:01:29.615Z</time></trkpt><trkpt lat="45.4542608" lon="10.4937819"><ele>168.2</ele><time>2026-03-28T09:01:30.619Z</time></trkpt><trkpt lat="45.4541855" lon="10.4938706"><ele>168.4</ele><time>2026-03-28T09:01:31.611Z</time></trkpt><trkpt lat="45.4541049" lon="10.493957"><ele>168.6</ele><time>2026-03-28T09:01:32.613Z</time></trkpt><trkpt lat="45.4540119" lon="10.4940386"><ele>168.79999999999998</ele><time>2026-03-28T09:01:33.613Z</time></trkpt><trkpt lat="45.4539169" lon="10.4941234"><ele>169.0</ele><time>2026-03-28T09:01:34.616Z</time></trkpt><trkpt lat="45.4538259" lon="10.4942018"><ele>169.6</ele><time>2026-03-28T09:01:35.614Z</time></trkpt><trkpt lat="45.4537436" lon="10.494283"><ele>170.2</ele><time>2026-03-28T09:01:36.616Z</time></trkpt><trkpt lat="45.4536606" lon="10.4943604"><ele>170.79999999999998</ele><time>2026-03-28T09:01:37.62Z</time></trkpt><trkpt lat="45.4535845" lon="10.4944322"><ele>171.39999999999998</ele><time>2026-03-28T09:01:38.609Z</time></trkpt><trkpt lat="45.4535093" lon="10.4944934"><ele>172.0</ele><time>2026-03-28T09:01:39.624Z</time></trkpt><trkpt lat="45.4534313" lon="10.4945574"><ele>172.6</ele><time>2026-03-28T09:01:40.614Z</time></trkpt><trkpt lat="45.4533519" lon="10.4946284"><ele>173.2</ele><time>2026-03-28T09:01:41.609Z</time></trkpt><trkpt lat="45.4532725" lon="10.4947024"><ele>173.8</ele><time>2026-03-28T09:01:42.617Z</time></trkpt><trkpt lat="45.453182" lon="10.4947746"><ele>174.4</ele><time>2026-03-28T09:01:43.616Z</time></trkpt><trkpt lat="45.4530901" lon="10.4948566"><ele>175.0</ele><time>2026-03-28T09:01:44.609Z</time></trkpt><trkpt lat="45.4529976" lon="10.494942"><ele>175.75</ele><time>2026-03-28T09:01:45.62Z</time></trkpt><trkpt lat="45.4529054" lon="10.4950248"><ele>176.5</ele><time>2026-03-28T09:01:46.611Z</time></trkpt><trkpt lat="45.4528092" lon="10.4950994"><ele>177.25</ele><time>2026-03-28T09:01:47.61Z</time></trkpt><trkpt lat="45.452703" lon="10.4951498"><ele>178.0</ele><time>2026-03-28T09:01:48.604Z</time></trkpt><trkpt lat="45.4525842" lon="10.4951725"><ele>178.0</ele><time>2026-03-28T09:01:49.605Z</time></trkpt><trkpt lat="45.4524527" lon="10.4951752"><ele>178.0</ele><time>2026-03-28T09:01:50.605Z</time></trkpt><trkpt lat="45.4523074" lon="10.4951547"><ele>178.0</ele><time>2026-03-28T09:01:51.608Z</time></trkpt><trkpt lat="45.4521797" lon="10.495139"><ele>178.0</ele><time>2026-03-28T09:01:52.606Z</time></trkpt><trkpt lat="45.4520639" lon="10.4951208"><ele>178.0</ele><time>2026-03-28T09:01:53.603Z</time></trkpt><trkpt lat="45.451953" lon="10.4950969"><ele>178.0</ele><time>2026-03-28T09:01:54.602Z</time></trkpt><trkpt lat="45.4518269" lon="10.4950441"><ele>178.0</ele><time>2026-03-28T09:01:55.6Z</time></trkpt><trkpt lat="45.4516943" lon="10.4949846"><ele>178.0</ele><time>2026-03-28T09:01:56.604Z</time></trkpt><trkpt lat="45.4515796" lon="10.494929"><ele>178.0</ele><time>2026-03-28T09:01:57.603Z</time></trkpt><trkpt lat="45.4514662" lon="10.4948968"><ele>178.0</ele><time>2026-03-28T09:01:58.607Z</time></trkpt><trkpt lat="45.4513458" lon="10.4949272"><ele>178.0</ele><time>2026-03-28T09:01:59.6Z</time></trkpt><trkpt lat="45.4512269" lon="10.4949962"><ele>178.0</ele><time>2026-03-28T09:02:00.604Z</time></trkpt><trkpt lat="45.4511048" lon="10.4950872"><ele>178.25</ele><time>2026-03-28T09:02:01.61Z</time></trkpt><trkpt lat="45.450992" lon="10.4951962"><ele>178.5</ele><time>2026-03-28T09:02:02.606Z</time></trkpt><trkpt lat="45.4508957" lon="10.4953261"><ele>178.75</ele><time>2026-03-28T09:02:03.606Z</time></trkpt><trkpt lat="45.4508053" lon="10.4954748"><ele>179.0</ele><time>2026-03-28T09:02:04.615Z</time></trkpt><trkpt lat="45.4507155" lon="10.4956366"><ele>180.0</ele><time>2026-03-28T09:02:05.615Z</time></trkpt><trkpt lat="45.4506001" lon="10.4958245"><ele>181.0</ele><time>2026-03-28T09:02:06.62Z</time></trkpt><trkpt lat="45.4505002" lon="10.4959924"><ele>182.0</ele><time>2026-03-28T09:02:07.619Z</time></trkpt><trkpt lat="45.450409" lon="10.4961685"><ele>183.0</ele><time>2026-03-28T09:02:08.613Z</time></trkpt><trkpt lat="45.4502978" lon="10.496328"><ele>184.0</ele><time>2026-03-28T09:02:09.614Z</time></trkpt><trkpt lat="45.4501702" lon="10.4964675"><ele>185.0</ele><time>2026-03-28T09:02:10.614Z</time></trkpt><trkpt lat="45.45003" lon="10.4965903"><ele>185.0</ele><time>2026-03-28T09:02:11.62Z</time></trkpt><trkpt lat="45.4499099" lon="10.4967166"><ele>185.0</ele><time>2026-03-28T09:02:12.617Z</time></trkpt><trkpt lat="45.4497978" lon="10.4968501"><ele>185.0</ele><time>2026-03-28T09:02:13.617Z</time></trkpt><trkpt lat="45.4496903" lon="10.4969949"><ele>185.0</ele><time>2026-03-28T09:02:14.616Z</time></trkpt><trkpt lat="45.4495631" lon="10.4971294"><ele>185.33333333333331</ele><time>2026-03-28T09:02:15.61Z</time></trkpt><trkpt lat="45.4494354" lon="10.497282"><ele>185.66666666666666</ele><time>2026-03-28T09:02:16.617Z</time></trkpt><trkpt lat="45.4492966" lon="10.4974579"><ele>186.0</ele><time>2026-03-28T09:02:17.621Z</time></trkpt><trkpt lat="45.4491647" lon="10.4976115"><ele>186.0</ele><time>2026-03-28T09:02:18.614Z</time></trkpt><trkpt lat="45.4490401" lon="10.4977467"><ele>186.0</ele><time>2026-03-28T09:02:19.625Z</time></trkpt><trkpt lat="45.4489148" lon="10.4978743"><ele>186.0</ele><time>2026-03-28T09:02:20.618Z</time></trkpt><trkpt lat="45.4488187" lon="10.4980103"><ele>186.0</ele><time>2026-03-28T09:02:21.62Z</time></trkpt><trkpt lat="45.4487148" lon="10.498163"><ele>186.5</ele><time>2026-03-28T09:02:22.624Z</time></trkpt><trkpt lat="45.4486287" lon="10.4983081"><ele>187.0</ele><time>2026-03-28T09:02:23.621Z</time></trkpt><trkpt lat="45.4485526" lon="10.4984623"><ele>187.5</ele><time>2026-03-28T09:02:24.622Z</time></trkpt><trkpt lat="45.4484882" lon="10.4986459"><ele>188.0</ele><time>2026-03-28T09:02:25.614Z</time></trkpt><trkpt lat="45.448422" lon="10.4988491"><ele>188.66666666666666</ele><time>2026-03-28T09:02:26.618Z</time></trkpt><trkpt lat="45.4483663" lon="10.4990919"><ele>189.33333333333334</ele><time>2026-03-28T09:02:27.621Z</time></trkpt><trkpt lat="45.4483106" lon="10.4993574"><ele>190.0</ele><time>2026-03-28T09:02:28.608Z</time></trkpt><trkpt lat="45.4482402" lon="10.4996313"><ele>191.0</ele><time>2026-03-28T09:02:29.621Z</time></trkpt><trkpt lat="45.4481537" lon="10.4999024"><ele>192.0</ele><time>2026-03-28T09:02:30.614Z</time></trkpt><trkpt lat="45.4480682" lon="10.5001428"><ele>193.0</ele><time>2026-03-28T09:02:31.615Z</time></trkpt><trkpt lat="45.4479944" lon="10.5003648"><ele>192.0</ele><time>2026-03-28T09:02:32.615Z</time></trkpt><trkpt lat="45.4479216" lon="10.5005688"><ele>191.0</ele><time>2026-03-28T09:02:33.617Z</time></trkpt><trkpt lat="45.4478487" lon="10.5007644"><ele>190.0</ele><time>2026-03-28T09:02:34.617Z</time></trkpt><trkpt lat="45.447782" lon="10.5009625"><ele>190.0</ele><time>2026-03-28T09:02:35.617Z</time></trkpt><trkpt lat="45.4477148" lon="10.5011618"><ele>190.0</ele><time>2026-03-28T09:02:36.623Z</time></trkpt><trkpt lat="45.4476411" lon="10.5013432"><ele>190.0</ele><time>2026-03-28T09:02:37.608Z</time></trkpt><trkpt lat="45.4475734" lon="10.5015224"><ele>190.0</ele><time>2026-03-28T09:02:38.618Z</time></trkpt><trkpt lat="45.447505" lon="10.5016988"><ele>191.25</ele><time>2026-03-28T09:02:39.62Z</time></trkpt><trkpt lat="45.4474466" lon="10.5018555"><ele>192.5</ele><time>2026-03-28T09:02:40.612Z</time></trkpt><trkpt lat="45.4473664" lon="10.5020119"><ele>193.75</ele><time>2026-03-28T09:02:41.619Z</time></trkpt><trkpt lat="45.4472899" lon="10.5021635"><ele>195.0</ele><time>2026-03-28T09:02:42.621Z</time></trkpt><trkpt lat="45.4472105" lon="10.5023041"><ele>194.0</ele><time>2026-03-28T09:02:43.614Z</time></trkpt><trkpt lat="45.4471193" lon="10.5024311"><ele>193.0</ele><time>2026-03-28T09:02:44.612Z</time></trkpt><trkpt lat="45.4470455" lon="10.5025663"><ele>192.0</ele><time>2026-03-28T09:02:45.617Z</time></trkpt><trkpt lat="45.4469732" lon="10.5027109"><ele>191.0</ele><time>2026-03-28T09:02:46.614Z</time></trkpt><trkpt lat="45.4468966" lon="10.5028669"><ele>191.0</ele><time>2026-03-28T09:02:47.614Z</time></trkpt><trkpt lat="45.4467971" lon="10.5030276"><ele>191.0</ele><time>2026-03-28T09:02:48.619Z</time></trkpt><trkpt lat="45.4467129" lon="10.5031964"><ele>191.0</ele><time>2026-03-28T09:02:49.613Z</time></trkpt><trkpt lat="45.4466346" lon="10.5033672"><ele>191.0</ele><time>2026-03-28T09:02:50.616Z</time></trkpt><trkpt lat="45.4465377" lon="10.5035533"><ele>191.0</ele><time>2026-03-28T09:02:51.621Z</time></trkpt><trkpt lat="45.4464361" lon="10.5037303"><ele>191.0</ele><time>2026-03-28T09:02:52.614Z</time></trkpt><trkpt lat="45.4463404" lon="10.5039128"><ele>191.0</ele><time>2026-03-28T09:02:53.614Z</time></trkpt><trkpt lat="45.4462549" lon="10.5040962"><ele>191.0</ele><time>2026-03-28T09:02:54.613Z</time></trkpt><trkpt lat="45.4461581" lon="10.5042728"><ele>191.0</ele><time>2026-03-28T09:02:55.611Z</time></trkpt><trkpt lat="45.4460711" lon="10.5044459"><ele>191.0</ele><time>2026-03-28T09:02:56.612Z</time></trkpt><trkpt lat="45.4459777" lon="10.5046062"><ele>191.0</ele><time>2026-03-28T09:02:57.625Z</time></trkpt><trkpt lat="45.445876" lon="10.5047527"><ele>191.0</ele><time>2026-03-28T09:02:58.619Z</time></trkpt><trkpt lat="45.4457725" lon="10.5048978"><ele>191.0</ele><time>2026-03-28T09:02:59.618Z</time></trkpt><trkpt lat="45.4456754" lon="10.5050078"><ele>191.0</ele><time>2026-03-28T09:03:00.622Z</time></trkpt><trkpt lat="45.4455738" lon="10.50514"><ele>190.25</ele><time>2026-03-28T09:03:01.622Z</time></trkpt><trkpt lat="45.4454572" lon="10.505269"><ele>189.5</ele><time>2026-03-28T09:03:02.619Z</time></trkpt><trkpt lat="45.4453521" lon="10.5054082"><ele>188.75</ele><time>2026-03-28T09:03:03.612Z</time></trkpt><trkpt lat="45.4452531" lon="10.505517"><ele>188.0</ele><time>2026-03-28T09:03:04.608Z</time></trkpt><trkpt lat="45.4451502" lon="10.5056304"><ele>188.0</ele><time>2026-03-28T09:03:05.609Z</time></trkpt><trkpt lat="45.4450503" lon="10.50574"><ele>188.0</ele><time>2026-03-28T09:03:06.618Z</time></trkpt><trkpt lat="45.4449536" lon="10.5058432"><ele>188.0</ele><time>2026-03-28T09:03:07.606Z</time></trkpt><trkpt lat="45.4448652" lon="10.505953"><ele>188.0</ele><time>2026-03-28T09:03:08.619Z</time></trkpt><trkpt lat="45.4447523" lon="10.5060819"><ele>188.0</ele><time>2026-03-28T09:03:09.609Z</time></trkpt><trkpt lat="45.4446369" lon="10.5061955"><ele>188.0</ele><time>2026-03-28T09:03:10.618Z</time></trkpt><trkpt lat="45.4445426" lon="10.5063083"><ele>188.0</ele><time>2026-03-28T09:03:11.619Z</time></trkpt><trkpt lat="45.4444417" lon="10.506415"><ele>188.0</ele><time>2026-03-28T09:03:12.618Z</time></trkpt><trkpt lat="45.444336" lon="10.5065155"><ele>188.5</ele><time>2026-03-28T09:03:13.627Z</time></trkpt><trkpt lat="45.4442367" lon="10.5066131"><ele>189.0</ele><time>2026-03-28T09:03:14.622Z</time></trkpt><trkpt lat="45.4441315" lon="10.5067116"><ele>189.5</ele><time>2026-03-28T09:03:15.62Z</time></trkpt><trkpt lat="45.4440073" lon="10.5068042"><ele>190.0</ele><time>2026-03-28T09:03:16.618Z</time></trkpt><trkpt lat="45.4438912" lon="10.5069033"><ele>189.5</ele><time>2026-03-28T09:03:17.617Z</time></trkpt><trkpt lat="45.4437795" lon="10.5070101"><ele>189.0</ele><time>2026-03-28T09:03:18.624Z</time></trkpt><trkpt lat="45.4436502" lon="10.5071251"><ele>188.5</ele><time>2026-03-28T09:03:19.618Z</time></trkpt><trkpt lat="45.4435261" lon="10.5072227"><ele>188.0</ele><time>2026-03-28T09:03:20.619Z</time></trkpt><trkpt lat="45.4433924" lon="10.5073196"><ele>188.0</ele><time>2026-03-28T09:03:21.616Z</time></trkpt><trkpt lat="45.4432941" lon="10.5074425"><ele>188.0</ele><time>2026-03-28T09:03:22.622Z</time></trkpt><trkpt lat="45.443184" lon="10.5075478"><ele>188.0</ele><time>2026-03-28T09:03:23.615Z</time></trkpt><trkpt lat="45.4430819" lon="10.5076684"><ele>188.0</ele><time>2026-03-28T09:03:24.614Z</time></trkpt><trkpt lat="45.4429805" lon="10.5078173"><ele>187.0</ele><time>2026-03-28T09:03:25.616Z</time></trkpt><trkpt lat="45.4429005" lon="10.5079502"><ele>186.0</ele><time>2026-03-28T09:03:26.621Z</time></trkpt><trkpt lat="45.4428247" lon="10.508089"><ele>185.0</ele><time>2026-03-28T09:03:27.612Z</time></trkpt><trkpt lat="45.4427581" lon="10.5082301"><ele>184.0</ele><time>2026-03-28T09:03:28.614Z</time></trkpt><trkpt lat="45.4427099" lon="10.5083764"><ele>184.0</ele><time>2026-03-28T09:03:29.619Z</time></trkpt><trkpt lat="45.4426666" lon="10.5085188"><ele>184.0</ele><time>2026-03-28T09:03:30.62Z</time></trkpt><trkpt lat="45.4426485" lon="10.5086605"><ele>184.0</ele><time>2026-03-28T09:03:31.612Z</time></trkpt><trkpt lat="45.4426432" lon="10.5088025"><ele>184.0</ele><time>2026-03-28T09:03:32.614Z</time></trkpt><trkpt lat="45.4426604" lon="10.5089463"><ele>184.0</ele><time>2026-03-28T09:03:33.616Z</time></trkpt><trkpt lat="45.4426922" lon="10.5090915"><ele>184.79999999999998</ele><time>2026-03-28T09:03:34.617Z</time></trkpt><trkpt lat="45.4427262" lon="10.5092199"><ele>185.6</ele><time>2026-03-28T09:03:35.619Z</time></trkpt><trkpt lat="45.4427561" lon="10.5093495"><ele>186.4</ele><time>2026-03-28T09:03:36.611Z</time></trkpt><trkpt lat="45.4427765" lon="10.509494"><ele>187.2</ele><time>2026-03-28T09:03:37.612Z</time></trkpt><trkpt lat="45.4427822" lon="10.509646"><ele>188.0</ele><time>2026-03-28T09:03:38.617Z</time></trkpt><trkpt lat="45.442783" lon="10.5097939"><ele>188.0</ele><time>2026-03-28T09:03:39.609Z</time></trkpt><trkpt lat="45.4427682" lon="10.509934"><ele>188.0</ele><time>2026-03-28T09:03:40.611Z</time></trkpt><trkpt lat="45.4427384" lon="10.5100688"><ele>188.0</ele><time>2026-03-28T09:03:41.605Z</time></trkpt><trkpt lat="45.4426907" lon="10.5101957"><ele>188.0</ele><time>2026-03-28T09:03:42.614Z</time></trkpt><trkpt lat="45.4426262" lon="10.5103072"><ele>188.0</ele><time>2026-03-28T09:03:43.608Z</time></trkpt><trkpt lat="45.4425494" lon="10.5104052"><ele>183.0</ele><time>2026-03-28T09:03:44.605Z</time></trkpt><trkpt lat="45.4424479" lon="10.5104689"><ele>178.0</ele><time>2026-03-28T09:03:45.608Z</time></trkpt><trkpt lat="45.4423088" lon="10.5105091"><ele>173.0</ele><time>2026-03-28T09:03:46.61Z</time></trkpt><trkpt lat="45.4421783" lon="10.5105453"><ele>168.0</ele><time>2026-03-28T09:03:47.609Z</time></trkpt><trkpt lat="45.4420445" lon="10.5105774"><ele>167.0</ele><time>2026-03-28T09:03:48.605Z</time></trkpt><trkpt lat="45.4419218" lon="10.5105987"><ele>166.0</ele><time>2026-03-28T09:03:49.617Z</time></trkpt><trkpt lat="45.4418076" lon="10.5105962"><ele>165.0</ele><time>2026-03-28T09:03:50.606Z</time></trkpt><trkpt lat="45.4416824" lon="10.5105727"><ele>164.0</ele><time>2026-03-28T09:03:51.599Z</time></trkpt><trkpt lat="45.441566" lon="10.5105409"><ele>164.0</ele><time>2026-03-28T09:03:52.608Z</time></trkpt><trkpt lat="45.4414482" lon="10.510504"><ele>164.0</ele><time>2026-03-28T09:03:53.767Z</time></trkpt><trkpt lat="45.4411969" lon="10.5105255"><ele>164.0</ele><time>2026-03-28T09:03:55.609Z</time></trkpt><trkpt lat="45.4410713" lon="10.5105845"><ele>163.5</ele><time>2026-03-28T09:03:56.611Z</time></trkpt><trkpt lat="45.4409626" lon="10.5106192"><ele>163.0</ele><time>2026-03-28T09:03:57.607Z</time></trkpt><trkpt lat="45.4408511" lon="10.5106459"><ele>162.5</ele><time>2026-03-28T09:03:58.608Z</time></trkpt><trkpt lat="45.4407261" lon="10.5106861"><ele>162.0</ele><time>2026-03-28T09:03:59.604Z</time></trkpt><trkpt lat="45.4406065" lon="10.5107212"><ele>162.0</ele><time>2026-03-28T09:04:00.606Z</time></trkpt><trkpt lat="45.4404829" lon="10.5107745"><ele>162.0</ele><time>2026-03-28T09:04:01.61Z</time></trkpt><trkpt lat="45.4403616" lon="10.5108674"><ele>162.0</ele><time>2026-03-28T09:04:02.607Z</time></trkpt><trkpt lat="45.4402498" lon="10.5109787"><ele>162.0</ele><time>2026-03-28T09:04:03.611Z</time></trkpt><trkpt lat="45.4401316" lon="10.5110888"><ele>162.5</ele><time>2026-03-28T09:04:04.61Z</time></trkpt><trkpt lat="45.4400307" lon="10.5111772"><ele>163.0</ele><time>2026-03-28T09:04:05.606Z</time></trkpt><trkpt lat="45.4399265" lon="10.5112294"><ele>163.5</ele><time>2026-03-28T09:04:06.605Z</time></trkpt><trkpt lat="45.4398142" lon="10.5112917"><ele>164.0</ele><time>2026-03-28T09:04:07.606Z</time></trkpt><trkpt lat="45.4396721" lon="10.5113165"><ele>158.5</ele><time>2026-03-28T09:04:08.605Z</time></trkpt><trkpt lat="45.4395568" lon="10.511322"><ele>153.0</ele><time>2026-03-28T09:04:09.607Z</time></trkpt><trkpt lat="45.4394255" lon="10.5113108"><ele>147.5</ele><time>2026-03-28T09:04:10.614Z</time></trkpt><trkpt lat="45.4393047" lon="10.5113043"><ele>142.0</ele><time>2026-03-28T09:04:11.607Z</time></trkpt><trkpt lat="45.4391942" lon="10.5113127"><ele>142.0</ele><time>2026-03-28T09:04:12.602Z</time></trkpt><trkpt lat="45.4390961" lon="10.5113315"><ele>142.0</ele><time>2026-03-28T09:04:13.605Z</time></trkpt><trkpt lat="45.4389869" lon="10.5113798"><ele>142.0</ele><time>2026-03-28T09:04:14.607Z</time></trkpt><trkpt lat="45.4388791" lon="10.5114321"><ele>142.0</ele><time>2026-03-28T09:04:15.603Z</time></trkpt><trkpt lat="45.4387636" lon="10.5114457"><ele>142.0</ele><time>2026-03-28T09:04:16.608Z</time></trkpt><trkpt lat="45.4386579" lon="10.511437"><ele>141.6</ele><time>2026-03-28T09:04:17.603Z</time></trkpt><trkpt lat="45.4385434" lon="10.511446"><ele>141.2</ele><time>2026-03-28T09:04:18.606Z</time></trkpt><trkpt lat="45.4384323" lon="10.5114846"><ele>140.8</ele><time>2026-03-28T09:04:19.606Z</time></trkpt><trkpt lat="45.4383351" lon="10.5115506"><ele>140.4</ele><time>2026-03-28T09:04:20.612Z</time></trkpt><trkpt lat="45.4382409" lon="10.5116177"><ele>140.0</ele><time>2026-03-28T09:04:21.602Z</time></trkpt><trkpt lat="45.4381387" lon="10.511713"><ele>140.0</ele><time>2026-03-28T09:04:22.606Z</time></trkpt><trkpt lat="45.4380315" lon="10.5118106"><ele>140.0</ele><time>2026-03-28T09:04:23.604Z</time></trkpt><trkpt lat="45.4379236" lon="10.5118866"><ele>140.0</ele><time>2026-03-28T09:04:24.604Z</time></trkpt><trkpt lat="45.4378155" lon="10.5119519"><ele>140.0</ele><time>2026-03-28T09:04:25.61Z</time></trkpt><trkpt lat="45.4377075" lon="10.5120352"><ele>138.75</ele><time>2026-03-28T09:04:26.611Z</time></trkpt><trkpt lat="45.4375962" lon="10.5121287"><ele>137.5</ele><time>2026-03-28T09:04:27.608Z</time></trkpt><trkpt lat="45.4374834" lon="10.5122252"><ele>136.25</ele><time>2026-03-28T09:04:28.613Z</time></trkpt><trkpt lat="45.4373751" lon="10.5123263"><ele>135.0</ele><time>2026-03-28T09:04:29.613Z</time></trkpt><trkpt lat="45.4372807" lon="10.512423"><ele>135.0</ele><time>2026-03-28T09:04:30.61Z</time></trkpt><trkpt lat="45.4371945" lon="10.512518"><ele>135.0</ele><time>2026-03-28T09:04:31.609Z</time></trkpt><trkpt lat="45.4371197" lon="10.5126103"><ele>135.0</ele><time>2026-03-28T09:04:32.608Z</time></trkpt><trkpt lat="45.4370596" lon="10.5126999"><ele>135.0</ele><time>2026-03-28T09:04:33.611Z</time></trkpt><trkpt lat="45.4370094" lon="10.5127846"><ele>135.0</ele><time>2026-03-28T09:04:34.609Z</time></trkpt><trkpt lat="45.4369533" lon="10.5128608"><ele>134.0</ele><time>2026-03-28T09:04:35.606Z</time></trkpt><trkpt lat="45.4368987" lon="10.5129127"><ele>133.0</ele><time>2026-03-28T09:04:36.611Z</time></trkpt><trkpt lat="45.4368325" lon="10.5129522"><ele>132.0</ele><time>2026-03-28T09:04:37.614Z</time></trkpt><trkpt lat="45.4367418" lon="10.5129964"><ele>131.0</ele><time>2026-03-28T09:04:38.612Z</time></trkpt><trkpt lat="45.436652" lon="10.513061"><ele>130.0</ele><time>2026-03-28T09:04:39.612Z</time></trkpt><trkpt lat="45.4365721" lon="10.5131234"><ele>129.0</ele><time>2026-03-28T09:04:40.611Z</time></trkpt><trkpt lat="45.4365044" lon="10.5131962"><ele>129.0</ele><time>2026-03-28T09:04:41.605Z</time></trkpt><trkpt lat="45.436441" lon="10.513269"><ele>129.0</ele><time>2026-03-28T09:04:42.615Z</time></trkpt><trkpt lat="45.4363898" lon="10.5133369"><ele>129.0</ele><time>2026-03-28T09:04:43.607Z</time></trkpt><trkpt lat="45.4363418" lon="10.513396"><ele>129.0</ele><time>2026-03-28T09:04:44.607Z</time></trkpt><trkpt lat="45.4362946" lon="10.5134614"><ele>129.0</ele><time>2026-03-28T09:04:45.608Z</time></trkpt><trkpt lat="45.4362353" lon="10.5135543"><ele>129.0</ele><time>2026-03-28T09:04:46.606Z</time></trkpt><trkpt lat="45.4361647" lon="10.5136594"><ele>129.0</ele><time>2026-03-28T09:04:47.611Z</time></trkpt><trkpt lat="45.4360816" lon="10.5137774"><ele>129.0</ele><time>2026-03-28T09:04:48.608Z</time></trkpt><trkpt lat="45.4359907" lon="10.5139093"><ele>129.0</ele><time>2026-03-28T09:04:49.607Z</time></trkpt><trkpt lat="45.4358994" lon="10.5140393"><ele>129.0</ele><time>2026-03-28T09:04:50.609Z</time></trkpt><trkpt lat="45.4358199" lon="10.5141548"><ele>129.0</ele><time>2026-03-28T09:04:51.608Z</time></trkpt><trkpt lat="45.4357363" lon="10.5142638"><ele>129.0</ele><time>2026-03-28T09:04:52.611Z</time></trkpt><trkpt lat="45.4356619" lon="10.5143698"><ele>129.0</ele><time>2026-03-28T09:04:53.616Z</time></trkpt><trkpt lat="45.4355895" lon="10.514476"><ele>129.0</ele><time>2026-03-28T09:04:54.608Z</time></trkpt><trkpt lat="45.4355207" lon="10.5145775"><ele>129.0</ele><time>2026-03-28T09:04:55.612Z</time></trkpt><trkpt lat="45.4354568" lon="10.5146731"><ele>128.0</ele><time>2026-03-28T09:04:56.615Z</time></trkpt><trkpt lat="45.4353968" lon="10.5147607"><ele>127.0</ele><time>2026-03-28T09:04:57.609Z</time></trkpt><trkpt lat="45.4353404" lon="10.5148468"><ele>126.0</ele><time>2026-03-28T09:04:58.611Z</time></trkpt><trkpt lat="45.4352845" lon="10.514921"><ele>125.0</ele><time>2026-03-28T09:04:59.61Z</time></trkpt><trkpt lat="45.4352069" lon="10.5149756"><ele>124.0</ele><time>2026-03-28T09:05:01.61Z</time></trkpt><trkpt lat="45.4351271" lon="10.5149756"><ele>123.0</ele><time>2026-03-28T09:05:04.623Z</time></trkpt><trkpt lat="45.4350419" lon="10.5149401"><ele>123.0</ele><time>2026-03-28T09:05:06.616Z</time></trkpt><trkpt lat="45.434962" lon="10.5148362"><ele>123.00000000000001</ele><time>2026-03-28T09:05:08.617Z</time></trkpt><trkpt lat="45.434858" lon="10.5147421"><ele>123.00000000000001</ele><time>2026-03-28T09:05:10.616Z</time></trkpt><trkpt lat="45.434782" lon="10.5147145"><ele>123.0</ele><time>2026-03-28T09:05:11.615Z</time></trkpt><trkpt lat="45.434702" lon="10.5147275"><ele>123.0</ele><time>2026-03-28T09:05:12.611Z</time></trkpt><trkpt lat="45.4346251" lon="10.5147899"><ele>122.80000000000001</ele><time>2026-03-28T09:05:13.614Z</time></trkpt><trkpt lat="45.4345639" lon="10.5148902"><ele>122.60000000000001</ele><time>2026-03-28T09:05:14.612Z</time></trkpt><trkpt lat="45.4345341" lon="10.5150219"><ele>122.39999999999999</ele><time>2026-03-28T09:05:15.608Z</time></trkpt><trkpt lat="45.4345116" lon="10.5151541"><ele>122.19999999999999</ele><time>2026-03-28T09:05:16.604Z</time></trkpt><trkpt lat="45.434519" lon="10.5153063"><ele>122.0</ele><time>2026-03-28T09:05:17.61Z</time></trkpt><trkpt lat="45.4345062" lon="10.5154662"><ele>122.0</ele><time>2026-03-28T09:05:18.609Z</time></trkpt><trkpt lat="45.4344789" lon="10.5156392"><ele>122.0</ele><time>2026-03-28T09:05:19.609Z</time></trkpt><trkpt lat="45.4344424" lon="10.5157929"><ele>122.0</ele><time>2026-03-28T09:05:20.615Z</time></trkpt><trkpt lat="45.4343838" lon="10.515928"><ele>122.0</ele><time>2026-03-28T09:05:21.615Z</time></trkpt><trkpt lat="45.4343041" lon="10.5160465"><ele>122.0</ele><time>2026-03-28T09:05:22.617Z</time></trkpt><trkpt lat="45.4342234" lon="10.516145"><ele>122.0</ele><time>2026-03-28T09:05:23.611Z</time></trkpt><trkpt lat="45.4341298" lon="10.516231"><ele>122.0</ele><time>2026-03-28T09:05:24.604Z</time></trkpt><trkpt lat="45.434021" lon="10.5162996"><ele>122.0</ele><time>2026-03-28T09:05:25.619Z</time></trkpt><trkpt lat="45.4339016" lon="10.5163661"><ele>122.25</ele><time>2026-03-28T09:05:26.606Z</time></trkpt><trkpt lat="45.43378" lon="10.5164214"><ele>122.5</ele><time>2026-03-28T09:05:27.609Z</time></trkpt><trkpt lat="45.4336627" lon="10.5164704"><ele>122.75</ele><time>2026-03-28T09:05:28.617Z</time></trkpt><trkpt lat="45.4335504" lon="10.5165052"><ele>123.0</ele><time>2026-03-28T09:05:29.611Z</time></trkpt><trkpt lat="45.4334422" lon="10.5165266"><ele>123.0</ele><time>2026-03-28T09:05:30.614Z</time></trkpt><trkpt lat="45.4333383" lon="10.5165311"><ele>123.00000000000001</ele><time>2026-03-28T09:05:31.622Z</time></trkpt><trkpt lat="45.4332406" lon="10.5165244"><ele>123.00000000000001</ele><time>2026-03-28T09:05:32.616Z</time></trkpt><trkpt lat="45.4331471" lon="10.5165158"><ele>123.0</ele><time>2026-03-28T09:05:33.613Z</time></trkpt><trkpt lat="45.433065" lon="10.5165044"><ele>123.0</ele><time>2026-03-28T09:05:34.619Z</time></trkpt><trkpt lat="45.4329864" lon="10.5164875"><ele>122.66666666666667</ele><time>2026-03-28T09:05:35.615Z</time></trkpt><trkpt lat="45.4329112" lon="10.5164603"><ele>122.33333333333334</ele><time>2026-03-28T09:05:36.603Z</time></trkpt><trkpt lat="45.4328408" lon="10.5164222"><ele>122.0</ele><time>2026-03-28T09:05:37.612Z</time></trkpt><trkpt lat="45.4327807" lon="10.5163514"><ele>121.66666666666667</ele><time>2026-03-28T09:05:38.619Z</time></trkpt><trkpt lat="45.4327165" lon="10.5162783"><ele>121.33333333333334</ele><time>2026-03-28T09:05:39.605Z</time></trkpt><trkpt lat="45.4326476" lon="10.5162414"><ele>121.0</ele><time>2026-03-28T09:05:40.611Z</time></trkpt><trkpt lat="45.4325783" lon="10.5162446"><ele>121.00000000000001</ele><time>2026-03-28T09:05:41.612Z</time></trkpt><trkpt lat="45.4325168" lon="10.5162895"><ele>121.0</ele><time>2026-03-28T09:05:42.607Z</time></trkpt><trkpt lat="45.4324706" lon="10.5163788"><ele>121.0</ele><time>2026-03-28T09:05:43.608Z</time></trkpt><trkpt lat="45.4324432" lon="10.5164782"><ele>121.0</ele><time>2026-03-28T09:05:44.602Z</time></trkpt><trkpt lat="45.4324334" lon="10.5165742"><ele>121.00000000000001</ele><time>2026-03-28T09:05:45.615Z</time></trkpt><trkpt lat="45.4324672" lon="10.5166795"><ele>121.0</ele><time>2026-03-28T09:05:46.617Z</time></trkpt><trkpt lat="45.4325398" lon="10.5167781"><ele>121.0</ele><time>2026-03-28T09:05:47.611Z</time></trkpt><trkpt lat="45.4326104" lon="10.5168755"><ele>121.0</ele><time>2026-03-28T09:05:48.613Z</time></trkpt><trkpt lat="45.4326703" lon="10.5169888"><ele>121.0</ele><time>2026-03-28T09:05:49.609Z</time></trkpt><trkpt lat="45.4327128" lon="10.5171111"><ele>121.0</ele><time>2026-03-28T09:05:50.596Z</time></trkpt><trkpt lat="45.4327556" lon="10.5172323"><ele>121.0</ele><time>2026-03-28T09:05:51.602Z</time></trkpt><trkpt lat="45.4327764" lon="10.5173675"><ele>121.75</ele><time>2026-03-28T09:05:52.598Z</time></trkpt><trkpt lat="45.4327971" lon="10.5175186"><ele>122.5</ele><time>2026-03-28T09:05:53.602Z</time></trkpt><trkpt lat="45.4327884" lon="10.5176783"><ele>123.25</ele><time>2026-03-28T09:05:54.602Z</time></trkpt><trkpt lat="45.4327422" lon="10.51785"><ele>124.0</ele><time>2026-03-28T09:05:55.604Z</time></trkpt><trkpt lat="45.4327083" lon="10.5180268"><ele>124.0</ele><time>2026-03-28T09:05:56.611Z</time></trkpt><trkpt lat="45.4326442" lon="10.5182087"><ele>124.0</ele><time>2026-03-28T09:05:57.599Z</time></trkpt><trkpt lat="45.4325727" lon="10.5183815"><ele>124.0</ele><time>2026-03-28T09:05:58.614Z</time></trkpt><trkpt lat="45.4324838" lon="10.5185581"><ele>124.0</ele><time>2026-03-28T09:05:59.609Z</time></trkpt><trkpt lat="45.4323392" lon="10.5187594"><ele>124.0</ele><time>2026-03-28T09:06:00.605Z</time></trkpt><trkpt lat="45.4321737" lon="10.5189857"><ele>124.0</ele><time>2026-03-28T09:06:01.608Z</time></trkpt><trkpt lat="45.4320294" lon="10.5191518"><ele>124.0</ele><time>2026-03-28T09:06:02.605Z</time></trkpt><trkpt lat="45.4319417" lon="10.5192495"><ele>124.0</ele><time>2026-03-28T09:06:03.602Z</time></trkpt><trkpt lat="45.4318489" lon="10.5193297"><ele>124.0</ele><time>2026-03-28T09:06:04.601Z</time></trkpt><trkpt lat="45.4317523" lon="10.5193645"><ele>124.0</ele><time>2026-03-28T09:06:05.607Z</time></trkpt><trkpt lat="45.4316576" lon="10.5193712"><ele>124.0</ele><time>2026-03-28T09:06:06.605Z</time></trkpt><trkpt lat="45.4315826" lon="10.519333"><ele>124.0</ele><time>2026-03-28T09:06:07.607Z</time></trkpt><trkpt lat="45.4314996" lon="10.5192751"><ele>124.00000000000001</ele><time>2026-03-28T09:06:08.606Z</time></trkpt><trkpt lat="45.4313984" lon="10.5192427"><ele>124.0</ele><time>2026-03-28T09:06:09.599Z</time></trkpt><trkpt lat="45.4313055" lon="10.5192345"><ele>124.0</ele><time>2026-03-28T09:06:10.595Z</time></trkpt><trkpt lat="45.4312273" lon="10.5192352"><ele>124.0</ele><time>2026-03-28T09:06:11.599Z</time></trkpt><trkpt lat="45.4311719" lon="10.519302"><ele>124.00000000000001</ele><time>2026-03-28T09:06:12.608Z</time></trkpt><trkpt lat="45.4311573" lon="10.5194318"><ele>124.0</ele><time>2026-03-28T09:06:13.599Z</time></trkpt><trkpt lat="45.4311528" lon="10.5195654"><ele>124.00000000000001</ele><time>2026-03-28T09:06:14.599Z</time></trkpt><trkpt lat="45.4311789" lon="10.5196914"><ele>124.0</ele><time>2026-03-28T09:06:15.606Z</time></trkpt><trkpt lat="45.4312302" lon="10.5197907"><ele>124.0</ele><time>2026-03-28T09:06:16.607Z</time></trkpt><trkpt lat="45.4313286" lon="10.5198711"><ele>124.0</ele><time>2026-03-28T09:06:17.596Z</time></trkpt><trkpt lat="45.4313867" lon="10.5199494"><ele>124.00000000000001</ele><time>2026-03-28T09:06:18.602Z</time></trkpt><trkpt lat="45.4314078" lon="10.5200451"><ele>124.0</ele><time>2026-03-28T09:06:19.598Z</time></trkpt><trkpt lat="45.4313905" lon="10.52016"><ele>124.0</ele><time>2026-03-28T09:06:20.598Z</time></trkpt><trkpt lat="45.4313382" lon="10.5202869"><ele>124.0</ele><time>2026-03-28T09:06:21.604Z</time></trkpt><trkpt lat="45.4312665" lon="10.5204298"><ele>124.0</ele><time>2026-03-28T09:06:22.6Z</time></trkpt><trkpt lat="45.431181" lon="10.5205795"><ele>124.0</ele><time>2026-03-28T09:06:23.602Z</time></trkpt><trkpt lat="45.4310956" lon="10.520723"><ele>124.0</ele><time>2026-03-28T09:06:24.606Z</time></trkpt><trkpt lat="45.4310131" lon="10.5208611"><ele>124.0</ele><time>2026-03-28T09:06:25.606Z</time></trkpt><trkpt lat="45.4309238" lon="10.5209904"><ele>124.0</ele><time>2026-03-28T09:06:26.6Z</time></trkpt><trkpt lat="45.4308322" lon="10.5211096"><ele>124.0</ele><time>2026-03-28T09:06:27.604Z</time></trkpt><trkpt lat="45.4307232" lon="10.5212135"><ele>123.33333333333334</ele><time>2026-03-28T09:06:28.603Z</time></trkpt><trkpt lat="45.4305823" lon="10.5213036"><ele>122.66666666666666</ele><time>2026-03-28T09:06:29.607Z</time></trkpt><trkpt lat="45.4304433" lon="10.5213845"><ele>122.0</ele><time>2026-03-28T09:06:30.602Z</time></trkpt><trkpt lat="45.4303011" lon="10.5214704"><ele>122.0</ele><time>2026-03-28T09:06:31.602Z</time></trkpt><trkpt lat="45.4301638" lon="10.521604"><ele>122.0</ele><time>2026-03-28T09:06:32.599Z</time></trkpt><trkpt lat="45.4300269" lon="10.5217723"><ele>122.0</ele><time>2026-03-28T09:06:33.599Z</time></trkpt><trkpt lat="45.4298722" lon="10.5219308"><ele>122.0</ele><time>2026-03-28T09:06:34.606Z</time></trkpt><trkpt lat="45.4297384" lon="10.5220968"><ele>122.0</ele><time>2026-03-28T09:06:35.602Z</time></trkpt><trkpt lat="45.4296145" lon="10.5222768"><ele>122.0</ele><time>2026-03-28T09:06:36.604Z</time></trkpt><trkpt lat="45.4294787" lon="10.5224534"><ele>122.0</ele><time>2026-03-28T09:06:37.606Z</time></trkpt><trkpt lat="45.4293591" lon="10.5226595"><ele>122.0</ele><time>2026-03-28T09:06:38.604Z</time></trkpt><trkpt lat="45.4292291" lon="10.5228493"><ele>122.0</ele><time>2026-03-28T09:06:39.604Z</time></trkpt><trkpt lat="45.429101" lon="10.5230287"><ele>122.0</ele><time>2026-03-28T09:06:40.613Z</time></trkpt><trkpt lat="45.4289626" lon="10.5231883"><ele>122.0</ele><time>2026-03-28T09:06:41.609Z</time></trkpt><trkpt lat="45.428836" lon="10.5233476"><ele>122.0</ele><time>2026-03-28T09:06:42.61Z</time></trkpt><trkpt lat="45.4286956" lon="10.523513"><ele>122.0</ele><time>2026-03-28T09:06:43.613Z</time></trkpt><trkpt lat="45.4285535" lon="10.5236758"><ele>122.0</ele><time>2026-03-28T09:06:44.616Z</time></trkpt><trkpt lat="45.428422" lon="10.5238406"><ele>122.0</ele><time>2026-03-28T09:06:45.612Z</time></trkpt><trkpt lat="45.4282906" lon="10.5240132"><ele>121.66666666666666</ele><time>2026-03-28T09:06:46.615Z</time></trkpt><trkpt lat="45.4281544" lon="10.5241928"><ele>121.33333333333334</ele><time>2026-03-28T09:06:47.616Z</time></trkpt><trkpt lat="45.4280171" lon="10.5243789"><ele>121.0</ele><time>2026-03-28T09:06:48.618Z</time></trkpt><trkpt lat="45.427879" lon="10.524554"><ele>121.33333333333334</ele><time>2026-03-28T09:06:49.617Z</time></trkpt><trkpt lat="45.4277371" lon="10.5247309"><ele>121.66666666666666</ele><time>2026-03-28T09:06:50.617Z</time></trkpt><trkpt lat="45.427602" lon="10.5249058"><ele>122.0</ele><time>2026-03-28T09:06:51.614Z</time></trkpt><trkpt lat="45.4274652" lon="10.5250835"><ele>122.0</ele><time>2026-03-28T09:06:52.618Z</time></trkpt><trkpt lat="45.4273389" lon="10.5252765"><ele>122.0</ele><time>2026-03-28T09:06:53.616Z</time></trkpt><trkpt lat="45.4272204" lon="10.5254607"><ele>122.0</ele><time>2026-03-28T09:06:54.61Z</time></trkpt><trkpt lat="45.427084" lon="10.5256615"><ele>122.66666666666666</ele><time>2026-03-28T09:06:55.612Z</time></trkpt><trkpt lat="45.4269524" lon="10.5258613"><ele>123.33333333333334</ele><time>2026-03-28T09:06:56.61Z</time></trkpt><trkpt lat="45.4268067" lon="10.5260374"><ele>124.0</ele><time>2026-03-28T09:06:57.613Z</time></trkpt><trkpt lat="45.4266589" lon="10.5262117"><ele>124.66666666666667</ele><time>2026-03-28T09:06:58.604Z</time></trkpt><trkpt lat="45.4265114" lon="10.5263505"><ele>125.33333333333334</ele><time>2026-03-28T09:06:59.611Z</time></trkpt><trkpt lat="45.4263827" lon="10.5265095"><ele>126.0</ele><time>2026-03-28T09:07:00.61Z</time></trkpt><trkpt lat="45.4262342" lon="10.526654"><ele>126.0</ele><time>2026-03-28T09:07:01.61Z</time></trkpt><trkpt lat="45.4260943" lon="10.5268032"><ele>126.0</ele><time>2026-03-28T09:07:02.61Z</time></trkpt><trkpt lat="45.4259569" lon="10.526973"><ele>126.0</ele><time>2026-03-28T09:07:03.613Z</time></trkpt><trkpt lat="45.4258339" lon="10.5271451"><ele>126.0</ele><time>2026-03-28T09:07:04.614Z</time></trkpt><trkpt lat="45.425711" lon="10.5273286"><ele>126.0</ele><time>2026-03-28T09:07:05.613Z</time></trkpt><trkpt lat="45.4255693" lon="10.5275158"><ele>126.0</ele><time>2026-03-28T09:07:06.612Z</time></trkpt><trkpt lat="45.4254289" lon="10.5277065"><ele>126.0</ele><time>2026-03-28T09:07:07.615Z</time></trkpt><trkpt lat="45.4253175" lon="10.5278886"><ele>126.0</ele><time>2026-03-28T09:07:08.618Z</time></trkpt><trkpt lat="45.4252012" lon="10.5280693"><ele>126.0</ele><time>2026-03-28T09:07:09.616Z</time></trkpt><trkpt lat="45.4250821" lon="10.528261"><ele>126.66666666666666</ele><time>2026-03-28T09:07:10.613Z</time></trkpt><trkpt lat="45.4249629" lon="10.52842"><ele>127.33333333333333</ele><time>2026-03-28T09:07:11.615Z</time></trkpt><trkpt lat="45.4248424" lon="10.5285784"><ele>128.0</ele><time>2026-03-28T09:07:12.616Z</time></trkpt><trkpt lat="45.4247424" lon="10.5287227"><ele>128.0</ele><time>2026-03-28T09:07:13.615Z</time></trkpt><trkpt lat="45.4246428" lon="10.5288637"><ele>128.0</ele><time>2026-03-28T09:07:14.616Z</time></trkpt><trkpt lat="45.4245132" lon="10.5290217"><ele>128.0</ele><time>2026-03-28T09:07:15.615Z</time></trkpt><trkpt lat="45.4243886" lon="10.5291804"><ele>128.0</ele><time>2026-03-28T09:07:16.615Z</time></trkpt><trkpt lat="45.4242776" lon="10.5293316"><ele>128.0</ele><time>2026-03-28T09:07:17.614Z</time></trkpt><trkpt lat="45.424166" lon="10.5294904"><ele>128.0</ele><time>2026-03-28T09:07:18.621Z</time></trkpt><trkpt lat="45.4240455" lon="10.5296452"><ele>128.33333333333331</ele><time>2026-03-28T09:07:19.617Z</time></trkpt><trkpt lat="45.4238979" lon="10.52978"><ele>128.66666666666666</ele><time>2026-03-28T09:07:20.619Z</time></trkpt><trkpt lat="45.423751" lon="10.5299085"><ele>129.0</ele><time>2026-03-28T09:07:21.62Z</time></trkpt><trkpt lat="45.4236064" lon="10.5300514"><ele>129.0</ele><time>2026-03-28T09:07:22.617Z</time></trkpt><trkpt lat="45.4234963" lon="10.5301931"><ele>129.0</ele><time>2026-03-28T09:07:23.623Z</time></trkpt><trkpt lat="45.4233917" lon="10.530357"><ele>129.0</ele><time>2026-03-28T09:07:24.621Z</time></trkpt><trkpt lat="45.423288" lon="10.5304978"><ele>129.0</ele><time>2026-03-28T09:07:25.621Z</time></trkpt><trkpt lat="45.4231836" lon="10.5306499"><ele>130.0</ele><time>2026-03-28T09:07:26.627Z</time></trkpt><trkpt lat="45.42306" lon="10.5307785"><ele>131.0</ele><time>2026-03-28T09:07:27.616Z</time></trkpt><trkpt lat="45.4229198" lon="10.5308886"><ele>132.0</ele><time>2026-03-28T09:07:28.62Z</time></trkpt><trkpt lat="45.4227728" lon="10.530978"><ele>132.0</ele><time>2026-03-28T09:07:29.616Z</time></trkpt><trkpt lat="45.4226338" lon="10.5310498"><ele>132.0</ele><time>2026-03-28T09:07:30.615Z</time></trkpt><trkpt lat="45.4225082" lon="10.5311216"><ele>132.0</ele><time>2026-03-28T09:07:31.623Z</time></trkpt><trkpt lat="45.4223891" lon="10.5312131"><ele>132.0</ele><time>2026-03-28T09:07:32.622Z</time></trkpt><trkpt lat="45.4222852" lon="10.5313241"><ele>132.2</ele><time>2026-03-28T09:07:33.618Z</time></trkpt><trkpt lat="45.4221996" lon="10.5314179"><ele>132.39999999999998</ele><time>2026-03-28T09:07:34.617Z</time></trkpt><trkpt lat="45.4221199" lon="10.5314856"><ele>132.60000000000002</ele><time>2026-03-28T09:07:35.621Z</time></trkpt><trkpt lat="45.4220638" lon="10.5315837"><ele>132.8</ele><time>2026-03-28T09:07:36.614Z</time></trkpt><trkpt lat="45.4220079" lon="10.5316806"><ele>133.0</ele><time>2026-03-28T09:07:37.619Z</time></trkpt><trkpt lat="45.4219553" lon="10.5317855"><ele>133.0</ele><time>2026-03-28T09:07:38.62Z</time></trkpt><trkpt lat="45.421903" lon="10.5319057"><ele>133.0</ele><time>2026-03-28T09:07:39.618Z</time></trkpt><trkpt lat="45.4218645" lon="10.5320174"><ele>133.0</ele><time>2026-03-28T09:07:40.62Z</time></trkpt><trkpt lat="45.4218286" lon="10.5321257"><ele>133.0</ele><time>2026-03-28T09:07:41.62Z</time></trkpt><trkpt lat="45.4217884" lon="10.53224"><ele>133.0</ele><time>2026-03-28T09:07:42.615Z</time></trkpt><trkpt lat="45.4217335" lon="10.5323646"><ele>133.8</ele><time>2026-03-28T09:07:43.616Z</time></trkpt><trkpt lat="45.4216686" lon="10.532481"><ele>134.60000000000002</ele><time>2026-03-28T09:07:44.616Z</time></trkpt><trkpt lat="45.4216041" lon="10.5325779"><ele>135.39999999999998</ele><time>2026-03-28T09:07:45.616Z</time></trkpt><trkpt lat="45.4215364" lon="10.5326606"><ele>136.2</ele><time>2026-03-28T09:07:46.625Z</time></trkpt><trkpt lat="45.4214637" lon="10.5327305"><ele>137.0</ele><time>2026-03-28T09:07:47.612Z</time></trkpt><trkpt lat="45.421377" lon="10.5328048"><ele>137.25</ele><time>2026-03-28T09:07:48.614Z</time></trkpt><trkpt lat="45.4212707" lon="10.5328696"><ele>137.5</ele><time>2026-03-28T09:07:49.624Z</time></trkpt><trkpt lat="45.4211494" lon="10.532922"><ele>137.75</ele><time>2026-03-28T09:07:50.627Z</time></trkpt><trkpt lat="45.4210219" lon="10.5329614"><ele>138.0</ele><time>2026-03-28T09:07:51.617Z</time></trkpt><trkpt lat="45.420887" lon="10.5330048"><ele>138.0</ele><time>2026-03-28T09:07:52.62Z</time></trkpt><trkpt lat="45.4207507" lon="10.5330537"><ele>138.0</ele><time>2026-03-28T09:07:53.62Z</time></trkpt><trkpt lat="45.4206119" lon="10.5331163"><ele>138.0</ele><time>2026-03-28T09:07:54.619Z</time></trkpt><trkpt lat="45.4204402" lon="10.5331649"><ele>135.33333333333334</ele><time>2026-03-28T09:07:55.62Z</time></trkpt><trkpt lat="45.4202923" lon="10.5332363"><ele>132.66666666666669</ele><time>2026-03-28T09:07:56.623Z</time></trkpt><trkpt lat="45.4201437" lon="10.533347"><ele>130.0</ele><time>2026-03-28T09:07:57.621Z</time></trkpt><trkpt lat="45.4199936" lon="10.5334636"><ele>130.0</ele><time>2026-03-28T09:07:58.612Z</time></trkpt><trkpt lat="45.4198207" lon="10.5335961"><ele>130.0</ele><time>2026-03-28T09:07:59.621Z</time></trkpt><trkpt lat="45.4196608" lon="10.5337297"><ele>130.0</ele><time>2026-03-28T09:08:00.612Z</time></trkpt><trkpt lat="45.4195232" lon="10.5338658"><ele>130.66666666666669</ele><time>2026-03-28T09:08:01.616Z</time></trkpt><trkpt lat="45.4193824" lon="10.5340022"><ele>131.33333333333334</ele><time>2026-03-28T09:08:02.614Z</time></trkpt><trkpt lat="45.4192366" lon="10.5341377"><ele>132.0</ele><time>2026-03-28T09:08:03.615Z</time></trkpt><trkpt lat="45.4190972" lon="10.5342731"><ele>132.0</ele><time>2026-03-28T09:08:04.62Z</time></trkpt><trkpt lat="45.4189509" lon="10.5344195"><ele>132.0</ele><time>2026-03-28T09:08:05.616Z</time></trkpt><trkpt lat="45.4187866" lon="10.5345539"><ele>132.0</ele><time>2026-03-28T09:08:06.608Z</time></trkpt><trkpt lat="45.4186426" lon="10.534667"><ele>131.0</ele><time>2026-03-28T09:08:07.611Z</time></trkpt><trkpt lat="45.4184693" lon="10.5347352"><ele>130.0</ele><time>2026-03-28T09:08:08.61Z</time></trkpt><trkpt lat="45.418303" lon="10.5347875"><ele>129.0</ele><time>2026-03-28T09:08:09.609Z</time></trkpt><trkpt lat="45.4181406" lon="10.5348551"><ele>129.0</ele><time>2026-03-28T09:08:10.613Z</time></trkpt><trkpt lat="45.4179886" lon="10.5349134"><ele>129.0</ele><time>2026-03-28T09:08:11.622Z</time></trkpt><trkpt lat="45.4178465" lon="10.5350001"><ele>129.0</ele><time>2026-03-28T09:08:12.62Z</time></trkpt><trkpt lat="45.4176973" lon="10.5351339"><ele>128.66666666666666</ele><time>2026-03-28T09:08:13.615Z</time></trkpt><trkpt lat="45.4175575" lon="10.5352463"><ele>128.33333333333331</ele><time>2026-03-28T09:08:14.62Z</time></trkpt><trkpt lat="45.4174338" lon="10.5353887"><ele>128.0</ele><time>2026-03-28T09:08:15.619Z</time></trkpt><trkpt lat="45.4173245" lon="10.5355287"><ele>128.0</ele><time>2026-03-28T09:08:16.617Z</time></trkpt><trkpt lat="45.4172047" lon="10.5356498"><ele>128.0</ele><time>2026-03-28T09:08:17.621Z</time></trkpt><trkpt lat="45.4170729" lon="10.5357125"><ele>128.0</ele><time>2026-03-28T09:08:18.616Z</time></trkpt><trkpt lat="45.4169238" lon="10.535758"><ele>128.0</ele><time>2026-03-28T09:08:19.612Z</time></trkpt><trkpt lat="45.4167706" lon="10.5358104"><ele>127.33333333333333</ele><time>2026-03-28T09:08:20.617Z</time></trkpt><trkpt lat="45.4166115" lon="10.535844"><ele>126.66666666666666</ele><time>2026-03-28T09:08:21.621Z</time></trkpt><trkpt lat="45.4164519" lon="10.5358446"><ele>126.0</ele><time>2026-03-28T09:08:22.615Z</time></trkpt><trkpt lat="45.4163097" lon="10.5358318"><ele>124.66666666666666</ele><time>2026-03-28T09:08:23.612Z</time></trkpt><trkpt lat="45.416184" lon="10.5358997"><ele>123.33333333333333</ele><time>2026-03-28T09:08:24.623Z</time></trkpt><trkpt lat="45.4160368" lon="10.5360167"><ele>122.0</ele><time>2026-03-28T09:08:25.611Z</time></trkpt><trkpt lat="45.4158958" lon="10.5361737"><ele>123.66666666666666</ele><time>2026-03-28T09:08:26.619Z</time></trkpt><trkpt lat="45.415771" lon="10.5363686"><ele>125.33333333333334</ele><time>2026-03-28T09:08:27.617Z</time></trkpt><trkpt lat="45.4156521" lon="10.5365213"><ele>127.0</ele><time>2026-03-28T09:08:28.616Z</time></trkpt><trkpt lat="45.4155347" lon="10.5366475"><ele>126.66666666666667</ele><time>2026-03-28T09:08:29.624Z</time></trkpt><trkpt lat="45.4154292" lon="10.5368333"><ele>126.33333333333334</ele><time>2026-03-28T09:08:30.621Z</time></trkpt><trkpt lat="45.4153282" lon="10.5370493"><ele>126.0</ele><time>2026-03-28T09:08:31.622Z</time></trkpt><trkpt lat="45.4152501" lon="10.5372858"><ele>126.0</ele><time>2026-03-28T09:08:32.618Z</time></trkpt><trkpt lat="45.4151628" lon="10.5375157"><ele>126.0</ele><time>2026-03-28T09:08:33.616Z</time></trkpt><trkpt lat="45.4150664" lon="10.5377149"><ele>126.0</ele><time>2026-03-28T09:08:34.616Z</time></trkpt><trkpt lat="45.4149568" lon="10.5379079"><ele>125.66666666666666</ele><time>2026-03-28T09:08:35.628Z</time></trkpt><trkpt lat="45.4148352" lon="10.53809"><ele>125.33333333333333</ele><time>2026-03-28T09:08:36.616Z</time></trkpt><trkpt lat="45.4146727" lon="10.5382534"><ele>125.0</ele><time>2026-03-28T09:08:37.617Z</time></trkpt><trkpt lat="45.4145082" lon="10.5384149"><ele>125.0</ele><time>2026-03-28T09:08:38.617Z</time></trkpt><trkpt lat="45.4143244" lon="10.5385639"><ele>125.0</ele><time>2026-03-28T09:08:39.618Z</time></trkpt><trkpt lat="45.4141552" lon="10.5387446"><ele>125.0</ele><time>2026-03-28T09:08:40.618Z</time></trkpt><trkpt lat="45.413967" lon="10.5389159"><ele>125.0</ele><time>2026-03-28T09:08:41.622Z</time></trkpt><trkpt lat="45.4137907" lon="10.5390803"><ele>125.0</ele><time>2026-03-28T09:08:42.614Z</time></trkpt><trkpt lat="45.4136184" lon="10.5392329"><ele>125.0</ele><time>2026-03-28T09:08:43.619Z</time></trkpt><trkpt lat="45.4134597" lon="10.5393724"><ele>125.0</ele><time>2026-03-28T09:08:44.618Z</time></trkpt><trkpt lat="45.4132733" lon="10.5395136"><ele>125.0</ele><time>2026-03-28T09:08:45.614Z</time></trkpt><trkpt lat="45.4130818" lon="10.5396418"><ele>125.0</ele><time>2026-03-28T09:08:46.62Z</time></trkpt><trkpt lat="45.4129088" lon="10.5397673"><ele>125.25</ele><time>2026-03-28T09:08:47.615Z</time></trkpt><trkpt lat="45.412817" lon="10.5398806"><ele>125.5</ele><time>2026-03-28T09:08:48.614Z</time></trkpt><trkpt lat="45.4127198" lon="10.5400002"><ele>125.75</ele><time>2026-03-28T09:08:49.617Z</time></trkpt><trkpt lat="45.4126206" lon="10.5401724"><ele>126.0</ele><time>2026-03-28T09:08:50.613Z</time></trkpt><trkpt lat="45.4125601" lon="10.5403918"><ele>127.0</ele><time>2026-03-28T09:08:51.614Z</time></trkpt><trkpt lat="45.4124696" lon="10.5406176"><ele>128.0</ele><time>2026-03-28T09:08:52.613Z</time></trkpt><trkpt lat="45.4124004" lon="10.5408324"><ele>129.0</ele><time>2026-03-28T09:08:53.616Z</time></trkpt><trkpt lat="45.4123218" lon="10.5410552"><ele>129.33333333333334</ele><time>2026-03-28T09:08:54.618Z</time></trkpt><trkpt lat="45.4122245" lon="10.5412514"><ele>129.66666666666669</ele><time>2026-03-28T09:08:55.62Z</time></trkpt><trkpt lat="45.4120883" lon="10.5414613"><ele>130.0</ele><time>2026-03-28T09:08:56.619Z</time></trkpt><trkpt lat="45.4119665" lon="10.5416518"><ele>129.0</ele><time>2026-03-28T09:08:57.622Z</time></trkpt><trkpt lat="45.4118345" lon="10.5418663"><ele>128.0</ele><time>2026-03-28T09:08:58.625Z</time></trkpt><trkpt lat="45.4117354" lon="10.5420946"><ele>127.0</ele><time>2026-03-28T09:08:59.62Z</time></trkpt><trkpt lat="45.4116342" lon="10.5422919"><ele>126.66666666666667</ele><time>2026-03-28T09:09:00.611Z</time></trkpt><trkpt lat="45.411536" lon="10.542527"><ele>126.33333333333334</ele><time>2026-03-28T09:09:01.62Z</time></trkpt><trkpt lat="45.4114371" lon="10.5427542"><ele>126.0</ele><time>2026-03-28T09:09:02.61Z</time></trkpt><trkpt lat="45.411359" lon="10.5429568"><ele>124.0</ele><time>2026-03-28T09:09:03.617Z</time></trkpt><trkpt lat="45.4112692" lon="10.5431239"><ele>122.0</ele><time>2026-03-28T09:09:04.622Z</time></trkpt><trkpt lat="45.4111941" lon="10.543323"><ele>120.0</ele><time>2026-03-28T09:09:05.612Z</time></trkpt><trkpt lat="45.411112" lon="10.5435408"><ele>120.66666666666666</ele><time>2026-03-28T09:09:06.622Z</time></trkpt><trkpt lat="45.4110658" lon="10.5437622"><ele>121.33333333333333</ele><time>2026-03-28T09:09:07.62Z</time></trkpt><trkpt lat="45.4110172" lon="10.5439627"><ele>122.0</ele><time>2026-03-28T09:09:08.614Z</time></trkpt><trkpt lat="45.4109356" lon="10.5441313"><ele>122.0</ele><time>2026-03-28T09:09:09.624Z</time></trkpt><trkpt lat="45.4108224" lon="10.5442938"><ele>122.0</ele><time>2026-03-28T09:09:10.613Z</time></trkpt><trkpt lat="45.4106641" lon="10.5444204"><ele>122.0</ele><time>2026-03-28T09:09:11.617Z</time></trkpt><trkpt lat="45.4105333" lon="10.5445566"><ele>121.66666666666666</ele><time>2026-03-28T09:09:12.622Z</time></trkpt><trkpt lat="45.4104031" lon="10.54472"><ele>121.33333333333334</ele><time>2026-03-28T09:09:13.619Z</time></trkpt><trkpt lat="45.4102599" lon="10.5449088"><ele>121.0</ele><time>2026-03-28T09:09:14.62Z</time></trkpt><trkpt lat="45.4101162" lon="10.5450901"><ele>121.0</ele><time>2026-03-28T09:09:15.626Z</time></trkpt><trkpt lat="45.4099803" lon="10.5452676"><ele>121.0</ele><time>2026-03-28T09:09:16.622Z</time></trkpt><trkpt lat="45.4098349" lon="10.5454156"><ele>121.0</ele><time>2026-03-28T09:09:17.625Z</time></trkpt><trkpt lat="45.4097022" lon="10.5455464"><ele>119.25</ele><time>2026-03-28T09:09:18.621Z</time></trkpt><trkpt lat="45.4095944" lon="10.5456794"><ele>117.5</ele><time>2026-03-28T09:09:19.62Z</time></trkpt><trkpt lat="45.4094564" lon="10.5457792"><ele>115.75</ele><time>2026-03-28T09:09:20.62Z</time></trkpt><trkpt lat="45.4093146" lon="10.5458555"><ele>114.0</ele><time>2026-03-28T09:09:21.618Z</time></trkpt><trkpt lat="45.4091819" lon="10.5458978"><ele>114.0</ele><time>2026-03-28T09:09:22.62Z</time></trkpt><trkpt lat="45.4090273" lon="10.5459205"><ele>114.0</ele><time>2026-03-28T09:09:23.619Z</time></trkpt><trkpt lat="45.4088681" lon="10.5459697"><ele>114.0</ele><time>2026-03-28T09:09:24.615Z</time></trkpt><trkpt lat="45.4087286" lon="10.5460356"><ele>113.33333333333334</ele><time>2026-03-28T09:09:25.618Z</time></trkpt><trkpt lat="45.4086005" lon="10.5461661"><ele>112.66666666666667</ele><time>2026-03-28T09:09:26.618Z</time></trkpt><trkpt lat="45.4084747" lon="10.5463801"><ele>112.0</ele><time>2026-03-28T09:09:27.609Z</time></trkpt><trkpt lat="45.4083458" lon="10.546568"><ele>111.66666666666667</ele><time>2026-03-28T09:09:28.608Z</time></trkpt><trkpt lat="45.4082151" lon="10.5467667"><ele>111.33333333333334</ele><time>2026-03-28T09:09:29.615Z</time></trkpt><trkpt lat="45.4080785" lon="10.5469808"><ele>111.0</ele><time>2026-03-28T09:09:30.613Z</time></trkpt><trkpt lat="45.4079435" lon="10.5472229"><ele>111.0</ele><time>2026-03-28T09:09:31.615Z</time></trkpt><trkpt lat="45.4078294" lon="10.5474832"><ele>111.0</ele><time>2026-03-28T09:09:32.612Z</time></trkpt><trkpt lat="45.407695" lon="10.5477565"><ele>109.5</ele><time>2026-03-28T09:09:33.612Z</time></trkpt><trkpt lat="45.4075725" lon="10.5480434"><ele>108.0</ele><time>2026-03-28T09:09:34.618Z</time></trkpt><trkpt lat="45.4074484" lon="10.5482952"><ele>108.0</ele><time>2026-03-28T09:09:35.616Z</time></trkpt><trkpt lat="45.4073046" lon="10.5485539"><ele>108.0</ele><time>2026-03-28T09:09:36.609Z</time></trkpt><trkpt lat="45.4071733" lon="10.5488109"><ele>108.66666666666666</ele><time>2026-03-28T09:09:37.625Z</time></trkpt><trkpt lat="45.4070509" lon="10.549047"><ele>109.33333333333333</ele><time>2026-03-28T09:09:38.62Z</time></trkpt><trkpt lat="45.4069136" lon="10.5492842"><ele>110.0</ele><time>2026-03-28T09:09:39.616Z</time></trkpt><trkpt lat="45.4067909" lon="10.5495152"><ele>109.33333333333333</ele><time>2026-03-28T09:09:40.63Z</time></trkpt><trkpt lat="45.4066758" lon="10.549708"><ele>108.66666666666666</ele><time>2026-03-28T09:09:41.617Z</time></trkpt><trkpt lat="45.4065729" lon="10.5498702"><ele>108.0</ele><time>2026-03-28T09:09:42.618Z</time></trkpt><trkpt lat="45.4064882" lon="10.5500297"><ele>108.0</ele><time>2026-03-28T09:09:43.621Z</time></trkpt><trkpt lat="45.4064026" lon="10.5501939"><ele>108.0</ele><time>2026-03-28T09:09:44.626Z</time></trkpt><trkpt lat="45.4063194" lon="10.5503553"><ele>108.0</ele><time>2026-03-28T09:09:45.618Z</time></trkpt><trkpt lat="45.4062551" lon="10.5505175"><ele>108.0</ele><time>2026-03-28T09:09:46.625Z</time></trkpt><trkpt lat="45.4061866" lon="10.5507019"><ele>109.0</ele><time>2026-03-28T09:09:47.62Z</time></trkpt><trkpt lat="45.4061065" lon="10.5508673"><ele>110.0</ele><time>2026-03-28T09:09:48.618Z</time></trkpt><trkpt lat="45.4060234" lon="10.5510544"><ele>111.0</ele><time>2026-03-28T09:09:49.619Z</time></trkpt><trkpt lat="45.4059933" lon="10.5512286"><ele>112.0</ele><time>2026-03-28T09:09:50.626Z</time></trkpt><trkpt lat="45.4059912" lon="10.5514466"><ele>112.0</ele><time>2026-03-28T09:09:51.614Z</time></trkpt><trkpt lat="45.4059426" lon="10.551634"><ele>112.0</ele><time>2026-03-28T09:09:52.623Z</time></trkpt><trkpt lat="45.4059081" lon="10.5518436"><ele>112.0</ele><time>2026-03-28T09:09:53.617Z</time></trkpt><trkpt lat="45.4058806" lon="10.5520589"><ele>112.0</ele><time>2026-03-28T09:09:54.609Z</time></trkpt><trkpt lat="45.4058455" lon="10.552257"><ele>111.5</ele><time>2026-03-28T09:09:55.621Z</time></trkpt><trkpt lat="45.4058015" lon="10.552446"><ele>111.0</ele><time>2026-03-28T09:09:56.613Z</time></trkpt><trkpt lat="45.4057662" lon="10.5526064"><ele>110.5</ele><time>2026-03-28T09:09:57.61Z</time></trkpt><trkpt lat="45.4057301" lon="10.5527639"><ele>110.0</ele><time>2026-03-28T09:09:58.622Z</time></trkpt><trkpt lat="45.4056928" lon="10.5529392"><ele>110.75</ele><time>2026-03-28T09:09:59.613Z</time></trkpt><trkpt lat="45.4056195" lon="10.5531067"><ele>111.5</ele><time>2026-03-28T09:10:00.612Z</time></trkpt><trkpt lat="45.405558" lon="10.5532792"><ele>112.25</ele><time>2026-03-28T09:10:01.638Z</time></trkpt><trkpt lat="45.405501" lon="10.5534743"><ele>113.0</ele><time>2026-03-28T09:10:02.629Z</time></trkpt><trkpt lat="45.4054501" lon="10.5536915"><ele>111.66666666666666</ele><time>2026-03-28T09:10:03.62Z</time></trkpt><trkpt lat="45.4053931" lon="10.5539238"><ele>110.33333333333334</ele><time>2026-03-28T09:10:04.629Z</time></trkpt><trkpt lat="45.4053413" lon="10.5541473"><ele>109.0</ele><time>2026-03-28T09:10:05.618Z</time></trkpt><trkpt lat="45.4052714" lon="10.5543973"><ele>108.0</ele><time>2026-03-28T09:10:06.613Z</time></trkpt><trkpt lat="45.4052319" lon="10.5546402"><ele>107.0</ele><time>2026-03-28T09:10:07.613Z</time></trkpt><trkpt lat="45.4051862" lon="10.5548671"><ele>106.0</ele><time>2026-03-28T09:10:08.622Z</time></trkpt><trkpt lat="45.4051513" lon="10.5550997"><ele>106.0</ele><time>2026-03-28T09:10:09.617Z</time></trkpt><trkpt lat="45.4051121" lon="10.5553283"><ele>106.0</ele><time>2026-03-28T09:10:10.625Z</time></trkpt><trkpt lat="45.4050748" lon="10.5555355"><ele>106.0</ele><time>2026-03-28T09:10:11.622Z</time></trkpt><trkpt lat="45.405061" lon="10.5557534"><ele>106.33333333333334</ele><time>2026-03-28T09:10:12.617Z</time></trkpt><trkpt lat="45.4050487" lon="10.5559797"><ele>106.66666666666666</ele><time>2026-03-28T09:10:13.618Z</time></trkpt><trkpt lat="45.4050772" lon="10.5562215"><ele>107.0</ele><time>2026-03-28T09:10:14.623Z</time></trkpt><trkpt lat="45.4051176" lon="10.5564585"><ele>106.33333333333333</ele><time>2026-03-28T09:10:15.615Z</time></trkpt><trkpt lat="45.4051607" lon="10.5566734"><ele>105.66666666666666</ele><time>2026-03-28T09:10:16.625Z</time></trkpt><trkpt lat="45.405224" lon="10.5569009"><ele>105.0</ele><time>2026-03-28T09:10:17.625Z</time></trkpt><trkpt lat="45.4052816" lon="10.5571217"><ele>104.5</ele><time>2026-03-28T09:10:18.624Z</time></trkpt><trkpt lat="45.4053055" lon="10.557309"><ele>104.0</ele><time>2026-03-28T09:10:19.625Z</time></trkpt><trkpt lat="45.4053105" lon="10.557488"><ele>103.5</ele><time>2026-03-28T09:10:20.619Z</time></trkpt><trkpt lat="45.4052772" lon="10.5576767"><ele>103.0</ele><time>2026-03-28T09:10:21.618Z</time></trkpt><trkpt lat="45.4052052" lon="10.5578517"><ele>103.33333333333334</ele><time>2026-03-28T09:10:22.618Z</time></trkpt><trkpt lat="45.4051028" lon="10.5580074"><ele>103.66666666666666</ele><time>2026-03-28T09:10:23.624Z</time></trkpt><trkpt lat="45.4050002" lon="10.5582139"><ele>104.0</ele><time>2026-03-28T09:10:24.621Z</time></trkpt><trkpt lat="45.4049018" lon="10.5584241"><ele>104.0</ele><time>2026-03-28T09:10:25.628Z</time></trkpt><trkpt lat="45.4047809" lon="10.5586445"><ele>104.0</ele><time>2026-03-28T09:10:26.629Z</time></trkpt><trkpt lat="45.4046585" lon="10.5588831"><ele>104.0</ele><time>2026-03-28T09:10:27.629Z</time></trkpt><trkpt lat="45.4045224" lon="10.5591103"><ele>104.33333333333333</ele><time>2026-03-28T09:10:28.631Z</time></trkpt><trkpt lat="45.4043773" lon="10.5593273"><ele>104.66666666666666</ele><time>2026-03-28T09:10:29.628Z</time></trkpt><trkpt lat="45.4042295" lon="10.5595706"><ele>105.0</ele><time>2026-03-28T09:10:30.624Z</time></trkpt><trkpt lat="45.4040865" lon="10.5598234"><ele>105.66666666666666</ele><time>2026-03-28T09:10:31.632Z</time></trkpt><trkpt lat="45.4039377" lon="10.5600333"><ele>106.33333333333333</ele><time>2026-03-28T09:10:32.636Z</time></trkpt><trkpt lat="45.403805" lon="10.5602047"><ele>107.0</ele><time>2026-03-28T09:10:33.627Z</time></trkpt><trkpt lat="45.4037003" lon="10.560374"><ele>107.0</ele><time>2026-03-28T09:10:34.635Z</time></trkpt><trkpt lat="45.4036031" lon="10.5605552"><ele>107.0</ele><time>2026-03-28T09:10:35.625Z</time></trkpt><trkpt lat="45.4035302" lon="10.5607155"><ele>107.0</ele><time>2026-03-28T09:10:36.622Z</time></trkpt><trkpt lat="45.4034744" lon="10.5609056"><ele>107.0</ele><time>2026-03-28T09:10:37.623Z</time></trkpt><trkpt lat="45.4034358" lon="10.5611278"><ele>108.33333333333333</ele><time>2026-03-28T09:10:38.624Z</time></trkpt><trkpt lat="45.4034013" lon="10.5613737"><ele>109.66666666666666</ele><time>2026-03-28T09:10:39.62Z</time></trkpt><trkpt lat="45.4033444" lon="10.5616093"><ele>111.0</ele><time>2026-03-28T09:10:40.626Z</time></trkpt><trkpt lat="45.4032812" lon="10.561825"><ele>110.0</ele><time>2026-03-28T09:10:41.628Z</time></trkpt><trkpt lat="45.4031804" lon="10.5620475"><ele>109.0</ele><time>2026-03-28T09:10:42.614Z</time></trkpt><trkpt lat="45.4030473" lon="10.5622591"><ele>108.0</ele><time>2026-03-28T09:10:43.627Z</time></trkpt><trkpt lat="45.4029263" lon="10.5624465"><ele>108.0</ele><time>2026-03-28T09:10:44.62Z</time></trkpt><trkpt lat="45.4028165" lon="10.5626591"><ele>108.0</ele><time>2026-03-28T09:10:45.623Z</time></trkpt><trkpt lat="45.4026971" lon="10.562854"><ele>108.0</ele><time>2026-03-28T09:10:46.626Z</time></trkpt><trkpt lat="45.4026196" lon="10.5630823"><ele>108.66666666666666</ele><time>2026-03-28T09:10:47.62Z</time></trkpt><trkpt lat="45.4025443" lon="10.5633391"><ele>109.33333333333333</ele><time>2026-03-28T09:10:48.625Z</time></trkpt><trkpt lat="45.4024433" lon="10.5635746"><ele>110.0</ele><time>2026-03-28T09:10:49.625Z</time></trkpt><trkpt lat="45.4023341" lon="10.5638109"><ele>108.66666666666666</ele><time>2026-03-28T09:10:50.622Z</time></trkpt><trkpt lat="45.4022125" lon="10.5640207"><ele>107.33333333333334</ele><time>2026-03-28T09:10:51.621Z</time></trkpt><trkpt lat="45.4021061" lon="10.564236"><ele>106.0</ele><time>2026-03-28T09:10:52.621Z</time></trkpt><trkpt lat="45.4020055" lon="10.564448"><ele>107.0</ele><time>2026-03-28T09:10:53.621Z</time></trkpt><trkpt lat="45.4019016" lon="10.564641"><ele>108.0</ele><time>2026-03-28T09:10:54.621Z</time></trkpt><trkpt lat="45.4017874" lon="10.5648394"><ele>109.0</ele><time>2026-03-28T09:10:55.621Z</time></trkpt><trkpt lat="45.4016473" lon="10.5650325"><ele>109.0</ele><time>2026-03-28T09:10:56.618Z</time></trkpt><trkpt lat="45.401514" lon="10.5652235"><ele>109.0</ele><time>2026-03-28T09:10:57.622Z</time></trkpt><trkpt lat="45.401405" lon="10.5654178"><ele>109.0</ele><time>2026-03-28T09:10:58.619Z</time></trkpt><trkpt lat="45.4013052" lon="10.5656033"><ele>108.0</ele><time>2026-03-28T09:10:59.621Z</time></trkpt><trkpt lat="45.4012161" lon="10.5657869"><ele>107.0</ele><time>2026-03-28T09:11:00.621Z</time></trkpt><trkpt lat="45.4011264" lon="10.5659785"><ele>106.0</ele><time>2026-03-28T09:11:01.624Z</time></trkpt><trkpt lat="45.4010399" lon="10.5661777"><ele>107.66666666666667</ele><time>2026-03-28T09:11:02.623Z</time></trkpt><trkpt lat="45.4009341" lon="10.5663763"><ele>109.33333333333334</ele><time>2026-03-28T09:11:03.618Z</time></trkpt><trkpt lat="45.4008431" lon="10.566577"><ele>111.0</ele><time>2026-03-28T09:11:04.627Z</time></trkpt><trkpt lat="45.4007452" lon="10.5667981"><ele>111.0</ele><time>2026-03-28T09:11:05.617Z</time></trkpt><trkpt lat="45.4006237" lon="10.5669967"><ele>111.0</ele><time>2026-03-28T09:11:06.624Z</time></trkpt><trkpt lat="45.4004822" lon="10.5671782"><ele>111.0</ele><time>2026-03-28T09:11:07.626Z</time></trkpt><trkpt lat="45.4003379" lon="10.5673607"><ele>111.0</ele><time>2026-03-28T09:11:08.629Z</time></trkpt><trkpt lat="45.4002155" lon="10.5675511"><ele>111.0</ele><time>2026-03-28T09:11:09.631Z</time></trkpt><trkpt lat="45.4000958" lon="10.5677843"><ele>111.0</ele><time>2026-03-28T09:11:10.618Z</time></trkpt><trkpt lat="45.3999843" lon="10.5680125"><ele>111.0</ele><time>2026-03-28T09:11:11.624Z</time></trkpt><trkpt lat="45.3998887" lon="10.5682074"><ele>111.0</ele><time>2026-03-28T09:11:12.624Z</time></trkpt><trkpt lat="45.3998262" lon="10.56836"><ele>111.0</ele><time>2026-03-28T09:11:13.631Z</time></trkpt><trkpt lat="45.3997667" lon="10.5684868"><ele>111.0</ele><time>2026-03-28T09:11:14.629Z</time></trkpt><trkpt lat="45.3997105" lon="10.5686054"><ele>111.75</ele><time>2026-03-28T09:11:15.629Z</time></trkpt><trkpt lat="45.3996593" lon="10.5687218"><ele>112.5</ele><time>2026-03-28T09:11:16.629Z</time></trkpt><trkpt lat="45.3996021" lon="10.5688298"><ele>113.25</ele><time>2026-03-28T09:11:17.623Z</time></trkpt><trkpt lat="45.3995177" lon="10.5689816"><ele>114.0</ele><time>2026-03-28T09:11:18.623Z</time></trkpt><trkpt lat="45.399419" lon="10.5691447"><ele>114.0</ele><time>2026-03-28T09:11:19.623Z</time></trkpt><trkpt lat="45.3993126" lon="10.5692777"><ele>114.0</ele><time>2026-03-28T09:11:20.627Z</time></trkpt><trkpt lat="45.3992031" lon="10.5694261"><ele>114.0</ele><time>2026-03-28T09:11:21.62Z</time></trkpt><trkpt lat="45.399075" lon="10.5695908"><ele>115.0</ele><time>2026-03-28T09:11:22.626Z</time></trkpt><trkpt lat="45.3989588" lon="10.5697867"><ele>116.0</ele><time>2026-03-28T09:11:23.623Z</time></trkpt><trkpt lat="45.3988294" lon="10.5699812"><ele>117.0</ele><time>2026-03-28T09:11:24.629Z</time></trkpt><trkpt lat="45.398694" lon="10.5701744"><ele>117.66666666666666</ele><time>2026-03-28T09:11:25.632Z</time></trkpt><trkpt lat="45.3985651" lon="10.5703639"><ele>118.33333333333333</ele><time>2026-03-28T09:11:26.626Z</time></trkpt><trkpt lat="45.3984469" lon="10.5705562"><ele>119.0</ele><time>2026-03-28T09:11:27.623Z</time></trkpt><trkpt lat="45.3983078" lon="10.570708"><ele>119.0</ele><time>2026-03-28T09:11:28.62Z</time></trkpt><trkpt lat="45.3981836" lon="10.5708633"><ele>119.0</ele><time>2026-03-28T09:11:29.626Z</time></trkpt><trkpt lat="45.3980352" lon="10.5710075"><ele>119.0</ele><time>2026-03-28T09:11:30.633Z</time></trkpt><trkpt lat="45.3978929" lon="10.5711669"><ele>118.66666666666666</ele><time>2026-03-28T09:11:31.618Z</time></trkpt><trkpt lat="45.3977263" lon="10.5713366"><ele>118.33333333333334</ele><time>2026-03-28T09:11:32.624Z</time></trkpt><trkpt lat="45.3975474" lon="10.5715152"><ele>118.0</ele><time>2026-03-28T09:11:33.624Z</time></trkpt><trkpt lat="45.3973793" lon="10.5717143"><ele>118.0</ele><time>2026-03-28T09:11:34.613Z</time></trkpt><trkpt lat="45.3972038" lon="10.5719054"><ele>118.0</ele><time>2026-03-28T09:11:35.621Z</time></trkpt><trkpt lat="45.3970264" lon="10.5721009"><ele>118.0</ele><time>2026-03-28T09:11:36.628Z</time></trkpt><trkpt lat="45.3968822" lon="10.5722838"><ele>117.66666666666667</ele><time>2026-03-28T09:11:37.626Z</time></trkpt><trkpt lat="45.3967318" lon="10.5724646"><ele>117.33333333333334</ele><time>2026-03-28T09:11:38.626Z</time></trkpt><trkpt lat="45.3965834" lon="10.5726129"><ele>117.0</ele><time>2026-03-28T09:11:39.635Z</time></trkpt><trkpt lat="45.3964299" lon="10.5727788"><ele>117.66666666666666</ele><time>2026-03-28T09:11:40.624Z</time></trkpt><trkpt lat="45.3962715" lon="10.5729267"><ele>118.33333333333333</ele><time>2026-03-28T09:11:41.625Z</time></trkpt><trkpt lat="45.3961342" lon="10.5730643"><ele>119.0</ele><time>2026-03-28T09:11:42.621Z</time></trkpt><trkpt lat="45.395991" lon="10.5731597"><ele>119.0</ele><time>2026-03-28T09:11:43.621Z</time></trkpt><trkpt lat="45.395817" lon="10.5732478"><ele>119.0</ele><time>2026-03-28T09:11:44.631Z</time></trkpt><trkpt lat="45.395642" lon="10.5733384"><ele>119.0</ele><time>2026-03-28T09:11:45.63Z</time></trkpt><trkpt lat="45.3954801" lon="10.5734148"><ele>119.0</ele><time>2026-03-28T09:11:46.625Z</time></trkpt><trkpt lat="45.3953175" lon="10.5735563"><ele>119.0</ele><time>2026-03-28T09:11:47.627Z</time></trkpt><trkpt lat="45.3951604" lon="10.5736859"><ele>119.0</ele><time>2026-03-28T09:11:48.624Z</time></trkpt><trkpt lat="45.3950154" lon="10.5739031"><ele>119.0</ele><time>2026-03-28T09:11:49.623Z</time></trkpt><trkpt lat="45.3948595" lon="10.5740823"><ele>119.0</ele><time>2026-03-28T09:11:50.634Z</time></trkpt><trkpt lat="45.3946822" lon="10.574289"><ele>119.0</ele><time>2026-03-28T09:11:51.622Z</time></trkpt><trkpt lat="45.3945154" lon="10.5744782"><ele>119.0</ele><time>2026-03-28T09:11:52.626Z</time></trkpt><trkpt lat="45.3943569" lon="10.5746844"><ele>119.0</ele><time>2026-03-28T09:11:53.626Z</time></trkpt><trkpt lat="45.394194" lon="10.5748776"><ele>119.0</ele><time>2026-03-28T09:11:54.626Z</time></trkpt><trkpt lat="45.3940395" lon="10.5750635"><ele>119.0</ele><time>2026-03-28T09:11:55.623Z</time></trkpt><trkpt lat="45.3939044" lon="10.5752481"><ele>119.0</ele><time>2026-03-28T09:11:56.625Z</time></trkpt><trkpt lat="45.3937559" lon="10.5754305"><ele>119.0</ele><time>2026-03-28T09:11:57.627Z</time></trkpt><trkpt lat="45.3936234" lon="10.575613"><ele>118.66666666666666</ele><time>2026-03-28T09:11:58.627Z</time></trkpt><trkpt lat="45.3935147" lon="10.5757915"><ele>118.33333333333334</ele><time>2026-03-28T09:11:59.63Z</time></trkpt><trkpt lat="45.3934129" lon="10.5760182"><ele>118.0</ele><time>2026-03-28T09:12:00.624Z</time></trkpt><trkpt lat="45.3932905" lon="10.5762635"><ele>118.66666666666667</ele><time>2026-03-28T09:12:01.628Z</time></trkpt><trkpt lat="45.3931689" lon="10.5765302"><ele>119.33333333333334</ele><time>2026-03-28T09:12:02.63Z</time></trkpt><trkpt lat="45.3930475" lon="10.5767683"><ele>120.0</ele><time>2026-03-28T09:12:03.627Z</time></trkpt><trkpt lat="45.3929473" lon="10.5769822"><ele>119.33333333333334</ele><time>2026-03-28T09:12:04.624Z</time></trkpt><trkpt lat="45.3928423" lon="10.577201"><ele>118.66666666666667</ele><time>2026-03-28T09:12:05.634Z</time></trkpt><trkpt lat="45.3927308" lon="10.5774116"><ele>118.0</ele><time>2026-03-28T09:12:06.626Z</time></trkpt><trkpt lat="45.3925995" lon="10.5776165"><ele>118.0</ele><time>2026-03-28T09:12:07.627Z</time></trkpt><trkpt lat="45.3924653" lon="10.5778286"><ele>118.0</ele><time>2026-03-28T09:12:08.631Z</time></trkpt><trkpt lat="45.3923364" lon="10.5780337"><ele>118.0</ele><time>2026-03-28T09:12:09.626Z</time></trkpt><trkpt lat="45.3921948" lon="10.5782307"><ele>117.66666666666667</ele><time>2026-03-28T09:12:10.615Z</time></trkpt><trkpt lat="45.3920651" lon="10.5784088"><ele>117.33333333333334</ele><time>2026-03-28T09:12:11.62Z</time></trkpt><trkpt lat="45.3919542" lon="10.5785737"><ele>117.0</ele><time>2026-03-28T09:12:12.624Z</time></trkpt><trkpt lat="45.3918398" lon="10.5787377"><ele>117.0</ele><time>2026-03-28T09:12:13.626Z</time></trkpt><trkpt lat="45.3917173" lon="10.5788806"><ele>117.0</ele><time>2026-03-28T09:12:14.632Z</time></trkpt><trkpt lat="45.391601" lon="10.5790167"><ele>117.0</ele><time>2026-03-28T09:12:15.629Z</time></trkpt><trkpt lat="45.3914783" lon="10.5791467"><ele>117.0</ele><time>2026-03-28T09:12:16.633Z</time></trkpt><trkpt lat="45.391355" lon="10.5792638"><ele>117.0</ele><time>2026-03-28T09:12:17.634Z</time></trkpt><trkpt lat="45.3912357" lon="10.5793852"><ele>117.0</ele><time>2026-03-28T09:12:18.631Z</time></trkpt><trkpt lat="45.3911259" lon="10.5794914"><ele>117.0</ele><time>2026-03-28T09:12:19.626Z</time></trkpt><trkpt lat="45.3910406" lon="10.5796178"><ele>118.0</ele><time>2026-03-28T09:12:20.625Z</time></trkpt><trkpt lat="45.3909674" lon="10.5797175"><ele>118.99999999999999</ele><time>2026-03-28T09:12:21.622Z</time></trkpt><trkpt lat="45.390931" lon="10.5798553"><ele>119.99999999999999</ele><time>2026-03-28T09:12:22.626Z</time></trkpt><trkpt lat="45.3909208" lon="10.579985"><ele>121.0</ele><time>2026-03-28T09:12:23.62Z</time></trkpt><trkpt lat="45.3909016" lon="10.5800856"><ele>122.0</ele><time>2026-03-28T09:12:24.619Z</time></trkpt><trkpt lat="45.3908498" lon="10.5802136"><ele>121.99999999999999</ele><time>2026-03-28T09:12:26.611Z</time></trkpt><trkpt lat="45.3908642" lon="10.5803225"><ele>122.0</ele><time>2026-03-28T09:12:28.624Z</time></trkpt><trkpt lat="45.3909687" lon="10.5804163"><ele>122.0</ele><time>2026-03-28T09:12:30.627Z</time></trkpt><trkpt lat="45.3910237" lon="10.58046"><ele>122.0</ele><time>2026-03-28T09:12:31.623Z</time></trkpt><trkpt lat="45.3910502" lon="10.5805443"><ele>121.99999999999999</ele><time>2026-03-28T09:12:33.618Z</time></trkpt><trkpt lat="45.3910631" lon="10.5806926"><ele>122.0</ele><time>2026-03-28T09:12:35.632Z</time></trkpt><trkpt lat="45.3910484" lon="10.5808135"><ele>122.0</ele><time>2026-03-28T09:12:36.63Z</time></trkpt><trkpt lat="45.3910169" lon="10.5809658"><ele>122.0</ele><time>2026-03-28T09:12:37.626Z</time></trkpt><trkpt lat="45.3909696" lon="10.5811444"><ele>122.0</ele><time>2026-03-28T09:12:38.618Z</time></trkpt><trkpt lat="45.3909117" lon="10.5813093"><ele>122.0</ele><time>2026-03-28T09:12:39.616Z</time></trkpt><trkpt lat="45.3908367" lon="10.5814644"><ele>121.0</ele><time>2026-03-28T09:12:40.616Z</time></trkpt><trkpt lat="45.3907595" lon="10.5816086"><ele>120.0</ele><time>2026-03-28T09:12:41.621Z</time></trkpt><trkpt lat="45.3906765" lon="10.5817248"><ele>119.0</ele><time>2026-03-28T09:12:42.62Z</time></trkpt><trkpt lat="45.390603" lon="10.5818768"><ele>118.0</ele><time>2026-03-28T09:12:43.624Z</time></trkpt><trkpt lat="45.3905348" lon="10.582019"><ele>118.0</ele><time>2026-03-28T09:12:44.628Z</time></trkpt><trkpt lat="45.390473" lon="10.5821755"><ele>118.0</ele><time>2026-03-28T09:12:45.633Z</time></trkpt><trkpt lat="45.3904127" lon="10.5823257"><ele>118.0</ele><time>2026-03-28T09:12:46.62Z</time></trkpt><trkpt lat="45.3903532" lon="10.5824654"><ele>118.0</ele><time>2026-03-28T09:12:47.628Z</time></trkpt><trkpt lat="45.3902864" lon="10.5825931"><ele>118.0</ele><time>2026-03-28T09:12:48.63Z</time></trkpt><trkpt lat="45.3902211" lon="10.5827207"><ele>118.00000000000001</ele><time>2026-03-28T09:12:49.634Z</time></trkpt><trkpt lat="45.3901582" lon="10.5828482"><ele>118.00000000000001</ele><time>2026-03-28T09:12:50.634Z</time></trkpt><trkpt lat="45.3900923" lon="10.5829776"><ele>118.0</ele><time>2026-03-28T09:12:51.63Z</time></trkpt><trkpt lat="45.3900299" lon="10.5831124"><ele>118.0</ele><time>2026-03-28T09:12:52.635Z</time></trkpt><trkpt lat="45.3899699" lon="10.5832319"><ele>118.2</ele><time>2026-03-28T09:12:53.63Z</time></trkpt><trkpt lat="45.389919" lon="10.5833409"><ele>118.4</ele><time>2026-03-28T09:12:54.629Z</time></trkpt><trkpt lat="45.3898709" lon="10.5834433"><ele>118.60000000000001</ele><time>2026-03-28T09:12:55.63Z</time></trkpt><trkpt lat="45.3898171" lon="10.5835487"><ele>118.80000000000001</ele><time>2026-03-28T09:12:56.619Z</time></trkpt><trkpt lat="45.389758" lon="10.5836549"><ele>119.0</ele><time>2026-03-28T09:12:57.625Z</time></trkpt><trkpt lat="45.3896998" lon="10.5837638"><ele>117.0</ele><time>2026-03-28T09:12:58.628Z</time></trkpt><trkpt lat="45.3896394" lon="10.5838784"><ele>115.0</ele><time>2026-03-28T09:12:59.623Z</time></trkpt><trkpt lat="45.3895791" lon="10.5839977"><ele>113.0</ele><time>2026-03-28T09:13:00.619Z</time></trkpt><trkpt lat="45.3895095" lon="10.5841347"><ele>111.0</ele><time>2026-03-28T09:13:01.628Z</time></trkpt><trkpt lat="45.3894488" lon="10.584304"><ele>111.0</ele><time>2026-03-28T09:13:02.626Z</time></trkpt><trkpt lat="45.389382" lon="10.58448"><ele>111.0</ele><time>2026-03-28T09:13:03.624Z</time></trkpt><trkpt lat="45.3893082" lon="10.5847053"><ele>111.0</ele><time>2026-03-28T09:13:04.627Z</time></trkpt><trkpt lat="45.3892642" lon="10.5849125"><ele>110.5</ele><time>2026-03-28T09:13:05.632Z</time></trkpt><trkpt lat="45.3892082" lon="10.5851244"><ele>110.0</ele><time>2026-03-28T09:13:06.633Z</time></trkpt><trkpt lat="45.3891683" lon="10.5853313"><ele>109.5</ele><time>2026-03-28T09:13:07.632Z</time></trkpt><trkpt lat="45.3891228" lon="10.585504"><ele>109.0</ele><time>2026-03-28T09:13:08.634Z</time></trkpt><trkpt lat="45.389067" lon="10.5856858"><ele>108.33333333333334</ele><time>2026-03-28T09:13:09.63Z</time></trkpt><trkpt lat="45.3889979" lon="10.585858"><ele>107.66666666666666</ele><time>2026-03-28T09:13:10.635Z</time></trkpt><trkpt lat="45.3889121" lon="10.5860589"><ele>107.0</ele><time>2026-03-28T09:13:11.63Z</time></trkpt><trkpt lat="45.388838" lon="10.5862714"><ele>104.66666666666666</ele><time>2026-03-28T09:13:12.625Z</time></trkpt><trkpt lat="45.3887711" lon="10.5864948"><ele>102.33333333333334</ele><time>2026-03-28T09:13:13.626Z</time></trkpt><trkpt lat="45.3887331" lon="10.586716"><ele>100.0</ele><time>2026-03-28T09:13:14.627Z</time></trkpt><trkpt lat="45.3887212" lon="10.5868848"><ele>100.0</ele><time>2026-03-28T09:13:15.623Z</time></trkpt><trkpt lat="45.3886843" lon="10.5870457"><ele>100.0</ele><time>2026-03-28T09:13:16.629Z</time></trkpt><trkpt lat="45.388655" lon="10.5871479"><ele>100.0</ele><time>2026-03-28T09:13:17.618Z</time></trkpt><trkpt lat="45.388599" lon="10.5872151"><ele>100.0</ele><time>2026-03-28T09:13:18.627Z</time></trkpt><trkpt lat="45.3885084" lon="10.587236"><ele>100.0</ele><time>2026-03-28T09:13:19.625Z</time></trkpt><trkpt lat="45.3884178" lon="10.587237"><ele>100.0</ele><time>2026-03-28T09:13:20.623Z</time></trkpt><trkpt lat="45.3883102" lon="10.5872327"><ele>100.0</ele><time>2026-03-28T09:13:21.624Z</time></trkpt><trkpt lat="45.388201" lon="10.587185"><ele>100.0</ele><time>2026-03-28T09:13:22.616Z</time></trkpt><trkpt lat="45.3880922" lon="10.5871074"><ele>100.0</ele><time>2026-03-28T09:13:23.616Z</time></trkpt><trkpt lat="45.3879634" lon="10.5870107"><ele>100.33333333333334</ele><time>2026-03-28T09:13:24.616Z</time></trkpt><trkpt lat="45.3878017" lon="10.5868933"><ele>100.66666666666666</ele><time>2026-03-28T09:13:25.625Z</time></trkpt><trkpt lat="45.3876534" lon="10.5867766"><ele>101.0</ele><time>2026-03-28T09:13:26.622Z</time></trkpt><trkpt lat="45.3875017" lon="10.586643"><ele>101.0</ele><time>2026-03-28T09:13:27.625Z</time></trkpt><trkpt lat="45.3873599" lon="10.5865568"><ele>101.0</ele><time>2026-03-28T09:13:28.627Z</time></trkpt><trkpt lat="45.3872268" lon="10.5864754"><ele>101.0</ele><time>2026-03-28T09:13:29.719Z</time></trkpt><trkpt lat="45.38707" lon="10.5863739"><ele>102.0</ele><time>2026-03-28T09:13:30.626Z</time></trkpt><trkpt lat="45.3869275" lon="10.5862805"><ele>103.0</ele><time>2026-03-28T09:13:31.624Z</time></trkpt><trkpt lat="45.3868197" lon="10.5862152"><ele>104.0</ele><time>2026-03-28T09:13:32.634Z</time></trkpt><trkpt lat="45.3866878" lon="10.5861351"><ele>105.0</ele><time>2026-03-28T09:13:33.626Z</time></trkpt><trkpt lat="45.3865627" lon="10.5860735"><ele>105.0</ele><time>2026-03-28T09:13:34.628Z</time></trkpt><trkpt lat="45.38644" lon="10.5860153"><ele>105.0</ele><time>2026-03-28T09:13:35.63Z</time></trkpt><trkpt lat="45.3862993" lon="10.5859386"><ele>105.0</ele><time>2026-03-28T09:13:36.623Z</time></trkpt><trkpt lat="45.3861884" lon="10.5859074"><ele>105.0</ele><time>2026-03-28T09:13:37.624Z</time></trkpt><trkpt lat="45.3860328" lon="10.5858941"><ele>105.5</ele><time>2026-03-28T09:13:38.618Z</time></trkpt><trkpt lat="45.385867" lon="10.5858654"><ele>106.0</ele><time>2026-03-28T09:13:39.628Z</time></trkpt><trkpt lat="45.3857469" lon="10.585853"><ele>106.5</ele><time>2026-03-28T09:13:40.626Z</time></trkpt><trkpt lat="45.3856069" lon="10.5858604"><ele>107.0</ele><time>2026-03-28T09:13:41.627Z</time></trkpt><trkpt lat="45.3854557" lon="10.5858913"><ele>107.0</ele><time>2026-03-28T09:13:42.628Z</time></trkpt><trkpt lat="45.3852783" lon="10.5859135"><ele>107.0</ele><time>2026-03-28T09:13:43.626Z</time></trkpt><trkpt lat="45.3850982" lon="10.5858989"><ele>107.0</ele><time>2026-03-28T09:13:44.62Z</time></trkpt><trkpt lat="45.3849301" lon="10.5859596"><ele>107.0</ele><time>2026-03-28T09:13:45.63Z</time></trkpt><trkpt lat="45.384759" lon="10.5859614"><ele>107.0</ele><time>2026-03-28T09:13:46.62Z</time></trkpt><trkpt lat="45.384629" lon="10.5859541"><ele>107.0</ele><time>2026-03-28T09:13:47.631Z</time></trkpt><trkpt lat="45.384494" lon="10.5859281"><ele>107.0</ele><time>2026-03-28T09:13:48.627Z</time></trkpt><trkpt lat="45.3843511" lon="10.5859358"><ele>106.25</ele><time>2026-03-28T09:13:49.629Z</time></trkpt><trkpt lat="45.3842065" lon="10.5859538"><ele>105.5</ele><time>2026-03-28T09:13:50.63Z</time></trkpt><trkpt lat="45.3840658" lon="10.5859244"><ele>104.75</ele><time>2026-03-28T09:13:51.63Z</time></trkpt><trkpt lat="45.3839329" lon="10.585895"><ele>104.0</ele><time>2026-03-28T09:13:52.627Z</time></trkpt><trkpt lat="45.3837868" lon="10.5858421"><ele>103.75</ele><time>2026-03-28T09:13:53.627Z</time></trkpt><trkpt lat="45.3836725" lon="10.5857318"><ele>103.5</ele><time>2026-03-28T09:13:54.63Z</time></trkpt><trkpt lat="45.3835519" lon="10.5856586"><ele>103.25</ele><time>2026-03-28T09:13:55.632Z</time></trkpt><trkpt lat="45.383421" lon="10.5856019"><ele>103.0</ele><time>2026-03-28T09:13:56.632Z</time></trkpt><trkpt lat="45.3833021" lon="10.585524"><ele>103.0</ele><time>2026-03-28T09:13:57.631Z</time></trkpt><trkpt lat="45.3831724" lon="10.5854331"><ele>103.0</ele><time>2026-03-28T09:13:58.633Z</time></trkpt><trkpt lat="45.3830589" lon="10.5853433"><ele>103.0</ele><time>2026-03-28T09:13:59.631Z</time></trkpt><trkpt lat="45.3829312" lon="10.5852549"><ele>103.0</ele><time>2026-03-28T09:14:00.634Z</time></trkpt><trkpt lat="45.3828183" lon="10.5851369"><ele>103.5</ele><time>2026-03-28T09:14:01.635Z</time></trkpt><trkpt lat="45.3826935" lon="10.5850484"><ele>104.0</ele><time>2026-03-28T09:14:02.638Z</time></trkpt><trkpt lat="45.3825631" lon="10.5849114"><ele>104.5</ele><time>2026-03-28T09:14:03.633Z</time></trkpt><trkpt lat="45.382444" lon="10.5847867"><ele>105.0</ele><time>2026-03-28T09:14:04.636Z</time></trkpt><trkpt lat="45.3823541" lon="10.5846853"><ele>105.0</ele><time>2026-03-28T09:14:05.636Z</time></trkpt><trkpt lat="45.3822583" lon="10.5845996"><ele>105.0</ele><time>2026-03-28T09:14:06.628Z</time></trkpt><trkpt lat="45.3821883" lon="10.5845225"><ele>105.0</ele><time>2026-03-28T09:14:07.625Z</time></trkpt><trkpt lat="45.3821292" lon="10.5844755"><ele>105.0</ele><time>2026-03-28T09:14:08.638Z</time></trkpt><trkpt lat="45.3820635" lon="10.5844232"><ele>105.0</ele><time>2026-03-28T09:14:09.625Z</time></trkpt><trkpt lat="45.3819573" lon="10.5843725"><ele>105.33333333333333</ele><time>2026-03-28T09:14:11.635Z</time></trkpt><trkpt lat="45.3818212" lon="10.5843455"><ele>105.66666666666666</ele><time>2026-03-28T09:14:13.63Z</time></trkpt><trkpt lat="45.3817492" lon="10.5843748"><ele>106.0</ele><time>2026-03-28T09:14:14.63Z</time></trkpt><trkpt lat="45.3816863" lon="10.5844213"><ele>106.33333333333333</ele><time>2026-03-28T09:14:15.627Z</time></trkpt><trkpt lat="45.3816399" lon="10.5844872"><ele>106.66666666666666</ele><time>2026-03-28T09:14:16.62Z</time></trkpt><trkpt lat="45.381591" lon="10.5845798"><ele>107.0</ele><time>2026-03-28T09:14:17.622Z</time></trkpt><trkpt lat="45.3815499" lon="10.5847084"><ele>107.5</ele><time>2026-03-28T09:14:18.628Z</time></trkpt><trkpt lat="45.3815411" lon="10.5848691"><ele>108.0</ele><time>2026-03-28T09:14:19.62Z</time></trkpt><trkpt lat="45.3815443" lon="10.5850458"><ele>108.5</ele><time>2026-03-28T09:14:20.624Z</time></trkpt><trkpt lat="45.381549" lon="10.5852306"><ele>109.0</ele><time>2026-03-28T09:14:21.633Z</time></trkpt><trkpt lat="45.3815485" lon="10.5854314"><ele>109.33333333333334</ele><time>2026-03-28T09:14:22.637Z</time></trkpt><trkpt lat="45.3815487" lon="10.5856389"><ele>109.66666666666666</ele><time>2026-03-28T09:14:23.643Z</time></trkpt><trkpt lat="45.3815395" lon="10.5858836"><ele>110.0</ele><time>2026-03-28T09:14:24.637Z</time></trkpt><trkpt lat="45.381528" lon="10.5861027"><ele>110.5</ele><time>2026-03-28T09:14:25.639Z</time></trkpt><trkpt lat="45.38154" lon="10.5863038"><ele>111.0</ele><time>2026-03-28T09:14:26.638Z</time></trkpt><trkpt lat="45.3815413" lon="10.5864891"><ele>111.5</ele><time>2026-03-28T09:14:27.634Z</time></trkpt><trkpt lat="45.3815438" lon="10.5866688"><ele>112.0</ele><time>2026-03-28T09:14:28.63Z</time></trkpt><trkpt lat="45.3815469" lon="10.5868545"><ele>113.0</ele><time>2026-03-28T09:14:29.635Z</time></trkpt><trkpt lat="45.3815458" lon="10.5870391"><ele>114.0</ele><time>2026-03-28T09:14:30.633Z</time></trkpt><trkpt lat="45.3815454" lon="10.5872168"><ele>115.0</ele><time>2026-03-28T09:14:31.638Z</time></trkpt><trkpt lat="45.3815483" lon="10.5874017"><ele>116.0</ele><time>2026-03-28T09:14:32.633Z</time></trkpt><trkpt lat="45.3815488" lon="10.5875845"><ele>116.0</ele><time>2026-03-28T09:14:33.634Z</time></trkpt><trkpt lat="45.3815518" lon="10.5877635"><ele>116.0</ele><time>2026-03-28T09:14:34.633Z</time></trkpt><trkpt lat="45.3815523" lon="10.5879544"><ele>116.0</ele><time>2026-03-28T09:14:35.63Z</time></trkpt><trkpt lat="45.3815511" lon="10.5881523"><ele>116.0</ele><time>2026-03-28T09:14:36.627Z</time></trkpt><trkpt lat="45.381549" lon="10.5883458"><ele>116.5</ele><time>2026-03-28T09:14:37.63Z</time></trkpt><trkpt lat="45.3815504" lon="10.5885416"><ele>117.0</ele><time>2026-03-28T09:14:38.626Z</time></trkpt><trkpt lat="45.3815523" lon="10.5887382"><ele>117.5</ele><time>2026-03-28T09:14:39.633Z</time></trkpt><trkpt lat="45.3815711" lon="10.5889408"><ele>118.0</ele><time>2026-03-28T09:14:40.635Z</time></trkpt><trkpt lat="45.3815677" lon="10.5891336"><ele>118.5</ele><time>2026-03-28T09:14:41.633Z</time></trkpt><trkpt lat="45.3815751" lon="10.589316"><ele>119.0</ele><time>2026-03-28T09:14:42.633Z</time></trkpt><trkpt lat="45.3815698" lon="10.5895003"><ele>119.5</ele><time>2026-03-28T09:14:43.634Z</time></trkpt><trkpt lat="45.3815468" lon="10.58968"><ele>120.0</ele><time>2026-03-28T09:14:44.633Z</time></trkpt><trkpt lat="45.381532" lon="10.5898742"><ele>120.5</ele><time>2026-03-28T09:14:45.63Z</time></trkpt><trkpt lat="45.3815199" lon="10.5900529"><ele>121.0</ele><time>2026-03-28T09:14:46.629Z</time></trkpt><trkpt lat="45.3815082" lon="10.5902241"><ele>121.5</ele><time>2026-03-28T09:14:47.627Z</time></trkpt><trkpt lat="45.3814872" lon="10.5903781"><ele>122.0</ele><time>2026-03-28T09:14:48.625Z</time></trkpt><trkpt lat="45.3814601" lon="10.5905157"><ele>122.6</ele><time>2026-03-28T09:14:49.625Z</time></trkpt><trkpt lat="45.381417" lon="10.5906485"><ele>123.19999999999999</ele><time>2026-03-28T09:14:50.611Z</time></trkpt><trkpt lat="45.3813559" lon="10.5907655"><ele>123.8</ele><time>2026-03-28T09:14:51.627Z</time></trkpt><trkpt lat="45.3812746" lon="10.5908838"><ele>124.4</ele><time>2026-03-28T09:14:52.626Z</time></trkpt><trkpt lat="45.381184" lon="10.5910126"><ele>125.0</ele><time>2026-03-28T09:14:53.624Z</time></trkpt><trkpt lat="45.3810834" lon="10.591151"><ele>126.0</ele><time>2026-03-28T09:14:54.626Z</time></trkpt><trkpt lat="45.3809653" lon="10.5912734"><ele>127.0</ele><time>2026-03-28T09:14:55.633Z</time></trkpt><trkpt lat="45.3808494" lon="10.5913905"><ele>128.0</ele><time>2026-03-28T09:14:56.63Z</time></trkpt><trkpt lat="45.3807416" lon="10.5915225"><ele>129.0</ele><time>2026-03-28T09:14:57.629Z</time></trkpt><trkpt lat="45.3806454" lon="10.5916551"><ele>129.0</ele><time>2026-03-28T09:14:58.623Z</time></trkpt><trkpt lat="45.3805555" lon="10.5917795"><ele>129.0</ele><time>2026-03-28T09:14:59.642Z</time></trkpt><trkpt lat="45.380462" lon="10.5919112"><ele>129.0</ele><time>2026-03-28T09:15:00.635Z</time></trkpt><trkpt lat="45.380412" lon="10.5920633"><ele>129.0</ele><time>2026-03-28T09:15:01.634Z</time></trkpt><trkpt lat="45.3803632" lon="10.5922289"><ele>130.5</ele><time>2026-03-28T09:15:02.63Z</time></trkpt><trkpt lat="45.3803313" lon="10.5924013"><ele>132.0</ele><time>2026-03-28T09:15:03.632Z</time></trkpt><trkpt lat="45.3803044" lon="10.5925851"><ele>133.5</ele><time>2026-03-28T09:15:04.627Z</time></trkpt><trkpt lat="45.3803134" lon="10.5927941"><ele>135.0</ele><time>2026-03-28T09:15:05.623Z</time></trkpt><trkpt lat="45.380307" lon="10.593037"><ele>135.0</ele><time>2026-03-28T09:15:06.63Z</time></trkpt><trkpt lat="45.3803083" lon="10.5932565"><ele>135.0</ele><time>2026-03-28T09:15:07.635Z</time></trkpt><trkpt lat="45.3803004" lon="10.5934713"><ele>135.0</ele><time>2026-03-28T09:15:08.634Z</time></trkpt><trkpt lat="45.3803037" lon="10.5936898"><ele>134.33333333333334</ele><time>2026-03-28T09:15:09.634Z</time></trkpt><trkpt lat="45.3802882" lon="10.593916"><ele>133.66666666666669</ele><time>2026-03-28T09:15:10.631Z</time></trkpt><trkpt lat="45.3802914" lon="10.5941406"><ele>133.0</ele><time>2026-03-28T09:15:11.634Z</time></trkpt><trkpt lat="45.3802866" lon="10.5943556"><ele>133.5</ele><time>2026-03-28T09:15:12.63Z</time></trkpt><trkpt lat="45.3802724" lon="10.5945559"><ele>134.0</ele><time>2026-03-28T09:15:13.632Z</time></trkpt><trkpt lat="45.3802571" lon="10.5947478"><ele>134.5</ele><time>2026-03-28T09:15:14.629Z</time></trkpt><trkpt lat="45.3802408" lon="10.5949339"><ele>135.0</ele><time>2026-03-28T09:15:15.626Z</time></trkpt><trkpt lat="45.3802026" lon="10.5951028"><ele>135.0</ele><time>2026-03-28T09:15:16.63Z</time></trkpt><trkpt lat="45.3801469" lon="10.5952472"><ele>135.0</ele><time>2026-03-28T09:15:17.63Z</time></trkpt><trkpt lat="45.3800515" lon="10.5953872"><ele>135.0</ele><time>2026-03-28T09:15:18.625Z</time></trkpt><trkpt lat="45.3799713" lon="10.5954834"><ele>135.0</ele><time>2026-03-28T09:15:19.629Z</time></trkpt><trkpt lat="45.3798829" lon="10.5955718"><ele>135.16666666666666</ele><time>2026-03-28T09:15:20.632Z</time></trkpt><trkpt lat="45.3797949" lon="10.595651"><ele>135.33333333333334</ele><time>2026-03-28T09:15:21.627Z</time></trkpt><trkpt lat="45.3797112" lon="10.5957132"><ele>135.5</ele><time>2026-03-28T09:15:22.623Z</time></trkpt><trkpt lat="45.3796445" lon="10.5957631"><ele>135.66666666666669</ele><time>2026-03-28T09:15:23.626Z</time></trkpt><trkpt lat="45.3795641" lon="10.5958193"><ele>135.83333333333334</ele><time>2026-03-28T09:15:25.624Z</time></trkpt><trkpt lat="45.3794972" lon="10.5958746"><ele>136.0</ele><time>2026-03-28T09:15:31.632Z</time></trkpt><trkpt lat="45.3794742" lon="10.5959665"><ele>135.75</ele><time>2026-03-28T09:15:33.633Z</time></trkpt><trkpt lat="45.3794967" lon="10.5960568"><ele>135.5</ele><time>2026-03-28T09:15:34.636Z</time></trkpt><trkpt lat="45.3795558" lon="10.5962105"><ele>135.25</ele><time>2026-03-28T09:15:35.629Z</time></trkpt><trkpt lat="45.3796248" lon="10.5963861"><ele>135.0</ele><time>2026-03-28T09:15:36.627Z</time></trkpt><trkpt lat="45.3797057" lon="10.5965823"><ele>135.0</ele><time>2026-03-28T09:15:37.629Z</time></trkpt><trkpt lat="45.3797956" lon="10.5967868"><ele>135.0</ele><time>2026-03-28T09:15:38.618Z</time></trkpt><trkpt lat="45.3798831" lon="10.597013"><ele>135.0</ele><time>2026-03-28T09:15:39.621Z</time></trkpt><trkpt lat="45.3800017" lon="10.5973217"><ele>135.33333333333334</ele><time>2026-03-28T09:15:40.626Z</time></trkpt><trkpt lat="45.3801089" lon="10.5976181"><ele>135.66666666666669</ele><time>2026-03-28T09:15:41.624Z</time></trkpt><trkpt lat="45.3801907" lon="10.5978752"><ele>136.0</ele><time>2026-03-28T09:15:42.628Z</time></trkpt><trkpt lat="45.3802623" lon="10.5981109"><ele>136.33333333333334</ele><time>2026-03-28T09:15:43.628Z</time></trkpt><trkpt lat="45.3803293" lon="10.5983504"><ele>136.66666666666666</ele><time>2026-03-28T09:15:44.635Z</time></trkpt><trkpt lat="45.3803968" lon="10.5985901"><ele>137.0</ele><time>2026-03-28T09:15:45.629Z</time></trkpt><trkpt lat="45.3804566" lon="10.598824"><ele>135.66666666666666</ele><time>2026-03-28T09:15:46.628Z</time></trkpt><trkpt lat="45.3805168" lon="10.5990412"><ele>134.33333333333334</ele><time>2026-03-28T09:15:47.632Z</time></trkpt><trkpt lat="45.3805843" lon="10.5992291"><ele>133.0</ele><time>2026-03-28T09:15:48.624Z</time></trkpt><trkpt lat="45.3806766" lon="10.599424"><ele>133.0</ele><time>2026-03-28T09:15:49.629Z</time></trkpt><trkpt lat="45.3807835" lon="10.5996076"><ele>133.0</ele><time>2026-03-28T09:15:50.627Z</time></trkpt><trkpt lat="45.3808661" lon="10.5997851"><ele>133.0</ele><time>2026-03-28T09:15:51.629Z</time></trkpt><trkpt lat="45.3809531" lon="10.5999364"><ele>133.0</ele><time>2026-03-28T09:15:52.634Z</time></trkpt><trkpt lat="45.3810574" lon="10.6000625"><ele>133.0</ele><time>2026-03-28T09:15:53.625Z</time></trkpt><trkpt lat="45.3811422" lon="10.6001369"><ele>133.0</ele><time>2026-03-28T09:15:54.617Z</time></trkpt><trkpt lat="45.3812267" lon="10.6002003"><ele>133.0</ele><time>2026-03-28T09:15:55.623Z</time></trkpt><trkpt lat="45.3813035" lon="10.6002527"><ele>133.0</ele><time>2026-03-28T09:15:56.625Z</time></trkpt><trkpt lat="45.38139" lon="10.6003343"><ele>132.75</ele><time>2026-03-28T09:15:57.629Z</time></trkpt><trkpt lat="45.3815003" lon="10.6003987"><ele>132.5</ele><time>2026-03-28T09:15:58.624Z</time></trkpt><trkpt lat="45.381612" lon="10.6004566"><ele>132.25</ele><time>2026-03-28T09:15:59.635Z</time></trkpt><trkpt lat="45.3817436" lon="10.6005136"><ele>132.0</ele><time>2026-03-28T09:16:00.63Z</time></trkpt><trkpt lat="45.381874" lon="10.6005686"><ele>132.0</ele><time>2026-03-28T09:16:01.63Z</time></trkpt><trkpt lat="45.3820332" lon="10.6006384"><ele>132.0</ele><time>2026-03-28T09:16:02.624Z</time></trkpt><trkpt lat="45.3822112" lon="10.6007052"><ele>132.0</ele><time>2026-03-28T09:16:03.623Z</time></trkpt><trkpt lat="45.3824041" lon="10.6008019"><ele>130.66666666666666</ele><time>2026-03-28T09:16:04.625Z</time></trkpt><trkpt lat="45.3825989" lon="10.6008742"><ele>129.33333333333331</ele><time>2026-03-28T09:16:05.622Z</time></trkpt><trkpt lat="45.3827811" lon="10.6009422"><ele>128.0</ele><time>2026-03-28T09:16:06.621Z</time></trkpt><trkpt lat="45.3829422" lon="10.6010497"><ele>126.33333333333333</ele><time>2026-03-28T09:16:07.62Z</time></trkpt><trkpt lat="45.3831023" lon="10.6011094"><ele>124.66666666666666</ele><time>2026-03-28T09:16:08.612Z</time></trkpt><trkpt lat="45.3832826" lon="10.601173"><ele>123.0</ele><time>2026-03-28T09:16:09.621Z</time></trkpt><trkpt lat="45.3834401" lon="10.6012343"><ele>122.66666666666666</ele><time>2026-03-28T09:16:10.607Z</time></trkpt><trkpt lat="45.3836157" lon="10.6013143"><ele>122.33333333333333</ele><time>2026-03-28T09:16:11.619Z</time></trkpt><trkpt lat="45.3837632" lon="10.6014437"><ele>122.0</ele><time>2026-03-28T09:16:12.621Z</time></trkpt><trkpt lat="45.3838917" lon="10.601574"><ele>119.33333333333333</ele><time>2026-03-28T09:16:13.619Z</time></trkpt><trkpt lat="45.3839632" lon="10.6018208"><ele>116.66666666666666</ele><time>2026-03-28T09:16:14.629Z</time></trkpt><trkpt lat="45.3840389" lon="10.6020588"><ele>114.0</ele><time>2026-03-28T09:16:15.624Z</time></trkpt><trkpt lat="45.3841514" lon="10.6022752"><ele>113.33333333333334</ele><time>2026-03-28T09:16:16.625Z</time></trkpt><trkpt lat="45.3842689" lon="10.6025121"><ele>112.66666666666667</ele><time>2026-03-28T09:16:17.629Z</time></trkpt><trkpt lat="45.3843873" lon="10.6027517"><ele>112.0</ele><time>2026-03-28T09:16:18.629Z</time></trkpt><trkpt lat="45.3845129" lon="10.6029871"><ele>111.0</ele><time>2026-03-28T09:16:19.626Z</time></trkpt><trkpt lat="45.384636" lon="10.6032259"><ele>110.0</ele><time>2026-03-28T09:16:20.627Z</time></trkpt><trkpt lat="45.3847758" lon="10.6034474"><ele>109.0</ele><time>2026-03-28T09:16:21.627Z</time></trkpt><trkpt lat="45.3849153" lon="10.603649"><ele>107.66666666666667</ele><time>2026-03-28T09:16:22.627Z</time></trkpt><trkpt lat="45.3850669" lon="10.6038499"><ele>106.33333333333334</ele><time>2026-03-28T09:16:23.628Z</time></trkpt><trkpt lat="45.3852301" lon="10.6040467"><ele>105.0</ele><time>2026-03-28T09:16:24.628Z</time></trkpt><trkpt lat="45.3853888" lon="10.6042422"><ele>104.66666666666666</ele><time>2026-03-28T09:16:25.626Z</time></trkpt><trkpt lat="45.3855599" lon="10.6044149"><ele>104.33333333333333</ele><time>2026-03-28T09:16:26.619Z</time></trkpt><trkpt lat="45.3857253" lon="10.6045768"><ele>104.0</ele><time>2026-03-28T09:16:27.627Z</time></trkpt><trkpt lat="45.3859034" lon="10.6047379"><ele>104.66666666666666</ele><time>2026-03-28T09:16:28.633Z</time></trkpt><trkpt lat="45.386062" lon="10.6048858"><ele>105.33333333333334</ele><time>2026-03-28T09:16:29.63Z</time></trkpt><trkpt lat="45.3862201" lon="10.6050195"><ele>106.0</ele><time>2026-03-28T09:16:30.624Z</time></trkpt><trkpt lat="45.386383" lon="10.6051586"><ele>106.0</ele><time>2026-03-28T09:16:31.628Z</time></trkpt><trkpt lat="45.3865464" lon="10.6052491"><ele>106.0</ele><time>2026-03-28T09:16:32.624Z</time></trkpt><trkpt lat="45.3867237" lon="10.6053338"><ele>106.0</ele><time>2026-03-28T09:16:33.626Z</time></trkpt><trkpt lat="45.3869097" lon="10.6054327"><ele>105.33333333333334</ele><time>2026-03-28T09:16:34.629Z</time></trkpt><trkpt lat="45.3870896" lon="10.6055376"><ele>104.66666666666666</ele><time>2026-03-28T09:16:35.626Z</time></trkpt><trkpt lat="45.3872725" lon="10.6056592"><ele>104.0</ele><time>2026-03-28T09:16:36.625Z</time></trkpt><trkpt lat="45.3874496" lon="10.6057856"><ele>103.33333333333333</ele><time>2026-03-28T09:16:37.625Z</time></trkpt><trkpt lat="45.3876282" lon="10.6059235"><ele>102.66666666666666</ele><time>2026-03-28T09:16:38.624Z</time></trkpt><trkpt lat="45.3878225" lon="10.6060557"><ele>102.0</ele><time>2026-03-28T09:16:39.625Z</time></trkpt><trkpt lat="45.3880032" lon="10.6062047"><ele>101.33333333333334</ele><time>2026-03-28T09:16:40.626Z</time></trkpt><trkpt lat="45.3881849" lon="10.6063439"><ele>100.66666666666667</ele><time>2026-03-28T09:16:41.625Z</time></trkpt><trkpt lat="45.3883402" lon="10.6065014"><ele>100.0</ele><time>2026-03-28T09:16:42.626Z</time></trkpt><trkpt lat="45.3884818" lon="10.6066809"><ele>100.0</ele><time>2026-03-28T09:16:43.626Z</time></trkpt><trkpt lat="45.3886066" lon="10.6068844"><ele>100.0</ele><time>2026-03-28T09:16:44.622Z</time></trkpt><trkpt lat="45.3887489" lon="10.6070505"><ele>100.0</ele><time>2026-03-28T09:16:45.624Z</time></trkpt><trkpt lat="45.388887" lon="10.6072442"><ele>100.33333333333334</ele><time>2026-03-28T09:16:46.633Z</time></trkpt><trkpt lat="45.3890217" lon="10.6074456"><ele>100.66666666666666</ele><time>2026-03-28T09:16:47.632Z</time></trkpt><trkpt lat="45.3891519" lon="10.6076502"><ele>101.0</ele><time>2026-03-28T09:16:48.625Z</time></trkpt><trkpt lat="45.3892842" lon="10.6078641"><ele>100.33333333333333</ele><time>2026-03-28T09:16:49.631Z</time></trkpt><trkpt lat="45.3894218" lon="10.6080785"><ele>99.66666666666666</ele><time>2026-03-28T09:16:50.634Z</time></trkpt><trkpt lat="45.3895418" lon="10.6082794"><ele>99.0</ele><time>2026-03-28T09:16:51.631Z</time></trkpt><trkpt lat="45.389668" lon="10.6084912"><ele>98.66666666666666</ele><time>2026-03-28T09:16:52.63Z</time></trkpt><trkpt lat="45.3898022" lon="10.6087243"><ele>98.33333333333333</ele><time>2026-03-28T09:16:53.631Z</time></trkpt><trkpt lat="45.3899532" lon="10.6089258"><ele>98.0</ele><time>2026-03-28T09:16:54.629Z</time></trkpt><trkpt lat="45.3901054" lon="10.6091298"><ele>98.0</ele><time>2026-03-28T09:16:55.633Z</time></trkpt><trkpt lat="45.3902514" lon="10.6093141"><ele>98.0</ele><time>2026-03-28T09:16:56.632Z</time></trkpt><trkpt lat="45.3903919" lon="10.6095232"><ele>98.0</ele><time>2026-03-28T09:16:57.63Z</time></trkpt><trkpt lat="45.3905358" lon="10.609741"><ele>98.33333333333333</ele><time>2026-03-28T09:16:58.633Z</time></trkpt><trkpt lat="45.3906473" lon="10.6099321"><ele>98.66666666666666</ele><time>2026-03-28T09:16:59.631Z</time></trkpt><trkpt lat="45.3907684" lon="10.6101125"><ele>99.0</ele><time>2026-03-28T09:17:00.635Z</time></trkpt><trkpt lat="45.3909066" lon="10.6102918"><ele>98.66666666666666</ele><time>2026-03-28T09:17:01.634Z</time></trkpt><trkpt lat="45.3910564" lon="10.6104633"><ele>98.33333333333333</ele><time>2026-03-28T09:17:02.628Z</time></trkpt><trkpt lat="45.3911944" lon="10.6106432"><ele>98.0</ele><time>2026-03-28T09:17:03.629Z</time></trkpt><trkpt lat="45.3913222" lon="10.6108191"><ele>97.0</ele><time>2026-03-28T09:17:04.642Z</time></trkpt><trkpt lat="45.391436" lon="10.6109893"><ele>96.0</ele><time>2026-03-28T09:17:05.63Z</time></trkpt><trkpt lat="45.3915503" lon="10.6111508"><ele>95.0</ele><time>2026-03-28T09:17:06.633Z</time></trkpt><trkpt lat="45.3916578" lon="10.6113072"><ele>95.0</ele><time>2026-03-28T09:17:07.628Z</time></trkpt><trkpt lat="45.3917575" lon="10.6114712"><ele>95.0</ele><time>2026-03-28T09:17:08.629Z</time></trkpt><trkpt lat="45.3918674" lon="10.6116458"><ele>95.0</ele><time>2026-03-28T09:17:09.629Z</time></trkpt><trkpt lat="45.3919783" lon="10.6118131"><ele>95.0</ele><time>2026-03-28T09:17:10.629Z</time></trkpt><trkpt lat="45.3920925" lon="10.6120193"><ele>95.0</ele><time>2026-03-28T09:17:11.633Z</time></trkpt><trkpt lat="45.3922114" lon="10.6121997"><ele>95.0</ele><time>2026-03-28T09:17:12.634Z</time></trkpt><trkpt lat="45.3923351" lon="10.6123843"><ele>94.33333333333334</ele><time>2026-03-28T09:17:13.633Z</time></trkpt><trkpt lat="45.3924445" lon="10.6125566"><ele>93.66666666666667</ele><time>2026-03-28T09:17:14.634Z</time></trkpt><trkpt lat="45.3925471" lon="10.6127529"><ele>93.0</ele><time>2026-03-28T09:17:15.636Z</time></trkpt><trkpt lat="45.3926571" lon="10.6129209"><ele>93.0</ele><time>2026-03-28T09:17:16.629Z</time></trkpt><trkpt lat="45.3927732" lon="10.6130779"><ele>93.0</ele><time>2026-03-28T09:17:17.634Z</time></trkpt><trkpt lat="45.3928814" lon="10.6132453"><ele>93.0</ele><time>2026-03-28T09:17:18.629Z</time></trkpt><trkpt lat="45.3929896" lon="10.613417"><ele>95.0</ele><time>2026-03-28T09:17:19.629Z</time></trkpt><trkpt lat="45.3930815" lon="10.6136282"><ele>97.0</ele><time>2026-03-28T09:17:20.625Z</time></trkpt><trkpt lat="45.3931666" lon="10.6138067"><ele>99.0</ele><time>2026-03-28T09:17:21.619Z</time></trkpt><trkpt lat="45.3932428" lon="10.6139849"><ele>99.0</ele><time>2026-03-28T09:17:22.633Z</time></trkpt><trkpt lat="45.3932914" lon="10.6141635"><ele>99.0</ele><time>2026-03-28T09:17:23.624Z</time></trkpt><trkpt lat="45.393347" lon="10.6143243"><ele>99.0</ele><time>2026-03-28T09:17:24.62Z</time></trkpt><trkpt lat="45.393408" lon="10.6144785"><ele>99.0</ele><time>2026-03-28T09:17:25.626Z</time></trkpt><trkpt lat="45.3934807" lon="10.6146291"><ele>98.25</ele><time>2026-03-28T09:17:26.631Z</time></trkpt><trkpt lat="45.3935468" lon="10.6147962"><ele>97.5</ele><time>2026-03-28T09:17:27.625Z</time></trkpt><trkpt lat="45.3936272" lon="10.6149779"><ele>96.75</ele><time>2026-03-28T09:17:28.629Z</time></trkpt><trkpt lat="45.3936941" lon="10.6151428"><ele>96.0</ele><time>2026-03-28T09:17:29.632Z</time></trkpt><trkpt lat="45.3937587" lon="10.6153483"><ele>95.33333333333333</ele><time>2026-03-28T09:17:30.624Z</time></trkpt><trkpt lat="45.3938335" lon="10.6155491"><ele>94.66666666666666</ele><time>2026-03-28T09:17:31.629Z</time></trkpt><trkpt lat="45.3938797" lon="10.6157686"><ele>94.0</ele><time>2026-03-28T09:17:32.622Z</time></trkpt><trkpt lat="45.3939534" lon="10.6159655"><ele>96.0</ele><time>2026-03-28T09:17:33.626Z</time></trkpt><trkpt lat="45.3940058" lon="10.616162"><ele>98.0</ele><time>2026-03-28T09:17:34.619Z</time></trkpt><trkpt lat="45.3940821" lon="10.6163598"><ele>100.0</ele><time>2026-03-28T09:17:35.624Z</time></trkpt><trkpt lat="45.3941542" lon="10.6165568"><ele>100.0</ele><time>2026-03-28T09:17:36.624Z</time></trkpt><trkpt lat="45.3942444" lon="10.6167407"><ele>100.0</ele><time>2026-03-28T09:17:37.621Z</time></trkpt><trkpt lat="45.394345" lon="10.6169551"><ele>100.0</ele><time>2026-03-28T09:17:38.619Z</time></trkpt><trkpt lat="45.3944718" lon="10.6171538"><ele>100.66666666666667</ele><time>2026-03-28T09:17:39.625Z</time></trkpt><trkpt lat="45.3945816" lon="10.6173733"><ele>101.33333333333334</ele><time>2026-03-28T09:17:40.624Z</time></trkpt><trkpt lat="45.3947041" lon="10.6176192"><ele>102.0</ele><time>2026-03-28T09:17:41.623Z</time></trkpt><trkpt lat="45.3948074" lon="10.6178866"><ele>99.5</ele><time>2026-03-28T09:17:42.621Z</time></trkpt><trkpt lat="45.3949187" lon="10.6181714"><ele>97.0</ele><time>2026-03-28T09:17:43.629Z</time></trkpt><trkpt lat="45.3950288" lon="10.6184762"><ele>96.0</ele><time>2026-03-28T09:17:44.628Z</time></trkpt><trkpt lat="45.395139" lon="10.6187707"><ele>95.0</ele><time>2026-03-28T09:17:45.629Z</time></trkpt><trkpt lat="45.3952313" lon="10.6190397"><ele>94.0</ele><time>2026-03-28T09:17:46.625Z</time></trkpt><trkpt lat="45.3953141" lon="10.6192984"><ele>93.66666666666666</ele><time>2026-03-28T09:17:47.627Z</time></trkpt><trkpt lat="45.395389" lon="10.6195342"><ele>93.33333333333333</ele><time>2026-03-28T09:17:48.627Z</time></trkpt><trkpt lat="45.3954813" lon="10.6197686"><ele>93.0</ele><time>2026-03-28T09:17:49.626Z</time></trkpt><trkpt lat="45.3955613" lon="10.6199685"><ele>93.0</ele><time>2026-03-28T09:17:50.63Z</time></trkpt><trkpt lat="45.3956026" lon="10.6202038"><ele>93.0</ele><time>2026-03-28T09:17:51.627Z</time></trkpt><trkpt lat="45.3956607" lon="10.6204176"><ele>93.0</ele><time>2026-03-28T09:17:52.623Z</time></trkpt><trkpt lat="45.395715" lon="10.6206306"><ele>93.0</ele><time>2026-03-28T09:17:53.623Z</time></trkpt><trkpt lat="45.3957322" lon="10.620842"><ele>93.0</ele><time>2026-03-28T09:17:54.626Z</time></trkpt><trkpt lat="45.3957482" lon="10.6210717"><ele>93.0</ele><time>2026-03-28T09:17:55.628Z</time></trkpt><trkpt lat="45.3957697" lon="10.6212854"><ele>92.5</ele><time>2026-03-28T09:17:56.626Z</time></trkpt><trkpt lat="45.395783" lon="10.6214762"><ele>92.0</ele><time>2026-03-28T09:17:57.636Z</time></trkpt><trkpt lat="45.3957856" lon="10.6216708"><ele>91.5</ele><time>2026-03-28T09:17:58.631Z</time></trkpt><trkpt lat="45.3957828" lon="10.6218661"><ele>91.0</ele><time>2026-03-28T09:17:59.629Z</time></trkpt><trkpt lat="45.3957594" lon="10.6220383"><ele>90.75</ele><time>2026-03-28T09:18:00.63Z</time></trkpt><trkpt lat="45.395738" lon="10.6222064"><ele>90.5</ele><time>2026-03-28T09:18:01.622Z</time></trkpt><trkpt lat="45.3956612" lon="10.6223227"><ele>90.25</ele><time>2026-03-28T09:18:02.618Z</time></trkpt><trkpt lat="45.3955625" lon="10.6224227"><ele>90.0</ele><time>2026-03-28T09:18:03.627Z</time></trkpt><trkpt lat="45.3954504" lon="10.62255"><ele>90.0</ele><time>2026-03-28T09:18:04.624Z</time></trkpt><trkpt lat="45.395338" lon="10.6226746"><ele>90.0</ele><time>2026-03-28T09:18:05.614Z</time></trkpt><trkpt lat="45.3952257" lon="10.6227536"><ele>90.0</ele><time>2026-03-28T09:18:06.62Z</time></trkpt><trkpt lat="45.3951185" lon="10.6227887"><ele>90.0</ele><time>2026-03-28T09:18:07.623Z</time></trkpt><trkpt lat="45.3949849" lon="10.6228149"><ele>92.0</ele><time>2026-03-28T09:18:08.622Z</time></trkpt><trkpt lat="45.3948482" lon="10.6228361"><ele>94.0</ele><time>2026-03-28T09:18:09.623Z</time></trkpt><trkpt lat="45.3946789" lon="10.6228485"><ele>96.0</ele><time>2026-03-28T09:18:10.62Z</time></trkpt><trkpt lat="45.394518" lon="10.6229543"><ele>96.66666666666666</ele><time>2026-03-28T09:18:11.622Z</time></trkpt><trkpt lat="45.3943622" lon="10.623049"><ele>97.33333333333333</ele><time>2026-03-28T09:18:12.617Z</time></trkpt><trkpt lat="45.3942357" lon="10.6231639"><ele>98.0</ele><time>2026-03-28T09:18:13.624Z</time></trkpt><trkpt lat="45.3941343" lon="10.6233071"><ele>98.0</ele><time>2026-03-28T09:18:14.62Z</time></trkpt><trkpt lat="45.3940378" lon="10.6234843"><ele>98.0</ele><time>2026-03-28T09:18:15.636Z</time></trkpt><trkpt lat="45.3939535" lon="10.6236754"><ele>98.0</ele><time>2026-03-28T09:18:16.625Z</time></trkpt><trkpt lat="45.3939065" lon="10.6239108"><ele>98.66666666666666</ele><time>2026-03-28T09:18:17.63Z</time></trkpt><trkpt lat="45.3938801" lon="10.6241607"><ele>99.33333333333334</ele><time>2026-03-28T09:18:18.627Z</time></trkpt><trkpt lat="45.3938448" lon="10.6244164"><ele>100.0</ele><time>2026-03-28T09:18:19.626Z</time></trkpt><trkpt lat="45.3938428" lon="10.6246673"><ele>100.0</ele><time>2026-03-28T09:18:20.629Z</time></trkpt><trkpt lat="45.3938582" lon="10.6249261"><ele>100.0</ele><time>2026-03-28T09:18:21.626Z</time></trkpt><trkpt lat="45.3939013" lon="10.6251826"><ele>100.0</ele><time>2026-03-28T09:18:22.628Z</time></trkpt><trkpt lat="45.3939455" lon="10.62547"><ele>99.33333333333334</ele><time>2026-03-28T09:18:23.63Z</time></trkpt><trkpt lat="45.3939833" lon="10.6257709"><ele>98.66666666666666</ele><time>2026-03-28T09:18:24.621Z</time></trkpt><trkpt lat="45.3940289" lon="10.6260801"><ele>98.0</ele><time>2026-03-28T09:18:25.625Z</time></trkpt><trkpt lat="45.3940688" lon="10.626397"><ele>97.33333333333333</ele><time>2026-03-28T09:18:26.621Z</time></trkpt><trkpt lat="45.3941179" lon="10.6267127"><ele>96.66666666666666</ele><time>2026-03-28T09:18:27.622Z</time></trkpt><trkpt lat="45.3941555" lon="10.6270091"><ele>96.0</ele><time>2026-03-28T09:18:28.621Z</time></trkpt><trkpt lat="45.3941826" lon="10.6273053"><ele>95.66666666666667</ele><time>2026-03-28T09:18:29.625Z</time></trkpt><trkpt lat="45.3942305" lon="10.6276184"><ele>95.33333333333334</ele><time>2026-03-28T09:18:30.624Z</time></trkpt><trkpt lat="45.3942615" lon="10.627933"><ele>95.0</ele><time>2026-03-28T09:18:31.627Z</time></trkpt><trkpt lat="45.3943244" lon="10.6282311"><ele>94.5</ele><time>2026-03-28T09:18:32.623Z</time></trkpt><trkpt lat="45.394393" lon="10.6285587"><ele>94.0</ele><time>2026-03-28T09:18:33.623Z</time></trkpt><trkpt lat="45.3944719" lon="10.628876"><ele>94.0</ele><time>2026-03-28T09:18:34.631Z</time></trkpt><trkpt lat="45.3945291" lon="10.6292068"><ele>94.0</ele><time>2026-03-28T09:18:35.629Z</time></trkpt><trkpt lat="45.3946075" lon="10.6295455"><ele>95.5</ele><time>2026-03-28T09:18:36.635Z</time></trkpt><trkpt lat="45.3946855" lon="10.6298648"><ele>97.0</ele><time>2026-03-28T09:18:37.63Z</time></trkpt><trkpt lat="45.3947587" lon="10.6301785"><ele>97.0</ele><time>2026-03-28T09:18:38.632Z</time></trkpt><trkpt lat="45.3948354" lon="10.6304751"><ele>97.0</ele><time>2026-03-28T09:18:39.628Z</time></trkpt><trkpt lat="45.3949026" lon="10.6307674"><ele>97.0</ele><time>2026-03-28T09:18:40.629Z</time></trkpt><trkpt lat="45.3949519" lon="10.6310461"><ele>97.33333333333334</ele><time>2026-03-28T09:18:41.623Z</time></trkpt><trkpt lat="45.3950329" lon="10.631329"><ele>97.66666666666666</ele><time>2026-03-28T09:18:42.632Z</time></trkpt><trkpt lat="45.3951148" lon="10.6315918"><ele>98.0</ele><time>2026-03-28T09:18:43.625Z</time></trkpt><trkpt lat="45.3952073" lon="10.6318353"><ele>98.0</ele><time>2026-03-28T09:18:44.631Z</time></trkpt><trkpt lat="45.3953134" lon="10.632097"><ele>98.0</ele><time>2026-03-28T09:18:45.632Z</time></trkpt><trkpt lat="45.3954353" lon="10.6323252"><ele>98.0</ele><time>2026-03-28T09:18:46.634Z</time></trkpt><trkpt lat="45.3955661" lon="10.6325467"><ele>98.33333333333333</ele><time>2026-03-28T09:18:47.629Z</time></trkpt><trkpt lat="45.3957244" lon="10.632721"><ele>98.66666666666666</ele><time>2026-03-28T09:18:48.628Z</time></trkpt><trkpt lat="45.3958802" lon="10.6328895"><ele>99.0</ele><time>2026-03-28T09:18:49.627Z</time></trkpt><trkpt lat="45.3960431" lon="10.6330496"><ele>99.0</ele><time>2026-03-28T09:18:50.623Z</time></trkpt><trkpt lat="45.3962234" lon="10.6331852"><ele>99.0</ele><time>2026-03-28T09:18:51.628Z</time></trkpt><trkpt lat="45.3964103" lon="10.6333194"><ele>99.0</ele><time>2026-03-28T09:18:52.632Z</time></trkpt><trkpt lat="45.3966041" lon="10.6334462"><ele>98.66666666666666</ele><time>2026-03-28T09:18:53.629Z</time></trkpt><trkpt lat="45.3967998" lon="10.6335544"><ele>98.33333333333333</ele><time>2026-03-28T09:18:54.628Z</time></trkpt><trkpt lat="45.3969966" lon="10.6336835"><ele>98.0</ele><time>2026-03-28T09:18:55.626Z</time></trkpt><trkpt lat="45.3972155" lon="10.633806"><ele>98.0</ele><time>2026-03-28T09:18:56.629Z</time></trkpt><trkpt lat="45.3973958" lon="10.6339339"><ele>98.0</ele><time>2026-03-28T09:18:57.626Z</time></trkpt><trkpt lat="45.3975716" lon="10.6340217"><ele>98.0</ele><time>2026-03-28T09:18:58.625Z</time></trkpt><trkpt lat="45.3977519" lon="10.6341126"><ele>98.0</ele><time>2026-03-28T09:18:59.629Z</time></trkpt><trkpt lat="45.3979418" lon="10.6342052"><ele>98.0</ele><time>2026-03-28T09:19:00.622Z</time></trkpt><trkpt lat="45.3981359" lon="10.6342801"><ele>98.0</ele><time>2026-03-28T09:19:01.623Z</time></trkpt><trkpt lat="45.3983262" lon="10.6343136"><ele>97.0</ele><time>2026-03-28T09:19:02.624Z</time></trkpt><trkpt lat="45.3985143" lon="10.6343406"><ele>96.0</ele><time>2026-03-28T09:19:03.629Z</time></trkpt><trkpt lat="45.398685" lon="10.634389"><ele>95.0</ele><time>2026-03-28T09:19:04.622Z</time></trkpt><trkpt lat="45.3988785" lon="10.6344082"><ele>94.33333333333334</ele><time>2026-03-28T09:19:05.623Z</time></trkpt><trkpt lat="45.3990583" lon="10.6344361"><ele>93.66666666666667</ele><time>2026-03-28T09:19:06.623Z</time></trkpt><trkpt lat="45.399211" lon="10.6344572"><ele>93.0</ele><time>2026-03-28T09:19:07.623Z</time></trkpt><trkpt lat="45.3993503" lon="10.6344946"><ele>93.0</ele><time>2026-03-28T09:19:08.618Z</time></trkpt><trkpt lat="45.3994857" lon="10.6345506"><ele>93.0</ele><time>2026-03-28T09:19:09.62Z</time></trkpt><trkpt lat="45.3995956" lon="10.6345876"><ele>93.0</ele><time>2026-03-28T09:19:10.624Z</time></trkpt><trkpt lat="45.3996606" lon="10.6346653"><ele>93.0</ele><time>2026-03-28T09:19:11.611Z</time></trkpt><trkpt lat="45.3996558" lon="10.6347736"><ele>93.0</ele><time>2026-03-28T09:19:12.615Z</time></trkpt><trkpt lat="45.399629" lon="10.6349089"><ele>93.0</ele><time>2026-03-28T09:19:13.615Z</time></trkpt><trkpt lat="45.3995639" lon="10.6350573"><ele>93.0</ele><time>2026-03-28T09:19:14.616Z</time></trkpt><trkpt lat="45.3994715" lon="10.6352004"><ele>93.0</ele><time>2026-03-28T09:19:15.618Z</time></trkpt><trkpt lat="45.3993889" lon="10.635364"><ele>93.0</ele><time>2026-03-28T09:19:16.618Z</time></trkpt><trkpt lat="45.3992775" lon="10.6355243"><ele>92.33333333333333</ele><time>2026-03-28T09:19:17.625Z</time></trkpt><trkpt lat="45.3991534" lon="10.6357151"><ele>91.66666666666666</ele><time>2026-03-28T09:19:18.623Z</time></trkpt><trkpt lat="45.3989935" lon="10.6359554"><ele>91.0</ele><time>2026-03-28T09:19:19.62Z</time></trkpt><trkpt lat="45.3988658" lon="10.6361875"><ele>91.0</ele><time>2026-03-28T09:19:20.622Z</time></trkpt><trkpt lat="45.3987695" lon="10.6364063"><ele>91.0</ele><time>2026-03-28T09:19:21.616Z</time></trkpt><trkpt lat="45.3987038" lon="10.6366142"><ele>91.0</ele><time>2026-03-28T09:19:22.616Z</time></trkpt><trkpt lat="45.398658" lon="10.636825"><ele>90.66666666666666</ele><time>2026-03-28T09:19:23.613Z</time></trkpt><trkpt lat="45.398645" lon="10.6370856"><ele>90.33333333333333</ele><time>2026-03-28T09:19:24.617Z</time></trkpt><trkpt lat="45.3986661" lon="10.6373183"><ele>90.0</ele><time>2026-03-28T09:19:25.611Z</time></trkpt><trkpt lat="45.3986665" lon="10.6375465"><ele>90.0</ele><time>2026-03-28T09:19:26.62Z</time></trkpt><trkpt lat="45.3986653" lon="10.6377993"><ele>90.0</ele><time>2026-03-28T09:19:27.62Z</time></trkpt><trkpt lat="45.3986701" lon="10.6380315"><ele>90.0</ele><time>2026-03-28T09:19:28.628Z</time></trkpt><trkpt lat="45.3986736" lon="10.638302"><ele>90.33333333333333</ele><time>2026-03-28T09:19:29.625Z</time></trkpt><trkpt lat="45.3986988" lon="10.6385558"><ele>90.66666666666666</ele><time>2026-03-28T09:19:30.621Z</time></trkpt><trkpt lat="45.3987039" lon="10.6388026"><ele>91.0</ele><time>2026-03-28T09:19:31.618Z</time></trkpt><trkpt lat="45.3987166" lon="10.6390443"><ele>91.33333333333333</ele><time>2026-03-28T09:19:32.62Z</time></trkpt><trkpt lat="45.3987266" lon="10.6392662"><ele>91.66666666666667</ele><time>2026-03-28T09:19:33.624Z</time></trkpt><trkpt lat="45.3987111" lon="10.6394779"><ele>92.0</ele><time>2026-03-28T09:19:34.629Z</time></trkpt><trkpt lat="45.3987055" lon="10.639697"><ele>92.0</ele><time>2026-03-28T09:19:35.621Z</time></trkpt><trkpt lat="45.3987004" lon="10.6399049"><ele>92.0</ele><time>2026-03-28T09:19:36.623Z</time></trkpt><trkpt lat="45.3987022" lon="10.6401278"><ele>92.0</ele><time>2026-03-28T09:19:37.625Z</time></trkpt><trkpt lat="45.3987132" lon="10.6403365"><ele>91.66666666666667</ele><time>2026-03-28T09:19:38.62Z</time></trkpt><trkpt lat="45.3987317" lon="10.6405418"><ele>91.33333333333333</ele><time>2026-03-28T09:19:39.629Z</time></trkpt><trkpt lat="45.3987376" lon="10.6407681"><ele>91.0</ele><time>2026-03-28T09:19:40.617Z</time></trkpt><trkpt lat="45.3987499" lon="10.6410029"><ele>90.33333333333333</ele><time>2026-03-28T09:19:41.617Z</time></trkpt><trkpt lat="45.3987444" lon="10.6412277"><ele>89.66666666666667</ele><time>2026-03-28T09:19:42.619Z</time></trkpt><trkpt lat="45.3987168" lon="10.6414427"><ele>89.0</ele><time>2026-03-28T09:19:43.619Z</time></trkpt><trkpt lat="45.39868" lon="10.6416574"><ele>89.0</ele><time>2026-03-28T09:19:44.621Z</time></trkpt><trkpt lat="45.398627" lon="10.641881"><ele>89.0</ele><time>2026-03-28T09:19:45.62Z</time></trkpt><trkpt lat="45.3985702" lon="10.6420777"><ele>89.0</ele><time>2026-03-28T09:19:46.623Z</time></trkpt><trkpt lat="45.3984789" lon="10.6422604"><ele>88.80000000000001</ele><time>2026-03-28T09:19:47.617Z</time></trkpt><trkpt lat="45.3983837" lon="10.642385"><ele>88.60000000000001</ele><time>2026-03-28T09:19:48.617Z</time></trkpt><trkpt lat="45.398297" lon="10.6424647"><ele>88.4</ele><time>2026-03-28T09:19:49.626Z</time></trkpt><trkpt lat="45.3982133" lon="10.6425617"><ele>88.2</ele><time>2026-03-28T09:19:50.623Z</time></trkpt><trkpt lat="45.3981387" lon="10.6426569"><ele>88.0</ele><time>2026-03-28T09:19:51.625Z</time></trkpt><trkpt lat="45.398065" lon="10.6427725"><ele>88.60000000000001</ele><time>2026-03-28T09:19:52.622Z</time></trkpt><trkpt lat="45.397985" lon="10.642882"><ele>89.2</ele><time>2026-03-28T09:19:53.622Z</time></trkpt><trkpt lat="45.3979081" lon="10.6429874"><ele>89.8</ele><time>2026-03-28T09:19:54.62Z</time></trkpt><trkpt lat="45.3978246" lon="10.6430954"><ele>90.4</ele><time>2026-03-28T09:19:55.622Z</time></trkpt><trkpt lat="45.3977433" lon="10.6432009"><ele>91.0</ele><time>2026-03-28T09:19:56.622Z</time></trkpt><trkpt lat="45.3976687" lon="10.6433008"><ele>91.0</ele><time>2026-03-28T09:19:57.621Z</time></trkpt><trkpt lat="45.3976026" lon="10.6433802"><ele>91.0</ele><time>2026-03-28T09:19:58.622Z</time></trkpt><trkpt lat="45.3975443" lon="10.6434502"><ele>91.0</ele><time>2026-03-28T09:19:59.622Z</time></trkpt><trkpt lat="45.3974746" lon="10.643525"><ele>91.0</ele><time>2026-03-28T09:20:00.619Z</time></trkpt><trkpt lat="45.3973926" lon="10.6435888"><ele>91.0</ele><time>2026-03-28T09:20:01.616Z</time></trkpt><trkpt lat="45.3973007" lon="10.6436287"><ele>91.0</ele><time>2026-03-28T09:20:02.615Z</time></trkpt><trkpt lat="45.3971961" lon="10.6436481"><ele>91.5</ele><time>2026-03-28T09:20:03.619Z</time></trkpt><trkpt lat="45.3970848" lon="10.6436453"><ele>92.0</ele><time>2026-03-28T09:20:04.63Z</time></trkpt><trkpt lat="45.3969632" lon="10.6436181"><ele>92.5</ele><time>2026-03-28T09:20:05.632Z</time></trkpt><trkpt lat="45.3968316" lon="10.6435675"><ele>93.0</ele><time>2026-03-28T09:20:06.619Z</time></trkpt><trkpt lat="45.3966988" lon="10.6434896"><ele>93.0</ele><time>2026-03-28T09:20:07.625Z</time></trkpt><trkpt lat="45.3965532" lon="10.6433316"><ele>93.0</ele><time>2026-03-28T09:20:08.616Z</time></trkpt><trkpt lat="45.3963982" lon="10.6432177"><ele>93.0</ele><time>2026-03-28T09:20:09.622Z</time></trkpt><trkpt lat="45.3962405" lon="10.6431269"><ele>95.0</ele><time>2026-03-28T09:20:10.619Z</time></trkpt><trkpt lat="45.3960645" lon="10.6430276"><ele>97.0</ele><time>2026-03-28T09:20:11.621Z</time></trkpt><trkpt lat="45.3958864" lon="10.6429145"><ele>99.0</ele><time>2026-03-28T09:20:12.626Z</time></trkpt><trkpt lat="45.3957083" lon="10.6428173"><ele>98.33333333333334</ele><time>2026-03-28T09:20:13.619Z</time></trkpt><trkpt lat="45.3955113" lon="10.6427176"><ele>97.66666666666667</ele><time>2026-03-28T09:20:14.624Z</time></trkpt><trkpt lat="45.395316" lon="10.6426231"><ele>97.0</ele><time>2026-03-28T09:20:15.62Z</time></trkpt><trkpt lat="45.3951209" lon="10.6425298"><ele>97.0</ele><time>2026-03-28T09:20:16.621Z</time></trkpt><trkpt lat="45.3949461" lon="10.6424409"><ele>97.0</ele><time>2026-03-28T09:20:17.618Z</time></trkpt><trkpt lat="45.3947804" lon="10.6423417"><ele>97.0</ele><time>2026-03-28T09:20:18.629Z</time></trkpt><trkpt lat="45.3946016" lon="10.6422356"><ele>97.0</ele><time>2026-03-28T09:20:19.621Z</time></trkpt><trkpt lat="45.3944226" lon="10.6421277"><ele>97.0</ele><time>2026-03-28T09:20:20.62Z</time></trkpt><trkpt lat="45.3942432" lon="10.6420219"><ele>97.0</ele><time>2026-03-28T09:20:21.623Z</time></trkpt><trkpt lat="45.3940671" lon="10.6419386"><ele>97.0</ele><time>2026-03-28T09:20:22.631Z</time></trkpt><trkpt lat="45.393901" lon="10.6418342"><ele>97.0</ele><time>2026-03-28T09:20:23.706Z</time></trkpt><trkpt lat="45.3937364" lon="10.6417431"><ele>97.0</ele><time>2026-03-28T09:20:24.626Z</time></trkpt><trkpt lat="45.3935699" lon="10.6416503"><ele>99.0</ele><time>2026-03-28T09:20:25.627Z</time></trkpt><trkpt lat="45.3934115" lon="10.6415669"><ele>101.0</ele><time>2026-03-28T09:20:26.618Z</time></trkpt><trkpt lat="45.3932637" lon="10.6414893"><ele>103.0</ele><time>2026-03-28T09:20:27.617Z</time></trkpt><trkpt lat="45.3931115" lon="10.6414172"><ele>103.66666666666667</ele><time>2026-03-28T09:20:28.621Z</time></trkpt><trkpt lat="45.3929749" lon="10.641383"><ele>104.33333333333334</ele><time>2026-03-28T09:20:29.621Z</time></trkpt><trkpt lat="45.3928105" lon="10.6413653"><ele>105.0</ele><time>2026-03-28T09:20:30.618Z</time></trkpt><trkpt lat="45.3926564" lon="10.641375"><ele>105.0</ele><time>2026-03-28T09:20:31.618Z</time></trkpt><trkpt lat="45.392533" lon="10.6414587"><ele>105.0</ele><time>2026-03-28T09:20:32.622Z</time></trkpt><trkpt lat="45.3924119" lon="10.6415487"><ele>105.0</ele><time>2026-03-28T09:20:33.619Z</time></trkpt><trkpt lat="45.3922803" lon="10.641693"><ele>105.0</ele><time>2026-03-28T09:20:34.622Z</time></trkpt><trkpt lat="45.3921301" lon="10.6418193"><ele>105.66666666666666</ele><time>2026-03-28T09:20:35.617Z</time></trkpt><trkpt lat="45.3919918" lon="10.6419369"><ele>106.33333333333333</ele><time>2026-03-28T09:20:36.619Z</time></trkpt><trkpt lat="45.3918509" lon="10.6420353"><ele>107.0</ele><time>2026-03-28T09:20:37.62Z</time></trkpt><trkpt lat="45.3917228" lon="10.6421135"><ele>109.0</ele><time>2026-03-28T09:20:38.627Z</time></trkpt><trkpt lat="45.3916005" lon="10.6421612"><ele>111.0</ele><time>2026-03-28T09:20:39.625Z</time></trkpt><trkpt lat="45.391475" lon="10.6421985"><ele>113.0</ele><time>2026-03-28T09:20:40.626Z</time></trkpt><trkpt lat="45.391356" lon="10.6421922"><ele>115.0</ele><time>2026-03-28T09:20:41.715Z</time></trkpt><trkpt lat="45.3912098" lon="10.6421826"><ele>115.2</ele><time>2026-03-28T09:20:42.625Z</time></trkpt><trkpt lat="45.3910777" lon="10.6421716"><ele>115.4</ele><time>2026-03-28T09:20:43.626Z</time></trkpt><trkpt lat="45.3909774" lon="10.6421702"><ele>115.6</ele><time>2026-03-28T09:20:44.624Z</time></trkpt><trkpt lat="45.3908724" lon="10.6422034"><ele>115.8</ele><time>2026-03-28T09:20:45.626Z</time></trkpt><trkpt lat="45.3907783" lon="10.6422522"><ele>116.0</ele><time>2026-03-28T09:20:46.62Z</time></trkpt><trkpt lat="45.3906966" lon="10.6423554"><ele>116.0</ele><time>2026-03-28T09:20:47.624Z</time></trkpt><trkpt lat="45.3906243" lon="10.642498"><ele>116.0</ele><time>2026-03-28T09:20:48.622Z</time></trkpt><trkpt lat="45.3905612" lon="10.642678"><ele>116.0</ele><time>2026-03-28T09:20:49.618Z</time></trkpt><trkpt lat="45.3904999" lon="10.6428827"><ele>116.0</ele><time>2026-03-28T09:20:50.619Z</time></trkpt><trkpt lat="45.3904281" lon="10.6431412"><ele>113.66666666666666</ele><time>2026-03-28T09:20:51.623Z</time></trkpt><trkpt lat="45.3903771" lon="10.6433971"><ele>111.33333333333334</ele><time>2026-03-28T09:20:52.624Z</time></trkpt><trkpt lat="45.3902991" lon="10.6435952"><ele>109.0</ele><time>2026-03-28T09:20:53.615Z</time></trkpt><trkpt lat="45.3902423" lon="10.6437482"><ele>108.0</ele><time>2026-03-28T09:20:54.623Z</time></trkpt><trkpt lat="45.390183" lon="10.6438513"><ele>107.0</ele><time>2026-03-28T09:20:55.62Z</time></trkpt><trkpt lat="45.3901328" lon="10.6439209"><ele>106.0</ele><time>2026-03-28T09:20:56.617Z</time></trkpt><trkpt lat="45.3901232" lon="10.6440381"><ele>105.0</ele><time>2026-03-28T09:20:58.629Z</time></trkpt><trkpt lat="45.390235" lon="10.6441816"><ele>104.0</ele><time>2026-03-28T09:21:00.616Z</time></trkpt><trkpt lat="45.3903594" lon="10.6442338"><ele>104.0</ele><time>2026-03-28T09:21:01.62Z</time></trkpt><trkpt lat="45.3904909" lon="10.6442986"><ele>104.0</ele><time>2026-03-28T09:21:02.611Z</time></trkpt><trkpt lat="45.3906115" lon="10.6443709"><ele>104.0</ele><time>2026-03-28T09:21:03.615Z</time></trkpt><trkpt lat="45.3907256" lon="10.6444616"><ele>104.0</ele><time>2026-03-28T09:21:04.611Z</time></trkpt><trkpt lat="45.3908236" lon="10.6445958"><ele>103.66666666666666</ele><time>2026-03-28T09:21:05.609Z</time></trkpt><trkpt lat="45.3909008" lon="10.6447751"><ele>103.33333333333334</ele><time>2026-03-28T09:21:06.613Z</time></trkpt><trkpt lat="45.3909226" lon="10.6450166"><ele>103.0</ele><time>2026-03-28T09:21:07.611Z</time></trkpt><trkpt lat="45.3909113" lon="10.6452425"><ele>102.33333333333334</ele><time>2026-03-28T09:21:08.621Z</time></trkpt><trkpt lat="45.3908739" lon="10.6455265"><ele>101.66666666666666</ele><time>2026-03-28T09:21:09.621Z</time></trkpt><trkpt lat="45.3908006" lon="10.6457853"><ele>101.0</ele><time>2026-03-28T09:21:10.623Z</time></trkpt><trkpt lat="45.3907283" lon="10.6460667"><ele>101.33333333333333</ele><time>2026-03-28T09:21:11.628Z</time></trkpt><trkpt lat="45.3906279" lon="10.6463453"><ele>101.66666666666666</ele><time>2026-03-28T09:21:12.629Z</time></trkpt><trkpt lat="45.3905419" lon="10.6466449"><ele>102.0</ele><time>2026-03-28T09:21:13.628Z</time></trkpt><trkpt lat="45.3904526" lon="10.6469281"><ele>100.33333333333334</ele><time>2026-03-28T09:21:14.628Z</time></trkpt><trkpt lat="45.3903722" lon="10.6472169"><ele>98.66666666666667</ele><time>2026-03-28T09:21:15.627Z</time></trkpt><trkpt lat="45.3902819" lon="10.6475088"><ele>97.0</ele><time>2026-03-28T09:21:16.629Z</time></trkpt><trkpt lat="45.3902081" lon="10.6478114"><ele>96.5</ele><time>2026-03-28T09:21:17.625Z</time></trkpt><trkpt lat="45.3901272" lon="10.6481142"><ele>96.0</ele><time>2026-03-28T09:21:18.626Z</time></trkpt><trkpt lat="45.3900373" lon="10.6484263"><ele>97.0</ele><time>2026-03-28T09:21:19.627Z</time></trkpt><trkpt lat="45.389945" lon="10.6487426"><ele>98.0</ele><time>2026-03-28T09:21:20.626Z</time></trkpt><trkpt lat="45.389849" lon="10.649029"><ele>98.0</ele><time>2026-03-28T09:21:21.626Z</time></trkpt><trkpt lat="45.389765" lon="10.6493069"><ele>98.0</ele><time>2026-03-28T09:21:22.622Z</time></trkpt><trkpt lat="45.3897162" lon="10.6495873"><ele>98.0</ele><time>2026-03-28T09:21:23.621Z</time></trkpt><trkpt lat="45.3896765" lon="10.6498466"><ele>97.33333333333333</ele><time>2026-03-28T09:21:24.621Z</time></trkpt><trkpt lat="45.3896394" lon="10.65011"><ele>96.66666666666666</ele><time>2026-03-28T09:21:25.626Z</time></trkpt><trkpt lat="45.389593" lon="10.6503634"><ele>96.0</ele><time>2026-03-28T09:21:26.629Z</time></trkpt><trkpt lat="45.389576" lon="10.6506263"><ele>96.0</ele><time>2026-03-28T09:21:27.627Z</time></trkpt><trkpt lat="45.3895622" lon="10.6509223"><ele>96.0</ele><time>2026-03-28T09:21:28.629Z</time></trkpt><trkpt lat="45.3895476" lon="10.6512302"><ele>96.0</ele><time>2026-03-28T09:21:29.628Z</time></trkpt><trkpt lat="45.3895491" lon="10.6515108"><ele>97.0</ele><time>2026-03-28T09:21:30.625Z</time></trkpt><trkpt lat="45.3895703" lon="10.6517835"><ele>98.0</ele><time>2026-03-28T09:21:31.626Z</time></trkpt><trkpt lat="45.3895552" lon="10.652049"><ele>99.0</ele><time>2026-03-28T09:21:32.626Z</time></trkpt><trkpt lat="45.3894978" lon="10.6522913"><ele>99.66666666666666</ele><time>2026-03-28T09:21:33.621Z</time></trkpt><trkpt lat="45.3894168" lon="10.6525316"><ele>100.33333333333333</ele><time>2026-03-28T09:21:34.627Z</time></trkpt><trkpt lat="45.3893346" lon="10.6527766"><ele>101.0</ele><time>2026-03-28T09:21:35.623Z</time></trkpt><trkpt lat="45.389241" lon="10.6529903"><ele>101.66666666666666</ele><time>2026-03-28T09:21:36.628Z</time></trkpt><trkpt lat="45.3891391" lon="10.6532044"><ele>102.33333333333334</ele><time>2026-03-28T09:21:37.622Z</time></trkpt><trkpt lat="45.3890398" lon="10.6533933"><ele>103.0</ele><time>2026-03-28T09:21:38.626Z</time></trkpt><trkpt lat="45.3889254" lon="10.6535706"><ele>101.5</ele><time>2026-03-28T09:21:39.627Z</time></trkpt><trkpt lat="45.3888285" lon="10.6537352"><ele>100.0</ele><time>2026-03-28T09:21:40.619Z</time></trkpt><trkpt lat="45.3887201" lon="10.6538926"><ele>98.5</ele><time>2026-03-28T09:21:41.625Z</time></trkpt><trkpt lat="45.388635" lon="10.654044"><ele>97.0</ele><time>2026-03-28T09:21:42.615Z</time></trkpt><trkpt lat="45.3885557" lon="10.6541872"><ele>97.0</ele><time>2026-03-28T09:21:43.622Z</time></trkpt><trkpt lat="45.3885389" lon="10.6543758"><ele>97.0</ele><time>2026-03-28T09:21:44.624Z</time></trkpt><trkpt lat="45.388537" lon="10.6545583"><ele>97.0</ele><time>2026-03-28T09:21:45.619Z</time></trkpt><trkpt lat="45.3885665" lon="10.6547807"><ele>97.0</ele><time>2026-03-28T09:21:46.62Z</time></trkpt><trkpt lat="45.3885939" lon="10.6550149"><ele>97.33333333333334</ele><time>2026-03-28T09:21:47.619Z</time></trkpt><trkpt lat="45.3886156" lon="10.6552841"><ele>97.66666666666666</ele><time>2026-03-28T09:21:48.622Z</time></trkpt><trkpt lat="45.3886431" lon="10.6555583"><ele>98.0</ele><time>2026-03-28T09:21:49.627Z</time></trkpt><trkpt lat="45.3886871" lon="10.6558395"><ele>96.33333333333333</ele><time>2026-03-28T09:21:50.63Z</time></trkpt><trkpt lat="45.388718" lon="10.6561243"><ele>94.66666666666666</ele><time>2026-03-28T09:21:51.625Z</time></trkpt><trkpt lat="45.3887525" lon="10.6564194"><ele>93.0</ele><time>2026-03-28T09:21:52.633Z</time></trkpt><trkpt lat="45.3887902" lon="10.6567038"><ele>92.0</ele><time>2026-03-28T09:21:53.631Z</time></trkpt><trkpt lat="45.3888192" lon="10.6569969"><ele>91.0</ele><time>2026-03-28T09:21:54.625Z</time></trkpt><trkpt lat="45.3888409" lon="10.6572548"><ele>90.0</ele><time>2026-03-28T09:21:55.631Z</time></trkpt><trkpt lat="45.3888805" lon="10.6575124"><ele>90.66666666666667</ele><time>2026-03-28T09:21:56.624Z</time></trkpt><trkpt lat="45.3889046" lon="10.6577585"><ele>91.33333333333334</ele><time>2026-03-28T09:21:57.624Z</time></trkpt><trkpt lat="45.3889336" lon="10.6580025"><ele>92.0</ele><time>2026-03-28T09:21:58.634Z</time></trkpt><trkpt lat="45.3889452" lon="10.6582409"><ele>92.0</ele><time>2026-03-28T09:21:59.631Z</time></trkpt><trkpt lat="45.3890022" lon="10.6584665"><ele>92.0</ele><time>2026-03-28T09:22:00.627Z</time></trkpt><trkpt lat="45.3890696" lon="10.6586984"><ele>92.0</ele><time>2026-03-28T09:22:01.633Z</time></trkpt><trkpt lat="45.3891506" lon="10.6589451"><ele>92.33333333333334</ele><time>2026-03-28T09:22:02.628Z</time></trkpt><trkpt lat="45.389264" lon="10.6591948"><ele>92.66666666666667</ele><time>2026-03-28T09:22:03.627Z</time></trkpt><trkpt lat="45.3893709" lon="10.6594616"><ele>93.0</ele><time>2026-03-28T09:22:04.627Z</time></trkpt><trkpt lat="45.3894405" lon="10.6597388"><ele>92.33333333333333</ele><time>2026-03-28T09:22:05.62Z</time></trkpt><trkpt lat="45.3894778" lon="10.6600008"><ele>91.66666666666666</ele><time>2026-03-28T09:22:06.623Z</time></trkpt><trkpt lat="45.3894746" lon="10.6602803"><ele>91.0</ele><time>2026-03-28T09:22:07.623Z</time></trkpt><trkpt lat="45.3894597" lon="10.6605482"><ele>90.66666666666666</ele><time>2026-03-28T09:22:08.628Z</time></trkpt><trkpt lat="45.3894427" lon="10.660815"><ele>90.33333333333333</ele><time>2026-03-28T09:22:09.635Z</time></trkpt><trkpt lat="45.3894587" lon="10.6610736"><ele>90.0</ele><time>2026-03-28T09:22:10.632Z</time></trkpt><trkpt lat="45.3894645" lon="10.6613026"><ele>90.66666666666667</ele><time>2026-03-28T09:22:11.634Z</time></trkpt><trkpt lat="45.3894685" lon="10.6615463"><ele>91.33333333333334</ele><time>2026-03-28T09:22:12.636Z</time></trkpt><trkpt lat="45.3894814" lon="10.6617975"><ele>92.0</ele><time>2026-03-28T09:22:13.638Z</time></trkpt><trkpt lat="45.389517" lon="10.662053"><ele>92.0</ele><time>2026-03-28T09:22:14.638Z</time></trkpt><trkpt lat="45.3895669" lon="10.6623356"><ele>92.0</ele><time>2026-03-28T09:22:15.639Z</time></trkpt><trkpt lat="45.3896185" lon="10.6626119"><ele>92.0</ele><time>2026-03-28T09:22:16.633Z</time></trkpt><trkpt lat="45.3896697" lon="10.6628908"><ele>91.66666666666667</ele><time>2026-03-28T09:22:17.641Z</time></trkpt><trkpt lat="45.3897183" lon="10.6631629"><ele>91.33333333333333</ele><time>2026-03-28T09:22:18.635Z</time></trkpt><trkpt lat="45.3897666" lon="10.6634402"><ele>91.0</ele><time>2026-03-28T09:22:19.639Z</time></trkpt><trkpt lat="45.3898323" lon="10.6637319"><ele>91.0</ele><time>2026-03-28T09:22:20.636Z</time></trkpt><trkpt lat="45.3899081" lon="10.6640036"><ele>91.0</ele><time>2026-03-28T09:22:21.638Z</time></trkpt><trkpt lat="45.3899796" lon="10.6642797"><ele>91.0</ele><time>2026-03-28T09:22:22.633Z</time></trkpt><trkpt lat="45.3900493" lon="10.6645459"><ele>91.0</ele><time>2026-03-28T09:22:23.641Z</time></trkpt><trkpt lat="45.3901406" lon="10.6648294"><ele>91.0</ele><time>2026-03-28T09:22:24.633Z</time></trkpt><trkpt lat="45.3902163" lon="10.6651168"><ele>91.0</ele><time>2026-03-28T09:22:25.628Z</time></trkpt><trkpt lat="45.3902847" lon="10.6653829"><ele>91.0</ele><time>2026-03-28T09:22:26.636Z</time></trkpt><trkpt lat="45.3903601" lon="10.665659"><ele>91.0</ele><time>2026-03-28T09:22:27.631Z</time></trkpt><trkpt lat="45.3904142" lon="10.6659486"><ele>91.0</ele><time>2026-03-28T09:22:28.638Z</time></trkpt><trkpt lat="45.3904604" lon="10.6662278"><ele>92.33333333333333</ele><time>2026-03-28T09:22:29.635Z</time></trkpt><trkpt lat="45.3905169" lon="10.6664802"><ele>93.66666666666667</ele><time>2026-03-28T09:22:30.626Z</time></trkpt><trkpt lat="45.3905702" lon="10.6667306"><ele>95.0</ele><time>2026-03-28T09:22:31.632Z</time></trkpt><trkpt lat="45.3906404" lon="10.6669939"><ele>95.0</ele><time>2026-03-28T09:22:32.628Z</time></trkpt><trkpt lat="45.3907168" lon="10.6672563"><ele>95.0</ele><time>2026-03-28T09:22:33.631Z</time></trkpt><trkpt lat="45.3908234" lon="10.6675167"><ele>95.0</ele><time>2026-03-28T09:22:34.626Z</time></trkpt><trkpt lat="45.3909471" lon="10.6678095"><ele>94.33333333333334</ele><time>2026-03-28T09:22:35.623Z</time></trkpt><trkpt lat="45.3910793" lon="10.6680886"><ele>93.66666666666667</ele><time>2026-03-28T09:22:36.629Z</time></trkpt><trkpt lat="45.3911942" lon="10.6683391"><ele>93.0</ele><time>2026-03-28T09:22:37.629Z</time></trkpt><trkpt lat="45.3913175" lon="10.6685554"><ele>95.33333333333334</ele><time>2026-03-28T09:22:38.622Z</time></trkpt><trkpt lat="45.3914318" lon="10.6687841"><ele>97.66666666666667</ele><time>2026-03-28T09:22:39.63Z</time></trkpt><trkpt lat="45.3915338" lon="10.66899"><ele>100.0</ele><time>2026-03-28T09:22:40.622Z</time></trkpt><trkpt lat="45.3916305" lon="10.6691814"><ele>100.0</ele><time>2026-03-28T09:22:41.626Z</time></trkpt><trkpt lat="45.3917119" lon="10.6693629"><ele>100.0</ele><time>2026-03-28T09:22:42.635Z</time></trkpt><trkpt lat="45.3917849" lon="10.6695467"><ele>100.0</ele><time>2026-03-28T09:22:43.622Z</time></trkpt><trkpt lat="45.3918601" lon="10.6697278"><ele>100.0</ele><time>2026-03-28T09:22:44.628Z</time></trkpt><trkpt lat="45.391928" lon="10.6699333"><ele>100.5</ele><time>2026-03-28T09:22:45.624Z</time></trkpt><trkpt lat="45.391983" lon="10.670125"><ele>101.0</ele><time>2026-03-28T09:22:46.641Z</time></trkpt><trkpt lat="45.3920165" lon="10.6703317"><ele>101.5</ele><time>2026-03-28T09:22:47.629Z</time></trkpt><trkpt lat="45.3920323" lon="10.6705257"><ele>102.0</ele><time>2026-03-28T09:22:48.624Z</time></trkpt><trkpt lat="45.3920152" lon="10.6707323"><ele>102.33333333333334</ele><time>2026-03-28T09:22:49.629Z</time></trkpt><trkpt lat="45.3919669" lon="10.6709328"><ele>102.66666666666667</ele><time>2026-03-28T09:22:50.627Z</time></trkpt><trkpt lat="45.3918859" lon="10.6711329"><ele>103.0</ele><time>2026-03-28T09:22:51.624Z</time></trkpt><trkpt lat="45.3918187" lon="10.6713465"><ele>103.33333333333334</ele><time>2026-03-28T09:22:52.618Z</time></trkpt><trkpt lat="45.3917601" lon="10.6715495"><ele>103.66666666666666</ele><time>2026-03-28T09:22:53.621Z</time></trkpt><trkpt lat="45.3917121" lon="10.6717678"><ele>104.0</ele><time>2026-03-28T09:22:54.618Z</time></trkpt><trkpt lat="45.3916843" lon="10.6720014"><ele>102.66666666666666</ele><time>2026-03-28T09:22:55.618Z</time></trkpt><trkpt lat="45.3917088" lon="10.6722615"><ele>101.33333333333334</ele><time>2026-03-28T09:22:56.621Z</time></trkpt><trkpt lat="45.3917615" lon="10.672491"><ele>100.0</ele><time>2026-03-28T09:22:57.626Z</time></trkpt><trkpt lat="45.3918059" lon="10.6727164"><ele>99.0</ele><time>2026-03-28T09:22:58.623Z</time></trkpt><trkpt lat="45.3918909" lon="10.6729141"><ele>98.0</ele><time>2026-03-28T09:22:59.623Z</time></trkpt><trkpt lat="45.391948" lon="10.6731149"><ele>97.0</ele><time>2026-03-28T09:23:00.629Z</time></trkpt><trkpt lat="45.3919658" lon="10.6733334"><ele>97.0</ele><time>2026-03-28T09:23:01.621Z</time></trkpt><trkpt lat="45.3919675" lon="10.6735464"><ele>97.0</ele><time>2026-03-28T09:23:02.625Z</time></trkpt><trkpt lat="45.3919577" lon="10.6737875"><ele>97.0</ele><time>2026-03-28T09:23:03.626Z</time></trkpt><trkpt lat="45.3919242" lon="10.6739766"><ele>97.33333333333334</ele><time>2026-03-28T09:23:04.627Z</time></trkpt><trkpt lat="45.3918717" lon="10.6741886"><ele>97.66666666666666</ele><time>2026-03-28T09:23:05.627Z</time></trkpt><trkpt lat="45.3918166" lon="10.6743985"><ele>98.0</ele><time>2026-03-28T09:23:06.628Z</time></trkpt><trkpt lat="45.3917636" lon="10.6745981"><ele>98.0</ele><time>2026-03-28T09:23:07.626Z</time></trkpt><trkpt lat="45.3916972" lon="10.6747887"><ele>98.0</ele><time>2026-03-28T09:23:08.62Z</time></trkpt><trkpt lat="45.3916317" lon="10.6749882"><ele>98.0</ele><time>2026-03-28T09:23:09.624Z</time></trkpt><trkpt lat="45.3915461" lon="10.6751703"><ele>98.0</ele><time>2026-03-28T09:23:10.623Z</time></trkpt><trkpt lat="45.3914444" lon="10.6753563"><ele>98.0</ele><time>2026-03-28T09:23:11.621Z</time></trkpt><trkpt lat="45.3913463" lon="10.6755458"><ele>98.0</ele><time>2026-03-28T09:23:12.618Z</time></trkpt><trkpt lat="45.3912306" lon="10.6757261"><ele>96.66666666666666</ele><time>2026-03-28T09:23:13.615Z</time></trkpt><trkpt lat="45.3911235" lon="10.6758991"><ele>95.33333333333333</ele><time>2026-03-28T09:23:14.62Z</time></trkpt><trkpt lat="45.3910296" lon="10.6760648"><ele>94.0</ele><time>2026-03-28T09:23:15.615Z</time></trkpt><trkpt lat="45.3909279" lon="10.6762227"><ele>94.0</ele><time>2026-03-28T09:23:16.613Z</time></trkpt><trkpt lat="45.3908235" lon="10.6763659"><ele>94.0</ele><time>2026-03-28T09:23:17.621Z</time></trkpt><trkpt lat="45.3907208" lon="10.6764973"><ele>94.0</ele><time>2026-03-28T09:23:18.611Z</time></trkpt><trkpt lat="45.3905881" lon="10.6765995"><ele>94.0</ele><time>2026-03-28T09:23:19.626Z</time></trkpt><trkpt lat="45.3904443" lon="10.6766898"><ele>93.66666666666666</ele><time>2026-03-28T09:23:20.616Z</time></trkpt><trkpt lat="45.3902871" lon="10.6767777"><ele>93.33333333333333</ele><time>2026-03-28T09:23:21.621Z</time></trkpt><trkpt lat="45.3901329" lon="10.6768599"><ele>93.0</ele><time>2026-03-28T09:23:22.628Z</time></trkpt><trkpt lat="45.3899827" lon="10.676936"><ele>93.0</ele><time>2026-03-28T09:23:23.621Z</time></trkpt><trkpt lat="45.3898246" lon="10.6770411"><ele>93.0</ele><time>2026-03-28T09:23:24.617Z</time></trkpt><trkpt lat="45.3896628" lon="10.6771587"><ele>93.0</ele><time>2026-03-28T09:23:25.624Z</time></trkpt><trkpt lat="45.389495" lon="10.6773021"><ele>92.66666666666667</ele><time>2026-03-28T09:23:26.624Z</time></trkpt><trkpt lat="45.3893218" lon="10.6774732"><ele>92.33333333333334</ele><time>2026-03-28T09:23:27.621Z</time></trkpt><trkpt lat="45.3891378" lon="10.6776556"><ele>92.0</ele><time>2026-03-28T09:23:28.626Z</time></trkpt><trkpt lat="45.3889549" lon="10.6778477"><ele>91.0</ele><time>2026-03-28T09:23:29.625Z</time></trkpt><trkpt lat="45.3887985" lon="10.678018"><ele>90.0</ele><time>2026-03-28T09:23:30.62Z</time></trkpt><trkpt lat="45.3886457" lon="10.6781767"><ele>89.0</ele><time>2026-03-28T09:23:31.625Z</time></trkpt><trkpt lat="45.3884815" lon="10.6783071"><ele>89.0</ele><time>2026-03-28T09:23:32.625Z</time></trkpt><trkpt lat="45.3883413" lon="10.6784831"><ele>89.0</ele><time>2026-03-28T09:23:33.621Z</time></trkpt><trkpt lat="45.3882216" lon="10.6786449"><ele>89.0</ele><time>2026-03-28T09:23:34.616Z</time></trkpt><trkpt lat="45.3880748" lon="10.6788248"><ele>88.0</ele><time>2026-03-28T09:23:35.623Z</time></trkpt><trkpt lat="45.3879725" lon="10.6790041"><ele>87.0</ele><time>2026-03-28T09:23:36.623Z</time></trkpt><trkpt lat="45.3879119" lon="10.6791621"><ele>86.0</ele><time>2026-03-28T09:23:37.635Z</time></trkpt><trkpt lat="45.3878395" lon="10.6793566"><ele>85.0</ele><time>2026-03-28T09:23:38.625Z</time></trkpt><trkpt lat="45.3878325" lon="10.6795567"><ele>85.0</ele><time>2026-03-28T09:23:39.623Z</time></trkpt><trkpt lat="45.3878734" lon="10.6797615"><ele>85.0</ele><time>2026-03-28T09:23:40.624Z</time></trkpt><trkpt lat="45.387937" lon="10.6799859"><ele>85.0</ele><time>2026-03-28T09:23:41.62Z</time></trkpt><trkpt lat="45.3880127" lon="10.6802284"><ele>86.33333333333333</ele><time>2026-03-28T09:23:42.627Z</time></trkpt><trkpt lat="45.3880555" lon="10.6804699"><ele>87.66666666666667</ele><time>2026-03-28T09:23:43.623Z</time></trkpt><trkpt lat="45.3881111" lon="10.6807191"><ele>89.0</ele><time>2026-03-28T09:23:44.627Z</time></trkpt><trkpt lat="45.3881429" lon="10.6809665"><ele>90.66666666666667</ele><time>2026-03-28T09:23:45.623Z</time></trkpt><trkpt lat="45.3881655" lon="10.6811987"><ele>92.33333333333333</ele><time>2026-03-28T09:23:46.623Z</time></trkpt><trkpt lat="45.3881784" lon="10.6814442"><ele>94.0</ele><time>2026-03-28T09:23:47.627Z</time></trkpt><trkpt lat="45.3881623" lon="10.6817196"><ele>95.33333333333333</ele><time>2026-03-28T09:23:48.626Z</time></trkpt><trkpt lat="45.3881552" lon="10.6819766"><ele>96.66666666666666</ele><time>2026-03-28T09:23:49.626Z</time></trkpt><trkpt lat="45.3881334" lon="10.682225"><ele>98.0</ele><time>2026-03-28T09:23:50.63Z</time></trkpt><trkpt lat="45.3880806" lon="10.6824601"><ele>98.0</ele><time>2026-03-28T09:23:51.625Z</time></trkpt><trkpt lat="45.3880266" lon="10.6827012"><ele>98.0</ele><time>2026-03-28T09:23:52.623Z</time></trkpt><trkpt lat="45.3879727" lon="10.6829485"><ele>98.0</ele><time>2026-03-28T09:23:53.624Z</time></trkpt><trkpt lat="45.3879156" lon="10.6831547"><ele>95.33333333333333</ele><time>2026-03-28T09:23:54.617Z</time></trkpt><trkpt lat="45.3878551" lon="10.683373"><ele>92.66666666666666</ele><time>2026-03-28T09:23:55.623Z</time></trkpt><trkpt lat="45.3878077" lon="10.6835954"><ele>90.0</ele><time>2026-03-28T09:23:56.627Z</time></trkpt><trkpt lat="45.3877844" lon="10.6838153"><ele>89.66666666666667</ele><time>2026-03-28T09:23:57.62Z</time></trkpt><trkpt lat="45.3877441" lon="10.6840319"><ele>89.33333333333334</ele><time>2026-03-28T09:23:58.627Z</time></trkpt><trkpt lat="45.3877277" lon="10.6842485"><ele>89.0</ele><time>2026-03-28T09:23:59.63Z</time></trkpt><trkpt lat="45.3877068" lon="10.6844739"><ele>89.0</ele><time>2026-03-28T09:24:00.622Z</time></trkpt><trkpt lat="45.3876983" lon="10.6847058"><ele>89.0</ele><time>2026-03-28T09:24:01.627Z</time></trkpt><trkpt lat="45.3877063" lon="10.684957"><ele>89.0</ele><time>2026-03-28T09:24:02.627Z</time></trkpt><trkpt lat="45.3877024" lon="10.6851799"><ele>88.0</ele><time>2026-03-28T09:24:03.629Z</time></trkpt><trkpt lat="45.3876981" lon="10.6853914"><ele>87.0</ele><time>2026-03-28T09:24:04.631Z</time></trkpt><trkpt lat="45.3877352" lon="10.6856064"><ele>86.0</ele><time>2026-03-28T09:24:05.616Z</time></trkpt><trkpt lat="45.3877806" lon="10.685793"><ele>85.0</ele><time>2026-03-28T09:24:06.624Z</time></trkpt><trkpt lat="45.3878416" lon="10.685971"><ele>84.5</ele><time>2026-03-28T09:24:07.624Z</time></trkpt><trkpt lat="45.3879221" lon="10.6861247"><ele>84.0</ele><time>2026-03-28T09:24:08.627Z</time></trkpt><trkpt lat="45.3880417" lon="10.6862521"><ele>83.5</ele><time>2026-03-28T09:24:09.627Z</time></trkpt><trkpt lat="45.3881724" lon="10.6863838"><ele>83.0</ele><time>2026-03-28T09:24:10.619Z</time></trkpt><trkpt lat="45.3882975" lon="10.6865153"><ele>84.5</ele><time>2026-03-28T09:24:11.624Z</time></trkpt><trkpt lat="45.388403" lon="10.6866451"><ele>86.0</ele><time>2026-03-28T09:24:12.63Z</time></trkpt><trkpt lat="45.3885008" lon="10.6867866"><ele>87.5</ele><time>2026-03-28T09:24:13.628Z</time></trkpt><trkpt lat="45.3885976" lon="10.6869098"><ele>89.0</ele><time>2026-03-28T09:24:14.62Z</time></trkpt><trkpt lat="45.3886554" lon="10.6870151"><ele>89.0</ele><time>2026-03-28T09:24:15.621Z</time></trkpt><trkpt lat="45.3886945" lon="10.6871515"><ele>89.0</ele><time>2026-03-28T09:24:16.627Z</time></trkpt><trkpt lat="45.3887255" lon="10.6872906"><ele>89.0</ele><time>2026-03-28T09:24:17.629Z</time></trkpt><trkpt lat="45.3887498" lon="10.6874388"><ele>89.0</ele><time>2026-03-28T09:24:18.624Z</time></trkpt><trkpt lat="45.3887779" lon="10.6875633"><ele>89.0</ele><time>2026-03-28T09:24:19.625Z</time></trkpt><trkpt lat="45.3887981" lon="10.6876549"><ele>89.0</ele><time>2026-03-28T09:24:20.623Z</time></trkpt><trkpt lat="45.388832" lon="10.6877476"><ele>89.0</ele><time>2026-03-28T09:24:22.635Z</time></trkpt><trkpt lat="45.3888605" lon="10.6878538"><ele>89.0</ele><time>2026-03-28T09:24:27.636Z</time></trkpt><trkpt lat="45.3888878" lon="10.6879667"><ele>89.0</ele><time>2026-03-28T09:24:30.627Z</time></trkpt><trkpt lat="45.3889152" lon="10.6880655"><ele>89.0</ele><time>2026-03-28T09:24:33.623Z</time></trkpt><trkpt lat="45.3889405" lon="10.6881968"><ele>89.0</ele><time>2026-03-28T09:24:35.626Z</time></trkpt><trkpt lat="45.388937" lon="10.6882974"><ele>89.33333333333334</ele><time>2026-03-28T09:24:36.63Z</time></trkpt><trkpt lat="45.388902" lon="10.6883998"><ele>89.66666666666667</ele><time>2026-03-28T09:24:37.619Z</time></trkpt><trkpt lat="45.3888541" lon="10.6884807"><ele>90.0</ele><time>2026-03-28T09:24:38.617Z</time></trkpt><trkpt lat="45.3887963" lon="10.68852"><ele>90.33333333333333</ele><time>2026-03-28T09:24:39.618Z</time></trkpt><trkpt lat="45.3887319" lon="10.6885046"><ele>90.66666666666666</ele><time>2026-03-28T09:24:40.615Z</time></trkpt><trkpt lat="45.3886671" lon="10.6884722"><ele>91.0</ele><time>2026-03-28T09:24:41.61Z</time></trkpt><trkpt lat="45.3885719" lon="10.6884038"><ele>91.75</ele><time>2026-03-28T09:24:42.619Z</time></trkpt><trkpt lat="45.3884619" lon="10.6883302"><ele>92.5</ele><time>2026-03-28T09:24:43.62Z</time></trkpt><trkpt lat="45.3883325" lon="10.6882328"><ele>93.25</ele><time>2026-03-28T09:24:44.621Z</time></trkpt><trkpt lat="45.3881875" lon="10.688133"><ele>94.0</ele><time>2026-03-28T09:24:45.613Z</time></trkpt><trkpt lat="45.3880183" lon="10.6880198"><ele>95.0</ele><time>2026-03-28T09:24:46.62Z</time></trkpt><trkpt lat="45.3878481" lon="10.6879033"><ele>96.0</ele><time>2026-03-28T09:24:47.621Z</time></trkpt><trkpt lat="45.387663" lon="10.687752"><ele>97.0</ele><time>2026-03-28T09:24:48.622Z</time></trkpt><trkpt lat="45.3874778" lon="10.6876706"><ele>93.66666666666667</ele><time>2026-03-28T09:24:49.626Z</time></trkpt><trkpt lat="45.3872799" lon="10.6875956"><ele>90.33333333333334</ele><time>2026-03-28T09:24:50.623Z</time></trkpt><trkpt lat="45.3871056" lon="10.6875375"><ele>87.0</ele><time>2026-03-28T09:24:51.623Z</time></trkpt><trkpt lat="45.3869181" lon="10.687456"><ele>87.0</ele><time>2026-03-28T09:24:52.624Z</time></trkpt><trkpt lat="45.3867361" lon="10.6874102"><ele>87.0</ele><time>2026-03-28T09:24:53.613Z</time></trkpt><trkpt lat="45.3865603" lon="10.6873916"><ele>87.0</ele><time>2026-03-28T09:24:54.618Z</time></trkpt><trkpt lat="45.3864002" lon="10.6873846"><ele>86.0</ele><time>2026-03-28T09:24:55.627Z</time></trkpt><trkpt lat="45.3862517" lon="10.6874063"><ele>85.0</ele><time>2026-03-28T09:24:56.631Z</time></trkpt><trkpt lat="45.3860963" lon="10.6874116"><ele>84.0</ele><time>2026-03-28T09:24:57.633Z</time></trkpt><trkpt lat="45.3859264" lon="10.6874365"><ele>84.0</ele><time>2026-03-28T09:24:58.624Z</time></trkpt><trkpt lat="45.3857433" lon="10.6874561"><ele>84.0</ele><time>2026-03-28T09:24:59.632Z</time></trkpt><trkpt lat="45.3855846" lon="10.6874875"><ele>84.0</ele><time>2026-03-28T09:25:00.627Z</time></trkpt><trkpt lat="45.3854405" lon="10.6875142"><ele>84.0</ele><time>2026-03-28T09:25:01.633Z</time></trkpt><trkpt lat="45.3853036" lon="10.6875247"><ele>84.0</ele><time>2026-03-28T09:25:02.63Z</time></trkpt><trkpt lat="45.3851641" lon="10.6875392"><ele>84.0</ele><time>2026-03-28T09:25:03.63Z</time></trkpt><trkpt lat="45.3850313" lon="10.6875386"><ele>84.0</ele><time>2026-03-28T09:25:04.629Z</time></trkpt><trkpt lat="45.3849232" lon="10.6875447"><ele>84.0</ele><time>2026-03-28T09:25:05.631Z</time></trkpt><trkpt lat="45.384825" lon="10.6875455"><ele>84.0</ele><time>2026-03-28T09:25:06.632Z</time></trkpt><trkpt lat="45.3847336" lon="10.6875479"><ele>84.0</ele><time>2026-03-28T09:25:07.628Z</time></trkpt><trkpt lat="45.3846698" lon="10.6875562"><ele>84.0</ele><time>2026-03-28T09:25:08.63Z</time></trkpt><trkpt lat="45.3845878" lon="10.6875667"><ele>84.0</ele><time>2026-03-28T09:25:11.631Z</time></trkpt><trkpt lat="45.3845191" lon="10.6875727"><ele>84.0</ele><time>2026-03-28T09:25:13.632Z</time></trkpt><trkpt lat="45.3844316" lon="10.6876205"><ele>84.2</ele><time>2026-03-28T09:25:15.626Z</time></trkpt><trkpt lat="45.3843768" lon="10.6877288"><ele>84.4</ele><time>2026-03-28T09:25:17.629Z</time></trkpt><trkpt lat="45.384382" lon="10.6879215"><ele>84.6</ele><time>2026-03-28T09:25:19.628Z</time></trkpt><trkpt lat="45.3843785" lon="10.6880414"><ele>84.8</ele><time>2026-03-28T09:25:20.628Z</time></trkpt><trkpt lat="45.3843679" lon="10.6881696"><ele>85.0</ele><time>2026-03-28T09:25:21.629Z</time></trkpt><trkpt lat="45.3843503" lon="10.6883007"><ele>85.28571428571429</ele><time>2026-03-28T09:25:22.628Z</time></trkpt><trkpt lat="45.3843169" lon="10.6884166"><ele>85.57142857142857</ele><time>2026-03-28T09:25:23.624Z</time></trkpt><trkpt lat="45.3842717" lon="10.6885131"><ele>85.85714285714286</ele><time>2026-03-28T09:25:24.621Z</time></trkpt><trkpt lat="45.3842263" lon="10.6886004"><ele>86.14285714285714</ele><time>2026-03-28T09:25:25.625Z</time></trkpt><trkpt lat="45.384187" lon="10.6886819"><ele>86.42857142857143</ele><time>2026-03-28T09:25:26.62Z</time></trkpt><trkpt lat="45.3841575" lon="10.6887625"><ele>86.71428571428571</ele><time>2026-03-28T09:25:27.622Z</time></trkpt><trkpt lat="45.3841474" lon="10.6888567"><ele>87.0</ele><time>2026-03-28T09:25:28.627Z</time></trkpt><trkpt lat="45.3841531" lon="10.6889873"><ele>87.19999999999999</ele><time>2026-03-28T09:25:29.626Z</time></trkpt><trkpt lat="45.3841639" lon="10.6891374"><ele>87.4</ele><time>2026-03-28T09:25:30.631Z</time></trkpt><trkpt lat="45.3841674" lon="10.6892841"><ele>87.6</ele><time>2026-03-28T09:25:31.632Z</time></trkpt><trkpt lat="45.3841681" lon="10.6894268"><ele>87.80000000000001</ele><time>2026-03-28T09:25:32.628Z</time></trkpt><trkpt lat="45.3841525" lon="10.6895724"><ele>88.0</ele><time>2026-03-28T09:25:33.629Z</time></trkpt><trkpt lat="45.3841217" lon="10.6897092"><ele>88.0</ele><time>2026-03-28T09:25:34.632Z</time></trkpt><trkpt lat="45.3840842" lon="10.689845"><ele>88.0</ele><time>2026-03-28T09:25:35.627Z</time></trkpt><trkpt lat="45.3840386" lon="10.6899705"><ele>88.0</ele><time>2026-03-28T09:25:36.623Z</time></trkpt><trkpt lat="45.3839745" lon="10.6900858"><ele>88.0</ele><time>2026-03-28T09:25:37.625Z</time></trkpt><trkpt lat="45.3838928" lon="10.6902075"><ele>88.0</ele><time>2026-03-28T09:25:38.626Z</time></trkpt><trkpt lat="45.3837918" lon="10.6903255"><ele>87.25</ele><time>2026-03-28T09:25:39.622Z</time></trkpt><trkpt lat="45.3836705" lon="10.6904202"><ele>86.5</ele><time>2026-03-28T09:25:40.627Z</time></trkpt><trkpt lat="45.3835391" lon="10.6904845"><ele>85.75</ele><time>2026-03-28T09:25:41.625Z</time></trkpt><trkpt lat="45.3834118" lon="10.6905436"><ele>85.0</ele><time>2026-03-28T09:25:42.617Z</time></trkpt><trkpt lat="45.3832672" lon="10.6905912"><ele>85.0</ele><time>2026-03-28T09:25:43.626Z</time></trkpt><trkpt lat="45.3831567" lon="10.6906614"><ele>85.0</ele><time>2026-03-28T09:25:44.627Z</time></trkpt><trkpt lat="45.3830307" lon="10.6907507"><ele>85.0</ele><time>2026-03-28T09:25:45.62Z</time></trkpt><trkpt lat="45.3829318" lon="10.6908825"><ele>85.0</ele><time>2026-03-28T09:25:46.626Z</time></trkpt><trkpt lat="45.3828443" lon="10.6910378"><ele>83.0</ele><time>2026-03-28T09:25:47.636Z</time></trkpt><trkpt lat="45.3827887" lon="10.6912284"><ele>81.0</ele><time>2026-03-28T09:25:48.627Z</time></trkpt><trkpt lat="45.3827534" lon="10.6914492"><ele>79.0</ele><time>2026-03-28T09:25:49.628Z</time></trkpt><trkpt lat="45.3827906" lon="10.6917609"><ele>77.0</ele><time>2026-03-28T09:25:50.625Z</time></trkpt><trkpt lat="45.3828575" lon="10.6920648"><ele>75.0</ele><time>2026-03-28T09:25:51.629Z</time></trkpt><trkpt lat="45.3829434" lon="10.6922755"><ele>73.0</ele><time>2026-03-28T09:25:52.627Z</time></trkpt><trkpt lat="45.3830267" lon="10.6924371"><ele>73.0</ele><time>2026-03-28T09:25:53.631Z</time></trkpt><trkpt lat="45.3830952" lon="10.6926003"><ele>73.0</ele><time>2026-03-28T09:25:54.625Z</time></trkpt><trkpt lat="45.3831774" lon="10.6927562"><ele>73.0</ele><time>2026-03-28T09:25:55.627Z</time></trkpt><trkpt lat="45.3833029" lon="10.6928907"><ele>73.0</ele><time>2026-03-28T09:25:56.632Z</time></trkpt><trkpt lat="45.3834048" lon="10.693011"><ele>72.4</ele><time>2026-03-28T09:25:57.631Z</time></trkpt><trkpt lat="45.3834819" lon="10.693124"><ele>71.8</ele><time>2026-03-28T09:25:58.625Z</time></trkpt><trkpt lat="45.3835515" lon="10.693236"><ele>71.2</ele><time>2026-03-28T09:25:59.632Z</time></trkpt><trkpt lat="45.3836201" lon="10.6933401"><ele>70.6</ele><time>2026-03-28T09:26:00.63Z</time></trkpt><trkpt lat="45.3836986" lon="10.6934395"><ele>70.0</ele><time>2026-03-28T09:26:01.631Z</time></trkpt><trkpt lat="45.3837795" lon="10.693531"><ele>68.6</ele><time>2026-03-28T09:26:02.631Z</time></trkpt><trkpt lat="45.3838535" lon="10.693623"><ele>67.2</ele><time>2026-03-28T09:26:03.629Z</time></trkpt><trkpt lat="45.383933" lon="10.693722"><ele>65.8</ele><time>2026-03-28T09:26:04.636Z</time></trkpt><trkpt lat="45.3840057" lon="10.6938018"><ele>64.4</ele><time>2026-03-28T09:26:05.624Z</time></trkpt><trkpt lat="45.3840894" lon="10.6938573"><ele>63.0</ele><time>2026-03-28T09:26:06.628Z</time></trkpt><trkpt lat="45.3841978" lon="10.6938547"><ele>63.0</ele><time>2026-03-28T09:26:07.627Z</time></trkpt><trkpt lat="45.3842949" lon="10.6938366"><ele>63.0</ele><time>2026-03-28T09:26:08.628Z</time></trkpt><trkpt lat="45.3843916" lon="10.6938095"><ele>63.0</ele><time>2026-03-28T09:26:09.627Z</time></trkpt><trkpt lat="45.3844671" lon="10.6937884"><ele>63.0</ele><time>2026-03-28T09:26:10.625Z</time></trkpt><trkpt lat="45.3845376" lon="10.6937699"><ele>63.0</ele><time>2026-03-28T09:26:11.617Z</time></trkpt><trkpt lat="45.3846114" lon="10.6937595"><ele>63.0</ele><time>2026-03-28T09:26:12.63Z</time></trkpt><trkpt lat="45.3846834" lon="10.6937516"><ele>64.0</ele><time>2026-03-28T09:26:13.634Z</time></trkpt><trkpt lat="45.3847541" lon="10.6937423"><ele>65.0</ele><time>2026-03-28T09:26:14.633Z</time></trkpt><trkpt lat="45.3848277" lon="10.6937455"><ele>66.0</ele><time>2026-03-28T09:26:15.621Z</time></trkpt><trkpt lat="45.3848934" lon="10.6937611"><ele>67.0</ele><time>2026-03-28T09:26:16.613Z</time></trkpt><trkpt lat="45.3849516" lon="10.6939084"><ele>68.0</ele><time>2026-03-28T09:26:18.618Z</time></trkpt><trkpt lat="45.3849263" lon="10.6940488"><ele>69.0</ele><time>2026-03-28T09:26:19.623Z</time></trkpt><trkpt lat="45.3848842" lon="10.6942143"><ele>69.0</ele><time>2026-03-28T09:26:20.621Z</time></trkpt><trkpt lat="45.3848318" lon="10.6943956"><ele>69.0</ele><time>2026-03-28T09:26:21.623Z</time></trkpt><trkpt lat="45.384796" lon="10.6945532"><ele>69.0</ele><time>2026-03-28T09:26:22.625Z</time></trkpt><trkpt lat="45.3847492" lon="10.6947274"><ele>69.0</ele><time>2026-03-28T09:26:23.619Z</time></trkpt><trkpt lat="45.3847046" lon="10.6948978"><ele>66.75</ele><time>2026-03-28T09:26:24.622Z</time></trkpt><trkpt lat="45.3846651" lon="10.6950682"><ele>64.5</ele><time>2026-03-28T09:26:25.623Z</time></trkpt><trkpt lat="45.3846295" lon="10.6952276"><ele>62.25</ele><time>2026-03-28T09:26:26.623Z</time></trkpt><trkpt lat="45.3845996" lon="10.6953833"><ele>60.0</ele><time>2026-03-28T09:26:27.626Z</time></trkpt><trkpt lat="45.3845762" lon="10.6955353"><ele>60.0</ele><time>2026-03-28T09:26:28.625Z</time></trkpt><trkpt lat="45.3845564" lon="10.6956823"><ele>60.0</ele><time>2026-03-28T09:26:29.63Z</time></trkpt><trkpt lat="45.3845408" lon="10.6958141"><ele>60.0</ele><time>2026-03-28T09:26:30.63Z</time></trkpt><trkpt lat="45.3845216" lon="10.6959142"><ele>60.0</ele><time>2026-03-28T09:26:31.624Z</time></trkpt><trkpt lat="45.3844817" lon="10.6960117"><ele>60.0</ele><time>2026-03-28T09:26:33.629Z</time></trkpt><trkpt lat="45.3844526" lon="10.6960996"><ele>60.0</ele><time>2026-03-28T09:26:45.625Z</time></trkpt><trkpt lat="45.3844312" lon="10.6962256"><ele>60.5</ele><time>2026-03-28T09:26:47.623Z</time></trkpt><trkpt lat="45.384403" lon="10.6963996"><ele>61.0</ele><time>2026-03-28T09:26:49.631Z</time></trkpt><trkpt lat="45.3843885" lon="10.696511"><ele>61.5</ele><time>2026-03-28T09:26:50.633Z</time></trkpt><trkpt lat="45.3843749" lon="10.6966152"><ele>62.0</ele><time>2026-03-28T09:26:51.631Z</time></trkpt><trkpt lat="45.3843643" lon="10.6967139"><ele>62.5</ele><time>2026-03-28T09:26:52.627Z</time></trkpt><trkpt lat="45.3843479" lon="10.6968061"><ele>63.0</ele><time>2026-03-28T09:26:53.631Z</time></trkpt><trkpt lat="45.3843246" lon="10.6968894"><ele>63.333333333333336</ele><time>2026-03-28T09:26:54.63Z</time></trkpt><trkpt lat="45.3842811" lon="10.6969717"><ele>63.66666666666667</ele><time>2026-03-28T09:26:55.625Z</time></trkpt><trkpt lat="45.3842246" lon="10.697031"><ele>64.0</ele><time>2026-03-28T09:26:56.626Z</time></trkpt><trkpt lat="45.3841558" lon="10.697058"><ele>64.33333333333334</ele><time>2026-03-28T09:26:57.619Z</time></trkpt><trkpt lat="45.384074" lon="10.6970787"><ele>64.66666666666667</ele><time>2026-03-28T09:26:58.623Z</time></trkpt><trkpt lat="45.3839717" lon="10.6970894"><ele>65.0</ele><time>2026-03-28T09:26:59.621Z</time></trkpt><trkpt lat="45.383854" lon="10.6970977"><ele>64.75</ele><time>2026-03-28T09:27:00.628Z</time></trkpt><trkpt lat="45.3837316" lon="10.6971155"><ele>64.5</ele><time>2026-03-28T09:27:01.627Z</time></trkpt><trkpt lat="45.3836095" lon="10.6971411"><ele>64.25</ele><time>2026-03-28T09:27:02.626Z</time></trkpt><trkpt lat="45.3834801" lon="10.6971775"><ele>64.0</ele><time>2026-03-28T09:27:03.621Z</time></trkpt><trkpt lat="45.3833474" lon="10.6972133"><ele>64.0</ele><time>2026-03-28T09:27:04.624Z</time></trkpt><trkpt lat="45.3832146" lon="10.6972502"><ele>64.0</ele><time>2026-03-28T09:27:05.625Z</time></trkpt><trkpt lat="45.3830789" lon="10.6973029"><ele>64.0</ele><time>2026-03-28T09:27:06.63Z</time></trkpt><trkpt lat="45.3829402" lon="10.6973718"><ele>64.0</ele><time>2026-03-28T09:27:07.624Z</time></trkpt><trkpt lat="45.3827638" lon="10.697516"><ele>64.0</ele><time>2026-03-28T09:27:08.621Z</time></trkpt><trkpt lat="45.3826115" lon="10.6975893"><ele>64.0</ele><time>2026-03-28T09:27:09.633Z</time></trkpt><trkpt lat="45.38248" lon="10.6976713"><ele>64.0</ele><time>2026-03-28T09:27:10.626Z</time></trkpt><trkpt lat="45.3823456" lon="10.6977577"><ele>64.0</ele><time>2026-03-28T09:27:11.627Z</time></trkpt><trkpt lat="45.3822038" lon="10.697845"><ele>64.0</ele><time>2026-03-28T09:27:12.625Z</time></trkpt><trkpt lat="45.3820635" lon="10.697952"><ele>64.0</ele><time>2026-03-28T09:27:13.628Z</time></trkpt><trkpt lat="45.3819398" lon="10.698079"><ele>63.666666666666664</ele><time>2026-03-28T09:27:14.621Z</time></trkpt><trkpt lat="45.3817987" lon="10.6981901"><ele>63.33333333333333</ele><time>2026-03-28T09:27:15.623Z</time></trkpt><trkpt lat="45.3816589" lon="10.6982841"><ele>63.0</ele><time>2026-03-28T09:27:16.633Z</time></trkpt><trkpt lat="45.3814972" lon="10.6983842"><ele>63.0</ele><time>2026-03-28T09:27:17.627Z</time></trkpt><trkpt lat="45.3813491" lon="10.6984825"><ele>63.0</ele><time>2026-03-28T09:27:18.63Z</time></trkpt><trkpt lat="45.3811994" lon="10.698573"><ele>63.0</ele><time>2026-03-28T09:27:19.632Z</time></trkpt><trkpt lat="45.3810571" lon="10.6986585"><ele>63.33333333333333</ele><time>2026-03-28T09:27:20.634Z</time></trkpt><trkpt lat="45.3809135" lon="10.6987399"><ele>63.666666666666664</ele><time>2026-03-28T09:27:21.628Z</time></trkpt><trkpt lat="45.3807942" lon="10.6988688"><ele>64.0</ele><time>2026-03-28T09:27:22.624Z</time></trkpt><trkpt lat="45.38065" lon="10.6989999"><ele>63.0</ele><time>2026-03-28T09:27:23.626Z</time></trkpt><trkpt lat="45.3805077" lon="10.6991404"><ele>62.0</ele><time>2026-03-28T09:27:24.632Z</time></trkpt><trkpt lat="45.3803662" lon="10.699288"><ele>61.0</ele><time>2026-03-28T09:27:25.63Z</time></trkpt><trkpt lat="45.3802231" lon="10.6994576"><ele>61.0</ele><time>2026-03-28T09:27:26.636Z</time></trkpt><trkpt lat="45.3800767" lon="10.699632"><ele>61.0</ele><time>2026-03-28T09:27:27.637Z</time></trkpt><trkpt lat="45.3799259" lon="10.6997957"><ele>61.0</ele><time>2026-03-28T09:27:28.633Z</time></trkpt><trkpt lat="45.3797844" lon="10.6999562"><ele>60.666666666666664</ele><time>2026-03-28T09:27:29.636Z</time></trkpt><trkpt lat="45.3796177" lon="10.7000906"><ele>60.33333333333333</ele><time>2026-03-28T09:27:30.634Z</time></trkpt><trkpt lat="45.3794652" lon="10.7002378"><ele>60.0</ele><time>2026-03-28T09:27:31.633Z</time></trkpt><trkpt lat="45.3793208" lon="10.7003926"><ele>60.33333333333333</ele><time>2026-03-28T09:27:32.638Z</time></trkpt><trkpt lat="45.3791664" lon="10.7005375"><ele>60.666666666666664</ele><time>2026-03-28T09:27:33.635Z</time></trkpt><trkpt lat="45.3790041" lon="10.7006895"><ele>61.0</ele><time>2026-03-28T09:27:34.634Z</time></trkpt><trkpt lat="45.3788363" lon="10.7008462"><ele>61.0</ele><time>2026-03-28T09:27:35.642Z</time></trkpt><trkpt lat="45.3786791" lon="10.7010085"><ele>61.0</ele><time>2026-03-28T09:27:36.635Z</time></trkpt><trkpt lat="45.3785152" lon="10.7011559"><ele>61.0</ele><time>2026-03-28T09:27:37.643Z</time></trkpt><trkpt lat="45.3783408" lon="10.7012898"><ele>60.666666666666664</ele><time>2026-03-28T09:27:38.639Z</time></trkpt><trkpt lat="45.3781667" lon="10.7014156"><ele>60.33333333333333</ele><time>2026-03-28T09:27:39.634Z</time></trkpt><trkpt lat="45.3779924" lon="10.7015276"><ele>60.0</ele><time>2026-03-28T09:27:40.633Z</time></trkpt><trkpt lat="45.3778312" lon="10.701671"><ele>60.0</ele><time>2026-03-28T09:27:41.638Z</time></trkpt><trkpt lat="45.3776715" lon="10.7018068"><ele>60.0</ele><time>2026-03-28T09:27:42.642Z</time></trkpt><trkpt lat="45.377495" lon="10.7019351"><ele>60.0</ele><time>2026-03-28T09:27:43.642Z</time></trkpt><trkpt lat="45.3773303" lon="10.7020849"><ele>60.0</ele><time>2026-03-28T09:27:44.636Z</time></trkpt><trkpt lat="45.3771819" lon="10.7022234"><ele>60.0</ele><time>2026-03-28T09:27:45.635Z</time></trkpt><trkpt lat="45.3770371" lon="10.7023708"><ele>60.0</ele><time>2026-03-28T09:27:46.638Z</time></trkpt><trkpt lat="45.3768944" lon="10.7025315"><ele>60.0</ele><time>2026-03-28T09:27:47.644Z</time></trkpt><trkpt lat="45.3767581" lon="10.7027463"><ele>60.0</ele><time>2026-03-28T09:27:48.639Z</time></trkpt><trkpt lat="45.3766322" lon="10.702974"><ele>60.0</ele><time>2026-03-28T09:27:49.642Z</time></trkpt><trkpt lat="45.3765192" lon="10.7031976"><ele>60.66666666666667</ele><time>2026-03-28T09:27:50.642Z</time></trkpt><trkpt lat="45.3763992" lon="10.7034274"><ele>61.333333333333336</ele><time>2026-03-28T09:27:51.643Z</time></trkpt><trkpt lat="45.376263" lon="10.7036333"><ele>62.0</ele><time>2026-03-28T09:27:52.641Z</time></trkpt><trkpt lat="45.3761462" lon="10.7038607"><ele>62.0</ele><time>2026-03-28T09:27:53.637Z</time></trkpt><trkpt lat="45.3760176" lon="10.7040877"><ele>62.0</ele><time>2026-03-28T09:27:54.634Z</time></trkpt><trkpt lat="45.3758861" lon="10.7043098"><ele>62.0</ele><time>2026-03-28T09:27:55.639Z</time></trkpt><trkpt lat="45.3757471" lon="10.7045202"><ele>62.0</ele><time>2026-03-28T09:27:56.639Z</time></trkpt><trkpt lat="45.3756098" lon="10.704748"><ele>62.0</ele><time>2026-03-28T09:27:57.628Z</time></trkpt><trkpt lat="45.375473" lon="10.7049635"><ele>62.0</ele><time>2026-03-28T09:27:58.639Z</time></trkpt><trkpt lat="45.375346" lon="10.7052017"><ele>61.66666666666667</ele><time>2026-03-28T09:27:59.636Z</time></trkpt><trkpt lat="45.3752344" lon="10.7054438"><ele>61.33333333333333</ele><time>2026-03-28T09:28:00.641Z</time></trkpt><trkpt lat="45.3751321" lon="10.7056933"><ele>61.0</ele><time>2026-03-28T09:28:01.641Z</time></trkpt><trkpt lat="45.3750214" lon="10.7059633"><ele>61.5</ele><time>2026-03-28T09:28:02.64Z</time></trkpt><trkpt lat="45.3748882" lon="10.706232"><ele>62.0</ele><time>2026-03-28T09:28:03.639Z</time></trkpt><trkpt lat="45.3747709" lon="10.7065203"><ele>61.5</ele><time>2026-03-28T09:28:04.639Z</time></trkpt><trkpt lat="45.3746689" lon="10.7068165"><ele>61.0</ele><time>2026-03-28T09:28:05.637Z</time></trkpt><trkpt lat="45.3745506" lon="10.7070826"><ele>60.666666666666664</ele><time>2026-03-28T09:28:06.64Z</time></trkpt><trkpt lat="45.3744532" lon="10.7073529"><ele>60.33333333333333</ele><time>2026-03-28T09:28:07.637Z</time></trkpt><trkpt lat="45.3743564" lon="10.7076095"><ele>60.0</ele><time>2026-03-28T09:28:08.638Z</time></trkpt><trkpt lat="45.3742557" lon="10.7078448"><ele>60.0</ele><time>2026-03-28T09:28:09.638Z</time></trkpt><trkpt lat="45.374157" lon="10.7080922"><ele>60.0</ele><time>2026-03-28T09:28:10.647Z</time></trkpt><trkpt lat="45.374062" lon="10.7083448"><ele>60.0</ele><time>2026-03-28T09:28:11.641Z</time></trkpt><trkpt lat="45.373947" lon="10.7085961"><ele>60.33333333333333</ele><time>2026-03-28T09:28:12.643Z</time></trkpt><trkpt lat="45.3738312" lon="10.7088504"><ele>60.666666666666664</ele><time>2026-03-28T09:28:13.638Z</time></trkpt><trkpt lat="45.3736971" lon="10.709093"><ele>61.0</ele><time>2026-03-28T09:28:14.639Z</time></trkpt><trkpt lat="45.3735609" lon="10.7093192"><ele>61.0</ele><time>2026-03-28T09:28:15.638Z</time></trkpt><trkpt lat="45.3734254" lon="10.7095469"><ele>61.0</ele><time>2026-03-28T09:28:16.64Z</time></trkpt><trkpt lat="45.3732983" lon="10.7097961"><ele>61.0</ele><time>2026-03-28T09:28:17.634Z</time></trkpt><trkpt lat="45.3731219" lon="10.7100401"><ele>61.0</ele><time>2026-03-28T09:28:18.638Z</time></trkpt><trkpt lat="45.3729843" lon="10.7102762"><ele>61.0</ele><time>2026-03-28T09:28:19.64Z</time></trkpt><trkpt lat="45.3728555" lon="10.7104866"><ele>61.0</ele><time>2026-03-28T09:28:20.634Z</time></trkpt><trkpt lat="45.372733" lon="10.7106971"><ele>61.0</ele><time>2026-03-28T09:28:21.638Z</time></trkpt><trkpt lat="45.372604" lon="10.710899"><ele>61.0</ele><time>2026-03-28T09:28:22.642Z</time></trkpt><trkpt lat="45.3724569" lon="10.7111028"><ele>61.0</ele><time>2026-03-28T09:28:23.634Z</time></trkpt><trkpt lat="45.3723136" lon="10.7113021"><ele>61.0</ele><time>2026-03-28T09:28:24.642Z</time></trkpt><trkpt lat="45.3721624" lon="10.7115"><ele>61.0</ele><time>2026-03-28T09:28:25.64Z</time></trkpt><trkpt lat="45.3720117" lon="10.7117005"><ele>61.0</ele><time>2026-03-28T09:28:26.632Z</time></trkpt><trkpt lat="45.371859" lon="10.7119162"><ele>62.33333333333333</ele><time>2026-03-28T09:28:27.631Z</time></trkpt><trkpt lat="45.3717333" lon="10.7121619"><ele>63.66666666666667</ele><time>2026-03-28T09:28:28.646Z</time></trkpt><trkpt lat="45.3715851" lon="10.7123862"><ele>65.0</ele><time>2026-03-28T09:28:29.636Z</time></trkpt><trkpt lat="45.3714401" lon="10.7125772"><ele>64.66666666666667</ele><time>2026-03-28T09:28:30.63Z</time></trkpt><trkpt lat="45.3713068" lon="10.7127713"><ele>64.33333333333333</ele><time>2026-03-28T09:28:31.634Z</time></trkpt><trkpt lat="45.3711737" lon="10.7129727"><ele>64.0</ele><time>2026-03-28T09:28:32.62Z</time></trkpt><trkpt lat="45.3710556" lon="10.7131969"><ele>64.0</ele><time>2026-03-28T09:28:33.621Z</time></trkpt><trkpt lat="45.3709149" lon="10.7134148"><ele>64.0</ele><time>2026-03-28T09:28:34.625Z</time></trkpt><trkpt lat="45.3707744" lon="10.7136304"><ele>64.0</ele><time>2026-03-28T09:28:35.614Z</time></trkpt><trkpt lat="45.3706395" lon="10.7138485"><ele>63.33333333333333</ele><time>2026-03-28T09:28:36.621Z</time></trkpt><trkpt lat="45.3705086" lon="10.7140676"><ele>62.66666666666667</ele><time>2026-03-28T09:28:37.616Z</time></trkpt><trkpt lat="45.3703999" lon="10.714261"><ele>62.0</ele><time>2026-03-28T09:28:38.624Z</time></trkpt><trkpt lat="45.3702846" lon="10.714445"><ele>64.0</ele><time>2026-03-28T09:28:39.619Z</time></trkpt><trkpt lat="45.3702164" lon="10.7146952"><ele>66.0</ele><time>2026-03-28T09:28:40.622Z</time></trkpt><trkpt lat="45.3701606" lon="10.7149865"><ele>68.0</ele><time>2026-03-28T09:28:41.621Z</time></trkpt><trkpt lat="45.3700752" lon="10.7152788"><ele>69.66666666666667</ele><time>2026-03-28T09:28:42.624Z</time></trkpt><trkpt lat="45.3699977" lon="10.7155662"><ele>71.33333333333333</ele><time>2026-03-28T09:28:43.63Z</time></trkpt><trkpt lat="45.3699317" lon="10.7158523"><ele>73.0</ele><time>2026-03-28T09:28:44.63Z</time></trkpt><trkpt lat="45.3698625" lon="10.7161469"><ele>74.66666666666666</ele><time>2026-03-28T09:28:45.626Z</time></trkpt><trkpt lat="45.3697768" lon="10.716429"><ele>76.33333333333333</ele><time>2026-03-28T09:28:46.626Z</time></trkpt><trkpt lat="45.3696903" lon="10.7167143"><ele>78.0</ele><time>2026-03-28T09:28:47.631Z</time></trkpt><trkpt lat="45.3696106" lon="10.7170088"><ele>75.66666666666667</ele><time>2026-03-28T09:28:48.63Z</time></trkpt><trkpt lat="45.3694909" lon="10.7172848"><ele>73.33333333333334</ele><time>2026-03-28T09:28:49.635Z</time></trkpt><trkpt lat="45.3694075" lon="10.7175687"><ele>71.0</ele><time>2026-03-28T09:28:50.627Z</time></trkpt><trkpt lat="45.3693293" lon="10.7178485"><ele>71.0</ele><time>2026-03-28T09:28:51.624Z</time></trkpt><trkpt lat="45.3692521" lon="10.7181232"><ele>71.0</ele><time>2026-03-28T09:28:52.631Z</time></trkpt><trkpt lat="45.3691692" lon="10.7183929"><ele>71.0</ele><time>2026-03-28T09:28:53.631Z</time></trkpt><trkpt lat="45.3690873" lon="10.7186609"><ele>72.66666666666667</ele><time>2026-03-28T09:28:54.625Z</time></trkpt><trkpt lat="45.3690095" lon="10.7189246"><ele>74.33333333333333</ele><time>2026-03-28T09:28:55.637Z</time></trkpt><trkpt lat="45.3689372" lon="10.7191792"><ele>76.0</ele><time>2026-03-28T09:28:56.634Z</time></trkpt><trkpt lat="45.368877" lon="10.7194263"><ele>72.0</ele><time>2026-03-28T09:28:57.629Z</time></trkpt><trkpt lat="45.3688215" lon="10.7196547"><ele>68.0</ele><time>2026-03-28T09:28:58.634Z</time></trkpt><trkpt lat="45.3687465" lon="10.7198729"><ele>64.0</ele><time>2026-03-28T09:28:59.633Z</time></trkpt><trkpt lat="45.3686977" lon="10.7201111"><ele>65.66666666666666</ele><time>2026-03-28T09:29:00.63Z</time></trkpt><trkpt lat="45.3686116" lon="10.7203505"><ele>67.33333333333333</ele><time>2026-03-28T09:29:01.635Z</time></trkpt><trkpt lat="45.3685461" lon="10.7206023"><ele>69.0</ele><time>2026-03-28T09:29:02.64Z</time></trkpt><trkpt lat="45.3684724" lon="10.7208406"><ele>69.0</ele><time>2026-03-28T09:29:03.633Z</time></trkpt><trkpt lat="45.3683876" lon="10.7210421"><ele>69.0</ele><time>2026-03-28T09:29:04.625Z</time></trkpt><trkpt lat="45.3682909" lon="10.7212539"><ele>69.0</ele><time>2026-03-28T09:29:05.635Z</time></trkpt><trkpt lat="45.3681703" lon="10.7214447"><ele>70.33333333333333</ele><time>2026-03-28T09:29:06.624Z</time></trkpt><trkpt lat="45.368021" lon="10.7216166"><ele>71.66666666666666</ele><time>2026-03-28T09:29:07.63Z</time></trkpt><trkpt lat="45.3678636" lon="10.7218115"><ele>73.0</ele><time>2026-03-28T09:29:08.629Z</time></trkpt><trkpt lat="45.3677158" lon="10.7220116"><ele>73.0</ele><time>2026-03-28T09:29:09.628Z</time></trkpt><trkpt lat="45.3675561" lon="10.7221997"><ele>73.0</ele><time>2026-03-28T09:29:10.618Z</time></trkpt><trkpt lat="45.3674166" lon="10.7224034"><ele>73.0</ele><time>2026-03-28T09:29:11.622Z</time></trkpt><trkpt lat="45.3672941" lon="10.7225997"><ele>71.33333333333333</ele><time>2026-03-28T09:29:12.621Z</time></trkpt><trkpt lat="45.3671878" lon="10.7227887"><ele>69.66666666666667</ele><time>2026-03-28T09:29:13.627Z</time></trkpt><trkpt lat="45.36707" lon="10.7229984"><ele>68.0</ele><time>2026-03-28T09:29:14.617Z</time></trkpt><trkpt lat="45.3669663" lon="10.7232295"><ele>68.0</ele><time>2026-03-28T09:29:15.623Z</time></trkpt><trkpt lat="45.3668657" lon="10.7234721"><ele>68.0</ele><time>2026-03-28T09:29:16.627Z</time></trkpt><trkpt lat="45.3667373" lon="10.7237023"><ele>68.0</ele><time>2026-03-28T09:29:17.616Z</time></trkpt><trkpt lat="45.3666423" lon="10.7239564"><ele>66.66666666666667</ele><time>2026-03-28T09:29:18.624Z</time></trkpt><trkpt lat="45.3665402" lon="10.7242155"><ele>65.33333333333333</ele><time>2026-03-28T09:29:19.63Z</time></trkpt><trkpt lat="45.3664416" lon="10.7244569"><ele>64.0</ele><time>2026-03-28T09:29:20.618Z</time></trkpt><trkpt lat="45.3663139" lon="10.7246809"><ele>64.0</ele><time>2026-03-28T09:29:21.624Z</time></trkpt><trkpt lat="45.3662134" lon="10.7249014"><ele>64.0</ele><time>2026-03-28T09:29:22.631Z</time></trkpt><trkpt lat="45.3661082" lon="10.7251333"><ele>64.0</ele><time>2026-03-28T09:29:23.632Z</time></trkpt><trkpt lat="45.3660078" lon="10.7253578"><ele>65.33333333333333</ele><time>2026-03-28T09:29:24.628Z</time></trkpt><trkpt lat="45.3658802" lon="10.7255614"><ele>66.66666666666667</ele><time>2026-03-28T09:29:25.619Z</time></trkpt><trkpt lat="45.3657188" lon="10.7257413"><ele>68.0</ele><time>2026-03-28T09:29:26.626Z</time></trkpt><trkpt lat="45.3655457" lon="10.7259482"><ele>69.0</ele><time>2026-03-28T09:29:27.623Z</time></trkpt><trkpt lat="45.3653687" lon="10.7261758"><ele>70.0</ele><time>2026-03-28T09:29:28.626Z</time></trkpt><trkpt lat="45.3652353" lon="10.726404"><ele>71.0</ele><time>2026-03-28T09:29:29.627Z</time></trkpt><trkpt lat="45.3651018" lon="10.7266059"><ele>71.0</ele><time>2026-03-28T09:29:30.623Z</time></trkpt><trkpt lat="45.3649729" lon="10.7267677"><ele>71.0</ele><time>2026-03-28T09:29:31.631Z</time></trkpt><trkpt lat="45.3648315" lon="10.7269277"><ele>71.0</ele><time>2026-03-28T09:29:32.622Z</time></trkpt><trkpt lat="45.364667" lon="10.7270881"><ele>71.33333333333334</ele><time>2026-03-28T09:29:33.62Z</time></trkpt><trkpt lat="45.3644907" lon="10.727244"><ele>71.66666666666667</ele><time>2026-03-28T09:29:34.626Z</time></trkpt><trkpt lat="45.3643079" lon="10.7273814"><ele>72.0</ele><time>2026-03-28T09:29:35.616Z</time></trkpt><trkpt lat="45.3641324" lon="10.7275205"><ele>72.0</ele><time>2026-03-28T09:29:36.619Z</time></trkpt><trkpt lat="45.3639551" lon="10.7276738"><ele>72.0</ele><time>2026-03-28T09:29:37.626Z</time></trkpt><trkpt lat="45.3637735" lon="10.7278248"><ele>72.0</ele><time>2026-03-28T09:29:38.622Z</time></trkpt><trkpt lat="45.3635991" lon="10.7279724"><ele>73.0</ele><time>2026-03-28T09:29:39.629Z</time></trkpt><trkpt lat="45.3634238" lon="10.7281131"><ele>74.0</ele><time>2026-03-28T09:29:40.628Z</time></trkpt><trkpt lat="45.3632611" lon="10.728269"><ele>75.0</ele><time>2026-03-28T09:29:41.624Z</time></trkpt><trkpt lat="45.3630783" lon="10.7284229"><ele>76.33333333333333</ele><time>2026-03-28T09:29:42.626Z</time></trkpt><trkpt lat="45.3629084" lon="10.7285877"><ele>77.66666666666666</ele><time>2026-03-28T09:29:43.621Z</time></trkpt><trkpt lat="45.3627328" lon="10.7287564"><ele>79.0</ele><time>2026-03-28T09:29:44.622Z</time></trkpt><trkpt lat="45.3625834" lon="10.7289216"><ele>79.0</ele><time>2026-03-28T09:29:45.617Z</time></trkpt><trkpt lat="45.362405" lon="10.729056"><ele>79.0</ele><time>2026-03-28T09:29:46.62Z</time></trkpt><trkpt lat="45.3622435" lon="10.7291528"><ele>79.0</ele><time>2026-03-28T09:29:47.627Z</time></trkpt><trkpt lat="45.362096" lon="10.7292428"><ele>76.66666666666666</ele><time>2026-03-28T09:29:48.618Z</time></trkpt><trkpt lat="45.3619038" lon="10.7292618"><ele>74.33333333333333</ele><time>2026-03-28T09:29:49.624Z</time></trkpt><trkpt lat="45.3617033" lon="10.7292661"><ele>72.0</ele><time>2026-03-28T09:29:50.628Z</time></trkpt><trkpt lat="45.3614887" lon="10.7292638"><ele>71.33333333333333</ele><time>2026-03-28T09:29:51.618Z</time></trkpt><trkpt lat="45.3612874" lon="10.7292478"><ele>70.66666666666666</ele><time>2026-03-28T09:29:52.624Z</time></trkpt><trkpt lat="45.3610801" lon="10.7292453"><ele>70.0</ele><time>2026-03-28T09:29:53.618Z</time></trkpt><trkpt lat="45.3608863" lon="10.729268"><ele>70.0</ele><time>2026-03-28T09:29:54.629Z</time></trkpt><trkpt lat="45.3606914" lon="10.7292797"><ele>70.0</ele><time>2026-03-28T09:29:55.63Z</time></trkpt><trkpt lat="45.3605124" lon="10.7292686"><ele>70.0</ele><time>2026-03-28T09:29:56.621Z</time></trkpt><trkpt lat="45.3603399" lon="10.7292691"><ele>70.0</ele><time>2026-03-28T09:29:57.628Z</time></trkpt><trkpt lat="45.3601566" lon="10.729284"><ele>70.0</ele><time>2026-03-28T09:29:58.625Z</time></trkpt><trkpt lat="45.3599836" lon="10.7292941"><ele>70.0</ele><time>2026-03-28T09:29:59.632Z</time></trkpt><trkpt lat="45.3598042" lon="10.7292902"><ele>70.66666666666666</ele><time>2026-03-28T09:30:00.624Z</time></trkpt><trkpt lat="45.3596332" lon="10.7293005"><ele>71.33333333333333</ele><time>2026-03-28T09:30:01.635Z</time></trkpt><trkpt lat="45.3594387" lon="10.7293065"><ele>72.0</ele><time>2026-03-28T09:30:02.623Z</time></trkpt><trkpt lat="45.3592645" lon="10.729328"><ele>72.0</ele><time>2026-03-28T09:30:03.613Z</time></trkpt><trkpt lat="45.3590925" lon="10.7293444"><ele>72.0</ele><time>2026-03-28T09:30:04.624Z</time></trkpt><trkpt lat="45.3589058" lon="10.7293652"><ele>72.0</ele><time>2026-03-28T09:30:05.615Z</time></trkpt><trkpt lat="45.3587126" lon="10.7293568"><ele>73.0</ele><time>2026-03-28T09:30:06.619Z</time></trkpt><trkpt lat="45.3585361" lon="10.7293651"><ele>74.0</ele><time>2026-03-28T09:30:07.616Z</time></trkpt><trkpt lat="45.3583419" lon="10.7293595"><ele>75.0</ele><time>2026-03-28T09:30:08.606Z</time></trkpt><trkpt lat="45.3581702" lon="10.7293413"><ele>76.66666666666667</ele><time>2026-03-28T09:30:09.621Z</time></trkpt><trkpt lat="45.3579961" lon="10.7292705"><ele>78.33333333333334</ele><time>2026-03-28T09:30:10.617Z</time></trkpt><trkpt lat="45.3578406" lon="10.729219"><ele>80.0</ele><time>2026-03-28T09:30:11.622Z</time></trkpt><trkpt lat="45.3576726" lon="10.7291775"><ele>80.0</ele><time>2026-03-28T09:30:12.619Z</time></trkpt><trkpt lat="45.3575078" lon="10.7291427"><ele>80.0</ele><time>2026-03-28T09:30:13.617Z</time></trkpt><trkpt lat="45.3573608" lon="10.7291409"><ele>80.0</ele><time>2026-03-28T09:30:14.617Z</time></trkpt><trkpt lat="45.3572131" lon="10.7291128"><ele>80.5</ele><time>2026-03-28T09:30:15.615Z</time></trkpt><trkpt lat="45.3571196" lon="10.7291375"><ele>81.0</ele><time>2026-03-28T09:30:16.616Z</time></trkpt><trkpt lat="45.3570364" lon="10.7291593"><ele>81.5</ele><time>2026-03-28T09:30:17.615Z</time></trkpt><trkpt lat="45.3569385" lon="10.7291679"><ele>82.0</ele><time>2026-03-28T09:30:18.608Z</time></trkpt><trkpt lat="45.3568732" lon="10.7292038"><ele>82.5</ele><time>2026-03-28T09:30:19.62Z</time></trkpt><trkpt lat="45.3567996" lon="10.7291969"><ele>83.0</ele><time>2026-03-28T09:30:20.615Z</time></trkpt><trkpt lat="45.3567309" lon="10.7291944"><ele>83.0</ele><time>2026-03-28T09:30:21.61Z</time></trkpt><trkpt lat="45.3566467" lon="10.7292227"><ele>83.0</ele><time>2026-03-28T09:30:28.623Z</time></trkpt><trkpt lat="45.3565414" lon="10.7292875"><ele>83.0</ele><time>2026-03-28T09:30:30.612Z</time></trkpt><trkpt lat="45.3564582" lon="10.7293844"><ele>83.0</ele><time>2026-03-28T09:30:31.619Z</time></trkpt><trkpt lat="45.3563674" lon="10.729482"><ele>83.0</ele><time>2026-03-28T09:30:32.612Z</time></trkpt><trkpt lat="45.3562609" lon="10.729558"><ele>86.5</ele><time>2026-03-28T09:30:33.614Z</time></trkpt><trkpt lat="45.3561523" lon="10.7296286"><ele>90.0</ele><time>2026-03-28T09:30:34.604Z</time></trkpt><trkpt lat="45.3560381" lon="10.7297073"><ele>93.5</ele><time>2026-03-28T09:30:35.603Z</time></trkpt><trkpt lat="45.35593" lon="10.7297898"><ele>97.0</ele><time>2026-03-28T09:30:36.607Z</time></trkpt><trkpt lat="45.3558239" lon="10.7298793"><ele>97.0</ele><time>2026-03-28T09:30:37.605Z</time></trkpt><trkpt lat="45.3557462" lon="10.7299704"><ele>97.0</ele><time>2026-03-28T09:30:38.618Z</time></trkpt><trkpt lat="45.355692" lon="10.7300972"><ele>97.0</ele><time>2026-03-28T09:30:39.614Z</time></trkpt><trkpt lat="45.3556833" lon="10.7302392"><ele>97.0</ele><time>2026-03-28T09:30:40.619Z</time></trkpt><trkpt lat="45.3557231" lon="10.7304145"><ele>97.0</ele><time>2026-03-28T09:30:41.621Z</time></trkpt><trkpt lat="45.3557841" lon="10.730596"><ele>98.25</ele><time>2026-03-28T09:30:42.619Z</time></trkpt><trkpt lat="45.3558326" lon="10.7307741"><ele>99.5</ele><time>2026-03-28T09:30:43.62Z</time></trkpt><trkpt lat="45.3558773" lon="10.7309306"><ele>100.75</ele><time>2026-03-28T09:30:44.619Z</time></trkpt><trkpt lat="45.3559042" lon="10.7310878"><ele>102.0</ele><time>2026-03-28T09:30:45.626Z</time></trkpt><trkpt lat="45.3559284" lon="10.7312151"><ele>102.0</ele><time>2026-03-28T09:30:46.62Z</time></trkpt><trkpt lat="45.3559445" lon="10.7313302"><ele>102.0</ele><time>2026-03-28T09:30:47.62Z</time></trkpt><trkpt lat="45.3559522" lon="10.7314364"><ele>102.0</ele><time>2026-03-28T09:30:48.629Z</time></trkpt><trkpt lat="45.355948" lon="10.7315304"><ele>102.0</ele><time>2026-03-28T09:30:49.626Z</time></trkpt><trkpt lat="45.3559354" lon="10.7316735"><ele>102.0</ele><time>2026-03-28T09:30:51.626Z</time></trkpt><trkpt lat="45.3559018" lon="10.7318161"><ele>102.0</ele><time>2026-03-28T09:30:53.624Z</time></trkpt><trkpt lat="45.3558457" lon="10.7319177"><ele>100.83333333333333</ele><time>2026-03-28T09:30:55.632Z</time></trkpt><trkpt lat="45.3558014" lon="10.7320067"><ele>99.66666666666667</ele><time>2026-03-28T09:30:57.631Z</time></trkpt><trkpt lat="45.3557624" lon="10.7320905"><ele>98.5</ele><time>2026-03-28T09:30:59.631Z</time></trkpt><trkpt lat="45.3557277" lon="10.7321875"><ele>97.33333333333334</ele><time>2026-03-28T09:31:01.631Z</time></trkpt><trkpt lat="45.3556707" lon="10.732305"><ele>96.16666666666667</ele><time>2026-03-28T09:31:03.628Z</time></trkpt><trkpt lat="45.3556026" lon="10.7324487"><ele>95.0</ele><time>2026-03-28T09:31:05.627Z</time></trkpt><trkpt lat="45.3555471" lon="10.7325619"><ele>95.0</ele><time>2026-03-28T09:31:07.624Z</time></trkpt><trkpt lat="45.3555025" lon="10.7326597"><ele>95.0</ele><time>2026-03-28T09:31:09.638Z</time></trkpt><trkpt lat="45.3554351" lon="10.7327654"><ele>95.0</ele><time>2026-03-28T09:31:11.706Z</time></trkpt><trkpt lat="45.3553622" lon="10.7328507"><ele>95.0</ele><time>2026-03-28T09:31:13.617Z</time></trkpt><trkpt lat="45.3553029" lon="10.7329343"><ele>95.0</ele><time>2026-03-28T09:31:15.626Z</time></trkpt><trkpt lat="45.3552748" lon="10.7330381"><ele>95.0</ele><time>2026-03-28T09:31:17.629Z</time></trkpt><trkpt lat="45.3552331" lon="10.7331678"><ele>94.83333333333334</ele><time>2026-03-28T09:31:19.619Z</time></trkpt><trkpt lat="45.3552064" lon="10.7332766"><ele>94.66666666666667</ele><time>2026-03-28T09:31:21.627Z</time></trkpt><trkpt lat="45.3551658" lon="10.7333698"><ele>94.5</ele><time>2026-03-28T09:31:23.614Z</time></trkpt><trkpt lat="45.3551224" lon="10.7334703"><ele>94.33333333333333</ele><time>2026-03-28T09:31:25.622Z</time></trkpt><trkpt lat="45.3550889" lon="10.7335868"><ele>94.16666666666666</ele><time>2026-03-28T09:31:27.619Z</time></trkpt><trkpt lat="45.3550711" lon="10.7336773"><ele>94.0</ele><time>2026-03-28T09:31:29.626Z</time></trkpt><trkpt lat="45.355042" lon="10.7337861"><ele>94.0</ele><time>2026-03-28T09:31:32.624Z</time></trkpt><trkpt lat="45.35501" lon="10.7338714"><ele>94.0</ele><time>2026-03-28T09:31:34.629Z</time></trkpt><trkpt lat="45.3549763" lon="10.7339633"><ele>94.0</ele><time>2026-03-28T09:31:37.62Z</time></trkpt><trkpt lat="45.3549235" lon="10.7340471"><ele>94.0</ele><time>2026-03-28T09:31:39.626Z</time></trkpt><trkpt lat="45.3548874" lon="10.7341599"><ele>94.0</ele><time>2026-03-28T09:31:41.626Z</time></trkpt><trkpt lat="45.3548642" lon="10.7342677"><ele>94.0</ele><time>2026-03-28T09:31:43.624Z</time></trkpt><trkpt lat="45.3548774" lon="10.7344013"><ele>94.0</ele><time>2026-03-28T09:31:46.621Z</time></trkpt><trkpt lat="45.3549425" lon="10.7344615"><ele>94.0</ele><time>2026-03-28T09:31:48.618Z</time></trkpt><trkpt lat="45.3550055" lon="10.7344781"><ele>94.0</ele><time>2026-03-28T09:31:50.616Z</time></trkpt><trkpt lat="45.355079" lon="10.7344789"><ele>94.0</ele><time>2026-03-28T09:31:52.626Z</time></trkpt><trkpt lat="45.3551728" lon="10.7344834"><ele>94.0</ele><time>2026-03-28T09:31:54.619Z</time></trkpt><trkpt lat="45.3552842" lon="10.7345042"><ele>94.0</ele><time>2026-03-28T09:31:56.612Z</time></trkpt><trkpt lat="45.355383" lon="10.7345425"><ele>94.0</ele><time>2026-03-28T09:31:58.615Z</time></trkpt><trkpt lat="45.3554565" lon="10.7345939"><ele>94.0</ele><time>2026-03-28T09:32:00.623Z</time></trkpt><trkpt lat="45.3555341" lon="10.7346152"><ele>94.0</ele><time>2026-03-28T09:32:02.633Z</time></trkpt><trkpt lat="45.3556089" lon="10.7346472"><ele>94.0</ele><time>2026-03-28T09:32:04.628Z</time></trkpt><trkpt lat="45.3556827" lon="10.7346814"><ele>94.0</ele><time>2026-03-28T09:32:13.62Z</time></trkpt><trkpt lat="45.3557583" lon="10.7347038"><ele>94.0</ele><time>2026-03-28T09:32:15.628Z</time></trkpt><trkpt lat="45.3558499" lon="10.7347363"><ele>94.0</ele><time>2026-03-28T09:32:18.634Z</time></trkpt><trkpt lat="45.3559257" lon="10.7347529"><ele>94.0</ele><time>2026-03-28T09:32:20.63Z</time></trkpt><trkpt lat="45.3560127" lon="10.7347987"><ele>94.0</ele><time>2026-03-28T09:32:22.617Z</time></trkpt><trkpt lat="45.3561084" lon="10.73483"><ele>94.0</ele><time>2026-03-28T09:32:24.624Z</time></trkpt><trkpt lat="45.3561831" lon="10.7348641"><ele>94.0</ele><time>2026-03-28T09:32:26.617Z</time></trkpt><trkpt lat="45.3562747" lon="10.7349228"><ele>94.0</ele><time>2026-03-28T09:32:28.612Z</time></trkpt><trkpt lat="45.3563897" lon="10.734961"><ele>93.83333333333333</ele><time>2026-03-28T09:32:30.617Z</time></trkpt><trkpt lat="45.3564996" lon="10.7350183"><ele>93.66666666666666</ele><time>2026-03-28T09:32:32.618Z</time></trkpt><trkpt lat="45.3565879" lon="10.7350439"><ele>93.5</ele><time>2026-03-28T09:32:34.613Z</time></trkpt><trkpt lat="45.356675" lon="10.7350753"><ele>93.33333333333333</ele><time>2026-03-28T09:32:36.625Z</time></trkpt><trkpt lat="45.3567382" lon="10.7351083"><ele>93.16666666666667</ele><time>2026-03-28T09:32:38.622Z</time></trkpt><trkpt lat="45.3568225" lon="10.7351202"><ele>93.0</ele><time>2026-03-28T09:32:41.709Z</time></trkpt><trkpt lat="45.3569243" lon="10.7351249"><ele>93.0</ele><time>2026-03-28T09:32:44.632Z</time></trkpt><trkpt lat="45.357021" lon="10.7351268"><ele>93.0</ele><time>2026-03-28T09:32:46.622Z</time></trkpt><trkpt lat="45.3571142" lon="10.7350983"><ele>93.0</ele><time>2026-03-28T09:32:48.628Z</time></trkpt><trkpt lat="45.3571883" lon="10.7350702"><ele>93.0</ele><time>2026-03-28T09:32:50.621Z</time></trkpt><trkpt lat="45.3572518" lon="10.7350344"><ele>93.0</ele><time>2026-03-28T09:32:52.631Z</time></trkpt><trkpt lat="45.3573148" lon="10.7350242"><ele>93.0</ele><time>2026-03-28T09:32:54.625Z</time></trkpt><trkpt lat="45.3573893" lon="10.7350155"><ele>93.0</ele><time>2026-03-28T09:32:56.632Z</time></trkpt><trkpt lat="45.3574547" lon="10.7349999"><ele>93.0</ele><time>2026-03-28T09:32:58.627Z</time></trkpt><trkpt lat="45.3575399" lon="10.7349747"><ele>93.0</ele><time>2026-03-28T09:33:00.634Z</time></trkpt><trkpt lat="45.3576244" lon="10.7349661"><ele>93.0</ele><time>2026-03-28T09:33:02.633Z</time></trkpt><trkpt lat="45.3576991" lon="10.7349773"><ele>93.0</ele><time>2026-03-28T09:33:04.626Z</time></trkpt><trkpt lat="45.3577847" lon="10.7350578"><ele>93.0</ele><time>2026-03-28T09:33:06.628Z</time></trkpt><trkpt lat="45.3578139" lon="10.7351387"><ele>93.0</ele><time>2026-03-28T09:33:07.618Z</time></trkpt><trkpt lat="45.3578487" lon="10.7352342"><ele>93.0</ele><time>2026-03-28T09:33:08.618Z</time></trkpt><trkpt lat="45.3578568" lon="10.7353585"><ele>93.0</ele><time>2026-03-28T09:33:09.624Z</time></trkpt><trkpt lat="45.3578576" lon="10.7354821"><ele>93.0</ele><time>2026-03-28T09:33:10.626Z</time></trkpt><trkpt lat="45.357857" lon="10.735596"><ele>93.0</ele><time>2026-03-28T09:33:11.621Z</time></trkpt><trkpt lat="45.3578589" lon="10.7356979"><ele>93.0</ele><time>2026-03-28T09:33:12.628Z</time></trkpt><trkpt lat="45.3578238" lon="10.7358116"><ele>93.0</ele><time>2026-03-28T09:33:14.625Z</time></trkpt><trkpt lat="45.3577025" lon="10.7357905"><ele>93.0</ele><time>2026-03-28T09:33:16.633Z</time></trkpt><trkpt lat="45.3576145" lon="10.7357778"><ele>93.0</ele><time>2026-03-28T09:33:17.624Z</time></trkpt><trkpt lat="45.3575151" lon="10.7357724"><ele>93.0</ele><time>2026-03-28T09:33:18.623Z</time></trkpt><trkpt lat="45.3574091" lon="10.7357559"><ele>93.0</ele><time>2026-03-28T09:33:19.623Z</time></trkpt><trkpt lat="45.3573158" lon="10.7357498"><ele>93.0</ele><time>2026-03-28T09:33:20.629Z</time></trkpt><trkpt lat="45.3572167" lon="10.7357514"><ele>93.0</ele><time>2026-03-28T09:33:21.627Z</time></trkpt><trkpt lat="45.3571356" lon="10.7357515"><ele>93.0</ele><time>2026-03-28T09:33:22.628Z</time></trkpt><trkpt lat="45.3570724" lon="10.735741"><ele>93.0</ele><time>2026-03-28T09:33:23.627Z</time></trkpt><trkpt lat="45.3569594" lon="10.7357211"><ele>93.0</ele><time>2026-03-28T09:33:25.627Z</time></trkpt><trkpt lat="45.3568544" lon="10.7357166"><ele>92.83333333333333</ele><time>2026-03-28T09:33:27.633Z</time></trkpt><trkpt lat="45.3567516" lon="10.7357097"><ele>92.66666666666667</ele><time>2026-03-28T09:33:29.63Z</time></trkpt><trkpt lat="45.3566882" lon="10.7357074"><ele>92.5</ele><time>2026-03-28T09:33:30.631Z</time></trkpt><trkpt lat="45.3566082" lon="10.735706"><ele>92.33333333333334</ele><time>2026-03-28T09:33:31.632Z</time></trkpt><trkpt lat="45.356522" lon="10.7357022"><ele>92.16666666666667</ele><time>2026-03-28T09:33:32.63Z</time></trkpt><trkpt lat="45.3564442" lon="10.7357085"><ele>92.0</ele><time>2026-03-28T09:33:33.63Z</time></trkpt><trkpt lat="45.3563721" lon="10.7357129"><ele>92.75</ele><time>2026-03-28T09:33:34.632Z</time></trkpt><trkpt lat="45.3562569" lon="10.7357251"><ele>93.5</ele><time>2026-03-28T09:33:36.632Z</time></trkpt><trkpt lat="45.3561462" lon="10.7357045"><ele>94.25</ele><time>2026-03-28T09:33:38.633Z</time></trkpt><trkpt lat="45.3560289" lon="10.735686"><ele>95.0</ele><time>2026-03-28T09:33:40.625Z</time></trkpt><trkpt lat="45.3559019" lon="10.7356476"><ele>95.0</ele><time>2026-03-28T09:33:42.621Z</time></trkpt><trkpt lat="45.3557935" lon="10.7356794"><ele>95.0</ele><time>2026-03-28T09:33:44.636Z</time></trkpt><trkpt lat="45.3557557" lon="10.7358355"><ele>95.0</ele><time>2026-03-28T09:33:46.637Z</time></trkpt><trkpt lat="45.3557461" lon="10.7359339"><ele>95.0</ele><time>2026-03-28T09:33:47.638Z</time></trkpt><trkpt lat="45.355734" lon="10.7360345"><ele>95.0</ele><time>2026-03-28T09:33:48.638Z</time></trkpt><trkpt lat="45.3557173" lon="10.7361353"><ele>95.0</ele><time>2026-03-28T09:33:49.632Z</time></trkpt><trkpt lat="45.3556999" lon="10.7362448"><ele>94.33333333333334</ele><time>2026-03-28T09:33:50.639Z</time></trkpt><trkpt lat="45.3556786" lon="10.7363563"><ele>93.66666666666667</ele><time>2026-03-28T09:33:51.638Z</time></trkpt><trkpt lat="45.3556543" lon="10.7364821"><ele>93.0</ele><time>2026-03-28T09:33:52.635Z</time></trkpt><trkpt lat="45.3556231" lon="10.7366062"><ele>92.33333333333333</ele><time>2026-03-28T09:33:53.632Z</time></trkpt><trkpt lat="45.3555953" lon="10.7367231"><ele>91.66666666666666</ele><time>2026-03-28T09:33:54.636Z</time></trkpt><trkpt lat="45.3555699" lon="10.7368288"><ele>91.0</ele><time>2026-03-28T09:33:55.634Z</time></trkpt><trkpt lat="45.3555512" lon="10.7369269"><ele>91.0</ele><time>2026-03-28T09:33:56.637Z</time></trkpt><trkpt lat="45.3555393" lon="10.7370204"><ele>91.0</ele><time>2026-03-28T09:33:57.643Z</time></trkpt><trkpt lat="45.3555166" lon="10.7371816"><ele>91.0</ele><time>2026-03-28T09:33:59.637Z</time></trkpt><trkpt lat="45.3554899" lon="10.7373328"><ele>91.0</ele><time>2026-03-28T09:34:01.637Z</time></trkpt><trkpt lat="45.3554707" lon="10.7374294"><ele>91.0</ele><time>2026-03-28T09:34:02.634Z</time></trkpt><trkpt lat="45.3554456" lon="10.7375349"><ele>91.0</ele><time>2026-03-28T09:34:03.637Z</time></trkpt><trkpt lat="45.3554205" lon="10.7376484"><ele>91.0</ele><time>2026-03-28T09:34:04.635Z</time></trkpt><trkpt lat="45.3553939" lon="10.7377576"><ele>91.0</ele><time>2026-03-28T09:34:05.636Z</time></trkpt><trkpt lat="45.3553686" lon="10.7378749"><ele>91.0</ele><time>2026-03-28T09:34:06.632Z</time></trkpt><trkpt lat="45.3553471" lon="10.7379744"><ele>91.0</ele><time>2026-03-28T09:34:07.632Z</time></trkpt><trkpt lat="45.3553149" lon="10.7380913"><ele>91.0</ele><time>2026-03-28T09:34:09.644Z</time></trkpt><trkpt lat="45.3552729" lon="10.7381952"><ele>91.0</ele><time>2026-03-28T09:34:15.642Z</time></trkpt><trkpt lat="45.3552011" lon="10.738204"><ele>91.0</ele><time>2026-03-28T09:34:17.642Z</time></trkpt><trkpt lat="45.3551334" lon="10.7381778"><ele>91.0</ele><time>2026-03-28T09:34:18.635Z</time></trkpt><trkpt lat="45.3550573" lon="10.7381362"><ele>91.0</ele><time>2026-03-28T09:34:19.64Z</time></trkpt><trkpt lat="45.3549756" lon="10.738103"><ele>91.0</ele><time>2026-03-28T09:34:20.635Z</time></trkpt><trkpt lat="45.3549006" lon="10.7380629"><ele>91.0</ele><time>2026-03-28T09:34:21.633Z</time></trkpt><trkpt lat="45.3548267" lon="10.7380197"><ele>91.0</ele><time>2026-03-28T09:34:22.636Z</time></trkpt><trkpt lat="45.3547574" lon="10.7379742"><ele>90.66666666666666</ele><time>2026-03-28T09:34:23.625Z</time></trkpt><trkpt lat="45.3546813" lon="10.7379209"><ele>90.33333333333333</ele><time>2026-03-28T09:34:24.631Z</time></trkpt><trkpt lat="45.3546156" lon="10.737873"><ele>90.0</ele><time>2026-03-28T09:34:25.636Z</time></trkpt><trkpt lat="45.354543" lon="10.7378195"><ele>89.66666666666667</ele><time>2026-03-28T09:34:26.63Z</time></trkpt><trkpt lat="45.3544813" lon="10.7377739"><ele>89.33333333333334</ele><time>2026-03-28T09:34:27.631Z</time></trkpt><trkpt lat="45.3544195" lon="10.7377201"><ele>89.0</ele><time>2026-03-28T09:34:28.631Z</time></trkpt><trkpt lat="45.3543593" lon="10.7376617"><ele>89.0</ele><time>2026-03-28T09:34:29.631Z</time></trkpt><trkpt lat="45.3542979" lon="10.7376113"><ele>89.0</ele><time>2026-03-28T09:34:30.622Z</time></trkpt><trkpt lat="45.3542378" lon="10.7375591"><ele>89.0</ele><time>2026-03-28T09:34:31.631Z</time></trkpt><trkpt lat="45.354176" lon="10.7375094"><ele>89.0</ele><time>2026-03-28T09:34:32.624Z</time></trkpt><trkpt lat="45.3540849" lon="10.7374529"><ele>89.0</ele><time>2026-03-28T09:34:34.635Z</time></trkpt><trkpt lat="45.3540213" lon="10.7374123"><ele>89.0</ele><time>2026-03-28T09:34:41.634Z</time></trkpt><trkpt lat="45.3539438" lon="10.7373677"><ele>89.0</ele><time>2026-03-28T09:34:45.633Z</time></trkpt><trkpt lat="45.3538805" lon="10.7373271"><ele>89.0</ele><time>2026-03-28T09:34:51.643Z</time></trkpt><trkpt lat="45.3538184" lon="10.7372893"><ele>89.0</ele><time>2026-03-28T09:34:59.639Z</time></trkpt><trkpt lat="45.3537476" lon="10.737221"><ele>89.0</ele><time>2026-03-28T09:35:02.64Z</time></trkpt><trkpt lat="45.3536936" lon="10.7371454"><ele>89.0</ele><time>2026-03-28T09:35:04.639Z</time></trkpt><trkpt lat="45.3535973" lon="10.737138"><ele>89.0</ele><time>2026-03-28T09:35:06.632Z</time></trkpt><trkpt lat="45.3535142" lon="10.737143"><ele>88.80000000000001</ele><time>2026-03-28T09:35:08.636Z</time></trkpt><trkpt lat="45.3534439" lon="10.737103"><ele>88.60000000000001</ele><time>2026-03-28T09:35:10.632Z</time></trkpt><trkpt lat="45.3533754" lon="10.7370301"><ele>88.4</ele><time>2026-03-28T09:35:13.642Z</time></trkpt><trkpt lat="45.3533107" lon="10.7369331"><ele>88.2</ele><time>2026-03-28T09:35:16.647Z</time></trkpt><trkpt lat="45.3532395" lon="10.7368455"><ele>88.0</ele><time>2026-03-28T09:35:18.646Z</time></trkpt><trkpt lat="45.3531642" lon="10.7367294"><ele>88.0</ele><time>2026-03-28T09:35:20.633Z</time></trkpt><trkpt lat="45.3531001" lon="10.736621"><ele>88.0</ele><time>2026-03-28T09:35:22.64Z</time></trkpt><trkpt lat="45.3530354" lon="10.7365414"><ele>88.0</ele><time>2026-03-28T09:35:24.641Z</time></trkpt><trkpt lat="45.3529798" lon="10.736453"><ele>88.0</ele><time>2026-03-28T09:35:26.641Z</time></trkpt><trkpt lat="45.3529333" lon="10.7363616"><ele>88.0</ele><time>2026-03-28T09:35:28.636Z</time></trkpt><trkpt lat="45.3528709" lon="10.7362774"><ele>88.0</ele><time>2026-03-28T09:35:30.629Z</time></trkpt><trkpt lat="45.3527787" lon="10.7361577"><ele>88.0</ele><time>2026-03-28T09:35:32.631Z</time></trkpt><trkpt lat="45.3527278" lon="10.7360635"><ele>88.0</ele><time>2026-03-28T09:35:33.624Z</time></trkpt><trkpt lat="45.3526764" lon="10.7359672"><ele>88.0</ele><time>2026-03-28T09:35:34.627Z</time></trkpt><trkpt lat="45.352637" lon="10.7358781"><ele>88.0</ele><time>2026-03-28T09:35:35.629Z</time></trkpt><trkpt lat="45.3526111" lon="10.7357861"><ele>88.0</ele><time>2026-03-28T09:35:36.627Z</time></trkpt><trkpt lat="45.3525938" lon="10.7356887"><ele>88.0</ele><time>2026-03-28T09:35:37.624Z</time></trkpt><trkpt lat="45.3526017" lon="10.7355984"><ele>88.0</ele><time>2026-03-28T09:35:38.631Z</time></trkpt><trkpt lat="45.3526143" lon="10.7354564"><ele>88.2</ele><time>2026-03-28T09:35:40.631Z</time></trkpt><trkpt lat="45.3526143" lon="10.7353309"><ele>88.4</ele><time>2026-03-28T09:35:43.645Z</time></trkpt><trkpt lat="45.3526026" lon="10.7352339"><ele>88.60000000000001</ele><time>2026-03-28T09:35:46.643Z</time></trkpt><trkpt lat="45.3525068" lon="10.7352101"><ele>88.80000000000001</ele><time>2026-03-28T09:35:49.632Z</time></trkpt><trkpt lat="45.3524061" lon="10.7352578"><ele>89.0</ele><time>2026-03-28T09:35:51.643Z</time></trkpt><trkpt lat="45.3523052" lon="10.7353349"><ele>89.0</ele><time>2026-03-28T09:35:53.638Z</time></trkpt><trkpt lat="45.3522544" lon="10.735401"><ele>89.0</ele><time>2026-03-28T09:35:54.645Z</time></trkpt><trkpt lat="45.3521902" lon="10.735399"><ele>89.0</ele><time>2026-03-28T09:35:56.648Z</time></trkpt><trkpt lat="45.3520864" lon="10.7354211"><ele>89.0</ele><time>2026-03-28T09:35:58.629Z</time></trkpt><trkpt lat="45.3520116" lon="10.7354558"><ele>89.0</ele><time>2026-03-28T09:36:00.644Z</time></trkpt><trkpt lat="45.3519085" lon="10.7354869"><ele>89.0</ele><time>2026-03-28T09:36:02.645Z</time></trkpt><trkpt lat="45.351771" lon="10.7355281"><ele>88.83333333333334</ele><time>2026-03-28T09:36:04.635Z</time></trkpt><trkpt lat="45.3516879" lon="10.7355581"><ele>88.66666666666667</ele><time>2026-03-28T09:36:05.645Z</time></trkpt><trkpt lat="45.3516063" lon="10.7355924"><ele>88.5</ele><time>2026-03-28T09:36:06.64Z</time></trkpt><trkpt lat="45.3515245" lon="10.7356157"><ele>88.33333333333333</ele><time>2026-03-28T09:36:07.641Z</time></trkpt><trkpt lat="45.3514449" lon="10.7356456"><ele>88.16666666666666</ele><time>2026-03-28T09:36:08.644Z</time></trkpt><trkpt lat="45.3513634" lon="10.7356865"><ele>88.0</ele><time>2026-03-28T09:36:09.643Z</time></trkpt><trkpt lat="45.3512753" lon="10.7357313"><ele>88.0</ele><time>2026-03-28T09:36:10.645Z</time></trkpt><trkpt lat="45.3511768" lon="10.7357859"><ele>88.0</ele><time>2026-03-28T09:36:11.643Z</time></trkpt><trkpt lat="45.3510776" lon="10.7358469"><ele>88.0</ele><time>2026-03-28T09:36:12.65Z</time></trkpt><trkpt lat="45.3509848" lon="10.7358988"><ele>88.0</ele><time>2026-03-28T09:36:13.633Z</time></trkpt><trkpt lat="45.3508989" lon="10.735946"><ele>88.0</ele><time>2026-03-28T09:36:14.651Z</time></trkpt><trkpt lat="45.3508235" lon="10.7359841"><ele>88.0</ele><time>2026-03-28T09:36:15.646Z</time></trkpt><trkpt lat="45.3507586" lon="10.7360212"><ele>88.0</ele><time>2026-03-28T09:36:16.66Z</time></trkpt><trkpt lat="45.350648" lon="10.7360823"><ele>88.0</ele><time>2026-03-28T09:36:18.643Z</time></trkpt><trkpt lat="45.3506323" lon="10.7361833"><ele>88.0</ele><time>2026-03-28T09:36:20.649Z</time></trkpt><trkpt lat="45.3506074" lon="10.736266"><ele>88.0</ele><time>2026-03-28T09:36:48.641Z</time></trkpt><trkpt lat="45.3505739" lon="10.7363776"><ele>88.0</ele><time>2026-03-28T09:36:53.637Z</time></trkpt><trkpt lat="45.3506244" lon="10.7364481"><ele>87.80000000000001</ele><time>2026-03-28T09:36:56.627Z</time></trkpt><trkpt lat="45.3506935" lon="10.7364353"><ele>87.6</ele><time>2026-03-28T09:36:57.632Z</time></trkpt><trkpt lat="45.3507808" lon="10.736397"><ele>87.4</ele><time>2026-03-28T09:36:58.627Z</time></trkpt><trkpt lat="45.3508819" lon="10.7363525"><ele>87.19999999999999</ele><time>2026-03-28T09:36:59.628Z</time></trkpt><trkpt lat="45.3509742" lon="10.7363109"><ele>87.0</ele><time>2026-03-28T09:37:00.619Z</time></trkpt><trkpt lat="45.3510571" lon="10.7362677"><ele>87.0</ele><time>2026-03-28T09:37:01.62Z</time></trkpt><trkpt lat="45.3511746" lon="10.7362011"><ele>87.0</ele><time>2026-03-28T09:37:02.626Z</time></trkpt><trkpt lat="45.3512722" lon="10.736145"><ele>87.0</ele><time>2026-03-28T09:37:03.617Z</time></trkpt><trkpt lat="45.351362" lon="10.7361011"><ele>87.0</ele><time>2026-03-28T09:37:04.627Z</time></trkpt><trkpt lat="45.351433" lon="10.7360674"><ele>87.0</ele><time>2026-03-28T09:37:05.617Z</time></trkpt><trkpt lat="45.3515018" lon="10.73603"><ele>87.16666666666667</ele><time>2026-03-28T09:37:06.622Z</time></trkpt><trkpt lat="45.3515702" lon="10.7359913"><ele>87.33333333333333</ele><time>2026-03-28T09:37:07.627Z</time></trkpt><trkpt lat="45.3516344" lon="10.7359476"><ele>87.5</ele><time>2026-03-28T09:37:08.622Z</time></trkpt><trkpt lat="45.3517527" lon="10.735868"><ele>87.66666666666666</ele><time>2026-03-28T09:37:10.641Z</time></trkpt><trkpt lat="45.3518132" lon="10.7358196"><ele>87.83333333333333</ele><time>2026-03-28T09:37:11.709Z</time></trkpt><trkpt lat="45.351883" lon="10.7357856"><ele>88.0</ele><time>2026-03-28T09:37:12.634Z</time></trkpt><trkpt lat="45.3519608" lon="10.7357467"><ele>88.0</ele><time>2026-03-28T09:37:13.633Z</time></trkpt><trkpt lat="45.3520295" lon="10.7357007"><ele>88.0</ele><time>2026-03-28T09:37:14.631Z</time></trkpt><trkpt lat="45.352104" lon="10.7356682"><ele>88.0</ele><time>2026-03-28T09:37:15.632Z</time></trkpt><trkpt lat="45.3522134" lon="10.7356223"><ele>88.0</ele><time>2026-03-28T09:37:17.641Z</time></trkpt><trkpt lat="45.3523048" lon="10.7355835"><ele>88.0</ele><time>2026-03-28T09:37:19.64Z</time></trkpt><trkpt lat="45.3524185" lon="10.7355899"><ele>88.0</ele><time>2026-03-28T09:37:21.642Z</time></trkpt><trkpt lat="45.3524896" lon="10.7356649"><ele>88.0</ele><time>2026-03-28T09:37:23.639Z</time></trkpt><trkpt lat="45.352525" lon="10.7357593"><ele>88.0</ele><time>2026-03-28T09:37:25.635Z</time></trkpt><trkpt lat="45.352566" lon="10.7358435"><ele>88.0</ele><time>2026-03-28T09:37:27.638Z</time></trkpt><trkpt lat="45.3526111" lon="10.7359763"><ele>88.0</ele><time>2026-03-28T09:37:29.64Z</time></trkpt><trkpt lat="45.3526586" lon="10.7360909"><ele>88.0</ele><time>2026-03-28T09:37:31.625Z</time></trkpt><trkpt lat="45.3527131" lon="10.7361417"><ele>88.0</ele><time>2026-03-28T09:37:39.629Z</time></trkpt><trkpt lat="45.352742" lon="10.7362341"><ele>88.0</ele><time>2026-03-28T09:37:43.639Z</time></trkpt><trkpt lat="45.3527221" lon="10.7363588"><ele>88.0</ele><time>2026-03-28T09:37:47.646Z</time></trkpt><trkpt lat="45.3527436" lon="10.7364564"><ele>88.0</ele><time>2026-03-28T09:37:49.637Z</time></trkpt><trkpt lat="45.3527749" lon="10.7365342"><ele>88.0</ele><time>2026-03-28T09:37:58.63Z</time></trkpt><trkpt lat="45.3528266" lon="10.7366214"><ele>88.0</ele><time>2026-03-28T09:38:01.635Z</time></trkpt><trkpt lat="45.3529011" lon="10.7366647"><ele>88.0</ele><time>2026-03-28T09:38:05.634Z</time></trkpt><trkpt lat="45.3529633" lon="10.7367023"><ele>88.0</ele><time>2026-03-28T09:38:13.642Z</time></trkpt><trkpt lat="45.353024" lon="10.7367628"><ele>88.0</ele><time>2026-03-28T09:38:17.644Z</time></trkpt><trkpt lat="45.3530784" lon="10.7368235"><ele>88.0</ele><time>2026-03-28T09:38:19.632Z</time></trkpt><trkpt lat="45.3531523" lon="10.7369015"><ele>88.0</ele><time>2026-03-28T09:38:22.639Z</time></trkpt><trkpt lat="45.3532162" lon="10.7369595"><ele>88.0</ele><time>2026-03-28T09:38:27.642Z</time></trkpt><trkpt lat="45.353264" lon="10.7370209"><ele>88.0</ele><time>2026-03-28T09:38:29.642Z</time></trkpt><trkpt lat="45.3533096" lon="10.7370869"><ele>88.0</ele><time>2026-03-28T09:38:44.629Z</time></trkpt><trkpt lat="45.3533604" lon="10.7371415"><ele>88.0</ele><time>2026-03-28T09:38:46.634Z</time></trkpt><trkpt lat="45.3534289" lon="10.7371976"><ele>88.0</ele><time>2026-03-28T09:38:48.636Z</time></trkpt><trkpt lat="45.3535219" lon="10.7373003"><ele>88.0</ele><time>2026-03-28T09:38:50.635Z</time></trkpt><trkpt lat="45.3536104" lon="10.7373964"><ele>88.0</ele><time>2026-03-28T09:38:52.629Z</time></trkpt><trkpt lat="45.3536923" lon="10.7374087"><ele>88.0</ele><time>2026-03-28T09:38:54.626Z</time></trkpt><trkpt lat="45.3537886" lon="10.7372847"><ele>88.0</ele><time>2026-03-28T09:38:56.631Z</time></trkpt><trkpt lat="45.3537924" lon="10.7371941"><ele>88.0</ele><time>2026-03-28T09:38:57.628Z</time></trkpt><trkpt lat="45.3538055" lon="10.7370301"><ele>88.0</ele><time>2026-03-28T09:38:59.63Z</time></trkpt><trkpt lat="45.3538251" lon="10.7369383"><ele>88.0</ele><time>2026-03-28T09:39:00.635Z</time></trkpt><trkpt lat="45.3538527" lon="10.7368437"><ele>88.0</ele><time>2026-03-28T09:39:01.629Z</time></trkpt><trkpt lat="45.35389" lon="10.7367466"><ele>88.28571428571429</ele><time>2026-03-28T09:39:02.63Z</time></trkpt><trkpt lat="45.3539268" lon="10.7366571"><ele>88.57142857142857</ele><time>2026-03-28T09:39:03.622Z</time></trkpt><trkpt lat="45.3539603" lon="10.7365799"><ele>88.85714285714286</ele><time>2026-03-28T09:39:04.635Z</time></trkpt><trkpt lat="45.3539986" lon="10.7365078"><ele>89.14285714285714</ele><time>2026-03-28T09:39:05.636Z</time></trkpt><trkpt lat="45.3540405" lon="10.7364237"><ele>89.42857142857143</ele><time>2026-03-28T09:39:06.633Z</time></trkpt><trkpt lat="45.3540884" lon="10.7363186"><ele>89.71428571428571</ele><time>2026-03-28T09:39:07.634Z</time></trkpt><trkpt lat="45.3541302" lon="10.7362085"><ele>90.0</ele><time>2026-03-28T09:39:08.645Z</time></trkpt><trkpt lat="45.3541661" lon="10.7361044"><ele>90.33333333333333</ele><time>2026-03-28T09:39:09.639Z</time></trkpt><trkpt lat="45.3541987" lon="10.736009"><ele>90.66666666666667</ele><time>2026-03-28T09:39:10.645Z</time></trkpt><trkpt lat="45.3542304" lon="10.7359172"><ele>91.0</ele><time>2026-03-28T09:39:11.639Z</time></trkpt><trkpt lat="45.354284" lon="10.7357886"><ele>91.33333333333334</ele><time>2026-03-28T09:39:13.623Z</time></trkpt><trkpt lat="45.3543313" lon="10.7356908"><ele>91.66666666666667</ele><time>2026-03-28T09:39:16.642Z</time></trkpt><trkpt lat="45.3543566" lon="10.7355991"><ele>92.0</ele><time>2026-03-28T09:39:19.642Z</time></trkpt><trkpt lat="45.3543965" lon="10.7355095"><ele>92.0</ele><time>2026-03-28T09:39:23.637Z</time></trkpt><trkpt lat="45.3544299" lon="10.7354319"><ele>92.0</ele><time>2026-03-28T09:39:26.637Z</time></trkpt><trkpt lat="45.3544583" lon="10.7353403"><ele>92.0</ele><time>2026-03-28T09:39:35.632Z</time></trkpt><trkpt lat="45.3544801" lon="10.7352325"><ele>92.0</ele><time>2026-03-28T09:39:46.636Z</time></trkpt><trkpt lat="45.3544879" lon="10.7351231"><ele>92.0</ele><time>2026-03-28T09:39:52.64Z</time></trkpt><trkpt lat="45.3545139" lon="10.7350159"><ele>92.0</ele><time>2026-03-28T09:39:55.635Z</time></trkpt><trkpt lat="45.3545442" lon="10.7349121"><ele>92.0</ele><time>2026-03-28T09:39:58.627Z</time></trkpt><trkpt lat="45.3545922" lon="10.7348395"><ele>92.0</ele><time>2026-03-28T09:40:01.634Z</time></trkpt><trkpt lat="45.3546457" lon="10.7347792"><ele>92.0</ele><time>2026-03-28T09:40:06.638Z</time></trkpt><trkpt lat="45.3546959" lon="10.7347037"><ele>92.0</ele><time>2026-03-28T09:40:10.649Z</time></trkpt><trkpt lat="45.3547224" lon="10.7346099"><ele>92.0</ele><time>2026-03-28T09:40:13.642Z</time></trkpt><trkpt lat="45.3547293" lon="10.734492"><ele>92.0</ele><time>2026-03-28T09:40:16.639Z</time></trkpt><trkpt lat="45.3547524" lon="10.7343851"><ele>92.0</ele><time>2026-03-28T09:40:18.636Z</time></trkpt><trkpt lat="45.3547793" lon="10.7342825"><ele>92.16666666666667</ele><time>2026-03-28T09:40:21.63Z</time></trkpt><trkpt lat="45.3548528" lon="10.7342331"><ele>92.33333333333334</ele><time>2026-03-28T09:40:23.632Z</time></trkpt><trkpt lat="45.354882" lon="10.7341209"><ele>92.5</ele><time>2026-03-28T09:40:25.632Z</time></trkpt><trkpt lat="45.3549252" lon="10.7339928"><ele>92.66666666666667</ele><time>2026-03-28T09:40:27.632Z</time></trkpt><trkpt lat="45.3549717" lon="10.7338908"><ele>92.83333333333333</ele><time>2026-03-28T09:40:29.639Z</time></trkpt><trkpt lat="45.3550245" lon="10.7337932"><ele>93.0</ele><time>2026-03-28T09:40:32.639Z</time></trkpt><trkpt lat="45.3550678" lon="10.7336992"><ele>93.0</ele><time>2026-03-28T09:40:40.621Z</time></trkpt><trkpt lat="45.3550989" lon="10.7336086"><ele>93.0</ele><time>2026-03-28T09:40:42.621Z</time></trkpt><trkpt lat="45.3551454" lon="10.7334979"><ele>93.0</ele><time>2026-03-28T09:40:45.624Z</time></trkpt><trkpt lat="45.3551861" lon="10.7334039"><ele>93.0</ele><time>2026-03-28T09:40:47.619Z</time></trkpt><trkpt lat="45.3552356" lon="10.7332692"><ele>93.0</ele><time>2026-03-28T09:40:49.615Z</time></trkpt><trkpt lat="45.3552728" lon="10.7331867"><ele>93.0</ele><time>2026-03-28T09:40:50.617Z</time></trkpt><trkpt lat="45.355312" lon="10.7331079"><ele>93.25</ele><time>2026-03-28T09:40:51.615Z</time></trkpt><trkpt lat="45.3553641" lon="10.7329728"><ele>93.5</ele><time>2026-03-28T09:40:53.621Z</time></trkpt><trkpt lat="45.3554277" lon="10.7328344"><ele>93.75</ele><time>2026-03-28T09:40:55.619Z</time></trkpt><trkpt lat="45.3554819" lon="10.7326993"><ele>94.0</ele><time>2026-03-28T09:40:57.624Z</time></trkpt><trkpt lat="45.3555465" lon="10.7325588"><ele>94.16666666666666</ele><time>2026-03-28T09:40:59.628Z</time></trkpt><trkpt lat="45.3555783" lon="10.7324796"><ele>94.33333333333333</ele><time>2026-03-28T09:41:00.623Z</time></trkpt><trkpt lat="45.3556129" lon="10.7324041"><ele>94.5</ele><time>2026-03-28T09:41:01.623Z</time></trkpt><trkpt lat="45.3556907" lon="10.7322494"><ele>94.66666666666667</ele><time>2026-03-28T09:41:03.625Z</time></trkpt><trkpt lat="45.3557297" lon="10.7321515"><ele>94.83333333333334</ele><time>2026-03-28T09:41:04.624Z</time></trkpt><trkpt lat="45.3557651" lon="10.7320623"><ele>95.0</ele><time>2026-03-28T09:41:05.623Z</time></trkpt><trkpt lat="45.3558244" lon="10.7319201"><ele>96.16666666666667</ele><time>2026-03-28T09:41:07.628Z</time></trkpt><trkpt lat="45.355878" lon="10.7317748"><ele>97.33333333333334</ele><time>2026-03-28T09:41:09.626Z</time></trkpt><trkpt lat="45.3559121" lon="10.7316967"><ele>98.5</ele><time>2026-03-28T09:41:10.624Z</time></trkpt><trkpt lat="45.3559445" lon="10.731611"><ele>99.66666666666667</ele><time>2026-03-28T09:41:11.625Z</time></trkpt><trkpt lat="45.3559658" lon="10.7315186"><ele>100.83333333333333</ele><time>2026-03-28T09:41:12.626Z</time></trkpt><trkpt lat="45.3559718" lon="10.731415"><ele>102.0</ele><time>2026-03-28T09:41:13.622Z</time></trkpt><trkpt lat="45.3559564" lon="10.7313062"><ele>102.0</ele><time>2026-03-28T09:41:14.626Z</time></trkpt><trkpt lat="45.3559379" lon="10.7311964"><ele>102.0</ele><time>2026-03-28T09:41:15.628Z</time></trkpt><trkpt lat="45.3559172" lon="10.7310735"><ele>102.0</ele><time>2026-03-28T09:41:16.621Z</time></trkpt><trkpt lat="45.3559007" lon="10.730937"><ele>102.0</ele><time>2026-03-28T09:41:17.623Z</time></trkpt><trkpt lat="45.3558763" lon="10.730799"><ele>102.0</ele><time>2026-03-28T09:41:18.624Z</time></trkpt><trkpt lat="45.3558457" lon="10.7306538"><ele>102.19999999999999</ele><time>2026-03-28T09:41:19.62Z</time></trkpt><trkpt lat="45.3558123" lon="10.7305108"><ele>102.4</ele><time>2026-03-28T09:41:20.614Z</time></trkpt><trkpt lat="45.355778" lon="10.7303741"><ele>102.6</ele><time>2026-03-28T09:41:21.609Z</time></trkpt><trkpt lat="45.3557494" lon="10.7302477"><ele>102.80000000000001</ele><time>2026-03-28T09:41:22.616Z</time></trkpt><trkpt lat="45.355739" lon="10.7301249"><ele>103.0</ele><time>2026-03-28T09:41:23.612Z</time></trkpt><trkpt lat="45.3557516" lon="10.7300096"><ele>102.00000000000001</ele><time>2026-03-28T09:41:24.616Z</time></trkpt><trkpt lat="45.3557863" lon="10.7299112"><ele>101.0</ele><time>2026-03-28T09:41:25.616Z</time></trkpt><trkpt lat="45.3558347" lon="10.7298283"><ele>100.0</ele><time>2026-03-28T09:41:26.622Z</time></trkpt><trkpt lat="45.3559012" lon="10.7297606"><ele>99.0</ele><time>2026-03-28T09:41:27.622Z</time></trkpt><trkpt lat="45.3559813" lon="10.7296969"><ele>98.00000000000001</ele><time>2026-03-28T09:41:28.625Z</time></trkpt><trkpt lat="45.3560765" lon="10.729642"><ele>97.0</ele><time>2026-03-28T09:41:29.617Z</time></trkpt><trkpt lat="45.356178" lon="10.7295992"><ele>97.00000000000001</ele><time>2026-03-28T09:41:30.613Z</time></trkpt><trkpt lat="45.3562724" lon="10.7295577"><ele>97.0</ele><time>2026-03-28T09:41:31.612Z</time></trkpt><trkpt lat="45.3563554" lon="10.7295189"><ele>97.0</ele><time>2026-03-28T09:41:32.614Z</time></trkpt><trkpt lat="45.3564398" lon="10.7294846"><ele>97.0</ele><time>2026-03-28T09:41:33.613Z</time></trkpt><trkpt lat="45.3565235" lon="10.7294532"><ele>97.00000000000001</ele><time>2026-03-28T09:41:34.605Z</time></trkpt><trkpt lat="45.3566018" lon="10.729424"><ele>97.0</ele><time>2026-03-28T09:41:35.603Z</time></trkpt><trkpt lat="45.3566778" lon="10.7293879"><ele>94.19999999999999</ele><time>2026-03-28T09:41:36.61Z</time></trkpt><trkpt lat="45.3567386" lon="10.7293309"><ele>91.4</ele><time>2026-03-28T09:41:37.599Z</time></trkpt><trkpt lat="45.3567464" lon="10.7292001"><ele>88.6</ele><time>2026-03-28T09:41:39.615Z</time></trkpt><trkpt lat="45.3566263" lon="10.7291765"><ele>85.80000000000001</ele><time>2026-03-28T09:41:41.608Z</time></trkpt><trkpt lat="45.3565621" lon="10.7291986"><ele>83.0</ele><time>2026-03-28T09:41:42.622Z</time></trkpt><trkpt lat="45.3564708" lon="10.7292467"><ele>82.0</ele><time>2026-03-28T09:41:43.622Z</time></trkpt><trkpt lat="45.3563668" lon="10.7292973"><ele>81.0</ele><time>2026-03-28T09:41:44.625Z</time></trkpt><trkpt lat="45.356251" lon="10.7293306"><ele>80.0</ele><time>2026-03-28T09:41:45.619Z</time></trkpt><trkpt lat="45.3561328" lon="10.7293652"><ele>79.0</ele><time>2026-03-28T09:41:46.627Z</time></trkpt><trkpt lat="45.3560063" lon="10.7293922"><ele>79.0</ele><time>2026-03-28T09:41:47.626Z</time></trkpt><trkpt lat="45.3558631" lon="10.7293891"><ele>79.0</ele><time>2026-03-28T09:41:48.629Z</time></trkpt><trkpt lat="45.3556764" lon="10.7293477"><ele>79.0</ele><time>2026-03-28T09:41:49.623Z</time></trkpt><trkpt lat="45.3554561" lon="10.7292607"><ele>79.33333333333333</ele><time>2026-03-28T09:41:50.637Z</time></trkpt><trkpt lat="45.355222" lon="10.7291829"><ele>79.66666666666667</ele><time>2026-03-28T09:41:51.619Z</time></trkpt><trkpt lat="45.355031" lon="10.7291221"><ele>80.0</ele><time>2026-03-28T09:41:52.63Z</time></trkpt><trkpt lat="45.3548791" lon="10.7291161"><ele>80.0</ele><time>2026-03-28T09:41:53.629Z</time></trkpt><trkpt lat="45.3547752" lon="10.7290876"><ele>80.0</ele><time>2026-03-28T09:41:54.627Z</time></trkpt><trkpt lat="45.3546695" lon="10.7290297"><ele>80.0</ele><time>2026-03-28T09:41:55.622Z</time></trkpt><trkpt lat="45.3545808" lon="10.7289642"><ele>80.0</ele><time>2026-03-28T09:41:56.629Z</time></trkpt><trkpt lat="45.3544735" lon="10.7289159"><ele>80.0</ele><time>2026-03-28T09:41:57.633Z</time></trkpt><trkpt lat="45.354366" lon="10.7288681"><ele>80.33333333333334</ele><time>2026-03-28T09:41:58.631Z</time></trkpt><trkpt lat="45.3542977" lon="10.7288539"><ele>80.66666666666667</ele><time>2026-03-28T09:41:59.631Z</time></trkpt><trkpt lat="45.3542393" lon="10.7288042"><ele>81.0</ele><time>2026-03-28T09:42:01.635Z</time></trkpt><trkpt lat="45.354161" lon="10.7287509"><ele>81.33333333333333</ele><time>2026-03-28T09:42:03.635Z</time></trkpt><trkpt lat="45.3540681" lon="10.7286894"><ele>81.66666666666666</ele><time>2026-03-28T09:42:05.635Z</time></trkpt><trkpt lat="45.3539868" lon="10.7286411"><ele>82.0</ele><time>2026-03-28T09:42:07.633Z</time></trkpt><trkpt lat="45.3539208" lon="10.7286017"><ele>81.0</ele><time>2026-03-28T09:42:09.643Z</time></trkpt><trkpt lat="45.3538531" lon="10.728563"><ele>80.0</ele><time>2026-03-28T09:42:12.643Z</time></trkpt><trkpt lat="45.3537916" lon="10.7285372"><ele>79.0</ele><time>2026-03-28T09:42:20.634Z</time></trkpt><trkpt lat="45.3537336" lon="10.7284337"><ele>78.0</ele><time>2026-03-28T09:56:57.637Z</time></trkpt><trkpt lat="45.3537903" lon="10.7283799"><ele>77.0</ele><time>2026-03-28T09:57:23.633Z</time></trkpt><trkpt lat="45.3537486" lon="10.7282589"><ele>76.0</ele><time>2026-03-28T09:57:26.632Z</time></trkpt><trkpt lat="45.3536811" lon="10.7282097"><ele>76.0</ele><time>2026-03-28T09:57:27.628Z</time></trkpt><trkpt lat="45.3536242" lon="10.7281479"><ele>76.0</ele><time>2026-03-28T09:57:28.628Z</time></trkpt><trkpt lat="45.3535749" lon="10.7280616"><ele>76.0</ele><time>2026-03-28T09:57:29.623Z</time></trkpt><trkpt lat="45.3535589" lon="10.7279749"><ele>76.0</ele><time>2026-03-28T09:57:30.633Z</time></trkpt><trkpt lat="45.3535728" lon="10.7278762"><ele>76.0</ele><time>2026-03-28T09:57:31.63Z</time></trkpt><trkpt lat="45.3536094" lon="10.7277394"><ele>76.0</ele><time>2026-03-28T09:57:32.63Z</time></trkpt><trkpt lat="45.3536504" lon="10.7276045"><ele>73.0</ele><time>2026-03-28T09:57:33.631Z</time></trkpt><trkpt lat="45.3537046" lon="10.7274417"><ele>70.0</ele><time>2026-03-28T09:57:34.633Z</time></trkpt><trkpt lat="45.3537656" lon="10.7272799"><ele>67.0</ele><time>2026-03-28T09:57:35.645Z</time></trkpt><trkpt lat="45.3538293" lon="10.7270823"><ele>64.0</ele><time>2026-03-28T09:57:36.641Z</time></trkpt><trkpt lat="45.353892" lon="10.7268817"><ele>62.75</ele><time>2026-03-28T09:57:37.636Z</time></trkpt><trkpt lat="45.3539828" lon="10.7267329"><ele>61.5</ele><time>2026-03-28T09:57:38.639Z</time></trkpt><trkpt lat="45.3540663" lon="10.7265944"><ele>60.25</ele><time>2026-03-28T09:57:39.639Z</time></trkpt><trkpt lat="45.3541371" lon="10.7264588"><ele>59.0</ele><time>2026-03-28T09:57:40.634Z</time></trkpt><trkpt lat="45.3542046" lon="10.7263251"><ele>59.0</ele><time>2026-03-28T09:57:41.652Z</time></trkpt><trkpt lat="45.3542728" lon="10.7261992"><ele>59.0</ele><time>2026-03-28T09:57:42.64Z</time></trkpt><trkpt lat="45.3543373" lon="10.7260405"><ele>59.0</ele><time>2026-03-28T09:57:43.642Z</time></trkpt><trkpt lat="45.3544018" lon="10.725886"><ele>59.0</ele><time>2026-03-28T09:57:44.645Z</time></trkpt><trkpt lat="45.3544497" lon="10.7257449"><ele>58.6</ele><time>2026-03-28T09:57:45.645Z</time></trkpt><trkpt lat="45.3544992" lon="10.7256272"><ele>58.2</ele><time>2026-03-28T09:57:46.641Z</time></trkpt><trkpt lat="45.3545467" lon="10.7255124"><ele>57.800000000000004</ele><time>2026-03-28T09:57:47.642Z</time></trkpt><trkpt lat="45.3545858" lon="10.7253909"><ele>57.400000000000006</ele><time>2026-03-28T09:57:48.648Z</time></trkpt><trkpt lat="45.3546273" lon="10.7252745"><ele>57.0</ele><time>2026-03-28T09:57:49.647Z</time></trkpt><trkpt lat="45.3546662" lon="10.7251599"><ele>57.6</ele><time>2026-03-28T09:57:50.638Z</time></trkpt><trkpt lat="45.3547063" lon="10.7250307"><ele>58.2</ele><time>2026-03-28T09:57:51.649Z</time></trkpt><trkpt lat="45.3547477" lon="10.7249001"><ele>58.8</ele><time>2026-03-28T09:57:52.634Z</time></trkpt><trkpt lat="45.3547917" lon="10.7247604"><ele>59.4</ele><time>2026-03-28T09:57:53.634Z</time></trkpt><trkpt lat="45.3548411" lon="10.724624"><ele>60.0</ele><time>2026-03-28T09:57:54.635Z</time></trkpt><trkpt lat="45.354892" lon="10.7244861"><ele>59.75</ele><time>2026-03-28T09:57:55.641Z</time></trkpt><trkpt lat="45.3549466" lon="10.7243336"><ele>59.5</ele><time>2026-03-28T09:57:56.639Z</time></trkpt><trkpt lat="45.3550064" lon="10.7241829"><ele>59.25</ele><time>2026-03-28T09:57:57.634Z</time></trkpt><trkpt lat="45.3550669" lon="10.724027"><ele>59.0</ele><time>2026-03-28T09:57:58.641Z</time></trkpt><trkpt lat="45.3551293" lon="10.7238752"><ele>59.0</ele><time>2026-03-28T09:57:59.647Z</time></trkpt><trkpt lat="45.3551943" lon="10.7237182"><ele>59.0</ele><time>2026-03-28T09:58:00.637Z</time></trkpt><trkpt lat="45.3552604" lon="10.7235621"><ele>59.0</ele><time>2026-03-28T09:58:01.643Z</time></trkpt><trkpt lat="45.3553233" lon="10.7234037"><ele>59.0</ele><time>2026-03-28T09:58:02.641Z</time></trkpt><trkpt lat="45.3553841" lon="10.7232397"><ele>59.0</ele><time>2026-03-28T09:58:03.633Z</time></trkpt><trkpt lat="45.3554461" lon="10.7230714"><ele>59.0</ele><time>2026-03-28T09:58:04.651Z</time></trkpt><trkpt lat="45.3555129" lon="10.7229091"><ele>59.0</ele><time>2026-03-28T09:58:05.634Z</time></trkpt><trkpt lat="45.3555805" lon="10.7227462"><ele>59.0</ele><time>2026-03-28T09:58:06.639Z</time></trkpt><trkpt lat="45.3556458" lon="10.7225809"><ele>59.0</ele><time>2026-03-28T09:58:07.64Z</time></trkpt><trkpt lat="45.3557105" lon="10.7224227"><ele>59.0</ele><time>2026-03-28T09:58:08.639Z</time></trkpt><trkpt lat="45.3557695" lon="10.7222655"><ele>59.0</ele><time>2026-03-28T09:58:09.638Z</time></trkpt><trkpt lat="45.355827" lon="10.7221077"><ele>59.0</ele><time>2026-03-28T09:58:10.65Z</time></trkpt><trkpt lat="45.3558829" lon="10.7219562"><ele>59.833333333333336</ele><time>2026-03-28T09:58:11.638Z</time></trkpt><trkpt lat="45.3559347" lon="10.7218236"><ele>60.66666666666667</ele><time>2026-03-28T09:58:12.642Z</time></trkpt><trkpt lat="45.3559808" lon="10.7217022"><ele>61.5</ele><time>2026-03-28T09:58:13.637Z</time></trkpt><trkpt lat="45.356024" lon="10.7215926"><ele>62.33333333333333</ele><time>2026-03-28T09:58:14.63Z</time></trkpt><trkpt lat="45.3560658" lon="10.7214935"><ele>63.166666666666664</ele><time>2026-03-28T09:58:15.626Z</time></trkpt><trkpt lat="45.3561024" lon="10.7214004"><ele>64.0</ele><time>2026-03-28T09:58:16.637Z</time></trkpt><trkpt lat="45.3561405" lon="10.7213121"><ele>64.0</ele><time>2026-03-28T09:58:17.634Z</time></trkpt><trkpt lat="45.3561727" lon="10.721228"><ele>64.0</ele><time>2026-03-28T09:58:18.643Z</time></trkpt><trkpt lat="45.3562066" lon="10.7211083"><ele>64.0</ele><time>2026-03-28T09:58:20.634Z</time></trkpt><trkpt lat="45.3562224" lon="10.7209807"><ele>64.0</ele><time>2026-03-28T09:58:23.629Z</time></trkpt><trkpt lat="45.356167" lon="10.7207777"><ele>64.0</ele><time>2026-03-28T09:58:25.636Z</time></trkpt><trkpt lat="45.3561225" lon="10.7206466"><ele>65.25</ele><time>2026-03-28T09:58:26.627Z</time></trkpt><trkpt lat="45.3560639" lon="10.7205166"><ele>66.5</ele><time>2026-03-28T09:58:27.625Z</time></trkpt><trkpt lat="45.3559813" lon="10.7203857"><ele>67.75</ele><time>2026-03-28T09:58:28.635Z</time></trkpt><trkpt lat="45.3558787" lon="10.7202389"><ele>69.0</ele><time>2026-03-28T09:58:29.627Z</time></trkpt><trkpt lat="45.3557533" lon="10.7200678"><ele>67.33333333333333</ele><time>2026-03-28T09:58:30.618Z</time></trkpt><trkpt lat="45.3556398" lon="10.7198767"><ele>65.66666666666666</ele><time>2026-03-28T09:58:31.629Z</time></trkpt><trkpt lat="45.3555489" lon="10.719645"><ele>64.0</ele><time>2026-03-28T09:58:32.624Z</time></trkpt><trkpt lat="45.3554609" lon="10.7194014"><ele>65.0</ele><time>2026-03-28T09:58:33.624Z</time></trkpt><trkpt lat="45.3553794" lon="10.7191622"><ele>66.0</ele><time>2026-03-28T09:58:34.619Z</time></trkpt><trkpt lat="45.3553294" lon="10.7188904"><ele>67.0</ele><time>2026-03-28T09:58:35.618Z</time></trkpt><trkpt lat="45.3552948" lon="10.7186076"><ele>68.33333333333333</ele><time>2026-03-28T09:58:36.617Z</time></trkpt><trkpt lat="45.3552545" lon="10.7183319"><ele>69.66666666666667</ele><time>2026-03-28T09:58:37.616Z</time></trkpt><trkpt lat="45.3552087" lon="10.7180491"><ele>71.0</ele><time>2026-03-28T09:58:38.623Z</time></trkpt><trkpt lat="45.3551373" lon="10.7177846"><ele>71.66666666666667</ele><time>2026-03-28T09:58:39.617Z</time></trkpt><trkpt lat="45.3550787" lon="10.717508"><ele>72.33333333333333</ele><time>2026-03-28T09:58:40.612Z</time></trkpt><trkpt lat="45.3550138" lon="10.717255"><ele>73.0</ele><time>2026-03-28T09:58:41.618Z</time></trkpt><trkpt lat="45.3549612" lon="10.7169948"><ele>75.0</ele><time>2026-03-28T09:58:42.621Z</time></trkpt><trkpt lat="45.3548998" lon="10.7167392"><ele>77.0</ele><time>2026-03-28T09:58:43.618Z</time></trkpt><trkpt lat="45.3548133" lon="10.7164994"><ele>79.0</ele><time>2026-03-28T09:58:44.627Z</time></trkpt><trkpt lat="45.3547204" lon="10.716271"><ele>76.0</ele><time>2026-03-28T09:58:45.624Z</time></trkpt><trkpt lat="45.3546399" lon="10.716029"><ele>73.0</ele><time>2026-03-28T09:58:46.631Z</time></trkpt><trkpt lat="45.354572" lon="10.7157753"><ele>70.0</ele><time>2026-03-28T09:58:47.631Z</time></trkpt><trkpt lat="45.3544991" lon="10.7155493"><ele>70.0</ele><time>2026-03-28T09:58:48.626Z</time></trkpt><trkpt lat="45.3544172" lon="10.715336"><ele>70.0</ele><time>2026-03-28T09:58:49.633Z</time></trkpt><trkpt lat="45.3543163" lon="10.7151329"><ele>70.0</ele><time>2026-03-28T09:58:50.623Z</time></trkpt><trkpt lat="45.3542451" lon="10.7149054"><ele>72.0</ele><time>2026-03-28T09:58:51.621Z</time></trkpt><trkpt lat="45.3541508" lon="10.7147368"><ele>74.0</ele><time>2026-03-28T09:58:52.619Z</time></trkpt><trkpt lat="45.3540748" lon="10.7145603"><ele>76.0</ele><time>2026-03-28T09:58:53.621Z</time></trkpt><trkpt lat="45.3539954" lon="10.7143802"><ele>78.0</ele><time>2026-03-28T09:58:54.613Z</time></trkpt><trkpt lat="45.3539693" lon="10.7141717"><ele>79.0</ele><time>2026-03-28T09:58:55.622Z</time></trkpt><trkpt lat="45.3539991" lon="10.7139914"><ele>80.0</ele><time>2026-03-28T09:58:56.613Z</time></trkpt><trkpt lat="45.354044" lon="10.7137829"><ele>81.0</ele><time>2026-03-28T09:58:57.616Z</time></trkpt><trkpt lat="45.3541339" lon="10.7135992"><ele>82.0</ele><time>2026-03-28T09:58:58.626Z</time></trkpt><trkpt lat="45.3541928" lon="10.7134018"><ele>82.33333333333333</ele><time>2026-03-28T09:58:59.617Z</time></trkpt><trkpt lat="45.3542829" lon="10.7132185"><ele>82.66666666666667</ele><time>2026-03-28T09:59:00.618Z</time></trkpt><trkpt lat="45.3543831" lon="10.7130014"><ele>83.0</ele><time>2026-03-28T09:59:01.631Z</time></trkpt><trkpt lat="45.3544692" lon="10.7127668"><ele>83.66666666666667</ele><time>2026-03-28T09:59:02.62Z</time></trkpt><trkpt lat="45.3545801" lon="10.7125754"><ele>84.33333333333333</ele><time>2026-03-28T09:59:03.617Z</time></trkpt><trkpt lat="45.3547166" lon="10.712395"><ele>85.0</ele><time>2026-03-28T09:59:04.622Z</time></trkpt><trkpt lat="45.3547863" lon="10.7121597"><ele>87.0</ele><time>2026-03-28T09:59:05.617Z</time></trkpt><trkpt lat="45.3548704" lon="10.7119064"><ele>89.0</ele><time>2026-03-28T09:59:06.619Z</time></trkpt><trkpt lat="45.3549449" lon="10.7116728"><ele>91.0</ele><time>2026-03-28T09:59:07.616Z</time></trkpt><trkpt lat="45.3549802" lon="10.7114395"><ele>91.0</ele><time>2026-03-28T09:59:08.612Z</time></trkpt><trkpt lat="45.3550096" lon="10.7112221"><ele>91.0</ele><time>2026-03-28T09:59:09.617Z</time></trkpt><trkpt lat="45.3550548" lon="10.7110257"><ele>91.0</ele><time>2026-03-28T09:59:10.624Z</time></trkpt><trkpt lat="45.3550695" lon="10.7108239"><ele>91.0</ele><time>2026-03-28T09:59:11.621Z</time></trkpt><trkpt lat="45.3550754" lon="10.7105763"><ele>90.66666666666666</ele><time>2026-03-28T09:59:12.629Z</time></trkpt><trkpt lat="45.3550725" lon="10.7103325"><ele>90.33333333333333</ele><time>2026-03-28T09:59:13.638Z</time></trkpt><trkpt lat="45.3550605" lon="10.7100827"><ele>90.0</ele><time>2026-03-28T09:59:14.638Z</time></trkpt><trkpt lat="45.3550886" lon="10.7098321"><ele>89.33333333333333</ele><time>2026-03-28T09:59:15.627Z</time></trkpt><trkpt lat="45.3551392" lon="10.7095895"><ele>88.66666666666666</ele><time>2026-03-28T09:59:16.633Z</time></trkpt><trkpt lat="45.3552123" lon="10.7093693"><ele>88.0</ele><time>2026-03-28T09:59:17.639Z</time></trkpt><trkpt lat="45.3552838" lon="10.7091391"><ele>86.33333333333333</ele><time>2026-03-28T09:59:18.645Z</time></trkpt><trkpt lat="45.3553458" lon="10.7089209"><ele>84.66666666666667</ele><time>2026-03-28T09:59:19.646Z</time></trkpt><trkpt lat="45.3553973" lon="10.7086518"><ele>83.0</ele><time>2026-03-28T09:59:20.641Z</time></trkpt><trkpt lat="45.3554508" lon="10.7084028"><ele>83.66666666666667</ele><time>2026-03-28T09:59:21.645Z</time></trkpt><trkpt lat="45.3554818" lon="10.7081556"><ele>84.33333333333333</ele><time>2026-03-28T09:59:22.64Z</time></trkpt><trkpt lat="45.355528" lon="10.7079174"><ele>85.0</ele><time>2026-03-28T09:59:23.639Z</time></trkpt><trkpt lat="45.3555632" lon="10.7076874"><ele>85.0</ele><time>2026-03-28T09:59:24.637Z</time></trkpt><trkpt lat="45.3555965" lon="10.7074411"><ele>85.0</ele><time>2026-03-28T09:59:25.637Z</time></trkpt><trkpt lat="45.3556302" lon="10.7071905"><ele>85.0</ele><time>2026-03-28T09:59:26.64Z</time></trkpt><trkpt lat="45.3556534" lon="10.7069241"><ele>84.66666666666666</ele><time>2026-03-28T09:59:27.643Z</time></trkpt><trkpt lat="45.3556777" lon="10.7066527"><ele>84.33333333333333</ele><time>2026-03-28T09:59:28.649Z</time></trkpt><trkpt lat="45.3557012" lon="10.7063855"><ele>84.0</ele><time>2026-03-28T09:59:29.647Z</time></trkpt><trkpt lat="45.3557257" lon="10.7061246"><ele>84.0</ele><time>2026-03-28T09:59:30.642Z</time></trkpt><trkpt lat="45.3557446" lon="10.7058596"><ele>84.0</ele><time>2026-03-28T09:59:31.649Z</time></trkpt><trkpt lat="45.3557567" lon="10.7056006"><ele>84.0</ele><time>2026-03-28T09:59:32.636Z</time></trkpt><trkpt lat="45.3544692" lon="10.7127668"><ele>84.33333333333333</ele><time>2026-03-28T09:59:02.62Z</time></trkpt><trkpt lat="45.3545801" lon="10.7125754"><ele>84.66666666666666</ele><time>2026-03-28T09:59:03.617Z</time></trkpt><trkpt lat="45.3547166" lon="10.712395"><ele>85.0</ele><time>2026-03-28T09:59:04.622Z</time></trkpt><trkpt lat="45.3547863" lon="10.7121597"><ele>87.0</ele><time>2026-03-28T09:59:05.617Z</time></trkpt><trkpt lat="45.3548704" lon="10.7119064"><ele>89.0</ele><time>2026-03-28T09:59:06.619Z</time></trkpt><trkpt lat="45.3549449" lon="10.7116728"><ele>91.0</ele><time>2026-03-28T09:59:07.616Z</time></trkpt><trkpt lat="45.3549802" lon="10.7114395"><ele>91.0</ele><time>2026-03-28T09:59:08.612Z</time></trkpt><trkpt lat="45.3550096" lon="10.7112221"><ele>91.0</ele><time>2026-03-28T09:59:09.617Z</time></trkpt><trkpt lat="45.3550548" lon="10.7110257"><ele>91.0</ele><time>2026-03-28T09:59:10.624Z</time></trkpt><trkpt lat="45.3550695" lon="10.7108239"><ele>91.0</ele><time>2026-03-28T09:59:11.621Z</time></trkpt><trkpt lat="45.3550754" lon="10.7105763"><ele>90.66666666666666</ele><time>2026-03-28T09:59:12.629Z</time></trkpt><trkpt lat="45.3550725" lon="10.7103325"><ele>90.33333333333333</ele><time>2026-03-28T09:59:13.638Z</time></trkpt><trkpt lat="45.3550605" lon="10.7100827"><ele>90.0</ele><time>2026-03-28T09:59:14.638Z</time></trkpt><trkpt lat="45.3550886" lon="10.7098321"><ele>89.33333333333333</ele><time>2026-03-28T09:59:15.627Z</time></trkpt><trkpt lat="45.3551392" lon="10.7095895"><ele>88.66666666666666</ele><time>2026-03-28T09:59:16.633Z</time></trkpt><trkpt lat="45.3552123" lon="10.7093693"><ele>88.0</ele><time>2026-03-28T09:59:17.639Z</time></trkpt><trkpt lat="45.3552838" lon="10.7091391"><ele>86.33333333333333</ele><time>2026-03-28T09:59:18.645Z</time></trkpt><trkpt lat="45.3553458" lon="10.7089209"><ele>84.66666666666667</ele><time>2026-03-28T09:59:19.646Z</time></trkpt><trkpt lat="45.3553973" lon="10.7086518"><ele>83.0</ele><time>2026-03-28T09:59:20.641Z</time></trkpt><trkpt lat="45.3554508" lon="10.7084028"><ele>83.66666666666667</ele><time>2026-03-28T09:59:21.645Z</time></trkpt><trkpt lat="45.3554818" lon="10.7081556"><ele>84.33333333333333</ele><time>2026-03-28T09:59:22.64Z</time></trkpt><trkpt lat="45.355528" lon="10.7079174"><ele>85.0</ele><time>2026-03-28T09:59:23.639Z</time></trkpt><trkpt lat="45.3555632" lon="10.7076874"><ele>85.0</ele><time>2026-03-28T09:59:24.637Z</time></trkpt><trkpt lat="45.3555965" lon="10.7074411"><ele>85.0</ele><time>2026-03-28T09:59:25.637Z</time></trkpt><trkpt lat="45.3556302" lon="10.7071905"><ele>85.0</ele><time>2026-03-28T09:59:26.64Z</time></trkpt><trkpt lat="45.3556534" lon="10.7069241"><ele>84.66666666666666</ele><time>2026-03-28T09:59:27.643Z</time></trkpt><trkpt lat="45.3556777" lon="10.7066527"><ele>84.33333333333333</ele><time>2026-03-28T09:59:28.649Z</time></trkpt><trkpt lat="45.3557012" lon="10.7063855"><ele>84.0</ele><time>2026-03-28T09:59:29.647Z</time></trkpt><trkpt lat="45.3557257" lon="10.7061246"><ele>84.0</ele><time>2026-03-28T09:59:30.642Z</time></trkpt><trkpt lat="45.3557446" lon="10.7058596"><ele>84.0</ele><time>2026-03-28T09:59:31.649Z</time></trkpt><trkpt lat="45.3557567" lon="10.7056006"><ele>84.0</ele><time>2026-03-28T09:59:32.636Z</time></trkpt><trkpt lat="45.3557731" lon="10.7053325"><ele>85.66666666666667</ele><time>2026-03-28T09:59:33.643Z</time></trkpt><trkpt lat="45.3557771" lon="10.7050784"><ele>87.33333333333334</ele><time>2026-03-28T09:59:34.643Z</time></trkpt><trkpt lat="45.3557832" lon="10.7048385"><ele>89.0</ele><time>2026-03-28T09:59:35.646Z</time></trkpt><trkpt lat="45.3558074" lon="10.70461"><ele>90.0</ele><time>2026-03-28T09:59:36.644Z</time></trkpt><trkpt lat="45.3558254" lon="10.7043766"><ele>91.0</ele><time>2026-03-28T09:59:37.635Z</time></trkpt><trkpt lat="45.3558453" lon="10.7041367"><ele>92.0</ele><time>2026-03-28T09:59:38.643Z</time></trkpt><trkpt lat="45.3558526" lon="10.7038998"><ele>92.0</ele><time>2026-03-28T09:59:39.645Z</time></trkpt><trkpt lat="45.3558672" lon="10.7036507"><ele>92.0</ele><time>2026-03-28T09:59:40.659Z</time></trkpt><trkpt lat="45.3558887" lon="10.7034"><ele>92.0</ele><time>2026-03-28T09:59:41.644Z</time></trkpt><trkpt lat="45.3558887" lon="10.7031452"><ele>92.0</ele><time>2026-03-28T09:59:42.647Z</time></trkpt><trkpt lat="45.3558784" lon="10.702889"><ele>92.0</ele><time>2026-03-28T09:59:43.642Z</time></trkpt><trkpt lat="45.3558697" lon="10.7026384"><ele>92.0</ele><time>2026-03-28T09:59:44.647Z</time></trkpt><trkpt lat="45.3558623" lon="10.7023836"><ele>92.0</ele><time>2026-03-28T09:59:45.646Z</time></trkpt><trkpt lat="45.3558451" lon="10.7021089"><ele>92.0</ele><time>2026-03-28T09:59:46.638Z</time></trkpt><trkpt lat="45.3558327" lon="10.7018498"><ele>92.0</ele><time>2026-03-28T09:59:47.639Z</time></trkpt><trkpt lat="45.3558214" lon="10.7015846"><ele>92.33333333333334</ele><time>2026-03-28T09:59:48.654Z</time></trkpt><trkpt lat="45.3558403" lon="10.7013172"><ele>92.66666666666667</ele><time>2026-03-28T09:59:49.639Z</time></trkpt><trkpt lat="45.3558359" lon="10.7010701"><ele>93.0</ele><time>2026-03-28T09:59:50.652Z</time></trkpt><trkpt lat="45.3558211" lon="10.7008151"><ele>93.0</ele><time>2026-03-28T09:59:51.642Z</time></trkpt><trkpt lat="45.3558192" lon="10.700564"><ele>93.0</ele><time>2026-03-28T09:59:52.645Z</time></trkpt><trkpt lat="45.3558165" lon="10.7003108"><ele>93.0</ele><time>2026-03-28T09:59:53.647Z</time></trkpt><trkpt lat="45.3558148" lon="10.7000568"><ele>93.0</ele><time>2026-03-28T09:59:54.648Z</time></trkpt><trkpt lat="45.3558074" lon="10.6997973"><ele>93.0</ele><time>2026-03-28T09:59:55.65Z</time></trkpt><trkpt lat="45.3558098" lon="10.6995372"><ele>93.0</ele><time>2026-03-28T09:59:56.643Z</time></trkpt><trkpt lat="45.3558274" lon="10.6992638"><ele>92.33333333333333</ele><time>2026-03-28T09:59:57.649Z</time></trkpt><trkpt lat="45.3558226" lon="10.6989999"><ele>91.66666666666666</ele><time>2026-03-28T09:59:58.645Z</time></trkpt><trkpt lat="45.3558126" lon="10.6987473"><ele>91.0</ele><time>2026-03-28T09:59:59.645Z</time></trkpt><trkpt lat="45.3558112" lon="10.6985124"><ele>90.33333333333333</ele><time>2026-03-28T10:00:00.647Z</time></trkpt><trkpt lat="45.3557454" lon="10.6982476"><ele>89.66666666666667</ele><time>2026-03-28T10:00:01.642Z</time></trkpt><trkpt lat="45.3557168" lon="10.6979799"><ele>89.0</ele><time>2026-03-28T10:00:02.63Z</time></trkpt><trkpt lat="45.355686" lon="10.6977137"><ele>88.66666666666667</ele><time>2026-03-28T10:00:03.637Z</time></trkpt><trkpt lat="45.3556683" lon="10.6974451"><ele>88.33333333333333</ele><time>2026-03-28T10:00:04.637Z</time></trkpt><trkpt lat="45.3556393" lon="10.6971943"><ele>88.0</ele><time>2026-03-28T10:00:05.63Z</time></trkpt><trkpt lat="45.35562" lon="10.6969447"><ele>88.66666666666666</ele><time>2026-03-28T10:00:06.63Z</time></trkpt><trkpt lat="45.35558" lon="10.6967152"><ele>89.33333333333333</ele><time>2026-03-28T10:00:07.633Z</time></trkpt><trkpt lat="45.355536" lon="10.6964807"><ele>90.0</ele><time>2026-03-28T10:00:08.624Z</time></trkpt><trkpt lat="45.3554641" lon="10.6962726"><ele>92.33333333333334</ele><time>2026-03-28T10:00:09.636Z</time></trkpt><trkpt lat="45.3553748" lon="10.6960573"><ele>94.66666666666667</ele><time>2026-03-28T10:00:10.635Z</time></trkpt><trkpt lat="45.3552675" lon="10.6958677"><ele>97.0</ele><time>2026-03-28T10:00:11.636Z</time></trkpt><trkpt lat="45.3552006" lon="10.6956698"><ele>97.0</ele><time>2026-03-28T10:00:12.64Z</time></trkpt><trkpt lat="45.3551283" lon="10.6954495"><ele>97.0</ele><time>2026-03-28T10:00:13.64Z</time></trkpt><trkpt lat="45.355065" lon="10.6952375"><ele>97.0</ele><time>2026-03-28T10:00:14.641Z</time></trkpt><trkpt lat="45.3550191" lon="10.6950187"><ele>97.0</ele><time>2026-03-28T10:00:15.631Z</time></trkpt><trkpt lat="45.354967" lon="10.6947805"><ele>97.0</ele><time>2026-03-28T10:00:16.636Z</time></trkpt><trkpt lat="45.3549044" lon="10.6945254"><ele>97.0</ele><time>2026-03-28T10:00:17.642Z</time></trkpt><trkpt lat="45.354856" lon="10.6942662"><ele>97.0</ele><time>2026-03-28T10:00:18.644Z</time></trkpt><trkpt lat="45.3547942" lon="10.6939922"><ele>97.0</ele><time>2026-03-28T10:00:19.631Z</time></trkpt><trkpt lat="45.3547177" lon="10.6937055"><ele>97.0</ele><time>2026-03-28T10:00:20.638Z</time></trkpt><trkpt lat="45.3546613" lon="10.6934246"><ele>97.0</ele><time>2026-03-28T10:00:21.642Z</time></trkpt><trkpt lat="45.3546043" lon="10.6931386"><ele>97.0</ele><time>2026-03-28T10:00:22.639Z</time></trkpt><trkpt lat="45.3545403" lon="10.692841"><ele>97.0</ele><time>2026-03-28T10:00:23.645Z</time></trkpt><trkpt lat="45.3544694" lon="10.6925565"><ele>97.0</ele><time>2026-03-28T10:00:24.631Z</time></trkpt><trkpt lat="45.3544009" lon="10.6922557"><ele>97.0</ele><time>2026-03-28T10:00:25.636Z</time></trkpt><trkpt lat="45.3543537" lon="10.6919442"><ele>97.0</ele><time>2026-03-28T10:00:26.645Z</time></trkpt><trkpt lat="45.3543035" lon="10.6916344"><ele>97.0</ele><time>2026-03-28T10:00:27.649Z</time></trkpt><trkpt lat="45.3542414" lon="10.691332"><ele>97.0</ele><time>2026-03-28T10:00:28.642Z</time></trkpt><trkpt lat="45.3541949" lon="10.6910249"><ele>97.0</ele><time>2026-03-28T10:00:29.636Z</time></trkpt><trkpt lat="45.3541274" lon="10.6907302"><ele>97.66666666666667</ele><time>2026-03-28T10:00:30.636Z</time></trkpt><trkpt lat="45.3540802" lon="10.6904262"><ele>98.33333333333334</ele><time>2026-03-28T10:00:31.647Z</time></trkpt><trkpt lat="45.3540374" lon="10.690121"><ele>99.0</ele><time>2026-03-28T10:00:32.635Z</time></trkpt><trkpt lat="45.3539881" lon="10.6898236"><ele>99.5</ele><time>2026-03-28T10:00:33.64Z</time></trkpt><trkpt lat="45.3539435" lon="10.689509"><ele>100.0</ele><time>2026-03-28T10:00:34.646Z</time></trkpt><trkpt lat="45.3538973" lon="10.6891721"><ele>98.5</ele><time>2026-03-28T10:00:35.643Z</time></trkpt><trkpt lat="45.353855" lon="10.6888382"><ele>97.0</ele><time>2026-03-28T10:00:36.634Z</time></trkpt><trkpt lat="45.3538002" lon="10.688502"><ele>96.5</ele><time>2026-03-28T10:00:37.637Z</time></trkpt><trkpt lat="45.3537644" lon="10.6881628"><ele>96.0</ele><time>2026-03-28T10:00:38.633Z</time></trkpt><trkpt lat="45.3537394" lon="10.6878293"><ele>96.33333333333334</ele><time>2026-03-28T10:00:39.639Z</time></trkpt><trkpt lat="45.3537342" lon="10.6875201"><ele>96.66666666666667</ele><time>2026-03-28T10:00:40.632Z</time></trkpt><trkpt lat="45.3537287" lon="10.6872132"><ele>97.0</ele><time>2026-03-28T10:00:41.636Z</time></trkpt><trkpt lat="45.3537122" lon="10.6869023"><ele>97.5</ele><time>2026-03-28T10:00:42.632Z</time></trkpt><trkpt lat="45.3537111" lon="10.686576"><ele>98.0</ele><time>2026-03-28T10:00:43.638Z</time></trkpt><trkpt lat="45.3537213" lon="10.6862516"><ele>98.0</ele><time>2026-03-28T10:00:44.64Z</time></trkpt><trkpt lat="45.3537151" lon="10.6859474"><ele>98.0</ele><time>2026-03-28T10:00:45.635Z</time></trkpt><trkpt lat="45.3537029" lon="10.6856241"><ele>98.0</ele><time>2026-03-28T10:00:46.638Z</time></trkpt><trkpt lat="45.3536788" lon="10.685323"><ele>98.0</ele><time>2026-03-28T10:00:47.637Z</time></trkpt><trkpt lat="45.3536747" lon="10.6850085"><ele>98.0</ele><time>2026-03-28T10:00:48.638Z</time></trkpt><trkpt lat="45.3536725" lon="10.6846899"><ele>98.0</ele><time>2026-03-28T10:00:49.643Z</time></trkpt><trkpt lat="45.3536555" lon="10.6844011"><ele>98.0</ele><time>2026-03-28T10:00:50.644Z</time></trkpt><trkpt lat="45.3536519" lon="10.6841172"><ele>98.0</ele><time>2026-03-28T10:00:51.644Z</time></trkpt><trkpt lat="45.3536337" lon="10.6838382"><ele>98.0</ele><time>2026-03-28T10:00:52.654Z</time></trkpt><trkpt lat="45.3536241" lon="10.6835866"><ele>97.75</ele><time>2026-03-28T10:00:53.64Z</time></trkpt><trkpt lat="45.3536265" lon="10.683356"><ele>97.5</ele><time>2026-03-28T10:00:54.634Z</time></trkpt><trkpt lat="45.3536372" lon="10.6831427"><ele>97.25</ele><time>2026-03-28T10:00:55.642Z</time></trkpt><trkpt lat="45.353632" lon="10.6829497"><ele>97.0</ele><time>2026-03-28T10:00:56.64Z</time></trkpt><trkpt lat="45.3536297" lon="10.6827589"><ele>96.8</ele><time>2026-03-28T10:00:57.641Z</time></trkpt><trkpt lat="45.3536176" lon="10.68261"><ele>96.6</ele><time>2026-03-28T10:00:58.648Z</time></trkpt><trkpt lat="45.3536213" lon="10.6824747"><ele>96.39999999999999</ele><time>2026-03-28T10:00:59.64Z</time></trkpt><trkpt lat="45.3536296" lon="10.68237"><ele>96.19999999999999</ele><time>2026-03-28T10:01:00.638Z</time></trkpt><trkpt lat="45.3536451" lon="10.6822236"><ele>96.0</ele><time>2026-03-28T10:01:02.635Z</time></trkpt><trkpt lat="45.3537029" lon="10.6820846"><ele>96.0</ele><time>2026-03-28T10:01:04.647Z</time></trkpt><trkpt lat="45.3537472" lon="10.6820105"><ele>96.0</ele><time>2026-03-28T10:01:05.639Z</time></trkpt><trkpt lat="45.3537745" lon="10.6819209"><ele>96.0</ele><time>2026-03-28T10:01:06.637Z</time></trkpt><trkpt lat="45.3537817" lon="10.6818185"><ele>96.0</ele><time>2026-03-28T10:01:07.637Z</time></trkpt><trkpt lat="45.3537678" lon="10.6817082"><ele>96.0</ele><time>2026-03-28T10:01:08.636Z</time></trkpt><trkpt lat="45.3537217" lon="10.6815885"><ele>96.0</ele><time>2026-03-28T10:01:09.636Z</time></trkpt><trkpt lat="45.3536543" lon="10.6814351"><ele>96.66666666666666</ele><time>2026-03-28T10:01:10.639Z</time></trkpt><trkpt lat="45.3536084" lon="10.6812523"><ele>97.33333333333333</ele><time>2026-03-28T10:01:11.628Z</time></trkpt><trkpt lat="45.3535825" lon="10.6810496"><ele>98.0</ele><time>2026-03-28T10:01:12.625Z</time></trkpt><trkpt lat="45.3535775" lon="10.6807757"><ele>98.0</ele><time>2026-03-28T10:01:13.638Z</time></trkpt><trkpt lat="45.3535795" lon="10.6804901"><ele>98.0</ele><time>2026-03-28T10:01:14.634Z</time></trkpt><trkpt lat="45.3535748" lon="10.6802299"><ele>98.0</ele><time>2026-03-28T10:01:15.64Z</time></trkpt><trkpt lat="45.3535693" lon="10.679959"><ele>98.33333333333333</ele><time>2026-03-28T10:01:16.637Z</time></trkpt><trkpt lat="45.3535726" lon="10.679655"><ele>98.66666666666666</ele><time>2026-03-28T10:01:17.639Z</time></trkpt><trkpt lat="45.3535679" lon="10.6793408"><ele>99.0</ele><time>2026-03-28T10:01:18.64Z</time></trkpt><trkpt lat="45.3535891" lon="10.6790202"><ele>99.0</ele><time>2026-03-28T10:01:19.639Z</time></trkpt><trkpt lat="45.3536113" lon="10.6787167"><ele>99.0</ele><time>2026-03-28T10:01:20.639Z</time></trkpt><trkpt lat="45.3536492" lon="10.6783901"><ele>99.0</ele><time>2026-03-28T10:01:21.64Z</time></trkpt><trkpt lat="45.3536842" lon="10.6780599"><ele>97.5</ele><time>2026-03-28T10:01:22.639Z</time></trkpt><trkpt lat="45.353738" lon="10.6777217"><ele>96.0</ele><time>2026-03-28T10:01:23.636Z</time></trkpt><trkpt lat="45.3538162" lon="10.6773893"><ele>96.0</ele><time>2026-03-28T10:01:24.648Z</time></trkpt><trkpt lat="45.3538715" lon="10.6770475"><ele>96.0</ele><time>2026-03-28T10:01:25.642Z</time></trkpt><trkpt lat="45.3539261" lon="10.6767077"><ele>95.0</ele><time>2026-03-28T10:01:26.643Z</time></trkpt><trkpt lat="45.3539868" lon="10.6763511"><ele>94.0</ele><time>2026-03-28T10:01:27.643Z</time></trkpt><trkpt lat="45.3540436" lon="10.6759994"><ele>96.0</ele><time>2026-03-28T10:01:28.655Z</time></trkpt><trkpt lat="45.3541023" lon="10.6756542"><ele>98.0</ele><time>2026-03-28T10:01:29.643Z</time></trkpt><trkpt lat="45.3541678" lon="10.675305"><ele>97.5</ele><time>2026-03-28T10:01:30.646Z</time></trkpt><trkpt lat="45.3542304" lon="10.6749584"><ele>97.0</ele><time>2026-03-28T10:01:31.642Z</time></trkpt><trkpt lat="45.3542903" lon="10.6746139"><ele>96.5</ele><time>2026-03-28T10:01:32.633Z</time></trkpt><trkpt lat="45.3543611" lon="10.674276"><ele>96.0</ele><time>2026-03-28T10:01:33.633Z</time></trkpt><trkpt lat="45.354421" lon="10.6739416"><ele>96.0</ele><time>2026-03-28T10:01:34.629Z</time></trkpt><trkpt lat="45.3544904" lon="10.6736054"><ele>96.0</ele><time>2026-03-28T10:01:35.625Z</time></trkpt><trkpt lat="45.3545639" lon="10.6732801"><ele>97.0</ele><time>2026-03-28T10:01:36.629Z</time></trkpt><trkpt lat="45.35462" lon="10.6729658"><ele>98.0</ele><time>2026-03-28T10:01:37.63Z</time></trkpt><trkpt lat="45.3546745" lon="10.6726354"><ele>100.0</ele><time>2026-03-28T10:01:38.629Z</time></trkpt><trkpt lat="45.35472" lon="10.6722953"><ele>102.0</ele><time>2026-03-28T10:01:39.632Z</time></trkpt><trkpt lat="45.354748" lon="10.6719453"><ele>103.5</ele><time>2026-03-28T10:01:40.63Z</time></trkpt><trkpt lat="45.3547867" lon="10.6715961"><ele>105.0</ele><time>2026-03-28T10:01:41.633Z</time></trkpt><trkpt lat="45.3547986" lon="10.6712601"><ele>108.0</ele><time>2026-03-28T10:01:42.639Z</time></trkpt><trkpt lat="45.3548147" lon="10.6709297"><ele>111.0</ele><time>2026-03-28T10:01:43.632Z</time></trkpt><trkpt lat="45.3548328" lon="10.6706033"><ele>110.0</ele><time>2026-03-28T10:01:44.639Z</time></trkpt><trkpt lat="45.3548393" lon="10.6702596"><ele>109.0</ele><time>2026-03-28T10:01:45.637Z</time></trkpt><trkpt lat="45.3548523" lon="10.6699368"><ele>109.0</ele><time>2026-03-28T10:01:46.639Z</time></trkpt><trkpt lat="45.354869" lon="10.6695989"><ele>109.0</ele><time>2026-03-28T10:01:47.632Z</time></trkpt><trkpt lat="45.3548967" lon="10.6692845"><ele>108.66666666666667</ele><time>2026-03-28T10:01:48.642Z</time></trkpt><trkpt lat="45.3549255" lon="10.6689661"><ele>108.33333333333334</ele><time>2026-03-28T10:01:49.636Z</time></trkpt><trkpt lat="45.3549555" lon="10.6686724"><ele>108.0</ele><time>2026-03-28T10:01:50.637Z</time></trkpt><trkpt lat="45.3550177" lon="10.6683634"><ele>108.0</ele><time>2026-03-28T10:01:51.637Z</time></trkpt><trkpt lat="45.355081" lon="10.6680789"><ele>108.0</ele><time>2026-03-28T10:01:52.637Z</time></trkpt><trkpt lat="45.3551467" lon="10.6677667"><ele>108.0</ele><time>2026-03-28T10:01:53.635Z</time></trkpt><trkpt lat="45.3552133" lon="10.6674721"><ele>108.33333333333334</ele><time>2026-03-28T10:01:54.64Z</time></trkpt><trkpt lat="45.3552886" lon="10.6671856"><ele>108.66666666666667</ele><time>2026-03-28T10:01:55.628Z</time></trkpt><trkpt lat="45.3553699" lon="10.6668857"><ele>109.0</ele><time>2026-03-28T10:01:56.641Z</time></trkpt><trkpt lat="45.3554608" lon="10.6665721"><ele>110.5</ele><time>2026-03-28T10:01:57.639Z</time></trkpt><trkpt lat="45.3555408" lon="10.6662312"><ele>112.0</ele><time>2026-03-28T10:01:58.636Z</time></trkpt><trkpt lat="45.35561" lon="10.6659204"><ele>112.0</ele><time>2026-03-28T10:01:59.637Z</time></trkpt><trkpt lat="45.3556677" lon="10.6655885"><ele>112.0</ele><time>2026-03-28T10:02:00.636Z</time></trkpt><trkpt lat="45.3557307" lon="10.6652594"><ele>111.0</ele><time>2026-03-28T10:02:01.645Z</time></trkpt><trkpt lat="45.3557856" lon="10.6649279"><ele>110.0</ele><time>2026-03-28T10:02:02.637Z</time></trkpt><trkpt lat="45.3558248" lon="10.6645907"><ele>110.0</ele><time>2026-03-28T10:02:03.635Z</time></trkpt><trkpt lat="45.3558681" lon="10.6642511"><ele>110.0</ele><time>2026-03-28T10:02:04.65Z</time></trkpt><trkpt lat="45.3559024" lon="10.6639082"><ele>110.0</ele><time>2026-03-28T10:02:05.641Z</time></trkpt><trkpt lat="45.3559468" lon="10.6635545"><ele>110.0</ele><time>2026-03-28T10:02:06.636Z</time></trkpt><trkpt lat="45.3559933" lon="10.6631992"><ele>110.0</ele><time>2026-03-28T10:02:07.637Z</time></trkpt><trkpt lat="45.3560479" lon="10.6628524"><ele>110.0</ele><time>2026-03-28T10:02:08.632Z</time></trkpt><trkpt lat="45.3560857" lon="10.6625082"><ele>109.5</ele><time>2026-03-28T10:02:09.642Z</time></trkpt><trkpt lat="45.3561428" lon="10.6621828"><ele>109.0</ele><time>2026-03-28T10:02:10.641Z</time></trkpt><trkpt lat="45.3561833" lon="10.6618537"><ele>109.0</ele><time>2026-03-28T10:02:11.64Z</time></trkpt><trkpt lat="45.3562263" lon="10.661531"><ele>109.0</ele><time>2026-03-28T10:02:12.639Z</time></trkpt><trkpt lat="45.3562705" lon="10.6612084"><ele>108.5</ele><time>2026-03-28T10:02:13.64Z</time></trkpt><trkpt lat="45.3563111" lon="10.6608908"><ele>108.0</ele><time>2026-03-28T10:02:14.639Z</time></trkpt><trkpt lat="45.3563527" lon="10.660569"><ele>109.66666666666666</ele><time>2026-03-28T10:02:15.637Z</time></trkpt><trkpt lat="45.3564037" lon="10.6602665"><ele>111.33333333333333</ele><time>2026-03-28T10:02:16.636Z</time></trkpt><trkpt lat="45.3564526" lon="10.6599508"><ele>113.0</ele><time>2026-03-28T10:02:17.637Z</time></trkpt><trkpt lat="45.3564981" lon="10.6596179"><ele>113.0</ele><time>2026-03-28T10:02:18.643Z</time></trkpt><trkpt lat="45.3565292" lon="10.6592814"><ele>113.0</ele><time>2026-03-28T10:02:19.633Z</time></trkpt><trkpt lat="45.3565666" lon="10.6589438"><ele>111.5</ele><time>2026-03-28T10:02:20.638Z</time></trkpt><trkpt lat="45.3566098" lon="10.658613"><ele>110.0</ele><time>2026-03-28T10:02:21.641Z</time></trkpt><trkpt lat="45.3566515" lon="10.6582673"><ele>110.0</ele><time>2026-03-28T10:02:22.64Z</time></trkpt><trkpt lat="45.3567116" lon="10.6579263"><ele>110.0</ele><time>2026-03-28T10:02:23.636Z</time></trkpt><trkpt lat="45.3567763" lon="10.6575915"><ele>110.5</ele><time>2026-03-28T10:02:24.641Z</time></trkpt><trkpt lat="45.3568269" lon="10.6572476"><ele>111.0</ele><time>2026-03-28T10:02:25.638Z</time></trkpt><trkpt lat="45.356877" lon="10.6569047"><ele>111.0</ele><time>2026-03-28T10:02:26.636Z</time></trkpt><trkpt lat="45.3569174" lon="10.6565678"><ele>111.0</ele><time>2026-03-28T10:02:27.634Z</time></trkpt><trkpt lat="45.3569504" lon="10.6562583"><ele>111.66666666666666</ele><time>2026-03-28T10:02:28.635Z</time></trkpt><trkpt lat="45.3569763" lon="10.6559691"><ele>112.33333333333333</ele><time>2026-03-28T10:02:29.639Z</time></trkpt><trkpt lat="45.3570032" lon="10.6556733"><ele>113.0</ele><time>2026-03-28T10:02:30.634Z</time></trkpt><trkpt lat="45.3570193" lon="10.655358"><ele>112.0</ele><time>2026-03-28T10:02:31.634Z</time></trkpt><trkpt lat="45.3570175" lon="10.6550437"><ele>111.0</ele><time>2026-03-28T10:02:32.629Z</time></trkpt><trkpt lat="45.3570023" lon="10.6547316"><ele>110.0</ele><time>2026-03-28T10:02:33.632Z</time></trkpt><trkpt lat="45.356987" lon="10.6544196"><ele>108.33333333333333</ele><time>2026-03-28T10:02:34.631Z</time></trkpt><trkpt lat="45.3569749" lon="10.654112"><ele>106.66666666666666</ele><time>2026-03-28T10:02:35.629Z</time></trkpt><trkpt lat="45.3569618" lon="10.6538067"><ele>105.0</ele><time>2026-03-28T10:02:36.629Z</time></trkpt><trkpt lat="45.3569506" lon="10.6535125"><ele>105.0</ele><time>2026-03-28T10:02:37.636Z</time></trkpt><trkpt lat="45.3569449" lon="10.6532115"><ele>105.0</ele><time>2026-03-28T10:02:38.622Z</time></trkpt><trkpt lat="45.3569368" lon="10.6529127"><ele>105.0</ele><time>2026-03-28T10:02:39.631Z</time></trkpt><trkpt lat="45.3569296" lon="10.6526101"><ele>105.0</ele><time>2026-03-28T10:02:40.628Z</time></trkpt><trkpt lat="45.3569112" lon="10.6523047"><ele>105.0</ele><time>2026-03-28T10:02:41.627Z</time></trkpt><trkpt lat="45.356892" lon="10.6519971"><ele>105.0</ele><time>2026-03-28T10:02:42.627Z</time></trkpt><trkpt lat="45.3568847" lon="10.6516904"><ele>105.0</ele><time>2026-03-28T10:02:43.629Z</time></trkpt><trkpt lat="45.3568858" lon="10.651409"><ele>105.0</ele><time>2026-03-28T10:02:44.626Z</time></trkpt><trkpt lat="45.3568945" lon="10.6511234"><ele>105.0</ele><time>2026-03-28T10:02:45.623Z</time></trkpt><trkpt lat="45.3568984" lon="10.6508222"><ele>107.0</ele><time>2026-03-28T10:02:46.633Z</time></trkpt><trkpt lat="45.3569086" lon="10.6505273"><ele>109.0</ele><time>2026-03-28T10:02:47.624Z</time></trkpt><trkpt lat="45.3569311" lon="10.650252"><ele>111.0</ele><time>2026-03-28T10:02:48.619Z</time></trkpt><trkpt lat="45.3569733" lon="10.6500063"><ele>111.66666666666666</ele><time>2026-03-28T10:02:49.635Z</time></trkpt><trkpt lat="45.3570117" lon="10.6497632"><ele>112.33333333333333</ele><time>2026-03-28T10:02:50.634Z</time></trkpt><trkpt lat="45.3570464" lon="10.6495196"><ele>113.0</ele><time>2026-03-28T10:02:51.635Z</time></trkpt><trkpt lat="45.3570812" lon="10.6492657"><ele>113.0</ele><time>2026-03-28T10:02:52.629Z</time></trkpt><trkpt lat="45.3571206" lon="10.6490039"><ele>113.0</ele><time>2026-03-28T10:02:53.63Z</time></trkpt><trkpt lat="45.3571598" lon="10.6487396"><ele>113.0</ele><time>2026-03-28T10:02:54.631Z</time></trkpt><trkpt lat="45.3572021" lon="10.6484627"><ele>113.33333333333333</ele><time>2026-03-28T10:02:55.632Z</time></trkpt><trkpt lat="45.35724" lon="10.6481978"><ele>113.66666666666666</ele><time>2026-03-28T10:02:56.632Z</time></trkpt><trkpt lat="45.3572788" lon="10.6479368"><ele>114.0</ele><time>2026-03-28T10:02:57.63Z</time></trkpt><trkpt lat="45.3573186" lon="10.647675"><ele>114.0</ele><time>2026-03-28T10:02:58.639Z</time></trkpt><trkpt lat="45.3573474" lon="10.6474373"><ele>114.0</ele><time>2026-03-28T10:02:59.63Z</time></trkpt><trkpt lat="45.3573712" lon="10.647208"><ele>114.0</ele><time>2026-03-28T10:03:00.638Z</time></trkpt><trkpt lat="45.35739" lon="10.6469991"><ele>114.0</ele><time>2026-03-28T10:03:01.636Z</time></trkpt><trkpt lat="45.3574121" lon="10.6468001"><ele>114.0</ele><time>2026-03-28T10:03:02.626Z</time></trkpt><trkpt lat="45.3574308" lon="10.6466022"><ele>114.0</ele><time>2026-03-28T10:03:03.633Z</time></trkpt><trkpt lat="45.3574515" lon="10.6464076"><ele>114.0</ele><time>2026-03-28T10:03:04.627Z</time></trkpt><trkpt lat="45.3574835" lon="10.6462142"><ele>114.25</ele><time>2026-03-28T10:03:05.623Z</time></trkpt><trkpt lat="45.3575178" lon="10.6460144"><ele>114.5</ele><time>2026-03-28T10:03:06.637Z</time></trkpt><trkpt lat="45.357546" lon="10.6458122"><ele>114.75</ele><time>2026-03-28T10:03:07.64Z</time></trkpt><trkpt lat="45.3575726" lon="10.6455963"><ele>115.0</ele><time>2026-03-28T10:03:08.634Z</time></trkpt><trkpt lat="45.3575913" lon="10.6453698"><ele>115.66666666666667</ele><time>2026-03-28T10:03:09.63Z</time></trkpt><trkpt lat="45.357607" lon="10.6451521"><ele>116.33333333333334</ele><time>2026-03-28T10:03:10.632Z</time></trkpt><trkpt lat="45.3576201" lon="10.6449377"><ele>117.0</ele><time>2026-03-28T10:03:11.63Z</time></trkpt><trkpt lat="45.357652" lon="10.6447334"><ele>117.0</ele><time>2026-03-28T10:03:12.63Z</time></trkpt><trkpt lat="45.3576827" lon="10.644511"><ele>117.0</ele><time>2026-03-28T10:03:13.637Z</time></trkpt><trkpt lat="45.3577197" lon="10.6442884"><ele>117.0</ele><time>2026-03-28T10:03:14.628Z</time></trkpt><trkpt lat="45.3577477" lon="10.6440434"><ele>118.0</ele><time>2026-03-28T10:03:15.636Z</time></trkpt><trkpt lat="45.3577712" lon="10.6437973"><ele>119.0</ele><time>2026-03-28T10:03:16.634Z</time></trkpt><trkpt lat="45.3578053" lon="10.6435558"><ele>120.0</ele><time>2026-03-28T10:03:17.633Z</time></trkpt><trkpt lat="45.3578358" lon="10.6432979"><ele>120.33333333333334</ele><time>2026-03-28T10:03:18.635Z</time></trkpt><trkpt lat="45.3578542" lon="10.6430296"><ele>120.66666666666667</ele><time>2026-03-28T10:03:19.635Z</time></trkpt><trkpt lat="45.3578839" lon="10.6427681"><ele>121.0</ele><time>2026-03-28T10:03:20.617Z</time></trkpt><trkpt lat="45.3579151" lon="10.6424896"><ele>121.66666666666667</ele><time>2026-03-28T10:03:21.629Z</time></trkpt><trkpt lat="45.357942" lon="10.6421988"><ele>122.33333333333334</ele><time>2026-03-28T10:03:22.628Z</time></trkpt><trkpt lat="45.3579673" lon="10.6419025"><ele>123.0</ele><time>2026-03-28T10:03:23.632Z</time></trkpt><trkpt lat="45.3579993" lon="10.6415924"><ele>123.33333333333334</ele><time>2026-03-28T10:03:24.63Z</time></trkpt><trkpt lat="45.3580321" lon="10.6413055"><ele>123.66666666666667</ele><time>2026-03-28T10:03:25.631Z</time></trkpt><trkpt lat="45.3580446" lon="10.640983"><ele>124.0</ele><time>2026-03-28T10:03:26.628Z</time></trkpt><trkpt lat="45.3580823" lon="10.6406991"><ele>125.66666666666667</ele><time>2026-03-28T10:03:27.634Z</time></trkpt><trkpt lat="45.3581255" lon="10.6404051"><ele>127.33333333333334</ele><time>2026-03-28T10:03:28.629Z</time></trkpt><trkpt lat="45.3581615" lon="10.64012"><ele>129.0</ele><time>2026-03-28T10:03:29.633Z</time></trkpt><trkpt lat="45.3581992" lon="10.639843"><ele>129.0</ele><time>2026-03-28T10:03:30.638Z</time></trkpt><trkpt lat="45.3582274" lon="10.639566"><ele>129.0</ele><time>2026-03-28T10:03:31.643Z</time></trkpt><trkpt lat="45.3582356" lon="10.6392869"><ele>129.0</ele><time>2026-03-28T10:03:32.639Z</time></trkpt><trkpt lat="45.3582445" lon="10.6390039"><ele>128.66666666666666</ele><time>2026-03-28T10:03:33.635Z</time></trkpt><trkpt lat="45.3582779" lon="10.638718"><ele>128.33333333333331</ele><time>2026-03-28T10:03:34.645Z</time></trkpt><trkpt lat="45.3582834" lon="10.6384265"><ele>128.0</ele><time>2026-03-28T10:03:35.637Z</time></trkpt><trkpt lat="45.3583042" lon="10.6381254"><ele>128.0</ele><time>2026-03-28T10:03:36.637Z</time></trkpt><trkpt lat="45.3583445" lon="10.6378289"><ele>128.0</ele><time>2026-03-28T10:03:37.632Z</time></trkpt><trkpt lat="45.3583597" lon="10.6375422"><ele>128.0</ele><time>2026-03-28T10:03:38.643Z</time></trkpt><trkpt lat="45.3583808" lon="10.6372561"><ele>129.33333333333331</ele><time>2026-03-28T10:03:39.639Z</time></trkpt><trkpt lat="45.3584045" lon="10.6369638"><ele>130.66666666666666</ele><time>2026-03-28T10:03:40.638Z</time></trkpt><trkpt lat="45.35843" lon="10.6366765"><ele>132.0</ele><time>2026-03-28T10:03:41.635Z</time></trkpt><trkpt lat="45.3584496" lon="10.6363979"><ele>132.0</ele><time>2026-03-28T10:03:42.638Z</time></trkpt><trkpt lat="45.3584786" lon="10.6361106"><ele>132.0</ele><time>2026-03-28T10:03:43.643Z</time></trkpt><trkpt lat="45.35851" lon="10.6358221"><ele>132.0</ele><time>2026-03-28T10:03:44.642Z</time></trkpt><trkpt lat="45.3585122" lon="10.6355195"><ele>131.33333333333334</ele><time>2026-03-28T10:03:45.632Z</time></trkpt><trkpt lat="45.3585464" lon="10.6352454"><ele>130.66666666666669</ele><time>2026-03-28T10:03:46.638Z</time></trkpt><trkpt lat="45.3585751" lon="10.6349329"><ele>130.0</ele><time>2026-03-28T10:03:47.644Z</time></trkpt><trkpt lat="45.358604" lon="10.6346284"><ele>129.66666666666669</ele><time>2026-03-28T10:03:48.637Z</time></trkpt><trkpt lat="45.3586356" lon="10.6343284"><ele>129.33333333333334</ele><time>2026-03-28T10:03:49.635Z</time></trkpt><trkpt lat="45.3586583" lon="10.634025"><ele>129.0</ele><time>2026-03-28T10:03:50.636Z</time></trkpt><trkpt lat="45.3586959" lon="10.6337223"><ele>130.33333333333334</ele><time>2026-03-28T10:03:51.64Z</time></trkpt><trkpt lat="45.3587231" lon="10.6334222"><ele>131.66666666666669</ele><time>2026-03-28T10:03:52.636Z</time></trkpt><trkpt lat="45.3587512" lon="10.6331192"><ele>133.0</ele><time>2026-03-28T10:03:53.641Z</time></trkpt><trkpt lat="45.358779" lon="10.632808"><ele>133.33333333333334</ele><time>2026-03-28T10:03:54.64Z</time></trkpt><trkpt lat="45.358813" lon="10.6324948"><ele>133.66666666666666</ele><time>2026-03-28T10:03:55.647Z</time></trkpt><trkpt lat="45.3588419" lon="10.6321779"><ele>134.0</ele><time>2026-03-28T10:03:56.638Z</time></trkpt><trkpt lat="45.358881" lon="10.6318571"><ele>134.33333333333331</ele><time>2026-03-28T10:03:57.639Z</time></trkpt><trkpt lat="45.3589006" lon="10.6315451"><ele>134.66666666666666</ele><time>2026-03-28T10:03:58.645Z</time></trkpt><trkpt lat="45.3589218" lon="10.6312354"><ele>135.0</ele><time>2026-03-28T10:03:59.634Z</time></trkpt><trkpt lat="45.3589637" lon="10.6309172"><ele>135.0</ele><time>2026-03-28T10:04:00.638Z</time></trkpt><trkpt lat="45.3590008" lon="10.6305949"><ele>135.0</ele><time>2026-03-28T10:04:01.644Z</time></trkpt><trkpt lat="45.3590428" lon="10.6302691"><ele>136.33333333333334</ele><time>2026-03-28T10:04:02.636Z</time></trkpt><trkpt lat="45.3590568" lon="10.6299603"><ele>137.66666666666669</ele><time>2026-03-28T10:04:03.637Z</time></trkpt><trkpt lat="45.3591039" lon="10.6296512"><ele>139.0</ele><time>2026-03-28T10:04:04.636Z</time></trkpt><trkpt lat="45.3591471" lon="10.6293463"><ele>139.33333333333334</ele><time>2026-03-28T10:04:05.639Z</time></trkpt><trkpt lat="45.3591793" lon="10.6290375"><ele>139.66666666666666</ele><time>2026-03-28T10:04:06.629Z</time></trkpt><trkpt lat="45.3592058" lon="10.6287231"><ele>140.0</ele><time>2026-03-28T10:04:07.634Z</time></trkpt><trkpt lat="45.3592433" lon="10.6284076"><ele>141.0</ele><time>2026-03-28T10:04:08.629Z</time></trkpt><trkpt lat="45.3592748" lon="10.6280831"><ele>142.0</ele><time>2026-03-28T10:04:09.642Z</time></trkpt><trkpt lat="45.3592848" lon="10.6277623"><ele>143.0</ele><time>2026-03-28T10:04:10.63Z</time></trkpt><trkpt lat="45.3593002" lon="10.627433"><ele>144.0</ele><time>2026-03-28T10:04:11.633Z</time></trkpt><trkpt lat="45.3593235" lon="10.6270974"><ele>144.0</ele><time>2026-03-28T10:04:12.631Z</time></trkpt><trkpt lat="45.3593355" lon="10.6267631"><ele>144.0</ele><time>2026-03-28T10:04:13.64Z</time></trkpt><trkpt lat="45.3593361" lon="10.6264335"><ele>146.0</ele><time>2026-03-28T10:04:14.635Z</time></trkpt><trkpt lat="45.3593651" lon="10.6261012"><ele>148.0</ele><time>2026-03-28T10:04:15.635Z</time></trkpt><trkpt lat="45.3593919" lon="10.625779"><ele>148.0</ele><time>2026-03-28T10:04:16.634Z</time></trkpt><trkpt lat="45.359416" lon="10.625463"><ele>148.0</ele><time>2026-03-28T10:04:17.639Z</time></trkpt><trkpt lat="45.3594251" lon="10.6251326"><ele>150.0</ele><time>2026-03-28T10:04:18.631Z</time></trkpt><trkpt lat="45.3594376" lon="10.6248073"><ele>152.0</ele><time>2026-03-28T10:04:19.633Z</time></trkpt><trkpt lat="45.3594462" lon="10.6244869"><ele>152.5</ele><time>2026-03-28T10:04:20.636Z</time></trkpt><trkpt lat="45.3594747" lon="10.6241585"><ele>153.0</ele><time>2026-03-28T10:04:21.635Z</time></trkpt><trkpt lat="45.3594846" lon="10.6238117"><ele>152.0</ele><time>2026-03-28T10:04:22.636Z</time></trkpt><trkpt lat="45.3594876" lon="10.6234699"><ele>151.0</ele><time>2026-03-28T10:04:23.64Z</time></trkpt><trkpt lat="45.3594982" lon="10.623131"><ele>147.0</ele><time>2026-03-28T10:04:24.636Z</time></trkpt><trkpt lat="45.3595164" lon="10.622791"><ele>143.0</ele><time>2026-03-28T10:04:25.64Z</time></trkpt><trkpt lat="45.3595361" lon="10.6224507"><ele>143.0</ele><time>2026-03-28T10:04:26.64Z</time></trkpt><trkpt lat="45.3595638" lon="10.6221028"><ele>143.0</ele><time>2026-03-28T10:04:27.638Z</time></trkpt><trkpt lat="45.3595914" lon="10.6217452"><ele>141.5</ele><time>2026-03-28T10:04:28.64Z</time></trkpt><trkpt lat="45.3596179" lon="10.6213967"><ele>140.0</ele><time>2026-03-28T10:04:29.64Z</time></trkpt><trkpt lat="45.3596527" lon="10.6210642"><ele>140.0</ele><time>2026-03-28T10:04:30.639Z</time></trkpt><trkpt lat="45.3596823" lon="10.6207248"><ele>140.0</ele><time>2026-03-28T10:04:31.637Z</time></trkpt><trkpt lat="45.3597044" lon="10.6203836"><ele>143.0</ele><time>2026-03-28T10:04:32.631Z</time></trkpt><trkpt lat="45.3597281" lon="10.6200377"><ele>146.0</ele><time>2026-03-28T10:04:33.636Z</time></trkpt><trkpt lat="45.3597554" lon="10.6196935"><ele>144.5</ele><time>2026-03-28T10:04:34.632Z</time></trkpt><trkpt lat="45.3597861" lon="10.6193317"><ele>143.0</ele><time>2026-03-28T10:04:35.633Z</time></trkpt><trkpt lat="45.3598307" lon="10.6189742"><ele>141.5</ele><time>2026-03-28T10:04:36.635Z</time></trkpt><trkpt lat="45.3598877" lon="10.6186225"><ele>140.0</ele><time>2026-03-28T10:04:37.635Z</time></trkpt><trkpt lat="45.3599578" lon="10.6182842"><ele>140.0</ele><time>2026-03-28T10:04:38.632Z</time></trkpt><trkpt lat="45.3600293" lon="10.6179381"><ele>140.0</ele><time>2026-03-28T10:04:39.631Z</time></trkpt><trkpt lat="45.3600964" lon="10.6175995"><ele>140.0</ele><time>2026-03-28T10:04:40.64Z</time></trkpt><trkpt lat="45.360151" lon="10.617275"><ele>140.0</ele><time>2026-03-28T10:04:41.632Z</time></trkpt><trkpt lat="45.360206" lon="10.6169571"><ele>139.33333333333331</ele><time>2026-03-28T10:04:42.637Z</time></trkpt><trkpt lat="45.3602653" lon="10.6166593"><ele>138.66666666666666</ele><time>2026-03-28T10:04:43.624Z</time></trkpt><trkpt lat="45.3603209" lon="10.6163672"><ele>138.0</ele><time>2026-03-28T10:04:44.626Z</time></trkpt><trkpt lat="45.3603692" lon="10.6160845"><ele>138.0</ele><time>2026-03-28T10:04:45.626Z</time></trkpt><trkpt lat="45.3604268" lon="10.6157975"><ele>138.0</ele><time>2026-03-28T10:04:46.635Z</time></trkpt><trkpt lat="45.3605047" lon="10.6155228"><ele>138.0</ele><time>2026-03-28T10:04:47.619Z</time></trkpt><trkpt lat="45.3605902" lon="10.6152418"><ele>138.0</ele><time>2026-03-28T10:04:48.625Z</time></trkpt><trkpt lat="45.3607012" lon="10.6149681"><ele>138.0</ele><time>2026-03-28T10:04:49.63Z</time></trkpt><trkpt lat="45.3608156" lon="10.6146909"><ele>138.0</ele><time>2026-03-28T10:04:50.624Z</time></trkpt><trkpt lat="45.3609384" lon="10.6144185"><ele>137.0</ele><time>2026-03-28T10:04:51.626Z</time></trkpt><trkpt lat="45.3610668" lon="10.6141651"><ele>136.0</ele><time>2026-03-28T10:04:52.626Z</time></trkpt><trkpt lat="45.3611858" lon="10.6139099"><ele>135.0</ele><time>2026-03-28T10:04:53.624Z</time></trkpt><trkpt lat="45.3612849" lon="10.6136592"><ele>135.33333333333334</ele><time>2026-03-28T10:04:54.622Z</time></trkpt><trkpt lat="45.3613877" lon="10.6134108"><ele>135.66666666666669</ele><time>2026-03-28T10:04:55.629Z</time></trkpt><trkpt lat="45.3614805" lon="10.613159"><ele>136.0</ele><time>2026-03-28T10:04:56.626Z</time></trkpt><trkpt lat="45.3615482" lon="10.6128932"><ele>135.33333333333334</ele><time>2026-03-28T10:04:57.627Z</time></trkpt><trkpt lat="45.3616017" lon="10.6126215"><ele>134.66666666666666</ele><time>2026-03-28T10:04:58.623Z</time></trkpt><trkpt lat="45.3616472" lon="10.6123377"><ele>134.0</ele><time>2026-03-28T10:04:59.617Z</time></trkpt><trkpt lat="45.3616788" lon="10.6120487"><ele>133.66666666666666</ele><time>2026-03-28T10:05:00.63Z</time></trkpt><trkpt lat="45.3617021" lon="10.6117541"><ele>133.33333333333334</ele><time>2026-03-28T10:05:01.623Z</time></trkpt><trkpt lat="45.3617298" lon="10.6114692"><ele>133.0</ele><time>2026-03-28T10:05:02.62Z</time></trkpt><trkpt lat="45.3617503" lon="10.6111919"><ele>133.0</ele><time>2026-03-28T10:05:03.621Z</time></trkpt><trkpt lat="45.3617656" lon="10.610926"><ele>133.0</ele><time>2026-03-28T10:05:04.626Z</time></trkpt><trkpt lat="45.3617769" lon="10.610675"><ele>133.0</ele><time>2026-03-28T10:05:05.629Z</time></trkpt><trkpt lat="45.3617876" lon="10.6104399"><ele>132.33333333333334</ele><time>2026-03-28T10:05:06.624Z</time></trkpt><trkpt lat="45.3617916" lon="10.6102061"><ele>131.66666666666666</ele><time>2026-03-28T10:05:07.626Z</time></trkpt><trkpt lat="45.3617765" lon="10.6099756"><ele>131.0</ele><time>2026-03-28T10:05:08.624Z</time></trkpt><trkpt lat="45.3617609" lon="10.6097315"><ele>131.0</ele><time>2026-03-28T10:05:09.626Z</time></trkpt><trkpt lat="45.3617376" lon="10.6094958"><ele>131.0</ele><time>2026-03-28T10:05:10.632Z</time></trkpt><trkpt lat="45.3617174" lon="10.6092569"><ele>131.0</ele><time>2026-03-28T10:05:11.626Z</time></trkpt><trkpt lat="45.3616795" lon="10.6090134"><ele>132.0</ele><time>2026-03-28T10:05:12.63Z</time></trkpt><trkpt lat="45.3616453" lon="10.608757"><ele>133.0</ele><time>2026-03-28T10:05:13.622Z</time></trkpt><trkpt lat="45.361617" lon="10.6084929"><ele>134.0</ele><time>2026-03-28T10:05:14.626Z</time></trkpt><trkpt lat="45.3615855" lon="10.6082231"><ele>136.33333333333331</ele><time>2026-03-28T10:05:15.629Z</time></trkpt><trkpt lat="45.3615531" lon="10.6079429"><ele>138.66666666666666</ele><time>2026-03-28T10:05:16.62Z</time></trkpt><trkpt lat="45.3615242" lon="10.6076539"><ele>141.0</ele><time>2026-03-28T10:05:17.625Z</time></trkpt><trkpt lat="45.361502" lon="10.6073614"><ele>143.0</ele><time>2026-03-28T10:05:18.624Z</time></trkpt><trkpt lat="45.3614997" lon="10.6070813"><ele>145.0</ele><time>2026-03-28T10:05:19.626Z</time></trkpt><trkpt lat="45.3615199" lon="10.6068178"><ele>147.0</ele><time>2026-03-28T10:05:20.621Z</time></trkpt><trkpt lat="45.3615513" lon="10.6065459"><ele>146.66666666666666</ele><time>2026-03-28T10:05:21.622Z</time></trkpt><trkpt lat="45.3616002" lon="10.6062686"><ele>146.33333333333331</ele><time>2026-03-28T10:05:22.619Z</time></trkpt><trkpt lat="45.3616618" lon="10.6059879"><ele>146.0</ele><time>2026-03-28T10:05:23.624Z</time></trkpt><trkpt lat="45.3617329" lon="10.6057018"><ele>146.0</ele><time>2026-03-28T10:05:24.62Z</time></trkpt><trkpt lat="45.3618124" lon="10.6054178"><ele>146.0</ele><time>2026-03-28T10:05:25.616Z</time></trkpt><trkpt lat="45.3618977" lon="10.6051553"><ele>146.0</ele><time>2026-03-28T10:05:26.614Z</time></trkpt><trkpt lat="45.3620029" lon="10.6049071"><ele>145.66666666666666</ele><time>2026-03-28T10:05:27.619Z</time></trkpt><trkpt lat="45.3621216" lon="10.6046822"><ele>145.33333333333334</ele><time>2026-03-28T10:05:28.621Z</time></trkpt><trkpt lat="45.3622777" lon="10.6044863"><ele>145.0</ele><time>2026-03-28T10:05:29.616Z</time></trkpt><trkpt lat="45.3624134" lon="10.6042688"><ele>146.5</ele><time>2026-03-28T10:05:30.628Z</time></trkpt><trkpt lat="45.3625536" lon="10.6040302"><ele>148.0</ele><time>2026-03-28T10:05:31.633Z</time></trkpt><trkpt lat="45.3626965" lon="10.6037605"><ele>145.0</ele><time>2026-03-28T10:05:32.621Z</time></trkpt><trkpt lat="45.3628146" lon="10.603471"><ele>142.0</ele><time>2026-03-28T10:05:33.622Z</time></trkpt><trkpt lat="45.3629101" lon="10.60318"><ele>142.0</ele><time>2026-03-28T10:05:34.631Z</time></trkpt><trkpt lat="45.3630153" lon="10.6028679"><ele>142.0</ele><time>2026-03-28T10:05:35.63Z</time></trkpt><trkpt lat="45.3631104" lon="10.6025613"><ele>143.66666666666669</ele><time>2026-03-28T10:05:36.627Z</time></trkpt><trkpt lat="45.3632086" lon="10.60227"><ele>145.33333333333334</ele><time>2026-03-28T10:05:37.632Z</time></trkpt><trkpt lat="45.3632931" lon="10.601999"><ele>147.0</ele><time>2026-03-28T10:05:38.631Z</time></trkpt><trkpt lat="45.3633999" lon="10.6017339"><ele>147.0</ele><time>2026-03-28T10:05:39.636Z</time></trkpt><trkpt lat="45.3634947" lon="10.6014756"><ele>147.0</ele><time>2026-03-28T10:05:40.638Z</time></trkpt><trkpt lat="45.3636012" lon="10.601222"><ele>147.0</ele><time>2026-03-28T10:05:41.621Z</time></trkpt><trkpt lat="45.363695" lon="10.6009748"><ele>147.0</ele><time>2026-03-28T10:05:42.637Z</time></trkpt><trkpt lat="45.3638031" lon="10.600719"><ele>147.0</ele><time>2026-03-28T10:05:43.629Z</time></trkpt><trkpt lat="45.3639012" lon="10.6004656"><ele>147.0</ele><time>2026-03-28T10:05:44.63Z</time></trkpt><trkpt lat="45.3639983" lon="10.6002292"><ele>147.0</ele><time>2026-03-28T10:05:45.627Z</time></trkpt><trkpt lat="45.3641017" lon="10.6000011"><ele>147.0</ele><time>2026-03-28T10:05:46.621Z</time></trkpt><trkpt lat="45.3641935" lon="10.5998013"><ele>147.0</ele><time>2026-03-28T10:05:47.628Z</time></trkpt><trkpt lat="45.364271" lon="10.5995913"><ele>145.33333333333334</ele><time>2026-03-28T10:05:48.627Z</time></trkpt><trkpt lat="45.3643601" lon="10.5993848"><ele>143.66666666666669</ele><time>2026-03-28T10:05:49.64Z</time></trkpt><trkpt lat="45.3644311" lon="10.5992052"><ele>142.0</ele><time>2026-03-28T10:05:50.629Z</time></trkpt><trkpt lat="45.3645139" lon="10.5990285"><ele>142.0</ele><time>2026-03-28T10:05:51.63Z</time></trkpt><trkpt lat="45.3645958" lon="10.5988482"><ele>142.0</ele><time>2026-03-28T10:05:52.622Z</time></trkpt><trkpt lat="45.3646587" lon="10.5986857"><ele>142.0</ele><time>2026-03-28T10:05:53.625Z</time></trkpt><trkpt lat="45.3647206" lon="10.5985353"><ele>142.0</ele><time>2026-03-28T10:05:54.625Z</time></trkpt><trkpt lat="45.3647831" lon="10.5984065"><ele>142.4</ele><time>2026-03-28T10:05:55.62Z</time></trkpt><trkpt lat="45.3648658" lon="10.5983266"><ele>142.79999999999998</ele><time>2026-03-28T10:05:56.629Z</time></trkpt><trkpt lat="45.3649493" lon="10.5982513"><ele>143.2</ele><time>2026-03-28T10:05:57.622Z</time></trkpt><trkpt lat="45.3650062" lon="10.5981358"><ele>143.6</ele><time>2026-03-28T10:05:58.629Z</time></trkpt><trkpt lat="45.3650277" lon="10.5979682"><ele>144.0</ele><time>2026-03-28T10:05:59.622Z</time></trkpt><trkpt lat="45.365045" lon="10.5978434"><ele>142.75</ele><time>2026-03-28T10:06:00.62Z</time></trkpt><trkpt lat="45.3650476" lon="10.5977227"><ele>141.5</ele><time>2026-03-28T10:06:01.63Z</time></trkpt><trkpt lat="45.3650452" lon="10.5975663"><ele>140.25</ele><time>2026-03-28T10:06:02.612Z</time></trkpt><trkpt lat="45.3650575" lon="10.5973918"><ele>139.0</ele><time>2026-03-28T10:06:03.619Z</time></trkpt><trkpt lat="45.3650856" lon="10.5972032"><ele>138.66666666666669</ele><time>2026-03-28T10:06:04.621Z</time></trkpt><trkpt lat="45.365127" lon="10.5969968"><ele>138.33333333333334</ele><time>2026-03-28T10:06:05.613Z</time></trkpt><trkpt lat="45.3652022" lon="10.5967564"><ele>138.0</ele><time>2026-03-28T10:06:06.626Z</time></trkpt><trkpt lat="45.3652689" lon="10.5964821"><ele>138.0</ele><time>2026-03-28T10:06:07.621Z</time></trkpt><trkpt lat="45.3653116" lon="10.5961929"><ele>138.0</ele><time>2026-03-28T10:06:08.616Z</time></trkpt><trkpt lat="45.3653376" lon="10.5958889"><ele>138.0</ele><time>2026-03-28T10:06:09.619Z</time></trkpt><trkpt lat="45.3653658" lon="10.5955731"><ele>138.0</ele><time>2026-03-28T10:06:10.62Z</time></trkpt><trkpt lat="45.3654117" lon="10.5952484"><ele>138.0</ele><time>2026-03-28T10:06:11.627Z</time></trkpt><trkpt lat="45.3654329" lon="10.5949136"><ele>138.0</ele><time>2026-03-28T10:06:12.625Z</time></trkpt><trkpt lat="45.3654763" lon="10.5945741"><ele>138.0</ele><time>2026-03-28T10:06:13.63Z</time></trkpt><trkpt lat="45.3655258" lon="10.594255"><ele>140.5</ele><time>2026-03-28T10:06:14.626Z</time></trkpt><trkpt lat="45.3655625" lon="10.5939402"><ele>143.0</ele><time>2026-03-28T10:06:15.625Z</time></trkpt><trkpt lat="45.3655989" lon="10.5936132"><ele>143.0</ele><time>2026-03-28T10:06:16.632Z</time></trkpt><trkpt lat="45.3656384" lon="10.5932836"><ele>143.0</ele><time>2026-03-28T10:06:17.618Z</time></trkpt><trkpt lat="45.365671" lon="10.5929631"><ele>143.33333333333331</ele><time>2026-03-28T10:06:18.628Z</time></trkpt><trkpt lat="45.3656978" lon="10.5926511"><ele>143.66666666666666</ele><time>2026-03-28T10:06:19.628Z</time></trkpt><trkpt lat="45.3657525" lon="10.5923466"><ele>144.0</ele><time>2026-03-28T10:06:20.631Z</time></trkpt><trkpt lat="45.365811" lon="10.5920293"><ele>144.0</ele><time>2026-03-28T10:06:21.628Z</time></trkpt><trkpt lat="45.3658486" lon="10.5917033"><ele>144.0</ele><time>2026-03-28T10:06:22.631Z</time></trkpt><trkpt lat="45.3658901" lon="10.5913578"><ele>144.0</ele><time>2026-03-28T10:06:23.635Z</time></trkpt><trkpt lat="45.3659417" lon="10.591012"><ele>144.0</ele><time>2026-03-28T10:06:24.633Z</time></trkpt><trkpt lat="45.3659862" lon="10.590692"><ele>144.0</ele><time>2026-03-28T10:06:25.629Z</time></trkpt><trkpt lat="45.3660397" lon="10.590394"><ele>144.0</ele><time>2026-03-28T10:06:26.633Z</time></trkpt><trkpt lat="45.3660798" lon="10.5900974"><ele>144.0</ele><time>2026-03-28T10:06:27.627Z</time></trkpt><trkpt lat="45.3661151" lon="10.5897891"><ele>144.0</ele><time>2026-03-28T10:06:28.636Z</time></trkpt><trkpt lat="45.3661582" lon="10.589464"><ele>144.0</ele><time>2026-03-28T10:06:29.628Z</time></trkpt><trkpt lat="45.3662039" lon="10.589151"><ele>144.0</ele><time>2026-03-28T10:06:30.627Z</time></trkpt><trkpt lat="45.3662493" lon="10.5888197"><ele>144.0</ele><time>2026-03-28T10:06:31.627Z</time></trkpt><trkpt lat="45.3662963" lon="10.5884729"><ele>143.5</ele><time>2026-03-28T10:06:32.631Z</time></trkpt><trkpt lat="45.3663264" lon="10.5881267"><ele>143.0</ele><time>2026-03-28T10:06:33.629Z</time></trkpt><trkpt lat="45.3663392" lon="10.5877808"><ele>142.5</ele><time>2026-03-28T10:06:34.634Z</time></trkpt><trkpt lat="45.3663476" lon="10.5874288"><ele>142.0</ele><time>2026-03-28T10:06:35.627Z</time></trkpt><trkpt lat="45.3663411" lon="10.5870568"><ele>142.0</ele><time>2026-03-28T10:06:36.625Z</time></trkpt><trkpt lat="45.3663392" lon="10.5866898"><ele>142.0</ele><time>2026-03-28T10:06:37.625Z</time></trkpt><trkpt lat="45.3663228" lon="10.5863106"><ele>139.0</ele><time>2026-03-28T10:06:38.627Z</time></trkpt><trkpt lat="45.3663005" lon="10.5859371"><ele>136.0</ele><time>2026-03-28T10:06:39.628Z</time></trkpt><trkpt lat="45.3662594" lon="10.5855511"><ele>135.5</ele><time>2026-03-28T10:06:40.636Z</time></trkpt><trkpt lat="45.366208" lon="10.5851557"><ele>135.0</ele><time>2026-03-28T10:06:41.629Z</time></trkpt><trkpt lat="45.3661585" lon="10.5847739"><ele>134.0</ele><time>2026-03-28T10:06:42.637Z</time></trkpt><trkpt lat="45.3661042" lon="10.5843976"><ele>133.0</ele><time>2026-03-28T10:06:43.625Z</time></trkpt><trkpt lat="45.3660512" lon="10.5840207"><ele>131.5</ele><time>2026-03-28T10:06:44.641Z</time></trkpt><trkpt lat="45.3659934" lon="10.5836507"><ele>130.0</ele><time>2026-03-28T10:06:45.635Z</time></trkpt><trkpt lat="45.3659407" lon="10.5833036"><ele>130.0</ele><time>2026-03-28T10:06:46.626Z</time></trkpt><trkpt lat="45.3658833" lon="10.5829731"><ele>130.0</ele><time>2026-03-28T10:06:47.624Z</time></trkpt><trkpt lat="45.3658259" lon="10.5827027"><ele>130.0</ele><time>2026-03-28T10:06:48.629Z</time></trkpt><trkpt lat="45.3657831" lon="10.5824919"><ele>130.2</ele><time>2026-03-28T10:06:49.617Z</time></trkpt><trkpt lat="45.3657552" lon="10.5823296"><ele>130.4</ele><time>2026-03-28T10:06:50.629Z</time></trkpt><trkpt lat="45.3657545" lon="10.5821698"><ele>130.6</ele><time>2026-03-28T10:06:51.622Z</time></trkpt><trkpt lat="45.3657829" lon="10.5820235"><ele>130.8</ele><time>2026-03-28T10:06:52.639Z</time></trkpt><trkpt lat="45.3658168" lon="10.5819087"><ele>131.0</ele><time>2026-03-28T10:06:53.633Z</time></trkpt><trkpt lat="45.3658383" lon="10.5818023"><ele>131.16666666666666</ele><time>2026-03-28T10:06:54.628Z</time></trkpt><trkpt lat="45.3658457" lon="10.5817061"><ele>131.33333333333331</ele><time>2026-03-28T10:06:55.636Z</time></trkpt><trkpt lat="45.3658323" lon="10.5816161"><ele>131.5</ele><time>2026-03-28T10:06:56.632Z</time></trkpt><trkpt lat="45.3658004" lon="10.5815071"><ele>131.66666666666666</ele><time>2026-03-28T10:06:57.633Z</time></trkpt><trkpt lat="45.3657545" lon="10.5813945"><ele>131.83333333333334</ele><time>2026-03-28T10:06:58.63Z</time></trkpt><trkpt lat="45.3656946" lon="10.5812868"><ele>132.0</ele><time>2026-03-28T10:06:59.628Z</time></trkpt><trkpt lat="45.3656336" lon="10.5811632"><ele>132.0</ele><time>2026-03-28T10:07:00.628Z</time></trkpt><trkpt lat="45.3655742" lon="10.5810068"><ele>132.0</ele><time>2026-03-28T10:07:01.626Z</time></trkpt><trkpt lat="45.3655174" lon="10.5808282"><ele>132.0</ele><time>2026-03-28T10:07:02.633Z</time></trkpt><trkpt lat="45.3654686" lon="10.580635"><ele>132.0</ele><time>2026-03-28T10:07:03.626Z</time></trkpt><trkpt lat="45.3654351" lon="10.5804025"><ele>133.0</ele><time>2026-03-28T10:07:04.626Z</time></trkpt><trkpt lat="45.3654044" lon="10.5801676"><ele>134.0</ele><time>2026-03-28T10:07:05.621Z</time></trkpt><trkpt lat="45.3653639" lon="10.579944"><ele>135.0</ele><time>2026-03-28T10:07:06.622Z</time></trkpt><trkpt lat="45.3653044" lon="10.5797245"><ele>136.66666666666666</ele><time>2026-03-28T10:07:07.615Z</time></trkpt><trkpt lat="45.3652535" lon="10.5794897"><ele>138.33333333333331</ele><time>2026-03-28T10:07:08.619Z</time></trkpt><trkpt lat="45.3652152" lon="10.5792387"><ele>140.0</ele><time>2026-03-28T10:07:09.621Z</time></trkpt><trkpt lat="45.365182" lon="10.5789806"><ele>140.0</ele><time>2026-03-28T10:07:10.63Z</time></trkpt><trkpt lat="45.3651624" lon="10.5787112"><ele>140.0</ele><time>2026-03-28T10:07:11.616Z</time></trkpt><trkpt lat="45.3651468" lon="10.5784263"><ele>140.0</ele><time>2026-03-28T10:07:12.618Z</time></trkpt><trkpt lat="45.3651555" lon="10.5781374"><ele>140.66666666666666</ele><time>2026-03-28T10:07:13.618Z</time></trkpt><trkpt lat="45.3651672" lon="10.5778405"><ele>141.33333333333334</ele><time>2026-03-28T10:07:14.623Z</time></trkpt><trkpt lat="45.3651831" lon="10.577539"><ele>142.0</ele><time>2026-03-28T10:07:15.619Z</time></trkpt><trkpt lat="45.3652224" lon="10.5772231"><ele>141.66666666666669</ele><time>2026-03-28T10:07:16.622Z</time></trkpt><trkpt lat="45.365274" lon="10.5769039"><ele>141.33333333333334</ele><time>2026-03-28T10:07:17.62Z</time></trkpt><trkpt lat="45.3653196" lon="10.576602"><ele>141.0</ele><time>2026-03-28T10:07:18.614Z</time></trkpt><trkpt lat="45.365365" lon="10.5763094"><ele>140.0</ele><time>2026-03-28T10:07:19.625Z</time></trkpt><trkpt lat="45.3654051" lon="10.5760263"><ele>139.0</ele><time>2026-03-28T10:07:20.625Z</time></trkpt><trkpt lat="45.3654422" lon="10.5757543"><ele>138.0</ele><time>2026-03-28T10:07:21.628Z</time></trkpt><trkpt lat="45.3654798" lon="10.5754914"><ele>137.66666666666666</ele><time>2026-03-28T10:07:22.624Z</time></trkpt><trkpt lat="45.3655125" lon="10.5752378"><ele>137.33333333333331</ele><time>2026-03-28T10:07:23.625Z</time></trkpt><trkpt lat="45.3655436" lon="10.5750089"><ele>137.0</ele><time>2026-03-28T10:07:24.621Z</time></trkpt><trkpt lat="45.3655707" lon="10.5747994"><ele>135.25</ele><time>2026-03-28T10:07:25.622Z</time></trkpt><trkpt lat="45.3655911" lon="10.5746066"><ele>133.5</ele><time>2026-03-28T10:07:26.622Z</time></trkpt><trkpt lat="45.3656192" lon="10.5744261"><ele>131.75</ele><time>2026-03-28T10:07:27.626Z</time></trkpt><trkpt lat="45.3656725" lon="10.5742655"><ele>130.0</ele><time>2026-03-28T10:07:28.626Z</time></trkpt><trkpt lat="45.3657375" lon="10.5741112"><ele>130.0</ele><time>2026-03-28T10:07:29.62Z</time></trkpt><trkpt lat="45.3657744" lon="10.5739475"><ele>130.0</ele><time>2026-03-28T10:07:30.621Z</time></trkpt><trkpt lat="45.3657975" lon="10.5737679"><ele>130.0</ele><time>2026-03-28T10:07:31.62Z</time></trkpt><trkpt lat="45.3657953" lon="10.5735439"><ele>130.0</ele><time>2026-03-28T10:07:32.621Z</time></trkpt><trkpt lat="45.3657876" lon="10.5733041"><ele>130.0</ele><time>2026-03-28T10:07:33.618Z</time></trkpt><trkpt lat="45.3657963" lon="10.5730595"><ele>130.0</ele><time>2026-03-28T10:07:34.623Z</time></trkpt><trkpt lat="45.3658285" lon="10.5728494"><ele>130.0</ele><time>2026-03-28T10:07:35.623Z</time></trkpt><trkpt lat="45.3658837" lon="10.5726726"><ele>130.25</ele><time>2026-03-28T10:07:36.622Z</time></trkpt><trkpt lat="45.3659418" lon="10.5725005"><ele>130.5</ele><time>2026-03-28T10:07:37.62Z</time></trkpt><trkpt lat="45.3660009" lon="10.5723369"><ele>130.75</ele><time>2026-03-28T10:07:38.626Z</time></trkpt><trkpt lat="45.3660535" lon="10.572181"><ele>131.0</ele><time>2026-03-28T10:07:39.622Z</time></trkpt><trkpt lat="45.3661196" lon="10.5720273"><ele>132.25</ele><time>2026-03-28T10:07:40.628Z</time></trkpt><trkpt lat="45.366208" lon="10.5718763"><ele>133.5</ele><time>2026-03-28T10:07:41.625Z</time></trkpt><trkpt lat="45.3663076" lon="10.5717373"><ele>134.75</ele><time>2026-03-28T10:07:42.622Z</time></trkpt><trkpt lat="45.3664357" lon="10.5716055"><ele>136.0</ele><time>2026-03-28T10:07:43.624Z</time></trkpt><trkpt lat="45.3665852" lon="10.5714641"><ele>136.66666666666669</ele><time>2026-03-28T10:07:44.623Z</time></trkpt><trkpt lat="45.3667255" lon="10.5713012"><ele>137.33333333333334</ele><time>2026-03-28T10:07:45.615Z</time></trkpt><trkpt lat="45.3668463" lon="10.5711275"><ele>138.0</ele><time>2026-03-28T10:07:46.624Z</time></trkpt><trkpt lat="45.3669475" lon="10.5709703"><ele>138.5</ele><time>2026-03-28T10:07:47.614Z</time></trkpt><trkpt lat="45.367027" lon="10.5707971"><ele>139.0</ele><time>2026-03-28T10:07:48.611Z</time></trkpt><trkpt lat="45.3671096" lon="10.5706247"><ele>139.5</ele><time>2026-03-28T10:07:49.618Z</time></trkpt><trkpt lat="45.3671971" lon="10.5704567"><ele>140.0</ele><time>2026-03-28T10:07:50.614Z</time></trkpt><trkpt lat="45.3672742" lon="10.5702918"><ele>138.6</ele><time>2026-03-28T10:07:51.615Z</time></trkpt><trkpt lat="45.3673429" lon="10.5701563"><ele>137.2</ele><time>2026-03-28T10:07:52.614Z</time></trkpt><trkpt lat="45.3673959" lon="10.5700681"><ele>135.8</ele><time>2026-03-28T10:07:53.615Z</time></trkpt><trkpt lat="45.3674449" lon="10.569973"><ele>134.4</ele><time>2026-03-28T10:07:54.618Z</time></trkpt><trkpt lat="45.367485" lon="10.569865"><ele>133.0</ele><time>2026-03-28T10:07:55.613Z</time></trkpt><trkpt lat="45.3675277" lon="10.5697247"><ele>133.0</ele><time>2026-03-28T10:07:56.618Z</time></trkpt><trkpt lat="45.3675768" lon="10.569562"><ele>133.0</ele><time>2026-03-28T10:07:57.623Z</time></trkpt><trkpt lat="45.3676347" lon="10.5693923"><ele>133.0</ele><time>2026-03-28T10:07:58.617Z</time></trkpt><trkpt lat="45.3676989" lon="10.5692208"><ele>133.0</ele><time>2026-03-28T10:07:59.615Z</time></trkpt><trkpt lat="45.3677769" lon="10.5690599"><ele>132.25</ele><time>2026-03-28T10:08:00.626Z</time></trkpt><trkpt lat="45.3678644" lon="10.5689085"><ele>131.5</ele><time>2026-03-28T10:08:01.623Z</time></trkpt><trkpt lat="45.3679509" lon="10.5687495"><ele>130.75</ele><time>2026-03-28T10:08:02.616Z</time></trkpt><trkpt lat="45.3680306" lon="10.5686017"><ele>130.0</ele><time>2026-03-28T10:08:03.617Z</time></trkpt><trkpt lat="45.3680991" lon="10.5684618"><ele>129.0</ele><time>2026-03-28T10:08:04.622Z</time></trkpt><trkpt lat="45.3681583" lon="10.5683236"><ele>128.0</ele><time>2026-03-28T10:08:05.616Z</time></trkpt><trkpt lat="45.3682108" lon="10.5681797"><ele>127.0</ele><time>2026-03-28T10:08:06.61Z</time></trkpt><trkpt lat="45.3682586" lon="10.568046"><ele>126.0</ele><time>2026-03-28T10:08:07.612Z</time></trkpt><trkpt lat="45.3682843" lon="10.5679488"><ele>125.0</ele><time>2026-03-28T10:08:08.616Z</time></trkpt><trkpt lat="45.3682757" lon="10.5678438"><ele>124.66666666666666</ele><time>2026-03-28T10:08:10.614Z</time></trkpt><trkpt lat="45.3682664" lon="10.5676931"><ele>124.33333333333333</ele><time>2026-03-28T10:08:13.617Z</time></trkpt><trkpt lat="45.3682864" lon="10.5675382"><ele>124.0</ele><time>2026-03-28T10:08:15.61Z</time></trkpt><trkpt lat="45.3682972" lon="10.5674316"><ele>123.66666666666666</ele><time>2026-03-28T10:08:16.611Z</time></trkpt><trkpt lat="45.3683131" lon="10.5673265"><ele>123.33333333333333</ele><time>2026-03-28T10:08:17.606Z</time></trkpt><trkpt lat="45.3683317" lon="10.5672185"><ele>123.0</ele><time>2026-03-28T10:08:18.613Z</time></trkpt><trkpt lat="45.3683453" lon="10.5671139"><ele>122.60000000000001</ele><time>2026-03-28T10:08:19.612Z</time></trkpt><trkpt lat="45.3683791" lon="10.5669696"><ele>122.20000000000002</ele><time>2026-03-28T10:08:21.615Z</time></trkpt><trkpt lat="45.3684512" lon="10.5668209"><ele>121.8</ele><time>2026-03-28T10:08:23.615Z</time></trkpt><trkpt lat="45.3684667" lon="10.5667306"><ele>121.4</ele><time>2026-03-28T10:08:24.619Z</time></trkpt><trkpt lat="45.3684584" lon="10.5666328"><ele>121.0</ele><time>2026-03-28T10:08:25.622Z</time></trkpt><trkpt lat="45.3684324" lon="10.5665219"><ele>121.0</ele><time>2026-03-28T10:08:26.618Z</time></trkpt><trkpt lat="45.3683993" lon="10.5663975"><ele>121.0</ele><time>2026-03-28T10:08:27.61Z</time></trkpt><trkpt lat="45.3683597" lon="10.5662576"><ele>121.0</ele><time>2026-03-28T10:08:28.609Z</time></trkpt><trkpt lat="45.3683187" lon="10.5661115"><ele>121.0</ele><time>2026-03-28T10:08:29.614Z</time></trkpt><trkpt lat="45.3682745" lon="10.5659593"><ele>121.0</ele><time>2026-03-28T10:08:30.612Z</time></trkpt><trkpt lat="45.3682261" lon="10.5658028"><ele>120.75</ele><time>2026-03-28T10:08:31.623Z</time></trkpt><trkpt lat="45.3681721" lon="10.5656464"><ele>120.5</ele><time>2026-03-28T10:08:32.624Z</time></trkpt><trkpt lat="45.3681201" lon="10.5654932"><ele>120.25</ele><time>2026-03-28T10:08:33.625Z</time></trkpt><trkpt lat="45.3680831" lon="10.565348"><ele>120.0</ele><time>2026-03-28T10:08:34.618Z</time></trkpt><trkpt lat="45.3680616" lon="10.5651962"><ele>119.5</ele><time>2026-03-28T10:08:35.627Z</time></trkpt><trkpt lat="45.3680547" lon="10.5650348"><ele>119.0</ele><time>2026-03-28T10:08:36.616Z</time></trkpt><trkpt lat="45.3680624" lon="10.5648483"><ele>118.5</ele><time>2026-03-28T10:08:37.625Z</time></trkpt><trkpt lat="45.3680832" lon="10.5646502"><ele>118.0</ele><time>2026-03-28T10:08:38.618Z</time></trkpt><trkpt lat="45.3681012" lon="10.5644459"><ele>118.0</ele><time>2026-03-28T10:08:39.62Z</time></trkpt><trkpt lat="45.3681316" lon="10.5642334"><ele>118.0</ele><time>2026-03-28T10:08:40.629Z</time></trkpt><trkpt lat="45.368164" lon="10.5640127"><ele>118.0</ele><time>2026-03-28T10:08:41.621Z</time></trkpt><trkpt lat="45.3681819" lon="10.5637915"><ele>118.75</ele><time>2026-03-28T10:08:42.617Z</time></trkpt><trkpt lat="45.3681981" lon="10.5636163"><ele>119.5</ele><time>2026-03-28T10:08:43.622Z</time></trkpt><trkpt lat="45.368208" lon="10.5634646"><ele>120.25</ele><time>2026-03-28T10:08:44.62Z</time></trkpt><trkpt lat="45.3682055" lon="10.563298"><ele>121.0</ele><time>2026-03-28T10:08:45.622Z</time></trkpt><trkpt lat="45.3682147" lon="10.5631322"><ele>121.0</ele><time>2026-03-28T10:08:46.623Z</time></trkpt><trkpt lat="45.3682195" lon="10.5629746"><ele>121.0</ele><time>2026-03-28T10:08:47.624Z</time></trkpt><trkpt lat="45.3682341" lon="10.5627948"><ele>121.0</ele><time>2026-03-28T10:08:48.631Z</time></trkpt><trkpt lat="45.3682394" lon="10.5626118"><ele>121.0</ele><time>2026-03-28T10:08:49.632Z</time></trkpt><trkpt lat="45.3682471" lon="10.5624327"><ele>121.5</ele><time>2026-03-28T10:08:50.625Z</time></trkpt><trkpt lat="45.3682551" lon="10.5622508"><ele>122.0</ele><time>2026-03-28T10:08:51.625Z</time></trkpt><trkpt lat="45.3682636" lon="10.562055"><ele>122.5</ele><time>2026-03-28T10:08:52.625Z</time></trkpt><trkpt lat="45.36826" lon="10.5618196"><ele>123.0</ele><time>2026-03-28T10:08:53.629Z</time></trkpt><trkpt lat="45.3682213" lon="10.561597"><ele>124.33333333333334</ele><time>2026-03-28T10:08:54.626Z</time></trkpt><trkpt lat="45.368198" lon="10.5613822"><ele>125.66666666666667</ele><time>2026-03-28T10:08:55.622Z</time></trkpt><trkpt lat="45.3681611" lon="10.5611802"><ele>127.0</ele><time>2026-03-28T10:08:56.626Z</time></trkpt><trkpt lat="45.3681424" lon="10.5609668"><ele>127.5</ele><time>2026-03-28T10:08:57.623Z</time></trkpt><trkpt lat="45.3681125" lon="10.5607678"><ele>128.0</ele><time>2026-03-28T10:08:58.627Z</time></trkpt><trkpt lat="45.3680689" lon="10.5605816"><ele>128.5</ele><time>2026-03-28T10:08:59.625Z</time></trkpt><trkpt lat="45.368026" lon="10.5604151"><ele>129.0</ele><time>2026-03-28T10:09:00.623Z</time></trkpt><trkpt lat="45.3679941" lon="10.5602526"><ele>129.0</ele><time>2026-03-28T10:09:01.617Z</time></trkpt><trkpt lat="45.3679451" lon="10.5600992"><ele>129.0</ele><time>2026-03-28T10:09:02.624Z</time></trkpt><trkpt lat="45.3678916" lon="10.5599309"><ele>129.0</ele><time>2026-03-28T10:09:03.619Z</time></trkpt><trkpt lat="45.3678386" lon="10.5597518"><ele>129.0</ele><time>2026-03-28T10:09:04.617Z</time></trkpt><trkpt lat="45.3677833" lon="10.5595596"><ele>129.0</ele><time>2026-03-28T10:09:05.624Z</time></trkpt><trkpt lat="45.3677101" lon="10.5593546"><ele>129.0</ele><time>2026-03-28T10:09:06.627Z</time></trkpt><trkpt lat="45.3676309" lon="10.5591779"><ele>129.0</ele><time>2026-03-28T10:09:07.627Z</time></trkpt><trkpt lat="45.3675673" lon="10.559"><ele>129.0</ele><time>2026-03-28T10:09:08.621Z</time></trkpt><trkpt lat="45.3675063" lon="10.5588149"><ele>130.0</ele><time>2026-03-28T10:09:09.626Z</time></trkpt><trkpt lat="45.3674347" lon="10.5586243"><ele>131.0</ele><time>2026-03-28T10:09:10.622Z</time></trkpt><trkpt lat="45.3673539" lon="10.5584232"><ele>132.0</ele><time>2026-03-28T10:09:11.617Z</time></trkpt><trkpt lat="45.3672859" lon="10.5582475"><ele>132.0</ele><time>2026-03-28T10:09:12.626Z</time></trkpt><trkpt lat="45.3672545" lon="10.5580846"><ele>132.0</ele><time>2026-03-28T10:09:13.627Z</time></trkpt><trkpt lat="45.3671883" lon="10.5579123"><ele>132.0</ele><time>2026-03-28T10:09:14.619Z</time></trkpt><trkpt lat="45.3671476" lon="10.5577279"><ele>132.0</ele><time>2026-03-28T10:09:15.628Z</time></trkpt><trkpt lat="45.367142" lon="10.5575295"><ele>130.66666666666666</ele><time>2026-03-28T10:09:16.629Z</time></trkpt><trkpt lat="45.3671459" lon="10.5573266"><ele>129.33333333333331</ele><time>2026-03-28T10:09:17.623Z</time></trkpt><trkpt lat="45.3671452" lon="10.5571077"><ele>128.0</ele><time>2026-03-28T10:09:18.62Z</time></trkpt><trkpt lat="45.3671603" lon="10.556889"><ele>127.33333333333333</ele><time>2026-03-28T10:09:19.625Z</time></trkpt><trkpt lat="45.3671626" lon="10.5566921"><ele>126.66666666666666</ele><time>2026-03-28T10:09:20.624Z</time></trkpt><trkpt lat="45.3671799" lon="10.5564778"><ele>126.0</ele><time>2026-03-28T10:09:21.625Z</time></trkpt><trkpt lat="45.3671743" lon="10.5562504"><ele>125.5</ele><time>2026-03-28T10:09:22.624Z</time></trkpt><trkpt lat="45.3671556" lon="10.5560491"><ele>125.0</ele><time>2026-03-28T10:09:23.629Z</time></trkpt><trkpt lat="45.3671338" lon="10.5558776"><ele>124.5</ele><time>2026-03-28T10:09:24.624Z</time></trkpt><trkpt lat="45.3671221" lon="10.5557126"><ele>124.0</ele><time>2026-03-28T10:09:25.629Z</time></trkpt><trkpt lat="45.367096" lon="10.5555324"><ele>124.33333333333334</ele><time>2026-03-28T10:09:26.631Z</time></trkpt><trkpt lat="45.3670601" lon="10.5553412"><ele>124.66666666666666</ele><time>2026-03-28T10:09:27.628Z</time></trkpt><trkpt lat="45.3670349" lon="10.5551329"><ele>125.0</ele><time>2026-03-28T10:09:28.626Z</time></trkpt><trkpt lat="45.3670233" lon="10.5548892"><ele>125.0</ele><time>2026-03-28T10:09:29.631Z</time></trkpt><trkpt lat="45.3669974" lon="10.5546451"><ele>125.0</ele><time>2026-03-28T10:09:30.626Z</time></trkpt><trkpt lat="45.3669615" lon="10.5544026"><ele>125.0</ele><time>2026-03-28T10:09:31.632Z</time></trkpt><trkpt lat="45.3669045" lon="10.5541679"><ele>125.33333333333333</ele><time>2026-03-28T10:09:32.633Z</time></trkpt><trkpt lat="45.3668594" lon="10.5539382"><ele>125.66666666666666</ele><time>2026-03-28T10:09:33.635Z</time></trkpt><trkpt lat="45.3668104" lon="10.5537032"><ele>126.0</ele><time>2026-03-28T10:09:34.637Z</time></trkpt><trkpt lat="45.3667623" lon="10.5534576"><ele>124.66666666666666</ele><time>2026-03-28T10:09:35.63Z</time></trkpt><trkpt lat="45.3667218" lon="10.5532006"><ele>123.33333333333333</ele><time>2026-03-28T10:09:36.624Z</time></trkpt><trkpt lat="45.3666807" lon="10.5529551"><ele>122.0</ele><time>2026-03-28T10:09:37.626Z</time></trkpt><trkpt lat="45.3666335" lon="10.552713"><ele>121.66666666666666</ele><time>2026-03-28T10:09:38.634Z</time></trkpt><trkpt lat="45.3665775" lon="10.5524726"><ele>121.33333333333334</ele><time>2026-03-28T10:09:39.628Z</time></trkpt><trkpt lat="45.3665371" lon="10.5522323"><ele>121.0</ele><time>2026-03-28T10:09:40.629Z</time></trkpt><trkpt lat="45.3665072" lon="10.5520135"><ele>120.66666666666667</ele><time>2026-03-28T10:09:41.631Z</time></trkpt><trkpt lat="45.3664542" lon="10.5518062"><ele>120.33333333333334</ele><time>2026-03-28T10:09:42.629Z</time></trkpt><trkpt lat="45.3664107" lon="10.5516001"><ele>120.0</ele><time>2026-03-28T10:09:43.629Z</time></trkpt><trkpt lat="45.3663691" lon="10.5513936"><ele>118.66666666666666</ele><time>2026-03-28T10:09:44.635Z</time></trkpt><trkpt lat="45.3663214" lon="10.5511783"><ele>117.33333333333333</ele><time>2026-03-28T10:09:45.627Z</time></trkpt><trkpt lat="45.3662777" lon="10.550969"><ele>116.0</ele><time>2026-03-28T10:09:46.627Z</time></trkpt><trkpt lat="45.3662514" lon="10.5507564"><ele>116.0</ele><time>2026-03-28T10:09:47.628Z</time></trkpt><trkpt lat="45.3662072" lon="10.5505388"><ele>116.0</ele><time>2026-03-28T10:09:48.637Z</time></trkpt><trkpt lat="45.3661607" lon="10.5503138"><ele>116.0</ele><time>2026-03-28T10:09:49.631Z</time></trkpt><trkpt lat="45.3661181" lon="10.5500824"><ele>115.66666666666666</ele><time>2026-03-28T10:09:50.63Z</time></trkpt><trkpt lat="45.3660798" lon="10.5498388"><ele>115.33333333333334</ele><time>2026-03-28T10:09:51.63Z</time></trkpt><trkpt lat="45.3660343" lon="10.5495976"><ele>115.0</ele><time>2026-03-28T10:09:52.634Z</time></trkpt><trkpt lat="45.3659943" lon="10.5493609"><ele>115.0</ele><time>2026-03-28T10:09:53.637Z</time></trkpt><trkpt lat="45.3659514" lon="10.5491415"><ele>115.0</ele><time>2026-03-28T10:09:54.627Z</time></trkpt><trkpt lat="45.3659095" lon="10.5489248"><ele>115.0</ele><time>2026-03-28T10:09:55.64Z</time></trkpt><trkpt lat="45.3658761" lon="10.5487177"><ele>114.0</ele><time>2026-03-28T10:09:56.631Z</time></trkpt><trkpt lat="45.365831" lon="10.5485302"><ele>113.0</ele><time>2026-03-28T10:09:57.638Z</time></trkpt><trkpt lat="45.3658071" lon="10.5483385"><ele>112.0</ele><time>2026-03-28T10:09:58.633Z</time></trkpt><trkpt lat="45.3657719" lon="10.5481354"><ele>111.0</ele><time>2026-03-28T10:09:59.637Z</time></trkpt><trkpt lat="45.3657508" lon="10.5479451"><ele>109.66666666666666</ele><time>2026-03-28T10:10:00.633Z</time></trkpt><trkpt lat="45.3657589" lon="10.5477069"><ele>108.33333333333333</ele><time>2026-03-28T10:10:01.635Z</time></trkpt><trkpt lat="45.3657857" lon="10.5475091"><ele>107.0</ele><time>2026-03-28T10:10:02.623Z</time></trkpt><trkpt lat="45.3658391" lon="10.5473152"><ele>107.0</ele><time>2026-03-28T10:10:03.629Z</time></trkpt><trkpt lat="45.3659023" lon="10.5471196"><ele>107.0</ele><time>2026-03-28T10:10:04.623Z</time></trkpt><trkpt lat="45.3659717" lon="10.5469221"><ele>107.0</ele><time>2026-03-28T10:10:05.629Z</time></trkpt><trkpt lat="45.3660418" lon="10.5466879"><ele>106.66666666666666</ele><time>2026-03-28T10:10:06.63Z</time></trkpt><trkpt lat="45.3661201" lon="10.546452"><ele>106.33333333333334</ele><time>2026-03-28T10:10:07.622Z</time></trkpt><trkpt lat="45.3661995" lon="10.546206"><ele>106.0</ele><time>2026-03-28T10:10:08.623Z</time></trkpt><trkpt lat="45.3662712" lon="10.5459452"><ele>106.0</ele><time>2026-03-28T10:10:09.628Z</time></trkpt><trkpt lat="45.3663251" lon="10.5456755"><ele>106.0</ele><time>2026-03-28T10:10:10.639Z</time></trkpt><trkpt lat="45.3663639" lon="10.5453979"><ele>106.0</ele><time>2026-03-28T10:10:11.631Z</time></trkpt><trkpt lat="45.3664037" lon="10.5450959"><ele>106.66666666666667</ele><time>2026-03-28T10:10:12.629Z</time></trkpt><trkpt lat="45.3664336" lon="10.5447911"><ele>107.33333333333334</ele><time>2026-03-28T10:10:13.624Z</time></trkpt><trkpt lat="45.3664562" lon="10.5444984"><ele>108.0</ele><time>2026-03-28T10:10:14.63Z</time></trkpt><trkpt lat="45.3664877" lon="10.5442018"><ele>108.0</ele><time>2026-03-28T10:10:15.632Z</time></trkpt><trkpt lat="45.3665149" lon="10.5438985"><ele>108.0</ele><time>2026-03-28T10:10:16.639Z</time></trkpt><trkpt lat="45.3665509" lon="10.5436024"><ele>108.0</ele><time>2026-03-28T10:10:17.634Z</time></trkpt><trkpt lat="45.3665707" lon="10.543287"><ele>107.5</ele><time>2026-03-28T10:10:18.639Z</time></trkpt><trkpt lat="45.3665963" lon="10.5429609"><ele>107.0</ele><time>2026-03-28T10:10:19.632Z</time></trkpt><trkpt lat="45.3666185" lon="10.5426424"><ele>106.33333333333333</ele><time>2026-03-28T10:10:20.63Z</time></trkpt><trkpt lat="45.3666477" lon="10.5423801"><ele>105.66666666666666</ele><time>2026-03-28T10:10:21.633Z</time></trkpt><trkpt lat="45.3666849" lon="10.5421181"><ele>105.0</ele><time>2026-03-28T10:10:22.633Z</time></trkpt><trkpt lat="45.3667113" lon="10.5418763"><ele>105.0</ele><time>2026-03-28T10:10:23.637Z</time></trkpt><trkpt lat="45.3667519" lon="10.5416366"><ele>105.0</ele><time>2026-03-28T10:10:24.636Z</time></trkpt><trkpt lat="45.3667936" lon="10.5414255"><ele>105.0</ele><time>2026-03-28T10:10:25.638Z</time></trkpt><trkpt lat="45.3668402" lon="10.5411975"><ele>104.66666666666666</ele><time>2026-03-28T10:10:26.632Z</time></trkpt><trkpt lat="45.36691" lon="10.540977"><ele>104.33333333333333</ele><time>2026-03-28T10:10:27.634Z</time></trkpt><trkpt lat="45.366979" lon="10.5407644"><ele>104.0</ele><time>2026-03-28T10:10:28.637Z</time></trkpt><trkpt lat="45.3670747" lon="10.5405341"><ele>104.0</ele><time>2026-03-28T10:10:29.637Z</time></trkpt><trkpt lat="45.3671816" lon="10.5402925"><ele>104.0</ele><time>2026-03-28T10:10:30.634Z</time></trkpt><trkpt lat="45.3672696" lon="10.5400599"><ele>104.0</ele><time>2026-03-28T10:10:31.642Z</time></trkpt><trkpt lat="45.3673664" lon="10.5398276"><ele>103.5</ele><time>2026-03-28T10:10:32.631Z</time></trkpt><trkpt lat="45.3675798" lon="10.5393302"><ele>103.0</ele><time>2026-03-28T10:10:34.629Z</time></trkpt><trkpt lat="45.3676822" lon="10.539068"><ele>103.0</ele><time>2026-03-28T10:10:35.625Z</time></trkpt><trkpt lat="45.3677942" lon="10.5388101"><ele>103.0</ele><time>2026-03-28T10:10:36.639Z</time></trkpt><trkpt lat="45.3678836" lon="10.5385559"><ele>103.0</ele><time>2026-03-28T10:10:37.631Z</time></trkpt><trkpt lat="45.3679745" lon="10.5383025"><ele>104.0</ele><time>2026-03-28T10:10:38.627Z</time></trkpt><trkpt lat="45.3680465" lon="10.5380401"><ele>105.0</ele><time>2026-03-28T10:10:39.623Z</time></trkpt><trkpt lat="45.3681265" lon="10.5377808"><ele>106.0</ele><time>2026-03-28T10:10:40.627Z</time></trkpt><trkpt lat="45.3682129" lon="10.5375181"><ele>106.0</ele><time>2026-03-28T10:10:41.622Z</time></trkpt><trkpt lat="45.3682849" lon="10.5372609"><ele>106.0</ele><time>2026-03-28T10:10:42.623Z</time></trkpt><trkpt lat="45.3683525" lon="10.5369993"><ele>106.0</ele><time>2026-03-28T10:10:43.632Z</time></trkpt><trkpt lat="45.3684207" lon="10.5367592"><ele>106.0</ele><time>2026-03-28T10:10:44.628Z</time></trkpt><trkpt lat="45.3684824" lon="10.5365344"><ele>106.0</ele><time>2026-03-28T10:10:45.626Z</time></trkpt><trkpt lat="45.3685657" lon="10.536301"><ele>106.0</ele><time>2026-03-28T10:10:46.641Z</time></trkpt><trkpt lat="45.3686591" lon="10.5360562"><ele>106.0</ele><time>2026-03-28T10:10:47.63Z</time></trkpt><trkpt lat="45.3687391" lon="10.5358106"><ele>106.0</ele><time>2026-03-28T10:10:48.629Z</time></trkpt><trkpt lat="45.3688333" lon="10.5355556"><ele>106.0</ele><time>2026-03-28T10:10:49.635Z</time></trkpt><trkpt lat="45.3689172" lon="10.5353042"><ele>106.0</ele><time>2026-03-28T10:10:50.631Z</time></trkpt><trkpt lat="45.3690181" lon="10.5350449"><ele>106.0</ele><time>2026-03-28T10:10:51.635Z</time></trkpt><trkpt lat="45.3691178" lon="10.5347944"><ele>106.0</ele><time>2026-03-28T10:10:52.638Z</time></trkpt><trkpt lat="45.3692205" lon="10.5345429"><ele>106.0</ele><time>2026-03-28T10:10:53.633Z</time></trkpt><trkpt lat="45.3693254" lon="10.5343011"><ele>106.0</ele><time>2026-03-28T10:10:54.635Z</time></trkpt><trkpt lat="45.3694432" lon="10.5340457"><ele>106.0</ele><time>2026-03-28T10:10:55.631Z</time></trkpt><trkpt lat="45.369555" lon="10.5337843"><ele>106.0</ele><time>2026-03-28T10:10:56.631Z</time></trkpt><trkpt lat="45.3696745" lon="10.5335266"><ele>106.0</ele><time>2026-03-28T10:10:57.637Z</time></trkpt><trkpt lat="45.3697866" lon="10.5332934"><ele>106.0</ele><time>2026-03-28T10:10:58.629Z</time></trkpt><trkpt lat="45.369882" lon="10.5330568"><ele>105.33333333333334</ele><time>2026-03-28T10:10:59.637Z</time></trkpt><trkpt lat="45.3699687" lon="10.5328377"><ele>104.66666666666666</ele><time>2026-03-28T10:11:00.633Z</time></trkpt><trkpt lat="45.3700568" lon="10.5326397"><ele>104.0</ele><time>2026-03-28T10:11:01.629Z</time></trkpt><trkpt lat="45.3701231" lon="10.5324505"><ele>104.0</ele><time>2026-03-28T10:11:02.631Z</time></trkpt><trkpt lat="45.3701951" lon="10.532266"><ele>104.0</ele><time>2026-03-28T10:11:03.623Z</time></trkpt><trkpt lat="45.3702768" lon="10.532088"><ele>104.0</ele><time>2026-03-28T10:11:04.633Z</time></trkpt><trkpt lat="45.3703632" lon="10.5319035"><ele>104.0</ele><time>2026-03-28T10:11:05.625Z</time></trkpt><trkpt lat="45.37045" lon="10.5316974"><ele>104.0</ele><time>2026-03-28T10:11:06.627Z</time></trkpt><trkpt lat="45.370538" lon="10.5315074"><ele>104.0</ele><time>2026-03-28T10:11:07.631Z</time></trkpt><trkpt lat="45.3706182" lon="10.5313186"><ele>105.33333333333333</ele><time>2026-03-28T10:11:08.627Z</time></trkpt><trkpt lat="45.3706998" lon="10.5311186"><ele>106.66666666666666</ele><time>2026-03-28T10:11:09.621Z</time></trkpt><trkpt lat="45.3707813" lon="10.5309281"><ele>108.0</ele><time>2026-03-28T10:11:10.621Z</time></trkpt><trkpt lat="45.3708685" lon="10.5307507"><ele>108.0</ele><time>2026-03-28T10:11:11.628Z</time></trkpt><trkpt lat="45.3709625" lon="10.5305584"><ele>108.0</ele><time>2026-03-28T10:11:12.63Z</time></trkpt><trkpt lat="45.3710298" lon="10.5303787"><ele>108.0</ele><time>2026-03-28T10:11:13.621Z</time></trkpt><trkpt lat="45.3711208" lon="10.5301768"><ele>108.0</ele><time>2026-03-28T10:11:14.628Z</time></trkpt><trkpt lat="45.3711974" lon="10.5300101"><ele>108.0</ele><time>2026-03-28T10:11:15.627Z</time></trkpt><trkpt lat="45.3712612" lon="10.529843"><ele>108.0</ele><time>2026-03-28T10:11:16.63Z</time></trkpt><trkpt lat="45.3713327" lon="10.5296798"><ele>108.0</ele><time>2026-03-28T10:11:17.625Z</time></trkpt><trkpt lat="45.3714067" lon="10.5295134"><ele>108.75</ele><time>2026-03-28T10:11:18.63Z</time></trkpt><trkpt lat="45.3714829" lon="10.5293457"><ele>109.5</ele><time>2026-03-28T10:11:19.633Z</time></trkpt><trkpt lat="45.3715557" lon="10.5291877"><ele>110.25</ele><time>2026-03-28T10:11:20.632Z</time></trkpt><trkpt lat="45.3716178" lon="10.5290266"><ele>111.0</ele><time>2026-03-28T10:11:21.635Z</time></trkpt><trkpt lat="45.3716635" lon="10.5288903"><ele>111.0</ele><time>2026-03-28T10:11:22.631Z</time></trkpt><trkpt lat="45.3717237" lon="10.5287597"><ele>111.0</ele><time>2026-03-28T10:11:23.632Z</time></trkpt><trkpt lat="45.371775" lon="10.5286284"><ele>111.0</ele><time>2026-03-28T10:11:24.628Z</time></trkpt><trkpt lat="45.3718261" lon="10.5285076"><ele>111.0</ele><time>2026-03-28T10:11:25.631Z</time></trkpt><trkpt lat="45.3718812" lon="10.5283875"><ele>111.0</ele><time>2026-03-28T10:11:26.625Z</time></trkpt><trkpt lat="45.3719434" lon="10.5282477"><ele>110.83333333333333</ele><time>2026-03-28T10:11:27.634Z</time></trkpt><trkpt lat="45.3720054" lon="10.5281168"><ele>110.66666666666666</ele><time>2026-03-28T10:11:28.63Z</time></trkpt><trkpt lat="45.372058" lon="10.5280085"><ele>110.5</ele><time>2026-03-28T10:11:29.629Z</time></trkpt><trkpt lat="45.3720985" lon="10.527928"><ele>110.33333333333333</ele><time>2026-03-28T10:11:30.625Z</time></trkpt><trkpt lat="45.37214" lon="10.5278529"><ele>110.16666666666666</ele><time>2026-03-28T10:11:31.63Z</time></trkpt><trkpt lat="45.3721809" lon="10.5277634"><ele>110.0</ele><time>2026-03-28T10:11:32.627Z</time></trkpt><trkpt lat="45.3722195" lon="10.5276539"><ele>109.66666666666666</ele><time>2026-03-28T10:11:33.611Z</time></trkpt><trkpt lat="45.3722791" lon="10.5273659"><ele>109.33333333333334</ele><time>2026-03-28T10:11:35.616Z</time></trkpt><trkpt lat="45.3722976" lon="10.5271862"><ele>109.0</ele><time>2026-03-28T10:11:36.62Z</time></trkpt><trkpt lat="45.3723132" lon="10.5269875"><ele>108.0</ele><time>2026-03-28T10:11:37.616Z</time></trkpt><trkpt lat="45.3723265" lon="10.5267613"><ele>107.0</ele><time>2026-03-28T10:11:38.611Z</time></trkpt><trkpt lat="45.3723419" lon="10.5264645"><ele>106.0</ele><time>2026-03-28T10:11:39.621Z</time></trkpt><trkpt lat="45.3723639" lon="10.5261846"><ele>105.33333333333334</ele><time>2026-03-28T10:11:40.625Z</time></trkpt><trkpt lat="45.372392" lon="10.5258979"><ele>104.66666666666666</ele><time>2026-03-28T10:11:41.616Z</time></trkpt><trkpt lat="45.3724059" lon="10.5256274"><ele>104.0</ele><time>2026-03-28T10:11:42.621Z</time></trkpt><trkpt lat="45.3724299" lon="10.5253492"><ele>104.0</ele><time>2026-03-28T10:11:43.621Z</time></trkpt><trkpt lat="45.3724478" lon="10.5250572"><ele>104.0</ele><time>2026-03-28T10:11:44.622Z</time></trkpt><trkpt lat="45.3724529" lon="10.5247558"><ele>104.0</ele><time>2026-03-28T10:11:45.633Z</time></trkpt><trkpt lat="45.3724516" lon="10.524436"><ele>102.66666666666666</ele><time>2026-03-28T10:11:46.623Z</time></trkpt><trkpt lat="45.3724623" lon="10.5241246"><ele>101.33333333333334</ele><time>2026-03-28T10:11:47.625Z</time></trkpt><trkpt lat="45.3724732" lon="10.5238141"><ele>100.0</ele><time>2026-03-28T10:11:48.619Z</time></trkpt><trkpt lat="45.3724936" lon="10.5235149"><ele>100.0</ele><time>2026-03-28T10:11:49.624Z</time></trkpt><trkpt lat="45.3725184" lon="10.5232267"><ele>100.0</ele><time>2026-03-28T10:11:50.622Z</time></trkpt><trkpt lat="45.3725404" lon="10.5229486"><ele>100.0</ele><time>2026-03-28T10:11:51.629Z</time></trkpt><trkpt lat="45.3725708" lon="10.5226626"><ele>100.33333333333334</ele><time>2026-03-28T10:11:52.622Z</time></trkpt><trkpt lat="45.3725945" lon="10.5223821"><ele>100.66666666666666</ele><time>2026-03-28T10:11:53.62Z</time></trkpt><trkpt lat="45.3726214" lon="10.5221094"><ele>101.0</ele><time>2026-03-28T10:11:54.623Z</time></trkpt><trkpt lat="45.3726191" lon="10.5218432"><ele>101.33333333333333</ele><time>2026-03-28T10:11:55.626Z</time></trkpt><trkpt lat="45.3726357" lon="10.5216032"><ele>101.66666666666666</ele><time>2026-03-28T10:11:56.627Z</time></trkpt><trkpt lat="45.3726702" lon="10.521359"><ele>102.0</ele><time>2026-03-28T10:11:57.623Z</time></trkpt><trkpt lat="45.3727303" lon="10.5211317"><ele>101.0</ele><time>2026-03-28T10:11:58.626Z</time></trkpt><trkpt lat="45.3727931" lon="10.5208994"><ele>100.0</ele><time>2026-03-28T10:11:59.626Z</time></trkpt><trkpt lat="45.3728662" lon="10.5206461"><ele>99.0</ele><time>2026-03-28T10:12:00.624Z</time></trkpt><trkpt lat="45.3729412" lon="10.5204004"><ele>100.0</ele><time>2026-03-28T10:12:01.631Z</time></trkpt><trkpt lat="45.3730087" lon="10.5201383"><ele>101.0</ele><time>2026-03-28T10:12:02.622Z</time></trkpt><trkpt lat="45.3730736" lon="10.5198604"><ele>102.0</ele><time>2026-03-28T10:12:03.622Z</time></trkpt><trkpt lat="45.3731379" lon="10.5196008"><ele>103.66666666666666</ele><time>2026-03-28T10:12:04.618Z</time></trkpt><trkpt lat="45.3731924" lon="10.5193486"><ele>105.33333333333333</ele><time>2026-03-28T10:12:05.628Z</time></trkpt><trkpt lat="45.3732398" lon="10.5191042"><ele>107.0</ele><time>2026-03-28T10:12:06.633Z</time></trkpt><trkpt lat="45.373289" lon="10.518853"><ele>107.0</ele><time>2026-03-28T10:12:07.62Z</time></trkpt><trkpt lat="45.3733551" lon="10.5186064"><ele>107.0</ele><time>2026-03-28T10:12:08.624Z</time></trkpt><trkpt lat="45.373419" lon="10.5183788"><ele>107.0</ele><time>2026-03-28T10:12:09.626Z</time></trkpt><trkpt lat="45.3734749" lon="10.5181537"><ele>107.0</ele><time>2026-03-28T10:12:10.611Z</time></trkpt><trkpt lat="45.3735343" lon="10.5179267"><ele>107.0</ele><time>2026-03-28T10:12:11.62Z</time></trkpt><trkpt lat="45.3736067" lon="10.5176824"><ele>107.0</ele><time>2026-03-28T10:12:12.619Z</time></trkpt><trkpt lat="45.3736754" lon="10.5174298"><ele>107.33333333333333</ele><time>2026-03-28T10:12:13.621Z</time></trkpt><trkpt lat="45.3737583" lon="10.5171712"><ele>107.66666666666666</ele><time>2026-03-28T10:12:14.625Z</time></trkpt><trkpt lat="45.3738298" lon="10.5169082"><ele>108.0</ele><time>2026-03-28T10:12:15.623Z</time></trkpt><trkpt lat="45.3738971" lon="10.5166368"><ele>109.0</ele><time>2026-03-28T10:12:16.634Z</time></trkpt><trkpt lat="45.3739703" lon="10.5163467"><ele>110.0</ele><time>2026-03-28T10:12:17.62Z</time></trkpt><trkpt lat="45.3740454" lon="10.5160496"><ele>111.0</ele><time>2026-03-28T10:12:18.621Z</time></trkpt><trkpt lat="45.374108" lon="10.5157755"><ele>111.0</ele><time>2026-03-28T10:12:19.628Z</time></trkpt><trkpt lat="45.3741612" lon="10.515496"><ele>111.0</ele><time>2026-03-28T10:12:20.618Z</time></trkpt><trkpt lat="45.3742101" lon="10.5152327"><ele>111.0</ele><time>2026-03-28T10:12:21.625Z</time></trkpt><trkpt lat="45.3742708" lon="10.5149724"><ele>110.0</ele><time>2026-03-28T10:12:22.622Z</time></trkpt><trkpt lat="45.3743284" lon="10.5147142"><ele>109.0</ele><time>2026-03-28T10:12:23.628Z</time></trkpt><trkpt lat="45.3743854" lon="10.5144584"><ele>108.0</ele><time>2026-03-28T10:12:24.63Z</time></trkpt><trkpt lat="45.3744519" lon="10.5142187"><ele>108.0</ele><time>2026-03-28T10:12:25.637Z</time></trkpt><trkpt lat="45.3745125" lon="10.5139834"><ele>108.0</ele><time>2026-03-28T10:12:26.633Z</time></trkpt><trkpt lat="45.3745828" lon="10.5137496"><ele>108.0</ele><time>2026-03-28T10:12:27.635Z</time></trkpt><trkpt lat="45.3746552" lon="10.5135311"><ele>108.0</ele><time>2026-03-28T10:12:28.631Z</time></trkpt><trkpt lat="45.3747153" lon="10.5133314"><ele>108.0</ele><time>2026-03-28T10:12:29.639Z</time></trkpt><trkpt lat="45.3747814" lon="10.5131437"><ele>108.0</ele><time>2026-03-28T10:12:30.636Z</time></trkpt><trkpt lat="45.3748442" lon="10.512954"><ele>108.0</ele><time>2026-03-28T10:12:31.642Z</time></trkpt><trkpt lat="45.3749099" lon="10.512772"><ele>108.0</ele><time>2026-03-28T10:12:32.639Z</time></trkpt><trkpt lat="45.3749586" lon="10.5125718"><ele>108.0</ele><time>2026-03-28T10:12:33.632Z</time></trkpt><trkpt lat="45.3750238" lon="10.5123599"><ele>108.0</ele><time>2026-03-28T10:12:34.644Z</time></trkpt><trkpt lat="45.3750961" lon="10.5121303"><ele>108.0</ele><time>2026-03-28T10:12:35.634Z</time></trkpt><trkpt lat="45.3751604" lon="10.5119112"><ele>108.0</ele><time>2026-03-28T10:12:36.639Z</time></trkpt><trkpt lat="45.3752316" lon="10.5117037"><ele>108.0</ele><time>2026-03-28T10:12:37.628Z</time></trkpt><trkpt lat="45.3753031" lon="10.5114883"><ele>108.0</ele><time>2026-03-28T10:12:38.639Z</time></trkpt><trkpt lat="45.37537" lon="10.5112702"><ele>108.0</ele><time>2026-03-28T10:12:39.633Z</time></trkpt><trkpt lat="45.3754417" lon="10.5110736"><ele>108.0</ele><time>2026-03-28T10:12:40.635Z</time></trkpt><trkpt lat="45.3755133" lon="10.5108772"><ele>107.75</ele><time>2026-03-28T10:12:41.629Z</time></trkpt><trkpt lat="45.3755887" lon="10.5106755"><ele>107.5</ele><time>2026-03-28T10:12:42.629Z</time></trkpt><trkpt lat="45.375655" lon="10.5105004"><ele>107.25</ele><time>2026-03-28T10:12:43.632Z</time></trkpt><trkpt lat="45.3757105" lon="10.5103468"><ele>107.0</ele><time>2026-03-28T10:12:44.64Z</time></trkpt><trkpt lat="45.3757633" lon="10.5102075"><ele>107.0</ele><time>2026-03-28T10:12:45.634Z</time></trkpt><trkpt lat="45.3758311" lon="10.5100882"><ele>106.99999999999999</ele><time>2026-03-28T10:12:46.632Z</time></trkpt><trkpt lat="45.3759101" lon="10.5100234"><ele>106.99999999999999</ele><time>2026-03-28T10:12:47.634Z</time></trkpt><trkpt lat="45.3760027" lon="10.5099691"><ele>107.0</ele><time>2026-03-28T10:12:48.635Z</time></trkpt><trkpt lat="45.3760835" lon="10.5098961"><ele>107.0</ele><time>2026-03-28T10:12:49.643Z</time></trkpt><trkpt lat="45.3761106" lon="10.5097839"><ele>107.0</ele><time>2026-03-28T10:12:50.619Z</time></trkpt><trkpt lat="45.3761368" lon="10.5096549"><ele>106.99999999999999</ele><time>2026-03-28T10:12:51.621Z</time></trkpt><trkpt lat="45.3761495" lon="10.5095249"><ele>106.99999999999999</ele><time>2026-03-28T10:12:52.631Z</time></trkpt><trkpt lat="45.3761696" lon="10.5093757"><ele>107.0</ele><time>2026-03-28T10:12:53.618Z</time></trkpt><trkpt lat="45.3762056" lon="10.5092167"><ele>107.0</ele><time>2026-03-28T10:12:54.618Z</time></trkpt><trkpt lat="45.3762649" lon="10.5090391"><ele>107.0</ele><time>2026-03-28T10:12:55.627Z</time></trkpt><trkpt lat="45.3763617" lon="10.5088516"><ele>107.0</ele><time>2026-03-28T10:12:56.625Z</time></trkpt><trkpt lat="45.3764691" lon="10.5086663"><ele>107.0</ele><time>2026-03-28T10:12:57.625Z</time></trkpt><trkpt lat="45.3765524" lon="10.5085056"><ele>107.25</ele><time>2026-03-28T10:12:58.622Z</time></trkpt><trkpt lat="45.3766253" lon="10.5083559"><ele>107.5</ele><time>2026-03-28T10:12:59.623Z</time></trkpt><trkpt lat="45.3767137" lon="10.5082054"><ele>107.75</ele><time>2026-03-28T10:13:00.62Z</time></trkpt><trkpt lat="45.3768052" lon="10.5080527"><ele>108.0</ele><time>2026-03-28T10:13:01.621Z</time></trkpt><trkpt lat="45.376897" lon="10.5078851"><ele>108.25</ele><time>2026-03-28T10:13:02.621Z</time></trkpt><trkpt lat="45.3769966" lon="10.5077327"><ele>108.5</ele><time>2026-03-28T10:13:03.62Z</time></trkpt><trkpt lat="45.3771004" lon="10.5075799"><ele>108.75</ele><time>2026-03-28T10:13:04.621Z</time></trkpt><trkpt lat="45.3771943" lon="10.507431"><ele>109.0</ele><time>2026-03-28T10:13:05.619Z</time></trkpt><trkpt lat="45.3773028" lon="10.5073018"><ele>109.0</ele><time>2026-03-28T10:13:06.622Z</time></trkpt><trkpt lat="45.3774254" lon="10.5071539"><ele>109.0</ele><time>2026-03-28T10:13:07.621Z</time></trkpt><trkpt lat="45.3775406" lon="10.5070084"><ele>109.0</ele><time>2026-03-28T10:13:08.625Z</time></trkpt><trkpt lat="45.3776689" lon="10.506859"><ele>109.5</ele><time>2026-03-28T10:13:09.627Z</time></trkpt><trkpt lat="45.3777874" lon="10.5067074"><ele>110.0</ele><time>2026-03-28T10:13:10.626Z</time></trkpt><trkpt lat="45.377898" lon="10.5065657"><ele>110.5</ele><time>2026-03-28T10:13:11.625Z</time></trkpt><trkpt lat="45.3779736" lon="10.5064361"><ele>111.0</ele><time>2026-03-28T10:13:12.625Z</time></trkpt><trkpt lat="45.3780577" lon="10.5063012"><ele>110.4</ele><time>2026-03-28T10:13:13.616Z</time></trkpt><trkpt lat="45.3781235" lon="10.5061797"><ele>109.8</ele><time>2026-03-28T10:13:14.626Z</time></trkpt><trkpt lat="45.3781961" lon="10.5060619"><ele>109.20000000000002</ele><time>2026-03-28T10:13:15.633Z</time></trkpt><trkpt lat="45.3782652" lon="10.5059558"><ele>108.60000000000001</ele><time>2026-03-28T10:13:16.63Z</time></trkpt><trkpt lat="45.3783233" lon="10.505837"><ele>108.0</ele><time>2026-03-28T10:13:17.627Z</time></trkpt><trkpt lat="45.3783836" lon="10.5057032"><ele>108.0</ele><time>2026-03-28T10:13:18.621Z</time></trkpt><trkpt lat="45.3784476" lon="10.505561"><ele>108.0</ele><time>2026-03-28T10:13:19.628Z</time></trkpt><trkpt lat="45.3785177" lon="10.5054277"><ele>108.0</ele><time>2026-03-28T10:13:20.631Z</time></trkpt><trkpt lat="45.378591" lon="10.5052949"><ele>108.0</ele><time>2026-03-28T10:13:21.641Z</time></trkpt><trkpt lat="45.3786522" lon="10.5051684"><ele>108.25</ele><time>2026-03-28T10:13:22.635Z</time></trkpt><trkpt lat="45.3787218" lon="10.5050353"><ele>108.5</ele><time>2026-03-28T10:13:23.637Z</time></trkpt><trkpt lat="45.3788001" lon="10.5049112"><ele>108.75</ele><time>2026-03-28T10:13:24.643Z</time></trkpt><trkpt lat="45.3788805" lon="10.5047924"><ele>109.0</ele><time>2026-03-28T10:13:25.64Z</time></trkpt><trkpt lat="45.3789532" lon="10.5046875"><ele>109.00000000000001</ele><time>2026-03-28T10:13:26.645Z</time></trkpt><trkpt lat="45.3790227" lon="10.504593"><ele>109.0</ele><time>2026-03-28T10:13:27.641Z</time></trkpt><trkpt lat="45.3790875" lon="10.5045046"><ele>109.0</ele><time>2026-03-28T10:13:28.64Z</time></trkpt><trkpt lat="45.3791434" lon="10.5044237"><ele>109.0</ele><time>2026-03-28T10:13:29.629Z</time></trkpt><trkpt lat="45.3791938" lon="10.504367"><ele>109.00000000000001</ele><time>2026-03-28T10:13:30.634Z</time></trkpt><trkpt lat="45.3793044" lon="10.5043214"><ele>109.0</ele><time>2026-03-28T10:13:32.627Z</time></trkpt><trkpt lat="45.3793961" lon="10.5043252"><ele>108.50000000000001</ele><time>2026-03-28T10:13:34.627Z</time></trkpt><trkpt lat="45.3794609" lon="10.5042178"><ele>108.0</ele><time>2026-03-28T10:13:36.614Z</time></trkpt><trkpt lat="45.3794025" lon="10.5040866"><ele>107.5</ele><time>2026-03-28T10:13:38.611Z</time></trkpt><trkpt lat="45.3793373" lon="10.5040516"><ele>107.0</ele><time>2026-03-28T10:13:39.622Z</time></trkpt><trkpt lat="45.3792694" lon="10.5040106"><ele>106.50000000000001</ele><time>2026-03-28T10:13:40.626Z</time></trkpt><trkpt lat="45.3792107" lon="10.503948"><ele>106.0</ele><time>2026-03-28T10:13:41.622Z</time></trkpt><trkpt lat="45.3791533" lon="10.5038715"><ele>106.0</ele><time>2026-03-28T10:13:42.629Z</time></trkpt><trkpt lat="45.3790761" lon="10.5037959"><ele>106.0</ele><time>2026-03-28T10:13:43.626Z</time></trkpt><trkpt lat="45.3789819" lon="10.5037302"><ele>106.0</ele><time>2026-03-28T10:13:44.628Z</time></trkpt><trkpt lat="45.3788863" lon="10.5036888"><ele>106.0</ele><time>2026-03-28T10:13:45.625Z</time></trkpt><trkpt lat="45.3787881" lon="10.5036594"><ele>106.0</ele><time>2026-03-28T10:13:46.635Z</time></trkpt><trkpt lat="45.3786811" lon="10.5036323"><ele>104.8</ele><time>2026-03-28T10:13:47.628Z</time></trkpt><trkpt lat="45.3785766" lon="10.5036033"><ele>103.6</ele><time>2026-03-28T10:13:48.621Z</time></trkpt><trkpt lat="45.3784809" lon="10.5035792"><ele>102.4</ele><time>2026-03-28T10:13:49.626Z</time></trkpt><trkpt lat="45.3783906" lon="10.5035564"><ele>101.2</ele><time>2026-03-28T10:13:50.629Z</time></trkpt><trkpt lat="45.3783099" lon="10.5035277"><ele>100.0</ele><time>2026-03-28T10:13:51.623Z</time></trkpt><trkpt lat="45.3782308" lon="10.503498"><ele>100.00000000000001</ele><time>2026-03-28T10:13:52.631Z</time></trkpt><trkpt lat="45.3781602" lon="10.5034679"><ele>100.0</ele><time>2026-03-28T10:13:53.623Z</time></trkpt><trkpt lat="45.3780675" lon="10.5033948"><ele>100.0</ele><time>2026-03-28T10:13:55.624Z</time></trkpt><trkpt lat="45.3780205" lon="10.5033108"><ele>100.0</ele><time>2026-03-28T10:13:57.644Z</time></trkpt><trkpt lat="45.3780161" lon="10.5032079"><ele>100.00000000000001</ele><time>2026-03-28T10:13:59.63Z</time></trkpt><trkpt lat="45.3780502" lon="10.5031299"><ele>100.0</ele><time>2026-03-28T10:14:00.625Z</time></trkpt><trkpt lat="45.3781158" lon="10.5030374"><ele>100.0</ele><time>2026-03-28T10:14:01.63Z</time></trkpt><trkpt lat="45.3782156" lon="10.5029293"><ele>100.0</ele><time>2026-03-28T10:14:02.618Z</time></trkpt><trkpt lat="45.3783364" lon="10.5028178"><ele>100.0</ele><time>2026-03-28T10:14:03.62Z</time></trkpt><trkpt lat="45.3784713" lon="10.5027041"><ele>100.0</ele><time>2026-03-28T10:14:04.627Z</time></trkpt><trkpt lat="45.378614" lon="10.5025917"><ele>99.66666666666667</ele><time>2026-03-28T10:14:05.626Z</time></trkpt><trkpt lat="45.3787834" lon="10.5024686"><ele>99.33333333333334</ele><time>2026-03-28T10:14:06.623Z</time></trkpt><trkpt lat="45.3789172" lon="10.5023578"><ele>99.0</ele><time>2026-03-28T10:14:07.617Z</time></trkpt><trkpt lat="45.3790281" lon="10.502245"><ele>98.6</ele><time>2026-03-28T10:14:08.615Z</time></trkpt><trkpt lat="45.3791103" lon="10.5021641"><ele>98.2</ele><time>2026-03-28T10:14:09.622Z</time></trkpt><trkpt lat="45.3792088" lon="10.5020818"><ele>97.8</ele><time>2026-03-28T10:14:10.622Z</time></trkpt><trkpt lat="45.3793031" lon="10.5020105"><ele>97.39999999999999</ele><time>2026-03-28T10:14:11.621Z</time></trkpt><trkpt lat="45.3793956" lon="10.5019352"><ele>97.0</ele><time>2026-03-28T10:14:12.632Z</time></trkpt><trkpt lat="45.3794884" lon="10.5018529"><ele>97.0</ele><time>2026-03-28T10:14:13.634Z</time></trkpt><trkpt lat="45.3795805" lon="10.5017646"><ele>97.0</ele><time>2026-03-28T10:14:14.63Z</time></trkpt><trkpt lat="45.3796753" lon="10.5016637"><ele>97.0</ele><time>2026-03-28T10:14:15.63Z</time></trkpt><trkpt lat="45.3797841" lon="10.5015508"><ele>97.0</ele><time>2026-03-28T10:14:16.629Z</time></trkpt><trkpt lat="45.3799048" lon="10.5014305"><ele>97.66666666666667</ele><time>2026-03-28T10:14:17.621Z</time></trkpt><trkpt lat="45.3800379" lon="10.5012939"><ele>98.33333333333334</ele><time>2026-03-28T10:14:18.628Z</time></trkpt><trkpt lat="45.3801777" lon="10.501152"><ele>99.0</ele><time>2026-03-28T10:14:19.63Z</time></trkpt><trkpt lat="45.3803127" lon="10.5010115"><ele>99.0</ele><time>2026-03-28T10:14:20.63Z</time></trkpt><trkpt lat="45.3804514" lon="10.5009078"><ele>99.0</ele><time>2026-03-28T10:14:21.635Z</time></trkpt><trkpt lat="45.3805785" lon="10.5008065"><ele>99.0</ele><time>2026-03-28T10:14:22.639Z</time></trkpt><trkpt lat="45.3807096" lon="10.5006832"><ele>100.0</ele><time>2026-03-28T10:14:23.627Z</time></trkpt><trkpt lat="45.3808249" lon="10.5005712"><ele>101.0</ele><time>2026-03-28T10:14:24.63Z</time></trkpt><trkpt lat="45.3809307" lon="10.5004684"><ele>102.0</ele><time>2026-03-28T10:14:25.639Z</time></trkpt><trkpt lat="45.3810182" lon="10.500355"><ele>103.0</ele><time>2026-03-28T10:14:26.641Z</time></trkpt><trkpt lat="45.3811102" lon="10.5002358"><ele>103.0</ele><time>2026-03-28T10:14:27.638Z</time></trkpt><trkpt lat="45.38119" lon="10.5001667"><ele>103.0</ele><time>2026-03-28T10:14:28.641Z</time></trkpt><trkpt lat="45.3812716" lon="10.5000813"><ele>103.0</ele><time>2026-03-28T10:14:29.641Z</time></trkpt><trkpt lat="45.3813426" lon="10.4999948"><ele>103.0</ele><time>2026-03-28T10:14:30.643Z</time></trkpt><trkpt lat="45.3814093" lon="10.4999183"><ele>103.0</ele><time>2026-03-28T10:14:31.639Z</time></trkpt><trkpt lat="45.3814682" lon="10.4998427"><ele>102.80000000000001</ele><time>2026-03-28T10:14:32.64Z</time></trkpt><trkpt lat="45.381516" lon="10.4997687"><ele>102.6</ele><time>2026-03-28T10:14:33.646Z</time></trkpt><trkpt lat="45.3815941" lon="10.4996575"><ele>102.4</ele><time>2026-03-28T10:14:35.633Z</time></trkpt><trkpt lat="45.3816974" lon="10.4995612"><ele>102.19999999999999</ele><time>2026-03-28T10:14:37.638Z</time></trkpt><trkpt lat="45.3817664" lon="10.4995105"><ele>102.0</ele><time>2026-03-28T10:14:38.64Z</time></trkpt><trkpt lat="45.3818296" lon="10.499432"><ele>102.0</ele><time>2026-03-28T10:14:39.638Z</time></trkpt><trkpt lat="45.3818694" lon="10.499332"><ele>102.0</ele><time>2026-03-28T10:14:40.643Z</time></trkpt><trkpt lat="45.3818937" lon="10.4991997"><ele>102.0</ele><time>2026-03-28T10:14:41.638Z</time></trkpt><trkpt lat="45.3819275" lon="10.4990563"><ele>102.0</ele><time>2026-03-28T10:14:42.639Z</time></trkpt><trkpt lat="45.3819721" lon="10.4989281"><ele>102.0</ele><time>2026-03-28T10:14:43.641Z</time></trkpt><trkpt lat="45.3820155" lon="10.4988062"><ele>102.0</ele><time>2026-03-28T10:14:44.638Z</time></trkpt><trkpt lat="45.3820556" lon="10.4986791"><ele>102.0</ele><time>2026-03-28T10:14:45.633Z</time></trkpt><trkpt lat="45.3820983" lon="10.4985454"><ele>102.0</ele><time>2026-03-28T10:14:46.636Z</time></trkpt><trkpt lat="45.3821402" lon="10.4983977"><ele>102.0</ele><time>2026-03-28T10:14:47.635Z</time></trkpt><trkpt lat="45.3821737" lon="10.4982424"><ele>102.0</ele><time>2026-03-28T10:14:48.629Z</time></trkpt><trkpt lat="45.3822043" lon="10.4980809"><ele>101.5</ele><time>2026-03-28T10:14:49.635Z</time></trkpt><trkpt lat="45.3822404" lon="10.4979172"><ele>101.0</ele><time>2026-03-28T10:14:50.626Z</time></trkpt><trkpt lat="45.3822788" lon="10.4977596"><ele>100.5</ele><time>2026-03-28T10:14:51.621Z</time></trkpt><trkpt lat="45.3823168" lon="10.4976033"><ele>100.0</ele><time>2026-03-28T10:14:52.63Z</time></trkpt><trkpt lat="45.3823544" lon="10.4974463"><ele>100.0</ele><time>2026-03-28T10:14:53.625Z</time></trkpt><trkpt lat="45.3823931" lon="10.4972823"><ele>100.0</ele><time>2026-03-28T10:14:54.633Z</time></trkpt><trkpt lat="45.3824335" lon="10.4971232"><ele>100.0</ele><time>2026-03-28T10:14:55.632Z</time></trkpt><trkpt lat="45.3824722" lon="10.4969654"><ele>100.0</ele><time>2026-03-28T10:14:56.626Z</time></trkpt><trkpt lat="45.3825148" lon="10.4968084"><ele>100.0</ele><time>2026-03-28T10:14:57.634Z</time></trkpt><trkpt lat="45.3825542" lon="10.4966482"><ele>100.0</ele><time>2026-03-28T10:14:58.635Z</time></trkpt><trkpt lat="45.3825953" lon="10.4964752"><ele>100.0</ele><time>2026-03-28T10:14:59.632Z</time></trkpt><trkpt lat="45.382639" lon="10.496295"><ele>100.0</ele><time>2026-03-28T10:15:00.625Z</time></trkpt><trkpt lat="45.3826831" lon="10.4961079"><ele>99.25</ele><time>2026-03-28T10:15:01.628Z</time></trkpt><trkpt lat="45.3827281" lon="10.4959088"><ele>98.5</ele><time>2026-03-28T10:15:02.635Z</time></trkpt><trkpt lat="45.3827732" lon="10.4957061"><ele>97.75</ele><time>2026-03-28T10:15:03.619Z</time></trkpt><trkpt lat="45.3828203" lon="10.4955249"><ele>97.0</ele><time>2026-03-28T10:15:04.623Z</time></trkpt><trkpt lat="45.3828745" lon="10.495342"><ele>97.0</ele><time>2026-03-28T10:15:05.624Z</time></trkpt><trkpt lat="45.3829187" lon="10.4951702"><ele>97.0</ele><time>2026-03-28T10:15:06.63Z</time></trkpt><trkpt lat="45.3829665" lon="10.494987"><ele>97.0</ele><time>2026-03-28T10:15:07.621Z</time></trkpt><trkpt lat="45.3830125" lon="10.4948003"><ele>97.0</ele><time>2026-03-28T10:15:08.627Z</time></trkpt><trkpt lat="45.3830591" lon="10.4946236"><ele>96.25</ele><time>2026-03-28T10:15:09.627Z</time></trkpt><trkpt lat="45.3831074" lon="10.494452"><ele>95.5</ele><time>2026-03-28T10:15:10.632Z</time></trkpt><trkpt lat="45.3831455" lon="10.4942854"><ele>94.75</ele><time>2026-03-28T10:15:11.632Z</time></trkpt><trkpt lat="45.383196" lon="10.4941088"><ele>94.0</ele><time>2026-03-28T10:15:12.626Z</time></trkpt><trkpt lat="45.3832555" lon="10.4939296"><ele>93.25</ele><time>2026-03-28T10:15:13.628Z</time></trkpt><trkpt lat="45.3833058" lon="10.4937528"><ele>92.5</ele><time>2026-03-28T10:15:14.631Z</time></trkpt><trkpt lat="45.3833599" lon="10.4935683"><ele>91.75</ele><time>2026-03-28T10:15:15.628Z</time></trkpt><trkpt lat="45.3834084" lon="10.4933955"><ele>91.0</ele><time>2026-03-28T10:15:16.62Z</time></trkpt><trkpt lat="45.3834611" lon="10.4932387"><ele>91.0</ele><time>2026-03-28T10:15:17.623Z</time></trkpt><trkpt lat="45.3835021" lon="10.4930748"><ele>91.0</ele><time>2026-03-28T10:15:18.621Z</time></trkpt><trkpt lat="45.3835448" lon="10.4929088"><ele>91.0</ele><time>2026-03-28T10:15:19.616Z</time></trkpt><trkpt lat="45.3835815" lon="10.4927535"><ele>91.0</ele><time>2026-03-28T10:15:20.618Z</time></trkpt><trkpt lat="45.3836138" lon="10.492612"><ele>91.0</ele><time>2026-03-28T10:15:21.616Z</time></trkpt><trkpt lat="45.3836467" lon="10.4924768"><ele>91.0</ele><time>2026-03-28T10:15:22.612Z</time></trkpt><trkpt lat="45.383683" lon="10.492348"><ele>91.0</ele><time>2026-03-28T10:15:23.622Z</time></trkpt><trkpt lat="45.3837121" lon="10.4922266"><ele>91.0</ele><time>2026-03-28T10:15:24.62Z</time></trkpt><trkpt lat="45.3837426" lon="10.4921216"><ele>91.0</ele><time>2026-03-28T10:15:25.616Z</time></trkpt><trkpt lat="45.3837718" lon="10.4920233"><ele>91.0</ele><time>2026-03-28T10:15:26.621Z</time></trkpt><trkpt lat="45.3838139" lon="10.4919388"><ele>91.66666666666666</ele><time>2026-03-28T10:15:27.621Z</time></trkpt><trkpt lat="45.3838738" lon="10.4918655"><ele>92.33333333333333</ele><time>2026-03-28T10:15:28.616Z</time></trkpt><trkpt lat="45.3839418" lon="10.4917902"><ele>93.0</ele><time>2026-03-28T10:15:29.622Z</time></trkpt><trkpt lat="45.3839969" lon="10.4916979"><ele>93.66666666666667</ele><time>2026-03-28T10:15:30.614Z</time></trkpt><trkpt lat="45.3840243" lon="10.4915807"><ele>94.33333333333334</ele><time>2026-03-28T10:15:31.622Z</time></trkpt><trkpt lat="45.3840214" lon="10.4914585"><ele>95.0</ele><time>2026-03-28T10:15:32.621Z</time></trkpt><trkpt lat="45.3840042" lon="10.4913349"><ele>94.8</ele><time>2026-03-28T10:15:33.62Z</time></trkpt><trkpt lat="45.383995" lon="10.4911965"><ele>94.6</ele><time>2026-03-28T10:15:34.628Z</time></trkpt><trkpt lat="45.3840177" lon="10.4910561"><ele>94.4</ele><time>2026-03-28T10:15:35.614Z</time></trkpt><trkpt lat="45.3840595" lon="10.4909167"><ele>94.2</ele><time>2026-03-28T10:15:36.618Z</time></trkpt><trkpt lat="45.3841049" lon="10.4907765"><ele>94.0</ele><time>2026-03-28T10:15:37.612Z</time></trkpt><trkpt lat="45.3841469" lon="10.4906327"><ele>94.0</ele><time>2026-03-28T10:15:38.616Z</time></trkpt><trkpt lat="45.3841845" lon="10.4904904"><ele>94.0</ele><time>2026-03-28T10:15:39.61Z</time></trkpt><trkpt lat="45.3842177" lon="10.4903598"><ele>94.0</ele><time>2026-03-28T10:15:40.621Z</time></trkpt><trkpt lat="45.3842514" lon="10.4902416"><ele>94.0</ele><time>2026-03-28T10:15:41.612Z</time></trkpt><trkpt lat="45.384284" lon="10.4901195"><ele>94.0</ele><time>2026-03-28T10:15:42.622Z</time></trkpt><trkpt lat="45.3843182" lon="10.4899869"><ele>94.0</ele><time>2026-03-28T10:15:43.624Z</time></trkpt><trkpt lat="45.3843531" lon="10.4898563"><ele>94.0</ele><time>2026-03-28T10:15:44.616Z</time></trkpt><trkpt lat="45.3843905" lon="10.4897266"><ele>94.0</ele><time>2026-03-28T10:15:45.624Z</time></trkpt><trkpt lat="45.3844231" lon="10.4895993"><ele>94.0</ele><time>2026-03-28T10:15:46.622Z</time></trkpt><trkpt lat="45.3844588" lon="10.4894786"><ele>94.0</ele><time>2026-03-28T10:15:47.619Z</time></trkpt><trkpt lat="45.3844895" lon="10.4893546"><ele>94.0</ele><time>2026-03-28T10:15:48.621Z</time></trkpt><trkpt lat="45.3845171" lon="10.4892469"><ele>94.0</ele><time>2026-03-28T10:15:49.624Z</time></trkpt><trkpt lat="45.3845399" lon="10.4891625"><ele>94.0</ele><time>2026-03-28T10:15:50.616Z</time></trkpt><trkpt lat="45.3845752" lon="10.4890536"><ele>94.0</ele><time>2026-03-28T10:15:52.621Z</time></trkpt><trkpt lat="45.3846235" lon="10.4889171"><ele>94.0</ele><time>2026-03-28T10:15:55.626Z</time></trkpt><trkpt lat="45.384654" lon="10.4888308"><ele>94.0</ele><time>2026-03-28T10:15:56.626Z</time></trkpt><trkpt lat="45.3846815" lon="10.4887483"><ele>94.4</ele><time>2026-03-28T10:15:57.617Z</time></trkpt><trkpt lat="45.3847067" lon="10.4886315"><ele>94.80000000000001</ele><time>2026-03-28T10:15:58.621Z</time></trkpt><trkpt lat="45.3847302" lon="10.488499"><ele>95.19999999999999</ele><time>2026-03-28T10:15:59.622Z</time></trkpt><trkpt lat="45.3847618" lon="10.4883653"><ele>95.6</ele><time>2026-03-28T10:16:00.608Z</time></trkpt><trkpt lat="45.3847986" lon="10.4882142"><ele>96.0</ele><time>2026-03-28T10:16:01.624Z</time></trkpt><trkpt lat="45.384837" lon="10.4880468"><ele>96.0</ele><time>2026-03-28T10:16:02.607Z</time></trkpt><trkpt lat="45.384875" lon="10.4878751"><ele>96.0</ele><time>2026-03-28T10:16:03.62Z</time></trkpt><trkpt lat="45.3849172" lon="10.4877112"><ele>96.0</ele><time>2026-03-28T10:16:04.612Z</time></trkpt><trkpt lat="45.3849581" lon="10.4875636"><ele>96.0</ele><time>2026-03-28T10:16:05.615Z</time></trkpt><trkpt lat="45.3850772" lon="10.4871632"><ele>93.0</ele><time>2026-03-28T10:16:09.624Z</time></trkpt><trkpt lat="45.3858998" lon="10.4856321"><ele>92.0</ele><time>2026-03-28T10:16:53.619Z</time></trkpt><trkpt lat="45.3872521" lon="10.4834759"><ele>96.0</ele><time>2026-03-28T10:17:58.641Z</time></trkpt><trkpt lat="45.3881975" lon="10.4820519"><ele>97.0</ele><time>2026-03-28T10:18:42.633Z</time></trkpt><trkpt lat="45.3892824" lon="10.4805983"><ele>98.0</ele><time>2026-03-28T10:19:05.627Z</time></trkpt><trkpt lat="45.3916811" lon="10.4786494"><ele>99.0</ele><time>2026-03-28T10:19:41.625Z</time></trkpt><trkpt lat="45.3935449" lon="10.4771512"><ele>102.0</ele><time>2026-03-28T10:20:00.623Z</time></trkpt><trkpt lat="45.3955972" lon="10.4745979"><ele>100.0</ele><time>2026-03-28T10:20:39.628Z</time></trkpt><trkpt lat="45.3963292" lon="10.4717698"><ele>99.0</ele><time>2026-03-28T10:20:57.624Z</time></trkpt><trkpt lat="45.3972875" lon="10.4680425"><ele>99.0</ele><time>2026-03-28T10:21:16.633Z</time></trkpt><trkpt lat="45.3983235" lon="10.4644925"><ele>97.0</ele><time>2026-03-28T10:21:38.625Z</time></trkpt><trkpt lat="45.3989303" lon="10.4616722"><ele>96.0</ele><time>2026-03-28T10:21:56.625Z</time></trkpt><trkpt lat="45.3989173" lon="10.4576327"><ele>93.0</ele><time>2026-03-28T10:22:15.632Z</time></trkpt><trkpt lat="45.3989862" lon="10.4537573"><ele>91.0</ele><time>2026-03-28T10:22:33.63Z</time></trkpt><trkpt lat="45.399656" lon="10.4489215"><ele>96.0</ele><time>2026-03-28T10:22:52.626Z</time></trkpt><trkpt lat="45.4007621" lon="10.4443281"><ele>93.0</ele><time>2026-03-28T10:23:12.627Z</time></trkpt><trkpt lat="45.4019509" lon="10.4396671"><ele>93.0</ele><time>2026-03-28T10:23:40.631Z</time></trkpt><trkpt lat="45.4029856" lon="10.4358553"><ele>94.0</ele><time>2026-03-28T10:23:57.628Z</time></trkpt><trkpt lat="45.4040328" lon="10.4312071"><ele>93.0</ele><time>2026-03-28T10:24:19.627Z</time></trkpt><trkpt lat="45.4048727" lon="10.4274158"><ele>92.0</ele><time>2026-03-28T10:24:37.629Z</time></trkpt><trkpt lat="45.4056396" lon="10.4236285"><ele>94.0</ele><time>2026-03-28T10:24:54.63Z</time></trkpt><trkpt lat="45.4063885" lon="10.4198276"><ele>95.0</ele><time>2026-03-28T10:25:15.628Z</time></trkpt><trkpt lat="45.4071386" lon="10.4150709"><ele>102.0</ele><time>2026-03-28T10:25:34.633Z</time></trkpt><trkpt lat="45.4081238" lon="10.4104525"><ele>100.0</ele><time>2026-03-28T10:25:57.632Z</time></trkpt><trkpt lat="45.4089794" lon="10.4077227"><ele>102.0</ele><time>2026-03-28T10:26:17.622Z</time></trkpt><trkpt lat="45.4096671" lon="10.4040141"><ele>102.0</ele><time>2026-03-28T10:26:53.613Z</time></trkpt><trkpt lat="45.4096328" lon="10.4010926"><ele>103.0</ele><time>2026-03-28T10:27:12.613Z</time></trkpt><trkpt lat="45.4096753" lon="10.3982048"><ele>103.0</ele><time>2026-03-28T10:27:32.614Z</time></trkpt></trkseg></trk></gpx>